<?xml version='1.0' encoding='UTF-8'?><gpx version="1.1" creator="JPX - https://github.com/jenetics/jpx" xmlns="http://www.topografix.com/GPX/1/1"><trk><trkseg><trkpt lat="36.91295866314974" lon="15.151828274884872"><ele>10.0</ele><time>2026-03-26T14:42:39Z</time></trkpt><trkpt lat="36.912892218830535" lon="15.151961339658268"><ele>10.0</ele><time>2026-03-26T14:42:41Z</time></trkpt><trkpt lat="36.91285278858328" lon="15.152074495350655"><ele>10.0</ele><time>2026-03-26T14:42:43Z</time></trkpt><trkpt lat="36.91274069839574" lon="15.152137970869497"><ele>10.0</ele><time>2026-03-26T14:42:45Z</time></trkpt><trkpt lat="36.91265592900268" lon="15.152081217642941"><ele>10.0</ele><time>2026-03-26T14:42:46Z</time></trkpt><trkpt lat="36.91254911065859" lon="15.152048466887809"><ele>9.5</ele><time>2026-03-26T14:42:47Z</time></trkpt><trkpt lat="36.9124363465768" lon="15.151980443339985"><ele>9.0</ele><time>2026-03-26T14:42:48Z</time></trkpt><trkpt lat="36.912330819003756" lon="15.15189628183505"><ele>8.5</ele><time>2026-03-26T14:42:49Z</time></trkpt><trkpt lat="36.91223306269315" lon="15.151838328201357"><ele>8.0</ele><time>2026-03-26T14:42:50Z</time></trkpt><trkpt lat="36.912137019657045" lon="15.151781655291316"><ele>8.0</ele><time>2026-03-26T14:42:51Z</time></trkpt><trkpt lat="36.912032534079884" lon="15.15173657650029"><ele>8.0</ele><time>2026-03-26T14:42:52Z</time></trkpt><trkpt lat="36.91193107341118" lon="15.151677393360645"><ele>8.0</ele><time>2026-03-26T14:42:53Z</time></trkpt><trkpt lat="36.911832225935626" lon="15.151615987512349"><ele>8.0</ele><time>2026-03-26T14:42:54Z</time></trkpt><trkpt lat="36.91173355356003" lon="15.151556037763031"><ele>8.0</ele><time>2026-03-26T14:42:55Z</time></trkpt><trkpt lat="36.91163680519887" lon="15.151496202459972"><ele>8.8</ele><time>2026-03-26T14:42:56Z</time></trkpt><trkpt lat="36.91154077721919" lon="15.151439606716192"><ele>9.600000000000001</ele><time>2026-03-26T14:42:57Z</time></trkpt><trkpt lat="36.911436496721635" lon="15.151380250946968"><ele>10.399999999999999</ele><time>2026-03-26T14:42:58Z</time></trkpt><trkpt lat="36.91133030775422" lon="15.151323168087613"><ele>11.2</ele><time>2026-03-26T14:42:59Z</time></trkpt><trkpt lat="36.91123132675574" lon="15.151268895541504"><ele>12.0</ele><time>2026-03-26T14:43:00Z</time></trkpt><trkpt lat="36.91113496093558" lon="15.151232102559028"><ele>12.0</ele><time>2026-03-26T14:43:01Z</time></trkpt><trkpt lat="36.91102619968582" lon="15.15118604736934"><ele>12.0</ele><time>2026-03-26T14:43:02Z</time></trkpt><trkpt lat="36.91089536134393" lon="15.1511472608689"><ele>12.0</ele><time>2026-03-26T14:43:03Z</time></trkpt><trkpt lat="36.910746140974744" lon="15.151106703058568"><ele>12.0</ele><time>2026-03-26T14:43:04Z</time></trkpt><trkpt lat="36.91057771158489" lon="15.151063541802097"><ele>11.666666666666666</ele><time>2026-03-26T14:43:05Z</time></trkpt><trkpt lat="36.910401084454904" lon="15.150999096914497"><ele>11.333333333333332</ele><time>2026-03-26T14:43:06Z</time></trkpt><trkpt lat="36.91023001261655" lon="15.150934228396595"><ele>11.0</ele><time>2026-03-26T14:43:07Z</time></trkpt><trkpt lat="36.91005934169553" lon="15.150868657273087"><ele>11.333333333333332</ele><time>2026-03-26T14:43:08Z</time></trkpt><trkpt lat="36.90989177761623" lon="15.150788024592721"><ele>11.666666666666666</ele><time>2026-03-26T14:43:09Z</time></trkpt><trkpt lat="36.909729865952706" lon="15.150695216828796"><ele>12.0</ele><time>2026-03-26T14:43:10Z</time></trkpt><trkpt lat="36.909562966768384" lon="15.150603965350218"><ele>12.0</ele><time>2026-03-26T14:43:11Z</time></trkpt><trkpt lat="36.90939717704046" lon="15.150504715544855"><ele>12.0</ele><time>2026-03-26T14:43:12Z</time></trkpt><trkpt lat="36.909226421921154" lon="15.150414656224479"><ele>12.0</ele><time>2026-03-26T14:43:13Z</time></trkpt><trkpt lat="36.90904933123804" lon="15.150320365540356"><ele>11.333333333333334</ele><time>2026-03-26T14:43:14Z</time></trkpt><trkpt lat="36.90887725044743" lon="15.150217029322654"><ele>10.666666666666668</ele><time>2026-03-26T14:43:15Z</time></trkpt><trkpt lat="36.90869957813659" lon="15.150120515481813"><ele>10.0</ele><time>2026-03-26T14:43:16Z</time></trkpt><trkpt lat="36.908519380095385" lon="15.150033636555328"><ele>9.333333333333334</ele><time>2026-03-26T14:43:17Z</time></trkpt><trkpt lat="36.908349391784256" lon="15.149958881704961"><ele>8.666666666666666</ele><time>2026-03-26T14:43:18Z</time></trkpt><trkpt lat="36.9081874582829" lon="15.149903252131946"><ele>8.0</ele><time>2026-03-26T14:43:19Z</time></trkpt><trkpt lat="36.90803813964603" lon="15.149871106882308"><ele>9.0</ele><time>2026-03-26T14:43:20Z</time></trkpt><trkpt lat="36.90790230493208" lon="15.149845795634382"><ele>10.0</ele><time>2026-03-26T14:43:21Z</time></trkpt><trkpt lat="36.90776993063574" lon="15.149805884726755"><ele>11.0</ele><time>2026-03-26T14:43:22Z</time></trkpt><trkpt lat="36.90763635974968" lon="15.149724841960925"><ele>12.0</ele><time>2026-03-26T14:43:23Z</time></trkpt><trkpt lat="36.90751338055138" lon="15.14959836508522"><ele>12.0</ele><time>2026-03-26T14:43:24Z</time></trkpt><trkpt lat="36.90742291939709" lon="15.149425218785945"><ele>12.0</ele><time>2026-03-26T14:43:25Z</time></trkpt><trkpt lat="36.90731495028805" lon="15.14927434061096"><ele>12.0</ele><time>2026-03-26T14:43:26Z</time></trkpt><trkpt lat="36.90722662911712" lon="15.149112391906481"><ele>12.75</ele><time>2026-03-26T14:43:27Z</time></trkpt><trkpt lat="36.907141247732625" lon="15.148955662973817"><ele>13.5</ele><time>2026-03-26T14:43:28Z</time></trkpt><trkpt lat="36.9070552417404" lon="15.148802171965498"><ele>14.25</ele><time>2026-03-26T14:43:29Z</time></trkpt><trkpt lat="36.90697862087054" lon="15.148663420368141"><ele>15.0</ele><time>2026-03-26T14:43:30Z</time></trkpt><trkpt lat="36.906897590713186" lon="15.14853823950381"><ele>15.0</ele><time>2026-03-26T14:43:31Z</time></trkpt><trkpt lat="36.90680068606145" lon="15.148421321363136"><ele>15.0</ele><time>2026-03-26T14:43:32Z</time></trkpt><trkpt lat="36.90667935848374" lon="15.148313663693077"><ele>15.0</ele><time>2026-03-26T14:43:33Z</time></trkpt><trkpt lat="36.90654827902225" lon="15.14822343319384"><ele>15.0</ele><time>2026-03-26T14:43:34Z</time></trkpt><trkpt lat="36.90642153551169" lon="15.148169497976031"><ele>15.0</ele><time>2026-03-26T14:43:35Z</time></trkpt><trkpt lat="36.906304248726194" lon="15.148139895107198"><ele>15.0</ele><time>2026-03-26T14:43:36Z</time></trkpt><trkpt lat="36.90618825264349" lon="15.148112505161777"><ele>15.0</ele><time>2026-03-26T14:43:37Z</time></trkpt><trkpt lat="36.906071348487565" lon="15.148086387012222"><ele>15.0</ele><time>2026-03-26T14:43:38Z</time></trkpt><trkpt lat="36.90596814836565" lon="15.148038785673208"><ele>14.75</ele><time>2026-03-26T14:43:39Z</time></trkpt><trkpt lat="36.90586258772109" lon="15.14800822606858"><ele>14.5</ele><time>2026-03-26T14:43:40Z</time></trkpt><trkpt lat="36.905730898179414" lon="15.147986077534958"><ele>14.25</ele><time>2026-03-26T14:43:41Z</time></trkpt><trkpt lat="36.90557441370451" lon="15.14793425322267"><ele>14.0</ele><time>2026-03-26T14:43:42Z</time></trkpt><trkpt lat="36.90541052594201" lon="15.147885511715634"><ele>14.0</ele><time>2026-03-26T14:43:43Z</time></trkpt><trkpt lat="36.90523802144381" lon="15.147834665424531"><ele>14.0</ele><time>2026-03-26T14:43:44Z</time></trkpt><trkpt lat="36.90507438382615" lon="15.147787388491432"><ele>14.0</ele><time>2026-03-26T14:43:45Z</time></trkpt><trkpt lat="36.9049182987887" lon="15.14773866357339"><ele>13.25</ele><time>2026-03-26T14:43:46Z</time></trkpt><trkpt lat="36.904767117120294" lon="15.14769587975348"><ele>12.5</ele><time>2026-03-26T14:43:47Z</time></trkpt><trkpt lat="36.90463353015004" lon="15.147658973481315"><ele>11.75</ele><time>2026-03-26T14:43:48Z</time></trkpt><trkpt lat="36.904513990082705" lon="15.147622395163136"><ele>11.0</ele><time>2026-03-26T14:43:49Z</time></trkpt><trkpt lat="36.904397138246736" lon="15.147587295814908"><ele>11.0</ele><time>2026-03-26T14:43:50Z</time></trkpt><trkpt lat="36.90429085885529" lon="15.147557243958254"><ele>11.0</ele><time>2026-03-26T14:43:51Z</time></trkpt><trkpt lat="36.904182970028224" lon="15.147503983864818"><ele>11.0</ele><time>2026-03-26T14:43:52Z</time></trkpt><trkpt lat="36.904052074222314" lon="15.147464913936822"><ele>11.0</ele><time>2026-03-26T14:43:53Z</time></trkpt><trkpt lat="36.9039041445033" lon="15.147422717983202"><ele>10.666666666666666</ele><time>2026-03-26T14:43:54Z</time></trkpt><trkpt lat="36.90375270311228" lon="15.147380874510565"><ele>10.333333333333334</ele><time>2026-03-26T14:43:55Z</time></trkpt><trkpt lat="36.903607045014745" lon="15.14730865811354"><ele>10.0</ele><time>2026-03-26T14:43:56Z</time></trkpt><trkpt lat="36.903478582174216" lon="15.147197967672831"><ele>11.0</ele><time>2026-03-26T14:43:57Z</time></trkpt><trkpt lat="36.90336569038263" lon="15.147046362741634"><ele>12.0</ele><time>2026-03-26T14:43:58Z</time></trkpt><trkpt lat="36.903248574095414" lon="15.146886217618725"><ele>13.0</ele><time>2026-03-26T14:43:59Z</time></trkpt><trkpt lat="36.903126780585005" lon="15.146726374101773"><ele>13.0</ele><time>2026-03-26T14:44:00Z</time></trkpt><trkpt lat="36.90300269695219" lon="15.146570104048212"><ele>13.0</ele><time>2026-03-26T14:44:01Z</time></trkpt><trkpt lat="36.90287919745852" lon="15.146405682795768"><ele>13.0</ele><time>2026-03-26T14:44:02Z</time></trkpt><trkpt lat="36.90275471663237" lon="15.146238981214264"><ele>13.666666666666666</ele><time>2026-03-26T14:44:02.999Z</time></trkpt><trkpt lat="36.90262764180789" lon="15.146075859530317"><ele>14.333333333333332</ele><time>2026-03-26T14:44:03.999Z</time></trkpt><trkpt lat="36.90249773113993" lon="15.145914885729367"><ele>15.0</ele><time>2026-03-26T14:44:04.999Z</time></trkpt><trkpt lat="36.9023683718461" lon="15.145757132131214"><ele>15.333333333333332</ele><time>2026-03-26T14:44:05.999Z</time></trkpt><trkpt lat="36.902240694196806" lon="15.145597628425632"><ele>15.666666666666666</ele><time>2026-03-26T14:44:06.999Z</time></trkpt><trkpt lat="36.90212563863275" lon="15.145454648962136"><ele>16.0</ele><time>2026-03-26T14:44:07.999Z</time></trkpt><trkpt lat="36.90201907445546" lon="15.14531568858022"><ele>16.0</ele><time>2026-03-26T14:44:08.999Z</time></trkpt><trkpt lat="36.9019092156324" lon="15.145174928290487"><ele>16.0</ele><time>2026-03-26T14:44:09.999Z</time></trkpt><trkpt lat="36.90180507556186" lon="15.14505342865044"><ele>16.0</ele><time>2026-03-26T14:44:10.999Z</time></trkpt><trkpt lat="36.90172746360936" lon="15.14492947331735"><ele>16.0</ele><time>2026-03-26T14:44:12Z</time></trkpt><trkpt lat="36.901640398296124" lon="15.144816049178218"><ele>15.75</ele><time>2026-03-26T14:44:13Z</time></trkpt><trkpt lat="36.901551531288725" lon="15.144700063135577"><ele>15.5</ele><time>2026-03-26T14:44:14Z</time></trkpt><trkpt lat="36.901458786999015" lon="15.144578799413168"><ele>15.25</ele><time>2026-03-26T14:44:15Z</time></trkpt><trkpt lat="36.90136183351626" lon="15.144456969479702"><ele>15.0</ele><time>2026-03-26T14:44:16Z</time></trkpt><trkpt lat="36.901255683307916" lon="15.144330300444675"><ele>15.0</ele><time>2026-03-26T14:44:17Z</time></trkpt><trkpt lat="36.901140222524724" lon="15.144204664277083"><ele>15.0</ele><time>2026-03-26T14:44:18Z</time></trkpt><trkpt lat="36.90102740884971" lon="15.144065779630841"><ele>15.0</ele><time>2026-03-26T14:44:19Z</time></trkpt><trkpt lat="36.90093397446887" lon="15.143935134853004"><ele>15.0</ele><time>2026-03-26T14:44:20Z</time></trkpt><trkpt lat="36.90081954205666" lon="15.14386169658709"><ele>15.0</ele><time>2026-03-26T14:44:21Z</time></trkpt><trkpt lat="36.90071491967867" lon="15.143798047550876"><ele>15.0</ele><time>2026-03-26T14:44:22Z</time></trkpt><trkpt lat="36.90060698399651" lon="15.143752850172394"><ele>15.0</ele><time>2026-03-26T14:44:23Z</time></trkpt><trkpt lat="36.9005066758544" lon="15.143702390242629"><ele>15.0</ele><time>2026-03-26T14:44:24Z</time></trkpt><trkpt lat="36.90041954284047" lon="15.143648728495242"><ele>15.0</ele><time>2026-03-26T14:44:25Z</time></trkpt><trkpt lat="36.900343528525774" lon="15.14359167488567"><ele>15.0</ele><time>2026-03-26T14:44:26Z</time></trkpt><trkpt lat="36.900282997825734" lon="15.143536567820002"><ele>15.0</ele><time>2026-03-26T14:44:27Z</time></trkpt><trkpt lat="36.90022895326944" lon="15.143454826370668"><ele>15.0</ele><time>2026-03-26T14:44:29Z</time></trkpt><trkpt lat="36.90028784060667" lon="15.143334434773221"><ele>15.0</ele><time>2026-03-26T14:44:31Z</time></trkpt><trkpt lat="36.90034311038098" lon="15.143222969835406"><ele>15.0</ele><time>2026-03-26T14:44:32Z</time></trkpt><trkpt lat="36.90040918995874" lon="15.143089704295047"><ele>15.0</ele><time>2026-03-26T14:44:33Z</time></trkpt><trkpt lat="36.9004829048438" lon="15.14294104028547"><ele>15.0</ele><time>2026-03-26T14:44:34Z</time></trkpt><trkpt lat="36.90055801572494" lon="15.142790223315009"><ele>15.0</ele><time>2026-03-26T14:44:35Z</time></trkpt><trkpt lat="36.90062854443753" lon="15.142627409955086"><ele>15.0</ele><time>2026-03-26T14:44:36Z</time></trkpt><trkpt lat="36.900719523755264" lon="15.142451070771953"><ele>15.0</ele><time>2026-03-26T14:44:37Z</time></trkpt><trkpt lat="36.900808371906855" lon="15.142269388079363"><ele>16.0</ele><time>2026-03-26T14:44:38Z</time></trkpt><trkpt lat="36.9008963581274" lon="15.142095145703411"><ele>17.0</ele><time>2026-03-26T14:44:39Z</time></trkpt><trkpt lat="36.90098914602395" lon="15.141927665185438"><ele>18.0</ele><time>2026-03-26T14:44:40Z</time></trkpt><trkpt lat="36.90107886489422" lon="15.14175610221055"><ele>18.333333333333332</ele><time>2026-03-26T14:44:41Z</time></trkpt><trkpt lat="36.90117587677767" lon="15.141558066982647"><ele>18.666666666666664</ele><time>2026-03-26T14:44:42Z</time></trkpt><trkpt lat="36.90127024427785" lon="15.14136752105378"><ele>19.0</ele><time>2026-03-26T14:44:43Z</time></trkpt><trkpt lat="36.90136433547479" lon="15.141173560864077"><ele>19.0</ele><time>2026-03-26T14:44:44Z</time></trkpt><trkpt lat="36.9014575976982" lon="15.140992367681422"><ele>19.0</ele><time>2026-03-26T14:44:45Z</time></trkpt><trkpt lat="36.901541681793184" lon="15.140816888893335"><ele>19.0</ele><time>2026-03-26T14:44:46Z</time></trkpt><trkpt lat="36.90162498905341" lon="15.140648288962819"><ele>19.25</ele><time>2026-03-26T14:44:47Z</time></trkpt><trkpt lat="36.90170624510855" lon="15.140484382538773"><ele>19.5</ele><time>2026-03-26T14:44:48Z</time></trkpt><trkpt lat="36.90177890188399" lon="15.1403377003574"><ele>19.75</ele><time>2026-03-26T14:44:49Z</time></trkpt><trkpt lat="36.90185368061083" lon="15.140193230512287"><ele>20.0</ele><time>2026-03-26T14:44:50Z</time></trkpt><trkpt lat="36.90192923943531" lon="15.140044708218314"><ele>20.0</ele><time>2026-03-26T14:44:51Z</time></trkpt><trkpt lat="36.90199901949368" lon="15.139900736172413"><ele>20.0</ele><time>2026-03-26T14:44:52Z</time></trkpt><trkpt lat="36.902060111642946" lon="15.139772278927685"><ele>20.0</ele><time>2026-03-26T14:44:53Z</time></trkpt><trkpt lat="36.902120468339014" lon="15.13964927244526"><ele>20.0</ele><time>2026-03-26T14:44:54Z</time></trkpt><trkpt lat="36.90219197326771" lon="15.139513652438643"><ele>20.8</ele><time>2026-03-26T14:44:55Z</time></trkpt><trkpt lat="36.90226511736199" lon="15.139375430692564"><ele>21.6</ele><time>2026-03-26T14:44:56Z</time></trkpt><trkpt lat="36.90232488295657" lon="15.139254636616876"><ele>22.4</ele><time>2026-03-26T14:44:57Z</time></trkpt><trkpt lat="36.902381010485904" lon="15.139145325706416"><ele>23.2</ele><time>2026-03-26T14:44:58Z</time></trkpt><trkpt lat="36.90242748096003" lon="15.13904629223553"><ele>24.0</ele><time>2026-03-26T14:44:59Z</time></trkpt><trkpt lat="36.90247173671227" lon="15.138963415929044"><ele>24.799999999999997</ele><time>2026-03-26T14:45:00Z</time></trkpt><trkpt lat="36.902507164092384" lon="15.138896294145527"><ele>25.599999999999998</ele><time>2026-03-26T14:45:01Z</time></trkpt><trkpt lat="36.90255146159324" lon="15.138801679998423"><ele>26.4</ele><time>2026-03-26T14:45:03Z</time></trkpt><trkpt lat="36.90259051266555" lon="15.138732485902498"><ele>27.2</ele><time>2026-03-26T14:45:05Z</time></trkpt><trkpt lat="36.90244552649547" lon="15.138564480039431"><ele>28.0</ele><time>2026-03-26T14:45:08Z</time></trkpt><trkpt lat="36.902481461481734" lon="15.138389685052168"><ele>28.0</ele><time>2026-03-26T14:45:10Z</time></trkpt><trkpt lat="36.902562571185534" lon="15.138274681284422"><ele>27.999999999999996</ele><time>2026-03-26T14:45:11Z</time></trkpt><trkpt lat="36.90262186278269" lon="15.138177553004542"><ele>27.999999999999996</ele><time>2026-03-26T14:45:12Z</time></trkpt><trkpt lat="36.90265267164361" lon="15.138083028637542"><ele>28.0</ele><time>2026-03-26T14:45:13Z</time></trkpt><trkpt lat="36.90264484739294" lon="15.137956742001359"><ele>28.0</ele><time>2026-03-26T14:45:14Z</time></trkpt><trkpt lat="36.902585887338475" lon="15.137819091525204"><ele>28.2</ele><time>2026-03-26T14:45:15Z</time></trkpt><trkpt lat="36.902548959479205" lon="15.137674267169094"><ele>28.4</ele><time>2026-03-26T14:45:16Z</time></trkpt><trkpt lat="36.902524050217785" lon="15.137560171088863"><ele>28.599999999999998</ele><time>2026-03-26T14:45:17Z</time></trkpt><trkpt lat="36.90250179605496" lon="15.13744816241077"><ele>28.799999999999997</ele><time>2026-03-26T14:45:19Z</time></trkpt><trkpt lat="36.90248452435903" lon="15.137330141402053"><ele>29.0</ele><time>2026-03-26T14:45:21Z</time></trkpt><trkpt lat="36.90246136408021" lon="15.137212167118353"><ele>29.5</ele><time>2026-03-26T14:45:22Z</time></trkpt><trkpt lat="36.90242708608222" lon="15.13707718120814"><ele>30.0</ele><time>2026-03-26T14:45:23Z</time></trkpt><trkpt lat="36.90240066211162" lon="15.136926364154371"><ele>30.5</ele><time>2026-03-26T14:45:24Z</time></trkpt><trkpt lat="36.902344958347285" lon="15.136751743033834"><ele>31.0</ele><time>2026-03-26T14:45:25Z</time></trkpt><trkpt lat="36.90230392188805" lon="15.13657488013545"><ele>31.8</ele><time>2026-03-26T14:45:26Z</time></trkpt><trkpt lat="36.9022721333783" lon="15.136432831813295"><ele>32.6</ele><time>2026-03-26T14:45:27Z</time></trkpt><trkpt lat="36.902246852090116" lon="15.136320843980865"><ele>33.4</ele><time>2026-03-26T14:45:28Z</time></trkpt><trkpt lat="36.902210345705655" lon="15.136199509710071"><ele>34.2</ele><time>2026-03-26T14:45:30Z</time></trkpt><trkpt lat="36.90220425081688" lon="15.136109435862103"><ele>35.0</ele><time>2026-03-26T14:45:32Z</time></trkpt><trkpt lat="36.902234903117694" lon="15.136015646157695"><ele>35.0</ele><time>2026-03-26T14:45:37Z</time></trkpt><trkpt lat="36.90226505664575" lon="15.135922643961962"><ele>35.0</ele><time>2026-03-26T14:45:40Z</time></trkpt><trkpt lat="36.90214843156267" lon="15.135869182000302"><ele>35.0</ele><time>2026-03-26T14:45:41Z</time></trkpt><trkpt lat="36.90206235745012" lon="15.13585566837683"><ele>35.0</ele><time>2026-03-26T14:45:42Z</time></trkpt><trkpt lat="36.90198709316469" lon="15.135824994080059"><ele>35.0</ele><time>2026-03-26T14:45:43Z</time></trkpt><trkpt lat="36.901921533107235" lon="15.13580178206022"><ele>35.0</ele><time>2026-03-26T14:45:44Z</time></trkpt><trkpt lat="36.90180308918886" lon="15.135756918463018"><ele>34.8</ele><time>2026-03-26T14:45:46Z</time></trkpt><trkpt lat="36.901739394153495" lon="15.135728765931583"><ele>34.6</ele><time>2026-03-26T14:45:47Z</time></trkpt><trkpt lat="36.90161896016842" lon="15.135681116946637"><ele>34.4</ele><time>2026-03-26T14:45:49Z</time></trkpt><trkpt lat="36.90153201317326" lon="15.135653166630048"><ele>34.2</ele><time>2026-03-26T14:45:50Z</time></trkpt><trkpt lat="36.901445127639036" lon="15.135614893018294"><ele>34.0</ele><time>2026-03-26T14:45:51Z</time></trkpt><trkpt lat="36.901362350677545" lon="15.135573668453693"><ele>34.0</ele><time>2026-03-26T14:45:52Z</time></trkpt><trkpt lat="36.90128501108748" lon="15.135536005461672"><ele>34.0</ele><time>2026-03-26T14:45:53Z</time></trkpt><trkpt lat="36.90118876703488" lon="15.13548470931208"><ele>34.0</ele><time>2026-03-26T14:45:54Z</time></trkpt><trkpt lat="36.901065230921155" lon="15.13541497889021"><ele>34.0</ele><time>2026-03-26T14:45:55Z</time></trkpt><trkpt lat="36.90092767823023" lon="15.135308349563283"><ele>32.66666666666667</ele><time>2026-03-26T14:45:56Z</time></trkpt><trkpt lat="36.900771703220144" lon="15.135221158590562"><ele>31.333333333333336</ele><time>2026-03-26T14:45:57Z</time></trkpt><trkpt lat="36.90059630308891" lon="15.135148691031896"><ele>30.0</ele><time>2026-03-26T14:45:58Z</time></trkpt><trkpt lat="36.90040928536179" lon="15.135055779034843"><ele>30.0</ele><time>2026-03-26T14:45:59Z</time></trkpt><trkpt lat="36.90021812617438" lon="15.13496468528022"><ele>30.0</ele><time>2026-03-26T14:46:00Z</time></trkpt><trkpt lat="36.90001711561032" lon="15.13487272504492"><ele>30.0</ele><time>2026-03-26T14:46:01Z</time></trkpt><trkpt lat="36.899805784345844" lon="15.134777666605938"><ele>29.666666666666664</ele><time>2026-03-26T14:46:02Z</time></trkpt><trkpt lat="36.89959353590168" lon="15.134682675400395"><ele>29.333333333333332</ele><time>2026-03-26T14:46:03Z</time></trkpt><trkpt lat="36.899399851518204" lon="15.134592764806706"><ele>29.0</ele><time>2026-03-26T14:46:04Z</time></trkpt><trkpt lat="36.89920409327741" lon="15.134516129035156"><ele>29.0</ele><time>2026-03-26T14:46:05Z</time></trkpt><trkpt lat="36.89898196087482" lon="15.134463802378015"><ele>29.0</ele><time>2026-03-26T14:46:06Z</time></trkpt><trkpt lat="36.89874953094421" lon="15.134419961693599"><ele>29.0</ele><time>2026-03-26T14:46:07Z</time></trkpt><trkpt lat="36.89851454067257" lon="15.134381636315641"><ele>29.0</ele><time>2026-03-26T14:46:08Z</time></trkpt><trkpt lat="36.898286509690124" lon="15.134338538534687"><ele>29.0</ele><time>2026-03-26T14:46:09Z</time></trkpt><trkpt lat="36.89805396378271" lon="15.134287201943692"><ele>29.0</ele><time>2026-03-26T14:46:10Z</time></trkpt><trkpt lat="36.89783230097768" lon="15.13423980562519"><ele>29.0</ele><time>2026-03-26T14:46:11Z</time></trkpt><trkpt lat="36.897611417972676" lon="15.134196358220061"><ele>29.0</ele><time>2026-03-26T14:46:12Z</time></trkpt><trkpt lat="36.897386930197825" lon="15.134153473521595"><ele>28.0</ele><time>2026-03-26T14:46:13Z</time></trkpt><trkpt lat="36.897161088099736" lon="15.134109967408092"><ele>27.0</ele><time>2026-03-26T14:46:14Z</time></trkpt><trkpt lat="36.896929695290865" lon="15.134066145962263"><ele>27.0</ele><time>2026-03-26T14:46:14.999Z</time></trkpt><trkpt lat="36.896693487562644" lon="15.134017760343786"><ele>27.0</ele><time>2026-03-26T14:46:15.999Z</time></trkpt><trkpt lat="36.896460063792965" lon="15.13396494539178"><ele>27.0</ele><time>2026-03-26T14:46:16.999Z</time></trkpt><trkpt lat="36.89623395569468" lon="15.13390898323026"><ele>27.0</ele><time>2026-03-26T14:46:18Z</time></trkpt><trkpt lat="36.896016505635615" lon="15.133837378249439"><ele>27.0</ele><time>2026-03-26T14:46:19Z</time></trkpt><trkpt lat="36.89581279337109" lon="15.133761753826521"><ele>27.0</ele><time>2026-03-26T14:46:20Z</time></trkpt><trkpt lat="36.89562032788769" lon="15.133680359426908"><ele>27.0</ele><time>2026-03-26T14:46:21Z</time></trkpt><trkpt lat="36.89543298447956" lon="15.133584892244581"><ele>27.0</ele><time>2026-03-26T14:46:22Z</time></trkpt><trkpt lat="36.895264214034874" lon="15.133487057747947"><ele>27.0</ele><time>2026-03-26T14:46:23Z</time></trkpt><trkpt lat="36.89510261639263" lon="15.133396891945562"><ele>27.0</ele><time>2026-03-26T14:46:24Z</time></trkpt><trkpt lat="36.8949466833328" lon="15.133309931882374"><ele>27.0</ele><time>2026-03-26T14:46:25Z</time></trkpt><trkpt lat="36.89481173406758" lon="15.133232059681522"><ele>27.0</ele><time>2026-03-26T14:46:26Z</time></trkpt><trkpt lat="36.89470815474601" lon="15.133183581101829"><ele>27.0</ele><time>2026-03-26T14:46:27Z</time></trkpt><trkpt lat="36.89461095084664" lon="15.133163283699426"><ele>27.0</ele><time>2026-03-26T14:46:28Z</time></trkpt><trkpt lat="36.894500007327416" lon="15.13314254451958"><ele>27.0</ele><time>2026-03-26T14:46:29Z</time></trkpt><trkpt lat="36.8943702132689" lon="15.133221230853588"><ele>27.0</ele><time>2026-03-26T14:46:30Z</time></trkpt><trkpt lat="36.89422657618482" lon="15.133298548466831"><ele>27.0</ele><time>2026-03-26T14:46:31Z</time></trkpt><trkpt lat="36.89407493272506" lon="15.133376057625908"><ele>25.666666666666668</ele><time>2026-03-26T14:46:32Z</time></trkpt><trkpt lat="36.89390437404444" lon="15.133423250567606"><ele>24.333333333333336</ele><time>2026-03-26T14:46:33Z</time></trkpt><trkpt lat="36.89374411401483" lon="15.133499703456875"><ele>23.0</ele><time>2026-03-26T14:46:34Z</time></trkpt><trkpt lat="36.893586505074005" lon="15.133533110307908"><ele>23.0</ele><time>2026-03-26T14:46:35Z</time></trkpt><trkpt lat="36.89342850264911" lon="15.133513371199399"><ele>23.0</ele><time>2026-03-26T14:46:36Z</time></trkpt><trkpt lat="36.893248725878586" lon="15.133499537918604"><ele>23.0</ele><time>2026-03-26T14:46:37Z</time></trkpt><trkpt lat="36.89305568341013" lon="15.133451073092697"><ele>22.666666666666668</ele><time>2026-03-26T14:46:38Z</time></trkpt><trkpt lat="36.89286705636348" lon="15.133398728134448"><ele>22.333333333333332</ele><time>2026-03-26T14:46:39Z</time></trkpt><trkpt lat="36.89266848976699" lon="15.133325209541118"><ele>22.0</ele><time>2026-03-26T14:46:40Z</time></trkpt><trkpt lat="36.89246232343989" lon="15.133234927258378"><ele>23.0</ele><time>2026-03-26T14:46:41Z</time></trkpt><trkpt lat="36.89224710879936" lon="15.133150691261697"><ele>24.0</ele><time>2026-03-26T14:46:42Z</time></trkpt><trkpt lat="36.89201189250664" lon="15.133082326950467"><ele>24.0</ele><time>2026-03-26T14:46:43Z</time></trkpt><trkpt lat="36.89177229312558" lon="15.133021909422924"><ele>24.0</ele><time>2026-03-26T14:46:44Z</time></trkpt><trkpt lat="36.89153571216949" lon="15.132963998423307"><ele>23.666666666666668</ele><time>2026-03-26T14:46:45Z</time></trkpt><trkpt lat="36.89130895753649" lon="15.132905788806754"><ele>23.333333333333336</ele><time>2026-03-26T14:46:46Z</time></trkpt><trkpt lat="36.89109604532589" lon="15.132850071414925"><ele>23.0</ele><time>2026-03-26T14:46:47Z</time></trkpt><trkpt lat="36.89089704945394" lon="15.132791606857367"><ele>22.333333333333336</ele><time>2026-03-26T14:46:48Z</time></trkpt><trkpt lat="36.890708467308755" lon="15.13271688244186"><ele>21.666666666666668</ele><time>2026-03-26T14:46:49Z</time></trkpt><trkpt lat="36.89052160688517" lon="15.132614733221116"><ele>21.0</ele><time>2026-03-26T14:46:50Z</time></trkpt><trkpt lat="36.890340318348606" lon="15.13248626541197"><ele>21.0</ele><time>2026-03-26T14:46:51Z</time></trkpt><trkpt lat="36.890149501724885" lon="15.13235942415847"><ele>21.0</ele><time>2026-03-26T14:46:52Z</time></trkpt><trkpt lat="36.889957867559254" lon="15.132245459378785"><ele>21.0</ele><time>2026-03-26T14:46:53Z</time></trkpt><trkpt lat="36.88974552785271" lon="15.132130767325592"><ele>21.0</ele><time>2026-03-26T14:46:54Z</time></trkpt><trkpt lat="36.88954190714857" lon="15.13202696284177"><ele>21.0</ele><time>2026-03-26T14:46:55Z</time></trkpt><trkpt lat="36.88934850093136" lon="15.1319281976134"><ele>21.0</ele><time>2026-03-26T14:46:56Z</time></trkpt><trkpt lat="36.88916634840471" lon="15.131829961129071"><ele>21.0</ele><time>2026-03-26T14:46:57Z</time></trkpt><trkpt lat="36.88898723123545" lon="15.131738166261005"><ele>21.0</ele><time>2026-03-26T14:46:58Z</time></trkpt><trkpt lat="36.888812070378094" lon="15.131657043306983"><ele>21.0</ele><time>2026-03-26T14:46:59Z</time></trkpt><trkpt lat="36.88863481918241" lon="15.131584632739788"><ele>21.333333333333332</ele><time>2026-03-26T14:47:00Z</time></trkpt><trkpt lat="36.88844950183358" lon="15.13152893996812"><ele>21.666666666666664</ele><time>2026-03-26T14:47:01Z</time></trkpt><trkpt lat="36.8882583074182" lon="15.131488857096972"><ele>22.0</ele><time>2026-03-26T14:47:02Z</time></trkpt><trkpt lat="36.88806515170801" lon="15.131459488340857"><ele>22.0</ele><time>2026-03-26T14:47:03Z</time></trkpt><trkpt lat="36.887884327744985" lon="15.131434665992025"><ele>22.0</ele><time>2026-03-26T14:47:04Z</time></trkpt><trkpt lat="36.887701627352804" lon="15.131406665034863"><ele>22.0</ele><time>2026-03-26T14:47:05Z</time></trkpt><trkpt lat="36.887519767322615" lon="15.131372046091137"><ele>21.333333333333332</ele><time>2026-03-26T14:47:06Z</time></trkpt><trkpt lat="36.887335091048634" lon="15.131312795905462"><ele>20.666666666666668</ele><time>2026-03-26T14:47:07Z</time></trkpt><trkpt lat="36.887149097696714" lon="15.131227323819665"><ele>20.0</ele><time>2026-03-26T14:47:08Z</time></trkpt><trkpt lat="36.88695912705583" lon="15.131147027604692"><ele>20.0</ele><time>2026-03-26T14:47:09Z</time></trkpt><trkpt lat="36.88676410554464" lon="15.131082353111854"><ele>20.0</ele><time>2026-03-26T14:47:10Z</time></trkpt><trkpt lat="36.88656236595978" lon="15.131040506499586"><ele>20.0</ele><time>2026-03-26T14:47:11Z</time></trkpt><trkpt lat="36.886347978374175" lon="15.13102358205374"><ele>20.0</ele><time>2026-03-26T14:47:12Z</time></trkpt><trkpt lat="36.88611262623236" lon="15.131029061878916"><ele>20.0</ele><time>2026-03-26T14:47:13Z</time></trkpt><trkpt lat="36.885876293328074" lon="15.131043698862236"><ele>20.0</ele><time>2026-03-26T14:47:14Z</time></trkpt><trkpt lat="36.88562713233837" lon="15.131057929997224"><ele>20.0</ele><time>2026-03-26T14:47:15Z</time></trkpt><trkpt lat="36.88537557815169" lon="15.131078286684597"><ele>20.0</ele><time>2026-03-26T14:47:16Z</time></trkpt><trkpt lat="36.885122380260505" lon="15.131103733478383"><ele>20.0</ele><time>2026-03-26T14:47:17Z</time></trkpt><trkpt lat="36.88487181858145" lon="15.131126376069192"><ele>20.0</ele><time>2026-03-26T14:47:18Z</time></trkpt><trkpt lat="36.88463574704846" lon="15.131126846417178"><ele>20.0</ele><time>2026-03-26T14:47:19Z</time></trkpt><trkpt lat="36.884404093574005" lon="15.131146026530812"><ele>19.666666666666668</ele><time>2026-03-26T14:47:20Z</time></trkpt><trkpt lat="36.88419072669048" lon="15.131166803280074"><ele>19.333333333333332</ele><time>2026-03-26T14:47:21Z</time></trkpt><trkpt lat="36.8839886412963" lon="15.131202741526453"><ele>19.0</ele><time>2026-03-26T14:47:22Z</time></trkpt><trkpt lat="36.88377559560636" lon="15.131213697921659"><ele>19.0</ele><time>2026-03-26T14:47:23Z</time></trkpt><trkpt lat="36.88355273415044" lon="15.131212268219143"><ele>19.0</ele><time>2026-03-26T14:47:24Z</time></trkpt><trkpt lat="36.88333538837739" lon="15.13120195811195"><ele>19.0</ele><time>2026-03-26T14:47:25Z</time></trkpt><trkpt lat="36.88313416970993" lon="15.131180725063322"><ele>18.666666666666664</ele><time>2026-03-26T14:47:26Z</time></trkpt><trkpt lat="36.88293644942624" lon="15.131138877180474"><ele>18.333333333333332</ele><time>2026-03-26T14:47:27Z</time></trkpt><trkpt lat="36.88275149608651" lon="15.131091862095976"><ele>18.0</ele><time>2026-03-26T14:47:28Z</time></trkpt><trkpt lat="36.88256364305845" lon="15.131025300895766"><ele>17.666666666666668</ele><time>2026-03-26T14:47:29Z</time></trkpt><trkpt lat="36.88238890291565" lon="15.13093022251856"><ele>17.333333333333336</ele><time>2026-03-26T14:47:30Z</time></trkpt><trkpt lat="36.88223340283198" lon="15.130828897351595"><ele>17.0</ele><time>2026-03-26T14:47:31Z</time></trkpt><trkpt lat="36.882058144886514" lon="15.1307562331028"><ele>17.666666666666668</ele><time>2026-03-26T14:47:32Z</time></trkpt><trkpt lat="36.881860702353315" lon="15.130707034922436"><ele>18.333333333333332</ele><time>2026-03-26T14:47:33Z</time></trkpt><trkpt lat="36.88164594826721" lon="15.130681989193913"><ele>19.0</ele><time>2026-03-26T14:47:34Z</time></trkpt><trkpt lat="36.881430966667565" lon="15.130675406629223"><ele>17.666666666666664</ele><time>2026-03-26T14:47:35Z</time></trkpt><trkpt lat="36.88123363004273" lon="15.130691137274335"><ele>16.333333333333332</ele><time>2026-03-26T14:47:36Z</time></trkpt><trkpt lat="36.88105538379234" lon="15.130657026495767"><ele>15.0</ele><time>2026-03-26T14:47:37Z</time></trkpt><trkpt lat="36.88088563312303" lon="15.130650113107937"><ele>15.0</ele><time>2026-03-26T14:47:38Z</time></trkpt><trkpt lat="36.88071536857223" lon="15.130607857801987"><ele>15.0</ele><time>2026-03-26T14:47:39Z</time></trkpt><trkpt lat="36.88053078492002" lon="15.130543871529733"><ele>15.0</ele><time>2026-03-26T14:47:40Z</time></trkpt><trkpt lat="36.88035080641636" lon="15.13046329346831"><ele>15.0</ele><time>2026-03-26T14:47:41Z</time></trkpt><trkpt lat="36.88016188937491" lon="15.130403801503896"><ele>15.0</ele><time>2026-03-26T14:47:42Z</time></trkpt><trkpt lat="36.87999980896488" lon="15.130292272369225"><ele>15.0</ele><time>2026-03-26T14:47:43Z</time></trkpt><trkpt lat="36.87984764218911" lon="15.13022467253952"><ele>14.0</ele><time>2026-03-26T14:47:44Z</time></trkpt><trkpt lat="36.879713404537476" lon="15.130153531785306"><ele>13.0</ele><time>2026-03-26T14:47:45Z</time></trkpt><trkpt lat="36.879591553204996" lon="15.130075600037356"><ele>12.0</ele><time>2026-03-26T14:47:46Z</time></trkpt><trkpt lat="36.87947074459904" lon="15.129945923306433"><ele>11.0</ele><time>2026-03-26T14:47:47Z</time></trkpt><trkpt lat="36.87935936510698" lon="15.129768983129988"><ele>10.0</ele><time>2026-03-26T14:47:48Z</time></trkpt><trkpt lat="36.87925872953061" lon="15.129567213050043"><ele>9.0</ele><time>2026-03-26T14:47:49Z</time></trkpt><trkpt lat="36.87916451041395" lon="15.129367572454695"><ele>8.0</ele><time>2026-03-26T14:47:50Z</time></trkpt><trkpt lat="36.879088110532784" lon="15.12916006106914"><ele>8.333333333333332</ele><time>2026-03-26T14:47:51Z</time></trkpt><trkpt lat="36.87903316488996" lon="15.128950099224063"><ele>8.666666666666666</ele><time>2026-03-26T14:47:52Z</time></trkpt><trkpt lat="36.87898415345716" lon="15.128761470803067"><ele>9.0</ele><time>2026-03-26T14:47:53Z</time></trkpt><trkpt lat="36.878915980987884" lon="15.128595321436316"><ele>9.0</ele><time>2026-03-26T14:47:54Z</time></trkpt><trkpt lat="36.87881817600183" lon="15.128441847262739"><ele>9.0</ele><time>2026-03-26T14:47:55Z</time></trkpt><trkpt lat="36.87867444061628" lon="15.12831205172968"><ele>9.0</ele><time>2026-03-26T14:47:56Z</time></trkpt><trkpt lat="36.878497371198826" lon="15.128197374687119"><ele>9.0</ele><time>2026-03-26T14:47:57Z</time></trkpt><trkpt lat="36.87830954620643" lon="15.128073470141624"><ele>9.0</ele><time>2026-03-26T14:47:58Z</time></trkpt><trkpt lat="36.878128914128375" lon="15.127924104610534"><ele>9.0</ele><time>2026-03-26T14:47:59Z</time></trkpt><trkpt lat="36.8779547771317" lon="15.12777395962337"><ele>9.0</ele><time>2026-03-26T14:48:00Z</time></trkpt><trkpt lat="36.87779616470056" lon="15.127642279709088"><ele>9.0</ele><time>2026-03-26T14:48:01Z</time></trkpt><trkpt lat="36.87765090716583" lon="15.12751679962391"><ele>9.0</ele><time>2026-03-26T14:48:02Z</time></trkpt><trkpt lat="36.87749677873596" lon="15.127410660982449"><ele>8.666666666666666</ele><time>2026-03-26T14:48:03Z</time></trkpt><trkpt lat="36.87731785577209" lon="15.127339183906036"><ele>8.333333333333332</ele><time>2026-03-26T14:48:04Z</time></trkpt><trkpt lat="36.87711373054766" lon="15.127296582461472"><ele>8.0</ele><time>2026-03-26T14:48:05Z</time></trkpt><trkpt lat="36.876886689718184" lon="15.127277170386748"><ele>8.0</ele><time>2026-03-26T14:48:06Z</time></trkpt><trkpt lat="36.87665910307255" lon="15.12725663880755"><ele>8.0</ele><time>2026-03-26T14:48:07Z</time></trkpt><trkpt lat="36.87642957514946" lon="15.12723142653121"><ele>8.0</ele><time>2026-03-26T14:48:08Z</time></trkpt><trkpt lat="36.876196115159495" lon="15.127202945216052"><ele>8.0</ele><time>2026-03-26T14:48:09Z</time></trkpt><trkpt lat="36.875970861306335" lon="15.127173886256603"><ele>8.0</ele><time>2026-03-26T14:48:10Z</time></trkpt><trkpt lat="36.87575767694236" lon="15.127150150495973"><ele>8.0</ele><time>2026-03-26T14:48:11Z</time></trkpt><trkpt lat="36.87555946545607" lon="15.127130636548015"><ele>8.0</ele><time>2026-03-26T14:48:12Z</time></trkpt><trkpt lat="36.87537232023564" lon="15.127112020742649"><ele>8.0</ele><time>2026-03-26T14:48:13Z</time></trkpt><trkpt lat="36.87519364328197" lon="15.127089302077774"><ele>8.0</ele><time>2026-03-26T14:48:14Z</time></trkpt><trkpt lat="36.87502877171283" lon="15.127050718206103"><ele>8.0</ele><time>2026-03-26T14:48:15Z</time></trkpt><trkpt lat="36.87487455380257" lon="15.126992973304272"><ele>8.0</ele><time>2026-03-26T14:48:16Z</time></trkpt><trkpt lat="36.87472671843119" lon="15.126895891988214"><ele>8.0</ele><time>2026-03-26T14:48:17Z</time></trkpt><trkpt lat="36.874588842940334" lon="15.126753540957921"><ele>8.0</ele><time>2026-03-26T14:48:18Z</time></trkpt><trkpt lat="36.87447188435834" lon="15.12660713746401"><ele>8.5</ele><time>2026-03-26T14:48:19Z</time></trkpt><trkpt lat="36.874358946076136" lon="15.126483278960201"><ele>9.0</ele><time>2026-03-26T14:48:20Z</time></trkpt><trkpt lat="36.87424045784524" lon="15.126377874945762"><ele>9.5</ele><time>2026-03-26T14:48:21Z</time></trkpt><trkpt lat="36.874113671549495" lon="15.12631023300736"><ele>10.0</ele><time>2026-03-26T14:48:22Z</time></trkpt><trkpt lat="36.87398313311848" lon="15.126301065676003"><ele>12.666666666666668</ele><time>2026-03-26T14:48:23Z</time></trkpt><trkpt lat="36.87384325938253" lon="15.126347976839847"><ele>15.333333333333334</ele><time>2026-03-26T14:48:24Z</time></trkpt><trkpt lat="36.873695501983235" lon="15.126429509410034"><ele>18.0</ele><time>2026-03-26T14:48:25Z</time></trkpt><trkpt lat="36.87354262299814" lon="15.126542782322897"><ele>16.666666666666668</ele><time>2026-03-26T14:48:26Z</time></trkpt><trkpt lat="36.873374139623024" lon="15.126657670805606"><ele>15.333333333333334</ele><time>2026-03-26T14:48:27Z</time></trkpt><trkpt lat="36.87318263322407" lon="15.126755579701104"><ele>14.0</ele><time>2026-03-26T14:48:28Z</time></trkpt><trkpt lat="36.87298667720414" lon="15.126825275191486"><ele>14.0</ele><time>2026-03-26T14:48:29Z</time></trkpt><trkpt lat="36.87278197001649" lon="15.126891746777723"><ele>14.0</ele><time>2026-03-26T14:48:30Z</time></trkpt><trkpt lat="36.872592374357446" lon="15.126983236226188"><ele>14.0</ele><time>2026-03-26T14:48:31Z</time></trkpt><trkpt lat="36.87242099920296" lon="15.127084811020216"><ele>14.666666666666668</ele><time>2026-03-26T14:48:32Z</time></trkpt><trkpt lat="36.872261161807074" lon="15.127177448920776"><ele>15.333333333333332</ele><time>2026-03-26T14:48:33Z</time></trkpt><trkpt lat="36.87212404292202" lon="15.127275129725957"><ele>16.0</ele><time>2026-03-26T14:48:34Z</time></trkpt><trkpt lat="36.872006456799284" lon="15.12737031988873"><ele>16.2</ele><time>2026-03-26T14:48:35Z</time></trkpt><trkpt lat="36.87190445732649" lon="15.127440567982223"><ele>16.400000000000002</ele><time>2026-03-26T14:48:36Z</time></trkpt><trkpt lat="36.871806743937704" lon="15.127481278858317"><ele>16.6</ele><time>2026-03-26T14:48:37Z</time></trkpt><trkpt lat="36.8717233423105" lon="15.127472248318048"><ele>16.8</ele><time>2026-03-26T14:48:38Z</time></trkpt><trkpt lat="36.87165377962319" lon="15.12741353232311"><ele>17.0</ele><time>2026-03-26T14:48:39Z</time></trkpt><trkpt lat="36.87157920532035" lon="15.127322130004218"><ele>17.0</ele><time>2026-03-26T14:48:40Z</time></trkpt><trkpt lat="36.871525100268784" lon="15.127192731767149"><ele>17.0</ele><time>2026-03-26T14:48:41Z</time></trkpt><trkpt lat="36.87150427418223" lon="15.127035684226934"><ele>17.0</ele><time>2026-03-26T14:48:42Z</time></trkpt><trkpt lat="36.87151363846018" lon="15.12686757227388"><ele>17.0</ele><time>2026-03-26T14:48:43Z</time></trkpt><trkpt lat="36.871549389887115" lon="15.126684458029"><ele>17.0</ele><time>2026-03-26T14:48:44Z</time></trkpt><trkpt lat="36.87159012259681" lon="15.126481260196908"><ele>17.0</ele><time>2026-03-26T14:48:45Z</time></trkpt><trkpt lat="36.87162334784088" lon="15.126279147040313"><ele>17.0</ele><time>2026-03-26T14:48:46Z</time></trkpt><trkpt lat="36.871655213008566" lon="15.126090465978375"><ele>17.0</ele><time>2026-03-26T14:48:47Z</time></trkpt><trkpt lat="36.87168850613931" lon="15.125904746913026"><ele>17.0</ele><time>2026-03-26T14:48:48Z</time></trkpt><trkpt lat="36.87172451980542" lon="15.125721187131028"><ele>17.0</ele><time>2026-03-26T14:48:49Z</time></trkpt><trkpt lat="36.87176077900511" lon="15.125542559967618"><ele>17.666666666666668</ele><time>2026-03-26T14:48:50Z</time></trkpt><trkpt lat="36.87179752726813" lon="15.125373527721766"><ele>18.333333333333332</ele><time>2026-03-26T14:48:51Z</time></trkpt><trkpt lat="36.87183909204322" lon="15.125174166194412"><ele>19.0</ele><time>2026-03-26T14:48:52Z</time></trkpt><trkpt lat="36.8718796084112" lon="15.124969523478041"><ele>19.333333333333332</ele><time>2026-03-26T14:48:53Z</time></trkpt><trkpt lat="36.87192383266873" lon="15.12474468769802"><ele>19.666666666666668</ele><time>2026-03-26T14:48:54Z</time></trkpt><trkpt lat="36.87197119232969" lon="15.124499237608543"><ele>20.0</ele><time>2026-03-26T14:48:55Z</time></trkpt><trkpt lat="36.87201768109103" lon="15.124244339886966"><ele>20.666666666666668</ele><time>2026-03-26T14:48:56Z</time></trkpt><trkpt lat="36.872061806883245" lon="15.123994096814137"><ele>21.333333333333332</ele><time>2026-03-26T14:48:57Z</time></trkpt><trkpt lat="36.87211051272145" lon="15.12373380135674"><ele>22.0</ele><time>2026-03-26T14:48:58Z</time></trkpt><trkpt lat="36.87216322549382" lon="15.123467253123557"><ele>22.5</ele><time>2026-03-26T14:48:59Z</time></trkpt><trkpt lat="36.87222043610587" lon="15.123194849671474"><ele>23.0</ele><time>2026-03-26T14:49:00Z</time></trkpt><trkpt lat="36.87227812894992" lon="15.122919974590973"><ele>23.0</ele><time>2026-03-26T14:49:01Z</time></trkpt><trkpt lat="36.87233464639131" lon="15.122645011630087"><ele>23.0</ele><time>2026-03-26T14:49:02Z</time></trkpt><trkpt lat="36.872389727441494" lon="15.122360175706167"><ele>23.0</ele><time>2026-03-26T14:49:03Z</time></trkpt><trkpt lat="36.87244248893626" lon="15.122073272340515"><ele>23.0</ele><time>2026-03-26T14:49:04Z</time></trkpt><trkpt lat="36.872496196024876" lon="15.121787439885292"><ele>23.0</ele><time>2026-03-26T14:49:05Z</time></trkpt><trkpt lat="36.87255472690748" lon="15.121500199781561"><ele>23.0</ele><time>2026-03-26T14:49:06Z</time></trkpt><trkpt lat="36.87261518791311" lon="15.121212469414226"><ele>23.5</ele><time>2026-03-26T14:49:07Z</time></trkpt><trkpt lat="36.87267494663178" lon="15.120924190576716"><ele>24.0</ele><time>2026-03-26T14:49:08Z</time></trkpt><trkpt lat="36.872735082316545" lon="15.12063454867069"><ele>24.0</ele><time>2026-03-26T14:49:09Z</time></trkpt><trkpt lat="36.8727919183171" lon="15.12034324173007"><ele>24.0</ele><time>2026-03-26T14:49:10Z</time></trkpt><trkpt lat="36.87285050622057" lon="15.120053742271805"><ele>24.0</ele><time>2026-03-26T14:49:11Z</time></trkpt><trkpt lat="36.87290727521539" lon="15.119767654639228"><ele>24.0</ele><time>2026-03-26T14:49:12Z</time></trkpt><trkpt lat="36.87296136252029" lon="15.119493734130444"><ele>24.0</ele><time>2026-03-26T14:49:13Z</time></trkpt><trkpt lat="36.87301312427473" lon="15.11922263762329"><ele>24.0</ele><time>2026-03-26T14:49:14Z</time></trkpt><trkpt lat="36.87306919795244" lon="15.118953030427942"><ele>24.0</ele><time>2026-03-26T14:49:15Z</time></trkpt><trkpt lat="36.873122563566994" lon="15.118679597673621"><ele>24.5</ele><time>2026-03-26T14:49:16Z</time></trkpt><trkpt lat="36.87317508729633" lon="15.118404101453018"><ele>25.0</ele><time>2026-03-26T14:49:17Z</time></trkpt><trkpt lat="36.87322861772697" lon="15.118130412832498"><ele>25.666666666666668</ele><time>2026-03-26T14:49:18Z</time></trkpt><trkpt lat="36.873278335651" lon="15.117868208209329"><ele>26.333333333333336</ele><time>2026-03-26T14:49:19Z</time></trkpt><trkpt lat="36.873326990321225" lon="15.117621555150373"><ele>27.0</ele><time>2026-03-26T14:49:20Z</time></trkpt><trkpt lat="36.873376512875545" lon="15.117378938596802"><ele>28.0</ele><time>2026-03-26T14:49:21Z</time></trkpt><trkpt lat="36.87342500955856" lon="15.117146493856046"><ele>29.0</ele><time>2026-03-26T14:49:22Z</time></trkpt><trkpt lat="36.873481688964205" lon="15.116914041381042"><ele>30.0</ele><time>2026-03-26T14:49:23Z</time></trkpt><trkpt lat="36.87357370807075" lon="15.116695102290453"><ele>31.0</ele><time>2026-03-26T14:49:24Z</time></trkpt><trkpt lat="36.87366729975385" lon="15.116469062419004"><ele>32.0</ele><time>2026-03-26T14:49:25Z</time></trkpt><trkpt lat="36.87376895222829" lon="15.116232113605784"><ele>33.0</ele><time>2026-03-26T14:49:26Z</time></trkpt><trkpt lat="36.87388436271475" lon="15.11600644390096"><ele>33.0</ele><time>2026-03-26T14:49:27Z</time></trkpt><trkpt lat="36.873985283843695" lon="15.115785174041083"><ele>33.0</ele><time>2026-03-26T14:49:28Z</time></trkpt><trkpt lat="36.87408021655182" lon="15.115559013169834"><ele>33.0</ele><time>2026-03-26T14:49:29Z</time></trkpt><trkpt lat="36.8741690158093" lon="15.115313999271846"><ele>34.0</ele><time>2026-03-26T14:49:30Z</time></trkpt><trkpt lat="36.874250450358794" lon="15.115048064820394"><ele>35.0</ele><time>2026-03-26T14:49:31Z</time></trkpt><trkpt lat="36.87433025335203" lon="15.1147741628105"><ele>35.5</ele><time>2026-03-26T14:49:32Z</time></trkpt><trkpt lat="36.874407188268094" lon="15.11450575634321"><ele>36.0</ele><time>2026-03-26T14:49:33Z</time></trkpt><trkpt lat="36.87448422248378" lon="15.114240426629888"><ele>36.666666666666664</ele><time>2026-03-26T14:49:34Z</time></trkpt><trkpt lat="36.874558457347156" lon="15.11398259044576"><ele>37.33333333333333</ele><time>2026-03-26T14:49:35Z</time></trkpt><trkpt lat="36.87463020995791" lon="15.11373708792994"><ele>38.0</ele><time>2026-03-26T14:49:36Z</time></trkpt><trkpt lat="36.87469747753527" lon="15.11350581291279"><ele>38.0</ele><time>2026-03-26T14:49:37Z</time></trkpt><trkpt lat="36.874763699072055" lon="15.113277449870088"><ele>38.0</ele><time>2026-03-26T14:49:38Z</time></trkpt><trkpt lat="36.874833253096966" lon="15.113046284469696"><ele>38.0</ele><time>2026-03-26T14:49:39Z</time></trkpt><trkpt lat="36.874902652739756" lon="15.112811901697832"><ele>38.0</ele><time>2026-03-26T14:49:40Z</time></trkpt><trkpt lat="36.87495868031841" lon="15.11260073396355"><ele>38.0</ele><time>2026-03-26T14:49:41Z</time></trkpt><trkpt lat="36.87502210871507" lon="15.112436437011565"><ele>38.0</ele><time>2026-03-26T14:49:42Z</time></trkpt><trkpt lat="36.875049315884105" lon="15.112287281669174"><ele>38.0</ele><time>2026-03-26T14:49:43Z</time></trkpt><trkpt lat="36.875092674944476" lon="15.112150918448739"><ele>38.0</ele><time>2026-03-26T14:49:44Z</time></trkpt><trkpt lat="36.875128973264715" lon="15.112032732284083"><ele>38.0</ele><time>2026-03-26T14:49:45Z</time></trkpt><trkpt lat="36.87516032960949" lon="15.111931932373743"><ele>38.0</ele><time>2026-03-26T14:49:46Z</time></trkpt><trkpt lat="36.87519078639112" lon="15.111826384289278"><ele>38.0</ele><time>2026-03-26T14:49:48Z</time></trkpt><trkpt lat="36.87522115502168" lon="15.11175327995941"><ele>38.0</ele><time>2026-03-26T14:49:51Z</time></trkpt><trkpt lat="36.87509512652787" lon="15.111669728093526"><ele>38.0</ele><time>2026-03-26T14:49:53Z</time></trkpt><trkpt lat="36.87503968999902" lon="15.111629040623017"><ele>38.0</ele><time>2026-03-26T14:49:54Z</time></trkpt><trkpt lat="36.874960102933365" lon="15.111585432952474"><ele>38.0</ele><time>2026-03-26T14:49:55Z</time></trkpt><trkpt lat="36.87487889109998" lon="15.111540935042258"><ele>38.0</ele><time>2026-03-26T14:49:56Z</time></trkpt><trkpt lat="36.87479664437888" lon="15.111495870088643"><ele>38.0</ele><time>2026-03-26T14:49:57Z</time></trkpt><trkpt lat="36.874727668700665" lon="15.111458076650793"><ele>38.0</ele><time>2026-03-26T14:49:58Z</time></trkpt><trkpt lat="36.87466451637923" lon="15.111423473978718"><ele>38.0</ele><time>2026-03-26T14:49:59Z</time></trkpt><trkpt lat="36.87459518266622" lon="15.111385484373104"><ele>38.0</ele><time>2026-03-26T14:50:00Z</time></trkpt><trkpt lat="36.87452087742497" lon="15.11134610959884"><ele>38.0</ele><time>2026-03-26T14:50:01Z</time></trkpt><trkpt lat="36.87445368728335" lon="15.11131052099975"><ele>38.0</ele><time>2026-03-26T14:50:02Z</time></trkpt><trkpt lat="36.874344691608165" lon="15.111252789277108"><ele>38.0</ele><time>2026-03-26T14:50:04Z</time></trkpt><trkpt lat="36.874282831478816" lon="15.11122002382927"><ele>38.0</ele><time>2026-03-26T14:50:05Z</time></trkpt><trkpt lat="36.87421992842364" lon="15.111186705975927"><ele>38.0</ele><time>2026-03-26T14:50:06Z</time></trkpt><trkpt lat="36.87415978196445" lon="15.111154848210123"><ele>38.0</ele><time>2026-03-26T14:50:07Z</time></trkpt><trkpt lat="36.87409098590642" lon="15.111118743460523"><ele>38.0</ele><time>2026-03-26T14:50:08Z</time></trkpt><trkpt lat="36.874024750202885" lon="15.111084565687381"><ele>38.0</ele><time>2026-03-26T14:50:09Z</time></trkpt><trkpt lat="36.87396154960063" lon="15.11105195403276"><ele>38.0</ele><time>2026-03-26T14:50:10Z</time></trkpt><trkpt lat="36.87389940317344" lon="15.111019886337496"><ele>38.0</ele><time>2026-03-26T14:50:11Z</time></trkpt><trkpt lat="36.873838478947896" lon="15.110988449302122"><ele>38.0</ele><time>2026-03-26T14:50:12Z</time></trkpt><trkpt lat="36.87377612194995" lon="15.110956272952276"><ele>38.0</ele><time>2026-03-26T14:50:13Z</time></trkpt><trkpt lat="36.87365970134308" lon="15.110894323294799"><ele>38.0</ele><time>2026-03-26T14:50:15Z</time></trkpt><trkpt lat="36.873593614691124" lon="15.110858977204153"><ele>38.0</ele><time>2026-03-26T14:50:16Z</time></trkpt><trkpt lat="36.873534258518504" lon="15.110827230872726"><ele>38.0</ele><time>2026-03-26T14:50:17Z</time></trkpt><trkpt lat="36.873406335200876" lon="15.110774311218256"><ele>38.0</ele><time>2026-03-26T14:50:19Z</time></trkpt><trkpt lat="36.87333622216035" lon="15.110754247598441"><ele>38.5</ele><time>2026-03-26T14:50:20Z</time></trkpt><trkpt lat="36.87326738455705" lon="15.110735007192913"><ele>39.0</ele><time>2026-03-26T14:50:21Z</time></trkpt><trkpt lat="36.87319738637448" lon="15.110713405652495"><ele>39.5</ele><time>2026-03-26T14:50:22Z</time></trkpt><trkpt lat="36.873120067021404" lon="15.110689544795402"><ele>40.0</ele><time>2026-03-26T14:50:23Z</time></trkpt><trkpt lat="36.87303487742092" lon="15.110678993517324"><ele>40.5</ele><time>2026-03-26T14:50:24Z</time></trkpt><trkpt lat="36.8729546432001" lon="15.110662422697041"><ele>41.0</ele><time>2026-03-26T14:50:25Z</time></trkpt><trkpt lat="36.87288441328364" lon="15.1106262114622"><ele>41.0</ele><time>2026-03-26T14:50:26Z</time></trkpt><trkpt lat="36.87278719630158" lon="15.11057978169623"><ele>41.0</ele><time>2026-03-26T14:50:27Z</time></trkpt><trkpt lat="36.872677514090576" lon="15.110525112470526"><ele>41.0</ele><time>2026-03-26T14:50:28Z</time></trkpt><trkpt lat="36.87256863800516" lon="15.11045401490272"><ele>41.0</ele><time>2026-03-26T14:50:29Z</time></trkpt><trkpt lat="36.87247241981562" lon="15.11038709619868"><ele>40.5</ele><time>2026-03-26T14:50:30Z</time></trkpt><trkpt lat="36.872399473191166" lon="15.11033492740414"><ele>40.0</ele><time>2026-03-26T14:50:31Z</time></trkpt><trkpt lat="36.87233558332497" lon="15.110292646742497"><ele>39.5</ele><time>2026-03-26T14:50:32Z</time></trkpt><trkpt lat="36.87227456590594" lon="15.110258943137381"><ele>39.0</ele><time>2026-03-26T14:50:33Z</time></trkpt><trkpt lat="36.87218033593826" lon="15.110219262407249"><ele>38.5</ele><time>2026-03-26T14:50:34Z</time></trkpt><trkpt lat="36.87206138969421" lon="15.110174256086827"><ele>38.0</ele><time>2026-03-26T14:50:35Z</time></trkpt><trkpt lat="36.871948717066" lon="15.110148789516412"><ele>38.0</ele><time>2026-03-26T14:50:36Z</time></trkpt><trkpt lat="36.87184475511694" lon="15.110108462221335"><ele>38.0</ele><time>2026-03-26T14:50:37Z</time></trkpt><trkpt lat="36.87174830539173" lon="15.110056574999437"><ele>38.0</ele><time>2026-03-26T14:50:38Z</time></trkpt><trkpt lat="36.871643585192395" lon="15.110038137758"><ele>38.0</ele><time>2026-03-26T14:50:39Z</time></trkpt><trkpt lat="36.87153909086123" lon="15.109991483632381"><ele>38.0</ele><time>2026-03-26T14:50:40Z</time></trkpt><trkpt lat="36.87143358960817" lon="15.109934996927576"><ele>38.25</ele><time>2026-03-26T14:50:41Z</time></trkpt><trkpt lat="36.87132597312617" lon="15.10988906516141"><ele>38.5</ele><time>2026-03-26T14:50:42Z</time></trkpt><trkpt lat="36.87121755030582" lon="15.10984218584167"><ele>38.75</ele><time>2026-03-26T14:50:43Z</time></trkpt><trkpt lat="36.871104439126185" lon="15.109795695310503"><ele>39.0</ele><time>2026-03-26T14:50:44Z</time></trkpt><trkpt lat="36.871002497255304" lon="15.109753198536175"><ele>39.0</ele><time>2026-03-26T14:50:45Z</time></trkpt><trkpt lat="36.87091162071009" lon="15.109715314666422"><ele>39.0</ele><time>2026-03-26T14:50:46Z</time></trkpt><trkpt lat="36.870827790779956" lon="15.109679598327038"><ele>39.0</ele><time>2026-03-26T14:50:47Z</time></trkpt><trkpt lat="36.870741991944335" lon="15.109664804656877"><ele>39.0</ele><time>2026-03-26T14:50:48Z</time></trkpt><trkpt lat="36.87064672063744" lon="15.10963479456536"><ele>39.0</ele><time>2026-03-26T14:50:49Z</time></trkpt><trkpt lat="36.87053845300315" lon="15.109613112194461"><ele>39.0</ele><time>2026-03-26T14:50:50Z</time></trkpt><trkpt lat="36.8704351512351" lon="15.109576493291394"><ele>39.0</ele><time>2026-03-26T14:50:51Z</time></trkpt><trkpt lat="36.87033354095795" lon="15.109561121362695"><ele>39.0</ele><time>2026-03-26T14:50:52Z</time></trkpt><trkpt lat="36.87024629677097" lon="15.10954502912329"><ele>39.0</ele><time>2026-03-26T14:50:53Z</time></trkpt><trkpt lat="36.87012636757739" lon="15.109520802355812"><ele>39.0</ele><time>2026-03-26T14:50:55Z</time></trkpt><trkpt lat="36.870044923249516" lon="15.109507543265366"><ele>38.6</ele><time>2026-03-26T14:50:56Z</time></trkpt><trkpt lat="36.869948337409035" lon="15.109491922200018"><ele>38.2</ele><time>2026-03-26T14:50:57Z</time></trkpt><trkpt lat="36.869843971219005" lon="15.109475465012277"><ele>37.800000000000004</ele><time>2026-03-26T14:50:58Z</time></trkpt><trkpt lat="36.86973280619134" lon="15.109457967167884"><ele>37.4</ele><time>2026-03-26T14:50:59Z</time></trkpt><trkpt lat="36.86961076969408" lon="15.109438419982515"><ele>37.0</ele><time>2026-03-26T14:51:00Z</time></trkpt><trkpt lat="36.86947210526029" lon="15.109415452155423"><ele>37.0</ele><time>2026-03-26T14:51:01Z</time></trkpt><trkpt lat="36.869331231444356" lon="15.109390777267636"><ele>37.0</ele><time>2026-03-26T14:51:02Z</time></trkpt><trkpt lat="36.869186916761514" lon="15.109364822459366"><ele>37.0</ele><time>2026-03-26T14:51:03Z</time></trkpt><trkpt lat="36.86906716060686" lon="15.109342013231252"><ele>37.0</ele><time>2026-03-26T14:51:04Z</time></trkpt><trkpt lat="36.86896817753709" lon="15.109322792190756"><ele>36.800000000000004</ele><time>2026-03-26T14:51:05Z</time></trkpt><trkpt lat="36.86886958570257" lon="15.109310503688244"><ele>36.6</ele><time>2026-03-26T14:51:06Z</time></trkpt><trkpt lat="36.86876060970427" lon="15.109313887958413"><ele>36.400000000000006</ele><time>2026-03-26T14:51:07Z</time></trkpt><trkpt lat="36.868669911046744" lon="15.109317319516416"><ele>36.2</ele><time>2026-03-26T14:51:08Z</time></trkpt><trkpt lat="36.86856798260054" lon="15.109319412827746"><ele>36.0</ele><time>2026-03-26T14:51:09Z</time></trkpt><trkpt lat="36.868448206863675" lon="15.109320462248617"><ele>36.0</ele><time>2026-03-26T14:51:10Z</time></trkpt><trkpt lat="36.86831352889267" lon="15.109322604017287"><ele>36.0</ele><time>2026-03-26T14:51:11Z</time></trkpt><trkpt lat="36.868163037877494" lon="15.109333809099434"><ele>36.0</ele><time>2026-03-26T14:51:12Z</time></trkpt><trkpt lat="36.86801210875685" lon="15.109348704261995"><ele>36.0</ele><time>2026-03-26T14:51:13Z</time></trkpt><trkpt lat="36.867861892103726" lon="15.109358697443765"><ele>36.0</ele><time>2026-03-26T14:51:14Z</time></trkpt><trkpt lat="36.86772837096411" lon="15.109367579952007"><ele>36.0</ele><time>2026-03-26T14:51:15Z</time></trkpt><trkpt lat="36.867603749031694" lon="15.109375351160876"><ele>36.0</ele><time>2026-03-26T14:51:16Z</time></trkpt><trkpt lat="36.867485149492936" lon="15.109373848496727"><ele>36.0</ele><time>2026-03-26T14:51:17Z</time></trkpt><trkpt lat="36.86737103230715" lon="15.109388608091995"><ele>35.8</ele><time>2026-03-26T14:51:18Z</time></trkpt><trkpt lat="36.8672544002416" lon="15.109367851456422"><ele>35.6</ele><time>2026-03-26T14:51:19Z</time></trkpt><trkpt lat="36.86714211167845" lon="15.10937609651544"><ele>35.4</ele><time>2026-03-26T14:51:20Z</time></trkpt><trkpt lat="36.867041052437706" lon="15.109393243019"><ele>35.2</ele><time>2026-03-26T14:51:21Z</time></trkpt><trkpt lat="36.86696615005041" lon="15.109408567410107"><ele>35.0</ele><time>2026-03-26T14:51:22Z</time></trkpt><trkpt lat="36.86687983773249" lon="15.109418532752407"><ele>35.0</ele><time>2026-03-26T14:51:24Z</time></trkpt><trkpt lat="36.86681571099088" lon="15.109412216673775"><ele>35.0</ele><time>2026-03-26T14:51:27Z</time></trkpt><trkpt lat="36.86677908268837" lon="15.109294593641254"><ele>35.0</ele><time>2026-03-26T14:52:17Z</time></trkpt><trkpt lat="36.86674667436629" lon="15.109221686230542"><ele>35.0</ele><time>2026-03-26T14:52:19Z</time></trkpt><trkpt lat="36.866726255786425" lon="15.109129872963644"><ele>35.0</ele><time>2026-03-26T14:52:21Z</time></trkpt><trkpt lat="36.866716804184215" lon="15.109015163282915"><ele>35.0</ele><time>2026-03-26T14:52:23Z</time></trkpt><trkpt lat="36.86669370606416" lon="15.108885948932846"><ele>34.0</ele><time>2026-03-26T14:52:25Z</time></trkpt><trkpt lat="36.86666644023535" lon="15.108744134826338"><ele>33.0</ele><time>2026-03-26T14:52:27Z</time></trkpt><trkpt lat="36.866639538106675" lon="15.10859816145838"><ele>32.0</ele><time>2026-03-26T14:52:29Z</time></trkpt><trkpt lat="36.86662438196327" lon="15.10851356989043"><ele>31.0</ele><time>2026-03-26T14:52:30Z</time></trkpt><trkpt lat="36.86661078073757" lon="15.108433145297857"><ele>29.999999999999996</ele><time>2026-03-26T14:52:31Z</time></trkpt><trkpt lat="36.86660128349775" lon="15.108353847018446"><ele>29.0</ele><time>2026-03-26T14:52:32Z</time></trkpt><trkpt lat="36.86659160083752" lon="15.108264224856386"><ele>29.2</ele><time>2026-03-26T14:52:33Z</time></trkpt><trkpt lat="36.86658365545655" lon="15.108176071850517"><ele>29.4</ele><time>2026-03-26T14:52:34Z</time></trkpt><trkpt lat="36.86657903226983" lon="15.108088630116294"><ele>29.6</ele><time>2026-03-26T14:52:35Z</time></trkpt><trkpt lat="36.866575985881816" lon="15.107994546323837"><ele>29.8</ele><time>2026-03-26T14:52:36Z</time></trkpt><trkpt lat="36.866575481864274" lon="15.107866935657837"><ele>30.0</ele><time>2026-03-26T14:52:37Z</time></trkpt><trkpt lat="36.86657464697262" lon="15.10769057517151"><ele>30.0</ele><time>2026-03-26T14:52:38Z</time></trkpt><trkpt lat="36.86655670388696" lon="15.107492239685675"><ele>30.0</ele><time>2026-03-26T14:52:39Z</time></trkpt><trkpt lat="36.86657004888478" lon="15.107273961890606"><ele>30.0</ele><time>2026-03-26T14:52:40Z</time></trkpt><trkpt lat="36.86656623375935" lon="15.107039162813782"><ele>30.0</ele><time>2026-03-26T14:52:41Z</time></trkpt><trkpt lat="36.86654136891261" lon="15.106803803485361"><ele>30.0</ele><time>2026-03-26T14:52:42Z</time></trkpt><trkpt lat="36.86652696035491" lon="15.106582145572997"><ele>30.0</ele><time>2026-03-26T14:52:43Z</time></trkpt><trkpt lat="36.86651220970062" lon="15.106385001056024"><ele>30.4</ele><time>2026-03-26T14:52:44Z</time></trkpt><trkpt lat="36.866507898907564" lon="15.106217528423462"><ele>30.8</ele><time>2026-03-26T14:52:45Z</time></trkpt><trkpt lat="36.86650902005688" lon="15.106091797367316"><ele>31.200000000000003</ele><time>2026-03-26T14:52:46Z</time></trkpt><trkpt lat="36.86651316084359" lon="15.105997871563213"><ele>31.6</ele><time>2026-03-26T14:52:47Z</time></trkpt><trkpt lat="36.866505698941324" lon="15.105859905397812"><ele>32.0</ele><time>2026-03-26T14:52:48Z</time></trkpt><trkpt lat="36.86649629619389" lon="15.105658576462705"><ele>33.33333333333333</ele><time>2026-03-26T14:52:49Z</time></trkpt><trkpt lat="36.86650705087625" lon="15.10544620139787"><ele>34.666666666666664</ele><time>2026-03-26T14:52:50Z</time></trkpt><trkpt lat="36.86649721838133" lon="15.10521857989616"><ele>36.0</ele><time>2026-03-26T14:52:51Z</time></trkpt><trkpt lat="36.86647835858015" lon="15.104975498899256"><ele>36.666666666666664</ele><time>2026-03-26T14:52:52Z</time></trkpt><trkpt lat="36.86649063914237" lon="15.104733525530056"><ele>37.33333333333333</ele><time>2026-03-26T14:52:53Z</time></trkpt><trkpt lat="36.86652107123685" lon="15.104501786416003"><ele>38.0</ele><time>2026-03-26T14:52:54Z</time></trkpt><trkpt lat="36.86655811788966" lon="15.104304428511101"><ele>38.0</ele><time>2026-03-26T14:52:55Z</time></trkpt><trkpt lat="36.86659083008037" lon="15.104117006875649"><ele>38.0</ele><time>2026-03-26T14:52:56Z</time></trkpt><trkpt lat="36.86660418007517" lon="15.103951130460729"><ele>38.0</ele><time>2026-03-26T14:52:57Z</time></trkpt><trkpt lat="36.86658571328403" lon="15.103795782526145"><ele>38.0</ele><time>2026-03-26T14:52:58Z</time></trkpt><trkpt lat="36.86652875818064" lon="15.103645758194384"><ele>38.25</ele><time>2026-03-26T14:52:59Z</time></trkpt><trkpt lat="36.866444005342224" lon="15.10352017350232"><ele>38.5</ele><time>2026-03-26T14:53:00Z</time></trkpt><trkpt lat="36.866332708579186" lon="15.103436178930771"><ele>38.75</ele><time>2026-03-26T14:53:01Z</time></trkpt><trkpt lat="36.86620279181639" lon="15.103392541521007"><ele>39.0</ele><time>2026-03-26T14:53:02Z</time></trkpt><trkpt lat="36.866061307313785" lon="15.103380600757518"><ele>39.0</ele><time>2026-03-26T14:53:03Z</time></trkpt><trkpt lat="36.86590414309413" lon="15.103425213802272"><ele>39.0</ele><time>2026-03-26T14:53:04Z</time></trkpt><trkpt lat="36.86573580319265" lon="15.103502105409909"><ele>39.0</ele><time>2026-03-26T14:53:05Z</time></trkpt><trkpt lat="36.8655838090714" lon="15.103554805130857"><ele>39.0</ele><time>2026-03-26T14:53:06Z</time></trkpt><trkpt lat="36.86543660067157" lon="15.103597934790292"><ele>39.0</ele><time>2026-03-26T14:53:07Z</time></trkpt><trkpt lat="36.865286788967204" lon="15.103623343378423"><ele>39.0</ele><time>2026-03-26T14:53:08Z</time></trkpt><trkpt lat="36.86514997651983" lon="15.10361048655883"><ele>39.0</ele><time>2026-03-26T14:53:09Z</time></trkpt><trkpt lat="36.865040707449346" lon="15.103566473459853"><ele>39.25</ele><time>2026-03-26T14:53:10Z</time></trkpt><trkpt lat="36.86496710829675" lon="15.103504867881327"><ele>39.5</ele><time>2026-03-26T14:53:11Z</time></trkpt><trkpt lat="36.864917779934316" lon="15.103323931817206"><ele>39.75</ele><time>2026-03-26T14:53:13Z</time></trkpt><trkpt lat="36.86493948737543" lon="15.103175124672362"><ele>40.0</ele><time>2026-03-26T14:53:14Z</time></trkpt><trkpt lat="36.86498657098655" lon="15.103010190777532"><ele>40.0</ele><time>2026-03-26T14:53:15Z</time></trkpt><trkpt lat="36.86504215967592" lon="15.102828858848175"><ele>40.0</ele><time>2026-03-26T14:53:16Z</time></trkpt><trkpt lat="36.86508621462535" lon="15.10262349715975"><ele>40.0</ele><time>2026-03-26T14:53:17Z</time></trkpt><trkpt lat="36.86511332981799" lon="15.102382341420268"><ele>40.0</ele><time>2026-03-26T14:53:18Z</time></trkpt><trkpt lat="36.86513494735159" lon="15.10214480140733"><ele>40.0</ele><time>2026-03-26T14:53:19Z</time></trkpt><trkpt lat="36.865156592025194" lon="15.101919954341355"><ele>40.0</ele><time>2026-03-26T14:53:20Z</time></trkpt><trkpt lat="36.86518082399636" lon="15.101689267886808"><ele>39.66666666666667</ele><time>2026-03-26T14:53:21Z</time></trkpt><trkpt lat="36.8652018481778" lon="15.101439167022356"><ele>39.333333333333336</ele><time>2026-03-26T14:53:22Z</time></trkpt><trkpt lat="36.865241890393605" lon="15.101212180645106"><ele>39.0</ele><time>2026-03-26T14:53:23Z</time></trkpt><trkpt lat="36.86528333502595" lon="15.10098742679932"><ele>39.0</ele><time>2026-03-26T14:53:24Z</time></trkpt><trkpt lat="36.86533465968944" lon="15.100769393590097"><ele>39.0</ele><time>2026-03-26T14:53:25Z</time></trkpt><trkpt lat="36.86541261969685" lon="15.100572577429148"><ele>39.0</ele><time>2026-03-26T14:53:26Z</time></trkpt><trkpt lat="36.86551329025259" lon="15.100386762122463"><ele>38.666666666666664</ele><time>2026-03-26T14:53:27Z</time></trkpt><trkpt lat="36.865620701842694" lon="15.100213750858993"><ele>38.33333333333333</ele><time>2026-03-26T14:53:28Z</time></trkpt><trkpt lat="36.86571669873655" lon="15.100064668183597"><ele>38.0</ele><time>2026-03-26T14:53:29Z</time></trkpt><trkpt lat="36.86579662036537" lon="15.099918085559235"><ele>37.25</ele><time>2026-03-26T14:53:30Z</time></trkpt><trkpt lat="36.865862567437055" lon="15.09976053465893"><ele>36.5</ele><time>2026-03-26T14:53:31Z</time></trkpt><trkpt lat="36.865920562992265" lon="15.099601194289255"><ele>35.75</ele><time>2026-03-26T14:53:32Z</time></trkpt><trkpt lat="36.86596370755833" lon="15.099454845803967"><ele>35.0</ele><time>2026-03-26T14:53:33Z</time></trkpt><trkpt lat="36.86600550316201" lon="15.09932742170865"><ele>34.8</ele><time>2026-03-26T14:53:34Z</time></trkpt><trkpt lat="36.86605741242397" lon="15.099203137566175"><ele>34.6</ele><time>2026-03-26T14:53:35Z</time></trkpt><trkpt lat="36.86613641435089" lon="15.099096459989527"><ele>34.4</ele><time>2026-03-26T14:53:36Z</time></trkpt><trkpt lat="36.86621258707014" lon="15.098991694234327"><ele>34.2</ele><time>2026-03-26T14:53:37Z</time></trkpt><trkpt lat="36.866251424794974" lon="15.098868283192633"><ele>34.0</ele><time>2026-03-26T14:53:38Z</time></trkpt><trkpt lat="36.866250791505614" lon="15.0987494608165"><ele>34.25</ele><time>2026-03-26T14:53:39Z</time></trkpt><trkpt lat="36.866222177625524" lon="15.098621213200746"><ele>34.5</ele><time>2026-03-26T14:53:40Z</time></trkpt><trkpt lat="36.86614421347037" lon="15.098498852718974"><ele>34.75</ele><time>2026-03-26T14:53:41Z</time></trkpt><trkpt lat="36.866120071362175" lon="15.098321765744888"><ele>35.0</ele><time>2026-03-26T14:53:42Z</time></trkpt><trkpt lat="36.86612219729517" lon="15.098128284868137"><ele>35.0</ele><time>2026-03-26T14:53:43Z</time></trkpt><trkpt lat="36.86614925245497" lon="15.097904557383707"><ele>35.0</ele><time>2026-03-26T14:53:44Z</time></trkpt><trkpt lat="36.86617964807911" lon="15.097655424954949"><ele>35.0</ele><time>2026-03-26T14:53:45Z</time></trkpt><trkpt lat="36.86621274093835" lon="15.097396190467757"><ele>36.33333333333333</ele><time>2026-03-26T14:53:46Z</time></trkpt><trkpt lat="36.866247801239886" lon="15.097132600072246"><ele>37.666666666666664</ele><time>2026-03-26T14:53:47Z</time></trkpt><trkpt lat="36.86628610861628" lon="15.096862369248962"><ele>39.0</ele><time>2026-03-26T14:53:48Z</time></trkpt><trkpt lat="36.866327532792575" lon="15.096599610209726"><ele>39.333333333333336</ele><time>2026-03-26T14:53:49Z</time></trkpt><trkpt lat="36.866375873828375" lon="15.09634427512467"><ele>39.66666666666667</ele><time>2026-03-26T14:53:50Z</time></trkpt><trkpt lat="36.866426745766745" lon="15.096098217373635"><ele>40.0</ele><time>2026-03-26T14:53:51Z</time></trkpt><trkpt lat="36.8664810802741" lon="15.095885180262155"><ele>40.0</ele><time>2026-03-26T14:53:52Z</time></trkpt><trkpt lat="36.866551128176056" lon="15.09569008586417"><ele>40.0</ele><time>2026-03-26T14:53:53Z</time></trkpt><trkpt lat="36.866646415579645" lon="15.095501883881527"><ele>40.0</ele><time>2026-03-26T14:53:54Z</time></trkpt><trkpt lat="36.866762859904966" lon="15.09532105360515"><ele>41.0</ele><time>2026-03-26T14:53:55Z</time></trkpt><trkpt lat="36.866905387419486" lon="15.095159297125694"><ele>42.0</ele><time>2026-03-26T14:53:56Z</time></trkpt><trkpt lat="36.86707492947755" lon="15.095015455471337"><ele>43.0</ele><time>2026-03-26T14:53:57Z</time></trkpt><trkpt lat="36.86726269259989" lon="15.094903037629432"><ele>44.333333333333336</ele><time>2026-03-26T14:53:58Z</time></trkpt><trkpt lat="36.86745881275671" lon="15.094819985184703"><ele>45.666666666666664</ele><time>2026-03-26T14:53:59Z</time></trkpt><trkpt lat="36.86766699944035" lon="15.094753786457295"><ele>47.0</ele><time>2026-03-26T14:54:00Z</time></trkpt><trkpt lat="36.86785688870669" lon="15.094692811376937"><ele>47.0</ele><time>2026-03-26T14:54:01Z</time></trkpt><trkpt lat="36.86803902002962" lon="15.094632034674488"><ele>47.0</ele><time>2026-03-26T14:54:02Z</time></trkpt><trkpt lat="36.86821999785674" lon="15.094564520942313"><ele>47.0</ele><time>2026-03-26T14:54:03Z</time></trkpt><trkpt lat="36.86839100871618" lon="15.09447725501319"><ele>49.33333333333333</ele><time>2026-03-26T14:54:04Z</time></trkpt><trkpt lat="36.86855791630473" lon="15.094370592005324"><ele>51.666666666666664</ele><time>2026-03-26T14:54:05Z</time></trkpt><trkpt lat="36.868713504920954" lon="15.094235890582176"><ele>54.0</ele><time>2026-03-26T14:54:06Z</time></trkpt><trkpt lat="36.86886148225403" lon="15.094077207523261"><ele>54.66666666666667</ele><time>2026-03-26T14:54:07Z</time></trkpt><trkpt lat="36.86900302650174" lon="15.093901603800665"><ele>55.333333333333336</ele><time>2026-03-26T14:54:08Z</time></trkpt><trkpt lat="36.8691364349366" lon="15.09371134323454"><ele>56.0</ele><time>2026-03-26T14:54:09Z</time></trkpt><trkpt lat="36.86926547003248" lon="15.093500869540286"><ele>58.5</ele><time>2026-03-26T14:54:10Z</time></trkpt><trkpt lat="36.86939298174995" lon="15.093273543853218"><ele>61.0</ele><time>2026-03-26T14:54:11Z</time></trkpt><trkpt lat="36.869525235016994" lon="15.093036112217513"><ele>64.0</ele><time>2026-03-26T14:54:12Z</time></trkpt><trkpt lat="36.86966455121451" lon="15.09279367649443"><ele>67.0</ele><time>2026-03-26T14:54:13Z</time></trkpt><trkpt lat="36.869810371924835" lon="15.092545893774028"><ele>70.0</ele><time>2026-03-26T14:54:14Z</time></trkpt><trkpt lat="36.869957786686605" lon="15.092290110005484"><ele>73.0</ele><time>2026-03-26T14:54:15Z</time></trkpt><trkpt lat="36.87010132466481" lon="15.09203172000283"><ele>74.0</ele><time>2026-03-26T14:54:16Z</time></trkpt><trkpt lat="36.87024124600276" lon="15.091782008859532"><ele>75.0</ele><time>2026-03-26T14:54:17Z</time></trkpt><trkpt lat="36.87039417767813" lon="15.09152968216171"><ele>77.5</ele><time>2026-03-26T14:54:18Z</time></trkpt><trkpt lat="36.87055696325935" lon="15.091284544387582"><ele>80.0</ele><time>2026-03-26T14:54:19Z</time></trkpt><trkpt lat="36.870732477763596" lon="15.091042410575218"><ele>80.0</ele><time>2026-03-26T14:54:20Z</time></trkpt><trkpt lat="36.87091066059362" lon="15.090800886250435"><ele>80.0</ele><time>2026-03-26T14:54:21Z</time></trkpt><trkpt lat="36.87108120093752" lon="15.090557969791247"><ele>86.0</ele><time>2026-03-26T14:54:22Z</time></trkpt><trkpt lat="36.87123387241604" lon="15.09031296595732"><ele>92.0</ele><time>2026-03-26T14:54:23Z</time></trkpt><trkpt lat="36.87136225085103" lon="15.090075652525273"><ele>91.0</ele><time>2026-03-26T14:54:24Z</time></trkpt><trkpt lat="36.87148382218947" lon="15.089831920735081"><ele>90.0</ele><time>2026-03-26T14:54:25Z</time></trkpt><trkpt lat="36.87160002092301" lon="15.089589119451125"><ele>90.0</ele><time>2026-03-26T14:54:26Z</time></trkpt><trkpt lat="36.87170784196268" lon="15.08937399728863"><ele>90.0</ele><time>2026-03-26T14:54:27Z</time></trkpt><trkpt lat="36.87181180135072" lon="15.089178207120831"><ele>90.0</ele><time>2026-03-26T14:54:28Z</time></trkpt><trkpt lat="36.87190135949157" lon="15.089011094764643"><ele>91.25</ele><time>2026-03-26T14:54:29Z</time></trkpt><trkpt lat="36.87197676556226" lon="15.088854371112884"><ele>92.5</ele><time>2026-03-26T14:54:30Z</time></trkpt><trkpt lat="36.87204398532821" lon="15.088699659510068"><ele>93.75</ele><time>2026-03-26T14:54:31Z</time></trkpt><trkpt lat="36.87210253787511" lon="15.088558655812262"><ele>95.0</ele><time>2026-03-26T14:54:32Z</time></trkpt><trkpt lat="36.87215082792592" lon="15.088434962950183"><ele>95.0</ele><time>2026-03-26T14:54:33Z</time></trkpt><trkpt lat="36.872198129927085" lon="15.088329526757228"><ele>95.0</ele><time>2026-03-26T14:54:34Z</time></trkpt><trkpt lat="36.8722608988431" lon="15.088250648949828"><ele>95.0</ele><time>2026-03-26T14:54:35Z</time></trkpt><trkpt lat="36.872340576119804" lon="15.08818901740455"><ele>95.0</ele><time>2026-03-26T14:54:36Z</time></trkpt><trkpt lat="36.87240015754083" lon="15.088116883423886"><ele>95.0</ele><time>2026-03-26T14:54:37Z</time></trkpt><trkpt lat="36.87242531413185" lon="15.088033312036282"><ele>95.0</ele><time>2026-03-26T14:54:38Z</time></trkpt><trkpt lat="36.87241648143276" lon="15.087943549514906"><ele>94.25</ele><time>2026-03-26T14:54:39Z</time></trkpt><trkpt lat="36.87236900655844" lon="15.087844072238564"><ele>93.5</ele><time>2026-03-26T14:54:40Z</time></trkpt><trkpt lat="36.872282114465065" lon="15.087745149003899"><ele>92.75</ele><time>2026-03-26T14:54:41Z</time></trkpt><trkpt lat="36.87220297905285" lon="15.087628607252332"><ele>92.0</ele><time>2026-03-26T14:54:42Z</time></trkpt><trkpt lat="36.8721740337794" lon="15.087451893735304"><ele>94.75</ele><time>2026-03-26T14:54:43Z</time></trkpt><trkpt lat="36.872137358844526" lon="15.087276245856525"><ele>97.5</ele><time>2026-03-26T14:54:44Z</time></trkpt><trkpt lat="36.872081592136865" lon="15.087110991303442"><ele>100.25</ele><time>2026-03-26T14:54:45Z</time></trkpt><trkpt lat="36.87204391802607" lon="15.086960287825294"><ele>103.0</ele><time>2026-03-26T14:54:46Z</time></trkpt><trkpt lat="36.872007710473135" lon="15.086806078200375"><ele>103.0</ele><time>2026-03-26T14:54:47Z</time></trkpt><trkpt lat="36.87197146706525" lon="15.086650492249042"><ele>103.0</ele><time>2026-03-26T14:54:48Z</time></trkpt><trkpt lat="36.87193113273318" lon="15.086502286923253"><ele>103.0</ele><time>2026-03-26T14:54:49Z</time></trkpt><trkpt lat="36.87189011123879" lon="15.086362402706254"><ele>103.0</ele><time>2026-03-26T14:54:50Z</time></trkpt><trkpt lat="36.87184780386283" lon="15.086216902063779"><ele>103.75</ele><time>2026-03-26T14:54:51Z</time></trkpt><trkpt lat="36.87180171793223" lon="15.086064032534113"><ele>104.5</ele><time>2026-03-26T14:54:52Z</time></trkpt><trkpt lat="36.8717565338212" lon="15.085906721807135"><ele>105.25</ele><time>2026-03-26T14:54:53Z</time></trkpt><trkpt lat="36.87171705318493" lon="15.085750108041386"><ele>106.0</ele><time>2026-03-26T14:54:54Z</time></trkpt><trkpt lat="36.87168440730113" lon="15.08560091465917"><ele>100.75</ele><time>2026-03-26T14:54:55Z</time></trkpt><trkpt lat="36.871655639433605" lon="15.085445196824331"><ele>95.5</ele><time>2026-03-26T14:54:56Z</time></trkpt><trkpt lat="36.87163626393464" lon="15.085280294765482"><ele>90.25</ele><time>2026-03-26T14:54:57Z</time></trkpt><trkpt lat="36.87163362843714" lon="15.085103767499355"><ele>85.0</ele><time>2026-03-26T14:54:58Z</time></trkpt><trkpt lat="36.87165010382735" lon="15.084920858253968"><ele>84.0</ele><time>2026-03-26T14:54:59Z</time></trkpt><trkpt lat="36.87169620478801" lon="15.08473330524102"><ele>83.0</ele><time>2026-03-26T14:55:00Z</time></trkpt><trkpt lat="36.871734803041875" lon="15.08453822738296"><ele>82.0</ele><time>2026-03-26T14:55:01Z</time></trkpt><trkpt lat="36.87176717412029" lon="15.084342998610463"><ele>82.33333333333333</ele><time>2026-03-26T14:55:02Z</time></trkpt><trkpt lat="36.871798416382994" lon="15.084154577673557"><ele>82.66666666666667</ele><time>2026-03-26T14:55:03Z</time></trkpt><trkpt lat="36.87199433912459" lon="15.084011123978204"><ele>83.0</ele><time>2026-03-26T14:55:04Z</time></trkpt><trkpt lat="36.87207820983139" lon="15.083846862238344"><ele>83.0</ele><time>2026-03-26T14:55:05Z</time></trkpt><trkpt lat="36.87215560764421" lon="15.083694523696533"><ele>83.0</ele><time>2026-03-26T14:55:06Z</time></trkpt><trkpt lat="36.87222886507871" lon="15.08355271511451"><ele>83.0</ele><time>2026-03-26T14:55:07Z</time></trkpt><trkpt lat="36.87229695735386" lon="15.083419288239135"><ele>83.0</ele><time>2026-03-26T14:55:08Z</time></trkpt><trkpt lat="36.87235963749366" lon="15.083294232092692"><ele>81.60000000000001</ele><time>2026-03-26T14:55:09Z</time></trkpt><trkpt lat="36.87241655761623" lon="15.08317642958859"><ele>80.2</ele><time>2026-03-26T14:55:10Z</time></trkpt><trkpt lat="36.872470472416396" lon="15.083058909238353"><ele>78.8</ele><time>2026-03-26T14:55:11Z</time></trkpt><trkpt lat="36.87251572118955" lon="15.08294192340532"><ele>77.4</ele><time>2026-03-26T14:55:12Z</time></trkpt><trkpt lat="36.8725589056614" lon="15.082830534262971"><ele>76.0</ele><time>2026-03-26T14:55:13Z</time></trkpt><trkpt lat="36.87260434701038" lon="15.082726016917215"><ele>76.39999999999999</ele><time>2026-03-26T14:55:14Z</time></trkpt><trkpt lat="36.87265920798977" lon="15.082631364118159"><ele>76.8</ele><time>2026-03-26T14:55:15Z</time></trkpt><trkpt lat="36.872728165553816" lon="15.082555651750004"><ele>77.19999999999999</ele><time>2026-03-26T14:55:16Z</time></trkpt><trkpt lat="36.87281330810068" lon="15.082505131920485"><ele>77.6</ele><time>2026-03-26T14:55:17Z</time></trkpt><trkpt lat="36.87290087675541" lon="15.08245536581762"><ele>78.0</ele><time>2026-03-26T14:55:18Z</time></trkpt><trkpt lat="36.87297757630076" lon="15.082386528971409"><ele>76.66666666666667</ele><time>2026-03-26T14:55:19Z</time></trkpt><trkpt lat="36.87302970983061" lon="15.082296663463165"><ele>75.33333333333333</ele><time>2026-03-26T14:55:20Z</time></trkpt><trkpt lat="36.87306086319833" lon="15.082190834894051"><ele>74.0</ele><time>2026-03-26T14:55:21Z</time></trkpt><trkpt lat="36.87306337818989" lon="15.082081661040636"><ele>72.66666666666666</ele><time>2026-03-26T14:55:22Z</time></trkpt><trkpt lat="36.87303532995448" lon="15.081980699925138"><ele>71.33333333333333</ele><time>2026-03-26T14:55:23Z</time></trkpt><trkpt lat="36.87297293627566" lon="15.081895558288217"><ele>70.0</ele><time>2026-03-26T14:55:24Z</time></trkpt><trkpt lat="36.87289219780199" lon="15.081843460802052"><ele>70.0</ele><time>2026-03-26T14:55:25Z</time></trkpt><trkpt lat="36.8727961377143" lon="15.081831088387114"><ele>70.0</ele><time>2026-03-26T14:55:26Z</time></trkpt><trkpt lat="36.87268588486122" lon="15.081856948715163"><ele>70.0</ele><time>2026-03-26T14:55:27Z</time></trkpt><trkpt lat="36.87255928646903" lon="15.081909526184534"><ele>70.0</ele><time>2026-03-26T14:55:28Z</time></trkpt><trkpt lat="36.872412469472536" lon="15.081936367907316"><ele>71.33333333333333</ele><time>2026-03-26T14:55:29Z</time></trkpt><trkpt lat="36.872243863186085" lon="15.081907896466946"><ele>72.66666666666667</ele><time>2026-03-26T14:55:30Z</time></trkpt><trkpt lat="36.872051567959744" lon="15.081847221729841"><ele>74.0</ele><time>2026-03-26T14:55:31Z</time></trkpt><trkpt lat="36.8718555637996" lon="15.081786051864308"><ele>73.0</ele><time>2026-03-26T14:55:32Z</time></trkpt><trkpt lat="36.87164306394748" lon="15.08173505508172"><ele>72.0</ele><time>2026-03-26T14:55:33Z</time></trkpt><trkpt lat="36.87141855477927" lon="15.081682432161653"><ele>71.0</ele><time>2026-03-26T14:55:34Z</time></trkpt><trkpt lat="36.87118676170728" lon="15.08162688805033"><ele>74.5</ele><time>2026-03-26T14:55:35Z</time></trkpt><trkpt lat="36.870953157482916" lon="15.081575880622378"><ele>78.0</ele><time>2026-03-26T14:55:36Z</time></trkpt><trkpt lat="36.87071810750656" lon="15.081530088021278"><ele>78.5</ele><time>2026-03-26T14:55:37Z</time></trkpt><trkpt lat="36.87048779690166" lon="15.081484350789648"><ele>79.0</ele><time>2026-03-26T14:55:38Z</time></trkpt><trkpt lat="36.870274522842166" lon="15.081438998634228"><ele>78.0</ele><time>2026-03-26T14:55:39Z</time></trkpt><trkpt lat="36.87006391237221" lon="15.081392671460602"><ele>77.0</ele><time>2026-03-26T14:55:40Z</time></trkpt><trkpt lat="36.869868592736914" lon="15.081336585993883"><ele>76.0</ele><time>2026-03-26T14:55:41Z</time></trkpt><trkpt lat="36.86968377169742" lon="15.081258226305762"><ele>76.0</ele><time>2026-03-26T14:55:42Z</time></trkpt><trkpt lat="36.86949795020279" lon="15.081152453567498"><ele>76.0</ele><time>2026-03-26T14:55:43Z</time></trkpt><trkpt lat="36.86931706676922" lon="15.081020353023456"><ele>76.0</ele><time>2026-03-26T14:55:44Z</time></trkpt><trkpt lat="36.86914313003538" lon="15.08086126435564"><ele>74.33333333333333</ele><time>2026-03-26T14:55:45Z</time></trkpt><trkpt lat="36.86896976220154" lon="15.080682794059442"><ele>72.66666666666667</ele><time>2026-03-26T14:55:46Z</time></trkpt><trkpt lat="36.86880177102941" lon="15.080502993667924"><ele>71.0</ele><time>2026-03-26T14:55:47Z</time></trkpt><trkpt lat="36.8686321250449" lon="15.080323124828514"><ele>71.0</ele><time>2026-03-26T14:55:48Z</time></trkpt><trkpt lat="36.86846509674163" lon="15.080150544949728"><ele>71.0</ele><time>2026-03-26T14:55:49Z</time></trkpt><trkpt lat="36.868297386430136" lon="15.079980949291556"><ele>71.0</ele><time>2026-03-26T14:55:50Z</time></trkpt><trkpt lat="36.868131587743875" lon="15.079827486381888"><ele>66.66666666666667</ele><time>2026-03-26T14:55:51Z</time></trkpt><trkpt lat="36.867957128399354" lon="15.079701273158326"><ele>62.33333333333333</ele><time>2026-03-26T14:55:52Z</time></trkpt><trkpt lat="36.867766388797214" lon="15.079603412265383"><ele>58.0</ele><time>2026-03-26T14:55:53Z</time></trkpt><trkpt lat="36.867565973402144" lon="15.079524410448979"><ele>56.666666666666664</ele><time>2026-03-26T14:55:54Z</time></trkpt><trkpt lat="36.86735337559202" lon="15.079469278514889"><ele>55.33333333333333</ele><time>2026-03-26T14:55:55Z</time></trkpt><trkpt lat="36.86713373019351" lon="15.079452626696844"><ele>54.0</ele><time>2026-03-26T14:55:56Z</time></trkpt><trkpt lat="36.866911305064136" lon="15.079461028621143"><ele>52.0</ele><time>2026-03-26T14:55:57Z</time></trkpt><trkpt lat="36.86668546228135" lon="15.079486461121554"><ele>50.0</ele><time>2026-03-26T14:55:58Z</time></trkpt><trkpt lat="36.86645615357376" lon="15.07952040356186"><ele>50.0</ele><time>2026-03-26T14:55:59Z</time></trkpt><trkpt lat="36.866230500033076" lon="15.079552361109775"><ele>50.0</ele><time>2026-03-26T14:56:00Z</time></trkpt><trkpt lat="36.86601893196458" lon="15.079581642725579"><ele>50.0</ele><time>2026-03-26T14:56:01Z</time></trkpt><trkpt lat="36.8658177127756" lon="15.079608596358586"><ele>49.66666666666667</ele><time>2026-03-26T14:56:02Z</time></trkpt><trkpt lat="36.86561942685743" lon="15.079631290490868"><ele>49.33333333333333</ele><time>2026-03-26T14:56:03Z</time></trkpt><trkpt lat="36.865434264805316" lon="15.079652582953258"><ele>49.0</ele><time>2026-03-26T14:56:04Z</time></trkpt><trkpt lat="36.865262934546934" lon="15.079674033638684"><ele>48.33333333333333</ele><time>2026-03-26T14:56:05Z</time></trkpt><trkpt lat="36.86509924814017" lon="15.07969338448936"><ele>47.666666666666664</ele><time>2026-03-26T14:56:06Z</time></trkpt><trkpt lat="36.86493550301771" lon="15.079709335504733"><ele>47.0</ele><time>2026-03-26T14:56:07Z</time></trkpt><trkpt lat="36.86477047316683" lon="15.079729840685816"><ele>47.0</ele><time>2026-03-26T14:56:08Z</time></trkpt><trkpt lat="36.86460689896793" lon="15.079752229253755"><ele>47.0</ele><time>2026-03-26T14:56:09Z</time></trkpt><trkpt lat="36.864452576050915" lon="15.079772756610273"><ele>47.0</ele><time>2026-03-26T14:56:10Z</time></trkpt><trkpt lat="36.86428824736944" lon="15.079788154504662"><ele>45.666666666666664</ele><time>2026-03-26T14:56:11Z</time></trkpt><trkpt lat="36.86411050583329" lon="15.079808607032746"><ele>44.333333333333336</ele><time>2026-03-26T14:56:12Z</time></trkpt><trkpt lat="36.86392254862948" lon="15.079835701905951"><ele>43.0</ele><time>2026-03-26T14:56:13Z</time></trkpt><trkpt lat="36.86372427138439" lon="15.079857157161248"><ele>43.0</ele><time>2026-03-26T14:56:14Z</time></trkpt><trkpt lat="36.863524683017516" lon="15.079879180661974"><ele>43.0</ele><time>2026-03-26T14:56:15Z</time></trkpt><trkpt lat="36.86332128212845" lon="15.079905415114387"><ele>43.0</ele><time>2026-03-26T14:56:16Z</time></trkpt><trkpt lat="36.86311078239137" lon="15.07993209843435"><ele>43.0</ele><time>2026-03-26T14:56:17Z</time></trkpt><trkpt lat="36.862894442853644" lon="15.079957566157221"><ele>43.0</ele><time>2026-03-26T14:56:18Z</time></trkpt><trkpt lat="36.862668546168905" lon="15.07998308937615"><ele>43.0</ele><time>2026-03-26T14:56:19Z</time></trkpt><trkpt lat="36.86243365007063" lon="15.08001074094169"><ele>43.0</ele><time>2026-03-26T14:56:20Z</time></trkpt><trkpt lat="36.862190827447336" lon="15.080043178722633"><ele>43.0</ele><time>2026-03-26T14:56:21Z</time></trkpt><trkpt lat="36.86194097141803" lon="15.080079471094296"><ele>44.5</ele><time>2026-03-26T14:56:22Z</time></trkpt><trkpt lat="36.861687286825685" lon="15.080127031360625"><ele>46.0</ele><time>2026-03-26T14:56:23Z</time></trkpt><trkpt lat="36.861433173129285" lon="15.08019324090786"><ele>46.0</ele><time>2026-03-26T14:56:24Z</time></trkpt><trkpt lat="36.86117702345936" lon="15.080270792243137"><ele>46.0</ele><time>2026-03-26T14:56:25Z</time></trkpt><trkpt lat="36.860919065424376" lon="15.080350085199173"><ele>48.5</ele><time>2026-03-26T14:56:26Z</time></trkpt><trkpt lat="36.86066123967937" lon="15.0804259429486"><ele>51.0</ele><time>2026-03-26T14:56:27Z</time></trkpt><trkpt lat="36.860403027549864" lon="15.080498875439572"><ele>51.0</ele><time>2026-03-26T14:56:28Z</time></trkpt><trkpt lat="36.86014966136748" lon="15.080566868306532"><ele>51.0</ele><time>2026-03-26T14:56:29Z</time></trkpt><trkpt lat="36.85989752286778" lon="15.080622700314148"><ele>54.5</ele><time>2026-03-26T14:56:30Z</time></trkpt><trkpt lat="36.859647184736446" lon="15.080661045522767"><ele>58.0</ele><time>2026-03-26T14:56:31Z</time></trkpt><trkpt lat="36.85939773999991" lon="15.080675446416183"><ele>59.5</ele><time>2026-03-26T14:56:32Z</time></trkpt><trkpt lat="36.85914567283174" lon="15.080687760250662"><ele>61.0</ele><time>2026-03-26T14:56:33Z</time></trkpt><trkpt lat="36.858891602787914" lon="15.080702495748913"><ele>61.0</ele><time>2026-03-26T14:56:34Z</time></trkpt><trkpt lat="36.85863851090495" lon="15.080723031776778"><ele>61.0</ele><time>2026-03-26T14:56:35Z</time></trkpt><trkpt lat="36.85838602687935" lon="15.080745785443176"><ele>60.5</ele><time>2026-03-26T14:56:36Z</time></trkpt><trkpt lat="36.85813440744529" lon="15.080771314914529"><ele>60.0</ele><time>2026-03-26T14:56:37Z</time></trkpt><trkpt lat="36.85789109692322" lon="15.08079550170734"><ele>60.0</ele><time>2026-03-26T14:56:38Z</time></trkpt><trkpt lat="36.85766985094104" lon="15.080823539272194"><ele>60.0</ele><time>2026-03-26T14:56:39Z</time></trkpt><trkpt lat="36.85746375879937" lon="15.08085800446788"><ele>60.0</ele><time>2026-03-26T14:56:40Z</time></trkpt><trkpt lat="36.85727277424974" lon="15.080891929236214"><ele>60.33333333333333</ele><time>2026-03-26T14:56:40.999Z</time></trkpt><trkpt lat="36.85709450646801" lon="15.080916073659864"><ele>60.666666666666664</ele><time>2026-03-26T14:56:41.999Z</time></trkpt><trkpt lat="36.85692921094885" lon="15.08093430190106"><ele>61.0</ele><time>2026-03-26T14:56:42.999Z</time></trkpt><trkpt lat="36.85677649585889" lon="15.080958799975834"><ele>62.0</ele><time>2026-03-26T14:56:43.999Z</time></trkpt><trkpt lat="36.85663833034311" lon="15.08098295160501"><ele>63.0</ele><time>2026-03-26T14:56:45Z</time></trkpt><trkpt lat="36.856508271362024" lon="15.081001788462563"><ele>64.0</ele><time>2026-03-26T14:56:46Z</time></trkpt><trkpt lat="36.85638645861844" lon="15.08100832321406"><ele>65.0</ele><time>2026-03-26T14:56:47Z</time></trkpt><trkpt lat="36.85626959586014" lon="15.080985267064799"><ele>65.0</ele><time>2026-03-26T14:56:48Z</time></trkpt><trkpt lat="36.85613517558662" lon="15.080929864824443"><ele>65.0</ele><time>2026-03-26T14:56:49Z</time></trkpt><trkpt lat="36.85599267498087" lon="15.08086590226917"><ele>65.0</ele><time>2026-03-26T14:56:50Z</time></trkpt><trkpt lat="36.85584370009534" lon="15.080808828664521"><ele>65.0</ele><time>2026-03-26T14:56:51Z</time></trkpt><trkpt lat="36.85569771186692" lon="15.08072947788739"><ele>64.25</ele><time>2026-03-26T14:56:52Z</time></trkpt><trkpt lat="36.85557319527414" lon="15.08062632276916"><ele>63.5</ele><time>2026-03-26T14:56:53Z</time></trkpt><trkpt lat="36.85547059364588" lon="15.08051895489062"><ele>62.75</ele><time>2026-03-26T14:56:54Z</time></trkpt><trkpt lat="36.855383746623545" lon="15.08040537450382"><ele>62.0</ele><time>2026-03-26T14:56:55Z</time></trkpt><trkpt lat="36.85531061617785" lon="15.08028308604923"><ele>62.0</ele><time>2026-03-26T14:56:56Z</time></trkpt><trkpt lat="36.85524869239621" lon="15.080134068061188"><ele>62.0</ele><time>2026-03-26T14:56:57Z</time></trkpt><trkpt lat="36.85520427323922" lon="15.079976347006248"><ele>62.0</ele><time>2026-03-26T14:56:58Z</time></trkpt><trkpt lat="36.855173436062074" lon="15.079820795866214"><ele>62.0</ele><time>2026-03-26T14:56:59Z</time></trkpt><trkpt lat="36.8551524565381" lon="15.079655513987504"><ele>61.5</ele><time>2026-03-26T14:57:00Z</time></trkpt><trkpt lat="36.85514243763479" lon="15.0794828474046"><ele>61.0</ele><time>2026-03-26T14:57:01Z</time></trkpt><trkpt lat="36.855116026486066" lon="15.079313293047543"><ele>60.5</ele><time>2026-03-26T14:57:02Z</time></trkpt><trkpt lat="36.85507359612473" lon="15.079161230017649"><ele>60.0</ele><time>2026-03-26T14:57:03Z</time></trkpt><trkpt lat="36.8550557240858" lon="15.079016811021868"><ele>57.5</ele><time>2026-03-26T14:57:04Z</time></trkpt><trkpt lat="36.85503168960042" lon="15.078885820035188"><ele>55.0</ele><time>2026-03-26T14:57:05Z</time></trkpt><trkpt lat="36.8550087527934" lon="15.078747936845108"><ele>52.5</ele><time>2026-03-26T14:57:06Z</time></trkpt><trkpt lat="36.8549865516828" lon="15.078590668317151"><ele>50.0</ele><time>2026-03-26T14:57:07Z</time></trkpt><trkpt lat="36.85496996434449" lon="15.07843186851183"><ele>50.0</ele><time>2026-03-26T14:57:08Z</time></trkpt><trkpt lat="36.85498170071607" lon="15.078304560982009"><ele>50.0</ele><time>2026-03-26T14:57:09Z</time></trkpt><trkpt lat="36.85496968213791" lon="15.078189437808746"><ele>50.0</ele><time>2026-03-26T14:57:10Z</time></trkpt><trkpt lat="36.85498679635708" lon="15.078080418551853"><ele>50.0</ele><time>2026-03-26T14:57:11Z</time></trkpt><trkpt lat="36.85501254526495" lon="15.077966983799742"><ele>50.0</ele><time>2026-03-26T14:57:12Z</time></trkpt><trkpt lat="36.85504722885257" lon="15.077852385139952"><ele>49.8</ele><time>2026-03-26T14:57:13Z</time></trkpt><trkpt lat="36.85508971270907" lon="15.077735271848704"><ele>49.6</ele><time>2026-03-26T14:57:14Z</time></trkpt><trkpt lat="36.85513227271735" lon="15.077617305225905"><ele>49.400000000000006</ele><time>2026-03-26T14:57:15Z</time></trkpt><trkpt lat="36.85517698854136" lon="15.077499736028765"><ele>49.2</ele><time>2026-03-26T14:57:16Z</time></trkpt><trkpt lat="36.855230772258764" lon="15.077381766726607"><ele>49.0</ele><time>2026-03-26T14:57:17Z</time></trkpt><trkpt lat="36.85529325907175" lon="15.077271824750005"><ele>51.0</ele><time>2026-03-26T14:57:18Z</time></trkpt><trkpt lat="36.85556367279816" lon="15.077259177708063"><ele>53.0</ele><time>2026-03-26T14:57:20Z</time></trkpt><trkpt lat="36.85561711577524" lon="15.077185138247527"><ele>55.0</ele><time>2026-03-26T14:57:21Z</time></trkpt><trkpt lat="36.85566361792826" lon="15.077120714421953"><ele>57.0</ele><time>2026-03-26T14:57:22Z</time></trkpt><trkpt lat="36.85570224211539" lon="15.07699597489317"><ele>58.0</ele><time>2026-03-26T14:57:24Z</time></trkpt><trkpt lat="36.855353048323" lon="15.076532026424054"><ele>57.99999999999999</ele><time>2026-03-26T14:57:26Z</time></trkpt><trkpt lat="36.855298791246156" lon="15.076446177295942"><ele>58.0</ele><time>2026-03-26T14:57:27Z</time></trkpt><trkpt lat="36.85525435891017" lon="15.076358086630494"><ele>58.0</ele><time>2026-03-26T14:57:28Z</time></trkpt><trkpt lat="36.85522833816354" lon="15.076256472536858"><ele>58.0</ele><time>2026-03-26T14:57:29Z</time></trkpt><trkpt lat="36.85521383341674" lon="15.07614513364214"><ele>57.99999999999999</ele><time>2026-03-26T14:57:30Z</time></trkpt><trkpt lat="36.85520112534759" lon="15.076030475842705"><ele>58.0</ele><time>2026-03-26T14:57:31Z</time></trkpt><trkpt lat="36.85517918940231" lon="15.075915440905579"><ele>58.0</ele><time>2026-03-26T14:57:32Z</time></trkpt><trkpt lat="36.855179909312874" lon="15.075801180819113"><ele>58.0</ele><time>2026-03-26T14:57:33Z</time></trkpt><trkpt lat="36.8552106895716" lon="15.075678047139071"><ele>58.0</ele><time>2026-03-26T14:57:34Z</time></trkpt><trkpt lat="36.855256537072805" lon="15.075544996707388"><ele>58.0</ele><time>2026-03-26T14:57:35Z</time></trkpt><trkpt lat="36.855317693210885" lon="15.075393262991183"><ele>58.0</ele><time>2026-03-26T14:57:36Z</time></trkpt><trkpt lat="36.85540799789395" lon="15.075239133289335"><ele>58.0</ele><time>2026-03-26T14:57:37Z</time></trkpt><trkpt lat="36.85551137160895" lon="15.075062156480266"><ele>58.0</ele><time>2026-03-26T14:57:38Z</time></trkpt><trkpt lat="36.855610315976186" lon="15.074873675740522"><ele>58.0</ele><time>2026-03-26T14:57:39Z</time></trkpt><trkpt lat="36.85570877973325" lon="15.07467594437871"><ele>58.0</ele><time>2026-03-26T14:57:40Z</time></trkpt><trkpt lat="36.85580501435536" lon="15.074479112578018"><ele>58.0</ele><time>2026-03-26T14:57:41Z</time></trkpt><trkpt lat="36.85590171301926" lon="15.074291085431028"><ele>58.0</ele><time>2026-03-26T14:57:42Z</time></trkpt><trkpt lat="36.85599518727844" lon="15.07411736540552"><ele>59.75</ele><time>2026-03-26T14:57:43Z</time></trkpt><trkpt lat="36.85608017804007" lon="15.073957745379028"><ele>61.5</ele><time>2026-03-26T14:57:44Z</time></trkpt><trkpt lat="36.856150578474676" lon="15.073826918336367"><ele>63.25</ele><time>2026-03-26T14:57:45Z</time></trkpt><trkpt lat="36.85621374308238" lon="15.073711280927046"><ele>65.0</ele><time>2026-03-26T14:57:46Z</time></trkpt><trkpt lat="36.856288088272805" lon="15.073585933116998"><ele>65.0</ele><time>2026-03-26T14:57:47Z</time></trkpt><trkpt lat="36.85637933250449" lon="15.073428939180177"><ele>65.0</ele><time>2026-03-26T14:57:48Z</time></trkpt><trkpt lat="36.85648287966414" lon="15.073260006970841"><ele>65.0</ele><time>2026-03-26T14:57:49Z</time></trkpt><trkpt lat="36.85659454777956" lon="15.073078073720716"><ele>64.0</ele><time>2026-03-26T14:57:50Z</time></trkpt><trkpt lat="36.85669106429775" lon="15.07290881685001"><ele>63.0</ele><time>2026-03-26T14:57:51Z</time></trkpt><trkpt lat="36.85678271073576" lon="15.072729879646664"><ele>62.0</ele><time>2026-03-26T14:57:52Z</time></trkpt><trkpt lat="36.85686337226475" lon="15.072539106703985"><ele>65.0</ele><time>2026-03-26T14:57:53Z</time></trkpt><trkpt lat="36.856935331008806" lon="15.072335998523846"><ele>68.0</ele><time>2026-03-26T14:57:54Z</time></trkpt><trkpt lat="36.85700239298749" lon="15.072140519288048"><ele>71.0</ele><time>2026-03-26T14:57:55Z</time></trkpt><trkpt lat="36.85707420411674" lon="15.071952644726018"><ele>71.0</ele><time>2026-03-26T14:57:56Z</time></trkpt><trkpt lat="36.85714873554371" lon="15.071772239356196"><ele>71.0</ele><time>2026-03-26T14:57:57Z</time></trkpt><trkpt lat="36.85722047014668" lon="15.07160712905748"><ele>71.0</ele><time>2026-03-26T14:57:58Z</time></trkpt><trkpt lat="36.85728270023566" lon="15.071465239647196"><ele>71.0</ele><time>2026-03-26T14:57:59Z</time></trkpt><trkpt lat="36.85735186033872" lon="15.07133062645151"><ele>71.25</ele><time>2026-03-26T14:58:00Z</time></trkpt><trkpt lat="36.857442895709475" lon="15.07119577114218"><ele>71.5</ele><time>2026-03-26T14:58:01Z</time></trkpt><trkpt lat="36.85754553887717" lon="15.071067081000464"><ele>71.75</ele><time>2026-03-26T14:58:02Z</time></trkpt><trkpt lat="36.85762400441661" lon="15.0709174881498"><ele>72.0</ele><time>2026-03-26T14:58:03Z</time></trkpt><trkpt lat="36.85769300912871" lon="15.07074503167479"><ele>72.0</ele><time>2026-03-26T14:58:04Z</time></trkpt><trkpt lat="36.85775282352668" lon="15.070598553935206"><ele>72.0</ele><time>2026-03-26T14:58:05Z</time></trkpt><trkpt lat="36.85781480562708" lon="15.070475017930358"><ele>72.0</ele><time>2026-03-26T14:58:06Z</time></trkpt><trkpt lat="36.85787119223149" lon="15.0703538536022"><ele>72.0</ele><time>2026-03-26T14:58:07Z</time></trkpt><trkpt lat="36.85792350312084" lon="15.070221891847723"><ele>72.0</ele><time>2026-03-26T14:58:08Z</time></trkpt><trkpt lat="36.85797529836566" lon="15.070068072171804"><ele>72.0</ele><time>2026-03-26T14:58:09Z</time></trkpt><trkpt lat="36.85801274878913" lon="15.069902950227002"><ele>72.0</ele><time>2026-03-26T14:58:10Z</time></trkpt><trkpt lat="36.85804345137688" lon="15.069728802601775"><ele>72.0</ele><time>2026-03-26T14:58:11Z</time></trkpt><trkpt lat="36.85809761744524" lon="15.06954273862992"><ele>72.5</ele><time>2026-03-26T14:58:12Z</time></trkpt><trkpt lat="36.85816297187034" lon="15.069386416894334"><ele>73.0</ele><time>2026-03-26T14:58:13Z</time></trkpt><trkpt lat="36.858220839253626" lon="15.069251777405103"><ele>73.5</ele><time>2026-03-26T14:58:14Z</time></trkpt><trkpt lat="36.85826437845589" lon="15.069138433799633"><ele>74.0</ele><time>2026-03-26T14:58:15Z</time></trkpt><trkpt lat="36.85830249547632" lon="15.069035813712603"><ele>74.4</ele><time>2026-03-26T14:58:16Z</time></trkpt><trkpt lat="36.858332618201615" lon="15.068924229385441"><ele>74.80000000000001</ele><time>2026-03-26T14:58:17Z</time></trkpt><trkpt lat="36.85836590398881" lon="15.06883054127882"><ele>75.19999999999999</ele><time>2026-03-26T14:58:18Z</time></trkpt><trkpt lat="36.85829946303655" lon="15.068699595505121"><ele>75.6</ele><time>2026-03-26T14:58:19Z</time></trkpt><trkpt lat="36.858267013861166" lon="15.068610019160495"><ele>76.0</ele><time>2026-03-26T14:58:20Z</time></trkpt><trkpt lat="36.85824265258756" lon="15.068516556167946"><ele>76.0</ele><time>2026-03-26T14:58:21Z</time></trkpt><trkpt lat="36.85821668089976" lon="15.068398291939179"><ele>76.0</ele><time>2026-03-26T14:58:22Z</time></trkpt><trkpt lat="36.85818949808036" lon="15.068263401943762"><ele>76.0</ele><time>2026-03-26T14:58:23Z</time></trkpt><trkpt lat="36.858169860497526" lon="15.068114345441401"><ele>76.0</ele><time>2026-03-26T14:58:24Z</time></trkpt><trkpt lat="36.858154163716" lon="15.067979662957438"><ele>76.0</ele><time>2026-03-26T14:58:25Z</time></trkpt><trkpt lat="36.858140588525245" lon="15.067850923360142"><ele>76.6</ele><time>2026-03-26T14:58:26Z</time></trkpt><trkpt lat="36.8581290825778" lon="15.067722159599898"><ele>77.19999999999999</ele><time>2026-03-26T14:58:27Z</time></trkpt><trkpt lat="36.858119398903284" lon="15.06759421548903"><ele>77.80000000000001</ele><time>2026-03-26T14:58:28Z</time></trkpt><trkpt lat="36.858111451950016" lon="15.067464432849821"><ele>78.4</ele><time>2026-03-26T14:58:29Z</time></trkpt><trkpt lat="36.85809769793593" lon="15.067318289769553"><ele>79.0</ele><time>2026-03-26T14:58:30Z</time></trkpt><trkpt lat="36.8580693178692" lon="15.067161727976949"><ele>80.25</ele><time>2026-03-26T14:58:31Z</time></trkpt><trkpt lat="36.85805231337046" lon="15.067006854707143"><ele>81.5</ele><time>2026-03-26T14:58:32Z</time></trkpt><trkpt lat="36.858006599779976" lon="15.066880028320007"><ele>82.75</ele><time>2026-03-26T14:58:33Z</time></trkpt><trkpt lat="36.85796359797388" lon="15.06674406139429"><ele>84.0</ele><time>2026-03-26T14:58:34Z</time></trkpt><trkpt lat="36.85789032288324" lon="15.066585568183282"><ele>85.0</ele><time>2026-03-26T14:58:35Z</time></trkpt><trkpt lat="36.85781614353992" lon="15.066415060563733"><ele>86.0</ele><time>2026-03-26T14:58:36Z</time></trkpt><trkpt lat="36.85774770205596" lon="15.06623587723904"><ele>87.0</ele><time>2026-03-26T14:58:37Z</time></trkpt><trkpt lat="36.85767847739144" lon="15.066060591153898"><ele>89.33333333333333</ele><time>2026-03-26T14:58:38Z</time></trkpt><trkpt lat="36.857602642907125" lon="15.065893431955752"><ele>91.66666666666666</ele><time>2026-03-26T14:58:39Z</time></trkpt><trkpt lat="36.85752691312252" lon="15.06573021885288"><ele>94.0</ele><time>2026-03-26T14:58:40Z</time></trkpt><trkpt lat="36.857472925570654" lon="15.065560692222098"><ele>95.5</ele><time>2026-03-26T14:58:41Z</time></trkpt><trkpt lat="36.85740697630869" lon="15.065397756014974"><ele>97.0</ele><time>2026-03-26T14:58:42Z</time></trkpt><trkpt lat="36.8573439709443" lon="15.065251118670021"><ele>98.5</ele><time>2026-03-26T14:58:42.999Z</time></trkpt><trkpt lat="36.85731627383034" lon="15.0651021865884"><ele>100.0</ele><time>2026-03-26T14:58:43.999Z</time></trkpt><trkpt lat="36.857304405048474" lon="15.064970000004873"><ele>101.0</ele><time>2026-03-26T14:58:44.999Z</time></trkpt><trkpt lat="36.85731237073771" lon="15.06483975625491"><ele>102.0</ele><time>2026-03-26T14:58:45.999Z</time></trkpt><trkpt lat="36.85732274270791" lon="15.06469710581713"><ele>103.0</ele><time>2026-03-26T14:58:46.999Z</time></trkpt><trkpt lat="36.85735183657369" lon="15.064551282629866"><ele>104.0</ele><time>2026-03-26T14:58:47.999Z</time></trkpt><trkpt lat="36.85735404435512" lon="15.064404475209866"><ele>104.0</ele><time>2026-03-26T14:58:48.999Z</time></trkpt><trkpt lat="36.857372847398246" lon="15.064256595163739"><ele>104.0</ele><time>2026-03-26T14:58:49.999Z</time></trkpt><trkpt lat="36.857402049851686" lon="15.064107537575886"><ele>104.0</ele><time>2026-03-26T14:58:51Z</time></trkpt><trkpt lat="36.857431081355955" lon="15.063957409977416"><ele>104.0</ele><time>2026-03-26T14:58:52Z</time></trkpt><trkpt lat="36.85746417394186" lon="15.063811879669892"><ele>104.25</ele><time>2026-03-26T14:58:53Z</time></trkpt><trkpt lat="36.857485337118554" lon="15.063659580490281"><ele>104.5</ele><time>2026-03-26T14:58:54Z</time></trkpt><trkpt lat="36.857517346409324" lon="15.063516665204578"><ele>104.75</ele><time>2026-03-26T14:58:55Z</time></trkpt><trkpt lat="36.85755821518978" lon="15.063379735727386"><ele>105.0</ele><time>2026-03-26T14:58:56Z</time></trkpt><trkpt lat="36.85758383365265" lon="15.063235481253052"><ele>105.0</ele><time>2026-03-26T14:58:57Z</time></trkpt><trkpt lat="36.85760036652032" lon="15.063108312411428"><ele>105.0</ele><time>2026-03-26T14:58:58Z</time></trkpt><trkpt lat="36.85762113570194" lon="15.062979016390724"><ele>105.0</ele><time>2026-03-26T14:58:59Z</time></trkpt><trkpt lat="36.85765380745541" lon="15.062879394453535"><ele>105.0</ele><time>2026-03-26T14:59:00Z</time></trkpt><trkpt lat="36.85769099950899" lon="15.062766994708332"><ele>105.0</ele><time>2026-03-26T14:59:01Z</time></trkpt><trkpt lat="36.85773116546086" lon="15.062653131040197"><ele>106.4</ele><time>2026-03-26T14:59:02Z</time></trkpt><trkpt lat="36.85776683290011" lon="15.06253634113677"><ele>107.8</ele><time>2026-03-26T14:59:03Z</time></trkpt><trkpt lat="36.857798913114024" lon="15.062423928794965"><ele>109.19999999999999</ele><time>2026-03-26T14:59:04Z</time></trkpt><trkpt lat="36.857830134743" lon="15.062320535118147"><ele>110.6</ele><time>2026-03-26T14:59:05Z</time></trkpt><trkpt lat="36.85787256650401" lon="15.062221247144732"><ele>112.0</ele><time>2026-03-26T14:59:06Z</time></trkpt><trkpt lat="36.8579305924805" lon="15.06212592045526"><ele>112.39999999999999</ele><time>2026-03-26T14:59:07Z</time></trkpt><trkpt lat="36.85798487066324" lon="15.062028412193538"><ele>112.79999999999998</ele><time>2026-03-26T14:59:08Z</time></trkpt><trkpt lat="36.85802303989005" lon="15.06191494606619"><ele>113.2</ele><time>2026-03-26T14:59:09Z</time></trkpt><trkpt lat="36.858054629778486" lon="15.06179849477476"><ele>113.6</ele><time>2026-03-26T14:59:10Z</time></trkpt><trkpt lat="36.85808108025503" lon="15.061681703845823"><ele>114.0</ele><time>2026-03-26T14:59:11Z</time></trkpt><trkpt lat="36.85810226791909" lon="15.061561212033546"><ele>114.2</ele><time>2026-03-26T14:59:12Z</time></trkpt><trkpt lat="36.85812171001247" lon="15.061443523648279"><ele>114.4</ele><time>2026-03-26T14:59:13Z</time></trkpt><trkpt lat="36.858155941661586" lon="15.061326252134101"><ele>114.6</ele><time>2026-03-26T14:59:14Z</time></trkpt><trkpt lat="36.8581749847882" lon="15.061217761299329"><ele>114.8</ele><time>2026-03-26T14:59:15Z</time></trkpt><trkpt lat="36.85821665438217" lon="15.061122446157599"><ele>115.0</ele><time>2026-03-26T14:59:16Z</time></trkpt><trkpt lat="36.85824887661684" lon="15.061005918551663"><ele>115.0</ele><time>2026-03-26T14:59:17Z</time></trkpt><trkpt lat="36.85828600425506" lon="15.060870904824508"><ele>115.0</ele><time>2026-03-26T14:59:18Z</time></trkpt><trkpt lat="36.85832042242388" lon="15.060745079049525"><ele>115.0</ele><time>2026-03-26T14:59:19Z</time></trkpt><trkpt lat="36.85835063069114" lon="15.060634643822738"><ele>115.0</ele><time>2026-03-26T14:59:20Z</time></trkpt><trkpt lat="36.858371167159035" lon="15.060528666030795"><ele>115.0</ele><time>2026-03-26T14:59:21Z</time></trkpt><trkpt lat="36.858404345568" lon="15.060416395673293"><ele>114.2</ele><time>2026-03-26T14:59:22Z</time></trkpt><trkpt lat="36.85843678732597" lon="15.060294129261507"><ele>113.4</ele><time>2026-03-26T14:59:23Z</time></trkpt><trkpt lat="36.85846585439209" lon="15.060165717817744"><ele>112.6</ele><time>2026-03-26T14:59:24Z</time></trkpt><trkpt lat="36.858487914698664" lon="15.060042583714363"><ele>111.8</ele><time>2026-03-26T14:59:25Z</time></trkpt><trkpt lat="36.858501869618294" lon="15.059919500449995"><ele>111.0</ele><time>2026-03-26T14:59:26Z</time></trkpt><trkpt lat="36.8585106778216" lon="15.059794103132397"><ele>108.33333333333333</ele><time>2026-03-26T14:59:27Z</time></trkpt><trkpt lat="36.858515953481486" lon="15.059681102976043"><ele>105.66666666666667</ele><time>2026-03-26T14:59:28Z</time></trkpt><trkpt lat="36.858515947705875" lon="15.059584636255376"><ele>103.0</ele><time>2026-03-26T14:59:29Z</time></trkpt><trkpt lat="36.85851265943355" lon="15.059490645452733"><ele>100.33333333333334</ele><time>2026-03-26T14:59:30Z</time></trkpt><trkpt lat="36.8585039996872" lon="15.059410267065925"><ele>97.66666666666667</ele><time>2026-03-26T14:59:31Z</time></trkpt><trkpt lat="36.858498632313186" lon="15.059320039813132"><ele>95.0</ele><time>2026-03-26T14:59:32Z</time></trkpt><trkpt lat="36.85849064436695" lon="15.059231451500864"><ele>94.33333333333334</ele><time>2026-03-26T14:59:33Z</time></trkpt><trkpt lat="36.85847732468628" lon="15.059090754032377"><ele>93.66666666666667</ele><time>2026-03-26T14:59:35Z</time></trkpt><trkpt lat="36.85846453620726" lon="15.058967713086464"><ele>93.0</ele><time>2026-03-26T14:59:37Z</time></trkpt><trkpt lat="36.858450920213734" lon="15.058870020854851"><ele>92.33333333333333</ele><time>2026-03-26T14:59:39Z</time></trkpt><trkpt lat="36.85844677601679" lon="15.0587820792706"><ele>91.66666666666666</ele><time>2026-03-26T14:59:41Z</time></trkpt><trkpt lat="36.85844547181792" lon="15.05868141024145"><ele>91.0</ele><time>2026-03-26T14:59:43Z</time></trkpt><trkpt lat="36.858456791422114" lon="15.058591158926927"><ele>91.0</ele><time>2026-03-26T14:59:45Z</time></trkpt><trkpt lat="36.85846912637516" lon="15.058512729344068"><ele>91.0</ele><time>2026-03-26T14:59:47Z</time></trkpt><trkpt lat="36.85848647490337" lon="15.058418899688395"><ele>91.0</ele><time>2026-03-26T14:59:49Z</time></trkpt><trkpt lat="36.85851575536371" lon="15.058315535891113"><ele>91.0</ele><time>2026-03-26T14:59:51Z</time></trkpt><trkpt lat="36.85855954305965" lon="15.058206858412188"><ele>91.0</ele><time>2026-03-26T14:59:53Z</time></trkpt><trkpt lat="36.858597628346615" lon="15.058123577929832"><ele>91.0</ele><time>2026-03-26T14:59:55Z</time></trkpt><trkpt lat="36.858647039706405" lon="15.058040437273176"><ele>90.66666666666666</ele><time>2026-03-26T14:59:58Z</time></trkpt><trkpt lat="36.85868444233593" lon="15.057974356620765"><ele>90.33333333333333</ele><time>2026-03-26T15:00:00Z</time></trkpt><trkpt lat="36.85872737527116" lon="15.057895008604868"><ele>90.0</ele><time>2026-03-26T15:00:02Z</time></trkpt><trkpt lat="36.85876424466199" lon="15.05781850309162"><ele>89.66666666666667</ele><time>2026-03-26T15:00:04Z</time></trkpt><trkpt lat="36.85880389031647" lon="15.05771395986869"><ele>89.33333333333334</ele><time>2026-03-26T15:00:07Z</time></trkpt><trkpt lat="36.858834231636195" lon="15.05763230853423"><ele>89.0</ele><time>2026-03-26T15:00:09Z</time></trkpt><trkpt lat="36.858885064397356" lon="15.057563979266625"><ele>89.0</ele><time>2026-03-26T15:00:11Z</time></trkpt><trkpt lat="36.85891444959796" lon="15.057480245566746"><ele>89.0</ele><time>2026-03-26T15:00:13Z</time></trkpt><trkpt lat="36.85897928024518" lon="15.057424670047274"><ele>89.0</ele><time>2026-03-26T15:00:15Z</time></trkpt><trkpt lat="36.85904385208635" lon="15.057381839068688"><ele>89.0</ele><time>2026-03-26T15:00:17Z</time></trkpt><trkpt lat="36.85911013746139" lon="15.0573507700297"><ele>89.0</ele><time>2026-03-26T15:00:19Z</time></trkpt><trkpt lat="36.859022823956394" lon="15.057161676818815"><ele>89.75</ele><time>2026-03-26T15:00:26Z</time></trkpt><trkpt lat="36.85889411788119" lon="15.057073794063442"><ele>90.5</ele><time>2026-03-26T15:00:28Z</time></trkpt><trkpt lat="36.858825150151276" lon="15.057004056627221"><ele>91.25</ele><time>2026-03-26T15:00:29Z</time></trkpt><trkpt lat="36.85874421856619" lon="15.056911322374"><ele>92.0</ele><time>2026-03-26T15:00:30Z</time></trkpt><trkpt lat="36.8586486259202" lon="15.056813079173937"><ele>92.0</ele><time>2026-03-26T15:00:31Z</time></trkpt><trkpt lat="36.85854509196604" lon="15.056703500514885"><ele>92.0</ele><time>2026-03-26T15:00:32Z</time></trkpt><trkpt lat="36.858438720804585" lon="15.056587750467285"><ele>92.0</ele><time>2026-03-26T15:00:33Z</time></trkpt><trkpt lat="36.8583395427253" lon="15.056450613524664"><ele>92.0</ele><time>2026-03-26T15:00:34Z</time></trkpt><trkpt lat="36.85822774886979" lon="15.05632519351599"><ele>92.33333333333334</ele><time>2026-03-26T15:00:35Z</time></trkpt><trkpt lat="36.85810699858575" lon="15.056213280694623"><ele>92.66666666666667</ele><time>2026-03-26T15:00:36Z</time></trkpt><trkpt lat="36.857997194947856" lon="15.056079160449913"><ele>93.0</ele><time>2026-03-26T15:00:37Z</time></trkpt><trkpt lat="36.857887539674195" lon="15.055944712335226"><ele>93.0</ele><time>2026-03-26T15:00:38Z</time></trkpt><trkpt lat="36.85779036201425" lon="15.055821072743647"><ele>93.0</ele><time>2026-03-26T15:00:39Z</time></trkpt><trkpt lat="36.85769452233194" lon="15.05569465996534"><ele>93.0</ele><time>2026-03-26T15:00:40Z</time></trkpt><trkpt lat="36.85760253759854" lon="15.055562287737013"><ele>93.0</ele><time>2026-03-26T15:00:41Z</time></trkpt><trkpt lat="36.857511648748314" lon="15.055431887118335"><ele>91.0</ele><time>2026-03-26T15:00:42Z</time></trkpt><trkpt lat="36.85742527691025" lon="15.055304615225921"><ele>89.0</ele><time>2026-03-26T15:00:42.999Z</time></trkpt><trkpt lat="36.85734695511626" lon="15.055175579224658"><ele>87.0</ele><time>2026-03-26T15:00:43.999Z</time></trkpt><trkpt lat="36.85727785331711" lon="15.055038468065687"><ele>85.0</ele><time>2026-03-26T15:00:44.999Z</time></trkpt><trkpt lat="36.85722312066701" lon="15.054906022660933"><ele>84.2</ele><time>2026-03-26T15:00:45.999Z</time></trkpt><trkpt lat="36.85718898374063" lon="15.054780901408277"><ele>83.4</ele><time>2026-03-26T15:00:46.999Z</time></trkpt><trkpt lat="36.85715536638916" lon="15.05466533161195"><ele>82.6</ele><time>2026-03-26T15:00:47.999Z</time></trkpt><trkpt lat="36.85712028933794" lon="15.054554801051472"><ele>81.8</ele><time>2026-03-26T15:00:48.999Z</time></trkpt><trkpt lat="36.85707537802887" lon="15.05442821785372"><ele>81.0</ele><time>2026-03-26T15:00:49.999Z</time></trkpt><trkpt lat="36.85702277317109" lon="15.054291895303281"><ele>81.0</ele><time>2026-03-26T15:00:50.999Z</time></trkpt><trkpt lat="36.856954915420246" lon="15.054159721898568"><ele>81.0</ele><time>2026-03-26T15:00:51.999Z</time></trkpt><trkpt lat="36.8568781609957" lon="15.05405281276548"><ele>81.0</ele><time>2026-03-26T15:00:52.999Z</time></trkpt><trkpt lat="36.85679288786805" lon="15.053943193352245"><ele>81.0</ele><time>2026-03-26T15:00:53.999Z</time></trkpt><trkpt lat="36.85666878164108" lon="15.053881634793667"><ele>78.25</ele><time>2026-03-26T15:00:54.999Z</time></trkpt><trkpt lat="36.85654673001383" lon="15.053821083292645"><ele>75.5</ele><time>2026-03-26T15:00:55.999Z</time></trkpt><trkpt lat="36.856436681940174" lon="15.05374354930231"><ele>72.75</ele><time>2026-03-26T15:00:57Z</time></trkpt><trkpt lat="36.85630758650502" lon="15.053688800281556"><ele>70.0</ele><time>2026-03-26T15:00:58Z</time></trkpt><trkpt lat="36.85619393973358" lon="15.053601781450226"><ele>70.0</ele><time>2026-03-26T15:00:59Z</time></trkpt><trkpt lat="36.85608696580195" lon="15.05351186065869"><ele>70.0</ele><time>2026-03-26T15:01:00Z</time></trkpt><trkpt lat="36.85598077595673" lon="15.053422651365064"><ele>70.0</ele><time>2026-03-26T15:01:01Z</time></trkpt><trkpt lat="36.85587664644481" lon="15.05333394731617"><ele>70.0</ele><time>2026-03-26T15:01:02Z</time></trkpt><trkpt lat="36.855771973908965" lon="15.053249648389569"><ele>66.5</ele><time>2026-03-26T15:01:03Z</time></trkpt><trkpt lat="36.85566919812894" lon="15.053164328505853"><ele>63.0</ele><time>2026-03-26T15:01:04Z</time></trkpt><trkpt lat="36.85556420159464" lon="15.053076066364918"><ele>59.5</ele><time>2026-03-26T15:01:05Z</time></trkpt><trkpt lat="36.855460719015284" lon="15.052989460511553"><ele>56.0</ele><time>2026-03-26T15:01:06Z</time></trkpt><trkpt lat="36.85536385700157" lon="15.052918830877145"><ele>56.0</ele><time>2026-03-26T15:01:07Z</time></trkpt><trkpt lat="36.85527725722115" lon="15.052845567232534"><ele>55.99999999999999</ele><time>2026-03-26T15:01:08Z</time></trkpt><trkpt lat="36.85519752817938" lon="15.052764810638108"><ele>55.99999999999999</ele><time>2026-03-26T15:01:09Z</time></trkpt><trkpt lat="36.855116465709294" lon="15.052682057098783"><ele>56.0</ele><time>2026-03-26T15:01:10Z</time></trkpt><trkpt lat="36.8550497973426" lon="15.052602871307062"><ele>56.0</ele><time>2026-03-26T15:01:11Z</time></trkpt><trkpt lat="36.8549815227049" lon="15.052505810692498"><ele>54.833333333333336</ele><time>2026-03-26T15:01:12Z</time></trkpt><trkpt lat="36.85491614075991" lon="15.052421021382708"><ele>53.66666666666667</ele><time>2026-03-26T15:01:13Z</time></trkpt><trkpt lat="36.85485200339307" lon="15.052353558701343"><ele>52.5</ele><time>2026-03-26T15:01:14Z</time></trkpt><trkpt lat="36.854784897485764" lon="15.05230308928181"><ele>51.33333333333333</ele><time>2026-03-26T15:01:15Z</time></trkpt><trkpt lat="36.854721277953544" lon="15.052255948968748"><ele>50.166666666666664</ele><time>2026-03-26T15:01:16Z</time></trkpt><trkpt lat="36.8546674838259" lon="15.052203662879167"><ele>49.0</ele><time>2026-03-26T15:01:17Z</time></trkpt><trkpt lat="36.85460754987752" lon="15.052172875955339"><ele>49.0</ele><time>2026-03-26T15:01:18Z</time></trkpt><trkpt lat="36.85454267967479" lon="15.052140277722797"><ele>49.0</ele><time>2026-03-26T15:01:19Z</time></trkpt><trkpt lat="36.85448511707831" lon="15.0521006408082"><ele>49.0</ele><time>2026-03-26T15:01:20Z</time></trkpt><trkpt lat="36.85441944496491" lon="15.052060970864272"><ele>49.0</ele><time>2026-03-26T15:01:21Z</time></trkpt><trkpt lat="36.85435367949495" lon="15.052023681183195"><ele>49.0</ele><time>2026-03-26T15:01:22Z</time></trkpt><trkpt lat="36.85429166706419" lon="15.05196712499293"><ele>49.0</ele><time>2026-03-26T15:01:23Z</time></trkpt><trkpt lat="36.85421472541491" lon="15.05194632220571"><ele>49.0</ele><time>2026-03-26T15:01:24Z</time></trkpt><trkpt lat="36.854137466049615" lon="15.051902989223569"><ele>48.6</ele><time>2026-03-26T15:01:25Z</time></trkpt><trkpt lat="36.85405439779559" lon="15.05186370657553"><ele>48.2</ele><time>2026-03-26T15:01:26Z</time></trkpt><trkpt lat="36.8539758399236" lon="15.051806199596253"><ele>47.800000000000004</ele><time>2026-03-26T15:01:27Z</time></trkpt><trkpt lat="36.853889365072845" lon="15.051762260873899"><ele>47.400000000000006</ele><time>2026-03-26T15:01:28Z</time></trkpt><trkpt lat="36.853802978648815" lon="15.051715523290175"><ele>47.0</ele><time>2026-03-26T15:01:29Z</time></trkpt><trkpt lat="36.853724054510764" lon="15.051672263672039"><ele>47.0</ele><time>2026-03-26T15:01:30Z</time></trkpt><trkpt lat="36.853646450212445" lon="15.051652777003921"><ele>47.0</ele><time>2026-03-26T15:01:31Z</time></trkpt><trkpt lat="36.85358536391846" lon="15.051619217688824"><ele>47.0</ele><time>2026-03-26T15:01:32Z</time></trkpt><trkpt lat="36.853524423807116" lon="15.051585151798308"><ele>47.0</ele><time>2026-03-26T15:01:33Z</time></trkpt><trkpt lat="36.853425936170794" lon="15.051502368702856"><ele>47.0</ele><time>2026-03-26T15:01:35Z</time></trkpt><trkpt lat="36.853385509849566" lon="15.051411358262962"><ele>47.0</ele><time>2026-03-26T15:01:37Z</time></trkpt><trkpt lat="36.85326571486644" lon="15.051481929617843"><ele>45.83333333333333</ele><time>2026-03-26T15:01:43Z</time></trkpt><trkpt lat="36.85320839255122" lon="15.051525241737638"><ele>44.666666666666664</ele><time>2026-03-26T15:01:47Z</time></trkpt><trkpt lat="36.8531444630931" lon="15.051579591716374"><ele>43.5</ele><time>2026-03-26T15:01:50Z</time></trkpt><trkpt lat="36.85307763735089" lon="15.051525995609806"><ele>42.333333333333336</ele><time>2026-03-26T15:01:54Z</time></trkpt><trkpt lat="36.85300859270392" lon="15.051410085406369"><ele>41.16666666666667</ele><time>2026-03-26T15:01:56Z</time></trkpt><trkpt lat="36.85296580669194" lon="15.051344839015801"><ele>40.0</ele><time>2026-03-26T15:01:57Z</time></trkpt><trkpt lat="36.85292447339926" lon="15.051276629688747"><ele>40.0</ele><time>2026-03-26T15:01:58Z</time></trkpt><trkpt lat="36.85287995728637" lon="15.05121308708031"><ele>40.0</ele><time>2026-03-26T15:01:59Z</time></trkpt><trkpt lat="36.85283127084836" lon="15.051163057664066"><ele>40.0</ele><time>2026-03-26T15:02:00Z</time></trkpt><trkpt lat="36.85279867429527" lon="15.051090939752916"><ele>40.0</ele><time>2026-03-26T15:02:36Z</time></trkpt><trkpt lat="36.85272800456" lon="15.05098128040329"><ele>40.0</ele><time>2026-03-26T15:02:38Z</time></trkpt><trkpt lat="36.85267651984975" lon="15.050911024268268"><ele>40.0</ele><time>2026-03-26T15:02:39Z</time></trkpt><trkpt lat="36.85261888995252" lon="15.050838808786063"><ele>41.5</ele><time>2026-03-26T15:02:40Z</time></trkpt><trkpt lat="36.85255347203757" lon="15.050765102440366"><ele>43.0</ele><time>2026-03-26T15:02:41Z</time></trkpt><trkpt lat="36.852492156445" lon="15.050701519214662"><ele>44.5</ele><time>2026-03-26T15:02:42Z</time></trkpt><trkpt lat="36.85242876780843" lon="15.050640921882287"><ele>46.0</ele><time>2026-03-26T15:02:43Z</time></trkpt><trkpt lat="36.85235615636829" lon="15.05058510293523"><ele>47.49999999999999</ele><time>2026-03-26T15:02:44Z</time></trkpt><trkpt lat="36.85227897900591" lon="15.050525359894506"><ele>49.0</ele><time>2026-03-26T15:02:45Z</time></trkpt><trkpt lat="36.85219367364102" lon="15.050454555723928"><ele>49.0</ele><time>2026-03-26T15:02:46Z</time></trkpt><trkpt lat="36.852124768837534" lon="15.050369474810022"><ele>49.0</ele><time>2026-03-26T15:02:47Z</time></trkpt><trkpt lat="36.85205594934498" lon="15.050286665103206"><ele>49.0</ele><time>2026-03-26T15:02:48Z</time></trkpt><trkpt lat="36.851979827426" lon="15.050212228067078"><ele>49.0</ele><time>2026-03-26T15:02:49Z</time></trkpt><trkpt lat="36.851894612864385" lon="15.05013520979761"><ele>49.0</ele><time>2026-03-26T15:02:50Z</time></trkpt><trkpt lat="36.851817604923525" lon="15.050061137268054"><ele>50.6</ele><time>2026-03-26T15:02:51Z</time></trkpt><trkpt lat="36.85174952860485" lon="15.04998791331179"><ele>52.2</ele><time>2026-03-26T15:02:52Z</time></trkpt><trkpt lat="36.85167579495252" lon="15.049922288249634"><ele>53.800000000000004</ele><time>2026-03-26T15:02:53Z</time></trkpt><trkpt lat="36.85159613259912" lon="15.049863203707591"><ele>55.400000000000006</ele><time>2026-03-26T15:02:53.999Z</time></trkpt><trkpt lat="36.851511746553825" lon="15.049797667180393"><ele>57.0</ele><time>2026-03-26T15:02:54.999Z</time></trkpt><trkpt lat="36.85143807581661" lon="15.049741349880911"><ele>58.285714285714285</ele><time>2026-03-26T15:02:55.999Z</time></trkpt><trkpt lat="36.851380290741105" lon="15.049688839668413"><ele>59.57142857142857</ele><time>2026-03-26T15:02:56.999Z</time></trkpt><trkpt lat="36.85134578045698" lon="15.049613167807507"><ele>60.857142857142854</ele><time>2026-03-26T15:02:57.999Z</time></trkpt><trkpt lat="36.85132171867892" lon="15.049523994011006"><ele>62.14285714285714</ele><time>2026-03-26T15:02:58.999Z</time></trkpt><trkpt lat="36.85129951225769" lon="15.049440514561324"><ele>63.42857142857143</ele><time>2026-03-26T15:02:59.999Z</time></trkpt><trkpt lat="36.85129554192742" lon="15.049349276134599"><ele>64.71428571428571</ele><time>2026-03-26T15:03:00.999Z</time></trkpt><trkpt lat="36.85125108750262" lon="15.049257407822148"><ele>66.0</ele><time>2026-03-26T15:03:03Z</time></trkpt><trkpt lat="36.85121651571268" lon="15.049139555672486"><ele>67.16666666666667</ele><time>2026-03-26T15:03:05Z</time></trkpt><trkpt lat="36.85126704836605" lon="15.049024598859253"><ele>68.33333333333333</ele><time>2026-03-26T15:03:07Z</time></trkpt><trkpt lat="36.85131683008087" lon="15.04892505891471"><ele>69.5</ele><time>2026-03-26T15:03:09Z</time></trkpt><trkpt lat="36.85136807056294" lon="15.048836621058852"><ele>70.66666666666666</ele><time>2026-03-26T15:03:11Z</time></trkpt><trkpt lat="36.851398341559204" lon="15.048735909856697"><ele>71.83333333333333</ele><time>2026-03-26T15:03:13Z</time></trkpt><trkpt lat="36.851428617996795" lon="15.04864828816953"><ele>73.0</ele><time>2026-03-26T15:03:15Z</time></trkpt><trkpt lat="36.85145894791924" lon="15.04857774203589"><ele>73.0</ele><time>2026-03-26T15:03:16Z</time></trkpt><trkpt lat="36.85150497548799" lon="15.048465201281124"><ele>73.0</ele><time>2026-03-26T15:03:18Z</time></trkpt><trkpt lat="36.85156122277289" lon="15.048351760473082"><ele>73.0</ele><time>2026-03-26T15:03:20Z</time></trkpt><trkpt lat="36.851622975387066" lon="15.048257030322466"><ele>73.0</ele><time>2026-03-26T15:03:22Z</time></trkpt><trkpt lat="36.851661486562946" lon="15.048153117572065"><ele>73.0</ele><time>2026-03-26T15:03:24Z</time></trkpt><trkpt lat="36.8517191237643" lon="15.048063104046173"><ele>73.2</ele><time>2026-03-26T15:03:26Z</time></trkpt><trkpt lat="36.85175435317193" lon="15.047939916087746"><ele>73.4</ele><time>2026-03-26T15:03:28Z</time></trkpt><trkpt lat="36.851782154456615" lon="15.047819763841597"><ele>73.60000000000001</ele><time>2026-03-26T15:03:30Z</time></trkpt><trkpt lat="36.85181369927513" lon="15.047691380266478"><ele>73.8</ele><time>2026-03-26T15:03:32Z</time></trkpt><trkpt lat="36.85182863285606" lon="15.047602764372158"><ele>74.0</ele><time>2026-03-26T15:03:33Z</time></trkpt><trkpt lat="36.85184661756616" lon="15.04752039782396"><ele>75.16666666666667</ele><time>2026-03-26T15:03:34Z</time></trkpt><trkpt lat="36.85187450568179" lon="15.047396755834582"><ele>76.33333333333334</ele><time>2026-03-26T15:03:36Z</time></trkpt><trkpt lat="36.85190213352291" lon="15.047320648166329"><ele>77.5</ele><time>2026-03-26T15:03:37Z</time></trkpt><trkpt lat="36.85196353381202" lon="15.047177594228579"><ele>78.66666666666667</ele><time>2026-03-26T15:03:39Z</time></trkpt><trkpt lat="36.85200979429342" lon="15.047104541018907"><ele>79.83333333333333</ele><time>2026-03-26T15:03:40Z</time></trkpt><trkpt lat="36.85205629587346" lon="15.047040697789956"><ele>81.0</ele><time>2026-03-26T15:03:41Z</time></trkpt><trkpt lat="36.852120852867294" lon="15.046913832155562"><ele>81.0</ele><time>2026-03-26T15:03:43Z</time></trkpt><trkpt lat="36.852170660343894" lon="15.04685175773908"><ele>81.0</ele><time>2026-03-26T15:03:44Z</time></trkpt><trkpt lat="36.85223861120686" lon="15.046717625309542"><ele>81.0</ele><time>2026-03-26T15:03:46Z</time></trkpt><trkpt lat="36.852278062968345" lon="15.046633419795302"><ele>81.0</ele><time>2026-03-26T15:03:47Z</time></trkpt><trkpt lat="36.852318836140235" lon="15.046560065070043"><ele>81.0</ele><time>2026-03-26T15:03:48Z</time></trkpt><trkpt lat="36.852358746511115" lon="15.046492042003912"><ele>81.0</ele><time>2026-03-26T15:03:49Z</time></trkpt><trkpt lat="36.85240109969827" lon="15.04641978633701"><ele>82.14285714285714</ele><time>2026-03-26T15:03:50Z</time></trkpt><trkpt lat="36.85243975443151" lon="15.046348265338011"><ele>83.28571428571428</ele><time>2026-03-26T15:03:51Z</time></trkpt><trkpt lat="36.85247649694202" lon="15.046281229198984"><ele>84.42857142857142</ele><time>2026-03-26T15:03:52Z</time></trkpt><trkpt lat="36.85251080822487" lon="15.04621346257388"><ele>85.57142857142857</ele><time>2026-03-26T15:03:53Z</time></trkpt><trkpt lat="36.85254339299514" lon="15.046074956524022"><ele>86.71428571428571</ele><time>2026-03-26T15:03:55Z</time></trkpt><trkpt lat="36.852556167099635" lon="15.04599384003973"><ele>87.85714285714285</ele><time>2026-03-26T15:03:56Z</time></trkpt><trkpt lat="36.85256843808226" lon="15.045914658000388"><ele>89.0</ele><time>2026-03-26T15:03:57Z</time></trkpt><trkpt lat="36.85257230785346" lon="15.04583217349852"><ele>89.83333333333334</ele><time>2026-03-26T15:03:58Z</time></trkpt><trkpt lat="36.852561758077314" lon="15.045750738583196"><ele>90.66666666666667</ele><time>2026-03-26T15:03:59Z</time></trkpt><trkpt lat="36.85258191815726" lon="15.045621298798043"><ele>91.5</ele><time>2026-03-26T15:04:01Z</time></trkpt><trkpt lat="36.8526153236869" lon="15.045549040054519"><ele>92.33333333333333</ele><time>2026-03-26T15:04:03Z</time></trkpt><trkpt lat="36.85263587560856" lon="15.045438856991606"><ele>93.16666666666666</ele><time>2026-03-26T15:04:05Z</time></trkpt><trkpt lat="36.85267578195725" lon="15.045304879061653"><ele>94.0</ele><time>2026-03-26T15:04:07Z</time></trkpt><trkpt lat="36.85272249818413" lon="15.04518429955002"><ele>94.0</ele><time>2026-03-26T15:04:09Z</time></trkpt><trkpt lat="36.852751072855206" lon="15.045101458176857"><ele>94.0</ele><time>2026-03-26T15:04:10Z</time></trkpt><trkpt lat="36.85279771438763" lon="15.04501436434731"><ele>94.0</ele><time>2026-03-26T15:04:11Z</time></trkpt><trkpt lat="36.85283923759769" lon="15.044911903143278"><ele>94.0</ele><time>2026-03-26T15:04:12Z</time></trkpt><trkpt lat="36.85287397451523" lon="15.044843118974665"><ele>94.0</ele><time>2026-03-26T15:04:13Z</time></trkpt><trkpt lat="36.85291673231057" lon="15.04476933977828"><ele>94.0</ele><time>2026-03-26T15:04:14Z</time></trkpt><trkpt lat="36.852967516329656" lon="15.04468952996118"><ele>94.0</ele><time>2026-03-26T15:04:15Z</time></trkpt><trkpt lat="36.8530232445822" lon="15.044612548429463"><ele>94.0</ele><time>2026-03-26T15:04:16Z</time></trkpt><trkpt lat="36.85307738388854" lon="15.044545396847772"><ele>94.0</ele><time>2026-03-26T15:04:17Z</time></trkpt><trkpt lat="36.853129222710926" lon="15.04448291706419"><ele>94.0</ele><time>2026-03-26T15:04:18Z</time></trkpt><trkpt lat="36.85322983688852" lon="15.044375427473165"><ele>94.0</ele><time>2026-03-26T15:04:20Z</time></trkpt><trkpt lat="36.853281510451296" lon="15.044327744469417"><ele>94.0</ele><time>2026-03-26T15:04:21Z</time></trkpt><trkpt lat="36.853379481921706" lon="15.044240922630273"><ele>94.0</ele><time>2026-03-26T15:04:23Z</time></trkpt><trkpt lat="36.85342658881222" lon="15.044169561296707"><ele>94.0</ele><time>2026-03-26T15:04:24Z</time></trkpt><trkpt lat="36.85347767661606" lon="15.044098022926661"><ele>94.0</ele><time>2026-03-26T15:04:25Z</time></trkpt><trkpt lat="36.85352912978042" lon="15.044020589351069"><ele>94.0</ele><time>2026-03-26T15:04:26Z</time></trkpt><trkpt lat="36.85357421636554" lon="15.043947146567119"><ele>94.0</ele><time>2026-03-26T15:04:27Z</time></trkpt><trkpt lat="36.85360071166177" lon="15.04387260180329"><ele>94.0</ele><time>2026-03-26T15:04:28Z</time></trkpt><trkpt lat="36.8536162691059" lon="15.043786125258006"><ele>94.0</ele><time>2026-03-26T15:04:29Z</time></trkpt><trkpt lat="36.85362605613916" lon="15.043697655787899"><ele>94.66666666666666</ele><time>2026-03-26T15:04:30Z</time></trkpt><trkpt lat="36.8536336702562" lon="15.04360192504024"><ele>95.33333333333333</ele><time>2026-03-26T15:04:31Z</time></trkpt><trkpt lat="36.85364524300157" lon="15.043497057219012"><ele>96.0</ele><time>2026-03-26T15:04:32Z</time></trkpt><trkpt lat="36.853659314867194" lon="15.043387795145964"><ele>96.66666666666666</ele><time>2026-03-26T15:04:33Z</time></trkpt><trkpt lat="36.85365819449703" lon="15.043280245880304"><ele>97.33333333333333</ele><time>2026-03-26T15:04:34Z</time></trkpt><trkpt lat="36.853662089209344" lon="15.043184914570869"><ele>98.0</ele><time>2026-03-26T15:04:35Z</time></trkpt><trkpt lat="36.853677519436076" lon="15.043047492272027"><ele>98.80000000000001</ele><time>2026-03-26T15:04:37Z</time></trkpt><trkpt lat="36.85373161265141" lon="15.042874737221071"><ele>99.6</ele><time>2026-03-26T15:04:39Z</time></trkpt><trkpt lat="36.85378599235164" lon="15.042769354636429"><ele>100.4</ele><time>2026-03-26T15:04:40Z</time></trkpt><trkpt lat="36.85384035945803" lon="15.04267299583781"><ele>101.19999999999999</ele><time>2026-03-26T15:04:41Z</time></trkpt><trkpt lat="36.8538921248231" lon="15.042570495862488"><ele>102.0</ele><time>2026-03-26T15:04:42Z</time></trkpt><trkpt lat="36.85393293839766" lon="15.042472373264083"><ele>102.5</ele><time>2026-03-26T15:04:43Z</time></trkpt><trkpt lat="36.853976572517" lon="15.042387761026154"><ele>103.0</ele><time>2026-03-26T15:04:44Z</time></trkpt><trkpt lat="36.854028125321676" lon="15.04230028397332"><ele>103.5</ele><time>2026-03-26T15:04:45Z</time></trkpt><trkpt lat="36.85407102790152" lon="15.042210909823009"><ele>104.0</ele><time>2026-03-26T15:04:46Z</time></trkpt><trkpt lat="36.854110367288555" lon="15.04211603882899"><ele>104.5</ele><time>2026-03-26T15:04:47Z</time></trkpt><trkpt lat="36.854155400276525" lon="15.0420290547359"><ele>105.0</ele><time>2026-03-26T15:04:48Z</time></trkpt><trkpt lat="36.85421947294624" lon="15.04188673654915"><ele>105.0</ele><time>2026-03-26T15:04:50Z</time></trkpt><trkpt lat="36.85428718110401" lon="15.041739964526112"><ele>105.0</ele><time>2026-03-26T15:04:52Z</time></trkpt><trkpt lat="36.85434647617863" lon="15.041669548593065"><ele>105.0</ele><time>2026-03-26T15:04:53Z</time></trkpt><trkpt lat="36.85441638436049" lon="15.041599891520818"><ele>105.0</ele><time>2026-03-26T15:04:54Z</time></trkpt><trkpt lat="36.854479510653285" lon="15.041513834705585"><ele>105.0</ele><time>2026-03-26T15:04:55Z</time></trkpt><trkpt lat="36.85453719580802" lon="15.04142655515438"><ele>105.14285714285714</ele><time>2026-03-26T15:04:56Z</time></trkpt><trkpt lat="36.8545860440474" lon="15.041347164578045"><ele>105.28571428571428</ele><time>2026-03-26T15:04:57Z</time></trkpt><trkpt lat="36.85463375267991" lon="15.041278936530594"><ele>105.42857142857143</ele><time>2026-03-26T15:04:57.999Z</time></trkpt><trkpt lat="36.85467362041277" lon="15.041215144876274"><ele>105.57142857142857</ele><time>2026-03-26T15:04:58.999Z</time></trkpt><trkpt lat="36.854727045247095" lon="15.04114758847998"><ele>105.71428571428571</ele><time>2026-03-26T15:04:59.999Z</time></trkpt><trkpt lat="36.854785914407266" lon="15.041081932476386"><ele>105.85714285714286</ele><time>2026-03-26T15:05:00.999Z</time></trkpt><trkpt lat="36.854836283656475" lon="15.04101079860497"><ele>106.0</ele><time>2026-03-26T15:05:01.999Z</time></trkpt><trkpt lat="36.85488982231714" lon="15.04094376892208"><ele>106.00000000000001</ele><time>2026-03-26T15:05:02.999Z</time></trkpt><trkpt lat="36.85493549146135" lon="15.040858027108614"><ele>106.0</ele><time>2026-03-26T15:05:03.999Z</time></trkpt><trkpt lat="36.854986657346224" lon="15.040764863067471"><ele>106.0</ele><time>2026-03-26T15:05:04.999Z</time></trkpt><trkpt lat="36.85503759024227" lon="15.040671571946369"><ele>106.0</ele><time>2026-03-26T15:05:05.999Z</time></trkpt><trkpt lat="36.85508019498114" lon="15.040595212004037"><ele>106.00000000000001</ele><time>2026-03-26T15:05:06.999Z</time></trkpt><trkpt lat="36.85510267316551" lon="15.04051753466797"><ele>106.0</ele><time>2026-03-26T15:05:07.999Z</time></trkpt><trkpt lat="36.8551399883941" lon="15.040448325378012"><ele>105.00000000000001</ele><time>2026-03-26T15:05:09Z</time></trkpt><trkpt lat="36.855181766454734" lon="15.040373952005321"><ele>104.0</ele><time>2026-03-26T15:05:10Z</time></trkpt><trkpt lat="36.85522343782918" lon="15.040302454394562"><ele>103.0</ele><time>2026-03-26T15:05:11Z</time></trkpt><trkpt lat="36.85526843478623" lon="15.040224875460718"><ele>102.0</ele><time>2026-03-26T15:05:12Z</time></trkpt><trkpt lat="36.8553262487085" lon="15.040156396284816"><ele>101.00000000000001</ele><time>2026-03-26T15:05:13Z</time></trkpt><trkpt lat="36.85537003981447" lon="15.040066515169231"><ele>100.0</ele><time>2026-03-26T15:05:14Z</time></trkpt><trkpt lat="36.85540029815785" lon="15.039982297058963"><ele>99.6</ele><time>2026-03-26T15:05:15Z</time></trkpt><trkpt lat="36.85546860170502" lon="15.039860376175568"><ele>99.2</ele><time>2026-03-26T15:05:17Z</time></trkpt><trkpt lat="36.855525154648966" lon="15.039734949996651"><ele>98.80000000000001</ele><time>2026-03-26T15:05:19Z</time></trkpt><trkpt lat="36.85557053695491" lon="15.039637318447861"><ele>98.4</ele><time>2026-03-26T15:05:22Z</time></trkpt><trkpt lat="36.855599849417786" lon="15.039537307695573"><ele>98.0</ele><time>2026-03-26T15:05:25Z</time></trkpt><trkpt lat="36.85565077828803" lon="15.039469747974527"><ele>98.0</ele><time>2026-03-26T15:05:39Z</time></trkpt><trkpt lat="36.855518674570476" lon="15.039310004796143"><ele>98.0</ele><time>2026-03-26T15:05:45Z</time></trkpt><trkpt lat="36.855500396586756" lon="15.039228314922848"><ele>98.0</ele><time>2026-03-26T15:05:49Z</time></trkpt><trkpt lat="36.855466318255225" lon="15.039146639683654"><ele>98.0</ele><time>2026-03-26T15:05:52Z</time></trkpt><trkpt lat="36.855436516438196" lon="15.039072799377346"><ele>98.0</ele><time>2026-03-26T15:05:55Z</time></trkpt><trkpt lat="36.85539570191984" lon="15.03900118453067"><ele>97.0</ele><time>2026-03-26T15:05:58Z</time></trkpt><trkpt lat="36.8553849670262" lon="15.03890685578034"><ele>96.0</ele><time>2026-03-26T15:06:01Z</time></trkpt><trkpt lat="36.85536268685227" lon="15.038788642888836"><ele>95.0</ele><time>2026-03-26T15:08:28Z</time></trkpt><trkpt lat="36.85536751011661" lon="15.038707501193628"><ele>94.0</ele><time>2026-03-26T15:08:30Z</time></trkpt><trkpt lat="36.85538652530152" lon="15.038623605874186"><ele>93.0</ele><time>2026-03-26T15:08:33Z</time></trkpt><trkpt lat="36.855414843183475" lon="15.038548041251742"><ele>92.0</ele><time>2026-03-26T15:08:35Z</time></trkpt><trkpt lat="36.85543982140791" lon="15.038465572060623"><ele>91.0</ele><time>2026-03-26T15:08:37Z</time></trkpt><trkpt lat="36.85545859467763" lon="15.03835450430685"><ele>90.66666666666666</ele><time>2026-03-26T15:08:39Z</time></trkpt><trkpt lat="36.855474956217215" lon="15.03827614724165"><ele>90.33333333333333</ele><time>2026-03-26T15:08:41Z</time></trkpt><trkpt lat="36.85548863826442" lon="15.038154542775658"><ele>90.0</ele><time>2026-03-26T15:08:44Z</time></trkpt><trkpt lat="36.85550368590939" lon="15.038049735771342"><ele>89.66666666666667</ele><time>2026-03-26T15:08:47Z</time></trkpt><trkpt lat="36.85549904257833" lon="15.03795262369242"><ele>89.33333333333334</ele><time>2026-03-26T15:08:50Z</time></trkpt><trkpt lat="36.85548890435977" lon="15.037852575381757"><ele>89.0</ele><time>2026-03-26T15:08:53Z</time></trkpt><trkpt lat="36.85546230716152" lon="15.037745318618578"><ele>89.0</ele><time>2026-03-26T15:08:56Z</time></trkpt><trkpt lat="36.8554333280378" lon="15.037656123436822"><ele>89.0</ele><time>2026-03-26T15:08:58.999Z</time></trkpt><trkpt lat="36.85538289947141" lon="15.037565074219732"><ele>89.0</ele><time>2026-03-26T15:09:01.999Z</time></trkpt><trkpt lat="36.855340783187124" lon="15.037498312879094"><ele>89.0</ele><time>2026-03-26T15:09:03.999Z</time></trkpt><trkpt lat="36.855290785099946" lon="15.037403291643386"><ele>89.0</ele><time>2026-03-26T15:09:06.999Z</time></trkpt><trkpt lat="36.855259596555754" lon="15.037305666354705"><ele>89.0</ele><time>2026-03-26T15:09:08.999Z</time></trkpt><trkpt lat="36.85524076008645" lon="15.037213953318863"><ele>89.83333333333334</ele><time>2026-03-26T15:09:10.999Z</time></trkpt><trkpt lat="36.85525014971675" lon="15.037121877608591"><ele>90.66666666666667</ele><time>2026-03-26T15:09:12.999Z</time></trkpt><trkpt lat="36.85527449043447" lon="15.037024946335793"><ele>91.5</ele><time>2026-03-26T15:09:14.999Z</time></trkpt><trkpt lat="36.85530376194575" lon="15.036941823198074"><ele>92.33333333333333</ele><time>2026-03-26T15:09:16.999Z</time></trkpt><trkpt lat="36.855318364886536" lon="15.036845676405857"><ele>93.16666666666666</ele><time>2026-03-26T15:09:18.999Z</time></trkpt><trkpt lat="36.85534407101737" lon="15.03675636428073"><ele>94.0</ele><time>2026-03-26T15:09:21Z</time></trkpt><trkpt lat="36.855345080402856" lon="15.03666498221096"><ele>94.0</ele><time>2026-03-26T15:09:23Z</time></trkpt><trkpt lat="36.85536864056995" lon="15.036570919877372"><ele>94.0</ele><time>2026-03-26T15:09:26Z</time></trkpt><trkpt lat="36.85539695920041" lon="15.036490007376257"><ele>94.0</ele><time>2026-03-26T15:09:29Z</time></trkpt><trkpt lat="36.855447636448915" lon="15.036416060089124"><ele>94.0</ele><time>2026-03-26T15:09:32Z</time></trkpt><trkpt lat="36.855410822407656" lon="15.036487145370359"><ele>94.0</ele><time>2026-03-26T15:10:48Z</time></trkpt><trkpt lat="36.85537248084545" lon="15.036562025607177"><ele>94.0</ele><time>2026-03-26T15:10:54Z</time></trkpt><trkpt lat="36.85535613664638" lon="15.036646803800062"><ele>94.0</ele><time>2026-03-26T15:10:59.999Z</time></trkpt><trkpt lat="36.85534353780947" lon="15.036743447662838"><ele>94.0</ele><time>2026-03-26T15:11:02.999Z</time></trkpt><trkpt lat="36.855322026965496" lon="15.036843215535924"><ele>94.0</ele><time>2026-03-26T15:11:05.999Z</time></trkpt><trkpt lat="36.855303969976625" lon="15.03695587061574"><ele>94.0</ele><time>2026-03-26T15:11:08.999Z</time></trkpt><trkpt lat="36.855276511327745" lon="15.037034363435895"><ele>94.0</ele><time>2026-03-26T15:11:10.999Z</time></trkpt><trkpt lat="36.855257416960136" lon="15.03712098452538"><ele>94.0</ele><time>2026-03-26T15:11:12.999Z</time></trkpt><trkpt lat="36.85525032511857" lon="15.037245235815497"><ele>94.0</ele><time>2026-03-26T15:11:14.999Z</time></trkpt><trkpt lat="36.85527653914717" lon="15.037345994874254"><ele>94.0</ele><time>2026-03-26T15:11:16.999Z</time></trkpt><trkpt lat="36.85531526211014" lon="15.037451764681293"><ele>94.0</ele><time>2026-03-26T15:11:18.999Z</time></trkpt><trkpt lat="36.855378042553845" lon="15.03755188323199"><ele>94.0</ele><time>2026-03-26T15:11:20.999Z</time></trkpt><trkpt lat="36.855427292523565" lon="15.037635408174369"><ele>94.0</ele><time>2026-03-26T15:11:22.999Z</time></trkpt><trkpt lat="36.85546923276639" lon="15.037741955607736"><ele>94.0</ele><time>2026-03-26T15:11:24.999Z</time></trkpt><trkpt lat="36.8554895104598" lon="15.037864391920811"><ele>93.5</ele><time>2026-03-26T15:11:27Z</time></trkpt><trkpt lat="36.85550243187054" lon="15.037971209452962"><ele>93.0</ele><time>2026-03-26T15:11:29Z</time></trkpt><trkpt lat="36.85549736075095" lon="15.038052351244989"><ele>92.5</ele><time>2026-03-26T15:11:30Z</time></trkpt><trkpt lat="36.85548255136914" lon="15.038191215071867"><ele>92.0</ele><time>2026-03-26T15:11:32Z</time></trkpt><trkpt lat="36.855468278284086" lon="15.038294158041701"><ele>91.5</ele><time>2026-03-26T15:11:34Z</time></trkpt><trkpt lat="36.85544922370083" lon="15.038376864492875"><ele>91.0</ele><time>2026-03-26T15:11:36Z</time></trkpt><trkpt lat="36.85543337154125" lon="15.03846478335896"><ele>91.0</ele><time>2026-03-26T15:11:38Z</time></trkpt><trkpt lat="36.85540542963346" lon="15.038565601549067"><ele>91.0</ele><time>2026-03-26T15:11:41Z</time></trkpt><trkpt lat="36.85537400019443" lon="15.038645377543006"><ele>91.0</ele><time>2026-03-26T15:11:43Z</time></trkpt><trkpt lat="36.85535984344027" lon="15.038744736194568"><ele>91.0</ele><time>2026-03-26T15:11:45Z</time></trkpt><trkpt lat="36.85536681432498" lon="15.038854491458988"><ele>91.0</ele><time>2026-03-26T15:11:47Z</time></trkpt><trkpt lat="36.8553951565242" lon="15.038965861646675"><ele>91.0</ele><time>2026-03-26T15:11:49Z</time></trkpt><trkpt lat="36.85543225337209" lon="15.03909486233663"><ele>92.16666666666666</ele><time>2026-03-26T15:11:51Z</time></trkpt><trkpt lat="36.85547807258299" lon="15.039189238498905"><ele>93.33333333333333</ele><time>2026-03-26T15:11:54Z</time></trkpt><trkpt lat="36.855508460581426" lon="15.039276731475612"><ele>94.5</ele><time>2026-03-26T15:11:57Z</time></trkpt><trkpt lat="36.85555136680264" lon="15.03935061228923"><ele>95.66666666666666</ele><time>2026-03-26T15:11:59Z</time></trkpt><trkpt lat="36.85560207935739" lon="15.039442927629405"><ele>96.83333333333333</ele><time>2026-03-26T15:12:01Z</time></trkpt><trkpt lat="36.85561139293615" lon="15.039523212087502"><ele>98.0</ele><time>2026-03-26T15:12:03Z</time></trkpt><trkpt lat="36.855559653469214" lon="15.03959985355042"><ele>98.0</ele><time>2026-03-26T15:12:06Z</time></trkpt><trkpt lat="36.855478356865" lon="15.03973766175493"><ele>98.0</ele><time>2026-03-26T15:12:07Z</time></trkpt><trkpt lat="36.855426097838446" lon="15.03987703494128"><ele>98.0</ele><time>2026-03-26T15:12:09Z</time></trkpt><trkpt lat="36.85537609004258" lon="15.039959365808166"><ele>98.0</ele><time>2026-03-26T15:12:10Z</time></trkpt><trkpt lat="36.855340245241734" lon="15.040024136226354"><ele>98.0</ele><time>2026-03-26T15:12:11Z</time></trkpt><trkpt lat="36.85529851811133" lon="15.040099535846576"><ele>97.99999999999999</ele><time>2026-03-26T15:12:13Z</time></trkpt><trkpt lat="36.855258613328225" lon="15.040170879919566"><ele>98.0</ele><time>2026-03-26T15:12:16Z</time></trkpt><trkpt lat="36.85529624253498" lon="15.040103646867351"><ele>98.0</ele><time>2026-03-26T15:12:55Z</time></trkpt><trkpt lat="36.85535060206439" lon="15.04000541927744"><ele>98.0</ele><time>2026-03-26T15:12:58Z</time></trkpt><trkpt lat="36.85540449940935" lon="15.039940285540258"><ele>97.99999999999999</ele><time>2026-03-26T15:13:01Z</time></trkpt><trkpt lat="36.85544419084667" lon="15.039852322947747"><ele>98.0</ele><time>2026-03-26T15:13:04Z</time></trkpt><trkpt lat="36.85547856042354" lon="15.039758675956374"><ele>97.99999999999999</ele><time>2026-03-26T15:13:07Z</time></trkpt><trkpt lat="36.85552729821762" lon="15.03966071450862"><ele>98.0</ele><time>2026-03-26T15:13:10Z</time></trkpt><trkpt lat="36.855580748477735" lon="15.039585803799117"><ele>98.0</ele><time>2026-03-26T15:13:13Z</time></trkpt><trkpt lat="36.85561849186535" lon="15.039500542337784"><ele>98.0</ele><time>2026-03-26T15:13:16Z</time></trkpt><trkpt lat="36.85561964206642" lon="15.039406112525885"><ele>97.99999999999999</ele><time>2026-03-26T15:13:20Z</time></trkpt><trkpt lat="36.8555614509399" lon="15.039367729665928"><ele>98.0</ele><time>2026-03-26T15:13:29Z</time></trkpt><trkpt lat="36.85559649864701" lon="15.039444554803618"><ele>98.0</ele><time>2026-03-26T15:13:58Z</time></trkpt><trkpt lat="36.85561061937516" lon="15.039530296637816"><ele>98.0</ele><time>2026-03-26T15:14:03Z</time></trkpt><trkpt lat="36.855558793510546" lon="15.039589412254928"><ele>98.0</ele><time>2026-03-26T15:14:08Z</time></trkpt><trkpt lat="36.85551901792563" lon="15.039670341081585"><ele>98.0</ele><time>2026-03-26T15:14:13Z</time></trkpt><trkpt lat="36.85547725576337" lon="15.039737342934702"><ele>98.0</ele><time>2026-03-26T15:14:18Z</time></trkpt><trkpt lat="36.85545274903087" lon="15.03982171819454"><ele>98.0</ele><time>2026-03-26T15:14:23Z</time></trkpt><trkpt lat="36.85543887915226" lon="15.039906899766633"><ele>98.0</ele><time>2026-03-26T15:14:28Z</time></trkpt><trkpt lat="36.85540552220514" lon="15.039991021508172"><ele>98.33333333333333</ele><time>2026-03-26T15:14:33Z</time></trkpt><trkpt lat="36.85538490979364" lon="15.04006544918673"><ele>98.66666666666666</ele><time>2026-03-26T15:14:37Z</time></trkpt><trkpt lat="36.85534962249206" lon="15.040140616352856"><ele>99.0</ele><time>2026-03-26T15:14:42Z</time></trkpt><trkpt lat="36.85530504430025" lon="15.04021836008337"><ele>99.33333333333334</ele><time>2026-03-26T15:14:47Z</time></trkpt><trkpt lat="36.85524891199822" lon="15.04032823351127"><ele>99.66666666666667</ele><time>2026-03-26T15:15:34Z</time></trkpt><trkpt lat="36.85521046305445" lon="15.04039644111156"><ele>100.0</ele><time>2026-03-26T15:15:35Z</time></trkpt><trkpt lat="36.85516464080314" lon="15.040468496402164"><ele>100.16666666666667</ele><time>2026-03-26T15:15:36Z</time></trkpt><trkpt lat="36.855116961702116" lon="15.040545043156188"><ele>100.33333333333334</ele><time>2026-03-26T15:15:37Z</time></trkpt><trkpt lat="36.855072452933456" lon="15.040621340772605"><ele>100.5</ele><time>2026-03-26T15:15:38Z</time></trkpt><trkpt lat="36.8550348934511" lon="15.040687012280488"><ele>100.66666666666666</ele><time>2026-03-26T15:15:39Z</time></trkpt><trkpt lat="36.854994429421104" lon="15.040751714952401"><ele>100.83333333333333</ele><time>2026-03-26T15:15:41Z</time></trkpt><trkpt lat="36.854893816880185" lon="15.04070495940148"><ele>101.0</ele><time>2026-03-26T15:16:07Z</time></trkpt><trkpt lat="36.85482247777565" lon="15.040647903431724"><ele>101.0</ele><time>2026-03-26T15:16:08Z</time></trkpt><trkpt lat="36.85476506406616" lon="15.04060142936565"><ele>101.0</ele><time>2026-03-26T15:16:09Z</time></trkpt><trkpt lat="36.854673358499355" lon="15.040532082347479"><ele>101.0</ele><time>2026-03-26T15:16:11Z</time></trkpt><trkpt lat="36.85457576391996" lon="15.040468287534216"><ele>101.0</ele><time>2026-03-26T15:16:13Z</time></trkpt><trkpt lat="36.85449221441642" lon="15.04041588697731"><ele>101.0</ele><time>2026-03-26T15:16:15Z</time></trkpt><trkpt lat="36.854418883965586" lon="15.040355469879444"><ele>100.99999999999999</ele><time>2026-03-26T15:16:17Z</time></trkpt><trkpt lat="36.85434820793391" lon="15.040314286631945"><ele>101.0</ele><time>2026-03-26T15:16:19Z</time></trkpt><trkpt lat="36.854287569991044" lon="15.040276785642755"><ele>101.0</ele><time>2026-03-26T15:16:21Z</time></trkpt><trkpt lat="36.85420479982418" lon="15.040269155901683"><ele>101.0</ele><time>2026-03-26T15:16:23Z</time></trkpt><trkpt lat="36.85410760728672" lon="15.040294875257526"><ele>100.99999999999999</ele><time>2026-03-26T15:16:25Z</time></trkpt><trkpt lat="36.85402733276905" lon="15.04032371424873"><ele>101.0</ele><time>2026-03-26T15:16:27Z</time></trkpt><trkpt lat="36.85393372260451" lon="15.040365634671963"><ele>97.8</ele><time>2026-03-26T15:16:29Z</time></trkpt><trkpt lat="36.85384093196289" lon="15.040412479297485"><ele>94.6</ele><time>2026-03-26T15:16:31Z</time></trkpt><trkpt lat="36.853738256643126" lon="15.0404613608761"><ele>91.4</ele><time>2026-03-26T15:16:33Z</time></trkpt><trkpt lat="36.85364137076593" lon="15.040544561304255"><ele>88.2</ele><time>2026-03-26T15:16:35Z</time></trkpt><trkpt lat="36.853558792827954" lon="15.040649355584275"><ele>85.0</ele><time>2026-03-26T15:16:37Z</time></trkpt><trkpt lat="36.853482105852535" lon="15.040715160869329"><ele>84.83333333333333</ele><time>2026-03-26T15:16:39Z</time></trkpt><trkpt lat="36.85342911195834" lon="15.040778638108874"><ele>84.66666666666666</ele><time>2026-03-26T15:16:41Z</time></trkpt><trkpt lat="36.853376205062034" lon="15.040899704504502"><ele>84.5</ele><time>2026-03-26T15:16:43Z</time></trkpt><trkpt lat="36.85333651203078" lon="15.040989139908731"><ele>84.33333333333333</ele><time>2026-03-26T15:16:45Z</time></trkpt><trkpt lat="36.853291820222815" lon="15.04104937379473"><ele>84.16666666666667</ele><time>2026-03-26T15:16:49Z</time></trkpt><trkpt lat="36.85320560573481" lon="15.041042148595277"><ele>84.0</ele><time>2026-03-26T15:16:52Z</time></trkpt><trkpt lat="36.85313501275714" lon="15.04111973208488"><ele>84.0</ele><time>2026-03-26T15:16:55Z</time></trkpt><trkpt lat="36.853049922146155" lon="15.041200286618656"><ele>84.0</ele><time>2026-03-26T15:16:57Z</time></trkpt><trkpt lat="36.85297344598227" lon="15.041329285221641"><ele>84.0</ele><time>2026-03-26T15:16:59Z</time></trkpt><trkpt lat="36.85292600736252" lon="15.041400456323741"><ele>84.0</ele><time>2026-03-26T15:17:00Z</time></trkpt><trkpt lat="36.85287450103505" lon="15.041473674799159"><ele>84.0</ele><time>2026-03-26T15:17:01Z</time></trkpt><trkpt lat="36.85282464465619" lon="15.041544969182675"><ele>84.0</ele><time>2026-03-26T15:17:02Z</time></trkpt><trkpt lat="36.852776115685494" lon="15.041613603455364"><ele>84.0</ele><time>2026-03-26T15:17:03Z</time></trkpt><trkpt lat="36.8527317060116" lon="15.041676410876015"><ele>84.0</ele><time>2026-03-26T15:17:04Z</time></trkpt><trkpt lat="36.85265917975766" lon="15.041771555753607"><ele>84.0</ele><time>2026-03-26T15:17:06Z</time></trkpt><trkpt lat="36.85259024307764" lon="15.04183950238271"><ele>84.0</ele><time>2026-03-26T15:17:08Z</time></trkpt><trkpt lat="36.85248667134133" lon="15.041832828934151"><ele>84.0</ele><time>2026-03-26T15:17:10Z</time></trkpt><trkpt lat="36.85238466215454" lon="15.041759000342825"><ele>80.0</ele><time>2026-03-26T15:17:12Z</time></trkpt><trkpt lat="36.85228579571849" lon="15.041678860252278"><ele>76.0</ele><time>2026-03-26T15:17:14Z</time></trkpt><trkpt lat="36.8521988104713" lon="15.041619012453893"><ele>72.0</ele><time>2026-03-26T15:17:16Z</time></trkpt><trkpt lat="36.852114162614455" lon="15.041546602473206"><ele>68.0</ele><time>2026-03-26T15:17:18Z</time></trkpt><trkpt lat="36.851993836875096" lon="15.041466718457716"><ele>67.4</ele><time>2026-03-26T15:17:20Z</time></trkpt><trkpt lat="36.85188571365823" lon="15.041388749078283"><ele>66.8</ele><time>2026-03-26T15:17:22Z</time></trkpt><trkpt lat="36.85178731927438" lon="15.041285074669556"><ele>66.2</ele><time>2026-03-26T15:17:24Z</time></trkpt><trkpt lat="36.851730007771614" lon="15.041217607052463"><ele>65.6</ele><time>2026-03-26T15:17:25Z</time></trkpt><trkpt lat="36.85167804197371" lon="15.041156432928204"><ele>65.0</ele><time>2026-03-26T15:17:26Z</time></trkpt><trkpt lat="36.85162914813697" lon="15.041098874832473"><ele>63.00000000000001</ele><time>2026-03-26T15:17:27Z</time></trkpt><trkpt lat="36.851578610386994" lon="15.041039381160019"><ele>61.0</ele><time>2026-03-26T15:17:28Z</time></trkpt><trkpt lat="36.85151963059295" lon="15.040994687443627"><ele>59.0</ele><time>2026-03-26T15:17:29Z</time></trkpt><trkpt lat="36.85146891365919" lon="15.040928212577441"><ele>57.0</ele><time>2026-03-26T15:17:30Z</time></trkpt><trkpt lat="36.85142114461529" lon="15.040861554646776"><ele>55.0</ele><time>2026-03-26T15:17:31Z</time></trkpt><trkpt lat="36.85138755605772" lon="15.04078565580998"><ele>53.0</ele><time>2026-03-26T15:17:32Z</time></trkpt><trkpt lat="36.85135827324759" lon="15.040715874729843"><ele>51.0</ele><time>2026-03-26T15:17:33Z</time></trkpt><trkpt lat="36.85130575206732" lon="15.040612215781646"><ele>50.0</ele><time>2026-03-26T15:17:35Z</time></trkpt><trkpt lat="36.85124958223269" lon="15.040479193674162"><ele>49.0</ele><time>2026-03-26T15:17:37Z</time></trkpt><trkpt lat="36.851239887793504" lon="15.040398935713998"><ele>48.0</ele><time>2026-03-26T15:17:38Z</time></trkpt><trkpt lat="36.85118425590495" lon="15.040274244182033"><ele>47.0</ele><time>2026-03-26T15:17:40Z</time></trkpt><trkpt lat="36.85110771820231" lon="15.040138357244686"><ele>46.0</ele><time>2026-03-26T15:17:42Z</time></trkpt><trkpt lat="36.85105213927409" lon="15.040068824811042"><ele>46.0</ele><time>2026-03-26T15:17:43Z</time></trkpt><trkpt lat="36.85099331526795" lon="15.040004618571468"><ele>46.0</ele><time>2026-03-26T15:17:44Z</time></trkpt><trkpt lat="36.85092911196914" lon="15.039934880784516"><ele>46.0</ele><time>2026-03-26T15:17:45Z</time></trkpt><trkpt lat="36.8508849409946" lon="15.039873731604498"><ele>46.0</ele><time>2026-03-26T15:17:46Z</time></trkpt><trkpt lat="36.85080732240807" lon="15.039756319240542"><ele>46.0</ele><time>2026-03-26T15:17:48Z</time></trkpt><trkpt lat="36.850758830627264" lon="15.039691751053873"><ele>46.0</ele><time>2026-03-26T15:17:49Z</time></trkpt><trkpt lat="36.85069830813226" lon="15.039624810064092"><ele>46.0</ele><time>2026-03-26T15:17:50Z</time></trkpt><trkpt lat="36.85064498767838" lon="15.03955206111804"><ele>46.0</ele><time>2026-03-26T15:17:51Z</time></trkpt><trkpt lat="36.85060617043829" lon="15.03948519444205"><ele>46.0</ele><time>2026-03-26T15:17:52Z</time></trkpt><trkpt lat="36.85053697809299" lon="15.039351744109794"><ele>46.0</ele><time>2026-03-26T15:17:54Z</time></trkpt><trkpt lat="36.85049126814336" lon="15.039290200866933"><ele>46.0</ele><time>2026-03-26T15:17:55Z</time></trkpt><trkpt lat="36.85042279987417" lon="15.039187285713448"><ele>46.0</ele><time>2026-03-26T15:17:57Z</time></trkpt><trkpt lat="36.85035256947298" lon="15.039125042639117"><ele>46.0</ele><time>2026-03-26T15:17:59Z</time></trkpt><trkpt lat="36.850285334145944" lon="15.039057580216433"><ele>46.0</ele><time>2026-03-26T15:18:01Z</time></trkpt><trkpt lat="36.85024579008336" lon="15.038985539672955"><ele>46.0</ele><time>2026-03-26T15:18:03Z</time></trkpt><trkpt lat="36.85018810377771" lon="15.038913685170034"><ele>46.0</ele><time>2026-03-26T15:18:06Z</time></trkpt><trkpt lat="36.850156306311334" lon="15.038845605875077"><ele>46.0</ele><time>2026-03-26T15:18:08Z</time></trkpt><trkpt lat="36.85009157115146" lon="15.038777800040947"><ele>46.0</ele><time>2026-03-26T15:18:10Z</time></trkpt><trkpt lat="36.8500094710411" lon="15.038687303605883"><ele>46.199999999999996</ele><time>2026-03-26T15:18:12Z</time></trkpt><trkpt lat="36.849950754344654" lon="15.038606892704689"><ele>46.4</ele><time>2026-03-26T15:18:14Z</time></trkpt><trkpt lat="36.849890687726116" lon="15.038511674212609"><ele>46.6</ele><time>2026-03-26T15:18:16Z</time></trkpt><trkpt lat="36.84989288970949" lon="15.038357043193795"><ele>46.8</ele><time>2026-03-26T15:18:18Z</time></trkpt><trkpt lat="36.8498951398624" lon="15.038275783857644"><ele>47.0</ele><time>2026-03-26T15:18:19Z</time></trkpt><trkpt lat="36.84987871491349" lon="15.03811812351459"><ele>47.0</ele><time>2026-03-26T15:18:21Z</time></trkpt><trkpt lat="36.84986704484031" lon="15.037968284016602"><ele>47.0</ele><time>2026-03-26T15:18:23Z</time></trkpt><trkpt lat="36.84985284230605" lon="15.037827705456378"><ele>47.0</ele><time>2026-03-26T15:18:25Z</time></trkpt><trkpt lat="36.84985450495635" lon="15.037742330806772"><ele>47.0</ele><time>2026-03-26T15:18:27Z</time></trkpt><trkpt lat="36.849844599344785" lon="15.037642746069857"><ele>47.0</ele><time>2026-03-26T15:18:29Z</time></trkpt><trkpt lat="36.84984306198356" lon="15.037543068697218"><ele>48.0</ele><time>2026-03-26T15:18:31Z</time></trkpt><trkpt lat="36.84983111845046" lon="15.037442962586308"><ele>49.0</ele><time>2026-03-26T15:18:33Z</time></trkpt><trkpt lat="36.84982360876808" lon="15.037339181056987"><ele>50.0</ele><time>2026-03-26T15:18:35Z</time></trkpt><trkpt lat="36.8498141371772" lon="15.037239074939137"><ele>51.0</ele><time>2026-03-26T15:18:37Z</time></trkpt><trkpt lat="36.84973962506283" lon="15.037180723729772"><ele>52.00000000000001</ele><time>2026-03-26T15:18:39Z</time></trkpt><trkpt lat="36.84965744492252" lon="15.037246528278864"><ele>53.0</ele><time>2026-03-26T15:18:41Z</time></trkpt><trkpt lat="36.849616964033835" lon="15.037420230256947"><ele>52.00000000000001</ele><time>2026-03-26T15:18:43Z</time></trkpt><trkpt lat="36.84959595486158" lon="15.037521711580245"><ele>51.0</ele><time>2026-03-26T15:18:44Z</time></trkpt><trkpt lat="36.84956223929763" lon="15.037611748723968"><ele>50.0</ele><time>2026-03-26T15:18:45Z</time></trkpt><trkpt lat="36.849518140108636" lon="15.037713988026955"><ele>49.0</ele><time>2026-03-26T15:18:46Z</time></trkpt><trkpt lat="36.84948354849304" lon="15.03781609267515"><ele>48.0</ele><time>2026-03-26T15:18:47Z</time></trkpt><trkpt lat="36.84944365138945" lon="15.037903195103919"><ele>47.0</ele><time>2026-03-26T15:18:48Z</time></trkpt><trkpt lat="36.849384256083766" lon="15.038005687384251"><ele>47.0</ele><time>2026-03-26T15:18:50Z</time></trkpt><trkpt lat="36.84930726123848" lon="15.037989090369663"><ele>47.0</ele><time>2026-03-26T15:18:52Z</time></trkpt><trkpt lat="36.84927102502776" lon="15.037869931280786"><ele>47.0</ele><time>2026-03-26T15:18:54Z</time></trkpt><trkpt lat="36.84929693467276" lon="15.037719085976512"><ele>47.0</ele><time>2026-03-26T15:18:56Z</time></trkpt><trkpt lat="36.84930586234386" lon="15.037637232976595"><ele>47.0</ele><time>2026-03-26T15:18:57Z</time></trkpt><trkpt lat="36.84928954898128" lon="15.037549111077015"><ele>47.0</ele><time>2026-03-26T15:18:58Z</time></trkpt><trkpt lat="36.84927824417924" lon="15.037452099077768"><ele>53.0</ele><time>2026-03-26T15:18:59Z</time></trkpt><trkpt lat="36.84927094887108" lon="15.037369137897814"><ele>59.0</ele><time>2026-03-26T15:19:00Z</time></trkpt><trkpt lat="36.849265694309025" lon="15.037289663685645"><ele>65.0</ele><time>2026-03-26T15:19:01Z</time></trkpt><trkpt lat="36.84926043831017" lon="15.037137747230444"><ele>71.0</ele><time>2026-03-26T15:19:03Z</time></trkpt><trkpt lat="36.84926635403697" lon="15.036990079893284"><ele>77.0</ele><time>2026-03-26T15:19:05Z</time></trkpt><trkpt lat="36.849264980347485" lon="15.036836620266097"><ele>77.0</ele><time>2026-03-26T15:19:07Z</time></trkpt><trkpt lat="36.849257783079395" lon="15.036676332219546"><ele>77.0</ele><time>2026-03-26T15:19:09Z</time></trkpt><trkpt lat="36.84924385169093" lon="15.036593191670038"><ele>77.0</ele><time>2026-03-26T15:19:10Z</time></trkpt><trkpt lat="36.84922862742491" lon="15.036507506910718"><ele>77.0</ele><time>2026-03-26T15:19:11Z</time></trkpt><trkpt lat="36.849207240446475" lon="15.03642525929934"><ele>77.0</ele><time>2026-03-26T15:19:12Z</time></trkpt><trkpt lat="36.84917571606581" lon="15.036344043536456"><ele>77.0</ele><time>2026-03-26T15:19:13Z</time></trkpt><trkpt lat="36.849147982639785" lon="15.036257007500561"><ele>76.66666666666667</ele><time>2026-03-26T15:19:14Z</time></trkpt><trkpt lat="36.84912211236972" lon="15.036176766378953"><ele>76.33333333333334</ele><time>2026-03-26T15:19:15Z</time></trkpt><trkpt lat="36.84909290668964" lon="15.036106948892895"><ele>76.0</ele><time>2026-03-26T15:19:16Z</time></trkpt><trkpt lat="36.84907148498467" lon="15.036031353152412"><ele>75.66666666666667</ele><time>2026-03-26T15:19:17Z</time></trkpt><trkpt lat="36.84909705527351" lon="15.035877581311837"><ele>75.33333333333333</ele><time>2026-03-26T15:19:19Z</time></trkpt><trkpt lat="36.849131267366914" lon="15.035807048859933"><ele>75.0</ele><time>2026-03-26T15:19:20Z</time></trkpt><trkpt lat="36.84919968091441" lon="15.035690496356294"><ele>74.66666666666667</ele><time>2026-03-26T15:19:22Z</time></trkpt><trkpt lat="36.849241813275285" lon="15.035580893402924"><ele>74.33333333333333</ele><time>2026-03-26T15:19:24Z</time></trkpt><trkpt lat="36.84925252014627" lon="15.035479449866802"><ele>74.0</ele><time>2026-03-26T15:19:26Z</time></trkpt><trkpt lat="36.849223554340014" lon="15.035400416894769"><ele>73.66666666666666</ele><time>2026-03-26T15:19:28Z</time></trkpt><trkpt lat="36.84914211541084" lon="15.035376914370563"><ele>73.33333333333333</ele><time>2026-03-26T15:19:31Z</time></trkpt><trkpt lat="36.84908038758426" lon="15.035438608682986"><ele>73.0</ele><time>2026-03-26T15:19:34Z</time></trkpt><trkpt lat="36.84902076629089" lon="15.03534318282934"><ele>73.0</ele><time>2026-03-26T15:19:38Z</time></trkpt><trkpt lat="36.84901975220659" lon="15.035235007092014"><ele>73.0</ele><time>2026-03-26T15:19:40Z</time></trkpt><trkpt lat="36.849044056552636" lon="15.035132093637657"><ele>73.0</ele><time>2026-03-26T15:19:43Z</time></trkpt><trkpt lat="36.84920332317509" lon="15.035615196704905"><ele>73.0</ele><time>2026-03-26T15:21:59Z</time></trkpt><trkpt lat="36.84916469992717" lon="15.035733255867852"><ele>73.0</ele><time>2026-03-26T15:22:00Z</time></trkpt><trkpt lat="36.84910833948549" lon="15.035866506317017"><ele>73.0</ele><time>2026-03-26T15:22:01Z</time></trkpt><trkpt lat="36.84906995273349" lon="15.035963847835154"><ele>73.0</ele><time>2026-03-26T15:22:02Z</time></trkpt><trkpt lat="36.849064853305876" lon="15.036049817808017"><ele>73.0</ele><time>2026-03-26T15:22:03Z</time></trkpt><trkpt lat="36.849086640890455" lon="15.036144276247065"><ele>73.33333333333333</ele><time>2026-03-26T15:22:04Z</time></trkpt><trkpt lat="36.84912751773956" lon="15.03624505856693"><ele>73.66666666666666</ele><time>2026-03-26T15:22:05Z</time></trkpt><trkpt lat="36.84917414821906" lon="15.036334341074792"><ele>74.0</ele><time>2026-03-26T15:22:06Z</time></trkpt><trkpt lat="36.84921080318246" lon="15.036423996600796"><ele>74.33333333333333</ele><time>2026-03-26T15:22:07Z</time></trkpt><trkpt lat="36.849232949053814" lon="15.036517942822899"><ele>74.66666666666667</ele><time>2026-03-26T15:22:08Z</time></trkpt><trkpt lat="36.84924499021019" lon="15.036614276292779"><ele>75.0</ele><time>2026-03-26T15:22:09Z</time></trkpt><trkpt lat="36.849252633996045" lon="15.03670904804656"><ele>75.33333333333333</ele><time>2026-03-26T15:22:10Z</time></trkpt><trkpt lat="36.84925340172559" lon="15.036806701646972"><ele>75.66666666666667</ele><time>2026-03-26T15:22:11Z</time></trkpt><trkpt lat="36.84925304091672" lon="15.036909468219896"><ele>76.0</ele><time>2026-03-26T15:22:12Z</time></trkpt><trkpt lat="36.849249931333965" lon="15.03701847117757"><ele>76.33333333333334</ele><time>2026-03-26T15:22:13Z</time></trkpt><trkpt lat="36.84925058335318" lon="15.037124361942446"><ele>76.66666666666667</ele><time>2026-03-26T15:22:14Z</time></trkpt><trkpt lat="36.84925410090115" lon="15.037233450190088"><ele>77.0</ele><time>2026-03-26T15:22:15Z</time></trkpt><trkpt lat="36.84926594365829" lon="15.03734085241061"><ele>77.0</ele><time>2026-03-26T15:22:16Z</time></trkpt><trkpt lat="36.849278278586695" lon="15.037444949440403"><ele>77.0</ele><time>2026-03-26T15:22:17Z</time></trkpt><trkpt lat="36.84929048853965" lon="15.037547834113813"><ele>77.0</ele><time>2026-03-26T15:22:18Z</time></trkpt><trkpt lat="36.8492920433439" lon="15.03764951031187"><ele>77.0</ele><time>2026-03-26T15:22:19Z</time></trkpt><trkpt lat="36.84928501389634" lon="15.037743792877961"><ele>77.0</ele><time>2026-03-26T15:22:20Z</time></trkpt><trkpt lat="36.84926515994675" lon="15.037868436284034"><ele>77.0</ele><time>2026-03-26T15:22:22Z</time></trkpt><trkpt lat="36.84929781545036" lon="15.03797876593976"><ele>71.0</ele><time>2026-03-26T15:22:24Z</time></trkpt><trkpt lat="36.84938901654739" lon="15.038012203781"><ele>65.0</ele><time>2026-03-26T15:22:26Z</time></trkpt><trkpt lat="36.849481320923715" lon="15.037897399401754"><ele>59.0</ele><time>2026-03-26T15:22:28Z</time></trkpt><trkpt lat="36.8495187911595" lon="15.037776664709355"><ele>53.0</ele><time>2026-03-26T15:22:29Z</time></trkpt><trkpt lat="36.84954793340462" lon="15.03770683942266"><ele>47.0</ele><time>2026-03-26T15:22:30Z</time></trkpt><trkpt lat="36.84960355032092" lon="15.03758543485497"><ele>48.2</ele><time>2026-03-26T15:22:32Z</time></trkpt><trkpt lat="36.849632039332235" lon="15.037467796106341"><ele>49.400000000000006</ele><time>2026-03-26T15:22:34Z</time></trkpt><trkpt lat="36.84965716725523" lon="15.037331767649187"><ele>50.599999999999994</ele><time>2026-03-26T15:22:36Z</time></trkpt><trkpt lat="36.84972300837931" lon="15.037237057302374"><ele>51.8</ele><time>2026-03-26T15:22:38Z</time></trkpt><trkpt lat="36.84980526877347" lon="15.03724589603033"><ele>53.0</ele><time>2026-03-26T15:22:40Z</time></trkpt><trkpt lat="36.84980440609989" lon="15.037396786405054"><ele>52.00000000000001</ele><time>2026-03-26T15:22:42Z</time></trkpt><trkpt lat="36.84980931331625" lon="15.037485016103723"><ele>51.0</ele><time>2026-03-26T15:22:43Z</time></trkpt><trkpt lat="36.84981285694228" lon="15.03757663894914"><ele>50.0</ele><time>2026-03-26T15:22:44Z</time></trkpt><trkpt lat="36.84981649675212" lon="15.03767074883858"><ele>49.0</ele><time>2026-03-26T15:22:45Z</time></trkpt><trkpt lat="36.84982255338716" lon="15.037767076767667"><ele>48.0</ele><time>2026-03-26T15:22:46Z</time></trkpt><trkpt lat="36.84982926507495" lon="15.0378641342073"><ele>47.0</ele><time>2026-03-26T15:22:47Z</time></trkpt><trkpt lat="36.84983728329411" lon="15.037972261253053"><ele>47.0</ele><time>2026-03-26T15:22:48Z</time></trkpt><trkpt lat="36.84984448438473" lon="15.038068556992194"><ele>47.0</ele><time>2026-03-26T15:22:49Z</time></trkpt><trkpt lat="36.84985266161447" lon="15.038177905943563"><ele>47.0</ele><time>2026-03-26T15:22:50Z</time></trkpt><trkpt lat="36.8498607090729" lon="15.038285519682047"><ele>47.0</ele><time>2026-03-26T15:22:51Z</time></trkpt><trkpt lat="36.849865791644206" lon="15.038373403074017"><ele>47.0</ele><time>2026-03-26T15:22:52Z</time></trkpt><trkpt lat="36.84989460365858" lon="15.03852565353981"><ele>47.0</ele><time>2026-03-26T15:22:54Z</time></trkpt><trkpt lat="36.849923379729475" lon="15.038603422614626"><ele>46.8</ele><time>2026-03-26T15:22:55Z</time></trkpt><trkpt lat="36.849984323409984" lon="15.038710656276868"><ele>46.6</ele><time>2026-03-26T15:22:57Z</time></trkpt><trkpt lat="36.8500328914972" lon="15.03877853493526"><ele>46.4</ele><time>2026-03-26T15:23:15Z</time></trkpt><trkpt lat="36.850097719883344" lon="15.038861837581797"><ele>46.199999999999996</ele><time>2026-03-26T15:23:18Z</time></trkpt><trkpt lat="36.850159927201894" lon="15.038942225495836"><ele>46.0</ele><time>2026-03-26T15:23:20Z</time></trkpt><trkpt lat="36.85023825540452" lon="15.039043681426291"><ele>46.0</ele><time>2026-03-26T15:23:22Z</time></trkpt><trkpt lat="36.85030629837237" lon="15.03913181521392"><ele>46.0</ele><time>2026-03-26T15:23:24Z</time></trkpt><trkpt lat="36.85035812760698" lon="15.039198947899383"><ele>46.0</ele><time>2026-03-26T15:23:29Z</time></trkpt><trkpt lat="36.85041621357488" lon="15.039014074672398"><ele>46.0</ele><time>2026-03-26T15:23:33Z</time></trkpt><trkpt lat="36.85041466296499" lon="15.03891830766943"><ele>46.0</ele><time>2026-03-26T15:23:35Z</time></trkpt><trkpt lat="36.8504441655568" lon="15.038781760812334"><ele>46.0</ele><time>2026-03-26T15:23:37Z</time></trkpt><trkpt lat="36.85044698543922" lon="15.038684698740452"><ele>46.0</ele><time>2026-03-26T15:23:39Z</time></trkpt><trkpt lat="36.85046769027669" lon="15.038542878790558"><ele>46.0</ele><time>2026-03-26T15:23:41Z</time></trkpt><trkpt lat="36.85049002538073" lon="15.038454701689435"><ele>46.0</ele><time>2026-03-26T15:23:43Z</time></trkpt><trkpt lat="36.8505230163167" lon="15.038374652148095"><ele>46.0</ele><time>2026-03-26T15:23:49Z</time></trkpt><trkpt lat="36.85044349479309" lon="15.038265319387389"><ele>45.66666666666667</ele><time>2026-03-26T15:23:52Z</time></trkpt><trkpt lat="36.850398153049035" lon="15.038191099299564"><ele>45.333333333333336</ele><time>2026-03-26T15:23:57Z</time></trkpt><trkpt lat="36.85033764580383" lon="15.038126106161542"><ele>45.0</ele><time>2026-03-26T15:23:59.999Z</time></trkpt><trkpt lat="36.85027945098381" lon="15.038089878951222"><ele>44.666666666666664</ele><time>2026-03-26T15:24:44Z</time></trkpt><trkpt lat="36.85034536842963" lon="15.038124775938357"><ele>44.33333333333333</ele><time>2026-03-26T15:24:50Z</time></trkpt><trkpt lat="36.85041194460498" lon="15.038226476163162"><ele>44.0</ele><time>2026-03-26T15:25:15Z</time></trkpt><trkpt lat="36.85045755767311" lon="15.038292037967604"><ele>44.5</ele><time>2026-03-26T15:25:18Z</time></trkpt><trkpt lat="36.85050810333279" lon="15.03835751175268"><ele>45.0</ele><time>2026-03-26T15:25:21Z</time></trkpt><trkpt lat="36.85054287156832" lon="15.038484062158897"><ele>45.5</ele><time>2026-03-26T15:25:27Z</time></trkpt><trkpt lat="36.85050032292612" lon="15.03842469120571"><ele>46.0</ele><time>2026-03-26T15:25:28Z</time></trkpt><trkpt lat="36.850097422654486" lon="15.038408509126569"><ele>46.0</ele><time>2026-03-26T15:25:29Z</time></trkpt><trkpt lat="36.85027643174631" lon="15.039010461165647"><ele>46.0</ele><time>2026-03-26T15:25:30Z</time></trkpt><trkpt lat="36.850417004755506" lon="15.038947593307396"><ele>46.0</ele><time>2026-03-26T15:25:32Z</time></trkpt><trkpt lat="36.85040579507733" lon="15.039035919105482"><ele>46.0</ele><time>2026-03-26T15:25:34Z</time></trkpt><trkpt lat="36.85036234155633" lon="15.039097253242975"><ele>46.0</ele><time>2026-03-26T15:25:36Z</time></trkpt><trkpt lat="36.85029926124336" lon="15.039084181449471"><ele>46.0</ele><time>2026-03-26T15:25:38Z</time></trkpt><trkpt lat="36.85020989735002" lon="15.038952144949086"><ele>46.0</ele><time>2026-03-26T15:25:40Z</time></trkpt><trkpt lat="36.850174198868544" lon="15.03887171801911"><ele>46.0</ele><time>2026-03-26T15:25:41Z</time></trkpt><trkpt lat="36.850106821320274" lon="15.038786676438052"><ele>46.0</ele><time>2026-03-26T15:25:43Z</time></trkpt><trkpt lat="36.85005114701059" lon="15.038739745366883"><ele>46.0</ele><time>2026-03-26T15:25:44Z</time></trkpt><trkpt lat="36.84996180457647" lon="15.038646194223652"><ele>46.0</ele><time>2026-03-26T15:25:46Z</time></trkpt><trkpt lat="36.849924180917164" lon="15.038579286309071"><ele>46.0</ele><time>2026-03-26T15:25:47Z</time></trkpt><trkpt lat="36.84989808542976" lon="15.038494135444909"><ele>46.199999999999996</ele><time>2026-03-26T15:25:48Z</time></trkpt><trkpt lat="36.849891499280076" lon="15.038393215471944"><ele>46.4</ele><time>2026-03-26T15:25:49Z</time></trkpt><trkpt lat="36.84988727411985" lon="15.03827943593751"><ele>46.6</ele><time>2026-03-26T15:25:50Z</time></trkpt><trkpt lat="36.84987761444151" lon="15.038145821112778"><ele>46.8</ele><time>2026-03-26T15:25:51Z</time></trkpt><trkpt lat="36.84986533509305" lon="15.038002449670714"><ele>47.0</ele><time>2026-03-26T15:25:52Z</time></trkpt><trkpt lat="36.8498552243865" lon="15.037861013859159"><ele>47.0</ele><time>2026-03-26T15:25:53Z</time></trkpt><trkpt lat="36.8498484421823" lon="15.037721911142187"><ele>47.0</ele><time>2026-03-26T15:25:54Z</time></trkpt><trkpt lat="36.84984264413116" lon="15.03757965169518"><ele>47.0</ele><time>2026-03-26T15:25:55Z</time></trkpt><trkpt lat="36.84983968906682" lon="15.037473515431266"><ele>47.0</ele><time>2026-03-26T15:25:56Z</time></trkpt><trkpt lat="36.84983845083587" lon="15.037389025172525"><ele>47.0</ele><time>2026-03-26T15:25:57Z</time></trkpt><trkpt lat="36.84982980037061" lon="15.037309969217837"><ele>47.0</ele><time>2026-03-26T15:25:58Z</time></trkpt><trkpt lat="36.84978173128785" lon="15.037207315138666"><ele>47.0</ele><time>2026-03-26T15:26:00Z</time></trkpt><trkpt lat="36.84968874292749" lon="15.037213664317896"><ele>47.0</ele><time>2026-03-26T15:26:02Z</time></trkpt><trkpt lat="36.84963645504552" lon="15.03736253378984"><ele>47.0</ele><time>2026-03-26T15:26:03.999Z</time></trkpt><trkpt lat="36.849609773052535" lon="15.037453822798387"><ele>47.0</ele><time>2026-03-26T15:26:04.999Z</time></trkpt><trkpt lat="36.84958603626744" lon="15.037549912459374"><ele>47.0</ele><time>2026-03-26T15:26:05.999Z</time></trkpt><trkpt lat="36.84955368751998" lon="15.037633544167612"><ele>47.0</ele><time>2026-03-26T15:26:06.999Z</time></trkpt><trkpt lat="36.84950854549375" lon="15.03773607276716"><ele>47.0</ele><time>2026-03-26T15:26:07.999Z</time></trkpt><trkpt lat="36.849477146975445" lon="15.037841161648107"><ele>47.0</ele><time>2026-03-26T15:26:09Z</time></trkpt><trkpt lat="36.849443228824605" lon="15.03792022096692"><ele>47.0</ele><time>2026-03-26T15:26:10Z</time></trkpt><trkpt lat="36.84935327791597" lon="15.038007962065498"><ele>47.0</ele><time>2026-03-26T15:26:12Z</time></trkpt><trkpt lat="36.849286310527205" lon="15.037985094890008"><ele>47.0</ele><time>2026-03-26T15:26:14Z</time></trkpt><trkpt lat="36.84929008880097" lon="15.037823048979313"><ele>47.0</ele><time>2026-03-26T15:26:16Z</time></trkpt><trkpt lat="36.84928651792139" lon="15.037727816198847"><ele>47.0</ele><time>2026-03-26T15:26:17Z</time></trkpt><trkpt lat="36.84929274962995" lon="15.037616054662225"><ele>47.0</ele><time>2026-03-26T15:26:18Z</time></trkpt><trkpt lat="36.849289058506784" lon="15.037485728976957"><ele>47.0</ele><time>2026-03-26T15:26:19Z</time></trkpt><trkpt lat="36.84927221697158" lon="15.037344130377335"><ele>47.0</ele><time>2026-03-26T15:26:20Z</time></trkpt><trkpt lat="36.8492553024347" lon="15.037173357916613"><ele>54.0</ele><time>2026-03-26T15:26:21Z</time></trkpt><trkpt lat="36.849256118198504" lon="15.036991160801552"><ele>61.0</ele><time>2026-03-26T15:26:22Z</time></trkpt><trkpt lat="36.84926612656146" lon="15.036820503438381"><ele>68.0</ele><time>2026-03-26T15:26:23Z</time></trkpt><trkpt lat="36.84925860177256" lon="15.03667010117432"><ele>75.0</ele><time>2026-03-26T15:26:24Z</time></trkpt><trkpt lat="36.84923691100646" lon="15.036525176767691"><ele>75.0</ele><time>2026-03-26T15:26:25Z</time></trkpt><trkpt lat="36.84920472915073" lon="15.036380940121802"><ele>75.0</ele><time>2026-03-26T15:26:26Z</time></trkpt><trkpt lat="36.8491567710222" lon="15.036264373507501"><ele>75.0</ele><time>2026-03-26T15:26:27Z</time></trkpt><trkpt lat="36.84911399093251" lon="15.036171513969876"><ele>75.0</ele><time>2026-03-26T15:26:28Z</time></trkpt><trkpt lat="36.84908425017583" lon="15.036092723093176"><ele>75.0</ele><time>2026-03-26T15:26:29Z</time></trkpt><trkpt lat="36.84907511390939" lon="15.036013910818065"><ele>75.0</ele><time>2026-03-26T15:26:30Z</time></trkpt><trkpt lat="36.84908873239039" lon="15.035911313260367"><ele>74.6</ele><time>2026-03-26T15:26:31Z</time></trkpt><trkpt lat="36.84913318369418" lon="15.0357926144393"><ele>74.2</ele><time>2026-03-26T15:26:32Z</time></trkpt><trkpt lat="36.84918762657965" lon="15.035700479692848"><ele>73.8</ele><time>2026-03-26T15:26:33Z</time></trkpt><trkpt lat="36.84923024761924" lon="15.03562619005564"><ele>73.4</ele><time>2026-03-26T15:26:34Z</time></trkpt><trkpt lat="36.84925320099248" lon="15.03548880488172"><ele>73.0</ele><time>2026-03-26T15:26:36Z</time></trkpt><trkpt lat="36.849145376667664" lon="15.035397657186277"><ele>73.0</ele><time>2026-03-26T15:26:39Z</time></trkpt><trkpt lat="36.849041517009326" lon="15.035453735428925"><ele>73.0</ele><time>2026-03-26T15:26:40Z</time></trkpt><trkpt lat="36.84898671557817" lon="15.03558115348192"><ele>73.0</ele><time>2026-03-26T15:26:41Z</time></trkpt><trkpt lat="36.84890325554174" lon="15.035682015839134"><ele>73.0</ele><time>2026-03-26T15:26:42Z</time></trkpt><trkpt lat="36.84879730882193" lon="15.035780861713034"><ele>73.5</ele><time>2026-03-26T15:26:43Z</time></trkpt><trkpt lat="36.84867416241466" lon="15.035880715766789"><ele>74.0</ele><time>2026-03-26T15:26:44Z</time></trkpt><trkpt lat="36.84855854993947" lon="15.035994542905263"><ele>74.5</ele><time>2026-03-26T15:26:45Z</time></trkpt><trkpt lat="36.84845866593265" lon="15.036116673861441"><ele>75.0</ele><time>2026-03-26T15:26:46Z</time></trkpt><trkpt lat="36.848364864065374" lon="15.036234789535577"><ele>74.25</ele><time>2026-03-26T15:26:47Z</time></trkpt><trkpt lat="36.848277068448695" lon="15.036349366253427"><ele>73.5</ele><time>2026-03-26T15:26:48Z</time></trkpt><trkpt lat="36.84819549087831" lon="15.03645972081987"><ele>72.75</ele><time>2026-03-26T15:26:49Z</time></trkpt><trkpt lat="36.848117192006725" lon="15.036568026453654"><ele>72.0</ele><time>2026-03-26T15:26:50Z</time></trkpt><trkpt lat="36.84804487321546" lon="15.036673724756282"><ele>72.0</ele><time>2026-03-26T15:26:51Z</time></trkpt><trkpt lat="36.84798693008046" lon="15.036762279202906"><ele>72.0</ele><time>2026-03-26T15:26:52Z</time></trkpt><trkpt lat="36.847922590118664" lon="15.036832234919085"><ele>72.0</ele><time>2026-03-26T15:26:53Z</time></trkpt><trkpt lat="36.84785591448723" lon="15.036872745812824"><ele>72.0</ele><time>2026-03-26T15:26:54Z</time></trkpt><trkpt lat="36.84778551093686" lon="15.036898507245184"><ele>72.0</ele><time>2026-03-26T15:26:55Z</time></trkpt><trkpt lat="36.84770723478802" lon="15.03693289108733"><ele>72.0</ele><time>2026-03-26T15:26:56Z</time></trkpt><trkpt lat="36.84760720460323" lon="15.036886712669393"><ele>68.4</ele><time>2026-03-26T15:26:57Z</time></trkpt><trkpt lat="36.84749322488794" lon="15.036834693960438"><ele>64.80000000000001</ele><time>2026-03-26T15:26:58Z</time></trkpt><trkpt lat="36.847377347018536" lon="15.036804734416782"><ele>61.2</ele><time>2026-03-26T15:26:59Z</time></trkpt><trkpt lat="36.847279137505105" lon="15.036767383862824"><ele>57.6</ele><time>2026-03-26T15:27:00Z</time></trkpt><trkpt lat="36.847193626046696" lon="15.036719076492231"><ele>54.0</ele><time>2026-03-26T15:27:01Z</time></trkpt><trkpt lat="36.847109246910385" lon="15.03669250163831"><ele>54.0</ele><time>2026-03-26T15:27:02Z</time></trkpt><trkpt lat="36.84703395331609" lon="15.036686327447685"><ele>54.00000000000001</ele><time>2026-03-26T15:27:03Z</time></trkpt><trkpt lat="36.8469635279456" lon="15.036646680088355"><ele>54.00000000000001</ele><time>2026-03-26T15:27:04Z</time></trkpt><trkpt lat="36.84689540894043" lon="15.036549819698356"><ele>54.0</ele><time>2026-03-26T15:27:06Z</time></trkpt><trkpt lat="36.846914527395754" lon="15.03638552257736"><ele>54.0</ele><time>2026-03-26T15:27:08Z</time></trkpt><trkpt lat="36.84689144995372" lon="15.03625276000545"><ele>52.5</ele><time>2026-03-26T15:27:10Z</time></trkpt><trkpt lat="36.846823705951444" lon="15.036131713536115"><ele>51.0</ele><time>2026-03-26T15:27:12Z</time></trkpt><trkpt lat="36.84683461146814" lon="15.035965159932362"><ele>49.5</ele><time>2026-03-26T15:27:14Z</time></trkpt><trkpt lat="36.84684480613216" lon="15.035819002976163"><ele>48.0</ele><time>2026-03-26T15:27:15Z</time></trkpt><trkpt lat="36.84685867461152" lon="15.035655896199025"><ele>47.666666666666664</ele><time>2026-03-26T15:27:16Z</time></trkpt><trkpt lat="36.846865381455466" lon="15.035523262882066"><ele>47.333333333333336</ele><time>2026-03-26T15:27:17Z</time></trkpt><trkpt lat="36.84687306109599" lon="15.035408531309004"><ele>47.0</ele><time>2026-03-26T15:27:18Z</time></trkpt><trkpt lat="36.8468763226518" lon="15.035293253197255"><ele>46.66666666666667</ele><time>2026-03-26T15:27:19Z</time></trkpt><trkpt lat="36.84688686957491" lon="15.035193698408595"><ele>46.333333333333336</ele><time>2026-03-26T15:27:20Z</time></trkpt><trkpt lat="36.84689882219977" lon="15.035097062521167"><ele>46.0</ele><time>2026-03-26T15:27:21Z</time></trkpt><trkpt lat="36.84692306397892" lon="15.03498140757066"><ele>46.5</ele><time>2026-03-26T15:27:22Z</time></trkpt><trkpt lat="36.84696195525874" lon="15.034843621688806"><ele>47.0</ele><time>2026-03-26T15:27:23Z</time></trkpt><trkpt lat="36.84701727819637" lon="15.03467869355565"><ele>47.5</ele><time>2026-03-26T15:27:24Z</time></trkpt><trkpt lat="36.84707063101954" lon="15.034512438003553"><ele>48.0</ele><time>2026-03-26T15:27:25Z</time></trkpt><trkpt lat="36.847113625288884" lon="15.034348862430535"><ele>48.0</ele><time>2026-03-26T15:27:26Z</time></trkpt><trkpt lat="36.847150592492596" lon="15.034205560932348"><ele>48.0</ele><time>2026-03-26T15:27:27Z</time></trkpt><trkpt lat="36.84718346723099" lon="15.03407591375097"><ele>48.0</ele><time>2026-03-26T15:27:28Z</time></trkpt><trkpt lat="36.84721811496725" lon="15.033952423639947"><ele>48.0</ele><time>2026-03-26T15:27:29Z</time></trkpt><trkpt lat="36.84724789655106" lon="15.033835633318121"><ele>48.0</ele><time>2026-03-26T15:27:30Z</time></trkpt><trkpt lat="36.847270502989225" lon="15.033717022414192"><ele>48.8</ele><time>2026-03-26T15:27:31Z</time></trkpt><trkpt lat="36.84729354285751" lon="15.033600737662336"><ele>49.599999999999994</ele><time>2026-03-26T15:27:32Z</time></trkpt><trkpt lat="36.84732041153699" lon="15.033485402272808"><ele>50.400000000000006</ele><time>2026-03-26T15:27:33Z</time></trkpt><trkpt lat="36.84735127573277" lon="15.033354372439408"><ele>51.2</ele><time>2026-03-26T15:27:34Z</time></trkpt><trkpt lat="36.847381610140154" lon="15.033224882350602"><ele>52.0</ele><time>2026-03-26T15:27:35Z</time></trkpt><trkpt lat="36.847412857231454" lon="15.033095883513399"><ele>52.83333333333333</ele><time>2026-03-26T15:27:36Z</time></trkpt><trkpt lat="36.8474431946319" lon="15.032968050608808"><ele>53.666666666666664</ele><time>2026-03-26T15:27:37Z</time></trkpt><trkpt lat="36.847466346273904" lon="15.032853278759934"><ele>54.5</ele><time>2026-03-26T15:27:38Z</time></trkpt><trkpt lat="36.84748218536961" lon="15.032762026768314"><ele>55.33333333333333</ele><time>2026-03-26T15:27:39Z</time></trkpt><trkpt lat="36.847499881284854" lon="15.032677390031173"><ele>56.166666666666664</ele><time>2026-03-26T15:27:40Z</time></trkpt><trkpt lat="36.8475165647967" lon="15.03259449097581"><ele>57.0</ele><time>2026-03-26T15:27:41Z</time></trkpt><trkpt lat="36.847544832323926" lon="15.032478330196096"><ele>57.333333333333336</ele><time>2026-03-26T15:27:43Z</time></trkpt><trkpt lat="36.84757045396937" lon="15.032397314824141"><ele>57.66666666666667</ele><time>2026-03-26T15:27:45Z</time></trkpt><trkpt lat="36.84758747405007" lon="15.032299850370348"><ele>58.0</ele><time>2026-03-26T15:27:47Z</time></trkpt><trkpt lat="36.847595034116544" lon="15.03220051504548"><ele>58.333333333333336</ele><time>2026-03-26T15:27:48Z</time></trkpt><trkpt lat="36.84759636450848" lon="15.032108573118764"><ele>58.66666666666667</ele><time>2026-03-26T15:27:49Z</time></trkpt><trkpt lat="36.847595531936335" lon="15.03202673425158"><ele>59.0</ele><time>2026-03-26T15:27:51Z</time></trkpt><trkpt lat="36.847614890376526" lon="15.031912387367639"><ele>59.833333333333336</ele><time>2026-03-26T15:27:53Z</time></trkpt><trkpt lat="36.847630688167875" lon="15.031819409578942"><ele>60.66666666666667</ele><time>2026-03-26T15:27:54Z</time></trkpt><trkpt lat="36.84764432936459" lon="15.03172563835897"><ele>61.5</ele><time>2026-03-26T15:27:55Z</time></trkpt><trkpt lat="36.84764713754581" lon="15.031619059495602"><ele>62.33333333333333</ele><time>2026-03-26T15:27:56Z</time></trkpt><trkpt lat="36.84765021519188" lon="15.031519623340591"><ele>63.166666666666664</ele><time>2026-03-26T15:27:57Z</time></trkpt><trkpt lat="36.84765523661829" lon="15.031417495329753"><ele>64.0</ele><time>2026-03-26T15:27:58Z</time></trkpt><trkpt lat="36.84765681044597" lon="15.031332984472279"><ele>63.99999999999999</ele><time>2026-03-26T15:27:59Z</time></trkpt><trkpt lat="36.84765189682471" lon="15.031245668620429"><ele>64.0</ele><time>2026-03-26T15:28:00Z</time></trkpt><trkpt lat="36.847646764421725" lon="15.031155467500843"><ele>64.0</ele><time>2026-03-26T15:28:01Z</time></trkpt><trkpt lat="36.847645195184484" lon="15.031054218004494"><ele>64.0</ele><time>2026-03-26T15:28:02Z</time></trkpt><trkpt lat="36.84765092898107" lon="15.03094667101093"><ele>63.99999999999999</ele><time>2026-03-26T15:28:03Z</time></trkpt><trkpt lat="36.84765229766261" lon="15.030839684932012"><ele>64.0</ele><time>2026-03-26T15:28:04Z</time></trkpt><trkpt lat="36.84765243039227" lon="15.030712253285088"><ele>63.33333333333333</ele><time>2026-03-26T15:28:04.999Z</time></trkpt><trkpt lat="36.84765505948727" lon="15.030613883366843"><ele>62.666666666666664</ele><time>2026-03-26T15:28:05.999Z</time></trkpt><trkpt lat="36.847668088872176" lon="15.030524740015991"><ele>62.0</ele><time>2026-03-26T15:28:06.999Z</time></trkpt><trkpt lat="36.84767806253685" lon="15.030444686613215"><ele>61.33333333333333</ele><time>2026-03-26T15:28:07.999Z</time></trkpt><trkpt lat="36.84768906205496" lon="15.030362175206093"><ele>60.666666666666664</ele><time>2026-03-26T15:28:08.999Z</time></trkpt><trkpt lat="36.84771328906354" lon="15.030222182736903"><ele>60.0</ele><time>2026-03-26T15:28:10.999Z</time></trkpt><trkpt lat="36.847730685615765" lon="15.030136966615776"><ele>60.0</ele><time>2026-03-26T15:28:11.999Z</time></trkpt><trkpt lat="36.84775716742584" lon="15.030036365068177"><ele>60.0</ele><time>2026-03-26T15:28:12.999Z</time></trkpt><trkpt lat="36.84777238173625" lon="15.02995235107519"><ele>60.0</ele><time>2026-03-26T15:28:14Z</time></trkpt><trkpt lat="36.84779983341365" lon="15.029847623684766"><ele>60.0</ele><time>2026-03-26T15:28:15Z</time></trkpt><trkpt lat="36.84782365888966" lon="15.029747062860137"><ele>60.0</ele><time>2026-03-26T15:28:16Z</time></trkpt><trkpt lat="36.84785092218611" lon="15.029651570257457"><ele>60.0</ele><time>2026-03-26T15:28:17Z</time></trkpt><trkpt lat="36.847876373669905" lon="15.029552942207484"><ele>59.4</ele><time>2026-03-26T15:28:18Z</time></trkpt><trkpt lat="36.84789718627638" lon="15.029456333968339"><ele>58.8</ele><time>2026-03-26T15:28:19Z</time></trkpt><trkpt lat="36.84791603324981" lon="15.02934620678121"><ele>58.2</ele><time>2026-03-26T15:28:20Z</time></trkpt><trkpt lat="36.84792976003809" lon="15.029240837052994"><ele>57.6</ele><time>2026-03-26T15:28:21Z</time></trkpt><trkpt lat="36.847946385059494" lon="15.029125917154326"><ele>57.0</ele><time>2026-03-26T15:28:22Z</time></trkpt><trkpt lat="36.847963095255444" lon="15.028999825377086"><ele>57.0</ele><time>2026-03-26T15:28:23Z</time></trkpt><trkpt lat="36.84797567128513" lon="15.02887429021238"><ele>57.0</ele><time>2026-03-26T15:28:24Z</time></trkpt><trkpt lat="36.84798663254516" lon="15.028746924467864"><ele>57.0</ele><time>2026-03-26T15:28:25Z</time></trkpt><trkpt lat="36.84799018470221" lon="15.02861596587817"><ele>57.0</ele><time>2026-03-26T15:28:26Z</time></trkpt><trkpt lat="36.84799061624216" lon="15.028479959241654"><ele>57.0</ele><time>2026-03-26T15:28:27Z</time></trkpt><trkpt lat="36.84798782128254" lon="15.028330334101474"><ele>57.0</ele><time>2026-03-26T15:28:28Z</time></trkpt><trkpt lat="36.84798119571106" lon="15.028159485768198"><ele>57.0</ele><time>2026-03-26T15:28:29Z</time></trkpt><trkpt lat="36.84797485145413" lon="15.027979833002437"><ele>57.0</ele><time>2026-03-26T15:28:30Z</time></trkpt><trkpt lat="36.847965143499295" lon="15.027809732468922"><ele>57.0</ele><time>2026-03-26T15:28:31Z</time></trkpt><trkpt lat="36.84795595247608" lon="15.027656885833002"><ele>57.0</ele><time>2026-03-26T15:28:32Z</time></trkpt><trkpt lat="36.84794943821692" lon="15.027510651317224"><ele>57.0</ele><time>2026-03-26T15:28:33Z</time></trkpt><trkpt lat="36.847944016763236" lon="15.027368155852853"><ele>57.0</ele><time>2026-03-26T15:28:34Z</time></trkpt><trkpt lat="36.84794485212917" lon="15.027219656717014"><ele>57.0</ele><time>2026-03-26T15:28:35Z</time></trkpt><trkpt lat="36.84795417632888" lon="15.027059265205555"><ele>57.25</ele><time>2026-03-26T15:28:36Z</time></trkpt><trkpt lat="36.8479690058856" lon="15.026892519721274"><ele>57.5</ele><time>2026-03-26T15:28:37Z</time></trkpt><trkpt lat="36.84799316009923" lon="15.026718341925928"><ele>57.75</ele><time>2026-03-26T15:28:38Z</time></trkpt><trkpt lat="36.848023602826885" lon="15.026538870235237"><ele>58.0</ele><time>2026-03-26T15:28:39Z</time></trkpt><trkpt lat="36.848056935110705" lon="15.026364139479243"><ele>58.75</ele><time>2026-03-26T15:28:40Z</time></trkpt><trkpt lat="36.84808839286715" lon="15.026195769974677"><ele>59.5</ele><time>2026-03-26T15:28:41Z</time></trkpt><trkpt lat="36.84811938780761" lon="15.026036218330159"><ele>60.25</ele><time>2026-03-26T15:28:42Z</time></trkpt><trkpt lat="36.84814779502492" lon="15.025886638183447"><ele>61.0</ele><time>2026-03-26T15:28:43Z</time></trkpt><trkpt lat="36.84816970067103" lon="15.025734875899005"><ele>61.75</ele><time>2026-03-26T15:28:44Z</time></trkpt><trkpt lat="36.84819005690234" lon="15.025573272150426"><ele>62.5</ele><time>2026-03-26T15:28:45Z</time></trkpt><trkpt lat="36.84820997789636" lon="15.025403112394626"><ele>63.25</ele><time>2026-03-26T15:28:46Z</time></trkpt><trkpt lat="36.848222815660186" lon="15.02522591149661"><ele>64.0</ele><time>2026-03-26T15:28:47Z</time></trkpt><trkpt lat="36.84822596522334" lon="15.025053482116261"><ele>64.4</ele><time>2026-03-26T15:28:48Z</time></trkpt><trkpt lat="36.848220507461974" lon="15.02489264872264"><ele>64.80000000000001</ele><time>2026-03-26T15:28:49Z</time></trkpt><trkpt lat="36.84821282811873" lon="15.024744781255675"><ele>65.19999999999999</ele><time>2026-03-26T15:28:50Z</time></trkpt><trkpt lat="36.848209945282264" lon="15.024624470360395"><ele>65.6</ele><time>2026-03-26T15:28:51Z</time></trkpt><trkpt lat="36.848210932496535" lon="15.02452283411338"><ele>66.0</ele><time>2026-03-26T15:28:52Z</time></trkpt><trkpt lat="36.84821598002842" lon="15.02444254997806"><ele>66.0</ele><time>2026-03-26T15:28:53Z</time></trkpt><trkpt lat="36.84825545852462" lon="15.02434917907696"><ele>66.0</ele><time>2026-03-26T15:28:55Z</time></trkpt><trkpt lat="36.84838630426935" lon="15.024333407080288"><ele>66.0</ele><time>2026-03-26T15:28:58Z</time></trkpt><trkpt lat="36.84844943640378" lon="15.024353137032229"><ele>66.0</ele><time>2026-03-26T15:28:59Z</time></trkpt><trkpt lat="36.84851604241303" lon="15.02436583762752"><ele>66.0</ele><time>2026-03-26T15:29:00Z</time></trkpt><trkpt lat="36.84858409585671" lon="15.024376184680817"><ele>66.0</ele><time>2026-03-26T15:29:01Z</time></trkpt><trkpt lat="36.84866235166246" lon="15.024387644334082"><ele>67.0</ele><time>2026-03-26T15:29:02Z</time></trkpt><trkpt lat="36.848744133704834" lon="15.024399496149005"><ele>68.0</ele><time>2026-03-26T15:29:03Z</time></trkpt><trkpt lat="36.848824021071984" lon="15.024407841669571"><ele>69.0</ele><time>2026-03-26T15:29:04Z</time></trkpt><trkpt lat="36.84889277507121" lon="15.024416615850276"><ele>70.0</ele><time>2026-03-26T15:29:05Z</time></trkpt><trkpt lat="36.84895531041144" lon="15.024426303427225"><ele>71.0</ele><time>2026-03-26T15:29:06Z</time></trkpt><trkpt lat="36.84902059052876" lon="15.024441018649577"><ele>72.0</ele><time>2026-03-26T15:29:07Z</time></trkpt><trkpt lat="36.84909131483712" lon="15.024452025036414"><ele>73.0</ele><time>2026-03-26T15:29:08Z</time></trkpt><trkpt lat="36.84916215776756" lon="15.02446424504964"><ele>73.0</ele><time>2026-03-26T15:29:09Z</time></trkpt><trkpt lat="36.849224737211806" lon="15.02447515459272"><ele>73.0</ele><time>2026-03-26T15:29:10Z</time></trkpt><trkpt lat="36.84932042977583" lon="15.02449870843354"><ele>73.0</ele><time>2026-03-26T15:29:12Z</time></trkpt><trkpt lat="36.849413188516" lon="15.024531004985723"><ele>73.0</ele><time>2026-03-26T15:29:14Z</time></trkpt><trkpt lat="36.84953561103674" lon="15.024605693113513"><ele>73.0</ele><time>2026-03-26T15:29:16Z</time></trkpt><trkpt lat="36.849594601183796" lon="15.024651617795026"><ele>74.5</ele><time>2026-03-26T15:29:17Z</time></trkpt><trkpt lat="36.84965289072675" lon="15.024704107611841"><ele>76.0</ele><time>2026-03-26T15:29:18Z</time></trkpt><trkpt lat="36.849697351940904" lon="15.024781466968006"><ele>77.5</ele><time>2026-03-26T15:29:19Z</time></trkpt><trkpt lat="36.849753648042416" lon="15.02484494080304"><ele>79.0</ele><time>2026-03-26T15:29:20Z</time></trkpt><trkpt lat="36.84981487263591" lon="15.02491367624976"><ele>80.5</ele><time>2026-03-26T15:29:21Z</time></trkpt><trkpt lat="36.84988411109482" lon="15.024989773192772"><ele>82.0</ele><time>2026-03-26T15:29:22Z</time></trkpt><trkpt lat="36.84993951424906" lon="15.025050664535621"><ele>82.0</ele><time>2026-03-26T15:29:23Z</time></trkpt><trkpt lat="36.84999487902132" lon="15.025111552515979"><ele>82.0</ele><time>2026-03-26T15:29:24Z</time></trkpt><trkpt lat="36.85005875217485" lon="15.025181873300559"><ele>82.0</ele><time>2026-03-26T15:29:25Z</time></trkpt><trkpt lat="36.85012282132258" lon="15.02525240969665"><ele>82.0</ele><time>2026-03-26T15:29:26Z</time></trkpt><trkpt lat="36.85018631897914" lon="15.025320871070166"><ele>82.0</ele><time>2026-03-26T15:29:27Z</time></trkpt><trkpt lat="36.850255377977255" lon="15.025393754808041"><ele>82.0</ele><time>2026-03-26T15:29:28Z</time></trkpt><trkpt lat="36.850326557417695" lon="15.025468876440156"><ele>84.6</ele><time>2026-03-26T15:29:29Z</time></trkpt><trkpt lat="36.85039014953197" lon="15.02553559766775"><ele>87.19999999999999</ele><time>2026-03-26T15:29:30Z</time></trkpt><trkpt lat="36.85048779853411" lon="15.025637745879138"><ele>89.8</ele><time>2026-03-26T15:29:32Z</time></trkpt><trkpt lat="36.85058841152181" lon="15.025731956154383"><ele>92.4</ele><time>2026-03-26T15:29:34Z</time></trkpt><trkpt lat="36.8506921666442" lon="15.025689630396391"><ele>95.0</ele><time>2026-03-26T15:29:36Z</time></trkpt><trkpt lat="36.85072231488057" lon="15.025616650953863"><ele>95.0</ele><time>2026-03-26T15:29:37Z</time></trkpt><trkpt lat="36.85072054868684" lon="15.025519055348983"><ele>95.0</ele><time>2026-03-26T15:29:38Z</time></trkpt><trkpt lat="36.85069305518137" lon="15.025415555173717"><ele>95.0</ele><time>2026-03-26T15:29:39Z</time></trkpt><trkpt lat="36.85065719940593" lon="15.02531494034549"><ele>95.0</ele><time>2026-03-26T15:29:40Z</time></trkpt><trkpt lat="36.85062680768473" lon="15.025217221957995"><ele>95.0</ele><time>2026-03-26T15:29:41Z</time></trkpt><trkpt lat="36.85060774533948" lon="15.025079219393104"><ele>95.0</ele><time>2026-03-26T15:29:43Z</time></trkpt><trkpt lat="36.85060615348224" lon="15.024974929662546"><ele>95.0</ele><time>2026-03-26T15:29:45Z</time></trkpt><trkpt lat="36.85068704240243" lon="15.024945723414566"><ele>95.0</ele><time>2026-03-26T15:29:48Z</time></trkpt><trkpt lat="36.850708356064494" lon="15.025071620565983"><ele>95.0</ele><time>2026-03-26T15:29:50Z</time></trkpt><trkpt lat="36.850734711400904" lon="15.025219762188696"><ele>95.0</ele><time>2026-03-26T15:29:52Z</time></trkpt><trkpt lat="36.850749481999905" lon="15.025299226361183"><ele>95.0</ele><time>2026-03-26T15:29:53Z</time></trkpt><trkpt lat="36.850806938931726" lon="15.025394117518493"><ele>95.0</ele><time>2026-03-26T15:29:55Z</time></trkpt><trkpt lat="36.85090067235237" lon="15.025395742739063"><ele>95.0</ele><time>2026-03-26T15:29:57Z</time></trkpt><trkpt lat="36.850951699648164" lon="15.02534695246662"><ele>95.0</ele><time>2026-03-26T15:29:58Z</time></trkpt><trkpt lat="36.850971239893774" lon="15.025264053474285"><ele>95.0</ele><time>2026-03-26T15:29:59Z</time></trkpt><trkpt lat="36.85097120622127" lon="15.025116384479604"><ele>95.0</ele><time>2026-03-26T15:30:01Z</time></trkpt><trkpt lat="36.85097927175264" lon="15.02503783631855"><ele>95.0</ele><time>2026-03-26T15:30:02Z</time></trkpt><trkpt lat="36.85099653132409" lon="15.024958062091383"><ele>98.2</ele><time>2026-03-26T15:30:03Z</time></trkpt><trkpt lat="36.85103222153428" lon="15.024825864424887"><ele>101.4</ele><time>2026-03-26T15:30:05Z</time></trkpt><trkpt lat="36.85109901886612" lon="15.024741211700672"><ele>104.6</ele><time>2026-03-26T15:30:07Z</time></trkpt><trkpt lat="36.85121039986306" lon="15.024746988378535"><ele>107.8</ele><time>2026-03-26T15:30:08.999Z</time></trkpt><trkpt lat="36.85130442936549" lon="15.024843807405844"><ele>111.0</ele><time>2026-03-26T15:30:10.999Z</time></trkpt><trkpt lat="36.851293976314054" lon="15.02494495182783"><ele>111.0</ele><time>2026-03-26T15:30:11.999Z</time></trkpt><trkpt lat="36.851307041813506" lon="15.025055368291751"><ele>111.0</ele><time>2026-03-26T15:30:12.999Z</time></trkpt><trkpt lat="36.85132766388159" lon="15.02516937389521"><ele>111.0</ele><time>2026-03-26T15:30:13.999Z</time></trkpt><trkpt lat="36.85134946567535" lon="15.025285996273231"><ele>111.0</ele><time>2026-03-26T15:30:14.999Z</time></trkpt><trkpt lat="36.851371118533024" lon="15.025403437729826"><ele>111.0</ele><time>2026-03-26T15:30:15.999Z</time></trkpt><trkpt lat="36.85139183349351" lon="15.025517538083637"><ele>111.0</ele><time>2026-03-26T15:30:16.999Z</time></trkpt><trkpt lat="36.851412003459664" lon="15.02562863688255"><ele>111.0</ele><time>2026-03-26T15:30:17.999Z</time></trkpt><trkpt lat="36.85142820651975" lon="15.025717984108095"><ele>111.0</ele><time>2026-03-26T15:30:18.999Z</time></trkpt><trkpt lat="36.851444020335904" lon="15.025801617292032"><ele>111.0</ele><time>2026-03-26T15:30:20Z</time></trkpt><trkpt lat="36.8514626058625" lon="15.025886849776535"><ele>111.0</ele><time>2026-03-26T15:30:21Z</time></trkpt><trkpt lat="36.851510792741585" lon="15.026006112195594"><ele>111.0</ele><time>2026-03-26T15:30:23Z</time></trkpt><trkpt lat="36.851615806099446" lon="15.026007163279342"><ele>111.0</ele><time>2026-03-26T15:30:25Z</time></trkpt><trkpt lat="36.851652255016965" lon="15.025899190989707"><ele>111.0</ele><time>2026-03-26T15:30:26Z</time></trkpt><trkpt lat="36.8516668342828" lon="15.0257918492587"><ele>111.0</ele><time>2026-03-26T15:30:27Z</time></trkpt><trkpt lat="36.85167915100466" lon="15.02566962477438"><ele>111.0</ele><time>2026-03-26T15:30:28Z</time></trkpt><trkpt lat="36.85169936005637" lon="15.025547713028896"><ele>111.0</ele><time>2026-03-26T15:30:29Z</time></trkpt><trkpt lat="36.85173119705612" lon="15.025424852341697"><ele>111.0</ele><time>2026-03-26T15:30:30Z</time></trkpt><trkpt lat="36.85176345514546" lon="15.025323144208594"><ele>111.0</ele><time>2026-03-26T15:30:31Z</time></trkpt><trkpt lat="36.85178954042315" lon="15.025228482531974"><ele>111.0</ele><time>2026-03-26T15:30:32Z</time></trkpt><trkpt lat="36.85180969475501" lon="15.025122380983722"><ele>111.0</ele><time>2026-03-26T15:30:33Z</time></trkpt><trkpt lat="36.85182616832279" lon="15.025010090243034"><ele>111.0</ele><time>2026-03-26T15:30:34Z</time></trkpt><trkpt lat="36.85185282850046" lon="15.024895970389093"><ele>111.0</ele><time>2026-03-26T15:30:35Z</time></trkpt><trkpt lat="36.85187943022994" lon="15.024797005278689"><ele>113.16666666666667</ele><time>2026-03-26T15:30:36Z</time></trkpt><trkpt lat="36.85190926665754" lon="15.024698418687324"><ele>115.33333333333334</ele><time>2026-03-26T15:30:37Z</time></trkpt><trkpt lat="36.8519451347249" lon="15.024610045765263"><ele>117.5</ele><time>2026-03-26T15:30:38Z</time></trkpt><trkpt lat="36.85199441501607" lon="15.024526378541841"><ele>119.66666666666667</ele><time>2026-03-26T15:30:39Z</time></trkpt><trkpt lat="36.85205264295786" lon="15.024449544918149"><ele>121.83333333333334</ele><time>2026-03-26T15:30:40Z</time></trkpt><trkpt lat="36.85211408267743" lon="15.024382909219652"><ele>124.0</ele><time>2026-03-26T15:30:41Z</time></trkpt><trkpt lat="36.85217329449326" lon="15.02431641302316"><ele>124.0</ele><time>2026-03-26T15:30:42Z</time></trkpt><trkpt lat="36.85224546380251" lon="15.024266013475884"><ele>124.0</ele><time>2026-03-26T15:30:43Z</time></trkpt><trkpt lat="36.85232909569405" lon="15.024220248821324"><ele>124.0</ele><time>2026-03-26T15:30:44Z</time></trkpt><trkpt lat="36.852424478723925" lon="15.024209493340171"><ele>124.0</ele><time>2026-03-26T15:30:45Z</time></trkpt><trkpt lat="36.85252051925584" lon="15.024179316247444"><ele>124.0</ele><time>2026-03-26T15:30:46Z</time></trkpt><trkpt lat="36.85260879152741" lon="15.024169130737665"><ele>124.50000000000001</ele><time>2026-03-26T15:30:47Z</time></trkpt><trkpt lat="36.85268515025903" lon="15.024159567696103"><ele>125.0</ele><time>2026-03-26T15:30:48Z</time></trkpt><trkpt lat="36.85275383821191" lon="15.024144805487667"><ele>125.5</ele><time>2026-03-26T15:30:49Z</time></trkpt><trkpt lat="36.85281802540266" lon="15.024129058119769"><ele>126.0</ele><time>2026-03-26T15:30:50Z</time></trkpt><trkpt lat="36.85288534032323" lon="15.024125190683039"><ele>126.50000000000001</ele><time>2026-03-26T15:30:51Z</time></trkpt><trkpt lat="36.85294713133733" lon="15.024108336190231"><ele>127.0</ele><time>2026-03-26T15:30:52Z</time></trkpt><trkpt lat="36.85305428014208" lon="15.024088428249927"><ele>127.00000000000001</ele><time>2026-03-26T15:30:54Z</time></trkpt><trkpt lat="36.85315752017412" lon="15.024037745971627"><ele>127.0</ele><time>2026-03-26T15:30:56Z</time></trkpt><trkpt lat="36.85321182300329" lon="15.023996317312264"><ele>127.0</ele><time>2026-03-26T15:30:57Z</time></trkpt><trkpt lat="36.85326290497459" lon="15.023948536919283"><ele>127.0</ele><time>2026-03-26T15:30:58Z</time></trkpt><trkpt lat="36.85334633332709" lon="15.023874209110495"><ele>127.00000000000001</ele><time>2026-03-26T15:31:00Z</time></trkpt><trkpt lat="36.85343027441252" lon="15.023795024948004"><ele>127.0</ele><time>2026-03-26T15:31:02Z</time></trkpt><trkpt lat="36.85352603120915" lon="15.02373703664864"><ele>124.39999999999999</ele><time>2026-03-26T15:31:04Z</time></trkpt><trkpt lat="36.853617379851585" lon="15.023685995437996"><ele>121.79999999999998</ele><time>2026-03-26T15:31:06Z</time></trkpt><trkpt lat="36.8537111486399" lon="15.02362590605718"><ele>119.2</ele><time>2026-03-26T15:31:08Z</time></trkpt><trkpt lat="36.85379294400268" lon="15.023573185114133"><ele>116.6</ele><time>2026-03-26T15:31:10Z</time></trkpt><trkpt lat="36.853872838720136" lon="15.023522796124082"><ele>114.0</ele><time>2026-03-26T15:31:12Z</time></trkpt><trkpt lat="36.85394968307626" lon="15.023473739355214"><ele>114.0</ele><time>2026-03-26T15:31:14Z</time></trkpt><trkpt lat="36.85402452211068" lon="15.023431910008927"><ele>114.0</ele><time>2026-03-26T15:31:16Z</time></trkpt><trkpt lat="36.85409899093834" lon="15.02340320982046"><ele>114.0</ele><time>2026-03-26T15:31:18Z</time></trkpt><trkpt lat="36.85417246130224" lon="15.023386223324188"><ele>114.0</ele><time>2026-03-26T15:31:20Z</time></trkpt><trkpt lat="36.85425331686425" lon="15.023381645463369"><ele>114.0</ele><time>2026-03-26T15:31:22Z</time></trkpt><trkpt lat="36.854336513008576" lon="15.023397633993953"><ele>114.0</ele><time>2026-03-26T15:31:24Z</time></trkpt><trkpt lat="36.85441961741395" lon="15.023395828610672"><ele>113.4</ele><time>2026-03-26T15:31:26Z</time></trkpt><trkpt lat="36.85453473027427" lon="15.023400500914004"><ele>112.80000000000001</ele><time>2026-03-26T15:31:28Z</time></trkpt><trkpt lat="36.85464223222987" lon="15.023416902769588"><ele>112.19999999999999</ele><time>2026-03-26T15:31:30Z</time></trkpt><trkpt lat="36.85475053132552" lon="15.023432909736943"><ele>111.6</ele><time>2026-03-26T15:31:32Z</time></trkpt><trkpt lat="36.8548590531875" lon="15.02346288954231"><ele>111.0</ele><time>2026-03-26T15:31:34Z</time></trkpt><trkpt lat="36.854985162856224" lon="15.02350090763011"><ele>111.0</ele><time>2026-03-26T15:31:36Z</time></trkpt><trkpt lat="36.855110661938724" lon="15.023520117284592"><ele>111.0</ele><time>2026-03-26T15:31:38Z</time></trkpt><trkpt lat="36.85517826271905" lon="15.023523022641033"><ele>111.0</ele><time>2026-03-26T15:31:39Z</time></trkpt><trkpt lat="36.85524642582925" lon="15.0235243724525"><ele>111.0</ele><time>2026-03-26T15:31:40Z</time></trkpt><trkpt lat="36.85531720725269" lon="15.02352123155137"><ele>111.0</ele><time>2026-03-26T15:31:41Z</time></trkpt><trkpt lat="36.85538750383926" lon="15.023518481971378"><ele>111.0</ele><time>2026-03-26T15:31:42Z</time></trkpt><trkpt lat="36.85546050005486" lon="15.023511395793186"><ele>112.16666666666667</ele><time>2026-03-26T15:31:43Z</time></trkpt><trkpt lat="36.855541591306675" lon="15.02350294434037"><ele>113.33333333333334</ele><time>2026-03-26T15:31:44Z</time></trkpt><trkpt lat="36.85562573135843" lon="15.023496221016025"><ele>114.5</ele><time>2026-03-26T15:31:45Z</time></trkpt><trkpt lat="36.85570298449713" lon="15.023494465603372"><ele>115.66666666666667</ele><time>2026-03-26T15:31:46Z</time></trkpt><trkpt lat="36.85577199127501" lon="15.023497157941259"><ele>116.83333333333334</ele><time>2026-03-26T15:31:47Z</time></trkpt><trkpt lat="36.85584183914646" lon="15.023504806245963"><ele>118.0</ele><time>2026-03-26T15:31:48Z</time></trkpt><trkpt lat="36.85592585545508" lon="15.023523455543211"><ele>119.28571428571428</ele><time>2026-03-26T15:31:49Z</time></trkpt><trkpt lat="36.855997467152" lon="15.023540473230895"><ele>120.57142857142858</ele><time>2026-03-26T15:31:50Z</time></trkpt><trkpt lat="36.85606565124898" lon="15.02355870807677"><ele>121.85714285714286</ele><time>2026-03-26T15:31:51Z</time></trkpt><trkpt lat="36.856133162851215" lon="15.023578669562927"><ele>123.14285714285714</ele><time>2026-03-26T15:31:52Z</time></trkpt><trkpt lat="36.856207296290584" lon="15.023602783914496"><ele>124.42857142857142</ele><time>2026-03-26T15:31:53Z</time></trkpt><trkpt lat="36.85628459280833" lon="15.023618689620687"><ele>125.71428571428572</ele><time>2026-03-26T15:31:54Z</time></trkpt><trkpt lat="36.8563601295242" lon="15.023639708877413"><ele>127.0</ele><time>2026-03-26T15:31:55Z</time></trkpt><trkpt lat="36.85643253342365" lon="15.02365836826528"><ele>127.00000000000001</ele><time>2026-03-26T15:31:56Z</time></trkpt><trkpt lat="36.856498147397836" lon="15.023696597353782"><ele>127.0</ele><time>2026-03-26T15:31:57Z</time></trkpt><trkpt lat="36.856571274996575" lon="15.023698529507106"><ele>127.0</ele><time>2026-03-26T15:31:58Z</time></trkpt><trkpt lat="36.856651850258885" lon="15.023723864212121"><ele>127.0</ele><time>2026-03-26T15:31:59Z</time></trkpt><trkpt lat="36.85673111726148" lon="15.023746529443434"><ele>127.00000000000001</ele><time>2026-03-26T15:32:00Z</time></trkpt><trkpt lat="36.85680558971659" lon="15.023772837744913"><ele>127.0</ele><time>2026-03-26T15:32:01Z</time></trkpt><trkpt lat="36.85688231549481" lon="15.023797935744449"><ele>128.5</ele><time>2026-03-26T15:32:02Z</time></trkpt><trkpt lat="36.856955616899675" lon="15.023818623646479"><ele>130.0</ele><time>2026-03-26T15:32:03Z</time></trkpt><trkpt lat="36.857026685689114" lon="15.023836993867825"><ele>131.5</ele><time>2026-03-26T15:32:04Z</time></trkpt><trkpt lat="36.85709930250271" lon="15.02387875225592"><ele>133.0</ele><time>2026-03-26T15:32:05Z</time></trkpt><trkpt lat="36.85717326252598" lon="15.023901563371886"><ele>134.5</ele><time>2026-03-26T15:32:06Z</time></trkpt><trkpt lat="36.857250226704195" lon="15.023925301124383"><ele>136.0</ele><time>2026-03-26T15:32:07Z</time></trkpt><trkpt lat="36.85733120150799" lon="15.023950275781207"><ele>136.0</ele><time>2026-03-26T15:32:08Z</time></trkpt><trkpt lat="36.857409135925444" lon="15.023959882157047"><ele>136.0</ele><time>2026-03-26T15:32:09Z</time></trkpt><trkpt lat="36.857477669192534" lon="15.023985156693175"><ele>136.0</ele><time>2026-03-26T15:32:10Z</time></trkpt><trkpt lat="36.8575505836758" lon="15.02401081954023"><ele>136.0</ele><time>2026-03-26T15:32:11Z</time></trkpt><trkpt lat="36.85763212402978" lon="15.024033332994367"><ele>136.0</ele><time>2026-03-26T15:32:12Z</time></trkpt><trkpt lat="36.85770450301164" lon="15.024054937171766"><ele>136.0</ele><time>2026-03-26T15:32:12.999Z</time></trkpt><trkpt lat="36.85778698928822" lon="15.024068729955653"><ele>137.2</ele><time>2026-03-26T15:32:13.999Z</time></trkpt><trkpt lat="36.857881377146335" lon="15.024068547626008"><ele>138.39999999999998</ele><time>2026-03-26T15:32:14.999Z</time></trkpt><trkpt lat="36.85797713364587" lon="15.0240593848386"><ele>139.6</ele><time>2026-03-26T15:32:15.999Z</time></trkpt><trkpt lat="36.858085727640024" lon="15.024042574267723"><ele>140.79999999999998</ele><time>2026-03-26T15:32:16.999Z</time></trkpt><trkpt lat="36.85819713481814" lon="15.024029141385391"><ele>142.0</ele><time>2026-03-26T15:32:17.999Z</time></trkpt><trkpt lat="36.858306101302645" lon="15.02401043575728"><ele>142.0</ele><time>2026-03-26T15:32:18.999Z</time></trkpt><trkpt lat="36.85840160122467" lon="15.023996296069031"><ele>142.0</ele><time>2026-03-26T15:32:19.999Z</time></trkpt><trkpt lat="36.85849405052753" lon="15.023977533497199"><ele>142.0</ele><time>2026-03-26T15:32:20.999Z</time></trkpt><trkpt lat="36.85859936140245" lon="15.02393637896334"><ele>142.0</ele><time>2026-03-26T15:32:21.999Z</time></trkpt><trkpt lat="36.85871522331636" lon="15.02387679018536"><ele>142.0</ele><time>2026-03-26T15:32:22.999Z</time></trkpt><trkpt lat="36.85883527808874" lon="15.02379862807849"><ele>142.5</ele><time>2026-03-26T15:32:23.999Z</time></trkpt><trkpt lat="36.85896165477257" lon="15.023750151311841"><ele>143.0</ele><time>2026-03-26T15:32:24.999Z</time></trkpt><trkpt lat="36.85907459316307" lon="15.02369543355329"><ele>143.5</ele><time>2026-03-26T15:32:26Z</time></trkpt><trkpt lat="36.8591838074122" lon="15.023640863790792"><ele>144.0</ele><time>2026-03-26T15:32:27Z</time></trkpt><trkpt lat="36.859305866400035" lon="15.02363738168553"><ele>144.0</ele><time>2026-03-26T15:32:28Z</time></trkpt><trkpt lat="36.859432598648304" lon="15.023686251425882"><ele>144.0</ele><time>2026-03-26T15:32:29Z</time></trkpt><trkpt lat="36.859575565135984" lon="15.023744642418212"><ele>144.0</ele><time>2026-03-26T15:32:30Z</time></trkpt><trkpt lat="36.8597237452901" lon="15.023791856907476"><ele>144.0</ele><time>2026-03-26T15:32:31Z</time></trkpt><trkpt lat="36.85985776694941" lon="15.02385498595025"><ele>144.0</ele><time>2026-03-26T15:32:32Z</time></trkpt><trkpt lat="36.859987435512735" lon="15.023904168316832"><ele>144.0</ele><time>2026-03-26T15:32:33Z</time></trkpt><trkpt lat="36.86010748583546" lon="15.02393550641931"><ele>144.0</ele><time>2026-03-26T15:32:34Z</time></trkpt><trkpt lat="36.86022277021404" lon="15.02397572903357"><ele>144.0</ele><time>2026-03-26T15:32:35Z</time></trkpt><trkpt lat="36.860349818390254" lon="15.023978188322925"><ele>143.2</ele><time>2026-03-26T15:32:36Z</time></trkpt><trkpt lat="36.86046368774" lon="15.023981120263318"><ele>142.4</ele><time>2026-03-26T15:32:37Z</time></trkpt><trkpt lat="36.860564120268165" lon="15.023975542173105"><ele>141.6</ele><time>2026-03-26T15:32:38Z</time></trkpt><trkpt lat="36.86066085378684" lon="15.023951914384638"><ele>140.8</ele><time>2026-03-26T15:32:39Z</time></trkpt><trkpt lat="36.8607559177001" lon="15.023968274419188"><ele>140.0</ele><time>2026-03-26T15:32:40Z</time></trkpt><trkpt lat="36.86085194293457" lon="15.023976483905354"><ele>140.0</ele><time>2026-03-26T15:32:41Z</time></trkpt><trkpt lat="36.860944942545736" lon="15.023996257148985"><ele>140.0</ele><time>2026-03-26T15:32:42Z</time></trkpt><trkpt lat="36.86104402730486" lon="15.024024052371452"><ele>140.0</ele><time>2026-03-26T15:32:43Z</time></trkpt><trkpt lat="36.86114119103456" lon="15.024061987412702"><ele>140.0</ele><time>2026-03-26T15:32:44Z</time></trkpt><trkpt lat="36.861235585609364" lon="15.024104311550674"><ele>140.0</ele><time>2026-03-26T15:32:45Z</time></trkpt><trkpt lat="36.86132419420906" lon="15.024145978494198"><ele>138.28571428571428</ele><time>2026-03-26T15:32:46Z</time></trkpt><trkpt lat="36.861404679485744" lon="15.024186321357096"><ele>136.57142857142856</ele><time>2026-03-26T15:32:47Z</time></trkpt><trkpt lat="36.86147960593561" lon="15.024223877950782"><ele>134.85714285714286</ele><time>2026-03-26T15:32:48Z</time></trkpt><trkpt lat="36.861546713688746" lon="15.024256882624105"><ele>133.14285714285714</ele><time>2026-03-26T15:32:49Z</time></trkpt><trkpt lat="36.86161326914609" lon="15.024289225054984"><ele>131.42857142857142</ele><time>2026-03-26T15:32:50Z</time></trkpt><trkpt lat="36.861678227238684" lon="15.024319574346894"><ele>129.71428571428572</ele><time>2026-03-26T15:32:51Z</time></trkpt><trkpt lat="36.86174095143565" lon="15.024348014843323"><ele>128.0</ele><time>2026-03-26T15:32:52Z</time></trkpt><trkpt lat="36.86185990411683" lon="15.024395931061997"><ele>127.25</ele><time>2026-03-26T15:32:54Z</time></trkpt><trkpt lat="36.86198053078185" lon="15.024427209296437"><ele>126.5</ele><time>2026-03-26T15:32:56Z</time></trkpt><trkpt lat="36.862104660853255" lon="15.024430873696192"><ele>125.75</ele><time>2026-03-26T15:32:58Z</time></trkpt><trkpt lat="36.86222078905211" lon="15.024423150733455"><ele>125.0</ele><time>2026-03-26T15:33:00Z</time></trkpt><trkpt lat="36.86233405105421" lon="15.024411180322714"><ele>124.99999999999999</ele><time>2026-03-26T15:33:02Z</time></trkpt><trkpt lat="36.86244203546073" lon="15.024393775628932"><ele>125.0</ele><time>2026-03-26T15:33:04Z</time></trkpt><trkpt lat="36.86253296495848" lon="15.024371707899897"><ele>125.0</ele><time>2026-03-26T15:33:06Z</time></trkpt><trkpt lat="36.862604764768065" lon="15.024346229571224"><ele>125.0</ele><time>2026-03-26T15:33:08Z</time></trkpt><trkpt lat="36.86267290075981" lon="15.024317893419173"><ele>124.99999999999999</ele><time>2026-03-26T15:33:11Z</time></trkpt><trkpt lat="36.86276312321599" lon="15.024279519662278"><ele>125.0</ele><time>2026-03-26T15:36:08Z</time></trkpt><trkpt lat="36.86288009568859" lon="15.024308109868034"><ele>125.33333333333333</ele><time>2026-03-26T15:36:10Z</time></trkpt><trkpt lat="36.862941712595166" lon="15.024351273384289"><ele>125.66666666666666</ele><time>2026-03-26T15:36:11Z</time></trkpt><trkpt lat="36.863010286432896" lon="15.024389934862993"><ele>126.0</ele><time>2026-03-26T15:36:12Z</time></trkpt><trkpt lat="36.863092024322825" lon="15.0244132497806"><ele>126.33333333333334</ele><time>2026-03-26T15:36:13Z</time></trkpt><trkpt lat="36.863179029860255" lon="15.024436164765437"><ele>126.66666666666667</ele><time>2026-03-26T15:36:14Z</time></trkpt><trkpt lat="36.86326689087712" lon="15.024459082707677"><ele>127.0</ele><time>2026-03-26T15:36:15Z</time></trkpt><trkpt lat="36.86336306175225" lon="15.024475150787158"><ele>128.5</ele><time>2026-03-26T15:36:16Z</time></trkpt><trkpt lat="36.863465636946664" lon="15.024478325860871"><ele>130.0</ele><time>2026-03-26T15:36:17Z</time></trkpt><trkpt lat="36.86359493681821" lon="15.024454593006219"><ele>131.5</ele><time>2026-03-26T15:36:18Z</time></trkpt><trkpt lat="36.86374009621053" lon="15.0244202895179"><ele>133.0</ele><time>2026-03-26T15:36:19Z</time></trkpt><trkpt lat="36.86389254562316" lon="15.024381987382945"><ele>133.0</ele><time>2026-03-26T15:36:20Z</time></trkpt><trkpt lat="36.864050275746706" lon="15.024342182635468"><ele>133.0</ele><time>2026-03-26T15:36:20.999Z</time></trkpt><trkpt lat="36.864214250564736" lon="15.024299535299123"><ele>133.0</ele><time>2026-03-26T15:36:21.999Z</time></trkpt><trkpt lat="36.86438529512792" lon="15.024252422659707"><ele>133.0</ele><time>2026-03-26T15:36:22.999Z</time></trkpt><trkpt lat="36.86454962954954" lon="15.02420661547415"><ele>133.0</ele><time>2026-03-26T15:36:23.999Z</time></trkpt><trkpt lat="36.864709602936806" lon="15.02416640747349"><ele>133.0</ele><time>2026-03-26T15:36:24.999Z</time></trkpt><trkpt lat="36.86486385625582" lon="15.024129034613978"><ele>133.0</ele><time>2026-03-26T15:36:25.999Z</time></trkpt><trkpt lat="36.86501295418077" lon="15.024090477885435"><ele>133.0</ele><time>2026-03-26T15:36:26.999Z</time></trkpt><trkpt lat="36.865150405339975" lon="15.024057803025972"><ele>133.0</ele><time>2026-03-26T15:36:27.999Z</time></trkpt><trkpt lat="36.865287823116006" lon="15.024033073620716"><ele>133.0</ele><time>2026-03-26T15:36:28.999Z</time></trkpt><trkpt lat="36.865433886505535" lon="15.024025983645213"><ele>137.0</ele><time>2026-03-26T15:36:29.999Z</time></trkpt><trkpt lat="36.8655896909367" lon="15.024041580192007"><ele>141.0</ele><time>2026-03-26T15:36:30.999Z</time></trkpt><trkpt lat="36.865744797985045" lon="15.024078143714625"><ele>145.0</ele><time>2026-03-26T15:36:31.999Z</time></trkpt><trkpt lat="36.86589134752168" lon="15.024133718425134"><ele>143.66666666666669</ele><time>2026-03-26T15:36:32.999Z</time></trkpt><trkpt lat="36.86603172261696" lon="15.024201993160627"><ele>142.33333333333334</ele><time>2026-03-26T15:36:33.999Z</time></trkpt><trkpt lat="36.866172700642" lon="15.02428754070341"><ele>141.0</ele><time>2026-03-26T15:36:34.999Z</time></trkpt><trkpt lat="36.86631594910714" lon="15.024385799396764"><ele>141.0</ele><time>2026-03-26T15:36:35.999Z</time></trkpt><trkpt lat="36.866462634546004" lon="15.024477991135772"><ele>141.0</ele><time>2026-03-26T15:36:36.999Z</time></trkpt><trkpt lat="36.86659784890967" lon="15.02456180217657"><ele>141.0</ele><time>2026-03-26T15:36:38Z</time></trkpt><trkpt lat="36.866726718714084" lon="15.024645321982279"><ele>139.75</ele><time>2026-03-26T15:36:39Z</time></trkpt><trkpt lat="36.86684840798366" lon="15.024730608983042"><ele>138.5</ele><time>2026-03-26T15:36:40Z</time></trkpt><trkpt lat="36.86696830025926" lon="15.02481501516895"><ele>137.25</ele><time>2026-03-26T15:36:41Z</time></trkpt><trkpt lat="36.867092288201995" lon="15.024911026578065"><ele>136.0</ele><time>2026-03-26T15:36:42Z</time></trkpt><trkpt lat="36.86721358766407" lon="15.025020839236209"><ele>134.0</ele><time>2026-03-26T15:36:43Z</time></trkpt><trkpt lat="36.86732641748558" lon="15.025148162953547"><ele>132.0</ele><time>2026-03-26T15:36:44Z</time></trkpt><trkpt lat="36.86740946293838" lon="15.025307203766818"><ele>130.0</ele><time>2026-03-26T15:36:45Z</time></trkpt><trkpt lat="36.86750329636108" lon="15.025443056056382"><ele>128.0</ele><time>2026-03-26T15:36:46Z</time></trkpt><trkpt lat="36.86755344358634" lon="15.025604753188988"><ele>128.0</ele><time>2026-03-26T15:36:47Z</time></trkpt><trkpt lat="36.86760472347957" lon="15.025754108626343"><ele>128.0</ele><time>2026-03-26T15:36:48Z</time></trkpt><trkpt lat="36.86764274280968" lon="15.025899585867503"><ele>128.0</ele><time>2026-03-26T15:36:49Z</time></trkpt><trkpt lat="36.86766356272179" lon="15.02604284131314"><ele>128.0</ele><time>2026-03-26T15:36:50Z</time></trkpt><trkpt lat="36.86767490997828" lon="15.026180666086065"><ele>125.75</ele><time>2026-03-26T15:36:51Z</time></trkpt><trkpt lat="36.867677848079225" lon="15.02631119330153"><ele>123.5</ele><time>2026-03-26T15:36:52Z</time></trkpt><trkpt lat="36.86767602918022" lon="15.026463374293536"><ele>121.25</ele><time>2026-03-26T15:36:53Z</time></trkpt><trkpt lat="36.86766855280393" lon="15.026619607881548"><ele>119.0</ele><time>2026-03-26T15:36:54Z</time></trkpt><trkpt lat="36.86765859874983" lon="15.026768909264725"><ele>118.25</ele><time>2026-03-26T15:36:55Z</time></trkpt><trkpt lat="36.8676483772683" lon="15.026908043311584"><ele>117.5</ele><time>2026-03-26T15:36:56Z</time></trkpt><trkpt lat="36.867637342315135" lon="15.027058250434575"><ele>116.75</ele><time>2026-03-26T15:36:57Z</time></trkpt><trkpt lat="36.86762598127899" lon="15.02722239590946"><ele>116.0</ele><time>2026-03-26T15:36:58Z</time></trkpt><trkpt lat="36.86761576190206" lon="15.02738176601079"><ele>115.5</ele><time>2026-03-26T15:36:59Z</time></trkpt><trkpt lat="36.867606219923964" lon="15.02753108357726"><ele>115.0</ele><time>2026-03-26T15:37:00Z</time></trkpt><trkpt lat="36.86759654616559" lon="15.027682463331958"><ele>114.5</ele><time>2026-03-26T15:37:01Z</time></trkpt><trkpt lat="36.867587020180736" lon="15.027831530205738"><ele>114.0</ele><time>2026-03-26T15:37:02Z</time></trkpt><trkpt lat="36.867577520084005" lon="15.027980192440232"><ele>114.0</ele><time>2026-03-26T15:37:03Z</time></trkpt><trkpt lat="36.8675685262099" lon="15.02812093296446"><ele>114.0</ele><time>2026-03-26T15:37:04Z</time></trkpt><trkpt lat="36.86756008824924" lon="15.028252974194451"><ele>114.0</ele><time>2026-03-26T15:37:05Z</time></trkpt><trkpt lat="36.867552196160155" lon="15.028376473479389"><ele>114.0</ele><time>2026-03-26T15:37:06Z</time></trkpt><trkpt lat="36.867544551750505" lon="15.028496096931546"><ele>114.0</ele><time>2026-03-26T15:37:07Z</time></trkpt><trkpt lat="36.86753719763553" lon="15.028611177662553"><ele>113.83333333333333</ele><time>2026-03-26T15:37:08Z</time></trkpt><trkpt lat="36.86753077063943" lon="15.028711750441158"><ele>113.66666666666666</ele><time>2026-03-26T15:37:09Z</time></trkpt><trkpt lat="36.8675244386576" lon="15.02881083623814"><ele>113.5</ele><time>2026-03-26T15:37:10Z</time></trkpt><trkpt lat="36.86751746209612" lon="15.028920008890772"><ele>113.33333333333333</ele><time>2026-03-26T15:37:11Z</time></trkpt><trkpt lat="36.867523907771655" lon="15.029030632677916"><ele>113.16666666666666</ele><time>2026-03-26T15:37:12Z</time></trkpt><trkpt lat="36.86751481673908" lon="15.029130560537707"><ele>113.0</ele><time>2026-03-26T15:37:13Z</time></trkpt><trkpt lat="36.8674984149794" lon="15.029218067396995"><ele>113.0</ele><time>2026-03-26T15:37:14Z</time></trkpt><trkpt lat="36.8674931572061" lon="15.029300371197408"><ele>113.00000000000001</ele><time>2026-03-26T15:37:16Z</time></trkpt><trkpt lat="36.86763584310294" lon="15.029273844274279"><ele>113.00000000000001</ele><time>2026-03-26T15:37:19Z</time></trkpt><trkpt lat="36.86768427494222" lon="15.029129208494803"><ele>113.0</ele><time>2026-03-26T15:37:21Z</time></trkpt><trkpt lat="36.86770218911835" lon="15.029010062994596"><ele>113.0</ele><time>2026-03-26T15:37:22Z</time></trkpt><trkpt lat="36.86773630711161" lon="15.028909530313458"><ele>113.83333333333333</ele><time>2026-03-26T15:37:24Z</time></trkpt><trkpt lat="36.86775783563727" lon="15.028833055802352"><ele>114.66666666666666</ele><time>2026-03-26T15:37:26Z</time></trkpt><trkpt lat="36.867789267340775" lon="15.028747049673086"><ele>115.5</ele><time>2026-03-26T15:37:28Z</time></trkpt><trkpt lat="36.867824213562116" lon="15.028669271199712"><ele>116.33333333333334</ele><time>2026-03-26T15:37:29Z</time></trkpt><trkpt lat="36.86785737621578" lon="15.028568210500987"><ele>117.16666666666667</ele><time>2026-03-26T15:37:30Z</time></trkpt><trkpt lat="36.86789597517002" lon="15.02845866473437"><ele>118.0</ele><time>2026-03-26T15:37:31Z</time></trkpt><trkpt lat="36.8679383257429" lon="15.028343582559154"><ele>117.60000000000001</ele><time>2026-03-26T15:37:32Z</time></trkpt><trkpt lat="36.86798375323217" lon="15.02822100901258"><ele>117.20000000000002</ele><time>2026-03-26T15:37:33Z</time></trkpt><trkpt lat="36.86802782895173" lon="15.028100917216934"><ele>116.8</ele><time>2026-03-26T15:37:34Z</time></trkpt><trkpt lat="36.868073324212794" lon="15.027982414646848"><ele>116.4</ele><time>2026-03-26T15:37:35Z</time></trkpt><trkpt lat="36.86811906733389" lon="15.027862586479694"><ele>116.0</ele><time>2026-03-26T15:37:36Z</time></trkpt><trkpt lat="36.86816571731678" lon="15.027741202691868"><ele>116.0</ele><time>2026-03-26T15:37:37Z</time></trkpt><trkpt lat="36.86821112798119" lon="15.027612108349272"><ele>116.0</ele><time>2026-03-26T15:37:38Z</time></trkpt><trkpt lat="36.86825614553705" lon="15.027487377020414"><ele>116.0</ele><time>2026-03-26T15:37:39Z</time></trkpt><trkpt lat="36.868300918114514" lon="15.027364960906906"><ele>116.0</ele><time>2026-03-26T15:37:40Z</time></trkpt><trkpt lat="36.86834507531143" lon="15.027245526054696"><ele>116.0</ele><time>2026-03-26T15:37:41Z</time></trkpt><trkpt lat="36.8683893819368" lon="15.027122329553992"><ele>116.0</ele><time>2026-03-26T15:37:42Z</time></trkpt><trkpt lat="36.86843772348636" lon="15.026993667469338"><ele>116.0</ele><time>2026-03-26T15:37:43Z</time></trkpt><trkpt lat="36.868487198635336" lon="15.026864623771989"><ele>116.0</ele><time>2026-03-26T15:37:44Z</time></trkpt><trkpt lat="36.86853619135811" lon="15.026735895735875"><ele>116.0</ele><time>2026-03-26T15:37:45Z</time></trkpt><trkpt lat="36.86858220338132" lon="15.026609385003537"><ele>117.5</ele><time>2026-03-26T15:37:46Z</time></trkpt><trkpt lat="36.8686281737482" lon="15.02648419445889"><ele>119.0</ele><time>2026-03-26T15:37:47Z</time></trkpt><trkpt lat="36.8686764028487" lon="15.026359140503827"><ele>120.5</ele><time>2026-03-26T15:37:48Z</time></trkpt><trkpt lat="36.868729696588055" lon="15.026224829456165"><ele>122.0</ele><time>2026-03-26T15:37:49Z</time></trkpt><trkpt lat="36.868782754721465" lon="15.02608789265979"><ele>122.0</ele><time>2026-03-26T15:37:50Z</time></trkpt><trkpt lat="36.8688329355464" lon="15.02595121223005"><ele>122.0</ele><time>2026-03-26T15:37:51Z</time></trkpt><trkpt lat="36.86888014858149" lon="15.025817941602892"><ele>122.0</ele><time>2026-03-26T15:37:52Z</time></trkpt><trkpt lat="36.86892454415683" lon="15.025689967800803"><ele>122.0</ele><time>2026-03-26T15:37:53Z</time></trkpt><trkpt lat="36.86896895058529" lon="15.02556475526082"><ele>122.19999999999999</ele><time>2026-03-26T15:37:54Z</time></trkpt><trkpt lat="36.86901475664827" lon="15.025441182852568"><ele>122.39999999999999</ele><time>2026-03-26T15:37:55Z</time></trkpt><trkpt lat="36.869062694845084" lon="15.025317898947572"><ele>122.60000000000001</ele><time>2026-03-26T15:37:56Z</time></trkpt><trkpt lat="36.86911128243314" lon="15.025193418660162"><ele>122.80000000000001</ele><time>2026-03-26T15:37:57Z</time></trkpt><trkpt lat="36.869159235975374" lon="15.025069038422744"><ele>123.0</ele><time>2026-03-26T15:37:58Z</time></trkpt><trkpt lat="36.86920911927178" lon="15.024947432007368"><ele>123.5</ele><time>2026-03-26T15:37:59Z</time></trkpt><trkpt lat="36.869259228658315" lon="15.024842076910168"><ele>124.0</ele><time>2026-03-26T15:38:00Z</time></trkpt><trkpt lat="36.869305610438516" lon="15.02474786535032"><ele>124.5</ele><time>2026-03-26T15:38:01Z</time></trkpt><trkpt lat="36.8693441450736" lon="15.024651683157684"><ele>125.0</ele><time>2026-03-26T15:38:02Z</time></trkpt><trkpt lat="36.86936626697375" lon="15.024558726075128"><ele>125.5</ele><time>2026-03-26T15:38:03Z</time></trkpt><trkpt lat="36.869380326538696" lon="15.024449424908017"><ele>126.0</ele><time>2026-03-26T15:38:04Z</time></trkpt><trkpt lat="36.86938587085513" lon="15.02436582675829"><ele>126.6</ele><time>2026-03-26T15:38:05Z</time></trkpt><trkpt lat="36.86935718514121" lon="15.024239852298464"><ele>127.19999999999999</ele><time>2026-03-26T15:38:07Z</time></trkpt><trkpt lat="36.869314005773475" lon="15.024164041347923"><ele>127.80000000000001</ele><time>2026-03-26T15:38:08Z</time></trkpt><trkpt lat="36.86924208536292" lon="15.024089216367486"><ele>128.4</ele><time>2026-03-26T15:38:09Z</time></trkpt><trkpt lat="36.869155466189135" lon="15.024017504122718"><ele>129.0</ele><time>2026-03-26T15:38:10Z</time></trkpt><trkpt lat="36.86905808311995" lon="15.023969039975315"><ele>129.0</ele><time>2026-03-26T15:38:11Z</time></trkpt><trkpt lat="36.86898248732242" lon="15.023934101849607"><ele>129.0</ele><time>2026-03-26T15:38:12Z</time></trkpt><trkpt lat="36.86890543046206" lon="15.023916343790718"><ele>129.0</ele><time>2026-03-26T15:38:13Z</time></trkpt><trkpt lat="36.868829741470634" lon="15.02391375233185"><ele>129.0</ele><time>2026-03-26T15:38:14Z</time></trkpt><trkpt lat="36.868743360949004" lon="15.023921088653541"><ele>129.0</ele><time>2026-03-26T15:38:15Z</time></trkpt><trkpt lat="36.86865374384289" lon="15.02393756341211"><ele>129.0</ele><time>2026-03-26T15:38:16Z</time></trkpt><trkpt lat="36.8685658668121" lon="15.023955966872535"><ele>129.0</ele><time>2026-03-26T15:38:17Z</time></trkpt><trkpt lat="36.86850232628767" lon="15.023970364365407"><ele>129.0</ele><time>2026-03-26T15:38:18Z</time></trkpt><trkpt lat="36.86840080999272" lon="15.023993366698392"><ele>129.0</ele><time>2026-03-26T15:38:20Z</time></trkpt><trkpt lat="36.86833521851905" lon="15.024008391519786"><ele>129.0</ele><time>2026-03-26T15:38:21Z</time></trkpt><trkpt lat="36.86826672899265" lon="15.02402435849548"><ele>129.0</ele><time>2026-03-26T15:38:22Z</time></trkpt><trkpt lat="36.86819693451228" lon="15.024040629719709"><ele>129.0</ele><time>2026-03-26T15:38:23Z</time></trkpt><trkpt lat="36.86812364662263" lon="15.024057715334948"><ele>128.8</ele><time>2026-03-26T15:38:24Z</time></trkpt><trkpt lat="36.8680493820518" lon="15.0240750286441"><ele>128.60000000000002</ele><time>2026-03-26T15:38:25Z</time></trkpt><trkpt lat="36.86797668613781" lon="15.024091976254459"><ele>128.4</ele><time>2026-03-26T15:38:26Z</time></trkpt><trkpt lat="36.867861697083775" lon="15.024117888027853"><ele>128.20000000000002</ele><time>2026-03-26T15:38:28Z</time></trkpt><trkpt lat="36.867795960139624" lon="15.024147585161284"><ele>128.0</ele><time>2026-03-26T15:38:30.999Z</time></trkpt><trkpt lat="36.86791602604003" lon="15.024106911542194"><ele>129.8</ele><time>2026-03-26T15:38:44Z</time></trkpt><trkpt lat="36.868020471801636" lon="15.024086136084838"><ele>131.60000000000002</ele><time>2026-03-26T15:38:46Z</time></trkpt><trkpt lat="36.86809801094625" lon="15.024078074604034"><ele>133.39999999999998</ele><time>2026-03-26T15:38:48Z</time></trkpt><trkpt lat="36.86817439425771" lon="15.024050852400475"><ele>135.2</ele><time>2026-03-26T15:38:50Z</time></trkpt><trkpt lat="36.86826779770027" lon="15.0240447782723"><ele>137.0</ele><time>2026-03-26T15:38:52Z</time></trkpt><trkpt lat="36.868385869728" lon="15.024008217691822"><ele>135.66666666666666</ele><time>2026-03-26T15:38:54Z</time></trkpt><trkpt lat="36.86846289433184" lon="15.023989931269956"><ele>134.33333333333331</ele><time>2026-03-26T15:38:55Z</time></trkpt><trkpt lat="36.86854597099213" lon="15.024002652416685"><ele>133.0</ele><time>2026-03-26T15:38:56Z</time></trkpt><trkpt lat="36.868629049550016" lon="15.023984721406725"><ele>131.66666666666666</ele><time>2026-03-26T15:38:57Z</time></trkpt><trkpt lat="36.86871485893388" lon="15.023967790282818"><ele>130.33333333333334</ele><time>2026-03-26T15:38:58Z</time></trkpt><trkpt lat="36.86880444922044" lon="15.023956909365047"><ele>129.0</ele><time>2026-03-26T15:38:59Z</time></trkpt><trkpt lat="36.86889085087936" lon="15.023955247668347"><ele>129.0</ele><time>2026-03-26T15:39:00Z</time></trkpt><trkpt lat="36.86895784163428" lon="15.023968876855015"><ele>129.0</ele><time>2026-03-26T15:39:01Z</time></trkpt><trkpt lat="36.869030085968056" lon="15.023994573073486"><ele>129.0</ele><time>2026-03-26T15:39:02Z</time></trkpt><trkpt lat="36.86911129464635" lon="15.024032771618323"><ele>129.0</ele><time>2026-03-26T15:39:03Z</time></trkpt><trkpt lat="36.86919028451979" lon="15.024077056613054"><ele>129.0</ele><time>2026-03-26T15:39:04Z</time></trkpt><trkpt lat="36.869245793474064" lon="15.024125872475901"><ele>129.0</ele><time>2026-03-26T15:39:05Z</time></trkpt><trkpt lat="36.86931118736776" lon="15.02420206545538"><ele>130.0</ele><time>2026-03-26T15:39:07Z</time></trkpt><trkpt lat="36.86943251502945" lon="15.024121618784509"><ele>131.0</ele><time>2026-03-26T15:39:09Z</time></trkpt><trkpt lat="36.86947843834647" lon="15.024043393025625"><ele>132.0</ele><time>2026-03-26T15:39:10Z</time></trkpt><trkpt lat="36.86952975313002" lon="15.023957481243077"><ele>133.0</ele><time>2026-03-26T15:39:11Z</time></trkpt><trkpt lat="36.86961893564538" lon="15.023940792795273"><ele>134.0</ele><time>2026-03-26T15:39:13Z</time></trkpt><trkpt lat="36.86970497506259" lon="15.023967582460312"><ele>134.0</ele><time>2026-03-26T15:39:15Z</time></trkpt><trkpt lat="36.86981116231734" lon="15.023958670684054"><ele>134.0</ele><time>2026-03-26T15:39:17Z</time></trkpt><trkpt lat="36.86993742697925" lon="15.023906631193757"><ele>134.0</ele><time>2026-03-26T15:39:19Z</time></trkpt><trkpt lat="36.86999050795575" lon="15.023813220240411"><ele>134.0</ele><time>2026-03-26T15:39:20Z</time></trkpt><trkpt lat="36.87001839827051" lon="15.023725141872726"><ele>134.0</ele><time>2026-03-26T15:39:21Z</time></trkpt><trkpt lat="36.87006918547123" lon="15.023619162322476"><ele>136.25</ele><time>2026-03-26T15:39:22Z</time></trkpt><trkpt lat="36.87014061148849" lon="15.023482896766138"><ele>138.5</ele><time>2026-03-26T15:39:23Z</time></trkpt><trkpt lat="36.870210453106985" lon="15.023357082083242"><ele>140.75</ele><time>2026-03-26T15:39:24Z</time></trkpt><trkpt lat="36.870273549103985" lon="15.02323956283449"><ele>143.0</ele><time>2026-03-26T15:39:25Z</time></trkpt><trkpt lat="36.87033118537284" lon="15.023127875833717"><ele>143.0</ele><time>2026-03-26T15:39:26Z</time></trkpt><trkpt lat="36.87037960732488" lon="15.023032132735292"><ele>143.0</ele><time>2026-03-26T15:39:27Z</time></trkpt><trkpt lat="36.87042814482391" lon="15.022940873565307"><ele>143.0</ele><time>2026-03-26T15:39:28Z</time></trkpt><trkpt lat="36.870484891587694" lon="15.022841501081299"><ele>143.0</ele><time>2026-03-26T15:39:29Z</time></trkpt><trkpt lat="36.870547733082645" lon="15.022723543040485"><ele>143.0</ele><time>2026-03-26T15:39:30Z</time></trkpt><trkpt lat="36.87060704220757" lon="15.02260606911456"><ele>143.0</ele><time>2026-03-26T15:39:31Z</time></trkpt><trkpt lat="36.87065881850528" lon="15.022508005152693"><ele>143.0</ele><time>2026-03-26T15:39:32Z</time></trkpt><trkpt lat="36.87071115637757" lon="15.022416199816337"><ele>143.0</ele><time>2026-03-26T15:39:33Z</time></trkpt><trkpt lat="36.870767064111476" lon="15.022313662928704"><ele>143.0</ele><time>2026-03-26T15:39:34Z</time></trkpt><trkpt lat="36.87082466788055" lon="15.022207566854899"><ele>143.0</ele><time>2026-03-26T15:39:35Z</time></trkpt><trkpt lat="36.87088591922826" lon="15.022101200714"><ele>145.4</ele><time>2026-03-26T15:39:36Z</time></trkpt><trkpt lat="36.87095202061023" lon="15.021989196346546"><ele>147.8</ele><time>2026-03-26T15:39:37Z</time></trkpt><trkpt lat="36.871027076166406" lon="15.021868735366082"><ele>150.2</ele><time>2026-03-26T15:39:38Z</time></trkpt><trkpt lat="36.87109115542608" lon="15.021755483868263"><ele>152.6</ele><time>2026-03-26T15:39:39Z</time></trkpt><trkpt lat="36.871138728166805" lon="15.021655497635999"><ele>155.0</ele><time>2026-03-26T15:39:40Z</time></trkpt><trkpt lat="36.87117383528481" lon="15.021557188852386"><ele>155.4</ele><time>2026-03-26T15:39:41Z</time></trkpt><trkpt lat="36.87119621887473" lon="15.021430627290638"><ele>155.8</ele><time>2026-03-26T15:39:42Z</time></trkpt><trkpt lat="36.871196050217804" lon="15.021300505701943"><ele>156.2</ele><time>2026-03-26T15:39:43Z</time></trkpt><trkpt lat="36.87119317502168" lon="15.021212524055764"><ele>156.6</ele><time>2026-03-26T15:39:44Z</time></trkpt><trkpt lat="36.87122529844151" lon="15.02108824556158"><ele>157.0</ele><time>2026-03-26T15:39:46Z</time></trkpt><trkpt lat="36.87132479630418" lon="15.021079962193852"><ele>157.0</ele><time>2026-03-26T15:39:48Z</time></trkpt><trkpt lat="36.87138859351233" lon="15.021065994256977"><ele>157.0</ele><time>2026-03-26T15:39:49Z</time></trkpt><trkpt lat="36.87145439520784" lon="15.021055270972044"><ele>157.0</ele><time>2026-03-26T15:39:50Z</time></trkpt><trkpt lat="36.87155361884912" lon="15.021021513254714"><ele>157.0</ele><time>2026-03-26T15:39:52Z</time></trkpt><trkpt lat="36.87168213178008" lon="15.021005360932296"><ele>157.0</ele><time>2026-03-26T15:39:54Z</time></trkpt><trkpt lat="36.8717508717823" lon="15.02099819690954"><ele>157.0</ele><time>2026-03-26T15:39:55Z</time></trkpt><trkpt lat="36.871819522245346" lon="15.020988401012739"><ele>156.66666666666669</ele><time>2026-03-26T15:39:56Z</time></trkpt><trkpt lat="36.8718915420766" lon="15.020991554980544"><ele>156.33333333333334</ele><time>2026-03-26T15:39:57Z</time></trkpt><trkpt lat="36.871967619160785" lon="15.020982452978325"><ele>156.0</ele><time>2026-03-26T15:39:58Z</time></trkpt><trkpt lat="36.872036775056294" lon="15.020948342291533"><ele>155.66666666666666</ele><time>2026-03-26T15:39:59Z</time></trkpt><trkpt lat="36.87209770543799" lon="15.020896920718101"><ele>155.33333333333331</ele><time>2026-03-26T15:40:00Z</time></trkpt><trkpt lat="36.872159159004944" lon="15.020865049128666"><ele>155.0</ele><time>2026-03-26T15:40:01Z</time></trkpt><trkpt lat="36.87230166256043" lon="15.020806160310137"><ele>155.4</ele><time>2026-03-26T15:40:03Z</time></trkpt><trkpt lat="36.87239580218481" lon="15.020759510686334"><ele>155.8</ele><time>2026-03-26T15:40:04Z</time></trkpt><trkpt lat="36.87250482559703" lon="15.020760429323387"><ele>156.2</ele><time>2026-03-26T15:40:05Z</time></trkpt><trkpt lat="36.8725969262118" lon="15.02075541455119"><ele>156.6</ele><time>2026-03-26T15:40:06Z</time></trkpt><trkpt lat="36.872681993327724" lon="15.020750836641584"><ele>157.0</ele><time>2026-03-26T15:40:07Z</time></trkpt><trkpt lat="36.872776213245565" lon="15.020732671896774"><ele>157.0</ele><time>2026-03-26T15:40:08Z</time></trkpt><trkpt lat="36.872875033934804" lon="15.020724559070638"><ele>157.0</ele><time>2026-03-26T15:40:09Z</time></trkpt><trkpt lat="36.87297495409844" lon="15.020715350920668"><ele>157.0</ele><time>2026-03-26T15:40:10Z</time></trkpt><trkpt lat="36.87307242057009" lon="15.02069415674749"><ele>157.0</ele><time>2026-03-26T15:40:11Z</time></trkpt><trkpt lat="36.87317039479668" lon="15.020679016834906"><ele>157.0</ele><time>2026-03-26T15:40:12Z</time></trkpt><trkpt lat="36.873268852865245" lon="15.020670992974617"><ele>157.0</ele><time>2026-03-26T15:40:13Z</time></trkpt><trkpt lat="36.87335141549079" lon="15.020637920006246"><ele>157.0</ele><time>2026-03-26T15:40:14Z</time></trkpt><trkpt lat="36.87342068626638" lon="15.020601013171127"><ele>157.0</ele><time>2026-03-26T15:40:15Z</time></trkpt><trkpt lat="36.8734902267374" lon="15.020575021710002"><ele>157.0</ele><time>2026-03-26T15:40:16Z</time></trkpt><trkpt lat="36.87357176851468" lon="15.02053831317167"><ele>157.0</ele><time>2026-03-26T15:40:17Z</time></trkpt><trkpt lat="36.87366632987045" lon="15.020483187853227"><ele>157.0</ele><time>2026-03-26T15:40:18Z</time></trkpt><trkpt lat="36.873760209018855" lon="15.020424835669347"><ele>155.83333333333334</ele><time>2026-03-26T15:40:19Z</time></trkpt><trkpt lat="36.87384002251236" lon="15.020370351879695"><ele>154.66666666666669</ele><time>2026-03-26T15:40:20Z</time></trkpt><trkpt lat="36.8739053962656" lon="15.020324040036234"><ele>153.5</ele><time>2026-03-26T15:40:21Z</time></trkpt><trkpt lat="36.87397237224193" lon="15.020276242512782"><ele>152.33333333333334</ele><time>2026-03-26T15:40:22Z</time></trkpt><trkpt lat="36.87404607315412" lon="15.02022128386868"><ele>151.16666666666666</ele><time>2026-03-26T15:40:23Z</time></trkpt><trkpt lat="36.87412583211897" lon="15.020161721764156"><ele>150.0</ele><time>2026-03-26T15:40:24Z</time></trkpt><trkpt lat="36.87422140983465" lon="15.020118555805189"><ele>150.33333333333334</ele><time>2026-03-26T15:40:25Z</time></trkpt><trkpt lat="36.874307204936386" lon="15.020065796727895"><ele>150.66666666666666</ele><time>2026-03-26T15:40:26Z</time></trkpt><trkpt lat="36.87438976099383" lon="15.020020458158077"><ele>151.0</ele><time>2026-03-26T15:40:27Z</time></trkpt><trkpt lat="36.87446458175586" lon="15.019985564883548"><ele>151.33333333333331</ele><time>2026-03-26T15:40:28Z</time></trkpt><trkpt lat="36.87453098127588" lon="15.019967831842465"><ele>151.66666666666666</ele><time>2026-03-26T15:40:29Z</time></trkpt><trkpt lat="36.87459806762279" lon="15.019951724123164"><ele>152.0</ele><time>2026-03-26T15:40:30Z</time></trkpt><trkpt lat="36.87466508709656" lon="15.019944736921982"><ele>152.0</ele><time>2026-03-26T15:40:31Z</time></trkpt><trkpt lat="36.87475335767816" lon="15.019941401492327"><ele>152.0</ele><time>2026-03-26T15:40:32Z</time></trkpt><trkpt lat="36.874851468218885" lon="15.019941245747617"><ele>152.0</ele><time>2026-03-26T15:40:33Z</time></trkpt><trkpt lat="36.8749504885136" lon="15.019941877379104"><ele>152.0</ele><time>2026-03-26T15:40:34Z</time></trkpt><trkpt lat="36.87504546548565" lon="15.019939455768125"><ele>152.0</ele><time>2026-03-26T15:40:35Z</time></trkpt><trkpt lat="36.87514969366436" lon="15.019944991851782"><ele>152.25</ele><time>2026-03-26T15:40:36Z</time></trkpt><trkpt lat="36.875262085316564" lon="15.019943284036295"><ele>152.5</ele><time>2026-03-26T15:40:36.999Z</time></trkpt><trkpt lat="36.87538066604851" lon="15.019963933529016"><ele>152.75</ele><time>2026-03-26T15:40:37.999Z</time></trkpt><trkpt lat="36.87551528527877" lon="15.01996591578084"><ele>153.0</ele><time>2026-03-26T15:40:38.999Z</time></trkpt><trkpt lat="36.8756515818579" lon="15.019955246934751"><ele>153.0</ele><time>2026-03-26T15:40:39.999Z</time></trkpt><trkpt lat="36.87575662826561" lon="15.019956867541486"><ele>153.0</ele><time>2026-03-26T15:40:40.999Z</time></trkpt><trkpt lat="36.875852398976626" lon="15.01994698819455"><ele>153.0</ele><time>2026-03-26T15:40:41.999Z</time></trkpt><trkpt lat="36.87593737053569" lon="15.019960974488114"><ele>153.0</ele><time>2026-03-26T15:40:42.999Z</time></trkpt><trkpt lat="36.87603110151103" lon="15.019981181000793"><ele>153.0</ele><time>2026-03-26T15:40:43.999Z</time></trkpt><trkpt lat="36.87612821657301" lon="15.020016572928421"><ele>151.20000000000002</ele><time>2026-03-26T15:40:44.999Z</time></trkpt><trkpt lat="36.87622257357398" lon="15.020061092635702"><ele>149.4</ele><time>2026-03-26T15:40:45.999Z</time></trkpt><trkpt lat="36.87630416821512" lon="15.020119009838629"><ele>147.60000000000002</ele><time>2026-03-26T15:40:46.999Z</time></trkpt><trkpt lat="36.87637441175389" lon="15.020161650381793"><ele>145.8</ele><time>2026-03-26T15:40:47.999Z</time></trkpt><trkpt lat="36.87650776410403" lon="15.020198452648458"><ele>144.0</ele><time>2026-03-26T15:40:50Z</time></trkpt><trkpt lat="36.876608124153904" lon="15.02022163944114"><ele>144.0</ele><time>2026-03-26T15:40:51Z</time></trkpt><trkpt lat="36.8767213225193" lon="15.020243718920788"><ele>144.0</ele><time>2026-03-26T15:40:52Z</time></trkpt><trkpt lat="36.87683118863906" lon="15.020262740203401"><ele>144.0</ele><time>2026-03-26T15:40:53Z</time></trkpt><trkpt lat="36.876941244710395" lon="15.020281793495895"><ele>144.0</ele><time>2026-03-26T15:40:54Z</time></trkpt><trkpt lat="36.87704602678114" lon="15.020288713666641"><ele>144.0</ele><time>2026-03-26T15:40:55Z</time></trkpt><trkpt lat="36.87713822164783" lon="15.020305836421839"><ele>142.6</ele><time>2026-03-26T15:40:56Z</time></trkpt><trkpt lat="36.87723140160212" lon="15.020312716086567"><ele>141.2</ele><time>2026-03-26T15:40:57Z</time></trkpt><trkpt lat="36.877335692244344" lon="15.020339572837553"><ele>139.79999999999998</ele><time>2026-03-26T15:40:58Z</time></trkpt><trkpt lat="36.877446092632646" lon="15.020358641779533"><ele>138.4</ele><time>2026-03-26T15:40:59Z</time></trkpt><trkpt lat="36.87754787155748" lon="15.020381146523935"><ele>137.0</ele><time>2026-03-26T15:41:00Z</time></trkpt><trkpt lat="36.877648634769876" lon="15.020404890504846"><ele>136.6</ele><time>2026-03-26T15:41:01Z</time></trkpt><trkpt lat="36.87774855824029" lon="15.020429314373557"><ele>136.2</ele><time>2026-03-26T15:41:02Z</time></trkpt><trkpt lat="36.877829616505764" lon="15.020451454492074"><ele>135.8</ele><time>2026-03-26T15:41:03Z</time></trkpt><trkpt lat="36.87794587505924" lon="15.020484470396298"><ele>135.4</ele><time>2026-03-26T15:41:05Z</time></trkpt><trkpt lat="36.87804940004366" lon="15.020515812748643"><ele>135.0</ele><time>2026-03-26T15:41:07Z</time></trkpt><trkpt lat="36.878111129629296" lon="15.020534743006845"><ele>135.0</ele><time>2026-03-26T15:41:08Z</time></trkpt><trkpt lat="36.87817975671197" lon="15.020556726052842"><ele>135.0</ele><time>2026-03-26T15:41:09Z</time></trkpt><trkpt lat="36.87824565594507" lon="15.02057783530062"><ele>135.0</ele><time>2026-03-26T15:41:10Z</time></trkpt><trkpt lat="36.87834776343025" lon="15.020613287549923"><ele>135.0</ele><time>2026-03-26T15:41:12Z</time></trkpt><trkpt lat="36.878452326594854" lon="15.020650413262125"><ele>135.0</ele><time>2026-03-26T15:41:14Z</time></trkpt><trkpt lat="36.87852444310974" lon="15.020676018647544"><ele>135.0</ele><time>2026-03-26T15:41:16Z</time></trkpt><trkpt lat="36.8785934007959" lon="15.020703904733539"><ele>135.0</ele><time>2026-03-26T15:41:19Z</time></trkpt><trkpt lat="36.87867054685388" lon="15.020745836224709"><ele>135.0</ele><time>2026-03-26T15:41:22Z</time></trkpt><trkpt lat="36.878738696857" lon="15.020790111014756"><ele>135.0</ele><time>2026-03-26T15:41:27Z</time></trkpt><trkpt lat="36.87881359409465" lon="15.020842784377441"><ele>135.0</ele><time>2026-03-26T15:41:32Z</time></trkpt><trkpt lat="36.87888766563886" lon="15.020897809547098"><ele>135.0</ele><time>2026-03-26T15:41:35Z</time></trkpt><trkpt lat="36.87894493553068" lon="15.020942264219508"><ele>135.0</ele><time>2026-03-26T15:41:46Z</time></trkpt><trkpt lat="36.87902359034856" lon="15.02100631863683"><ele>135.0</ele><time>2026-03-26T15:41:49Z</time></trkpt><trkpt lat="36.87909275879926" lon="15.021048475338052"><ele>135.0</ele><time>2026-03-26T15:41:51Z</time></trkpt><trkpt lat="36.87916830955222" lon="15.021113518772975"><ele>135.0</ele><time>2026-03-26T15:41:53Z</time></trkpt><trkpt lat="36.87924360363758" lon="15.021171583349382"><ele>135.0</ele><time>2026-03-26T15:41:55Z</time></trkpt><trkpt lat="36.879304286657685" lon="15.021226561463669"><ele>135.0</ele><time>2026-03-26T15:41:57Z</time></trkpt><trkpt lat="36.879372824787374" lon="15.021291448542957"><ele>135.0</ele><time>2026-03-26T15:41:59Z</time></trkpt><trkpt lat="36.87944548445709" lon="15.02137649916052"><ele>135.4</ele><time>2026-03-26T15:42:02Z</time></trkpt><trkpt lat="36.87951940739899" lon="15.02143400420845"><ele>135.8</ele><time>2026-03-26T15:42:04Z</time></trkpt><trkpt lat="36.87959427238635" lon="15.021514912953977"><ele>136.2</ele><time>2026-03-26T15:42:06Z</time></trkpt><trkpt lat="36.87968416196275" lon="15.021588301558795"><ele>136.6</ele><time>2026-03-26T15:42:08Z</time></trkpt><trkpt lat="36.87978528826478" lon="15.021666658228899"><ele>137.0</ele><time>2026-03-26T15:42:10Z</time></trkpt><trkpt lat="36.87988212549462" lon="15.02174169151517"><ele>137.2</ele><time>2026-03-26T15:42:12Z</time></trkpt><trkpt lat="36.8799665865754" lon="15.021807135337413"><ele>137.39999999999998</ele><time>2026-03-26T15:42:14Z</time></trkpt><trkpt lat="36.88005060373174" lon="15.021871773691458"><ele>137.60000000000002</ele><time>2026-03-26T15:42:16Z</time></trkpt><trkpt lat="36.880139400055796" lon="15.021939514143849"><ele>137.8</ele><time>2026-03-26T15:42:18Z</time></trkpt><trkpt lat="36.880223745112346" lon="15.02200385878211"><ele>138.0</ele><time>2026-03-26T15:42:20Z</time></trkpt><trkpt lat="36.88027863486652" lon="15.022045732781516"><ele>138.4</ele><time>2026-03-26T15:42:21Z</time></trkpt><trkpt lat="36.8803374218187" lon="15.022090579836318"><ele>138.8</ele><time>2026-03-26T15:42:22Z</time></trkpt><trkpt lat="36.88042742711137" lon="15.022159242548422"><ele>139.2</ele><time>2026-03-26T15:42:24Z</time></trkpt><trkpt lat="36.880510099569214" lon="15.022199499164085"><ele>139.6</ele><time>2026-03-26T15:42:26Z</time></trkpt><trkpt lat="36.88059307911738" lon="15.022287398330004"><ele>140.0</ele><time>2026-03-26T15:42:29Z</time></trkpt><trkpt lat="36.88067384648299" lon="15.022362332221697"><ele>140.0</ele><time>2026-03-26T15:42:31Z</time></trkpt><trkpt lat="36.8807595395637" lon="15.0223779860343"><ele>140.0</ele><time>2026-03-26T15:42:33Z</time></trkpt><trkpt lat="36.88085614358307" lon="15.022460872434081"><ele>140.0</ele><time>2026-03-26T15:42:35Z</time></trkpt><trkpt lat="36.88094293332702" lon="15.022550848341789"><ele>140.0</ele><time>2026-03-26T15:42:37Z</time></trkpt><trkpt lat="36.881025846675605" lon="15.022638919582121"><ele>140.0</ele><time>2026-03-26T15:42:39Z</time></trkpt><trkpt lat="36.881102996025064" lon="15.022720868238668"><ele>140.5</ele><time>2026-03-26T15:42:41Z</time></trkpt><trkpt lat="36.88121592841947" lon="15.022815730945153"><ele>141.0</ele><time>2026-03-26T15:42:43Z</time></trkpt><trkpt lat="36.881296861029156" lon="15.022926793189125"><ele>141.5</ele><time>2026-03-26T15:42:44.999Z</time></trkpt><trkpt lat="36.8813717123295" lon="15.02300630084745"><ele>142.0</ele><time>2026-03-26T15:42:46.999Z</time></trkpt><trkpt lat="36.88145837737505" lon="15.023098357135913"><ele>142.0</ele><time>2026-03-26T15:42:48.999Z</time></trkpt><trkpt lat="36.88154615198716" lon="15.023191591981586"><ele>142.0</ele><time>2026-03-26T15:42:50.999Z</time></trkpt><trkpt lat="36.88159675051891" lon="15.023245338028193"><ele>142.0</ele><time>2026-03-26T15:42:51.999Z</time></trkpt><trkpt lat="36.88164857744568" lon="15.023300389232327"><ele>142.0</ele><time>2026-03-26T15:42:53.999Z</time></trkpt><trkpt lat="36.88175558731177" lon="15.023414055983404"><ele>142.0</ele><time>2026-03-26T15:43:14Z</time></trkpt><trkpt lat="36.88184381427191" lon="15.023482420995657"><ele>143.4</ele><time>2026-03-26T15:43:15Z</time></trkpt><trkpt lat="36.88191722587333" lon="15.02355782906635"><ele>144.79999999999998</ele><time>2026-03-26T15:43:16Z</time></trkpt><trkpt lat="36.88199857485637" lon="15.023619437324374"><ele>146.2</ele><time>2026-03-26T15:43:17Z</time></trkpt><trkpt lat="36.882091302119825" lon="15.023661438789096"><ele>147.6</ele><time>2026-03-26T15:43:18Z</time></trkpt><trkpt lat="36.88218954298692" lon="15.02372258255229"><ele>149.0</ele><time>2026-03-26T15:43:19Z</time></trkpt><trkpt lat="36.88229608783133" lon="15.023759739332688"><ele>149.0</ele><time>2026-03-26T15:43:20Z</time></trkpt><trkpt lat="36.88239246628591" lon="15.023786911328457"><ele>149.0</ele><time>2026-03-26T15:43:21Z</time></trkpt><trkpt lat="36.88248629430193" lon="15.023804662761373"><ele>149.0</ele><time>2026-03-26T15:43:22Z</time></trkpt><trkpt lat="36.882579168121104" lon="15.02379792481794"><ele>149.0</ele><time>2026-03-26T15:43:23Z</time></trkpt><trkpt lat="36.88267456673172" lon="15.023785297571992"><ele>149.0</ele><time>2026-03-26T15:43:24Z</time></trkpt><trkpt lat="36.882777114099774" lon="15.023755747325467"><ele>150.5</ele><time>2026-03-26T15:43:25Z</time></trkpt><trkpt lat="36.88286830564277" lon="15.023742875540078"><ele>152.0</ele><time>2026-03-26T15:43:26Z</time></trkpt><trkpt lat="36.882962537755034" lon="15.023733162656006"><ele>153.5</ele><time>2026-03-26T15:43:27Z</time></trkpt><trkpt lat="36.88305191477709" lon="15.023727248669227"><ele>155.0</ele><time>2026-03-26T15:43:28Z</time></trkpt><trkpt lat="36.88313635736531" lon="15.023705519257689"><ele>156.5</ele><time>2026-03-26T15:43:29Z</time></trkpt><trkpt lat="36.8832088773056" lon="15.02366153983743"><ele>158.0</ele><time>2026-03-26T15:43:30Z</time></trkpt><trkpt lat="36.88327577815002" lon="15.023613066041053"><ele>158.00000000000003</ele><time>2026-03-26T15:43:31Z</time></trkpt><trkpt lat="36.88334923721282" lon="15.023610192263208"><ele>158.0</ele><time>2026-03-26T15:43:32Z</time></trkpt><trkpt lat="36.88342088256992" lon="15.02359696586927"><ele>158.0</ele><time>2026-03-26T15:43:33Z</time></trkpt><trkpt lat="36.88349521384061" lon="15.023588780049907"><ele>158.0</ele><time>2026-03-26T15:43:34Z</time></trkpt><trkpt lat="36.88356626100382" lon="15.023594436291033"><ele>158.0</ele><time>2026-03-26T15:43:35Z</time></trkpt><trkpt lat="36.883638323794436" lon="15.023611439808523"><ele>158.00000000000003</ele><time>2026-03-26T15:43:36Z</time></trkpt><trkpt lat="36.88369501993817" lon="15.02364565650562"><ele>158.0</ele><time>2026-03-26T15:43:37Z</time></trkpt><trkpt lat="36.88378937195704" lon="15.02370712099604"><ele>159.5</ele><time>2026-03-26T15:43:39Z</time></trkpt><trkpt lat="36.88384327784363" lon="15.02374855675199"><ele>161.0</ele><time>2026-03-26T15:43:40Z</time></trkpt><trkpt lat="36.88390015215452" lon="15.023793526058931"><ele>162.5</ele><time>2026-03-26T15:43:41Z</time></trkpt><trkpt lat="36.883954975474914" lon="15.023836874067996"><ele>164.0</ele><time>2026-03-26T15:43:42Z</time></trkpt><trkpt lat="36.88404708842634" lon="15.023909720309366"><ele>165.5</ele><time>2026-03-26T15:43:44Z</time></trkpt><trkpt lat="36.88413979200869" lon="15.023983033770605"><ele>167.0</ele><time>2026-03-26T15:43:46Z</time></trkpt><trkpt lat="36.88423636691732" lon="15.024057520031723"><ele>170.25</ele><time>2026-03-26T15:43:48Z</time></trkpt><trkpt lat="36.884355892341524" lon="15.024117445328764"><ele>173.5</ele><time>2026-03-26T15:43:50Z</time></trkpt><trkpt lat="36.88448005432453" lon="15.02413302895819"><ele>176.75</ele><time>2026-03-26T15:43:52Z</time></trkpt><trkpt lat="36.884607634249626" lon="15.02414236017641"><ele>180.0</ele><time>2026-03-26T15:43:54Z</time></trkpt><trkpt lat="36.884697190923006" lon="15.02414553829708"><ele>180.0</ele><time>2026-03-26T15:43:56Z</time></trkpt><trkpt lat="36.884778785939176" lon="15.024148433881598"><ele>180.0</ele><time>2026-03-26T15:43:59Z</time></trkpt><trkpt lat="36.88484199878617" lon="15.02414291150479"><ele>180.0</ele><time>2026-03-26T15:44:03Z</time></trkpt><trkpt lat="36.88490427118492" lon="15.023941895293245"><ele>180.0</ele><time>2026-03-26T15:44:33Z</time></trkpt><trkpt lat="36.88499050122289" lon="15.02383839521411"><ele>180.0</ele><time>2026-03-26T15:44:35Z</time></trkpt><trkpt lat="36.885031412482284" lon="15.023774843692525"><ele>180.0</ele><time>2026-03-26T15:44:36Z</time></trkpt><trkpt lat="36.885076558526535" lon="15.023718679793948"><ele>180.0</ele><time>2026-03-26T15:44:37Z</time></trkpt><trkpt lat="36.88509962959057" lon="15.023542037577625"><ele>180.0</ele><time>2026-03-26T15:44:39Z</time></trkpt><trkpt lat="36.88509043951866" lon="15.023425163181882"><ele>180.0</ele><time>2026-03-26T15:44:40Z</time></trkpt><trkpt lat="36.885069829819685" lon="15.023282954492569"><ele>180.0</ele><time>2026-03-26T15:44:41Z</time></trkpt><trkpt lat="36.88505804482658" lon="15.023167463485226"><ele>179.0</ele><time>2026-03-26T15:44:42Z</time></trkpt><trkpt lat="36.8850600233016" lon="15.023067956974506"><ele>178.0</ele><time>2026-03-26T15:44:43Z</time></trkpt><trkpt lat="36.885083220818345" lon="15.022955896683769"><ele>177.0</ele><time>2026-03-26T15:44:44Z</time></trkpt><trkpt lat="36.88512095676402" lon="15.0228264588615"><ele>176.0</ele><time>2026-03-26T15:44:45Z</time></trkpt><trkpt lat="36.88517652537875" lon="15.022681342264882"><ele>175.0</ele><time>2026-03-26T15:44:46Z</time></trkpt><trkpt lat="36.88524547143521" lon="15.022536742322984"><ele>176.2</ele><time>2026-03-26T15:44:46.999Z</time></trkpt><trkpt lat="36.8853123597695" lon="15.022415654296424"><ele>177.4</ele><time>2026-03-26T15:44:47.999Z</time></trkpt><trkpt lat="36.885373794405474" lon="15.022295974099638"><ele>178.60000000000002</ele><time>2026-03-26T15:44:48.999Z</time></trkpt><trkpt lat="36.88542726312314" lon="15.022180703371177"><ele>179.8</ele><time>2026-03-26T15:44:49.999Z</time></trkpt><trkpt lat="36.885472108322205" lon="15.022069990955895"><ele>181.0</ele><time>2026-03-26T15:44:50.999Z</time></trkpt><trkpt lat="36.88551450660936" lon="15.021969038848685"><ele>181.0</ele><time>2026-03-26T15:44:51.999Z</time></trkpt><trkpt lat="36.88555948015555" lon="15.021864545429196"><ele>181.0</ele><time>2026-03-26T15:44:52.999Z</time></trkpt><trkpt lat="36.88561356976786" lon="15.021732804449332"><ele>181.0</ele><time>2026-03-26T15:44:53.999Z</time></trkpt><trkpt lat="36.88567206815421" lon="15.02158017492696"><ele>181.0</ele><time>2026-03-26T15:44:54.999Z</time></trkpt><trkpt lat="36.88572994884118" lon="15.021437848180337"><ele>180.4</ele><time>2026-03-26T15:44:55.999Z</time></trkpt><trkpt lat="36.88578765055169" lon="15.021313603681945"><ele>179.8</ele><time>2026-03-26T15:44:56.999Z</time></trkpt><trkpt lat="36.88584995466883" lon="15.021194580616394"><ele>179.20000000000002</ele><time>2026-03-26T15:44:57.999Z</time></trkpt><trkpt lat="36.88590364978951" lon="15.021076087380068"><ele>178.60000000000002</ele><time>2026-03-26T15:44:58.999Z</time></trkpt><trkpt lat="36.88595635174449" lon="15.020965063133668"><ele>178.0</ele><time>2026-03-26T15:44:59.999Z</time></trkpt><trkpt lat="36.88599199318835" lon="15.020859290666662"><ele>176.60000000000002</ele><time>2026-03-26T15:45:01Z</time></trkpt><trkpt lat="36.886014614201" lon="15.020754318783291"><ele>175.20000000000002</ele><time>2026-03-26T15:45:02Z</time></trkpt><trkpt lat="36.88603615504487" lon="15.020666750983759"><ele>173.8</ele><time>2026-03-26T15:45:03Z</time></trkpt><trkpt lat="36.88608699154067" lon="15.020530765135144"><ele>172.4</ele><time>2026-03-26T15:45:05Z</time></trkpt><trkpt lat="36.886187443062454" lon="15.02044736920117"><ele>171.0</ele><time>2026-03-26T15:45:07Z</time></trkpt><trkpt lat="36.88625628613899" lon="15.020398986528946"><ele>171.0</ele><time>2026-03-26T15:45:08Z</time></trkpt><trkpt lat="36.88632593658421" lon="15.020349660889298"><ele>171.0</ele><time>2026-03-26T15:45:09Z</time></trkpt><trkpt lat="36.886406854502184" lon="15.020352002552361"><ele>171.0</ele><time>2026-03-26T15:45:10Z</time></trkpt><trkpt lat="36.88649660706814" lon="15.020281578915586"><ele>171.0</ele><time>2026-03-26T15:45:12Z</time></trkpt><trkpt lat="36.88654716940765" lon="15.020179950377447"><ele>171.0</ele><time>2026-03-26T15:45:14Z</time></trkpt><trkpt lat="36.88655013774462" lon="15.020097243170513"><ele>171.0</ele><time>2026-03-26T15:45:15Z</time></trkpt><trkpt lat="36.886532639807356" lon="15.020005283902012"><ele>170.33333333333334</ele><time>2026-03-26T15:45:16Z</time></trkpt><trkpt lat="36.88648220639617" lon="15.019909086578515"><ele>169.66666666666666</ele><time>2026-03-26T15:45:17Z</time></trkpt><trkpt lat="36.88641589755723" lon="15.019800697015345"><ele>169.0</ele><time>2026-03-26T15:45:18Z</time></trkpt><trkpt lat="36.88635618372918" lon="15.019710232268535"><ele>168.33333333333331</ele><time>2026-03-26T15:45:19Z</time></trkpt><trkpt lat="36.88630499824143" lon="15.019632844257597"><ele>167.66666666666666</ele><time>2026-03-26T15:45:20Z</time></trkpt><trkpt lat="36.88625991601731" lon="15.019568774786846"><ele>167.0</ele><time>2026-03-26T15:45:21Z</time></trkpt><trkpt lat="36.886219290656825" lon="15.01945733885157"><ele>167.0</ele><time>2026-03-26T15:45:23Z</time></trkpt><trkpt lat="36.88622753004063" lon="15.019377899804862"><ele>167.0</ele><time>2026-03-26T15:45:24Z</time></trkpt><trkpt lat="36.88626744755265" lon="15.019272819822246"><ele>167.0</ele><time>2026-03-26T15:45:25Z</time></trkpt><trkpt lat="36.886326806383934" lon="15.019144709344104"><ele>167.0</ele><time>2026-03-26T15:45:26Z</time></trkpt><trkpt lat="36.88638481070015" lon="15.019017115658775"><ele>167.0</ele><time>2026-03-26T15:45:27Z</time></trkpt><trkpt lat="36.88643198183843" lon="15.01889888815827"><ele>165.66666666666666</ele><time>2026-03-26T15:45:28Z</time></trkpt><trkpt lat="36.886471035377326" lon="15.018790873705417"><ele>164.33333333333331</ele><time>2026-03-26T15:45:29Z</time></trkpt><trkpt lat="36.88650028872824" lon="15.01869699928873"><ele>163.0</ele><time>2026-03-26T15:45:30Z</time></trkpt><trkpt lat="36.88653171656743" lon="15.018605363100086"><ele>161.66666666666666</ele><time>2026-03-26T15:45:31Z</time></trkpt><trkpt lat="36.88657168436313" lon="15.018517748543209"><ele>160.33333333333334</ele><time>2026-03-26T15:45:32Z</time></trkpt><trkpt lat="36.886606330822225" lon="15.018434617243834"><ele>159.0</ele><time>2026-03-26T15:45:33Z</time></trkpt><trkpt lat="36.886654495609214" lon="15.018352576603068"><ele>159.0</ele><time>2026-03-26T15:45:34Z</time></trkpt><trkpt lat="36.886707182063" lon="15.018277826163919"><ele>159.0</ele><time>2026-03-26T15:45:35Z</time></trkpt><trkpt lat="36.88675368845556" lon="15.018208483996982"><ele>159.0</ele><time>2026-03-26T15:45:36Z</time></trkpt><trkpt lat="36.8867954050615" lon="15.018145647429296"><ele>159.0</ele><time>2026-03-26T15:45:37Z</time></trkpt><trkpt lat="36.886836843213246" lon="15.018084659132107"><ele>159.0</ele><time>2026-03-26T15:45:38Z</time></trkpt><trkpt lat="36.88687699535468" lon="15.018018024259323"><ele>159.0</ele><time>2026-03-26T15:45:39Z</time></trkpt><trkpt lat="36.88692217231814" lon="15.017942519885132"><ele>159.0</ele><time>2026-03-26T15:45:40Z</time></trkpt><trkpt lat="36.886962460706215" lon="15.017873134604255"><ele>159.0</ele><time>2026-03-26T15:45:41Z</time></trkpt><trkpt lat="36.8870295624134" lon="15.017775285913222"><ele>159.0</ele><time>2026-03-26T15:45:43Z</time></trkpt><trkpt lat="36.88709404394693" lon="15.017704551295838"><ele>159.0</ele><time>2026-03-26T15:45:45Z</time></trkpt><trkpt lat="36.887161801291136" lon="15.017635522486747"><ele>159.0</ele><time>2026-03-26T15:45:47Z</time></trkpt><trkpt lat="36.88722983503949" lon="15.017562490938927"><ele>159.0</ele><time>2026-03-26T15:45:49Z</time></trkpt><trkpt lat="36.88731441674427" lon="15.017448920965478"><ele>159.0</ele><time>2026-03-26T15:45:51Z</time></trkpt><trkpt lat="36.88738501384481" lon="15.017357745249964"><ele>159.0</ele><time>2026-03-26T15:45:53Z</time></trkpt><trkpt lat="36.88746694919729" lon="15.017275098759303"><ele>159.0</ele><time>2026-03-26T15:45:55Z</time></trkpt><trkpt lat="36.88756534398917" lon="15.017178459240274"><ele>159.0</ele><time>2026-03-26T15:45:57Z</time></trkpt><trkpt lat="36.887621419698206" lon="15.017088323922147"><ele>159.0</ele><time>2026-03-26T15:45:59Z</time></trkpt><trkpt lat="36.887637776096085" lon="15.016938594091027"><ele>159.2</ele><time>2026-03-26T15:46:01Z</time></trkpt><trkpt lat="36.887609359372696" lon="15.01677855626964"><ele>159.4</ele><time>2026-03-26T15:46:03Z</time></trkpt><trkpt lat="36.887618115852895" lon="15.01669799045196"><ele>159.6</ele><time>2026-03-26T15:46:04Z</time></trkpt><trkpt lat="36.8876358627299" lon="15.016619846820909"><ele>159.8</ele><time>2026-03-26T15:46:05Z</time></trkpt><trkpt lat="36.88762595744889" lon="15.01652373350651"><ele>160.0</ele><time>2026-03-26T15:46:07Z</time></trkpt><trkpt lat="36.88746168572887" lon="15.016480439315377"><ele>161.0</ele><time>2026-03-26T15:47:59Z</time></trkpt><trkpt lat="36.887368742665274" lon="15.016530962094421"><ele>162.0</ele><time>2026-03-26T15:48:01Z</time></trkpt><trkpt lat="36.88730136049952" lon="15.016562370141772"><ele>163.0</ele><time>2026-03-26T15:48:04Z</time></trkpt><trkpt lat="36.88726029471091" lon="15.016421689474464"><ele>164.0</ele><time>2026-03-26T15:48:09Z</time></trkpt><trkpt lat="36.887302708115264" lon="15.016338969794619"><ele>165.0</ele><time>2026-03-26T15:48:10Z</time></trkpt><trkpt lat="36.887332723086345" lon="15.016209620159097"><ele>165.0</ele><time>2026-03-26T15:48:12Z</time></trkpt><trkpt lat="36.887360607726876" lon="15.016058425197661"><ele>165.0</ele><time>2026-03-26T15:48:14Z</time></trkpt><trkpt lat="36.88737137404877" lon="15.015958696696261"><ele>165.0</ele><time>2026-03-26T15:48:15Z</time></trkpt><trkpt lat="36.887371468933125" lon="15.015828227200203"><ele>165.0</ele><time>2026-03-26T15:48:16Z</time></trkpt><trkpt lat="36.88735863421395" lon="15.015677933088941"><ele>165.0</ele><time>2026-03-26T15:48:17Z</time></trkpt><trkpt lat="36.88734284420265" lon="15.01553111209153"><ele>166.0</ele><time>2026-03-26T15:48:18Z</time></trkpt><trkpt lat="36.8873339007492" lon="15.01538959437501"><ele>167.0</ele><time>2026-03-26T15:48:19Z</time></trkpt><trkpt lat="36.88732498460109" lon="15.015259473153083"><ele>168.0</ele><time>2026-03-26T15:48:20Z</time></trkpt><trkpt lat="36.8873126824515" lon="15.01512687984854"><ele>169.0</ele><time>2026-03-26T15:48:21Z</time></trkpt><trkpt lat="36.887311410807946" lon="15.014988521673114"><ele>170.0</ele><time>2026-03-26T15:48:22Z</time></trkpt><trkpt lat="36.88732712149728" lon="15.014842276921192"><ele>173.0</ele><time>2026-03-26T15:48:23Z</time></trkpt><trkpt lat="36.887353566448326" lon="15.014697735836982"><ele>176.0</ele><time>2026-03-26T15:48:24Z</time></trkpt><trkpt lat="36.88736636357077" lon="15.014548596307966"><ele>179.0</ele><time>2026-03-26T15:48:25Z</time></trkpt><trkpt lat="36.8873684205839" lon="15.0143975266673"><ele>182.0</ele><time>2026-03-26T15:48:26Z</time></trkpt><trkpt lat="36.88735962693889" lon="15.01425196673063"><ele>184.75</ele><time>2026-03-26T15:48:27Z</time></trkpt><trkpt lat="36.88735135712293" lon="15.014103944996767"><ele>187.5</ele><time>2026-03-26T15:48:28Z</time></trkpt><trkpt lat="36.88736380472314" lon="15.013958729991531"><ele>190.25</ele><time>2026-03-26T15:48:29Z</time></trkpt><trkpt lat="36.887397134719905" lon="15.013809852135376"><ele>193.0</ele><time>2026-03-26T15:48:30Z</time></trkpt><trkpt lat="36.88743901333232" lon="15.013652547958703"><ele>193.0</ele><time>2026-03-26T15:48:31Z</time></trkpt><trkpt lat="36.88747366429787" lon="15.013501898919689"><ele>193.0</ele><time>2026-03-26T15:48:32Z</time></trkpt><trkpt lat="36.887504399160306" lon="15.013351047915446"><ele>193.0</ele><time>2026-03-26T15:48:33Z</time></trkpt><trkpt lat="36.887534892017534" lon="15.013202400404197"><ele>193.0</ele><time>2026-03-26T15:48:34Z</time></trkpt><trkpt lat="36.88756712992876" lon="15.013061289690906"><ele>193.33333333333331</ele><time>2026-03-26T15:48:35Z</time></trkpt><trkpt lat="36.88759445290602" lon="15.012948970014836"><ele>193.66666666666666</ele><time>2026-03-26T15:48:36Z</time></trkpt><trkpt lat="36.887614418129246" lon="15.012851806961402"><ele>194.0</ele><time>2026-03-26T15:48:37Z</time></trkpt><trkpt lat="36.88762852577254" lon="15.012769125995437"><ele>194.33333333333331</ele><time>2026-03-26T15:48:38Z</time></trkpt><trkpt lat="36.887642758247445" lon="15.012691968154764"><ele>194.66666666666666</ele><time>2026-03-26T15:48:39Z</time></trkpt><trkpt lat="36.88766295743817" lon="15.01260254069539"><ele>195.0</ele><time>2026-03-26T15:48:40Z</time></trkpt><trkpt lat="36.887682686617566" lon="15.012506781526264"><ele>197.0</ele><time>2026-03-26T15:48:41Z</time></trkpt><trkpt lat="36.88770181403459" lon="15.012397772255023"><ele>199.0</ele><time>2026-03-26T15:48:42Z</time></trkpt><trkpt lat="36.88772259284106" lon="15.012288246918937"><ele>201.0</ele><time>2026-03-26T15:48:43Z</time></trkpt><trkpt lat="36.88774874780216" lon="15.012208588132028"><ele>203.0</ele><time>2026-03-26T15:48:44Z</time></trkpt><trkpt lat="36.88778324185147" lon="15.012075555795722"><ele>205.0</ele><time>2026-03-26T15:48:46Z</time></trkpt><trkpt lat="36.887802599771405" lon="15.011996372240338"><ele>207.0</ele><time>2026-03-26T15:48:47Z</time></trkpt><trkpt lat="36.887822194679956" lon="15.011914332188221"><ele>207.0</ele><time>2026-03-26T15:48:48Z</time></trkpt><trkpt lat="36.887854634435065" lon="15.011789805905073"><ele>207.0</ele><time>2026-03-26T15:48:50Z</time></trkpt><trkpt lat="36.88787717879637" lon="15.011708880382624"><ele>207.0</ele><time>2026-03-26T15:48:52Z</time></trkpt><trkpt lat="36.88790700641522" lon="15.011619528493657"><ele>207.0</ele><time>2026-03-26T15:48:54Z</time></trkpt><trkpt lat="36.88793775088321" lon="15.011518198646325"><ele>207.0</ele><time>2026-03-26T15:48:56.999Z</time></trkpt><trkpt lat="36.88796590329863" lon="15.011433951000166"><ele>207.0</ele><time>2026-03-26T15:48:59.999Z</time></trkpt><trkpt lat="36.88799049110827" lon="15.01130598746473"><ele>207.6</ele><time>2026-03-26T15:49:02.999Z</time></trkpt><trkpt lat="36.88800132641071" lon="15.011150459202502"><ele>208.2</ele><time>2026-03-26T15:49:04.999Z</time></trkpt><trkpt lat="36.887989409462236" lon="15.011010443289983"><ele>208.8</ele><time>2026-03-26T15:49:06.999Z</time></trkpt><trkpt lat="36.887955977936684" lon="15.010940135561704"><ele>209.4</ele><time>2026-03-26T15:49:07.999Z</time></trkpt><trkpt lat="36.88791057064554" lon="15.010862564758224"><ele>210.0</ele><time>2026-03-26T15:49:08.999Z</time></trkpt><trkpt lat="36.887855265404326" lon="15.010777494153071"><ele>211.2</ele><time>2026-03-26T15:49:09.999Z</time></trkpt><trkpt lat="36.88780259084098" lon="15.010677949736188"><ele>212.4</ele><time>2026-03-26T15:49:10.999Z</time></trkpt><trkpt lat="36.88776430756732" lon="15.010552627302806"><ele>213.60000000000002</ele><time>2026-03-26T15:49:12Z</time></trkpt><trkpt lat="36.887727937571476" lon="15.010429228036116"><ele>214.8</ele><time>2026-03-26T15:49:13Z</time></trkpt><trkpt lat="36.88766966355177" lon="15.01031566655309"><ele>216.0</ele><time>2026-03-26T15:49:14Z</time></trkpt><trkpt lat="36.88760714890679" lon="15.010214594205591"><ele>216.0</ele><time>2026-03-26T15:49:15Z</time></trkpt><trkpt lat="36.88754409276274" lon="15.010120332035697"><ele>216.00000000000003</ele><time>2026-03-26T15:49:16Z</time></trkpt><trkpt lat="36.887460402550865" lon="15.010052498591083"><ele>216.00000000000003</ele><time>2026-03-26T15:49:17Z</time></trkpt><trkpt lat="36.88737589564743" lon="15.009993277548734"><ele>216.0</ele><time>2026-03-26T15:49:18Z</time></trkpt><trkpt lat="36.88731691138565" lon="15.009923217243216"><ele>216.0</ele><time>2026-03-26T15:49:19Z</time></trkpt><trkpt lat="36.88728011689394" lon="15.009841846419953"><ele>216.0</ele><time>2026-03-26T15:49:20Z</time></trkpt><trkpt lat="36.88725781185885" lon="15.009749141871731"><ele>216.0</ele><time>2026-03-26T15:49:21Z</time></trkpt><trkpt lat="36.88722527467027" lon="15.00965543067602"><ele>216.0</ele><time>2026-03-26T15:49:22Z</time></trkpt><trkpt lat="36.88718111260934" lon="15.009563817358156"><ele>216.0</ele><time>2026-03-26T15:49:23Z</time></trkpt><trkpt lat="36.88713415788445" lon="15.009483053797103"><ele>216.0</ele><time>2026-03-26T15:49:24Z</time></trkpt><trkpt lat="36.88708666273456" lon="15.009385796112346"><ele>216.0</ele><time>2026-03-26T15:49:25Z</time></trkpt><trkpt lat="36.887045548803634" lon="15.009274015255022"><ele>217.4</ele><time>2026-03-26T15:49:26Z</time></trkpt><trkpt lat="36.887010893952116" lon="15.00915721059932"><ele>218.8</ele><time>2026-03-26T15:49:27Z</time></trkpt><trkpt lat="36.886984527055304" lon="15.009040920928198"><ele>220.20000000000002</ele><time>2026-03-26T15:49:28Z</time></trkpt><trkpt lat="36.886988891683785" lon="15.008939189199076"><ele>221.60000000000002</ele><time>2026-03-26T15:49:29Z</time></trkpt><trkpt lat="36.88699044918636" lon="15.008812196724561"><ele>223.0</ele><time>2026-03-26T15:49:30Z</time></trkpt><trkpt lat="36.887004001386856" lon="15.008716446954397"><ele>222.99999999999997</ele><time>2026-03-26T15:49:31Z</time></trkpt><trkpt lat="36.887025333948245" lon="15.008598946381236"><ele>223.0</ele><time>2026-03-26T15:49:33Z</time></trkpt><trkpt lat="36.886999041897816" lon="15.008474259283233"><ele>223.0</ele><time>2026-03-26T15:49:35Z</time></trkpt><trkpt lat="36.886962296007425" lon="15.008398029875872"><ele>223.0</ele><time>2026-03-26T15:49:36Z</time></trkpt><trkpt lat="36.88692662932022" lon="15.008313147166342"><ele>222.99999999999997</ele><time>2026-03-26T15:49:37Z</time></trkpt><trkpt lat="36.88690181940728" lon="15.008228139000797"><ele>223.0</ele><time>2026-03-26T15:49:38Z</time></trkpt><trkpt lat="36.886871602021714" lon="15.008146190340968"><ele>222.83333333333331</ele><time>2026-03-26T15:49:39Z</time></trkpt><trkpt lat="36.88683084152714" lon="15.008034823436255"><ele>222.66666666666666</ele><time>2026-03-26T15:49:41Z</time></trkpt><trkpt lat="36.88681416853912" lon="15.007908179660364"><ele>222.5</ele><time>2026-03-26T15:49:43Z</time></trkpt><trkpt lat="36.88676730086674" lon="15.007824798278607"><ele>222.33333333333331</ele><time>2026-03-26T15:49:45Z</time></trkpt><trkpt lat="36.886733853570135" lon="15.007724385226165"><ele>222.16666666666666</ele><time>2026-03-26T15:49:47Z</time></trkpt><trkpt lat="36.886754234593084" lon="15.007633246949865"><ele>222.0</ele><time>2026-03-26T15:49:49Z</time></trkpt><trkpt lat="36.88678228826304" lon="15.007519225447217"><ele>223.8</ele><time>2026-03-26T15:49:51Z</time></trkpt><trkpt lat="36.886803016051374" lon="15.007369867416056"><ele>225.6</ele><time>2026-03-26T15:49:53Z</time></trkpt><trkpt lat="36.88684094233567" lon="15.007220060954864"><ele>227.40000000000003</ele><time>2026-03-26T15:49:55Z</time></trkpt><trkpt lat="36.8868616297373" lon="15.007139841125426"><ele>229.20000000000002</ele><time>2026-03-26T15:49:56Z</time></trkpt><trkpt lat="36.886891836957545" lon="15.006996441595044"><ele>231.0</ele><time>2026-03-26T15:49:58Z</time></trkpt><trkpt lat="36.88692395833122" lon="15.006843991965468"><ele>231.0</ele><time>2026-03-26T15:50:00Z</time></trkpt><trkpt lat="36.88694326743658" lon="15.006751315647639"><ele>231.00000000000003</ele><time>2026-03-26T15:50:01Z</time></trkpt><trkpt lat="36.88696713812557" lon="15.006662102153562"><ele>231.00000000000003</ele><time>2026-03-26T15:50:02Z</time></trkpt><trkpt lat="36.88700131931379" lon="15.006523663631967"><ele>231.0</ele><time>2026-03-26T15:50:04Z</time></trkpt><trkpt lat="36.88700668057572" lon="15.006420624423507"><ele>231.0</ele><time>2026-03-26T15:50:06Z</time></trkpt><trkpt lat="36.887004439417495" lon="15.006273114302575"><ele>232.20000000000002</ele><time>2026-03-26T15:50:08Z</time></trkpt><trkpt lat="36.88698452699328" lon="15.006146716003832"><ele>233.40000000000003</ele><time>2026-03-26T15:50:10Z</time></trkpt><trkpt lat="36.88697676670102" lon="15.00601963027341"><ele>234.6</ele><time>2026-03-26T15:50:12Z</time></trkpt><trkpt lat="36.88697060716007" lon="15.005918368952555"><ele>235.8</ele><time>2026-03-26T15:50:14Z</time></trkpt><trkpt lat="36.886974998192635" lon="15.005762857118253"><ele>237.0</ele><time>2026-03-26T15:50:16Z</time></trkpt><trkpt lat="36.88697590686713" lon="15.005654932850303"><ele>238.0</ele><time>2026-03-26T15:50:18Z</time></trkpt><trkpt lat="36.88696198137262" lon="15.005554529409972"><ele>239.0</ele><time>2026-03-26T15:50:19Z</time></trkpt><trkpt lat="36.886949038853004" lon="15.0054726981011"><ele>240.0</ele><time>2026-03-26T15:50:20Z</time></trkpt><trkpt lat="36.886911430214944" lon="15.005326605358809"><ele>241.0</ele><time>2026-03-26T15:50:22Z</time></trkpt><trkpt lat="36.88688701443247" lon="15.005184622684089"><ele>242.0</ele><time>2026-03-26T15:50:24Z</time></trkpt><trkpt lat="36.8868733629731" lon="15.005055346435832"><ele>242.0</ele><time>2026-03-26T15:50:26Z</time></trkpt><trkpt lat="36.8869608040696" lon="15.004998993278587"><ele>242.0</ele><time>2026-03-26T15:50:29Z</time></trkpt><trkpt lat="36.88705192419288" lon="15.004941845625572"><ele>242.0</ele><time>2026-03-26T15:50:31Z</time></trkpt><trkpt lat="36.88710242426204" lon="15.004891917455616"><ele>242.0</ele><time>2026-03-26T15:50:32Z</time></trkpt><trkpt lat="36.887149481230715" lon="15.004836173816692"><ele>242.0</ele><time>2026-03-26T15:50:33Z</time></trkpt><trkpt lat="36.88724873908695" lon="15.004738436326944"><ele>242.39999999999998</ele><time>2026-03-26T15:50:35Z</time></trkpt><trkpt lat="36.88731579016285" lon="15.004651919983335"><ele>242.79999999999998</ele><time>2026-03-26T15:50:37Z</time></trkpt><trkpt lat="36.88735592658114" lon="15.004530026898145"><ele>243.2</ele><time>2026-03-26T15:50:39Z</time></trkpt><trkpt lat="36.887365106028504" lon="15.004415936337221"><ele>243.6</ele><time>2026-03-26T15:50:41Z</time></trkpt><trkpt lat="36.88733289099218" lon="15.004308504184602"><ele>244.0</ele><time>2026-03-26T15:50:43Z</time></trkpt><trkpt lat="36.887289280182046" lon="15.004163446082755"><ele>245.0</ele><time>2026-03-26T15:50:45Z</time></trkpt><trkpt lat="36.887236587304784" lon="15.004047610076842"><ele>245.99999999999997</ele><time>2026-03-26T15:50:47Z</time></trkpt><trkpt lat="36.88719202136178" lon="15.003930514632879"><ele>246.99999999999997</ele><time>2026-03-26T15:50:49Z</time></trkpt><trkpt lat="36.887152557633016" lon="15.003793794884105"><ele>248.0</ele><time>2026-03-26T15:50:52Z</time></trkpt><trkpt lat="36.887128148147546" lon="15.003691545308458"><ele>249.0</ele><time>2026-03-26T15:50:54Z</time></trkpt><trkpt lat="36.88709776612639" lon="15.003586575698943"><ele>249.0</ele><time>2026-03-26T15:50:56Z</time></trkpt><trkpt lat="36.88712563277739" lon="15.003452300859628"><ele>248.99999999999997</ele><time>2026-03-26T15:50:58Z</time></trkpt><trkpt lat="36.887150195875144" lon="15.003338965704327"><ele>248.99999999999997</ele><time>2026-03-26T15:51:00Z</time></trkpt><trkpt lat="36.88717138061489" lon="15.003230904560146"><ele>249.0</ele><time>2026-03-26T15:51:02Z</time></trkpt><trkpt lat="36.887219268174555" lon="15.003104759713352"><ele>249.0</ele><time>2026-03-26T15:51:04Z</time></trkpt><trkpt lat="36.887270850653266" lon="15.002981166401076"><ele>248.66666666666666</ele><time>2026-03-26T15:51:05.999Z</time></trkpt><trkpt lat="36.887336258697154" lon="15.002871151509389"><ele>248.33333333333331</ele><time>2026-03-26T15:51:07.999Z</time></trkpt><trkpt lat="36.88737983682247" lon="15.002756826975912"><ele>248.0</ele><time>2026-03-26T15:51:09.999Z</time></trkpt><trkpt lat="36.88740766203322" lon="15.00266889036674"><ele>247.66666666666666</ele><time>2026-03-26T15:51:10.999Z</time></trkpt><trkpt lat="36.88743032722047" lon="15.00259136455817"><ele>247.33333333333331</ele><time>2026-03-26T15:51:11.999Z</time></trkpt><trkpt lat="36.88745318953685" lon="15.002484210092518"><ele>247.0</ele><time>2026-03-26T15:51:13.999Z</time></trkpt><trkpt lat="36.88744418771314" lon="15.002403298850194"><ele>246.99999999999997</ele><time>2026-03-26T15:51:14.999Z</time></trkpt><trkpt lat="36.88743493000349" lon="15.002313625334368"><ele>247.0</ele><time>2026-03-26T15:51:15.999Z</time></trkpt><trkpt lat="36.88743430389223" lon="15.002220912993506"><ele>247.0</ele><time>2026-03-26T15:51:16.999Z</time></trkpt><trkpt lat="36.887446815743154" lon="15.002131115236256"><ele>247.0</ele><time>2026-03-26T15:51:18Z</time></trkpt><trkpt lat="36.88745772553162" lon="15.002040600948678"><ele>246.99999999999997</ele><time>2026-03-26T15:51:19Z</time></trkpt><trkpt lat="36.8874645269585" lon="15.001957668817692"><ele>247.0</ele><time>2026-03-26T15:51:20Z</time></trkpt><trkpt lat="36.88747901693741" lon="15.001826589557925"><ele>246.99999999999997</ele><time>2026-03-26T15:51:22Z</time></trkpt><trkpt lat="36.887482085347656" lon="15.001708558359045"><ele>247.0</ele><time>2026-03-26T15:51:24Z</time></trkpt><trkpt lat="36.88745406809541" lon="15.001637504051773"><ele>247.0</ele><time>2026-03-26T15:51:26Z</time></trkpt><trkpt lat="36.88741266001412" lon="15.001706030709094"><ele>247.0</ele><time>2026-03-26T15:57:08Z</time></trkpt><trkpt lat="36.88742419176627" lon="15.001826405658532"><ele>246.99999999999997</ele><time>2026-03-26T15:57:11Z</time></trkpt><trkpt lat="36.887404419373546" lon="15.001928526595773"><ele>247.0</ele><time>2026-03-26T15:57:13Z</time></trkpt><trkpt lat="36.887383213483915" lon="15.002008131050895"><ele>247.0</ele><time>2026-03-26T15:57:15Z</time></trkpt><trkpt lat="36.88734593706495" lon="15.002078530490392"><ele>247.0</ele><time>2026-03-26T15:57:17Z</time></trkpt><trkpt lat="36.887287594561606" lon="15.002120470254756"><ele>247.0</ele><time>2026-03-26T15:57:19Z</time></trkpt><trkpt lat="36.887238345779814" lon="15.002175212394455"><ele>247.0</ele><time>2026-03-26T15:57:20.999Z</time></trkpt><trkpt lat="36.88719811041689" lon="15.002253832632915"><ele>247.0</ele><time>2026-03-26T15:57:22.999Z</time></trkpt><trkpt lat="36.88717849547125" lon="15.002339080904518"><ele>247.0</ele><time>2026-03-26T15:57:24.999Z</time></trkpt><trkpt lat="36.88715770809477" lon="15.002417102288316"><ele>247.0</ele><time>2026-03-26T15:57:26.999Z</time></trkpt><trkpt lat="36.88708484219951" lon="15.00246065311084"><ele>246.99999999999997</ele><time>2026-03-26T15:57:30.999Z</time></trkpt><trkpt lat="36.887050812131285" lon="15.002355323570042"><ele>247.0</ele><time>2026-03-26T15:57:33.999Z</time></trkpt><trkpt lat="36.886992131634806" lon="15.002270780770546"><ele>247.0</ele><time>2026-03-26T15:57:37Z</time></trkpt><trkpt lat="36.886931071462755" lon="15.0021976006172"><ele>247.0</ele><time>2026-03-26T15:57:40Z</time></trkpt><trkpt lat="36.886858545587565" lon="15.002159986066836"><ele>246.99999999999997</ele><time>2026-03-26T15:57:43Z</time></trkpt><trkpt lat="36.886780387806475" lon="15.002126731889001"><ele>247.0</ele><time>2026-03-26T15:57:45Z</time></trkpt><trkpt lat="36.88668830512494" lon="15.002081782542525"><ele>245.2</ele><time>2026-03-26T15:57:47Z</time></trkpt><trkpt lat="36.88660714393196" lon="15.002051953220915"><ele>243.39999999999998</ele><time>2026-03-26T15:57:49Z</time></trkpt><trkpt lat="36.88651052844807" lon="15.00201397207132"><ele>241.60000000000002</ele><time>2026-03-26T15:57:51Z</time></trkpt><trkpt lat="36.8864172104428" lon="15.00198422103121"><ele>239.8</ele><time>2026-03-26T15:57:53Z</time></trkpt><trkpt lat="36.88630555040902" lon="15.001952357615641"><ele>238.0</ele><time>2026-03-26T15:57:55Z</time></trkpt><trkpt lat="36.88621187628586" lon="15.001923348951552"><ele>237.99999999999997</ele><time>2026-03-26T15:57:57Z</time></trkpt><trkpt lat="36.88612828478057" lon="15.001901580275975"><ele>238.0</ele><time>2026-03-26T15:58:00Z</time></trkpt><trkpt lat="36.88605306468345" lon="15.00187132638282"><ele>238.0</ele><time>2026-03-26T15:58:03Z</time></trkpt><trkpt lat="36.88596458154275" lon="15.00183564593649"><ele>238.0</ele><time>2026-03-26T15:58:05Z</time></trkpt><trkpt lat="36.8858922576904" lon="15.001785159500304"><ele>237.99999999999997</ele><time>2026-03-26T15:58:07Z</time></trkpt><trkpt lat="36.88583199026176" lon="15.001727664279365"><ele>238.0</ele><time>2026-03-26T15:58:09Z</time></trkpt><trkpt lat="36.88584153602492" lon="15.001608219614901"><ele>237.8</ele><time>2026-03-26T15:58:12Z</time></trkpt><trkpt lat="36.88588170767832" lon="15.001519331747346"><ele>237.60000000000002</ele><time>2026-03-26T15:58:14Z</time></trkpt><trkpt lat="36.885934688664136" lon="15.001411304788354"><ele>237.39999999999998</ele><time>2026-03-26T15:58:16Z</time></trkpt><trkpt lat="36.88598242106854" lon="15.001289552778292"><ele>237.2</ele><time>2026-03-26T15:58:18Z</time></trkpt><trkpt lat="36.886021974863105" lon="15.001183227487063"><ele>237.0</ele><time>2026-03-26T15:58:20Z</time></trkpt><trkpt lat="36.886072840447646" lon="15.001091260500113"><ele>236.99999999999997</ele><time>2026-03-26T15:58:22Z</time></trkpt><trkpt lat="36.8861076405187" lon="15.001014614942084"><ele>237.0</ele><time>2026-03-26T15:58:24Z</time></trkpt><trkpt lat="36.886129466997474" lon="15.000912812525383"><ele>236.99999999999997</ele><time>2026-03-26T15:58:26Z</time></trkpt><trkpt lat="36.88612325977776" lon="15.000827242124075"><ele>236.99999999999997</ele><time>2026-03-26T15:58:28Z</time></trkpt><trkpt lat="36.88610946009742" lon="15.000718793154332"><ele>237.0</ele><time>2026-03-26T15:58:31Z</time></trkpt><trkpt lat="36.886090412681725" lon="15.000639164650071"><ele>236.99999999999997</ele><time>2026-03-26T15:58:33Z</time></trkpt><trkpt lat="36.886063188648365" lon="15.000565480268168"><ele>236.99999999999997</ele><time>2026-03-26T15:58:35Z</time></trkpt><trkpt lat="36.886022019142004" lon="15.00049269213629"><ele>234.6</ele><time>2026-03-26T15:58:37Z</time></trkpt><trkpt lat="36.885962026673916" lon="15.00043006716546"><ele>232.2</ele><time>2026-03-26T15:58:39Z</time></trkpt><trkpt lat="36.88588773544423" lon="15.000346106245718"><ele>229.8</ele><time>2026-03-26T15:58:41Z</time></trkpt><trkpt lat="36.885811407176966" lon="15.000279843390654"><ele>227.4</ele><time>2026-03-26T15:58:43Z</time></trkpt><trkpt lat="36.88565963567547" lon="15.000299358885922"><ele>225.0</ele><time>2026-03-26T15:58:46Z</time></trkpt><trkpt lat="36.88558180990112" lon="15.000354413761286"><ele>223.16666666666666</ele><time>2026-03-26T15:58:48Z</time></trkpt><trkpt lat="36.885513398583" lon="15.00040533752441"><ele>221.33333333333331</ele><time>2026-03-26T15:58:50Z</time></trkpt><trkpt lat="36.88549496341913" lon="15.0004972172354"><ele>219.5</ele><time>2026-03-26T15:58:53Z</time></trkpt><trkpt lat="36.885509747928054" lon="15.000614099868683"><ele>217.66666666666666</ele><time>2026-03-26T15:58:56Z</time></trkpt><trkpt lat="36.88552746448037" lon="15.000733794429419"><ele>215.83333333333331</ele><time>2026-03-26T15:58:58Z</time></trkpt><trkpt lat="36.88556470263694" lon="15.000843229211984"><ele>214.0</ele><time>2026-03-26T15:59:00Z</time></trkpt><trkpt lat="36.88552404124811" lon="15.000943278642744"><ele>214.0</ele><time>2026-03-26T15:59:02Z</time></trkpt><trkpt lat="36.88542991234126" lon="15.00102219567671"><ele>213.99999999999997</ele><time>2026-03-26T15:59:04Z</time></trkpt><trkpt lat="36.88539762891068" lon="15.001098569755309"><ele>213.99999999999997</ele><time>2026-03-26T15:59:05Z</time></trkpt><trkpt lat="36.88534037580313" lon="15.001197588445471"><ele>214.0</ele><time>2026-03-26T15:59:07Z</time></trkpt><trkpt lat="36.885255459868546" lon="15.001293338100078"><ele>214.0</ele><time>2026-03-26T15:59:09Z</time></trkpt><trkpt lat="36.88520654276948" lon="15.001353417880965"><ele>214.0</ele><time>2026-03-26T15:59:10Z</time></trkpt><trkpt lat="36.88515768730796" lon="15.001414461948404"><ele>213.99999999999997</ele><time>2026-03-26T15:59:11Z</time></trkpt><trkpt lat="36.885072901033055" lon="15.001523741394339"><ele>213.99999999999997</ele><time>2026-03-26T15:59:13Z</time></trkpt><trkpt lat="36.88500122965854" lon="15.001623073943465"><ele>214.0</ele><time>2026-03-26T15:59:15Z</time></trkpt><trkpt lat="36.88495753651853" lon="15.001690633838264"><ele>214.0</ele><time>2026-03-26T15:59:17Z</time></trkpt><trkpt lat="36.884904174510986" lon="15.001774812599582"><ele>210.16666666666666</ele><time>2026-03-26T15:59:20Z</time></trkpt><trkpt lat="36.88484339493928" lon="15.001851237880357"><ele>206.33333333333331</ele><time>2026-03-26T15:59:23Z</time></trkpt><trkpt lat="36.88480565001597" lon="15.001915053283485"><ele>202.5</ele><time>2026-03-26T15:59:24.999Z</time></trkpt><trkpt lat="36.884797145604" lon="15.001998609739546"><ele>198.66666666666666</ele><time>2026-03-26T15:59:26.999Z</time></trkpt><trkpt lat="36.88482184803412" lon="15.002072247471787"><ele>194.83333333333331</ele><time>2026-03-26T15:59:28.999Z</time></trkpt><trkpt lat="36.88486720852658" lon="15.002143315456264"><ele>191.0</ele><time>2026-03-26T15:59:30.999Z</time></trkpt><trkpt lat="36.884946415591685" lon="15.002211195635079"><ele>191.0</ele><time>2026-03-26T15:59:32.999Z</time></trkpt><trkpt lat="36.88502771955178" lon="15.002282246714378"><ele>191.0</ele><time>2026-03-26T15:59:34.999Z</time></trkpt><trkpt lat="36.88513309428108" lon="15.002374036734947"><ele>191.0</ele><time>2026-03-26T15:59:36.999Z</time></trkpt><trkpt lat="36.88521922201155" lon="15.00246472742021"><ele>191.0</ele><time>2026-03-26T15:59:38.999Z</time></trkpt><trkpt lat="36.885306205709995" lon="15.002563240774059"><ele>193.0</ele><time>2026-03-26T15:59:41Z</time></trkpt><trkpt lat="36.88539433654802" lon="15.002652242484187"><ele>195.0</ele><time>2026-03-26T15:59:43Z</time></trkpt><trkpt lat="36.885475813658495" lon="15.002709476832687"><ele>197.0</ele><time>2026-03-26T15:59:45Z</time></trkpt><trkpt lat="36.88554042352133" lon="15.002761309099563"><ele>199.0</ele><time>2026-03-26T15:59:47Z</time></trkpt><trkpt lat="36.88553717086339" lon="15.002846044468887"><ele>201.00000000000003</ele><time>2026-03-26T15:59:49Z</time></trkpt><trkpt lat="36.885460751990244" lon="15.002875433991122"><ele>203.0</ele><time>2026-03-26T15:59:51Z</time></trkpt><trkpt lat="36.88538658773647" lon="15.002918321618147"><ele>203.00000000000003</ele><time>2026-03-26T15:59:52Z</time></trkpt><trkpt lat="36.88532686053364" lon="15.002949280300689"><ele>203.0</ele><time>2026-03-26T15:59:53Z</time></trkpt><trkpt lat="36.88522759049127" lon="15.003063332234674"><ele>203.0</ele><time>2026-03-26T15:59:55Z</time></trkpt><trkpt lat="36.885177433447474" lon="15.003139993625984"><ele>203.0</ele><time>2026-03-26T15:59:56Z</time></trkpt><trkpt lat="36.88513384089378" lon="15.003208969961458"><ele>203.00000000000003</ele><time>2026-03-26T15:59:57Z</time></trkpt><trkpt lat="36.885085392474046" lon="15.003271192775506"><ele>203.0</ele><time>2026-03-26T15:59:58Z</time></trkpt><trkpt lat="36.885015832216375" lon="15.003330763780571"><ele>199.50000000000003</ele><time>2026-03-26T16:00:00Z</time></trkpt><trkpt lat="36.88495126038846" lon="15.003282443886384"><ele>196.0</ele><time>2026-03-26T16:00:04Z</time></trkpt><trkpt lat="36.8848820998052" lon="15.003253204040425"><ele>192.5</ele><time>2026-03-26T16:00:06Z</time></trkpt><trkpt lat="36.88479415934108" lon="15.003235447365025"><ele>189.0</ele><time>2026-03-26T16:00:08Z</time></trkpt><trkpt lat="36.88472122680579" lon="15.003243544785603"><ele>185.5</ele><time>2026-03-26T16:00:10Z</time></trkpt><trkpt lat="36.884657909094706" lon="15.003209926933552"><ele>182.0</ele><time>2026-03-26T16:00:12Z</time></trkpt><trkpt lat="36.88457919234184" lon="15.003189396709452"><ele>182.0</ele><time>2026-03-26T16:00:14Z</time></trkpt><trkpt lat="36.8844875393674" lon="15.003176784919265"><ele>182.0</ele><time>2026-03-26T16:00:16Z</time></trkpt><trkpt lat="36.88440262378848" lon="15.003199669651217"><ele>182.0</ele><time>2026-03-26T16:00:18Z</time></trkpt><trkpt lat="36.88430545760972" lon="15.00321239374127"><ele>182.0</ele><time>2026-03-26T16:00:20Z</time></trkpt><trkpt lat="36.88422846213011" lon="15.00324619979164"><ele>182.0</ele><time>2026-03-26T16:00:22Z</time></trkpt><trkpt lat="36.8841335144329" lon="15.003314412551518"><ele>179.83333333333331</ele><time>2026-03-26T16:00:24Z</time></trkpt><trkpt lat="36.88406071597312" lon="15.003382787326773"><ele>177.66666666666666</ele><time>2026-03-26T16:00:26Z</time></trkpt><trkpt lat="36.88400841008914" lon="15.003444256246805"><ele>175.5</ele><time>2026-03-26T16:00:28Z</time></trkpt><trkpt lat="36.88395897273247" lon="15.003502354149012"><ele>173.33333333333334</ele><time>2026-03-26T16:00:30Z</time></trkpt><trkpt lat="36.88390945067923" lon="15.003564076569571"><ele>171.16666666666669</ele><time>2026-03-26T16:00:32Z</time></trkpt><trkpt lat="36.883849178604216" lon="15.003667658803597"><ele>169.0</ele><time>2026-03-26T16:00:35Z</time></trkpt><trkpt lat="36.88382431410204" lon="15.003761893513836"><ele>169.0</ele><time>2026-03-26T16:00:37Z</time></trkpt><trkpt lat="36.88378856312477" lon="15.003837942321862"><ele>169.0</ele><time>2026-03-26T16:00:39Z</time></trkpt><trkpt lat="36.88380845481284" lon="15.003918651567677"><ele>169.0</ele><time>2026-03-26T16:00:41Z</time></trkpt><trkpt lat="36.88373885400593" lon="15.003970681490957"><ele>169.0</ele><time>2026-03-26T16:00:45Z</time></trkpt><trkpt lat="36.88368651475402" lon="15.003914170974657"><ele>169.0</ele><time>2026-03-26T16:00:47Z</time></trkpt><trkpt lat="36.883653721907876" lon="15.003841380465625"><ele>169.0</ele><time>2026-03-26T16:00:49Z</time></trkpt><trkpt lat="36.88360997828169" lon="15.003770848229584"><ele>169.0</ele><time>2026-03-26T16:00:51Z</time></trkpt><trkpt lat="36.88357586748769" lon="15.00368693922954"><ele>169.0</ele><time>2026-03-26T16:00:53Z</time></trkpt><trkpt lat="36.883518348428424" lon="15.003617007499926"><ele>169.0</ele><time>2026-03-26T16:00:55Z</time></trkpt><trkpt lat="36.88346864696065" lon="15.003523918819518"><ele>169.0</ele><time>2026-03-26T16:00:57Z</time></trkpt><trkpt lat="36.88338782816805" lon="15.003460134443094"><ele>169.0</ele><time>2026-03-26T16:00:59Z</time></trkpt><trkpt lat="36.88328413446379" lon="15.003409225817839"><ele>169.0</ele><time>2026-03-26T16:01:01Z</time></trkpt><trkpt lat="36.883192775368265" lon="15.003300949096017"><ele>165.66666666666669</ele><time>2026-03-26T16:01:03Z</time></trkpt><trkpt lat="36.8831311666777" lon="15.003263004241665"><ele>162.33333333333334</ele><time>2026-03-26T16:01:04Z</time></trkpt><trkpt lat="36.8830453759032" lon="15.003243935559055"><ele>159.0</ele><time>2026-03-26T16:01:05Z</time></trkpt><trkpt lat="36.88294056007585" lon="15.003258109676418"><ele>155.66666666666666</ele><time>2026-03-26T16:01:06Z</time></trkpt><trkpt lat="36.88286324836671" lon="15.003270626004731"><ele>152.33333333333331</ele><time>2026-03-26T16:01:07Z</time></trkpt><trkpt lat="36.88278857421911" lon="15.003283899955875"><ele>149.0</ele><time>2026-03-26T16:01:08Z</time></trkpt><trkpt lat="36.88272296405836" lon="15.00329590388558"><ele>149.0</ele><time>2026-03-26T16:01:09Z</time></trkpt><trkpt lat="36.88260203237297" lon="15.003261344309342"><ele>149.0</ele><time>2026-03-26T16:01:11Z</time></trkpt><trkpt lat="36.88252178995118" lon="15.003181285035563"><ele>149.0</ele><time>2026-03-26T16:01:13Z</time></trkpt><trkpt lat="36.88242615491181" lon="15.003051368965119"><ele>149.0</ele><time>2026-03-26T16:01:15Z</time></trkpt><trkpt lat="36.88236696584207" lon="15.003020550207596"><ele>149.0</ele><time>2026-03-26T16:01:16Z</time></trkpt><trkpt lat="36.88226519123556" lon="15.003002865150549"><ele>148.5</ele><time>2026-03-26T16:01:18Z</time></trkpt><trkpt lat="36.8821614142056" lon="15.003030504180517"><ele>148.0</ele><time>2026-03-26T16:01:19Z</time></trkpt><trkpt lat="36.88203754541662" lon="15.003044275183594"><ele>147.5</ele><time>2026-03-26T16:01:21Z</time></trkpt><trkpt lat="36.88197091572291" lon="15.003038867359445"><ele>147.0</ele><time>2026-03-26T16:01:22Z</time></trkpt><trkpt lat="36.881907678652624" lon="15.003033734906907"><ele>146.5</ele><time>2026-03-26T16:01:23Z</time></trkpt><trkpt lat="36.88183132819431" lon="15.003052327358835"><ele>146.0</ele><time>2026-03-26T16:01:24Z</time></trkpt><trkpt lat="36.88176370810085" lon="15.003099816297663"><ele>146.0</ele><time>2026-03-26T16:01:25Z</time></trkpt><trkpt lat="36.88167276770984" lon="15.003203609341597"><ele>146.0</ele><time>2026-03-26T16:01:27Z</time></trkpt><trkpt lat="36.88159701720901" lon="15.003253300849993"><ele>146.0</ele><time>2026-03-26T16:01:27.999Z</time></trkpt><trkpt lat="36.881500882919795" lon="15.00327290889156"><ele>146.0</ele><time>2026-03-26T16:01:28.999Z</time></trkpt><trkpt lat="36.881432780256155" lon="15.00330124964681"><ele>146.0</ele><time>2026-03-26T16:01:29.999Z</time></trkpt><trkpt lat="36.88134836967106" lon="15.003358362528944"><ele>143.4</ele><time>2026-03-26T16:01:30.999Z</time></trkpt><trkpt lat="36.88125631272561" lon="15.00343034211432"><ele>140.8</ele><time>2026-03-26T16:01:31.999Z</time></trkpt><trkpt lat="36.881160697896874" lon="15.003479746073927"><ele>138.20000000000002</ele><time>2026-03-26T16:01:32.999Z</time></trkpt><trkpt lat="36.88106810826646" lon="15.003518815744707"><ele>135.6</ele><time>2026-03-26T16:01:33.999Z</time></trkpt><trkpt lat="36.880987802783665" lon="15.00355004223681"><ele>133.0</ele><time>2026-03-26T16:01:34.999Z</time></trkpt><trkpt lat="36.88092574992366" lon="15.003570786745323"><ele>133.0</ele><time>2026-03-26T16:01:35.999Z</time></trkpt><trkpt lat="36.880855276342885" lon="15.00359247698092"><ele>133.0</ele><time>2026-03-26T16:01:36.999Z</time></trkpt><trkpt lat="36.88077639857331" lon="15.003609094839284"><ele>133.0</ele><time>2026-03-26T16:01:37.999Z</time></trkpt><trkpt lat="36.88068607777604" lon="15.003598397858477"><ele>133.0</ele><time>2026-03-26T16:01:38.999Z</time></trkpt><trkpt lat="36.880572092834946" lon="15.00357760825427"><ele>133.0</ele><time>2026-03-26T16:01:39.999Z</time></trkpt><trkpt lat="36.880462766655725" lon="15.003585464339743"><ele>133.0</ele><time>2026-03-26T16:01:40.999Z</time></trkpt><trkpt lat="36.88036688258147" lon="15.00355743758556"><ele>133.0</ele><time>2026-03-26T16:01:41.999Z</time></trkpt><trkpt lat="36.88027912925623" lon="15.003526430156455"><ele>133.0</ele><time>2026-03-26T16:01:42.999Z</time></trkpt><trkpt lat="36.88020198983658" lon="15.003497536773859"><ele>133.0</ele><time>2026-03-26T16:01:43.999Z</time></trkpt><trkpt lat="36.880139864912" lon="15.00347135854139"><ele>133.0</ele><time>2026-03-26T16:01:44.999Z</time></trkpt><trkpt lat="36.88007580869144" lon="15.003460786441662"><ele>133.0</ele><time>2026-03-26T16:01:45.999Z</time></trkpt><trkpt lat="36.879994466109665" lon="15.003449488486982"><ele>132.20000000000002</ele><time>2026-03-26T16:01:47Z</time></trkpt><trkpt lat="36.879891209007404" lon="15.00348625383871"><ele>131.4</ele><time>2026-03-26T16:01:48Z</time></trkpt><trkpt lat="36.87977616298669" lon="15.003524372618436"><ele>130.60000000000002</ele><time>2026-03-26T16:01:49Z</time></trkpt><trkpt lat="36.87968123149491" lon="15.00356024857177"><ele>129.8</ele><time>2026-03-26T16:01:50Z</time></trkpt><trkpt lat="36.879604704045086" lon="15.003590745865882"><ele>129.0</ele><time>2026-03-26T16:01:51Z</time></trkpt><trkpt lat="36.879490172523454" lon="15.003625494061948"><ele>129.0</ele><time>2026-03-26T16:01:53Z</time></trkpt><trkpt lat="36.879367289123756" lon="15.003696560777515"><ele>129.0</ele><time>2026-03-26T16:01:55Z</time></trkpt><trkpt lat="36.879290418190664" lon="15.0037277039161"><ele>129.0</ele><time>2026-03-26T16:01:56Z</time></trkpt><trkpt lat="36.8792287712343" lon="15.00378807520386"><ele>129.0</ele><time>2026-03-26T16:01:57Z</time></trkpt><trkpt lat="36.879175658354804" lon="15.003877895721761"><ele>129.0</ele><time>2026-03-26T16:01:58Z</time></trkpt><trkpt lat="36.879131973242814" lon="15.00400778321028"><ele>128.33333333333334</ele><time>2026-03-26T16:01:59Z</time></trkpt><trkpt lat="36.87905031048683" lon="15.00411017030056"><ele>127.66666666666666</ele><time>2026-03-26T16:02:00Z</time></trkpt><trkpt lat="36.878985663090916" lon="15.004181171614249"><ele>127.0</ele><time>2026-03-26T16:02:01Z</time></trkpt><trkpt lat="36.87892090651991" lon="15.004225949865754"><ele>126.33333333333333</ele><time>2026-03-26T16:02:02Z</time></trkpt><trkpt lat="36.87884976654036" lon="15.00423342084661"><ele>125.66666666666666</ele><time>2026-03-26T16:02:03Z</time></trkpt><trkpt lat="36.87876052627234" lon="15.00424004854356"><ele>125.0</ele><time>2026-03-26T16:02:04Z</time></trkpt><trkpt lat="36.878642575864056" lon="15.004247187475599"><ele>125.0</ele><time>2026-03-26T16:02:05Z</time></trkpt><trkpt lat="36.87851676527668" lon="15.004287276945078"><ele>125.0</ele><time>2026-03-26T16:02:06Z</time></trkpt><trkpt lat="36.878399309695766" lon="15.004332269276953"><ele>125.0</ele><time>2026-03-26T16:02:07Z</time></trkpt><trkpt lat="36.87829911188622" lon="15.00436374840472"><ele>125.0</ele><time>2026-03-26T16:02:08Z</time></trkpt><trkpt lat="36.87821248856883" lon="15.004418826674476"><ele>123.8</ele><time>2026-03-26T16:02:09Z</time></trkpt><trkpt lat="36.8781202206106" lon="15.004474071249895"><ele>122.6</ele><time>2026-03-26T16:02:10Z</time></trkpt><trkpt lat="36.87802338067118" lon="15.004519820127435"><ele>121.4</ele><time>2026-03-26T16:02:11Z</time></trkpt><trkpt lat="36.87792857709999" lon="15.004566735518027"><ele>120.2</ele><time>2026-03-26T16:02:12Z</time></trkpt><trkpt lat="36.87783473717428" lon="15.004620152765977"><ele>119.0</ele><time>2026-03-26T16:02:13Z</time></trkpt><trkpt lat="36.87773810384775" lon="15.004688561845843"><ele>119.0</ele><time>2026-03-26T16:02:14Z</time></trkpt><trkpt lat="36.87763828028565" lon="15.004783722426772"><ele>119.0</ele><time>2026-03-26T16:02:15Z</time></trkpt><trkpt lat="36.87754079676276" lon="15.004873577550857"><ele>119.0</ele><time>2026-03-26T16:02:16Z</time></trkpt><trkpt lat="36.87746267830942" lon="15.004944327919105"><ele>119.0</ele><time>2026-03-26T16:02:17Z</time></trkpt><trkpt lat="36.877393304415136" lon="15.004999165896628"><ele>119.0</ele><time>2026-03-26T16:02:18Z</time></trkpt><trkpt lat="36.877311458006695" lon="15.005035145781452"><ele>118.66666666666666</ele><time>2026-03-26T16:02:19Z</time></trkpt><trkpt lat="36.87720947138673" lon="15.005069195216597"><ele>118.33333333333333</ele><time>2026-03-26T16:02:20Z</time></trkpt><trkpt lat="36.87710918895455" lon="15.005101930661885"><ele>118.0</ele><time>2026-03-26T16:02:21Z</time></trkpt><trkpt lat="36.87703506009968" lon="15.005141493964814"><ele>117.66666666666666</ele><time>2026-03-26T16:02:22Z</time></trkpt><trkpt lat="36.87697480258091" lon="15.00519267330318"><ele>117.33333333333333</ele><time>2026-03-26T16:02:23Z</time></trkpt><trkpt lat="36.87692696154976" lon="15.00524642554459"><ele>117.0</ele><time>2026-03-26T16:02:24Z</time></trkpt><trkpt lat="36.876854090635675" lon="15.00537217748609"><ele>117.0</ele><time>2026-03-26T16:02:26Z</time></trkpt><trkpt lat="36.876793766414075" lon="15.005428496593073"><ele>116.99999999999999</ele><time>2026-03-26T16:02:27Z</time></trkpt><trkpt lat="36.87672524931598" lon="15.00548609970472"><ele>116.99999999999999</ele><time>2026-03-26T16:02:28Z</time></trkpt><trkpt lat="36.876656403421265" lon="15.005532300885198"><ele>117.0</ele><time>2026-03-26T16:02:29Z</time></trkpt><trkpt lat="36.87655511191232" lon="15.005584148513286"><ele>117.0</ele><time>2026-03-26T16:02:31Z</time></trkpt><trkpt lat="36.876436360444366" lon="15.005643581835955"><ele>117.57142857142858</ele><time>2026-03-26T16:02:33Z</time></trkpt><trkpt lat="36.876375214567496" lon="15.005698609218374"><ele>118.14285714285715</ele><time>2026-03-26T16:02:34Z</time></trkpt><trkpt lat="36.87632317717718" lon="15.005747838950944"><ele>118.71428571428572</ele><time>2026-03-26T16:02:35Z</time></trkpt><trkpt lat="36.87627125991537" lon="15.005796955034844"><ele>119.28571428571428</ele><time>2026-03-26T16:02:36Z</time></trkpt><trkpt lat="36.876214063539436" lon="15.005848360493994"><ele>119.85714285714285</ele><time>2026-03-26T16:02:37Z</time></trkpt><trkpt lat="36.876149953734824" lon="15.005892878646387"><ele>120.42857142857142</ele><time>2026-03-26T16:02:38Z</time></trkpt><trkpt lat="36.876080546282985" lon="15.005929770045503"><ele>121.0</ele><time>2026-03-26T16:02:39Z</time></trkpt><trkpt lat="36.87600841243809" lon="15.005956125712647"><ele>118.66666666666667</ele><time>2026-03-26T16:02:40Z</time></trkpt><trkpt lat="36.87593264209301" lon="15.005979690632715"><ele>116.33333333333334</ele><time>2026-03-26T16:02:41Z</time></trkpt><trkpt lat="36.875865559992036" lon="15.00598000473415"><ele>114.0</ele><time>2026-03-26T16:02:42Z</time></trkpt><trkpt lat="36.875774730239236" lon="15.005966781596646"><ele>111.66666666666666</ele><time>2026-03-26T16:02:44Z</time></trkpt><trkpt lat="36.87569300786042" lon="15.005971647649329"><ele>109.33333333333333</ele><time>2026-03-26T16:02:46Z</time></trkpt><trkpt lat="36.875619523704295" lon="15.005977742260754"><ele>107.0</ele><time>2026-03-26T16:02:48Z</time></trkpt><trkpt lat="36.87553798529076" lon="15.005981906584422"><ele>107.0</ele><time>2026-03-26T16:04:05Z</time></trkpt><trkpt lat="36.87565492177276" lon="15.005991320465437"><ele>106.99999999999999</ele><time>2026-03-26T16:04:26Z</time></trkpt><trkpt lat="36.87579533562767" lon="15.005986417213501"><ele>106.99999999999999</ele><time>2026-03-26T16:04:27Z</time></trkpt><trkpt lat="36.87588649577866" lon="15.005988023154085"><ele>107.0</ele><time>2026-03-26T16:04:28Z</time></trkpt><trkpt lat="36.8759516873857" lon="15.005974002652424"><ele>107.0</ele><time>2026-03-26T16:04:30Z</time></trkpt><trkpt lat="36.876033688182275" lon="15.005944744228394"><ele>107.83333333333333</ele><time>2026-03-26T16:06:01Z</time></trkpt><trkpt lat="36.87609614379031" lon="15.00592424490503"><ele>108.66666666666666</ele><time>2026-03-26T16:06:02Z</time></trkpt><trkpt lat="36.87617400793285" lon="15.005919406520634"><ele>109.5</ele><time>2026-03-26T16:06:03Z</time></trkpt><trkpt lat="36.87624087608064" lon="15.005863498036602"><ele>110.33333333333334</ele><time>2026-03-26T16:06:04Z</time></trkpt><trkpt lat="36.87630310226155" lon="15.005798318080204"><ele>111.16666666666667</ele><time>2026-03-26T16:06:05Z</time></trkpt><trkpt lat="36.87636715157164" lon="15.0057372179046"><ele>112.0</ele><time>2026-03-26T16:06:06Z</time></trkpt><trkpt lat="36.876442637922665" lon="15.00567446259184"><ele>112.83333333333334</ele><time>2026-03-26T16:06:07Z</time></trkpt><trkpt lat="36.876516507943855" lon="15.005620047629106"><ele>113.66666666666667</ele><time>2026-03-26T16:06:08Z</time></trkpt><trkpt lat="36.876591828053726" lon="15.005572615378153"><ele>114.5</ele><time>2026-03-26T16:06:09Z</time></trkpt><trkpt lat="36.876657931563074" lon="15.005540916579683"><ele>115.33333333333334</ele><time>2026-03-26T16:06:10Z</time></trkpt><trkpt lat="36.87676371884847" lon="15.005505912911145"><ele>116.16666666666667</ele><time>2026-03-26T16:06:12Z</time></trkpt><trkpt lat="36.876848065694745" lon="15.005552163003687"><ele>117.0</ele><time>2026-03-26T16:06:14Z</time></trkpt><trkpt lat="36.87686535278002" lon="15.005650803857382"><ele>117.0</ele><time>2026-03-26T16:06:15Z</time></trkpt><trkpt lat="36.876930948586704" lon="15.005730010490495"><ele>117.0</ele><time>2026-03-26T16:06:16Z</time></trkpt><trkpt lat="36.87700554863271" lon="15.0058150859585"><ele>117.0</ele><time>2026-03-26T16:06:17Z</time></trkpt><trkpt lat="36.87706866764827" lon="15.005874141753482"><ele>117.0</ele><time>2026-03-26T16:06:18Z</time></trkpt><trkpt lat="36.87713073184359" lon="15.005921308141135"><ele>117.0</ele><time>2026-03-26T16:06:19Z</time></trkpt><trkpt lat="36.87721747295726" lon="15.005954304299218"><ele>117.0</ele><time>2026-03-26T16:06:20Z</time></trkpt><trkpt lat="36.87730367052284" lon="15.006006882487679"><ele>117.0</ele><time>2026-03-26T16:06:21Z</time></trkpt><trkpt lat="36.877380085969065" lon="15.006044131871505"><ele>117.0</ele><time>2026-03-26T16:06:22Z</time></trkpt><trkpt lat="36.87744438818894" lon="15.00610469050983"><ele>117.0</ele><time>2026-03-26T16:06:23Z</time></trkpt><trkpt lat="36.87751079867913" lon="15.006151047996738"><ele>117.0</ele><time>2026-03-26T16:06:24Z</time></trkpt><trkpt lat="36.87758238453805" lon="15.006182404351817"><ele>117.0</ele><time>2026-03-26T16:06:25Z</time></trkpt><trkpt lat="36.877644407216344" lon="15.006244926406717"><ele>117.0</ele><time>2026-03-26T16:06:26Z</time></trkpt><trkpt lat="36.87770495806673" lon="15.006305457051823"><ele>118.0</ele><time>2026-03-26T16:06:27Z</time></trkpt><trkpt lat="36.8777848320414" lon="15.006368626494472"><ele>119.0</ele><time>2026-03-26T16:06:29Z</time></trkpt><trkpt lat="36.87789967621185" lon="15.006405488244091"><ele>120.0</ele><time>2026-03-26T16:06:31Z</time></trkpt><trkpt lat="36.87796256297243" lon="15.00643649137561"><ele>121.0</ele><time>2026-03-26T16:06:32Z</time></trkpt><trkpt lat="36.878030356806335" lon="15.00647768570453"><ele>122.0</ele><time>2026-03-26T16:06:33Z</time></trkpt><trkpt lat="36.87808981618442" lon="15.006513311822035"><ele>123.0</ele><time>2026-03-26T16:06:34Z</time></trkpt><trkpt lat="36.878196157016305" lon="15.00654747880807"><ele>123.00000000000001</ele><time>2026-03-26T16:06:36Z</time></trkpt><trkpt lat="36.87825295950508" lon="15.00660028827255"><ele>123.0</ele><time>2026-03-26T16:06:37Z</time></trkpt><trkpt lat="36.87832812233169" lon="15.006629124428406"><ele>123.00000000000001</ele><time>2026-03-26T16:06:38Z</time></trkpt><trkpt lat="36.87839847066945" lon="15.006661535316722"><ele>123.00000000000001</ele><time>2026-03-26T16:06:39Z</time></trkpt><trkpt lat="36.87846213999834" lon="15.006692753825199"><ele>123.0</ele><time>2026-03-26T16:06:40Z</time></trkpt><trkpt lat="36.87852979059841" lon="15.00672733623174"><ele>123.00000000000001</ele><time>2026-03-26T16:06:41Z</time></trkpt><trkpt lat="36.87860362703671" lon="15.006766559812174"><ele>123.00000000000001</ele><time>2026-03-26T16:06:42Z</time></trkpt><trkpt lat="36.87868071257257" lon="15.006812038979696"><ele>124.5</ele><time>2026-03-26T16:06:43Z</time></trkpt><trkpt lat="36.87874809581314" lon="15.006864792287995"><ele>126.0</ele><time>2026-03-26T16:06:44Z</time></trkpt><trkpt lat="36.87880794336105" lon="15.00693919312836"><ele>127.5</ele><time>2026-03-26T16:06:45Z</time></trkpt><trkpt lat="36.878877299517136" lon="15.006994841476722"><ele>129.0</ele><time>2026-03-26T16:06:46Z</time></trkpt><trkpt lat="36.878950141219455" lon="15.00704161186194"><ele>130.5</ele><time>2026-03-26T16:06:47Z</time></trkpt><trkpt lat="36.879025587671336" lon="15.007078880107482"><ele>132.0</ele><time>2026-03-26T16:06:48Z</time></trkpt><trkpt lat="36.87910215733271" lon="15.007099829848462"><ele>132.0</ele><time>2026-03-26T16:06:49Z</time></trkpt><trkpt lat="36.87917046257816" lon="15.00713189147472"><ele>132.0</ele><time>2026-03-26T16:06:50Z</time></trkpt><trkpt lat="36.87924672234371" lon="15.00717364674832"><ele>132.0</ele><time>2026-03-26T16:06:51Z</time></trkpt><trkpt lat="36.87931919045115" lon="15.007220354611826"><ele>132.0</ele><time>2026-03-26T16:06:52Z</time></trkpt><trkpt lat="36.87938920360059" lon="15.007265053771784"><ele>132.0</ele><time>2026-03-26T16:06:53Z</time></trkpt><trkpt lat="36.87944544187394" lon="15.007307748477752"><ele>132.0</ele><time>2026-03-26T16:06:54Z</time></trkpt><trkpt lat="36.87949659084407" lon="15.007358547934562"><ele>132.0</ele><time>2026-03-26T16:06:55Z</time></trkpt><trkpt lat="36.87955206379958" lon="15.007419439132818"><ele>134.2</ele><time>2026-03-26T16:06:56Z</time></trkpt><trkpt lat="36.87960922426139" lon="15.007466079447559"><ele>136.39999999999998</ele><time>2026-03-26T16:06:57Z</time></trkpt><trkpt lat="36.879725546731436" lon="15.00749880138568"><ele>138.60000000000002</ele><time>2026-03-26T16:06:59Z</time></trkpt><trkpt lat="36.8798059018901" lon="15.007529715803864"><ele>140.8</ele><time>2026-03-26T16:07:01Z</time></trkpt><trkpt lat="36.87969773176031" lon="15.007612219350783"><ele>143.0</ele><time>2026-03-26T16:07:05Z</time></trkpt><trkpt lat="36.87963781961182" lon="15.0076820858577"><ele>144.66666666666666</ele><time>2026-03-26T16:07:06Z</time></trkpt><trkpt lat="36.879581415028916" lon="15.007749700909939"><ele>146.33333333333331</ele><time>2026-03-26T16:07:07Z</time></trkpt><trkpt lat="36.879533208788594" lon="15.007809126178255"><ele>148.0</ele><time>2026-03-26T16:07:08Z</time></trkpt><trkpt lat="36.879484644542565" lon="15.00786899277362"><ele>149.66666666666666</ele><time>2026-03-26T16:07:09Z</time></trkpt><trkpt lat="36.879423361116025" lon="15.007942981733745"><ele>151.33333333333334</ele><time>2026-03-26T16:07:10Z</time></trkpt><trkpt lat="36.879353218450476" lon="15.008026457738383"><ele>153.0</ele><time>2026-03-26T16:07:11Z</time></trkpt><trkpt lat="36.879288580409934" lon="15.008106687382519"><ele>151.5</ele><time>2026-03-26T16:07:12Z</time></trkpt><trkpt lat="36.879231931425956" lon="15.008179308326055"><ele>150.0</ele><time>2026-03-26T16:07:13Z</time></trkpt><trkpt lat="36.879173167841934" lon="15.00825464007766"><ele>148.5</ele><time>2026-03-26T16:07:14Z</time></trkpt><trkpt lat="36.879124780162016" lon="15.008315619576473"><ele>147.0</ele><time>2026-03-26T16:07:15Z</time></trkpt><trkpt lat="36.879017081553656" lon="15.008345427695012"><ele>145.5</ele><time>2026-03-26T16:07:17Z</time></trkpt><trkpt lat="36.87894968562639" lon="15.008357578073623"><ele>144.0</ele><time>2026-03-26T16:07:18Z</time></trkpt><trkpt lat="36.87883349642121" lon="15.00838196941479"><ele>147.66666666666666</ele><time>2026-03-26T16:07:20Z</time></trkpt><trkpt lat="36.87877742629433" lon="15.008432134067075"><ele>151.33333333333334</ele><time>2026-03-26T16:07:21Z</time></trkpt><trkpt lat="36.87872357163081" lon="15.008503490471378"><ele>155.0</ele><time>2026-03-26T16:07:22Z</time></trkpt><trkpt lat="36.87866496621822" lon="15.008586025615477"><ele>158.66666666666669</ele><time>2026-03-26T16:07:23Z</time></trkpt><trkpt lat="36.87861668020707" lon="15.008676983994793"><ele>162.33333333333334</ele><time>2026-03-26T16:07:24Z</time></trkpt><trkpt lat="36.878561724899804" lon="15.00874457337048"><ele>166.0</ele><time>2026-03-26T16:07:25Z</time></trkpt><trkpt lat="36.87848735083689" lon="15.00876919863005"><ele>164.83333333333334</ele><time>2026-03-26T16:07:26Z</time></trkpt><trkpt lat="36.87840634148418" lon="15.008802130535608"><ele>163.66666666666669</ele><time>2026-03-26T16:07:27Z</time></trkpt><trkpt lat="36.87832276044572" lon="15.008839013122337"><ele>162.5</ele><time>2026-03-26T16:07:28Z</time></trkpt><trkpt lat="36.87824650090363" lon="15.008873080646493"><ele>161.33333333333334</ele><time>2026-03-26T16:07:29Z</time></trkpt><trkpt lat="36.87816315634948" lon="15.008914800778502"><ele>160.16666666666666</ele><time>2026-03-26T16:07:30Z</time></trkpt><trkpt lat="36.878080262987254" lon="15.008964657297426"><ele>159.0</ele><time>2026-03-26T16:07:31Z</time></trkpt><trkpt lat="36.8780109730591" lon="15.008998578399607"><ele>159.0</ele><time>2026-03-26T16:07:32Z</time></trkpt><trkpt lat="36.87794063161462" lon="15.00903021192053"><ele>159.0</ele><time>2026-03-26T16:07:33Z</time></trkpt><trkpt lat="36.87787909369325" lon="15.009068202483686"><ele>159.0</ele><time>2026-03-26T16:07:34Z</time></trkpt><trkpt lat="36.87782247889214" lon="15.009137513518596"><ele>159.0</ele><time>2026-03-26T16:07:36Z</time></trkpt><trkpt lat="36.87784703784169" lon="15.00921507232024"><ele>159.0</ele><time>2026-03-26T16:07:37Z</time></trkpt><trkpt lat="36.87790962906104" lon="15.009328207885268"><ele>159.0</ele><time>2026-03-26T16:07:54.999Z</time></trkpt><trkpt lat="36.877945430696094" lon="15.009418677286645"><ele>162.5</ele><time>2026-03-26T16:07:55.999Z</time></trkpt><trkpt lat="36.87794596465588" lon="15.009530009118462"><ele>166.0</ele><time>2026-03-26T16:07:56.999Z</time></trkpt><trkpt lat="36.877965144487945" lon="15.009618578228682"><ele>169.5</ele><time>2026-03-26T16:07:57.999Z</time></trkpt><trkpt lat="36.87799137283353" lon="15.009759561675898"><ele>173.0</ele><time>2026-03-26T16:07:59.999Z</time></trkpt><trkpt lat="36.87802885481355" lon="15.009828038451872"><ele>176.5</ele><time>2026-03-26T16:08:00.999Z</time></trkpt><trkpt lat="36.8780925086961" lon="15.009885567616177"><ele>180.0</ele><time>2026-03-26T16:08:01.999Z</time></trkpt><trkpt lat="36.878151904292785" lon="15.0099710409787"><ele>180.5</ele><time>2026-03-26T16:08:02.999Z</time></trkpt><trkpt lat="36.87820300547923" lon="15.010066447385505"><ele>181.0</ele><time>2026-03-26T16:08:03.999Z</time></trkpt><trkpt lat="36.87825370639595" lon="15.010170403222393"><ele>181.5</ele><time>2026-03-26T16:08:05Z</time></trkpt><trkpt lat="36.87830403701784" lon="15.010267074464112"><ele>182.0</ele><time>2026-03-26T16:08:06Z</time></trkpt><trkpt lat="36.87833507999296" lon="15.010343950054185"><ele>182.5</ele><time>2026-03-26T16:08:07Z</time></trkpt><trkpt lat="36.87835368704531" lon="15.010422353923984"><ele>183.0</ele><time>2026-03-26T16:08:08Z</time></trkpt><trkpt lat="36.878370413877384" lon="15.010515192740353"><ele>183.0</ele><time>2026-03-26T16:08:09Z</time></trkpt><trkpt lat="36.87838865802416" lon="15.010597359462126"><ele>183.0</ele><time>2026-03-26T16:08:10Z</time></trkpt><trkpt lat="36.878403145282036" lon="15.010677882037957"><ele>183.0</ele><time>2026-03-26T16:08:11Z</time></trkpt><trkpt lat="36.878409383718186" lon="15.010764341555431"><ele>183.0</ele><time>2026-03-26T16:08:12Z</time></trkpt><trkpt lat="36.8784043236502" lon="15.010851548922567"><ele>183.0</ele><time>2026-03-26T16:08:13Z</time></trkpt><trkpt lat="36.87839144167989" lon="15.01094059592663"><ele>183.0</ele><time>2026-03-26T16:08:14Z</time></trkpt><trkpt lat="36.87836407138545" lon="15.011023044608931"><ele>183.0</ele><time>2026-03-26T16:08:15Z</time></trkpt><trkpt lat="36.87832825922473" lon="15.011097930503212"><ele>182.83333333333334</ele><time>2026-03-26T16:08:16Z</time></trkpt><trkpt lat="36.878281282707604" lon="15.011157353281924"><ele>182.66666666666666</ele><time>2026-03-26T16:08:17Z</time></trkpt><trkpt lat="36.87822224779994" lon="15.01121214124229"><ele>182.5</ele><time>2026-03-26T16:08:18Z</time></trkpt><trkpt lat="36.87815365910776" lon="15.011272234098739"><ele>182.33333333333331</ele><time>2026-03-26T16:08:19Z</time></trkpt><trkpt lat="36.878083469630965" lon="15.011325790130735"><ele>182.16666666666666</ele><time>2026-03-26T16:08:20Z</time></trkpt><trkpt lat="36.87800467657567" lon="15.011371386426603"><ele>182.0</ele><time>2026-03-26T16:08:21Z</time></trkpt><trkpt lat="36.87792171878091" lon="15.01141650272163"><ele>182.0</ele><time>2026-03-26T16:08:22Z</time></trkpt><trkpt lat="36.87783573426967" lon="15.011443170066064"><ele>182.0</ele><time>2026-03-26T16:08:23Z</time></trkpt><trkpt lat="36.87774283840329" lon="15.011445965471387"><ele>182.0</ele><time>2026-03-26T16:08:24Z</time></trkpt><trkpt lat="36.877648345568055" lon="15.01146711193344"><ele>182.0</ele><time>2026-03-26T16:08:25Z</time></trkpt><trkpt lat="36.87757170328458" lon="15.011488851810375"><ele>182.0</ele><time>2026-03-26T16:08:26Z</time></trkpt><trkpt lat="36.87750802026999" lon="15.01150976808489"><ele>182.0</ele><time>2026-03-26T16:08:27Z</time></trkpt><trkpt lat="36.877379695425" lon="15.011559359807343"><ele>181.83333333333331</ele><time>2026-03-26T16:08:29Z</time></trkpt><trkpt lat="36.877275323454285" lon="15.011634268526011"><ele>181.66666666666666</ele><time>2026-03-26T16:08:31Z</time></trkpt><trkpt lat="36.8772273310556" lon="15.011708195148525"><ele>181.5</ele><time>2026-03-26T16:08:32Z</time></trkpt><trkpt lat="36.87716897396449" lon="15.01179684758605"><ele>181.33333333333334</ele><time>2026-03-26T16:08:33Z</time></trkpt><trkpt lat="36.87712043071974" lon="15.011869562046739"><ele>181.16666666666669</ele><time>2026-03-26T16:08:34Z</time></trkpt><trkpt lat="36.87707735058887" lon="15.011939445171697"><ele>181.0</ele><time>2026-03-26T16:08:35Z</time></trkpt><trkpt lat="36.87703921448719" lon="15.012020710217925"><ele>181.0</ele><time>2026-03-26T16:08:36Z</time></trkpt><trkpt lat="36.87700827847578" lon="15.012124945838103"><ele>181.0</ele><time>2026-03-26T16:08:37Z</time></trkpt><trkpt lat="36.87698126978224" lon="15.01223199818309"><ele>181.0</ele><time>2026-03-26T16:08:38Z</time></trkpt><trkpt lat="36.876958142181444" lon="15.012345681891127"><ele>181.0</ele><time>2026-03-26T16:08:39Z</time></trkpt><trkpt lat="36.87694647903153" lon="15.012456461083563"><ele>181.0</ele><time>2026-03-26T16:08:40Z</time></trkpt><trkpt lat="36.876940970663384" lon="15.012566394176785"><ele>181.66666666666669</ele><time>2026-03-26T16:08:41Z</time></trkpt><trkpt lat="36.87694792497937" lon="15.01267343695999"><ele>182.33333333333334</ele><time>2026-03-26T16:08:42Z</time></trkpt><trkpt lat="36.87694853010461" lon="15.012764655281881"><ele>183.0</ele><time>2026-03-26T16:08:43Z</time></trkpt><trkpt lat="36.87694697571846" lon="15.012849912034802"><ele>183.66666666666666</ele><time>2026-03-26T16:08:44Z</time></trkpt><trkpt lat="36.87693515971175" lon="15.01295136066433"><ele>184.33333333333331</ele><time>2026-03-26T16:08:46Z</time></trkpt><trkpt lat="36.87694711687065" lon="15.012861890991255"><ele>185.0</ele><time>2026-03-26T16:09:14Z</time></trkpt><trkpt lat="36.87694853010567" lon="15.012744593125964"><ele>185.0</ele><time>2026-03-26T16:09:16Z</time></trkpt><trkpt lat="36.87694519195834" lon="15.012611418413947"><ele>185.0</ele><time>2026-03-26T16:09:18Z</time></trkpt><trkpt lat="36.876943297901185" lon="15.012505357122118"><ele>185.0</ele><time>2026-03-26T16:09:20Z</time></trkpt><trkpt lat="36.87695135278595" lon="15.012405059239375"><ele>185.0</ele><time>2026-03-26T16:09:22Z</time></trkpt><trkpt lat="36.87696413416599" lon="15.012315801569931"><ele>185.0</ele><time>2026-03-26T16:09:24Z</time></trkpt><trkpt lat="36.87698289744254" lon="15.012224064513223"><ele>185.0</ele><time>2026-03-26T16:09:44Z</time></trkpt><trkpt lat="36.87699816721667" lon="15.012078969107366"><ele>184.2</ele><time>2026-03-26T16:09:47Z</time></trkpt><trkpt lat="36.876926804448466" lon="15.011934375854695"><ele>183.4</ele><time>2026-03-26T16:09:49Z</time></trkpt><trkpt lat="36.87693276443985" lon="15.011811121170675"><ele>182.60000000000002</ele><time>2026-03-26T16:09:51Z</time></trkpt><trkpt lat="36.87693625719321" lon="15.01172455333401"><ele>181.8</ele><time>2026-03-26T16:09:55Z</time></trkpt><trkpt lat="36.87697626108135" lon="15.011628074406671"><ele>181.0</ele><time>2026-03-26T16:11:14Z</time></trkpt><trkpt lat="36.877013151372545" lon="15.011516531040122"><ele>178.0</ele><time>2026-03-26T16:11:23Z</time></trkpt><trkpt lat="36.87704835513551" lon="15.011445587514398"><ele>175.0</ele><time>2026-03-26T16:11:25Z</time></trkpt><trkpt lat="36.87710179740107" lon="15.011353939438301"><ele>172.0</ele><time>2026-03-26T16:11:28Z</time></trkpt><trkpt lat="36.877151479161874" lon="15.011282646973148"><ele>169.0</ele><time>2026-03-26T16:11:38Z</time></trkpt><trkpt lat="36.877096290092524" lon="15.011388276232411"><ele>166.0</ele><time>2026-03-26T16:11:53Z</time></trkpt><trkpt lat="36.87704738909332" lon="15.011462898416484"><ele>163.0</ele><time>2026-03-26T16:11:54Z</time></trkpt><trkpt lat="36.87701023794974" lon="15.011548769692991"><ele>163.0</ele><time>2026-03-26T16:11:55Z</time></trkpt><trkpt lat="36.87697864489291" lon="15.011632673366467"><ele>163.0</ele><time>2026-03-26T16:11:56Z</time></trkpt><trkpt lat="36.87709664922927" lon="15.01187405442328"><ele>163.0</ele><time>2026-03-26T16:11:58Z</time></trkpt><trkpt lat="36.87705646681071" lon="15.011937178351289"><ele>163.0</ele><time>2026-03-26T16:12:00Z</time></trkpt><trkpt lat="36.877017404473236" lon="15.012031659083778"><ele>166.0</ele><time>2026-03-26T16:12:02Z</time></trkpt><trkpt lat="36.876993174976555" lon="15.01211305949077"><ele>169.0</ele><time>2026-03-26T16:12:03.999Z</time></trkpt><trkpt lat="36.87698484562602" lon="15.012214493512849"><ele>172.0</ele><time>2026-03-26T16:12:07.999Z</time></trkpt><trkpt lat="36.87696390708006" lon="15.012317360183836"><ele>175.0</ele><time>2026-03-26T16:12:09.999Z</time></trkpt><trkpt lat="36.876951344136735" lon="15.012404999622062"><ele>178.0</ele><time>2026-03-26T16:12:12.999Z</time></trkpt><trkpt lat="36.87682129259429" lon="15.012426345465753"><ele>181.0</ele><time>2026-03-26T16:12:19Z</time></trkpt><trkpt lat="36.87677365113872" lon="15.012491851648235"><ele>181.5</ele><time>2026-03-26T16:12:30Z</time></trkpt><trkpt lat="36.87670908670183" lon="15.012496809348248"><ele>182.0</ele><time>2026-03-26T16:12:38Z</time></trkpt><trkpt lat="36.87665388567004" lon="15.012433141946676"><ele>182.5</ele><time>2026-03-26T16:12:42Z</time></trkpt><trkpt lat="36.87665900710546" lon="15.012321081909388"><ele>183.0</ele><time>2026-03-26T16:13:00Z</time></trkpt><trkpt lat="36.876660625985394" lon="15.012225347231821"><ele>183.5</ele><time>2026-03-26T16:13:02Z</time></trkpt><trkpt lat="36.876648961489266" lon="15.012123496657365"><ele>184.0</ele><time>2026-03-26T16:13:04Z</time></trkpt><trkpt lat="36.87663993059152" lon="15.012026995557044"><ele>182.16666666666669</ele><time>2026-03-26T16:13:06Z</time></trkpt><trkpt lat="36.876622136309784" lon="15.01193730883197"><ele>180.33333333333334</ele><time>2026-03-26T16:13:08Z</time></trkpt><trkpt lat="36.87657425769589" lon="15.011845629232322"><ele>178.5</ele><time>2026-03-26T16:13:22Z</time></trkpt><trkpt lat="36.876524486411384" lon="15.011752071289425"><ele>176.66666666666666</ele><time>2026-03-26T16:13:24Z</time></trkpt><trkpt lat="36.87645965664906" lon="15.011681508296476"><ele>174.83333333333331</ele><time>2026-03-26T16:13:26Z</time></trkpt><trkpt lat="36.87639720305708" lon="15.011650554203577"><ele>173.0</ele><time>2026-03-26T16:13:28Z</time></trkpt><trkpt lat="36.87632844719376" lon="15.011607937150558"><ele>168.8</ele><time>2026-03-26T16:15:28Z</time></trkpt><trkpt lat="36.876256677867836" lon="15.011560076425388"><ele>164.60000000000002</ele><time>2026-03-26T16:15:30Z</time></trkpt><trkpt lat="36.87616021717665" lon="15.011497440881335"><ele>160.39999999999998</ele><time>2026-03-26T16:15:32Z</time></trkpt><trkpt lat="36.87604221619328" lon="15.01143021828329"><ele>156.2</ele><time>2026-03-26T16:15:34Z</time></trkpt><trkpt lat="36.87598256840489" lon="15.011390637212822"><ele>152.0</ele><time>2026-03-26T16:15:35Z</time></trkpt><trkpt lat="36.8758942049573" lon="15.011314129929794"><ele>151.83333333333331</ele><time>2026-03-26T16:15:37Z</time></trkpt><trkpt lat="36.8758246889108" lon="15.011259901566524"><ele>151.66666666666666</ele><time>2026-03-26T16:15:39Z</time></trkpt><trkpt lat="36.87574600546324" lon="15.011252586146709"><ele>151.5</ele><time>2026-03-26T16:15:41Z</time></trkpt><trkpt lat="36.87565078141926" lon="15.01122678054496"><ele>151.33333333333334</ele><time>2026-03-26T16:15:43Z</time></trkpt><trkpt lat="36.875561054186846" lon="15.011158912434395"><ele>151.16666666666669</ele><time>2026-03-26T16:15:45Z</time></trkpt><trkpt lat="36.87552247804746" lon="15.011087802507397"><ele>151.0</ele><time>2026-03-26T16:15:47Z</time></trkpt><trkpt lat="36.87550675766414" lon="15.011009580335974"><ele>151.00000000000003</ele><time>2026-03-26T16:18:14.999Z</time></trkpt><trkpt lat="36.87548257844659" lon="15.010931489908668"><ele>151.0</ele><time>2026-03-26T16:18:24.999Z</time></trkpt><trkpt lat="36.87545606388087" lon="15.010856699094225"><ele>151.0</ele><time>2026-03-26T16:18:57Z</time></trkpt><trkpt lat="36.87543061225871" lon="15.010777455262732"><ele>151.0</ele><time>2026-03-26T16:19:14Z</time></trkpt><trkpt lat="36.87540337355849" lon="15.01070213304648"><ele>151.0</ele><time>2026-03-26T16:19:21Z</time></trkpt><trkpt lat="36.87537692100155" lon="15.010628731531922"><ele>151.00000000000003</ele><time>2026-03-26T16:19:28Z</time></trkpt><trkpt lat="36.875350302226906" lon="15.010553811399701"><ele>151.0</ele><time>2026-03-26T16:19:33Z</time></trkpt><trkpt lat="36.875325303680924" lon="15.010472323995145"><ele>148.2857142857143</ele><time>2026-03-26T16:19:36Z</time></trkpt><trkpt lat="36.875278839589996" lon="15.01037854233101"><ele>145.57142857142858</ele><time>2026-03-26T16:19:47Z</time></trkpt><trkpt lat="36.87524003785308" lon="15.010308343342336"><ele>142.85714285714286</ele><time>2026-03-26T16:19:55Z</time></trkpt><trkpt lat="36.875207885933825" lon="15.010235333297029"><ele>140.14285714285717</ele><time>2026-03-26T16:20:06Z</time></trkpt><trkpt lat="36.87517715524525" lon="15.010163163742185"><ele>137.42857142857144</ele><time>2026-03-26T16:20:16Z</time></trkpt><trkpt lat="36.87515031850607" lon="15.010089572550307"><ele>134.71428571428572</ele><time>2026-03-26T16:20:46Z</time></trkpt><trkpt lat="36.87521582898644" lon="15.010059809241026"><ele>132.0</ele><time>2026-03-26T16:20:53Z</time></trkpt><trkpt lat="36.87527727442817" lon="15.01011867074781"><ele>132.0</ele><time>2026-03-26T16:21:00Z</time></trkpt><trkpt lat="36.87531670543764" lon="15.010183300628897"><ele>132.0</ele><time>2026-03-26T16:21:06Z</time></trkpt><trkpt lat="36.875358093366756" lon="15.010242619128384"><ele>132.0</ele><time>2026-03-26T16:21:10Z</time></trkpt><trkpt lat="36.8754119420717" lon="15.010312323478855"><ele>132.0</ele><time>2026-03-26T16:21:14Z</time></trkpt><trkpt lat="36.87546190844867" lon="15.010373110402439"><ele>132.0</ele><time>2026-03-26T16:21:18Z</time></trkpt><trkpt lat="36.875512601974464" lon="15.010433991275447"><ele>132.0</ele><time>2026-03-26T16:21:21Z</time></trkpt><trkpt lat="36.87556839165192" lon="15.010492218104527"><ele>132.0</ele><time>2026-03-26T16:21:23Z</time></trkpt><trkpt lat="36.875619922971254" lon="15.010551070932188"><ele>132.0</ele><time>2026-03-26T16:21:25Z</time></trkpt><trkpt lat="36.87567488369315" lon="15.01060897243747"><ele>132.0</ele><time>2026-03-26T16:21:27Z</time></trkpt><trkpt lat="36.8757309534662" lon="15.010646949010997"><ele>132.0</ele><time>2026-03-26T16:21:29Z</time></trkpt><trkpt lat="36.87581917105252" lon="15.010678561861184"><ele>132.0</ele><time>2026-03-26T16:21:32Z</time></trkpt><trkpt lat="36.875883282978826" lon="15.010672590023045"><ele>132.0</ele><time>2026-03-26T16:21:34Z</time></trkpt><trkpt lat="36.87595928321426" lon="15.010659652280054"><ele>132.0</ele><time>2026-03-26T16:21:36Z</time></trkpt><trkpt lat="36.87604650103456" lon="15.01065504737654"><ele>133.16666666666666</ele><time>2026-03-26T16:21:38Z</time></trkpt><trkpt lat="36.876115763148796" lon="15.010637243058651"><ele>134.33333333333334</ele><time>2026-03-26T16:21:41Z</time></trkpt><trkpt lat="36.876194515200744" lon="15.010591008520525"><ele>135.5</ele><time>2026-03-26T16:21:45Z</time></trkpt><trkpt lat="36.87626202584401" lon="15.010545435486808"><ele>136.66666666666669</ele><time>2026-03-26T16:21:48Z</time></trkpt><trkpt lat="36.876326616432" lon="15.010522676836509"><ele>137.83333333333334</ele><time>2026-03-26T16:21:51Z</time></trkpt><trkpt lat="36.87640438736685" lon="15.010503434934405"><ele>139.0</ele><time>2026-03-26T16:21:54Z</time></trkpt><trkpt lat="36.87643625848491" lon="15.010424933213491"><ele>139.0</ele><time>2026-03-26T16:21:57Z</time></trkpt><trkpt lat="36.876368956468916" lon="15.01037897065218"><ele>139.0</ele><time>2026-03-26T16:22:01Z</time></trkpt><trkpt lat="36.8762898945437" lon="15.010350428533949"><ele>139.0</ele><time>2026-03-26T16:22:39.999Z</time></trkpt><trkpt lat="36.87625456810198" lon="15.01028375605507"><ele>139.0</ele><time>2026-03-26T16:22:42.999Z</time></trkpt><trkpt lat="36.876182167800074" lon="15.010210552758883"><ele>139.0</ele><time>2026-03-26T16:22:49Z</time></trkpt><trkpt lat="36.876127763886856" lon="15.010160950749132"><ele>139.0</ele><time>2026-03-26T16:22:51Z</time></trkpt><trkpt lat="36.87609628339195" lon="15.01008739043569"><ele>139.0</ele><time>2026-03-26T16:22:55Z</time></trkpt><trkpt lat="36.876045525520645" lon="15.010030567960793"><ele>139.0</ele><time>2026-03-26T16:22:57Z</time></trkpt><trkpt lat="36.875963771763956" lon="15.009966920220513"><ele>139.0</ele><time>2026-03-26T16:22:59Z</time></trkpt><trkpt lat="36.87586352514058" lon="15.009884989943677"><ele>139.0</ele><time>2026-03-26T16:23:01Z</time></trkpt><trkpt lat="36.8757900788379" lon="15.009828561936137"><ele>139.0</ele><time>2026-03-26T16:23:03Z</time></trkpt><trkpt lat="36.87574564755716" lon="15.009730075084118"><ele>136.8</ele><time>2026-03-26T16:23:06Z</time></trkpt><trkpt lat="36.87575645257611" lon="15.00961379593063"><ele>134.60000000000002</ele><time>2026-03-26T16:23:08Z</time></trkpt><trkpt lat="36.87573744844656" lon="15.00950694309862"><ele>132.4</ele><time>2026-03-26T16:23:10Z</time></trkpt><trkpt lat="36.87570302468354" lon="15.009388055845724"><ele>130.20000000000002</ele><time>2026-03-26T16:23:12Z</time></trkpt><trkpt lat="36.87566290461334" lon="15.009263417713445"><ele>128.0</ele><time>2026-03-26T16:23:14Z</time></trkpt><trkpt lat="36.875633425072245" lon="15.00919316464565"><ele>130.4</ele><time>2026-03-26T16:23:15Z</time></trkpt><trkpt lat="36.87561167143508" lon="15.009050591281348"><ele>132.8</ele><time>2026-03-26T16:23:17Z</time></trkpt><trkpt lat="36.875574881038915" lon="15.008910454709499"><ele>135.2</ele><time>2026-03-26T16:23:19Z</time></trkpt><trkpt lat="36.875536808040756" lon="15.008804665822534"><ele>137.6</ele><time>2026-03-26T16:23:21Z</time></trkpt><trkpt lat="36.87549587404103" lon="15.008720663291433"><ele>140.0</ele><time>2026-03-26T16:23:23Z</time></trkpt><trkpt lat="36.87546382714009" lon="15.008649338281442"><ele>140.0</ele><time>2026-03-26T16:23:25Z</time></trkpt><trkpt lat="36.87541654682364" lon="15.008573700776758"><ele>140.0</ele><time>2026-03-26T16:23:30Z</time></trkpt><trkpt lat="36.87538179736354" lon="15.00847136074193"><ele>140.0</ele><time>2026-03-26T16:23:33Z</time></trkpt><trkpt lat="36.875363251432965" lon="15.008383069567872"><ele>140.0</ele><time>2026-03-26T16:23:36Z</time></trkpt><trkpt lat="36.87534815421191" lon="15.00826550750902"><ele>140.0</ele><time>2026-03-26T16:23:38Z</time></trkpt><trkpt lat="36.875332364650745" lon="15.008167550524899"><ele>140.0</ele><time>2026-03-26T16:23:40Z</time></trkpt><trkpt lat="36.875293095449436" lon="15.008086731625882"><ele>140.16666666666666</ele><time>2026-03-26T16:23:42Z</time></trkpt><trkpt lat="36.87522068648791" lon="15.008041342455815"><ele>140.33333333333331</ele><time>2026-03-26T16:23:44Z</time></trkpt><trkpt lat="36.87513736755094" lon="15.007966138261946"><ele>140.5</ele><time>2026-03-26T16:23:46Z</time></trkpt><trkpt lat="36.87506896916784" lon="15.007920690726294"><ele>140.66666666666666</ele><time>2026-03-26T16:23:48Z</time></trkpt><trkpt lat="36.87499035745619" lon="15.007874222968251"><ele>140.83333333333334</ele><time>2026-03-26T16:23:51Z</time></trkpt><trkpt lat="36.87494594159449" lon="15.007809491128034"><ele>141.0</ele><time>2026-03-26T16:23:53Z</time></trkpt><trkpt lat="36.874870257306206" lon="15.007712841605839"><ele>138.66666666666666</ele><time>2026-03-26T16:23:55Z</time></trkpt><trkpt lat="36.87481923579332" lon="15.007623060461547"><ele>136.33333333333334</ele><time>2026-03-26T16:23:57Z</time></trkpt><trkpt lat="36.8747986413927" lon="15.007525314011147"><ele>134.0</ele><time>2026-03-26T16:23:59Z</time></trkpt><trkpt lat="36.87480122817366" lon="15.007424137425836"><ele>131.66666666666669</ele><time>2026-03-26T16:24:01Z</time></trkpt><trkpt lat="36.87478893587296" lon="15.007312459088618"><ele>129.33333333333334</ele><time>2026-03-26T16:24:03Z</time></trkpt><trkpt lat="36.87478420989142" lon="15.007232323763649"><ele>127.0</ele><time>2026-03-26T16:24:06Z</time></trkpt><trkpt lat="36.87476946278749" lon="15.007140069983468"><ele>125.50000000000001</ele><time>2026-03-26T16:24:11Z</time></trkpt><trkpt lat="36.874771410874146" lon="15.007046028243304"><ele>124.0</ele><time>2026-03-26T16:24:16Z</time></trkpt><trkpt lat="36.874794317670904" lon="15.006947776318203"><ele>122.5</ele><time>2026-03-26T16:24:22Z</time></trkpt><trkpt lat="36.87482459978791" lon="15.006860835108023"><ele>121.0</ele><time>2026-03-26T16:24:26Z</time></trkpt><trkpt lat="36.87487036845102" lon="15.006768183126077"><ele>119.50000000000001</ele><time>2026-03-26T16:24:31Z</time></trkpt><trkpt lat="36.874920198397945" lon="15.00669435958965"><ele>118.0</ele><time>2026-03-26T16:24:34.999Z</time></trkpt><trkpt lat="36.875016837207546" lon="15.006670094476414"><ele>118.33333333333334</ele><time>2026-03-26T16:24:37.999Z</time></trkpt><trkpt lat="36.87511055517923" lon="15.006672145966313"><ele>118.66666666666667</ele><time>2026-03-26T16:24:39.999Z</time></trkpt><trkpt lat="36.87519234442581" lon="15.006673235667883"><ele>119.0</ele><time>2026-03-26T16:24:41.999Z</time></trkpt><trkpt lat="36.87526995462997" lon="15.006657834507394"><ele>119.33333333333334</ele><time>2026-03-26T16:24:44.999Z</time></trkpt><trkpt lat="36.87535067050165" lon="15.006633166358203"><ele>119.66666666666667</ele><time>2026-03-26T16:24:51Z</time></trkpt><trkpt lat="36.87541525166606" lon="15.00660989335063"><ele>120.0</ele><time>2026-03-26T16:24:53Z</time></trkpt><trkpt lat="36.87547075595027" lon="15.006564492027936"><ele>118.66666666666667</ele><time>2026-03-26T16:24:56Z</time></trkpt><trkpt lat="36.875560853456115" lon="15.00656178925509"><ele>117.33333333333334</ele><time>2026-03-26T16:24:59Z</time></trkpt><trkpt lat="36.87564285364656" lon="15.00658125241333"><ele>116.0</ele><time>2026-03-26T16:25:01Z</time></trkpt><trkpt lat="36.87571811650487" lon="15.006590996129919"><ele>114.66666666666667</ele><time>2026-03-26T16:25:03Z</time></trkpt><trkpt lat="36.87579963831824" lon="15.006591736739047"><ele>113.33333333333334</ele><time>2026-03-26T16:25:05Z</time></trkpt><trkpt lat="36.87587924987666" lon="15.006583697693188"><ele>112.0</ele><time>2026-03-26T16:25:07Z</time></trkpt><trkpt lat="36.875947481052194" lon="15.006569430255514"><ele>112.00000000000001</ele><time>2026-03-26T16:25:09Z</time></trkpt><trkpt lat="36.87599623834878" lon="15.006491107012193"><ele>112.0</ele><time>2026-03-26T16:25:12Z</time></trkpt><trkpt lat="36.875994752312245" lon="15.006376897835716"><ele>112.0</ele><time>2026-03-26T16:25:15Z</time></trkpt><trkpt lat="36.87600131163335" lon="15.0062651502283"><ele>112.0</ele><time>2026-03-26T16:25:18Z</time></trkpt><trkpt lat="36.87598721570663" lon="15.006156520082248"><ele>112.00000000000001</ele><time>2026-03-26T16:25:21Z</time></trkpt><trkpt lat="36.87595914888856" lon="15.00606676361007"><ele>112.0</ele><time>2026-03-26T16:25:24Z</time></trkpt><trkpt lat="36.87601407157924" lon="15.005987375443093"><ele>112.0</ele><time>2026-03-26T16:25:28Z</time></trkpt><trkpt lat="36.87611412978526" lon="15.00595644765527"><ele>111.99999999999999</ele><time>2026-03-26T16:25:30Z</time></trkpt><trkpt lat="36.87621912338734" lon="15.005902220677568"><ele>111.99999999999999</ele><time>2026-03-26T16:25:32Z</time></trkpt><trkpt lat="36.87630801900348" lon="15.00580769170284"><ele>112.0</ele><time>2026-03-26T16:25:34Z</time></trkpt><trkpt lat="36.87636412331915" lon="15.005750825337152"><ele>112.0</ele><time>2026-03-26T16:25:35Z</time></trkpt><trkpt lat="36.87642237949014" lon="15.005695402122196"><ele>112.83333333333334</ele><time>2026-03-26T16:25:36Z</time></trkpt><trkpt lat="36.876487478073415" lon="15.005641975282064"><ele>113.66666666666667</ele><time>2026-03-26T16:25:37Z</time></trkpt><trkpt lat="36.87656191742958" lon="15.00559675776912"><ele>114.5</ele><time>2026-03-26T16:25:38Z</time></trkpt><trkpt lat="36.87663957681336" lon="15.00554764355532"><ele>115.33333333333334</ele><time>2026-03-26T16:25:39Z</time></trkpt><trkpt lat="36.87673380105689" lon="15.005548661266612"><ele>116.16666666666667</ele><time>2026-03-26T16:25:40Z</time></trkpt><trkpt lat="36.876797772272056" lon="15.005508535973275"><ele>117.0</ele><time>2026-03-26T16:25:41Z</time></trkpt><trkpt lat="36.87686390239883" lon="15.005383212210036"><ele>117.0</ele><time>2026-03-26T16:25:43Z</time></trkpt><trkpt lat="36.8769435608904" lon="15.005306958111335"><ele>116.99999999999999</ele><time>2026-03-26T16:25:45Z</time></trkpt><trkpt lat="36.87703102205912" lon="15.00519673243687"><ele>116.99999999999999</ele><time>2026-03-26T16:25:47Z</time></trkpt><trkpt lat="36.87710022860271" lon="15.005140851289358"><ele>117.0</ele><time>2026-03-26T16:25:48Z</time></trkpt><trkpt lat="36.87717538404236" lon="15.005104529814822"><ele>117.0</ele><time>2026-03-26T16:25:49Z</time></trkpt><trkpt lat="36.87725507182421" lon="15.005080836321179"><ele>117.0</ele><time>2026-03-26T16:25:50Z</time></trkpt><trkpt lat="36.87733293593473" lon="15.005065977159513"><ele>117.0</ele><time>2026-03-26T16:25:51Z</time></trkpt><trkpt lat="36.8774033732761" lon="15.00504251993669"><ele>117.0</ele><time>2026-03-26T16:25:52Z</time></trkpt><trkpt lat="36.877460650330605" lon="15.00499440454857"><ele>117.0</ele><time>2026-03-26T16:25:53Z</time></trkpt><trkpt lat="36.87752843991356" lon="15.004933360393336"><ele>117.0</ele><time>2026-03-26T16:25:54Z</time></trkpt><trkpt lat="36.877591115910725" lon="15.004872274315169"><ele>117.0</ele><time>2026-03-26T16:25:55Z</time></trkpt><trkpt lat="36.87766310528181" lon="15.004811236953794"><ele>117.33333333333333</ele><time>2026-03-26T16:25:56Z</time></trkpt><trkpt lat="36.87773325570164" lon="15.004746793899631"><ele>117.66666666666666</ele><time>2026-03-26T16:25:57Z</time></trkpt><trkpt lat="36.877804508088" lon="15.004689484595456"><ele>118.0</ele><time>2026-03-26T16:25:58Z</time></trkpt><trkpt lat="36.87787641266823" lon="15.004639842369036"><ele>118.33333333333333</ele><time>2026-03-26T16:25:59Z</time></trkpt><trkpt lat="36.87794946320484" lon="15.004587219298196"><ele>118.66666666666666</ele><time>2026-03-26T16:26:00Z</time></trkpt><trkpt lat="36.878030052724284" lon="15.004546599366634"><ele>119.0</ele><time>2026-03-26T16:26:01Z</time></trkpt><trkpt lat="36.87811425838962" lon="15.004505742780978"><ele>119.0</ele><time>2026-03-26T16:26:02Z</time></trkpt><trkpt lat="36.87820755798285" lon="15.004470764710273"><ele>119.0</ele><time>2026-03-26T16:26:03Z</time></trkpt><trkpt lat="36.87828501054259" lon="15.004415875667815"><ele>119.0</ele><time>2026-03-26T16:26:04Z</time></trkpt><trkpt lat="36.878360065961914" lon="15.004362551312843"><ele>119.0</ele><time>2026-03-26T16:26:05Z</time></trkpt><trkpt lat="36.87844154869842" lon="15.004323924390315"><ele>119.0</ele><time>2026-03-26T16:26:06Z</time></trkpt><trkpt lat="36.87853944216233" lon="15.0043121207729"><ele>119.66666666666666</ele><time>2026-03-26T16:26:07Z</time></trkpt><trkpt lat="36.87863913090861" lon="15.004291006527454"><ele>120.33333333333333</ele><time>2026-03-26T16:26:08Z</time></trkpt><trkpt lat="36.87873814939569" lon="15.004259280296083"><ele>121.0</ele><time>2026-03-26T16:26:09Z</time></trkpt><trkpt lat="36.87883052871926" lon="15.004258126955806"><ele>121.66666666666666</ele><time>2026-03-26T16:26:10Z</time></trkpt><trkpt lat="36.87891023302285" lon="15.004252611085736"><ele>122.33333333333333</ele><time>2026-03-26T16:26:11Z</time></trkpt><trkpt lat="36.878976213133825" lon="15.004229095149576"><ele>123.0</ele><time>2026-03-26T16:26:12Z</time></trkpt><trkpt lat="36.87905996434472" lon="15.004152941128755"><ele>123.0</ele><time>2026-03-26T16:26:14Z</time></trkpt><trkpt lat="36.87910330721531" lon="15.004081754241323"><ele>123.0</ele><time>2026-03-26T16:26:15Z</time></trkpt><trkpt lat="36.87915227170805" lon="15.003998876866877"><ele>123.0</ele><time>2026-03-26T16:26:16Z</time></trkpt><trkpt lat="36.87919622665735" lon="15.003913425779148"><ele>123.0</ele><time>2026-03-26T16:26:17Z</time></trkpt><trkpt lat="36.87924449658415" lon="15.003833522047652"><ele>123.0</ele><time>2026-03-26T16:26:18Z</time></trkpt><trkpt lat="36.879293594666876" lon="15.00376178434043"><ele>123.0</ele><time>2026-03-26T16:26:19Z</time></trkpt><trkpt lat="36.879348153249055" lon="15.003710130126032"><ele>124.0</ele><time>2026-03-26T16:26:20Z</time></trkpt><trkpt lat="36.87942607043197" lon="15.0036919159311"><ele>125.0</ele><time>2026-03-26T16:26:21Z</time></trkpt><trkpt lat="36.8795033941767" lon="15.003664101814191"><ele>126.0</ele><time>2026-03-26T16:26:22Z</time></trkpt><trkpt lat="36.87958496294602" lon="15.003624775609214"><ele>127.0</ele><time>2026-03-26T16:26:23Z</time></trkpt><trkpt lat="36.87967597973646" lon="15.003600602828012"><ele>128.0</ele><time>2026-03-26T16:26:24Z</time></trkpt><trkpt lat="36.87975845285301" lon="15.003564987634256"><ele>129.0</ele><time>2026-03-26T16:26:25Z</time></trkpt><trkpt lat="36.87983259288863" lon="15.003533155645824"><ele>129.0</ele><time>2026-03-26T16:26:26Z</time></trkpt><trkpt lat="36.87990714423698" lon="15.003514423458249"><ele>129.0</ele><time>2026-03-26T16:26:27Z</time></trkpt><trkpt lat="36.879987997927074" lon="15.003485626325878"><ele>129.0</ele><time>2026-03-26T16:26:28Z</time></trkpt><trkpt lat="36.88006445420854" lon="15.003462502891967"><ele>129.0</ele><time>2026-03-26T16:26:29Z</time></trkpt><trkpt lat="36.88013251237405" lon="15.003497546709786"><ele>129.0</ele><time>2026-03-26T16:26:30Z</time></trkpt><trkpt lat="36.88020664243976" lon="15.003523926462211"><ele>129.0</ele><time>2026-03-26T16:26:31Z</time></trkpt><trkpt lat="36.88029125454676" lon="15.003559071063318"><ele>129.8</ele><time>2026-03-26T16:26:32Z</time></trkpt><trkpt lat="36.88038526174087" lon="15.00358968814606"><ele>130.60000000000002</ele><time>2026-03-26T16:26:33Z</time></trkpt><trkpt lat="36.880483929391424" lon="15.003592053895472"><ele>131.4</ele><time>2026-03-26T16:26:34Z</time></trkpt><trkpt lat="36.88058003256204" lon="15.003608565904216"><ele>132.20000000000002</ele><time>2026-03-26T16:26:35Z</time></trkpt><trkpt lat="36.88067252529327" lon="15.003637506674687"><ele>133.0</ele><time>2026-03-26T16:26:36Z</time></trkpt><trkpt lat="36.880748466392674" lon="15.003650222793658"><ele>133.0</ele><time>2026-03-26T16:26:37Z</time></trkpt><trkpt lat="36.880867508644435" lon="15.003631385510694"><ele>133.0</ele><time>2026-03-26T16:26:39Z</time></trkpt><trkpt lat="36.880927699019665" lon="15.003605515205548"><ele>133.0</ele><time>2026-03-26T16:26:40Z</time></trkpt><trkpt lat="36.88099682106881" lon="15.00359001478327"><ele>133.0</ele><time>2026-03-26T16:26:40.999Z</time></trkpt><trkpt lat="36.88106691892357" lon="15.003544371102784"><ele>133.0</ele><time>2026-03-26T16:26:41.999Z</time></trkpt><trkpt lat="36.88114734188334" lon="15.003518761569058"><ele>133.0</ele><time>2026-03-26T16:26:42.999Z</time></trkpt><trkpt lat="36.88121114187741" lon="15.00349350975934"><ele>133.0</ele><time>2026-03-26T16:26:43.999Z</time></trkpt><trkpt lat="36.88127461020977" lon="15.003462045257594"><ele>133.0</ele><time>2026-03-26T16:26:44.999Z</time></trkpt><trkpt lat="36.88138444240113" lon="15.00337580605971"><ele>133.0</ele><time>2026-03-26T16:26:46.999Z</time></trkpt><trkpt lat="36.88145247488205" lon="15.003331304109288"><ele>133.0</ele><time>2026-03-26T16:26:47.999Z</time></trkpt><trkpt lat="36.88152770651295" lon="15.003299484149466"><ele>133.0</ele><time>2026-03-26T16:26:48.999Z</time></trkpt><trkpt lat="36.88160160153652" lon="15.003273810657346"><ele>133.0</ele><time>2026-03-26T16:26:49.999Z</time></trkpt><trkpt lat="36.881676215846696" lon="15.003248369311432"><ele>134.5</ele><time>2026-03-26T16:26:50.999Z</time></trkpt><trkpt lat="36.88174192992206" lon="15.003212067074234"><ele>136.0</ele><time>2026-03-26T16:26:51.999Z</time></trkpt><trkpt lat="36.881801250251094" lon="15.003162122377569"><ele>137.5</ele><time>2026-03-26T16:26:52.999Z</time></trkpt><trkpt lat="36.88188517856654" lon="15.003072490279116"><ele>139.0</ele><time>2026-03-26T16:26:54.999Z</time></trkpt><trkpt lat="36.8819513362166" lon="15.00306203990075"><ele>140.5</ele><time>2026-03-26T16:26:55.999Z</time></trkpt><trkpt lat="36.88201870335806" lon="15.003087994769453"><ele>142.0</ele><time>2026-03-26T16:26:57Z</time></trkpt><trkpt lat="36.882142304207946" lon="15.003064569476727"><ele>142.0</ele><time>2026-03-26T16:26:59Z</time></trkpt><trkpt lat="36.88220967964724" lon="15.003067953436888"><ele>142.0</ele><time>2026-03-26T16:27:00Z</time></trkpt><trkpt lat="36.882315521286124" lon="15.003037731453725"><ele>142.0</ele><time>2026-03-26T16:27:02Z</time></trkpt><trkpt lat="36.88239279244352" lon="15.003069686191385"><ele>142.0</ele><time>2026-03-26T16:27:04Z</time></trkpt><trkpt lat="36.88244928155518" lon="15.003112682733006"><ele>142.0</ele><time>2026-03-26T16:27:07Z</time></trkpt><trkpt lat="36.882511119155495" lon="15.003188373437178"><ele>142.0</ele><time>2026-03-26T16:27:12Z</time></trkpt><trkpt lat="36.88255680926703" lon="15.003253828189251"><ele>143.4</ele><time>2026-03-26T16:27:13Z</time></trkpt><trkpt lat="36.88263634481892" lon="15.003310144949266"><ele>144.79999999999998</ele><time>2026-03-26T16:27:15Z</time></trkpt><trkpt lat="36.88277771949284" lon="15.003319067362815"><ele>146.2</ele><time>2026-03-26T16:27:17Z</time></trkpt><trkpt lat="36.88284921081504" lon="15.00329862163488"><ele>147.6</ele><time>2026-03-26T16:27:18Z</time></trkpt><trkpt lat="36.88294104860108" lon="15.003288184024347"><ele>149.0</ele><time>2026-03-26T16:27:20Z</time></trkpt><trkpt lat="36.88302944295471" lon="15.00329566518417"><ele>149.0</ele><time>2026-03-26T16:27:22Z</time></trkpt><trkpt lat="36.88310085012299" lon="15.003319278069839"><ele>149.0</ele><time>2026-03-26T16:27:25Z</time></trkpt><trkpt lat="36.883165827594134" lon="15.003338576193679"><ele>149.0</ele><time>2026-03-26T16:27:27Z</time></trkpt><trkpt lat="36.883232147652855" lon="15.003361480846161"><ele>149.0</ele><time>2026-03-26T16:27:29Z</time></trkpt><trkpt lat="36.88330543542207" lon="15.003449013729234"><ele>149.0</ele><time>2026-03-26T16:27:31Z</time></trkpt><trkpt lat="36.88335627899838" lon="15.003495561684861"><ele>149.0</ele><time>2026-03-26T16:27:33Z</time></trkpt><trkpt lat="36.88344977136513" lon="15.003581241492112"><ele>151.85714285714286</ele><time>2026-03-26T16:27:36Z</time></trkpt><trkpt lat="36.88350320840976" lon="15.003652627456207"><ele>154.7142857142857</ele><time>2026-03-26T16:27:38Z</time></trkpt><trkpt lat="36.88354290447796" lon="15.003720248201267"><ele>157.57142857142856</ele><time>2026-03-26T16:27:40Z</time></trkpt><trkpt lat="36.883587269069075" lon="15.003810108327139"><ele>160.42857142857142</ele><time>2026-03-26T16:27:44Z</time></trkpt><trkpt lat="36.88362007084866" lon="15.003879061291757"><ele>163.28571428571428</ele><time>2026-03-26T16:27:46Z</time></trkpt><trkpt lat="36.88368593699781" lon="15.00388958393517"><ele>166.14285714285714</ele><time>2026-03-26T16:27:47Z</time></trkpt><trkpt lat="36.88374460048318" lon="15.003943406798273"><ele>169.0</ele><time>2026-03-26T16:27:50Z</time></trkpt><trkpt lat="36.8838063159351" lon="15.003912723693066"><ele>169.0</ele><time>2026-03-26T16:27:53Z</time></trkpt><trkpt lat="36.883823908524676" lon="15.003828601275869"><ele>169.0</ele><time>2026-03-26T16:27:57Z</time></trkpt><trkpt lat="36.88386614112438" lon="15.003750983089098"><ele>169.0</ele><time>2026-03-26T16:28:00Z</time></trkpt><trkpt lat="36.883882537373346" lon="15.00365788510808"><ele>169.0</ele><time>2026-03-26T16:28:03Z</time></trkpt><trkpt lat="36.88392007461224" lon="15.003592191122824"><ele>169.0</ele><time>2026-03-26T16:28:06Z</time></trkpt><trkpt lat="36.88397078239029" lon="15.003543501719268"><ele>169.0</ele><time>2026-03-26T16:28:08Z</time></trkpt><trkpt lat="36.8840371052096" lon="15.003484904253098"><ele>169.0</ele><time>2026-03-26T16:28:11Z</time></trkpt><trkpt lat="36.88407879393328" lon="15.0034136393025"><ele>169.0</ele><time>2026-03-26T16:28:15Z</time></trkpt><trkpt lat="36.884132760681865" lon="15.00335604744149"><ele>169.0</ele><time>2026-03-26T16:28:18Z</time></trkpt><trkpt lat="36.88420529785985" lon="15.003298017188254"><ele>169.0</ele><time>2026-03-26T16:28:21Z</time></trkpt><trkpt lat="36.884274651284024" lon="15.003266549060038"><ele>169.0</ele><time>2026-03-26T16:28:23Z</time></trkpt><trkpt lat="36.884332429706625" lon="15.003217711944803"><ele>169.0</ele><time>2026-03-26T16:28:24Z</time></trkpt><trkpt lat="36.884401435698265" lon="15.003212148864137"><ele>169.0</ele><time>2026-03-26T16:28:27Z</time></trkpt><trkpt lat="36.8844794729136" lon="15.00319476131602"><ele>169.0</ele><time>2026-03-26T16:28:29Z</time></trkpt><trkpt lat="36.88457966904188" lon="15.003206876580721"><ele>171.16666666666669</ele><time>2026-03-26T16:28:31Z</time></trkpt><trkpt lat="36.88464448480839" lon="15.003229954754403"><ele>173.33333333333334</ele><time>2026-03-26T16:28:33Z</time></trkpt><trkpt lat="36.88473571848749" lon="15.003245277222089"><ele>175.5</ele><time>2026-03-26T16:28:35Z</time></trkpt><trkpt lat="36.88482275836835" lon="15.003268568988833"><ele>177.66666666666666</ele><time>2026-03-26T16:28:37Z</time></trkpt><trkpt lat="36.88490823110462" lon="15.003292804833396"><ele>179.83333333333331</ele><time>2026-03-26T16:28:39Z</time></trkpt><trkpt lat="36.88499929067798" lon="15.00330760104297"><ele>182.0</ele><time>2026-03-26T16:28:42Z</time></trkpt><trkpt lat="36.88506189118852" lon="15.003336414766524"><ele>186.2</ele><time>2026-03-26T16:28:43Z</time></trkpt><trkpt lat="36.88515291753023" lon="15.003281462074243"><ele>190.39999999999998</ele><time>2026-03-26T16:28:45.999Z</time></trkpt><trkpt lat="36.885192067733634" lon="15.003213431263397"><ele>194.60000000000002</ele><time>2026-03-26T16:28:46.999Z</time></trkpt><trkpt lat="36.88525453534472" lon="15.003108605712052"><ele>198.8</ele><time>2026-03-26T16:28:48.999Z</time></trkpt><trkpt lat="36.885318554317365" lon="15.003016029541943"><ele>203.0</ele><time>2026-03-26T16:28:50.999Z</time></trkpt><trkpt lat="36.88540308280571" lon="15.002940341476322"><ele>203.00000000000003</ele><time>2026-03-26T16:28:52.999Z</time></trkpt><trkpt lat="36.8854624367283" lon="15.002906269099357"><ele>203.0</ele><time>2026-03-26T16:28:53.999Z</time></trkpt><trkpt lat="36.88552674914545" lon="15.002887981961821"><ele>203.0</ele><time>2026-03-26T16:28:54.999Z</time></trkpt><trkpt lat="36.88557673893318" lon="15.00281741184893"><ele>203.0</ele><time>2026-03-26T16:28:56.999Z</time></trkpt><trkpt lat="36.885544647798845" lon="15.002712401853701"><ele>203.00000000000003</ele><time>2026-03-26T16:28:58.999Z</time></trkpt><trkpt lat="36.88542650893708" lon="15.002624974232889"><ele>203.0</ele><time>2026-03-26T16:29:00.999Z</time></trkpt><trkpt lat="36.88535050034012" lon="15.002569948197111"><ele>201.00000000000003</ele><time>2026-03-26T16:29:01.999Z</time></trkpt><trkpt lat="36.88527514269699" lon="15.002485437289359"><ele>199.0</ele><time>2026-03-26T16:29:03Z</time></trkpt><trkpt lat="36.88520889763983" lon="15.002402540842471"><ele>197.0</ele><time>2026-03-26T16:29:04Z</time></trkpt><trkpt lat="36.88513707170141" lon="15.002335839730929"><ele>195.0</ele><time>2026-03-26T16:29:05Z</time></trkpt><trkpt lat="36.88507011036832" lon="15.002273217377567"><ele>193.0</ele><time>2026-03-26T16:29:06Z</time></trkpt><trkpt lat="36.885007454524434" lon="15.00222135117787"><ele>191.0</ele><time>2026-03-26T16:29:07Z</time></trkpt><trkpt lat="36.88491147490658" lon="15.00213805162904"><ele>191.0</ele><time>2026-03-26T16:29:09Z</time></trkpt><trkpt lat="36.88485505415504" lon="15.002036389174677"><ele>191.0</ele><time>2026-03-26T16:29:11Z</time></trkpt><trkpt lat="36.884859704716796" lon="15.001952209410256"><ele>191.0</ele><time>2026-03-26T16:29:13Z</time></trkpt><trkpt lat="36.88490722138102" lon="15.001850155400918"><ele>191.0</ele><time>2026-03-26T16:29:15Z</time></trkpt><trkpt lat="36.88496079151293" lon="15.001758618416707"><ele>191.0</ele><time>2026-03-26T16:29:17Z</time></trkpt><trkpt lat="36.88503336437749" lon="15.001633761029074"><ele>192.5</ele><time>2026-03-26T16:29:19Z</time></trkpt><trkpt lat="36.885084078897385" lon="15.00156735938582"><ele>194.0</ele><time>2026-03-26T16:29:20Z</time></trkpt><trkpt lat="36.885145498084015" lon="15.001496311850078"><ele>195.5</ele><time>2026-03-26T16:29:21Z</time></trkpt><trkpt lat="36.885200702324674" lon="15.001425450625971"><ele>197.0</ele><time>2026-03-26T16:29:22Z</time></trkpt><trkpt lat="36.88525560297007" lon="15.001355353741188"><ele>198.50000000000003</ele><time>2026-03-26T16:29:23Z</time></trkpt><trkpt lat="36.885312573052516" lon="15.0012899540461"><ele>200.0</ele><time>2026-03-26T16:29:24Z</time></trkpt><trkpt lat="36.885399498458334" lon="15.001186564926796"><ele>202.8</ele><time>2026-03-26T16:29:26Z</time></trkpt><trkpt lat="36.885459907203035" lon="15.001066168251462"><ele>205.6</ele><time>2026-03-26T16:29:28Z</time></trkpt><trkpt lat="36.88553342918614" lon="15.000961857144901"><ele>208.39999999999998</ele><time>2026-03-26T16:29:30Z</time></trkpt><trkpt lat="36.88558310920091" lon="15.00086521846777"><ele>211.2</ele><time>2026-03-26T16:29:32Z</time></trkpt><trkpt lat="36.885578868515005" lon="15.00075248054866"><ele>214.0</ele><time>2026-03-26T16:29:34Z</time></trkpt><trkpt lat="36.88555302261346" lon="15.000598166958769"><ele>213.99999999999997</ele><time>2026-03-26T16:29:36Z</time></trkpt><trkpt lat="36.88553437603651" lon="15.000469950142207"><ele>214.0</ele><time>2026-03-26T16:29:38Z</time></trkpt><trkpt lat="36.88557818011416" lon="15.000369943724918"><ele>214.0</ele><time>2026-03-26T16:29:41Z</time></trkpt><trkpt lat="36.88564808712539" lon="15.00032946596965"><ele>214.0</ele><time>2026-03-26T16:29:43Z</time></trkpt><trkpt lat="36.88571898369402" lon="15.000291905752473"><ele>213.99999999999997</ele><time>2026-03-26T16:29:45Z</time></trkpt><trkpt lat="36.885791644407306" lon="15.000255816871949"><ele>214.0</ele><time>2026-03-26T16:29:47Z</time></trkpt><trkpt lat="36.88581773212198" lon="15.000332402268818"><ele>214.0</ele><time>2026-03-26T16:29:59Z</time></trkpt><trkpt lat="36.885895242986344" lon="15.00040148582649"><ele>213.99999999999997</ele><time>2026-03-26T16:30:01Z</time></trkpt><trkpt lat="36.885964618965176" lon="15.000481433931425"><ele>213.99999999999997</ele><time>2026-03-26T16:30:03Z</time></trkpt><trkpt lat="36.886026791998916" lon="15.000573575852913"><ele>214.0</ele><time>2026-03-26T16:30:05Z</time></trkpt><trkpt lat="36.88605973295202" lon="15.000676403361325"><ele>214.0</ele><time>2026-03-26T16:30:08Z</time></trkpt><trkpt lat="36.88608243654413" lon="15.000776001436996"><ele>214.0</ele><time>2026-03-26T16:30:10Z</time></trkpt><trkpt lat="36.88609338198882" lon="15.00086604462872"><ele>213.99999999999997</ele><time>2026-03-26T16:30:12Z</time></trkpt><trkpt lat="36.886075998612206" lon="15.001000476146736"><ele>213.99999999999997</ele><time>2026-03-26T16:30:15Z</time></trkpt><trkpt lat="36.88602080870933" lon="15.001088613082695"><ele>214.0</ele><time>2026-03-26T16:30:17Z</time></trkpt><trkpt lat="36.88595305395457" lon="15.001209877739267"><ele>214.0</ele><time>2026-03-26T16:30:19Z</time></trkpt><trkpt lat="36.88592348218662" lon="15.001283321786286"><ele>214.0</ele><time>2026-03-26T16:30:20Z</time></trkpt><trkpt lat="36.8858720892126" lon="15.00143841310233"><ele>213.99999999999997</ele><time>2026-03-26T16:30:22Z</time></trkpt><trkpt lat="36.88584355517618" lon="15.00151611349256"><ele>213.99999999999997</ele><time>2026-03-26T16:30:23Z</time></trkpt><trkpt lat="36.88580456928089" lon="15.001629421989602"><ele>214.0</ele><time>2026-03-26T16:30:25Z</time></trkpt><trkpt lat="36.88579743024107" lon="15.001738489319283"><ele>214.0</ele><time>2026-03-26T16:30:27Z</time></trkpt><trkpt lat="36.88589619724335" lon="15.001842498696268"><ele>217.99999999999997</ele><time>2026-03-26T16:30:29Z</time></trkpt><trkpt lat="36.885966195745596" lon="15.001864796863842"><ele>222.0</ele><time>2026-03-26T16:30:30Z</time></trkpt><trkpt lat="36.886087575745634" lon="15.001916014011337"><ele>226.0</ele><time>2026-03-26T16:30:32Z</time></trkpt><trkpt lat="36.88615488309029" lon="15.001942082157381"><ele>230.0</ele><time>2026-03-26T16:30:33Z</time></trkpt><trkpt lat="36.886224658321936" lon="15.001965819685012"><ele>233.99999999999997</ele><time>2026-03-26T16:30:34Z</time></trkpt><trkpt lat="36.88629807805845" lon="15.00198813752268"><ele>238.0</ele><time>2026-03-26T16:30:35Z</time></trkpt><trkpt lat="36.88637546223091" lon="15.002011660461974"><ele>237.99999999999997</ele><time>2026-03-26T16:30:36Z</time></trkpt><trkpt lat="36.886457119318706" lon="15.002037228643504"><ele>238.0</ele><time>2026-03-26T16:30:37Z</time></trkpt><trkpt lat="36.88653538800133" lon="15.00206384350419"><ele>238.0</ele><time>2026-03-26T16:30:38Z</time></trkpt><trkpt lat="36.88660312984408" lon="15.002088257906497"><ele>238.0</ele><time>2026-03-26T16:30:39Z</time></trkpt><trkpt lat="36.88667857710533" lon="15.00211705960589"><ele>237.99999999999997</ele><time>2026-03-26T16:30:40Z</time></trkpt><trkpt lat="36.88674976977359" lon="15.002148521546163"><ele>238.0</ele><time>2026-03-26T16:30:41Z</time></trkpt><trkpt lat="36.886817982410165" lon="15.002183132523218"><ele>239.49999999999997</ele><time>2026-03-26T16:30:42Z</time></trkpt><trkpt lat="36.88692457988928" lon="15.00225114532256"><ele>241.0</ele><time>2026-03-26T16:30:44Z</time></trkpt><trkpt lat="36.88698488496469" lon="15.002319277661078"><ele>242.5</ele><time>2026-03-26T16:30:46Z</time></trkpt><trkpt lat="36.887058816648405" lon="15.002382883658234"><ele>244.0</ele><time>2026-03-26T16:30:49Z</time></trkpt><trkpt lat="36.8871255611055" lon="15.002447963746022"><ele>245.49999999999997</ele><time>2026-03-26T16:30:50.999Z</time></trkpt><trkpt lat="36.887193072607865" lon="15.002413929647965"><ele>247.0</ele><time>2026-03-26T16:30:54.999Z</time></trkpt><trkpt lat="36.8872271469261" lon="15.002327485682066"><ele>246.99999999999997</ele><time>2026-03-26T16:30:57.999Z</time></trkpt><trkpt lat="36.88724912256171" lon="15.002232372105087"><ele>247.0</ele><time>2026-03-26T16:30:59.999Z</time></trkpt><trkpt lat="36.887296840993315" lon="15.002171970977667"><ele>247.0</ele><time>2026-03-26T16:31:00.999Z</time></trkpt><trkpt lat="36.887353553354984" lon="15.002023260264604"><ele>247.0</ele><time>2026-03-26T16:31:02.999Z</time></trkpt><trkpt lat="36.88738555347312" lon="15.001899969838455"><ele>246.99999999999997</ele><time>2026-03-26T16:31:04.999Z</time></trkpt><trkpt lat="36.88740093102272" lon="15.001821160361139"><ele>247.0</ele><time>2026-03-26T16:31:05.999Z</time></trkpt><trkpt lat="36.887411860049916" lon="15.001688178136225"><ele>246.66666666666666</ele><time>2026-03-26T16:31:07.999Z</time></trkpt><trkpt lat="36.887462305887844" lon="15.001607717804875"><ele>246.33333333333331</ele><time>2026-03-26T16:35:35Z</time></trkpt><trkpt lat="36.88750400385291" lon="15.00150043782055"><ele>246.0</ele><time>2026-03-26T16:35:37Z</time></trkpt><trkpt lat="36.887550135735246" lon="15.001436012708975"><ele>245.66666666666669</ele><time>2026-03-26T16:35:39Z</time></trkpt><trkpt lat="36.88760641185135" lon="15.001377525756192"><ele>245.33333333333334</ele><time>2026-03-26T16:35:41Z</time></trkpt><trkpt lat="36.88766002757053" lon="15.001316086149165"><ele>245.0</ele><time>2026-03-26T16:35:43Z</time></trkpt><trkpt lat="36.887716005938216" lon="15.001254890947001"><ele>245.00000000000003</ele><time>2026-03-26T16:35:46Z</time></trkpt><trkpt lat="36.8877657792076" lon="15.001198920399379"><ele>245.0</ele><time>2026-03-26T16:35:51Z</time></trkpt><trkpt lat="36.88782563654492" lon="15.001147024590285"><ele>245.0</ele><time>2026-03-26T16:35:54Z</time></trkpt><trkpt lat="36.88789047133318" lon="15.001088125002209"><ele>245.0</ele><time>2026-03-26T16:35:58Z</time></trkpt><trkpt lat="36.887977078374" lon="15.001067978119025"><ele>245.00000000000003</ele><time>2026-03-26T16:36:00Z</time></trkpt><trkpt lat="36.888040319272996" lon="15.001038536060245"><ele>245.0</ele><time>2026-03-26T16:36:01Z</time></trkpt><trkpt lat="36.88815213277064" lon="15.000979705735027"><ele>245.0</ele><time>2026-03-26T16:36:03Z</time></trkpt><trkpt lat="36.88821419212873" lon="15.000932743634916"><ele>245.0</ele><time>2026-03-26T16:36:04Z</time></trkpt><trkpt lat="36.88827393017186" lon="15.000885535775831"><ele>245.0</ele><time>2026-03-26T16:36:05Z</time></trkpt><trkpt lat="36.88837514996107" lon="15.000822648081305"><ele>245.0</ele><time>2026-03-26T16:36:07Z</time></trkpt><trkpt lat="36.88846286488267" lon="15.000752124364134"><ele>245.0</ele><time>2026-03-26T16:36:09Z</time></trkpt><trkpt lat="36.8885503925245" lon="15.000698043803306"><ele>245.8</ele><time>2026-03-26T16:36:11Z</time></trkpt><trkpt lat="36.888630748499025" lon="15.00064923059803"><ele>246.6</ele><time>2026-03-26T16:36:13Z</time></trkpt><trkpt lat="36.888747885968165" lon="15.000597105905323"><ele>247.39999999999998</ele><time>2026-03-26T16:36:15Z</time></trkpt><trkpt lat="36.888805463363745" lon="15.000542743863"><ele>248.2</ele><time>2026-03-26T16:36:16Z</time></trkpt><trkpt lat="36.88886587074644" lon="15.00051460496483"><ele>249.0</ele><time>2026-03-26T16:36:17Z</time></trkpt><trkpt lat="36.88898329916212" lon="15.000460971437134"><ele>249.0</ele><time>2026-03-26T16:36:19Z</time></trkpt><trkpt lat="36.88909052285878" lon="15.000398966250607"><ele>248.99999999999997</ele><time>2026-03-26T16:36:21Z</time></trkpt><trkpt lat="36.88914846328446" lon="15.000365460534262"><ele>248.99999999999997</ele><time>2026-03-26T16:36:22Z</time></trkpt><trkpt lat="36.88925531359121" lon="15.000291711819541"><ele>249.0</ele><time>2026-03-26T16:36:24Z</time></trkpt><trkpt lat="36.88931292197418" lon="15.000256927884186"><ele>249.0</ele><time>2026-03-26T16:36:25Z</time></trkpt><trkpt lat="36.88941195758734" lon="15.000194036458803"><ele>250.66666666666666</ele><time>2026-03-26T16:36:27Z</time></trkpt><trkpt lat="36.88948236123278" lon="15.000152538527068"><ele>252.33333333333331</ele><time>2026-03-26T16:36:31Z</time></trkpt><trkpt lat="36.889537005709926" lon="15.00010232759136"><ele>254.0</ele><time>2026-03-26T16:36:34Z</time></trkpt><trkpt lat="36.88961176731376" lon="15.000054224196571"><ele>255.66666666666666</ele><time>2026-03-26T16:36:37Z</time></trkpt><trkpt lat="36.88968573933662" lon="15.00000973655085"><ele>257.3333333333333</ele><time>2026-03-26T16:36:40Z</time></trkpt><trkpt lat="36.88974923969548" lon="14.999954089257727"><ele>259.0</ele><time>2026-03-26T16:36:42Z</time></trkpt><trkpt lat="36.88983902778249" lon="14.99989911793374"><ele>259.0</ele><time>2026-03-26T16:36:44Z</time></trkpt><trkpt lat="36.88991312547419" lon="14.999843619310726"><ele>259.0</ele><time>2026-03-26T16:36:46Z</time></trkpt><trkpt lat="36.88998583451774" lon="14.99981189471433"><ele>259.0</ele><time>2026-03-26T16:36:49Z</time></trkpt><trkpt lat="36.8900766621128" lon="14.999749876364346"><ele>259.0</ele><time>2026-03-26T16:36:51Z</time></trkpt><trkpt lat="36.890137188343665" lon="14.999655785360547"><ele>259.0</ele><time>2026-03-26T16:36:53Z</time></trkpt><trkpt lat="36.89019131074505" lon="14.999554905219506"><ele>257.2</ele><time>2026-03-26T16:36:55Z</time></trkpt><trkpt lat="36.89024067547852" lon="14.999441835884838"><ele>255.39999999999998</ele><time>2026-03-26T16:36:57Z</time></trkpt><trkpt lat="36.890291178463585" lon="14.999332469254165"><ele>253.6</ele><time>2026-03-26T16:36:59Z</time></trkpt><trkpt lat="36.89032474220669" lon="14.999263990539054"><ele>251.8</ele><time>2026-03-26T16:37:00Z</time></trkpt><trkpt lat="36.89037904925765" lon="14.999151869453407"><ele>250.0</ele><time>2026-03-26T16:37:02Z</time></trkpt><trkpt lat="36.890434957118536" lon="14.999027303182626"><ele>249.66666666666666</ele><time>2026-03-26T16:37:04Z</time></trkpt><trkpt lat="36.89049326133678" lon="14.998923685370526"><ele>249.33333333333331</ele><time>2026-03-26T16:37:06Z</time></trkpt><trkpt lat="36.89052769422836" lon="14.998853234002999"><ele>249.0</ele><time>2026-03-26T16:37:07Z</time></trkpt><trkpt lat="36.89057716343683" lon="14.998758185934781"><ele>248.66666666666669</ele><time>2026-03-26T16:37:08Z</time></trkpt><trkpt lat="36.89063020125113" lon="14.998663287870263"><ele>248.33333333333334</ele><time>2026-03-26T16:37:08.999Z</time></trkpt><trkpt lat="36.89067671977449" lon="14.998579093706828"><ele>248.0</ele><time>2026-03-26T16:37:09.999Z</time></trkpt><trkpt lat="36.8907172704274" lon="14.998510081362884"><ele>248.0</ele><time>2026-03-26T16:37:10.999Z</time></trkpt><trkpt lat="36.89078580106509" lon="14.998389512716763"><ele>248.0</ele><time>2026-03-26T16:37:12.999Z</time></trkpt><trkpt lat="36.890857568495896" lon="14.998266981738102"><ele>248.0</ele><time>2026-03-26T16:37:14.999Z</time></trkpt><trkpt lat="36.89092728682116" lon="14.998161642499495"><ele>248.0</ele><time>2026-03-26T16:37:16.999Z</time></trkpt><trkpt lat="36.891004388088305" lon="14.99807775277261"><ele>247.60000000000002</ele><time>2026-03-26T16:37:18.999Z</time></trkpt><trkpt lat="36.89107927467263" lon="14.997981262721042"><ele>247.20000000000002</ele><time>2026-03-26T16:37:20.999Z</time></trkpt><trkpt lat="36.89112211348584" lon="14.9978657291978"><ele>246.8</ele><time>2026-03-26T16:37:22.999Z</time></trkpt><trkpt lat="36.89114427429772" lon="14.99771969789704"><ele>246.4</ele><time>2026-03-26T16:37:24.999Z</time></trkpt><trkpt lat="36.89114639547632" lon="14.99756900401591"><ele>246.0</ele><time>2026-03-26T16:37:27Z</time></trkpt><trkpt lat="36.891148326497444" lon="14.997467789924665"><ele>246.0</ele><time>2026-03-26T16:37:29Z</time></trkpt><trkpt lat="36.89119139144798" lon="14.9974015632651"><ele>246.00000000000003</ele><time>2026-03-26T16:37:50Z</time></trkpt><trkpt lat="36.89115704333634" lon="14.99749369475722"><ele>246.00000000000003</ele><time>2026-03-26T16:38:01Z</time></trkpt><trkpt lat="36.89105326206866" lon="14.997461811370892"><ele>246.0</ele><time>2026-03-26T16:38:04Z</time></trkpt><trkpt lat="36.890986016829046" lon="14.997523835564662"><ele>246.0</ele><time>2026-03-26T16:38:06Z</time></trkpt><trkpt lat="36.89090247838148" lon="14.997629077449107"><ele>245.66666666666666</ele><time>2026-03-26T16:38:08Z</time></trkpt><trkpt lat="36.89083306053169" lon="14.997719682780442"><ele>245.33333333333331</ele><time>2026-03-26T16:38:10Z</time></trkpt><trkpt lat="36.890763568211085" lon="14.997777890317908"><ele>245.0</ele><time>2026-03-26T16:38:12Z</time></trkpt><trkpt lat="36.89069567044594" lon="14.997833592629268"><ele>244.66666666666666</ele><time>2026-03-26T16:38:14Z</time></trkpt><trkpt lat="36.89062012220324" lon="14.997911292920378"><ele>244.33333333333331</ele><time>2026-03-26T16:38:16Z</time></trkpt><trkpt lat="36.89055070403378" lon="14.997975068662681"><ele>244.0</ele><time>2026-03-26T16:38:18Z</time></trkpt><trkpt lat="36.89048490318288" lon="14.998033375777489"><ele>243.99999999999997</ele><time>2026-03-26T16:38:20Z</time></trkpt><trkpt lat="36.89039036607646" lon="14.998065627065722"><ele>244.0</ele><time>2026-03-26T16:38:22Z</time></trkpt><trkpt lat="36.89033005188342" lon="14.998088861640086"><ele>244.0</ele><time>2026-03-26T16:38:23Z</time></trkpt><trkpt lat="36.89023579950087" lon="14.998129296331758"><ele>244.0</ele><time>2026-03-26T16:38:25Z</time></trkpt><trkpt lat="36.890133284981474" lon="14.998152901770574"><ele>243.99999999999997</ele><time>2026-03-26T16:38:27Z</time></trkpt><trkpt lat="36.890065264481514" lon="14.99819838516329"><ele>244.0</ele><time>2026-03-26T16:38:29Z</time></trkpt><trkpt lat="36.88999545333344" lon="14.998238731838525"><ele>244.33333333333331</ele><time>2026-03-26T16:38:31Z</time></trkpt><trkpt lat="36.889912474756976" lon="14.99826085862096"><ele>244.66666666666666</ele><time>2026-03-26T16:38:33Z</time></trkpt><trkpt lat="36.889833692219796" lon="14.998306949810859"><ele>245.0</ele><time>2026-03-26T16:38:35Z</time></trkpt><trkpt lat="36.889765641222915" lon="14.998374716691384"><ele>245.33333333333331</ele><time>2026-03-26T16:38:37Z</time></trkpt><trkpt lat="36.88968890400383" lon="14.99841002281914"><ele>245.66666666666666</ele><time>2026-03-26T16:38:39Z</time></trkpt><trkpt lat="36.88961282265352" lon="14.998432271544226"><ele>246.0</ele><time>2026-03-26T16:38:42Z</time></trkpt><trkpt lat="36.889543369766216" lon="14.99845888028997"><ele>246.0</ele><time>2026-03-26T16:38:44Z</time></trkpt><trkpt lat="36.88947122753999" lon="14.99847081318244"><ele>246.0</ele><time>2026-03-26T16:38:46Z</time></trkpt><trkpt lat="36.88939432795928" lon="14.99849409474512"><ele>246.0</ele><time>2026-03-26T16:38:49Z</time></trkpt><trkpt lat="36.88932095750897" lon="14.998536372361823"><ele>246.0</ele><time>2026-03-26T16:38:51Z</time></trkpt><trkpt lat="36.88922648535653" lon="14.998550403911764"><ele>246.0</ele><time>2026-03-26T16:38:54Z</time></trkpt><trkpt lat="36.88914426583795" lon="14.998577538621868"><ele>246.0</ele><time>2026-03-26T16:38:56Z</time></trkpt><trkpt lat="36.88908179544107" lon="14.998598155686752"><ele>242.5</ele><time>2026-03-26T16:38:58Z</time></trkpt><trkpt lat="36.889005778381794" lon="14.998645735529843"><ele>239.0</ele><time>2026-03-26T16:39:02Z</time></trkpt><trkpt lat="36.88897626405551" lon="14.998726978125882"><ele>235.5</ele><time>2026-03-26T16:39:04Z</time></trkpt><trkpt lat="36.88897575021307" lon="14.998847646639401"><ele>232.0</ele><time>2026-03-26T16:39:06Z</time></trkpt><trkpt lat="36.888920904096565" lon="14.998892328289596"><ele>228.5</ele><time>2026-03-26T16:39:09Z</time></trkpt><trkpt lat="36.88885912252312" lon="14.99893470572924"><ele>225.0</ele><time>2026-03-26T16:39:11Z</time></trkpt><trkpt lat="36.88878453406732" lon="14.99899218640425"><ele>225.0</ele><time>2026-03-26T16:39:13Z</time></trkpt><trkpt lat="36.88870997399466" lon="14.999049645209398"><ele>225.0</ele><time>2026-03-26T16:39:14.999Z</time></trkpt><trkpt lat="36.88861911585104" lon="14.998971706686604"><ele>225.0</ele><time>2026-03-26T16:39:15.999Z</time></trkpt><trkpt lat="36.88852935190727" lon="14.999029010710526"><ele>225.0</ele><time>2026-03-26T16:39:17.999Z</time></trkpt><trkpt lat="36.88845445009121" lon="14.999089770549523"><ele>225.0</ele><time>2026-03-26T16:39:19.999Z</time></trkpt><trkpt lat="36.888348225473806" lon="14.99909030396173"><ele>220.8</ele><time>2026-03-26T16:39:21.999Z</time></trkpt><trkpt lat="36.88825291204357" lon="14.999027747786668"><ele>216.6</ele><time>2026-03-26T16:39:23.999Z</time></trkpt><trkpt lat="36.88817166445487" lon="14.998972356881183"><ele>212.39999999999998</ele><time>2026-03-26T16:39:25.999Z</time></trkpt><trkpt lat="36.888067460401125" lon="14.998934211618216"><ele>208.2</ele><time>2026-03-26T16:39:28.999Z</time></trkpt><trkpt lat="36.88799879970985" lon="14.998896215141128"><ele>204.0</ele><time>2026-03-26T16:39:31Z</time></trkpt><trkpt lat="36.88795511499799" lon="14.998810600567504"><ele>204.0</ele><time>2026-03-26T16:39:34Z</time></trkpt><trkpt lat="36.88803224172713" lon="14.998743651188711"><ele>204.0</ele><time>2026-03-26T16:39:37Z</time></trkpt><trkpt lat="36.888071697180095" lon="14.998679399438075"><ele>204.0</ele><time>2026-03-26T16:39:39Z</time></trkpt><trkpt lat="36.887997246040854" lon="14.998623910718601"><ele>204.0</ele><time>2026-03-26T16:39:42Z</time></trkpt><trkpt lat="36.88787737036694" lon="14.998568214950703"><ele>204.0</ele><time>2026-03-26T16:39:44Z</time></trkpt><trkpt lat="36.88781697133665" lon="14.998524871860674"><ele>204.0</ele><time>2026-03-26T16:39:45Z</time></trkpt><trkpt lat="36.887753979674606" lon="14.998486347234419"><ele>204.0</ele><time>2026-03-26T16:39:46Z</time></trkpt><trkpt lat="36.887663447906874" lon="14.998451319529382"><ele>204.0</ele><time>2026-03-26T16:39:48Z</time></trkpt><trkpt lat="36.887595682555606" lon="14.998360818513335"><ele>204.0</ele><time>2026-03-26T16:39:50Z</time></trkpt><trkpt lat="36.887544876697675" lon="14.998310679194878"><ele>204.0</ele><time>2026-03-26T16:39:51Z</time></trkpt><trkpt lat="36.88745571596761" lon="14.998206647247214"><ele>204.0</ele><time>2026-03-26T16:39:53Z</time></trkpt><trkpt lat="36.887388400027035" lon="14.998098423936627"><ele>199.2</ele><time>2026-03-26T16:39:55Z</time></trkpt><trkpt lat="36.88732360978479" lon="14.998039608411323"><ele>194.39999999999998</ele><time>2026-03-26T16:39:57Z</time></trkpt><trkpt lat="36.887213509116705" lon="14.997981739908248"><ele>189.6</ele><time>2026-03-26T16:39:59Z</time></trkpt><trkpt lat="36.88710424257337" lon="14.99793875811715"><ele>184.8</ele><time>2026-03-26T16:40:01Z</time></trkpt><trkpt lat="36.88699165147042" lon="14.99792645082602"><ele>180.0</ele><time>2026-03-26T16:40:03Z</time></trkpt><trkpt lat="36.886887658186" lon="14.997918918490928"><ele>180.0</ele><time>2026-03-26T16:40:05Z</time></trkpt><trkpt lat="36.88678049282166" lon="14.997946393799408"><ele>180.0</ele><time>2026-03-26T16:40:07Z</time></trkpt><trkpt lat="36.88667738450476" lon="14.99800688773642"><ele>180.0</ele><time>2026-03-26T16:40:09Z</time></trkpt><trkpt lat="36.8866030874534" lon="14.99803322594686"><ele>180.0</ele><time>2026-03-26T16:40:11Z</time></trkpt><trkpt lat="36.88651758962247" lon="14.998090948289676"><ele>180.0</ele><time>2026-03-26T16:40:13Z</time></trkpt><trkpt lat="36.886427635805745" lon="14.998188047662893"><ele>179.33333333333334</ele><time>2026-03-26T16:40:15Z</time></trkpt><trkpt lat="36.886342733330146" lon="14.998226807305342"><ele>178.66666666666666</ele><time>2026-03-26T16:40:17Z</time></trkpt><trkpt lat="36.88627474873837" lon="14.99819556881848"><ele>178.0</ele><time>2026-03-26T16:40:30Z</time></trkpt><trkpt lat="36.88621606426219" lon="14.998147986692416"><ele>177.33333333333331</ele><time>2026-03-26T16:40:32Z</time></trkpt><trkpt lat="36.88611178038165" lon="14.998099403062287"><ele>176.66666666666666</ele><time>2026-03-26T16:40:34Z</time></trkpt><trkpt lat="36.886023549241735" lon="14.998063480004314"><ele>176.0</ele><time>2026-03-26T16:40:36Z</time></trkpt><trkpt lat="36.885965286728386" lon="14.99802569606042"><ele>175.5</ele><time>2026-03-26T16:40:37Z</time></trkpt><trkpt lat="36.885906560358414" lon="14.997982427937462"><ele>175.0</ele><time>2026-03-26T16:40:38Z</time></trkpt><trkpt lat="36.88584881949269" lon="14.997946903751636"><ele>174.5</ele><time>2026-03-26T16:40:39Z</time></trkpt><trkpt lat="36.88574462773123" lon="14.997889756639733"><ele>174.0</ele><time>2026-03-26T16:40:41Z</time></trkpt><trkpt lat="36.88567967471701" lon="14.997848795615873"><ele>173.5</ele><time>2026-03-26T16:40:42Z</time></trkpt><trkpt lat="36.88561410054623" lon="14.997788763286064"><ele>173.0</ele><time>2026-03-26T16:40:43Z</time></trkpt><trkpt lat="36.885549136046876" lon="14.997724743179809"><ele>173.0</ele><time>2026-03-26T16:40:44Z</time></trkpt><trkpt lat="36.88548869362861" lon="14.997663217394816"><ele>173.0</ele><time>2026-03-26T16:40:45Z</time></trkpt><trkpt lat="36.88544316603588" lon="14.997605869576818"><ele>173.0</ele><time>2026-03-26T16:40:46Z</time></trkpt><trkpt lat="36.885388056523176" lon="14.997481132784882"><ele>173.0</ele><time>2026-03-26T16:40:48Z</time></trkpt><trkpt lat="36.885376419076195" lon="14.997350454063945"><ele>173.0</ele><time>2026-03-26T16:40:50Z</time></trkpt><trkpt lat="36.88538495468895" lon="14.997224089490379"><ele>171.4</ele><time>2026-03-26T16:40:52Z</time></trkpt><trkpt lat="36.885393863451604" lon="14.997124391615408"><ele>169.8</ele><time>2026-03-26T16:40:54Z</time></trkpt><trkpt lat="36.885388542090375" lon="14.99702827060769"><ele>168.2</ele><time>2026-03-26T16:40:56Z</time></trkpt><trkpt lat="36.885316938708385" lon="14.996976294468762"><ele>166.6</ele><time>2026-03-26T16:40:58Z</time></trkpt><trkpt lat="36.88521074227917" lon="14.996974547947827"><ele>165.0</ele><time>2026-03-26T16:41:00Z</time></trkpt><trkpt lat="36.885075564162584" lon="14.996985341861956"><ele>165.0</ele><time>2026-03-26T16:41:02Z</time></trkpt><trkpt lat="36.88501279320497" lon="14.996978431208955"><ele>165.0</ele><time>2026-03-26T16:41:03Z</time></trkpt><trkpt lat="36.88491833726756" lon="14.996954707338269"><ele>165.0</ele><time>2026-03-26T16:41:05Z</time></trkpt><trkpt lat="36.88482748690773" lon="14.996882414332374"><ele>165.0</ele><time>2026-03-26T16:41:07Z</time></trkpt><trkpt lat="36.88477303054688" lon="14.99683818290542"><ele>165.0</ele><time>2026-03-26T16:41:08Z</time></trkpt><trkpt lat="36.88467450917692" lon="14.99677233223472"><ele>165.0</ele><time>2026-03-26T16:41:10Z</time></trkpt><trkpt lat="36.88456189905579" lon="14.996735147577956"><ele>165.0</ele><time>2026-03-26T16:41:12Z</time></trkpt><trkpt lat="36.884459898916624" lon="14.99667208362845"><ele>165.0</ele><time>2026-03-26T16:41:14Z</time></trkpt><trkpt lat="36.88440381275522" lon="14.996632093972394"><ele>165.0</ele><time>2026-03-26T16:41:15Z</time></trkpt><trkpt lat="36.884307213641094" lon="14.99656115899518"><ele>165.0</ele><time>2026-03-26T16:41:17Z</time></trkpt><trkpt lat="36.88422278779378" lon="14.996464831953249"><ele>165.0</ele><time>2026-03-26T16:41:19Z</time></trkpt><trkpt lat="36.88415110333881" lon="14.996378753804757"><ele>162.5</ele><time>2026-03-26T16:41:21Z</time></trkpt><trkpt lat="36.884077509968236" lon="14.99630645758815"><ele>160.0</ele><time>2026-03-26T16:41:22.999Z</time></trkpt><trkpt lat="36.88399985343406" lon="14.996237812948513"><ele>157.5</ele><time>2026-03-26T16:41:24.999Z</time></trkpt><trkpt lat="36.88393059020867" lon="14.996179590097547"><ele>155.0</ele><time>2026-03-26T16:41:26.999Z</time></trkpt><trkpt lat="36.883868146859605" lon="14.996118213931771"><ele>152.5</ele><time>2026-03-26T16:41:28.999Z</time></trkpt><trkpt lat="36.88381657759748" lon="14.99604681307302"><ele>150.0</ele><time>2026-03-26T16:41:30.999Z</time></trkpt><trkpt lat="36.883817414926185" lon="14.995948462845009"><ele>148.0</ele><time>2026-03-26T16:41:32.999Z</time></trkpt><trkpt lat="36.883823380171506" lon="14.995829236037777"><ele>146.0</ele><time>2026-03-26T16:41:34.999Z</time></trkpt><trkpt lat="36.88382660316933" lon="14.99569111015709"><ele>144.0</ele><time>2026-03-26T16:41:37Z</time></trkpt><trkpt lat="36.88382119969903" lon="14.995565008260423"><ele>142.0</ele><time>2026-03-26T16:41:39Z</time></trkpt><trkpt lat="36.883821235732995" lon="14.995484262914962"><ele>140.0</ele><time>2026-03-26T16:41:41Z</time></trkpt><trkpt lat="36.88380376749547" lon="14.995408485180306"><ele>138.0</ele><time>2026-03-26T16:42:33Z</time></trkpt><trkpt lat="36.88378133006746" lon="14.995318607170729"><ele>138.0</ele><time>2026-03-26T16:42:51Z</time></trkpt><trkpt lat="36.88378128941708" lon="14.995183222126018"><ele>138.0</ele><time>2026-03-26T16:42:53Z</time></trkpt><trkpt lat="36.88378608735121" lon="14.995026968226483"><ele>138.0</ele><time>2026-03-26T16:42:55Z</time></trkpt><trkpt lat="36.88379436342804" lon="14.994914418988248"><ele>138.0</ele><time>2026-03-26T16:42:57Z</time></trkpt><trkpt lat="36.883791377267656" lon="14.994830720326203"><ele>138.0</ele><time>2026-03-26T16:42:59Z</time></trkpt><trkpt lat="36.88378779203379" lon="14.994727800678657"><ele>135.83333333333334</ele><time>2026-03-26T16:43:01Z</time></trkpt><trkpt lat="36.88378399791352" lon="14.994590995828755"><ele>133.66666666666666</ele><time>2026-03-26T16:43:03Z</time></trkpt><trkpt lat="36.88378932045115" lon="14.994510128588985"><ele>131.5</ele><time>2026-03-26T16:43:05Z</time></trkpt><trkpt lat="36.88376328652158" lon="14.994415921927754"><ele>129.33333333333331</ele><time>2026-03-26T16:43:08Z</time></trkpt><trkpt lat="36.88369696669076" lon="14.994376920135771"><ele>127.16666666666666</ele><time>2026-03-26T16:43:11Z</time></trkpt><trkpt lat="36.883625097847236" lon="14.994387643524478"><ele>125.0</ele><time>2026-03-26T16:43:14Z</time></trkpt><trkpt lat="36.88355712088627" lon="14.99436432705101"><ele>124.99999999999999</ele><time>2026-03-26T16:43:43Z</time></trkpt><trkpt lat="36.8834891109854" lon="14.994290920545012"><ele>125.0</ele><time>2026-03-26T16:43:46Z</time></trkpt><trkpt lat="36.88345701977064" lon="14.994201184085227"><ele>125.0</ele><time>2026-03-26T16:43:48Z</time></trkpt><trkpt lat="36.88346588217936" lon="14.994062937425891"><ele>125.0</ele><time>2026-03-26T16:43:50Z</time></trkpt><trkpt lat="36.8834857549887" lon="14.99396153346029"><ele>124.99999999999999</ele><time>2026-03-26T16:43:51Z</time></trkpt><trkpt lat="36.88350633107396" lon="14.993862111783368"><ele>125.0</ele><time>2026-03-26T16:43:52Z</time></trkpt><trkpt lat="36.883532192226625" lon="14.993757477917889"><ele>125.4</ele><time>2026-03-26T16:43:53Z</time></trkpt><trkpt lat="36.883564294535546" lon="14.993643236154774"><ele>125.8</ele><time>2026-03-26T16:43:54Z</time></trkpt><trkpt lat="36.88359177987908" lon="14.993526264510207"><ele>126.19999999999999</ele><time>2026-03-26T16:43:55Z</time></trkpt><trkpt lat="36.88361545996181" lon="14.993402799579432"><ele>126.6</ele><time>2026-03-26T16:43:56Z</time></trkpt><trkpt lat="36.88364155466483" lon="14.99328290266673"><ele>127.0</ele><time>2026-03-26T16:43:57Z</time></trkpt><trkpt lat="36.88366600934942" lon="14.99316221844378"><ele>127.00000000000001</ele><time>2026-03-26T16:43:58Z</time></trkpt><trkpt lat="36.883688789019885" lon="14.993059319098972"><ele>127.0</ele><time>2026-03-26T16:43:59Z</time></trkpt><trkpt lat="36.88370097581622" lon="14.992976083474037"><ele>127.0</ele><time>2026-03-26T16:44:00Z</time></trkpt><trkpt lat="36.88372004291908" lon="14.99289414566223"><ele>127.0</ele><time>2026-03-26T16:44:01Z</time></trkpt><trkpt lat="36.88374391359805" lon="14.992775945409388"><ele>127.00000000000001</ele><time>2026-03-26T16:44:03Z</time></trkpt><trkpt lat="36.883747177839794" lon="14.99269624047343"><ele>127.0</ele><time>2026-03-26T16:44:06Z</time></trkpt><trkpt lat="36.88382596234678" lon="14.992709271707438"><ele>127.00000000000001</ele><time>2026-03-26T16:44:08Z</time></trkpt><trkpt lat="36.88391563542681" lon="14.992741999067896"><ele>127.0</ele><time>2026-03-26T16:44:09Z</time></trkpt><trkpt lat="36.884009018338354" lon="14.992769020406325"><ele>127.0</ele><time>2026-03-26T16:44:10Z</time></trkpt><trkpt lat="36.88410129772946" lon="14.992789352543797"><ele>127.0</ele><time>2026-03-26T16:44:11Z</time></trkpt><trkpt lat="36.88418462450162" lon="14.992807147793634"><ele>127.00000000000001</ele><time>2026-03-26T16:44:12Z</time></trkpt><trkpt lat="36.88425298870361" lon="14.992824640097556"><ele>127.0</ele><time>2026-03-26T16:44:13Z</time></trkpt><trkpt lat="36.8843261854323" lon="14.992829474553695"><ele>128.0</ele><time>2026-03-26T16:44:14Z</time></trkpt><trkpt lat="36.88440150444709" lon="14.992824869557975"><ele>129.0</ele><time>2026-03-26T16:44:15Z</time></trkpt><trkpt lat="36.88447867148622" lon="14.992815728570747"><ele>130.0</ele><time>2026-03-26T16:44:16Z</time></trkpt><trkpt lat="36.88455097145154" lon="14.992842063058008"><ele>131.0</ele><time>2026-03-26T16:44:17Z</time></trkpt><trkpt lat="36.88462580966416" lon="14.992852148778084"><ele>132.0</ele><time>2026-03-26T16:44:18Z</time></trkpt><trkpt lat="36.88470561110813" lon="14.992838117496547"><ele>133.0</ele><time>2026-03-26T16:44:19Z</time></trkpt><trkpt lat="36.88478311788013" lon="14.992862179407558"><ele>133.0</ele><time>2026-03-26T16:44:20Z</time></trkpt><trkpt lat="36.884863786504255" lon="14.992872460877477"><ele>133.0</ele><time>2026-03-26T16:44:21Z</time></trkpt><trkpt lat="36.88494617611367" lon="14.992870751480952"><ele>133.0</ele><time>2026-03-26T16:44:22Z</time></trkpt><trkpt lat="36.88501857932078" lon="14.992859548023382"><ele>133.0</ele><time>2026-03-26T16:44:23Z</time></trkpt><trkpt lat="36.88511921782892" lon="14.99282427300512"><ele>133.0</ele><time>2026-03-26T16:44:25Z</time></trkpt><trkpt lat="36.8851909609118" lon="14.992804082628565"><ele>133.0</ele><time>2026-03-26T16:44:35Z</time></trkpt><trkpt lat="36.88526571823312" lon="14.992803127012904"><ele>134.8</ele><time>2026-03-26T16:44:37Z</time></trkpt><trkpt lat="36.88536732552035" lon="14.99283779148297"><ele>136.60000000000002</ele><time>2026-03-26T16:44:40Z</time></trkpt><trkpt lat="36.885485095801975" lon="14.99285841433132"><ele>138.39999999999998</ele><time>2026-03-26T16:44:42Z</time></trkpt><trkpt lat="36.885550523027966" lon="14.992863722928742"><ele>140.2</ele><time>2026-03-26T16:44:43Z</time></trkpt><trkpt lat="36.88563207693768" lon="14.992863142189371"><ele>142.0</ele><time>2026-03-26T16:44:44Z</time></trkpt><trkpt lat="36.88570811017534" lon="14.992835657815926"><ele>142.0</ele><time>2026-03-26T16:44:45Z</time></trkpt><trkpt lat="36.88578959743815" lon="14.992826083780617"><ele>142.0</ele><time>2026-03-26T16:44:46Z</time></trkpt><trkpt lat="36.885870423745814" lon="14.992813987393935"><ele>142.0</ele><time>2026-03-26T16:44:47Z</time></trkpt><trkpt lat="36.88594032512617" lon="14.992836399519014"><ele>142.0</ele><time>2026-03-26T16:44:48Z</time></trkpt><trkpt lat="36.88605139648624" lon="14.992847648114683"><ele>142.0</ele><time>2026-03-26T16:44:50Z</time></trkpt><trkpt lat="36.88615705417735" lon="14.992859054136353"><ele>144.0</ele><time>2026-03-26T16:44:52Z</time></trkpt><trkpt lat="36.88624433253892" lon="14.99286875507653"><ele>146.0</ele><time>2026-03-26T16:44:54Z</time></trkpt><trkpt lat="36.886313809043976" lon="14.992876477351253"><ele>148.0</ele><time>2026-03-26T16:44:56Z</time></trkpt><trkpt lat="36.886382915533474" lon="14.992867174646287"><ele>150.0</ele><time>2026-03-26T16:48:07Z</time></trkpt><trkpt lat="36.88630543808377" lon="14.992875546916764"><ele>152.0</ele><time>2026-03-26T16:48:19Z</time></trkpt><trkpt lat="36.88620827783085" lon="14.992847706057884"><ele>154.0</ele><time>2026-03-26T16:48:21Z</time></trkpt><trkpt lat="36.88610950736883" lon="14.992836140503606"><ele>154.0</ele><time>2026-03-26T16:48:23Z</time></trkpt><trkpt lat="36.88604254230231" lon="14.99282934301092"><ele>154.0</ele><time>2026-03-26T16:48:24Z</time></trkpt><trkpt lat="36.88597693719667" lon="14.992824433301937"><ele>154.0</ele><time>2026-03-26T16:48:25Z</time></trkpt><trkpt lat="36.88590739157799" lon="14.992823468614894"><ele>154.0</ele><time>2026-03-26T16:48:26Z</time></trkpt><trkpt lat="36.88584186896813" lon="14.992829053315129"><ele>154.0</ele><time>2026-03-26T16:48:27Z</time></trkpt><trkpt lat="36.88573021539612" lon="14.992842017836688"><ele>154.0</ele><time>2026-03-26T16:48:29Z</time></trkpt><trkpt lat="36.8856609683265" lon="14.992844047190744"><ele>151.6</ele><time>2026-03-26T16:48:30Z</time></trkpt><trkpt lat="36.88555745308741" lon="14.992872337716431"><ele>149.2</ele><time>2026-03-26T16:48:32Z</time></trkpt><trkpt lat="36.88545189554197" lon="14.99286109782691"><ele>146.79999999999998</ele><time>2026-03-26T16:48:34Z</time></trkpt><trkpt lat="36.88535614086645" lon="14.9928452031899"><ele>144.4</ele><time>2026-03-26T16:48:36Z</time></trkpt><trkpt lat="36.88529121825652" lon="14.992828800201032"><ele>142.0</ele><time>2026-03-26T16:48:38Z</time></trkpt><trkpt lat="36.8852210749808" lon="14.99277751910143"><ele>142.0</ele><time>2026-03-26T16:48:41Z</time></trkpt><trkpt lat="36.885292799109344" lon="14.992799550059505"><ele>142.0</ele><time>2026-03-26T16:48:48Z</time></trkpt><trkpt lat="36.88539761826716" lon="14.992845641859953"><ele>142.0</ele><time>2026-03-26T16:48:51Z</time></trkpt><trkpt lat="36.8854958432808" lon="14.992859515347014"><ele>142.0</ele><time>2026-03-26T16:48:53Z</time></trkpt><trkpt lat="36.88557722740754" lon="14.992864433665178"><ele>142.0</ele><time>2026-03-26T16:48:54Z</time></trkpt><trkpt lat="36.88564971971937" lon="14.992862566400328"><ele>142.0</ele><time>2026-03-26T16:48:55Z</time></trkpt><trkpt lat="36.8857315278708" lon="14.99285033753441"><ele>142.0</ele><time>2026-03-26T16:48:56Z</time></trkpt><trkpt lat="36.88579958967326" lon="14.99284090079789"><ele>142.0</ele><time>2026-03-26T16:48:57Z</time></trkpt><trkpt lat="36.885926636181814" lon="14.992826693122673"><ele>142.0</ele><time>2026-03-26T16:48:59Z</time></trkpt><trkpt lat="36.88600256648209" lon="14.992839534792457"><ele>142.0</ele><time>2026-03-26T16:49:01Z</time></trkpt><trkpt lat="36.88639386365118" lon="14.992842077667124"><ele>159.0</ele><time>2026-03-26T16:49:08Z</time></trkpt><trkpt lat="36.88645965356432" lon="14.992180218967205"><ele>159.0</ele><time>2026-03-26T16:49:11Z</time></trkpt><trkpt lat="36.88652225348495" lon="14.992104289488971"><ele>159.0</ele><time>2026-03-26T16:49:13Z</time></trkpt><trkpt lat="36.8865622806108" lon="14.99202800683642"><ele>159.0</ele><time>2026-03-26T16:49:15Z</time></trkpt><trkpt lat="36.886603171626284" lon="14.991915769807346"><ele>159.0</ele><time>2026-03-26T16:49:17Z</time></trkpt><trkpt lat="36.886626847955675" lon="14.991790265082978"><ele>159.0</ele><time>2026-03-26T16:49:19Z</time></trkpt><trkpt lat="36.886672503223146" lon="14.991693361085789"><ele>162.66666666666666</ele><time>2026-03-26T16:49:21Z</time></trkpt><trkpt lat="36.88661657636141" lon="14.991579768769089"><ele>166.33333333333334</ele><time>2026-03-26T16:49:24Z</time></trkpt><trkpt lat="36.8865272678254" lon="14.99153301433773"><ele>170.0</ele><time>2026-03-26T16:49:26Z</time></trkpt><trkpt lat="36.88646309516971" lon="14.991515305042933"><ele>173.66666666666669</ele><time>2026-03-26T16:49:27Z</time></trkpt><trkpt lat="36.88640092728218" lon="14.99150053619154"><ele>177.33333333333334</ele><time>2026-03-26T16:49:28Z</time></trkpt><trkpt lat="36.886324020329944" lon="14.991464488489695"><ele>181.0</ele><time>2026-03-26T16:49:30Z</time></trkpt><trkpt lat="36.886262015316504" lon="14.991389123476333"><ele>181.0</ele><time>2026-03-26T16:49:33Z</time></trkpt><trkpt lat="36.886274187721455" lon="14.991299347777177"><ele>181.0</ele><time>2026-03-26T16:49:35Z</time></trkpt><trkpt lat="36.886327214560595" lon="14.991206451860654"><ele>181.0</ele><time>2026-03-26T16:49:38Z</time></trkpt><trkpt lat="36.88640364796782" lon="14.991136629454319"><ele>181.0</ele><time>2026-03-26T16:49:40Z</time></trkpt><trkpt lat="36.88651174653091" lon="14.991111106839247"><ele>181.0</ele><time>2026-03-26T16:49:43.999Z</time></trkpt><trkpt lat="36.88657923168004" lon="14.991116288970444"><ele>181.0</ele><time>2026-03-26T16:49:44.999Z</time></trkpt><trkpt lat="36.886687611731475" lon="14.991110415270025"><ele>182.83333333333334</ele><time>2026-03-26T16:49:46.999Z</time></trkpt><trkpt lat="36.886784519603154" lon="14.991105844775028"><ele>184.66666666666669</ele><time>2026-03-26T16:49:48.999Z</time></trkpt><trkpt lat="36.88685895431122" lon="14.991104010429943"><ele>186.5</ele><time>2026-03-26T16:49:50.999Z</time></trkpt><trkpt lat="36.88693145248072" lon="14.991097048176048"><ele>188.33333333333334</ele><time>2026-03-26T16:49:52.999Z</time></trkpt><trkpt lat="36.88701579690982" lon="14.99112938455125"><ele>190.16666666666666</ele><time>2026-03-26T16:49:55.999Z</time></trkpt><trkpt lat="36.88707902346681" lon="14.991156225813727"><ele>192.0</ele><time>2026-03-26T16:49:57.999Z</time></trkpt><trkpt lat="36.88714122968079" lon="14.991180749315095"><ele>192.0</ele><time>2026-03-26T16:49:59.999Z</time></trkpt><trkpt lat="36.88722393512876" lon="14.991163052286257"><ele>192.0</ele><time>2026-03-26T16:50:02Z</time></trkpt><trkpt lat="36.887320985141045" lon="14.99116345538382"><ele>192.0</ele><time>2026-03-26T16:50:04Z</time></trkpt><trkpt lat="36.88741010820024" lon="14.991196585664088"><ele>192.0</ele><time>2026-03-26T16:50:06Z</time></trkpt><trkpt lat="36.887491260239145" lon="14.991245895425152"><ele>192.0</ele><time>2026-03-26T16:50:08Z</time></trkpt><trkpt lat="36.88753787967354" lon="14.991335534138749"><ele>192.0</ele><time>2026-03-26T16:50:10Z</time></trkpt><trkpt lat="36.88756613727624" lon="14.991412988564614"><ele>192.0</ele><time>2026-03-26T16:50:12Z</time></trkpt><trkpt lat="36.88764874431841" lon="14.991439665885553"><ele>192.0</ele><time>2026-03-26T16:50:17Z</time></trkpt><trkpt lat="36.887682741600685" lon="14.991310879948626"><ele>192.0</ele><time>2026-03-26T16:50:19Z</time></trkpt><trkpt lat="36.887666450874875" lon="14.991220236510749"><ele>192.0</ele><time>2026-03-26T16:50:21Z</time></trkpt><trkpt lat="36.88761754255475" lon="14.991168709714282"><ele>192.0</ele><time>2026-03-26T16:50:23Z</time></trkpt><trkpt lat="36.887535906770616" lon="14.991108306212347"><ele>192.0</ele><time>2026-03-26T16:50:25Z</time></trkpt><trkpt lat="36.887445068457595" lon="14.991051154129957"><ele>192.0</ele><time>2026-03-26T16:50:27Z</time></trkpt><trkpt lat="36.887361667263" lon="14.99099074697727"><ele>192.0</ele><time>2026-03-26T16:50:29Z</time></trkpt><trkpt lat="36.88727346442759" lon="14.990948223283699"><ele>192.0</ele><time>2026-03-26T16:50:31Z</time></trkpt><trkpt lat="36.88733806941078" lon="14.990896525954739"><ele>192.0</ele><time>2026-03-26T16:50:40Z</time></trkpt><trkpt lat="36.88745217022836" lon="14.990942924893938"><ele>192.0</ele><time>2026-03-26T16:50:42Z</time></trkpt><trkpt lat="36.8875131972945" lon="14.990964143494173"><ele>192.0</ele><time>2026-03-26T16:50:43Z</time></trkpt><trkpt lat="36.88760465184663" lon="14.990978631060514"><ele>192.0</ele><time>2026-03-26T16:50:45Z</time></trkpt><trkpt lat="36.88767025415837" lon="14.990986860646572"><ele>192.0</ele><time>2026-03-26T16:50:47Z</time></trkpt><trkpt lat="36.8877086759556" lon="14.990924443368144"><ele>192.0</ele><time>2026-03-26T16:50:50Z</time></trkpt><trkpt lat="36.88762635776705" lon="14.990851480889734"><ele>192.0</ele><time>2026-03-26T16:50:52Z</time></trkpt><trkpt lat="36.88753918715247" lon="14.990843650361391"><ele>195.66666666666666</ele><time>2026-03-26T16:50:54Z</time></trkpt><trkpt lat="36.887437929152576" lon="14.990798978130526"><ele>199.33333333333331</ele><time>2026-03-26T16:50:56Z</time></trkpt><trkpt lat="36.88735579109402" lon="14.990766510959848"><ele>203.0</ele><time>2026-03-26T16:50:58Z</time></trkpt><trkpt lat="36.887294692325355" lon="14.990699884956758"><ele>206.66666666666666</ele><time>2026-03-26T16:51:01Z</time></trkpt><trkpt lat="36.887292354628606" lon="14.990610265580123"><ele>210.33333333333331</ele><time>2026-03-26T16:51:05Z</time></trkpt><trkpt lat="36.88733818478516" lon="14.990549009706399"><ele>214.0</ele><time>2026-03-26T16:51:14Z</time></trkpt><trkpt lat="36.887342328443026" lon="14.990465813474565"><ele>213.99999999999997</ele><time>2026-03-26T16:51:20Z</time></trkpt><trkpt lat="36.88735974566164" lon="14.99038517604943"><ele>214.0</ele><time>2026-03-26T16:51:24Z</time></trkpt><trkpt lat="36.88737474181782" lon="14.990305884280904"><ele>214.0</ele><time>2026-03-26T16:51:29Z</time></trkpt><trkpt lat="36.88738701286548" lon="14.990218020317968"><ele>214.0</ele><time>2026-03-26T16:51:31Z</time></trkpt><trkpt lat="36.8873653625914" lon="14.990140085620675"><ele>213.99999999999997</ele><time>2026-03-26T16:51:34Z</time></trkpt><trkpt lat="36.88726135090302" lon="14.990140088519645"><ele>214.0</ele><time>2026-03-26T16:51:37Z</time></trkpt><trkpt lat="36.887168194762" lon="14.990161417953644"><ele>213.99999999999997</ele><time>2026-03-26T16:51:39Z</time></trkpt><trkpt lat="36.88708051687274" lon="14.990172518197525"><ele>214.0</ele><time>2026-03-26T16:51:41Z</time></trkpt><trkpt lat="36.88701745379764" lon="14.990176974437647"><ele>214.0</ele><time>2026-03-26T16:51:43Z</time></trkpt><trkpt lat="36.88705339088921" lon="14.990086673874927"><ele>214.0</ele><time>2026-03-26T16:51:46.999Z</time></trkpt><trkpt lat="36.88715820139381" lon="14.99008518805369"><ele>213.99999999999997</ele><time>2026-03-26T16:51:48.999Z</time></trkpt><trkpt lat="36.887242907763806" lon="14.990075726190636"><ele>214.0</ele><time>2026-03-26T16:51:50.999Z</time></trkpt><trkpt lat="36.88732831299973" lon="14.990054512180476"><ele>214.0</ele><time>2026-03-26T16:51:52.999Z</time></trkpt><trkpt lat="36.88719939398624" lon="14.990013748689993"><ele>213.99999999999997</ele><time>2026-03-26T16:53:01Z</time></trkpt><trkpt lat="36.88707826357445" lon="14.99002198703438"><ele>213.99999999999997</ele><time>2026-03-26T16:53:03Z</time></trkpt><trkpt lat="36.8870135774451" lon="14.990043132585306"><ele>214.0</ele><time>2026-03-26T16:53:04Z</time></trkpt><trkpt lat="36.88689965203524" lon="14.990076560292872"><ele>214.0</ele><time>2026-03-26T16:53:06Z</time></trkpt><trkpt lat="36.88681428871774" lon="14.990071850457339"><ele>217.99999999999997</ele><time>2026-03-26T16:53:08Z</time></trkpt><trkpt lat="36.886834076133184" lon="14.989992611303592"><ele>222.0</ele><time>2026-03-26T16:53:13Z</time></trkpt><trkpt lat="36.88691600636994" lon="14.9899920131599"><ele>226.0</ele><time>2026-03-26T16:53:15Z</time></trkpt><trkpt lat="36.886979798091836" lon="14.989959690862547"><ele>230.0</ele><time>2026-03-26T16:53:17Z</time></trkpt><trkpt lat="36.887080378543224" lon="14.989903965077113"><ele>233.99999999999997</ele><time>2026-03-26T16:53:19Z</time></trkpt><trkpt lat="36.88717081275625" lon="14.98985841346163"><ele>238.0</ele><time>2026-03-26T16:53:21Z</time></trkpt><trkpt lat="36.887244096420034" lon="14.98987604910467"><ele>238.0</ele><time>2026-03-26T16:53:29Z</time></trkpt><trkpt lat="36.88730750934698" lon="14.989873668596136"><ele>238.0</ele><time>2026-03-26T16:53:37Z</time></trkpt><trkpt lat="36.88728962997534" lon="14.989785795992782"><ele>238.0</ele><time>2026-03-26T16:54:26Z</time></trkpt><trkpt lat="36.88728298015676" lon="14.989685095244917"><ele>238.0</ele><time>2026-03-26T16:54:29Z</time></trkpt><trkpt lat="36.88728426769853" lon="14.989603218591636"><ele>238.0</ele><time>2026-03-26T16:54:33Z</time></trkpt><trkpt lat="36.88727296593333" lon="14.989515287448112"><ele>238.0</ele><time>2026-03-26T16:54:37Z</time></trkpt><trkpt lat="36.8872732742998" lon="14.989430439469238"><ele>238.0</ele><time>2026-03-26T16:54:40Z</time></trkpt><trkpt lat="36.88728399372829" lon="14.989350727370088"><ele>237.99999999999997</ele><time>2026-03-26T16:56:12.999Z</time></trkpt><trkpt lat="36.88727411688738" lon="14.989500182669062"><ele>238.0</ele><time>2026-03-26T16:58:00Z</time></trkpt><trkpt lat="36.88727550522793" lon="14.989598403128836"><ele>238.0</ele><time>2026-03-26T16:58:02Z</time></trkpt><trkpt lat="36.88728483857887" lon="14.98970446767402"><ele>238.0</ele><time>2026-03-26T16:58:04.999Z</time></trkpt><trkpt lat="36.887292465714296" lon="14.989800439157587"><ele>237.99999999999997</ele><time>2026-03-26T16:58:07.999Z</time></trkpt><trkpt lat="36.88729201504318" lon="14.989881398988404"><ele>238.0</ele><time>2026-03-26T16:58:11.999Z</time></trkpt><trkpt lat="36.887201062907906" lon="14.98986418338243"><ele>237.99999999999997</ele><time>2026-03-26T16:58:15.999Z</time></trkpt><trkpt lat="36.887111917670616" lon="14.98987346033787"><ele>238.0</ele><time>2026-03-26T16:58:25Z</time></trkpt><trkpt lat="36.88704089477456" lon="14.98991794630486"><ele>238.0</ele><time>2026-03-26T16:58:27Z</time></trkpt><trkpt lat="36.88696784995732" lon="14.989961317405665"><ele>238.0</ele><time>2026-03-26T16:58:29Z</time></trkpt><trkpt lat="36.886896699353926" lon="14.98999450514748"><ele>237.99999999999997</ele><time>2026-03-26T16:58:31Z</time></trkpt><trkpt lat="36.88683416018781" lon="14.99001992789598"><ele>238.0</ele><time>2026-03-26T16:58:33Z</time></trkpt><trkpt lat="36.88687716431562" lon="14.990100386791037"><ele>233.99999999999997</ele><time>2026-03-26T16:58:40Z</time></trkpt><trkpt lat="36.88694420600721" lon="14.990077690130592"><ele>230.0</ele><time>2026-03-26T16:58:41Z</time></trkpt><trkpt lat="36.88703773382579" lon="14.990034227992735"><ele>226.0</ele><time>2026-03-26T16:58:43Z</time></trkpt><trkpt lat="36.88713508699777" lon="14.990018373200439"><ele>222.0</ele><time>2026-03-26T16:58:45Z</time></trkpt><trkpt lat="36.8872320640659" lon="14.99001618252865"><ele>217.99999999999997</ele><time>2026-03-26T16:58:47Z</time></trkpt><trkpt lat="36.88729630901703" lon="14.990027644870072"><ele>214.0</ele><time>2026-03-26T16:58:49Z</time></trkpt><trkpt lat="36.88719422200261" lon="14.990082566654621"><ele>213.99999999999997</ele><time>2026-03-26T16:59:07Z</time></trkpt><trkpt lat="36.887128656134884" lon="14.990090548372224"><ele>214.0</ele><time>2026-03-26T16:59:08Z</time></trkpt><trkpt lat="36.887042392389105" lon="14.990105669061716"><ele>214.0</ele><time>2026-03-26T16:59:10Z</time></trkpt><trkpt lat="36.88704902284634" lon="14.990189823111292"><ele>214.0</ele><time>2026-03-26T16:59:14Z</time></trkpt><trkpt lat="36.88715609101017" lon="14.9901673312353"><ele>213.99999999999997</ele><time>2026-03-26T16:59:16Z</time></trkpt><trkpt lat="36.887224916261985" lon="14.990147792788783"><ele>214.0</ele><time>2026-03-26T16:59:17Z</time></trkpt><trkpt lat="36.8873201156872" lon="14.990138074939553"><ele>214.00000000000003</ele><time>2026-03-26T16:59:19Z</time></trkpt><trkpt lat="36.887385727227134" lon="14.990157290957177"><ele>214.0</ele><time>2026-03-26T16:59:22Z</time></trkpt><trkpt lat="36.887390741604" lon="14.990251189426099"><ele>214.0</ele><time>2026-03-26T16:59:25Z</time></trkpt><trkpt lat="36.88737389434782" lon="14.990330703308302"><ele>214.0</ele><time>2026-03-26T16:59:27Z</time></trkpt><trkpt lat="36.887361414305914" lon="14.99044840423843"><ele>214.0</ele><time>2026-03-26T16:59:30Z</time></trkpt><trkpt lat="36.88734590036016" lon="14.990530813087274"><ele>214.00000000000003</ele><time>2026-03-26T16:59:32Z</time></trkpt><trkpt lat="36.88731285096646" lon="14.990613900525172"><ele>214.0</ele><time>2026-03-26T16:59:35Z</time></trkpt><trkpt lat="36.88729964735029" lon="14.990692478264503"><ele>213.99999999999997</ele><time>2026-03-26T16:59:39Z</time></trkpt><trkpt lat="36.88735045249363" lon="14.99076533019602"><ele>214.0</ele><time>2026-03-26T16:59:43Z</time></trkpt><trkpt lat="36.887429264983936" lon="14.990808444536228"><ele>214.0</ele><time>2026-03-26T17:00:00Z</time></trkpt><trkpt lat="36.88750720879406" lon="14.990826685199012"><ele>214.0</ele><time>2026-03-26T17:00:01Z</time></trkpt><trkpt lat="36.88757488386209" lon="14.990861186906884"><ele>213.99999999999997</ele><time>2026-03-26T17:00:02Z</time></trkpt><trkpt lat="36.88765270733268" lon="14.990898839785059"><ele>214.0</ele><time>2026-03-26T17:00:04Z</time></trkpt><trkpt lat="36.88769655734113" lon="14.990965923283019"><ele>212.71428571428572</ele><time>2026-03-26T17:00:07Z</time></trkpt><trkpt lat="36.887629960661926" lon="14.991004602159663"><ele>211.42857142857144</ele><time>2026-03-26T17:00:11Z</time></trkpt><trkpt lat="36.88756762442769" lon="14.990983120622943"><ele>210.14285714285717</ele><time>2026-03-26T17:00:12Z</time></trkpt><trkpt lat="36.88748106333041" lon="14.990954560634513"><ele>208.85714285714286</ele><time>2026-03-26T17:00:13.999Z</time></trkpt><trkpt lat="36.88741945113563" lon="14.990936212705021"><ele>207.57142857142856</ele><time>2026-03-26T17:00:15.999Z</time></trkpt><trkpt lat="36.88735894651661" lon="14.990911980871452"><ele>206.2857142857143</ele><time>2026-03-26T17:00:17.999Z</time></trkpt><trkpt lat="36.88728086885345" lon="14.990902168820071"><ele>205.0</ele><time>2026-03-26T17:00:20.999Z</time></trkpt><trkpt lat="36.88730418485066" lon="14.990976518392454"><ele>204.99999999999997</ele><time>2026-03-26T17:00:25.999Z</time></trkpt><trkpt lat="36.887371230299784" lon="14.990999072368124"><ele>205.0</ele><time>2026-03-26T17:00:26.999Z</time></trkpt><trkpt lat="36.88743343413758" lon="14.991037520344175"><ele>205.0</ele><time>2026-03-26T17:00:27.999Z</time></trkpt><trkpt lat="36.88751813779168" lon="14.99109780909742"><ele>205.0</ele><time>2026-03-26T17:00:29.999Z</time></trkpt><trkpt lat="36.887587383556045" lon="14.991142472710708"><ele>204.99999999999997</ele><time>2026-03-26T17:00:32Z</time></trkpt><trkpt lat="36.88764141767002" lon="14.99120079033539"><ele>205.0</ele><time>2026-03-26T17:00:35Z</time></trkpt><trkpt lat="36.88768813900493" lon="14.99125834175842"><ele>204.99999999999997</ele><time>2026-03-26T17:00:36Z</time></trkpt><trkpt lat="36.88769760623062" lon="14.991364063885346"><ele>205.0</ele><time>2026-03-26T17:00:38Z</time></trkpt><trkpt lat="36.887661653550744" lon="14.991430608493138"><ele>205.0</ele><time>2026-03-26T17:00:40Z</time></trkpt><trkpt lat="36.88758604207511" lon="14.991446190647535"><ele>205.0</ele><time>2026-03-26T17:00:43Z</time></trkpt><trkpt lat="36.88754119200912" lon="14.991359540613864"><ele>204.99999999999997</ele><time>2026-03-26T17:00:45Z</time></trkpt><trkpt lat="36.887516625248054" lon="14.991286895256748"><ele>205.0</ele><time>2026-03-26T17:00:46Z</time></trkpt><trkpt lat="36.88744111908803" lon="14.991197811169213"><ele>202.83333333333331</ele><time>2026-03-26T17:00:48Z</time></trkpt><trkpt lat="36.88734046142948" lon="14.991179804457436"><ele>200.66666666666666</ele><time>2026-03-26T17:00:50Z</time></trkpt><trkpt lat="36.88724662114199" lon="14.991163588092409"><ele>198.5</ele><time>2026-03-26T17:00:52Z</time></trkpt><trkpt lat="36.88719744260032" lon="14.991217064637713"><ele>196.33333333333331</ele><time>2026-03-26T17:00:54Z</time></trkpt><trkpt lat="36.887233654218335" lon="14.991292921501826"><ele>194.16666666666666</ele><time>2026-03-26T17:00:57Z</time></trkpt><trkpt lat="36.88730052462671" lon="14.991354125403937"><ele>192.0</ele><time>2026-03-26T17:00:59Z</time></trkpt><trkpt lat="36.88722030783058" lon="14.99137012945327"><ele>191.99999999999997</ele><time>2026-03-26T17:01:04Z</time></trkpt><trkpt lat="36.8871599990739" lon="14.991332560185993"><ele>192.0</ele><time>2026-03-26T17:01:06Z</time></trkpt><trkpt lat="36.887094890299835" lon="14.991339434346012"><ele>192.0</ele><time>2026-03-26T17:01:09Z</time></trkpt><trkpt lat="36.887010623311625" lon="14.991329805096239"><ele>192.0</ele><time>2026-03-26T17:01:28Z</time></trkpt><trkpt lat="36.886947350405066" lon="14.991302350597223"><ele>192.0</ele><time>2026-03-26T17:01:30Z</time></trkpt><trkpt lat="36.886882941909924" lon="14.99130339943138"><ele>191.99999999999997</ele><time>2026-03-26T17:01:32Z</time></trkpt><trkpt lat="36.886803312093484" lon="14.991286487038929"><ele>192.0</ele><time>2026-03-26T17:01:33Z</time></trkpt><trkpt lat="36.886690150556404" lon="14.991289522095244"><ele>189.8</ele><time>2026-03-26T17:01:35Z</time></trkpt><trkpt lat="36.88658457416143" lon="14.991285984407565"><ele>187.6</ele><time>2026-03-26T17:01:37Z</time></trkpt><trkpt lat="36.88647028844097" lon="14.991292329897911"><ele>185.4</ele><time>2026-03-26T17:01:39Z</time></trkpt><trkpt lat="36.88637984396284" lon="14.991321902141015"><ele>183.20000000000002</ele><time>2026-03-26T17:01:41Z</time></trkpt><trkpt lat="36.88631654838528" lon="14.991349506804347"><ele>181.0</ele><time>2026-03-26T17:01:43Z</time></trkpt><trkpt lat="36.886304416052404" lon="14.9914464409752"><ele>181.0</ele><time>2026-03-26T17:01:47Z</time></trkpt><trkpt lat="36.88636580985531" lon="14.991489876654066"><ele>181.0</ele><time>2026-03-26T17:01:50Z</time></trkpt><trkpt lat="36.88643189568324" lon="14.991515609023129"><ele>181.0</ele><time>2026-03-26T17:01:52Z</time></trkpt><trkpt lat="36.88651619636007" lon="14.9915353954323"><ele>181.0</ele><time>2026-03-26T17:01:54Z</time></trkpt><trkpt lat="36.88658237292838" lon="14.99154851902666"><ele>181.0</ele><time>2026-03-26T17:01:55Z</time></trkpt><trkpt lat="36.88664587855162" lon="14.991599754445346"><ele>181.0</ele><time>2026-03-26T17:01:58Z</time></trkpt><trkpt lat="36.886685703547165" lon="14.991661625356246"><ele>181.0</ele><time>2026-03-26T17:02:00Z</time></trkpt><trkpt lat="36.88665012496729" lon="14.991789903682191"><ele>177.33333333333334</ele><time>2026-03-26T17:02:03Z</time></trkpt><trkpt lat="36.88662056915576" lon="14.991885270170469"><ele>173.66666666666669</ele><time>2026-03-26T17:02:04Z</time></trkpt><trkpt lat="36.88659315715299" lon="14.991981356976023"><ele>170.0</ele><time>2026-03-26T17:02:06Z</time></trkpt><trkpt lat="36.88656197588824" lon="14.992083615845273"><ele>166.33333333333334</ele><time>2026-03-26T17:02:08Z</time></trkpt><trkpt lat="36.886498410082915" lon="14.992159091668858"><ele>162.66666666666666</ele><time>2026-03-26T17:02:10Z</time></trkpt><trkpt lat="36.8864254753952" lon="14.992226888797047"><ele>159.0</ele><time>2026-03-26T17:02:12Z</time></trkpt><trkpt lat="36.88635432720327" lon="14.992328518057219"><ele>159.0</ele><time>2026-03-26T17:02:15Z</time></trkpt><trkpt lat="36.8862576545427" lon="14.992392605310679"><ele>159.0</ele><time>2026-03-26T17:02:17Z</time></trkpt><trkpt lat="36.88617962548497" lon="14.992434709740687"><ele>159.0</ele><time>2026-03-26T17:02:19Z</time></trkpt><trkpt lat="36.88611676688038" lon="14.99247378182005"><ele>159.0</ele><time>2026-03-26T17:02:21.999Z</time></trkpt><trkpt lat="36.88616451281137" lon="14.992537587207964"><ele>159.0</ele><time>2026-03-26T17:02:24.999Z</time></trkpt><trkpt lat="36.8862345452902" lon="14.992568785315287"><ele>159.0</ele><time>2026-03-26T17:02:26.999Z</time></trkpt><trkpt lat="36.88632419960143" lon="14.99253868734988"><ele>159.0</ele><time>2026-03-26T17:02:29.999Z</time></trkpt><trkpt lat="36.88642345401922" lon="14.992514925412884"><ele>159.0</ele><time>2026-03-26T17:02:31.999Z</time></trkpt><trkpt lat="36.88653706053686" lon="14.992483046633009"><ele>159.0</ele><time>2026-03-26T17:02:33.999Z</time></trkpt><trkpt lat="36.88661875477495" lon="14.992453523446782"><ele>159.0</ele><time>2026-03-26T17:02:37Z</time></trkpt><trkpt lat="36.886686200696694" lon="14.99243718975384"><ele>159.0</ele><time>2026-03-26T17:02:44Z</time></trkpt><trkpt lat="36.88675003269476" lon="14.992441180938622"><ele>159.0</ele><time>2026-03-26T17:02:47Z</time></trkpt><trkpt lat="36.88683867531604" lon="14.992440252912607"><ele>160.85714285714286</ele><time>2026-03-26T17:02:55Z</time></trkpt><trkpt lat="36.88688501317797" lon="14.992499124332365"><ele>162.71428571428572</ele><time>2026-03-26T17:02:57Z</time></trkpt><trkpt lat="36.88694932508138" lon="14.992515292563578"><ele>164.57142857142858</ele><time>2026-03-26T17:03:00Z</time></trkpt><trkpt lat="36.886995125961434" lon="14.99257991825965"><ele>166.42857142857144</ele><time>2026-03-26T17:03:09Z</time></trkpt><trkpt lat="36.887017029249826" lon="14.992655794265028"><ele>168.28571428571428</ele><time>2026-03-26T17:03:14Z</time></trkpt><trkpt lat="36.88696610276268" lon="14.992716854158532"><ele>170.14285714285717</ele><time>2026-03-26T17:03:20Z</time></trkpt><trkpt lat="36.886878260557026" lon="14.992719402908074"><ele>172.0</ele><time>2026-03-26T17:03:24Z</time></trkpt><trkpt lat="36.886798948804575" lon="14.992681745570742"><ele>169.42857142857144</ele><time>2026-03-26T17:03:28Z</time></trkpt><trkpt lat="36.88673649009906" lon="14.9926950175881"><ele>166.85714285714286</ele><time>2026-03-26T17:03:30Z</time></trkpt><trkpt lat="36.88668532708626" lon="14.992746776610284"><ele>164.28571428571428</ele><time>2026-03-26T17:03:32Z</time></trkpt><trkpt lat="36.886646789066646" lon="14.992811846745242"><ele>161.71428571428572</ele><time>2026-03-26T17:03:35Z</time></trkpt><trkpt lat="36.88665907660888" lon="14.992920072741457"><ele>159.14285714285714</ele><time>2026-03-26T17:03:38Z</time></trkpt><trkpt lat="36.886654914228615" lon="14.993008835147453"><ele>156.57142857142858</ele><time>2026-03-26T17:03:44Z</time></trkpt><trkpt lat="36.886634565701236" lon="14.993088945241997"><ele>154.0</ele><time>2026-03-26T17:03:45Z</time></trkpt><trkpt lat="36.886569318216075" lon="14.993120182274486"><ele>154.0</ele><time>2026-03-26T17:03:46Z</time></trkpt><trkpt lat="36.88652652378948" lon="14.993253472400456"><ele>154.0</ele><time>2026-03-26T17:03:48Z</time></trkpt><trkpt lat="36.88650249990645" lon="14.993336358652412"><ele>154.0</ele><time>2026-03-26T17:03:49Z</time></trkpt><trkpt lat="36.88647897189295" lon="14.993424319651243"><ele>154.0</ele><time>2026-03-26T17:03:50Z</time></trkpt><trkpt lat="36.88646681057358" lon="14.993512933156024"><ele>154.0</ele><time>2026-03-26T17:03:51Z</time></trkpt><trkpt lat="36.886488321687004" lon="14.993657949092752"><ele>154.0</ele><time>2026-03-26T17:03:53Z</time></trkpt><trkpt lat="36.88652935120454" lon="14.993720046573108"><ele>154.0</ele><time>2026-03-26T17:03:54Z</time></trkpt><trkpt lat="36.886665478061154" lon="14.993721100331445"><ele>154.0</ele><time>2026-03-26T17:03:56Z</time></trkpt><trkpt lat="36.88673603360826" lon="14.993653568125287"><ele>154.0</ele><time>2026-03-26T17:03:57Z</time></trkpt><trkpt lat="36.88681737883804" lon="14.993628523544713"><ele>154.0</ele><time>2026-03-26T17:03:58Z</time></trkpt><trkpt lat="36.886883305539634" lon="14.993598944232557"><ele>154.0</ele><time>2026-03-26T17:03:59Z</time></trkpt><trkpt lat="36.8869890725871" lon="14.9936076549206"><ele>156.16666666666669</ele><time>2026-03-26T17:04:01Z</time></trkpt><trkpt lat="36.88704665239575" lon="14.993661384279731"><ele>158.33333333333334</ele><time>2026-03-26T17:04:02Z</time></trkpt><trkpt lat="36.88711636619369" lon="14.993705688331785"><ele>160.5</ele><time>2026-03-26T17:04:03Z</time></trkpt><trkpt lat="36.88719143995868" lon="14.99373134048038"><ele>162.66666666666666</ele><time>2026-03-26T17:04:04Z</time></trkpt><trkpt lat="36.887252585870655" lon="14.993764143952067"><ele>164.83333333333331</ele><time>2026-03-26T17:04:05Z</time></trkpt><trkpt lat="36.88732380614531" lon="14.993818958325104"><ele>167.0</ele><time>2026-03-26T17:04:06Z</time></trkpt><trkpt lat="36.88739597261815" lon="14.993863145663049"><ele>167.0</ele><time>2026-03-26T17:04:07Z</time></trkpt><trkpt lat="36.8875106380503" lon="14.993932557214684"><ele>167.0</ele><time>2026-03-26T17:04:09Z</time></trkpt><trkpt lat="36.88757623278813" lon="14.993967170357527"><ele>167.0</ele><time>2026-03-26T17:04:10Z</time></trkpt><trkpt lat="36.88769806854875" lon="14.993970793931389"><ele>167.0</ele><time>2026-03-26T17:04:12Z</time></trkpt><trkpt lat="36.887764555869154" lon="14.993956639137421"><ele>167.0</ele><time>2026-03-26T17:04:13Z</time></trkpt><trkpt lat="36.88787319085502" lon="14.99397443430176"><ele>168.2</ele><time>2026-03-26T17:04:15Z</time></trkpt><trkpt lat="36.88799853016117" lon="14.993984943507288"><ele>169.39999999999998</ele><time>2026-03-26T17:04:17Z</time></trkpt><trkpt lat="36.88808238506434" lon="14.994002216104537"><ele>170.60000000000002</ele><time>2026-03-26T17:04:19Z</time></trkpt><trkpt lat="36.88818173046279" lon="14.994075900236078"><ele>171.8</ele><time>2026-03-26T17:04:21Z</time></trkpt><trkpt lat="36.88824551228346" lon="14.994111637070718"><ele>173.0</ele><time>2026-03-26T17:04:22Z</time></trkpt><trkpt lat="36.88831017659595" lon="14.994137454265438"><ele>173.0</ele><time>2026-03-26T17:04:23Z</time></trkpt><trkpt lat="36.88837298783596" lon="14.994161377926757"><ele>173.0</ele><time>2026-03-26T17:04:24Z</time></trkpt><trkpt lat="36.8884543373904" lon="14.994201469524539"><ele>173.0</ele><time>2026-03-26T17:04:25.999Z</time></trkpt><trkpt lat="36.888514412555644" lon="14.994256931071757"><ele>173.0</ele><time>2026-03-26T17:04:27.999Z</time></trkpt><trkpt lat="36.88852891619844" lon="14.994349960788536"><ele>173.0</ele><time>2026-03-26T17:04:29.999Z</time></trkpt><trkpt lat="36.88846443824771" lon="14.994423761355364"><ele>173.0</ele><time>2026-03-26T17:04:31.999Z</time></trkpt><trkpt lat="36.888408793369784" lon="14.994488813008983"><ele>171.57142857142856</ele><time>2026-03-26T17:04:35.999Z</time></trkpt><trkpt lat="36.88836257027598" lon="14.994550788867343"><ele>170.14285714285717</ele><time>2026-03-26T17:04:37.999Z</time></trkpt><trkpt lat="36.88832319700837" lon="14.994623215885827"><ele>168.71428571428572</ele><time>2026-03-26T17:04:44Z</time></trkpt><trkpt lat="36.88831283840871" lon="14.994724686918724"><ele>167.28571428571428</ele><time>2026-03-26T17:04:47Z</time></trkpt><trkpt lat="36.888287747144794" lon="14.994811415352519"><ele>165.85714285714283</ele><time>2026-03-26T17:04:50Z</time></trkpt><trkpt lat="36.888276666829015" lon="14.994897882761828"><ele>164.42857142857144</ele><time>2026-03-26T17:04:54Z</time></trkpt><trkpt lat="36.88834955829248" lon="14.994932173239004"><ele>163.0</ele><time>2026-03-26T17:05:27Z</time></trkpt><trkpt lat="36.888368887007175" lon="14.994829236853535"><ele>163.0</ele><time>2026-03-26T17:06:08Z</time></trkpt><trkpt lat="36.888343054392074" lon="14.99473790958804"><ele>163.0</ele><time>2026-03-26T17:06:44.999Z</time></trkpt><trkpt lat="36.88831451718821" lon="14.99465793885139"><ele>163.0</ele><time>2026-03-26T17:06:46.999Z</time></trkpt><trkpt lat="36.8883307655276" lon="14.994562288915692"><ele>163.0</ele><time>2026-03-26T17:06:50Z</time></trkpt><trkpt lat="36.88839469567986" lon="14.994487139808202"><ele>163.0</ele><time>2026-03-26T17:06:52Z</time></trkpt><trkpt lat="36.88848289414763" lon="14.994392450464956"><ele>163.0</ele><time>2026-03-26T17:06:54Z</time></trkpt><trkpt lat="36.88852838091577" lon="14.994297063757083"><ele>164.66666666666669</ele><time>2026-03-26T17:06:56Z</time></trkpt><trkpt lat="36.88847880602656" lon="14.994205379660514"><ele>166.33333333333334</ele><time>2026-03-26T17:06:58Z</time></trkpt><trkpt lat="36.88840877009107" lon="14.994163577862293"><ele>168.0</ele><time>2026-03-26T17:06:59Z</time></trkpt><trkpt lat="36.88832556781071" lon="14.994136648202488"><ele>169.66666666666666</ele><time>2026-03-26T17:07:00Z</time></trkpt><trkpt lat="36.888255067376036" lon="14.99411793224251"><ele>171.33333333333331</ele><time>2026-03-26T17:07:02Z</time></trkpt><trkpt lat="36.888298809465645" lon="14.994016586330979"><ele>173.0</ele><time>2026-03-26T17:07:10Z</time></trkpt><trkpt lat="36.88836439546167" lon="14.993940070156821"><ele>173.0</ele><time>2026-03-26T17:07:11Z</time></trkpt><trkpt lat="36.88841777649924" lon="14.993851708468098"><ele>173.0</ele><time>2026-03-26T17:07:12Z</time></trkpt><trkpt lat="36.888487729977626" lon="14.99373752233215"><ele>173.0</ele><time>2026-03-26T17:07:14Z</time></trkpt><trkpt lat="36.88855210652775" lon="14.993699207278544"><ele>173.0</ele><time>2026-03-26T17:07:17Z</time></trkpt><trkpt lat="36.888643041478176" lon="14.993696367669079"><ele>173.0</ele><time>2026-03-26T17:07:20Z</time></trkpt><trkpt lat="36.88872746922677" lon="14.993692135353593"><ele>175.4</ele><time>2026-03-26T17:07:22Z</time></trkpt><trkpt lat="36.888822464363436" lon="14.993716893152333"><ele>177.8</ele><time>2026-03-26T17:07:24Z</time></trkpt><trkpt lat="36.88892456707669" lon="14.99368979156587"><ele>180.2</ele><time>2026-03-26T17:07:26Z</time></trkpt><trkpt lat="36.88904736189249" lon="14.993653288460802"><ele>182.6</ele><time>2026-03-26T17:07:28Z</time></trkpt><trkpt lat="36.88911548499572" lon="14.993635081712267"><ele>185.0</ele><time>2026-03-26T17:07:29Z</time></trkpt><trkpt lat="36.88918682140595" lon="14.99360466089032"><ele>185.0</ele><time>2026-03-26T17:07:31Z</time></trkpt><trkpt lat="36.88912648778607" lon="14.993522560364756"><ele>185.0</ele><time>2026-03-26T17:07:52Z</time></trkpt><trkpt lat="36.88900484981776" lon="14.993454751514617"><ele>185.0</ele><time>2026-03-26T17:07:54Z</time></trkpt><trkpt lat="36.88893946193957" lon="14.99342671951008"><ele>185.0</ele><time>2026-03-26T17:07:55Z</time></trkpt><trkpt lat="36.88885226299087" lon="14.99338466956012"><ele>185.0</ele><time>2026-03-26T17:07:57Z</time></trkpt><trkpt lat="36.888773510423405" lon="14.993328631578935"><ele>186.5</ele><time>2026-03-26T17:08:00Z</time></trkpt><trkpt lat="36.88875620269462" lon="14.99323771867813"><ele>188.0</ele><time>2026-03-26T17:08:07Z</time></trkpt><trkpt lat="36.88880779454869" lon="14.99317759049339"><ele>189.5</ele><time>2026-03-26T17:08:22Z</time></trkpt><trkpt lat="36.88887625403459" lon="14.993197467132427"><ele>191.0</ele><time>2026-03-26T17:08:23Z</time></trkpt><trkpt lat="36.88894380547314" lon="14.993213681715842"><ele>192.50000000000003</ele><time>2026-03-26T17:08:25Z</time></trkpt><trkpt lat="36.88905406324631" lon="14.993232338858379"><ele>194.0</ele><time>2026-03-26T17:08:27Z</time></trkpt><trkpt lat="36.88912032988642" lon="14.993250372482777"><ele>194.0</ele><time>2026-03-26T17:08:28Z</time></trkpt><trkpt lat="36.8891969083872" lon="14.9932654948812"><ele>194.0</ele><time>2026-03-26T17:08:29Z</time></trkpt><trkpt lat="36.88927776120029" lon="14.993309999906673"><ele>194.0</ele><time>2026-03-26T17:08:30Z</time></trkpt><trkpt lat="36.8893762169051" lon="14.993338767376775"><ele>194.0</ele><time>2026-03-26T17:08:31Z</time></trkpt><trkpt lat="36.88947157830725" lon="14.99336663075724"><ele>194.0</ele><time>2026-03-26T17:08:32Z</time></trkpt><trkpt lat="36.889572234915256" lon="14.993377108452513"><ele>195.2</ele><time>2026-03-26T17:08:33Z</time></trkpt><trkpt lat="36.88966806018765" lon="14.993422805880819"><ele>196.39999999999998</ele><time>2026-03-26T17:08:34Z</time></trkpt><trkpt lat="36.88976487087892" lon="14.993449406381037"><ele>197.6</ele><time>2026-03-26T17:08:35Z</time></trkpt><trkpt lat="36.889874473432535" lon="14.993458291153026"><ele>198.8</ele><time>2026-03-26T17:08:36Z</time></trkpt><trkpt lat="36.88997483176003" lon="14.99348410149754"><ele>200.0</ele><time>2026-03-26T17:08:37Z</time></trkpt><trkpt lat="36.890064458445025" lon="14.993506430707242"><ele>203.33333333333334</ele><time>2026-03-26T17:08:38Z</time></trkpt><trkpt lat="36.89015448860531" lon="14.993521312776497"><ele>206.66666666666669</ele><time>2026-03-26T17:08:39Z</time></trkpt><trkpt lat="36.89024006388061" lon="14.993550532354021"><ele>210.0</ele><time>2026-03-26T17:08:39.999Z</time></trkpt><trkpt lat="36.890323921941466" lon="14.993546454165653"><ele>213.33333333333331</ele><time>2026-03-26T17:08:40.999Z</time></trkpt><trkpt lat="36.8904030795772" lon="14.993558663486356"><ele>216.66666666666666</ele><time>2026-03-26T17:08:41.999Z</time></trkpt><trkpt lat="36.890475803069414" lon="14.993574543659944"><ele>220.0</ele><time>2026-03-26T17:08:42.999Z</time></trkpt><trkpt lat="36.89054326665609" lon="14.993588923278537"><ele>220.0</ele><time>2026-03-26T17:08:43.999Z</time></trkpt><trkpt lat="36.89061903193542" lon="14.99359661601765"><ele>220.0</ele><time>2026-03-26T17:08:45.999Z</time></trkpt><trkpt lat="36.890627297253126" lon="14.993400794020138"><ele>220.0</ele><time>2026-03-26T17:08:48.999Z</time></trkpt><trkpt lat="36.89063668108981" lon="14.993276488453706"><ele>220.0</ele><time>2026-03-26T17:08:49.999Z</time></trkpt><trkpt lat="36.89063303255133" lon="14.993190066423262"><ele>220.0</ele><time>2026-03-26T17:08:50.999Z</time></trkpt><trkpt lat="36.89064605173472" lon="14.993092141904706"><ele>220.0</ele><time>2026-03-26T17:08:52.999Z</time></trkpt><trkpt lat="36.89072538286681" lon="14.993152834951077"><ele>220.0</ele><time>2026-03-26T17:08:56Z</time></trkpt><trkpt lat="36.89074670338179" lon="14.993245724193416"><ele>220.0</ele><time>2026-03-26T17:08:57Z</time></trkpt><trkpt lat="36.89079815464082" lon="14.993358323021223"><ele>220.0</ele><time>2026-03-26T17:08:58Z</time></trkpt><trkpt lat="36.890849859979745" lon="14.993478872848495"><ele>220.0</ele><time>2026-03-26T17:08:59Z</time></trkpt><trkpt lat="36.89090067891688" lon="14.993597712098836"><ele>225.16666666666666</ele><time>2026-03-26T17:09:00Z</time></trkpt><trkpt lat="36.890943240864864" lon="14.993688957830337"><ele>230.33333333333331</ele><time>2026-03-26T17:09:01Z</time></trkpt><trkpt lat="36.89098286364412" lon="14.99377210340984"><ele>235.5</ele><time>2026-03-26T17:09:02Z</time></trkpt><trkpt lat="36.89102398330627" lon="14.993838547410936"><ele>240.66666666666669</ele><time>2026-03-26T17:09:03Z</time></trkpt><trkpt lat="36.891110139403416" lon="14.993926073135222"><ele>245.83333333333334</ele><time>2026-03-26T17:09:05Z</time></trkpt><trkpt lat="36.891172965758614" lon="14.994019077078908"><ele>251.0</ele><time>2026-03-26T17:09:07Z</time></trkpt><trkpt lat="36.891188962184806" lon="14.994100447089858"><ele>250.4285714285714</ele><time>2026-03-26T17:09:08Z</time></trkpt><trkpt lat="36.89121621559613" lon="14.9941812236391"><ele>249.85714285714283</ele><time>2026-03-26T17:09:09Z</time></trkpt><trkpt lat="36.8912455786715" lon="14.994270215174568"><ele>249.28571428571428</ele><time>2026-03-26T17:09:10Z</time></trkpt><trkpt lat="36.89127357659666" lon="14.994359217806247"><ele>248.7142857142857</ele><time>2026-03-26T17:09:11Z</time></trkpt><trkpt lat="36.891307457326384" lon="14.99443320200974"><ele>248.1428571428571</ele><time>2026-03-26T17:09:12Z</time></trkpt><trkpt lat="36.891326230553695" lon="14.99451968681082"><ele>247.57142857142858</ele><time>2026-03-26T17:09:13Z</time></trkpt><trkpt lat="36.891363380375545" lon="14.994614598143151"><ele>247.0</ele><time>2026-03-26T17:09:14Z</time></trkpt><trkpt lat="36.8914009679911" lon="14.994700058882138"><ele>247.0</ele><time>2026-03-26T17:09:15Z</time></trkpt><trkpt lat="36.89145593535938" lon="14.994777928885833"><ele>247.0</ele><time>2026-03-26T17:09:16Z</time></trkpt><trkpt lat="36.89150168103333" lon="14.994865160938847"><ele>247.0</ele><time>2026-03-26T17:09:17Z</time></trkpt><trkpt lat="36.891548924825315" lon="14.994933079381077"><ele>247.0</ele><time>2026-03-26T17:09:18Z</time></trkpt><trkpt lat="36.89159735233971" lon="14.994983949501862"><ele>247.0</ele><time>2026-03-26T17:09:19Z</time></trkpt><trkpt lat="36.89164544723442" lon="14.995038740331474"><ele>247.0</ele><time>2026-03-26T17:09:20Z</time></trkpt><trkpt lat="36.891683253606026" lon="14.995114111602128"><ele>247.0</ele><time>2026-03-26T17:09:21Z</time></trkpt><trkpt lat="36.89172307372929" lon="14.995186873628311"><ele>247.8</ele><time>2026-03-26T17:09:22Z</time></trkpt><trkpt lat="36.891764068511975" lon="14.99526506097512"><ele>248.6</ele><time>2026-03-26T17:09:23Z</time></trkpt><trkpt lat="36.891816039233255" lon="14.995342927889325"><ele>249.40000000000003</ele><time>2026-03-26T17:09:24Z</time></trkpt><trkpt lat="36.89189604638491" lon="14.995448280898161"><ele>250.20000000000002</ele><time>2026-03-26T17:09:26Z</time></trkpt><trkpt lat="36.891934424744406" lon="14.995576415459992"><ele>251.0</ele><time>2026-03-26T17:09:28Z</time></trkpt><trkpt lat="36.89197224665782" lon="14.995671110129813"><ele>251.00000000000003</ele><time>2026-03-26T17:09:30Z</time></trkpt><trkpt lat="36.892041412270075" lon="14.995702284245404"><ele>251.0</ele><time>2026-03-26T17:09:33Z</time></trkpt><trkpt lat="36.892104807267664" lon="14.995779563947647"><ele>251.0</ele><time>2026-03-26T17:09:35Z</time></trkpt><trkpt lat="36.892172650407055" lon="14.995780652884655"><ele>251.0</ele><time>2026-03-26T17:09:36Z</time></trkpt><trkpt lat="36.89225184544717" lon="14.995804656818908"><ele>251.00000000000003</ele><time>2026-03-26T17:09:37Z</time></trkpt><trkpt lat="36.892326358359085" lon="14.99581389506011"><ele>251.0</ele><time>2026-03-26T17:09:38Z</time></trkpt><trkpt lat="36.8923900075178" lon="14.995832065617407"><ele>250.8</ele><time>2026-03-26T17:09:39Z</time></trkpt><trkpt lat="36.89250797644549" lon="14.995853311921202"><ele>250.60000000000002</ele><time>2026-03-26T17:09:41Z</time></trkpt><trkpt lat="36.89260808422924" lon="14.995865585870291"><ele>250.4</ele><time>2026-03-26T17:09:43Z</time></trkpt><trkpt lat="36.89270031633652" lon="14.995861958503124"><ele>250.2</ele><time>2026-03-26T17:09:45Z</time></trkpt><trkpt lat="36.892786728401305" lon="14.995851551746188"><ele>250.0</ele><time>2026-03-26T17:09:47Z</time></trkpt><trkpt lat="36.89285651761686" lon="14.995868584937984"><ele>250.0</ele><time>2026-03-26T17:09:49Z</time></trkpt><trkpt lat="36.89278041821053" lon="14.995974479133336"><ele>250.0</ele><time>2026-03-26T17:09:53Z</time></trkpt><trkpt lat="36.89272196560193" lon="14.996072289595393"><ele>250.0</ele><time>2026-03-26T17:09:55Z</time></trkpt><trkpt lat="36.89267933166695" lon="14.996134218019156"><ele>250.0</ele><time>2026-03-26T17:09:56Z</time></trkpt><trkpt lat="36.89259413501868" lon="14.996232718494529"><ele>250.0</ele><time>2026-03-26T17:09:58Z</time></trkpt><trkpt lat="36.89251383641976" lon="14.996321492308178"><ele>249.49999999999997</ele><time>2026-03-26T17:10:00Z</time></trkpt><trkpt lat="36.89245920346488" lon="14.996429429117397"><ele>249.0</ele><time>2026-03-26T17:10:02Z</time></trkpt><trkpt lat="36.89246883030242" lon="14.996524178138579"><ele>248.5</ele><time>2026-03-26T17:10:03Z</time></trkpt><trkpt lat="36.892521413510714" lon="14.99659272957626"><ele>248.0</ele><time>2026-03-26T17:10:04Z</time></trkpt><trkpt lat="36.89255968563738" lon="14.996661558070155"><ele>247.49999999999997</ele><time>2026-03-26T17:10:05Z</time></trkpt><trkpt lat="36.89259976414107" lon="14.996735330532571"><ele>247.0</ele><time>2026-03-26T17:10:06Z</time></trkpt><trkpt lat="36.89264401820056" lon="14.99681257764522"><ele>248.2</ele><time>2026-03-26T17:10:07Z</time></trkpt><trkpt lat="36.89269959548282" lon="14.996908016044399"><ele>249.39999999999998</ele><time>2026-03-26T17:10:08Z</time></trkpt><trkpt lat="36.89276242840625" lon="14.997015913472492"><ele>250.60000000000002</ele><time>2026-03-26T17:10:09Z</time></trkpt><trkpt lat="36.892831410517346" lon="14.997134371473253"><ele>251.8</ele><time>2026-03-26T17:10:10Z</time></trkpt><trkpt lat="36.89290481713038" lon="14.997260426405916"><ele>253.0</ele><time>2026-03-26T17:10:11Z</time></trkpt><trkpt lat="36.892978689845684" lon="14.997387281783572"><ele>253.0</ele><time>2026-03-26T17:10:12Z</time></trkpt><trkpt lat="36.89305352213896" lon="14.997515784961253"><ele>253.0</ele><time>2026-03-26T17:10:13Z</time></trkpt><trkpt lat="36.89313041216378" lon="14.997648051967696"><ele>253.0</ele><time>2026-03-26T17:10:14Z</time></trkpt><trkpt lat="36.89320697446494" lon="14.997780809538899"><ele>253.0</ele><time>2026-03-26T17:10:15Z</time></trkpt><trkpt lat="36.89327578639464" lon="14.997900128139328"><ele>253.0</ele><time>2026-03-26T17:10:16Z</time></trkpt><trkpt lat="36.89333367422496" lon="14.998002669011846"><ele>253.0</ele><time>2026-03-26T17:10:17Z</time></trkpt><trkpt lat="36.89338286835267" lon="14.998103107587038"><ele>253.0</ele><time>2026-03-26T17:10:18Z</time></trkpt><trkpt lat="36.89343040037875" lon="14.99821794338108"><ele>253.0</ele><time>2026-03-26T17:10:19Z</time></trkpt><trkpt lat="36.89347669365302" lon="14.998322159746856"><ele>253.0</ele><time>2026-03-26T17:10:20Z</time></trkpt><trkpt lat="36.89352225060048" lon="14.998396172363435"><ele>253.8</ele><time>2026-03-26T17:10:21Z</time></trkpt><trkpt lat="36.89361259805537" lon="14.998479693004457"><ele>254.60000000000002</ele><time>2026-03-26T17:10:23Z</time></trkpt><trkpt lat="36.89370427423193" lon="14.998564530663058"><ele>255.39999999999998</ele><time>2026-03-26T17:10:25Z</time></trkpt><trkpt lat="36.89377673958485" lon="14.998637244476758"><ele>256.2</ele><time>2026-03-26T17:10:26Z</time></trkpt><trkpt lat="36.89385161819412" lon="14.998712379864086"><ele>257.0</ele><time>2026-03-26T17:10:27Z</time></trkpt><trkpt lat="36.8939344330326" lon="14.998795478663572"><ele>257.0</ele><time>2026-03-26T17:10:28Z</time></trkpt><trkpt lat="36.89403123043348" lon="14.998892993033929"><ele>257.0</ele><time>2026-03-26T17:10:29Z</time></trkpt><trkpt lat="36.89413291374295" lon="14.998997333186775"><ele>257.0</ele><time>2026-03-26T17:10:30Z</time></trkpt><trkpt lat="36.89424531081963" lon="14.99911266704256"><ele>257.0</ele><time>2026-03-26T17:10:31Z</time></trkpt><trkpt lat="36.89434390956247" lon="14.99921384207153"><ele>257.4</ele><time>2026-03-26T17:10:32Z</time></trkpt><trkpt lat="36.89442617966928" lon="14.999298261775506"><ele>257.79999999999995</ele><time>2026-03-26T17:10:33Z</time></trkpt><trkpt lat="36.89451271167294" lon="14.999367182759645"><ele>258.2</ele><time>2026-03-26T17:10:34Z</time></trkpt><trkpt lat="36.89459210255183" lon="14.999448825020298"><ele>258.59999999999997</ele><time>2026-03-26T17:10:35Z</time></trkpt><trkpt lat="36.89467671699989" lon="14.999531394492138"><ele>259.0</ele><time>2026-03-26T17:10:36Z</time></trkpt><trkpt lat="36.894741217757385" lon="14.999619735223677"><ele>259.0</ele><time>2026-03-26T17:10:37Z</time></trkpt><trkpt lat="36.89480249456608" lon="14.999686556495117"><ele>259.0</ele><time>2026-03-26T17:10:38Z</time></trkpt><trkpt lat="36.89485945423234" lon="14.999759252413252"><ele>259.0</ele><time>2026-03-26T17:10:39Z</time></trkpt><trkpt lat="36.894921635660914" lon="14.999858503437329"><ele>259.0</ele><time>2026-03-26T17:10:40.999Z</time></trkpt><trkpt lat="36.894970808376435" lon="14.99998587803963"><ele>259.0</ele><time>2026-03-26T17:10:42.999Z</time></trkpt><trkpt lat="36.89501002788233" lon="15.000094005895427"><ele>259.0</ele><time>2026-03-26T17:10:43.999Z</time></trkpt><trkpt lat="36.895039700408816" lon="15.000177754694858"><ele>259.0</ele><time>2026-03-26T17:10:44.999Z</time></trkpt><trkpt lat="36.89509679891584" lon="15.000323260829642"><ele>259.0</ele><time>2026-03-26T17:10:46.999Z</time></trkpt><trkpt lat="36.89512316531117" lon="15.000401149673268"><ele>259.0</ele><time>2026-03-26T17:10:47.999Z</time></trkpt><trkpt lat="36.89516085860479" lon="15.000556069810541"><ele>259.0</ele><time>2026-03-26T17:10:49.999Z</time></trkpt><trkpt lat="36.895168392739144" lon="15.000656854429897"><ele>259.8333333333333</ele><time>2026-03-26T17:10:50.999Z</time></trkpt><trkpt lat="36.89517094140465" lon="15.000766200384481"><ele>260.66666666666663</ele><time>2026-03-26T17:10:51.999Z</time></trkpt><trkpt lat="36.89517206400297" lon="15.000876306129557"><ele>261.5</ele><time>2026-03-26T17:10:52.999Z</time></trkpt><trkpt lat="36.89517318805338" lon="15.000986142037382"><ele>262.3333333333333</ele><time>2026-03-26T17:10:53.999Z</time></trkpt><trkpt lat="36.89518304636722" lon="15.001109495350516"><ele>263.1666666666667</ele><time>2026-03-26T17:10:54.999Z</time></trkpt><trkpt lat="36.895198794068484" lon="15.00121593789109"><ele>264.0</ele><time>2026-03-26T17:10:55.999Z</time></trkpt><trkpt lat="36.89522242574937" lon="15.001311162487987"><ele>264.0</ele><time>2026-03-26T17:10:56.999Z</time></trkpt><trkpt lat="36.89524797409112" lon="15.001418048822448"><ele>264.0</ele><time>2026-03-26T17:10:57.999Z</time></trkpt><trkpt lat="36.89528246651338" lon="15.001544384685229"><ele>264.0</ele><time>2026-03-26T17:10:58.999Z</time></trkpt><trkpt lat="36.895327152485045" lon="15.00167439603277"><ele>264.0</ele><time>2026-03-26T17:10:59.999Z</time></trkpt><trkpt lat="36.89537097797861" lon="15.001780069176279"><ele>264.0</ele><time>2026-03-26T17:11:01Z</time></trkpt><trkpt lat="36.89541758044527" lon="15.001881658027672"><ele>263.4</ele><time>2026-03-26T17:11:02Z</time></trkpt><trkpt lat="36.89547693535157" lon="15.001998162521327"><ele>262.79999999999995</ele><time>2026-03-26T17:11:03Z</time></trkpt><trkpt lat="36.89554036433268" lon="15.002094895866534"><ele>262.20000000000005</ele><time>2026-03-26T17:11:04Z</time></trkpt><trkpt lat="36.895593013736864" lon="15.002166973524561"><ele>261.6</ele><time>2026-03-26T17:11:05Z</time></trkpt><trkpt lat="36.895633138220695" lon="15.002242292343087"><ele>261.0</ele><time>2026-03-26T17:11:06Z</time></trkpt><trkpt lat="36.895698152566005" lon="15.00238588664369"><ele>261.0</ele><time>2026-03-26T17:11:08Z</time></trkpt><trkpt lat="36.89570765414134" lon="15.002470612798914"><ele>261.0</ele><time>2026-03-26T17:11:09Z</time></trkpt><trkpt lat="36.89567787169703" lon="15.002620199325152"><ele>261.0</ele><time>2026-03-26T17:11:11Z</time></trkpt><trkpt lat="36.89563646917481" lon="15.002683877912585"><ele>261.0</ele><time>2026-03-26T17:11:12Z</time></trkpt><trkpt lat="36.895582568810845" lon="15.002727031490402"><ele>261.0</ele><time>2026-03-26T17:11:13Z</time></trkpt><trkpt lat="36.89550672731253" lon="15.002783426951655"><ele>261.0</ele><time>2026-03-26T17:11:14Z</time></trkpt><trkpt lat="36.89542187784255" lon="15.002854535101735"><ele>260.40000000000003</ele><time>2026-03-26T17:11:15Z</time></trkpt><trkpt lat="36.89535350986856" lon="15.00293202346596"><ele>259.8</ele><time>2026-03-26T17:11:16Z</time></trkpt><trkpt lat="36.8953047689919" lon="15.003001232162175"><ele>259.20000000000005</ele><time>2026-03-26T17:11:17Z</time></trkpt><trkpt lat="36.89524563875147" lon="15.003171837652257"><ele>258.6</ele><time>2026-03-26T17:11:19Z</time></trkpt><trkpt lat="36.89526504941829" lon="15.003278339031638"><ele>258.0</ele><time>2026-03-26T17:11:20Z</time></trkpt><trkpt lat="36.89528001932288" lon="15.00339698013994"><ele>256.75</ele><time>2026-03-26T17:11:21Z</time></trkpt><trkpt lat="36.89529850204191" lon="15.003564348799918"><ele>255.5</ele><time>2026-03-26T17:11:22Z</time></trkpt><trkpt lat="36.89531979259895" lon="15.0037500554961"><ele>254.25</ele><time>2026-03-26T17:11:23Z</time></trkpt><trkpt lat="36.89534028590056" lon="15.003917896252037"><ele>253.0</ele><time>2026-03-26T17:11:24Z</time></trkpt><trkpt lat="36.89535438280466" lon="15.004051897489946"><ele>252.16666666666666</ele><time>2026-03-26T17:11:25Z</time></trkpt><trkpt lat="36.895363996122846" lon="15.004168784689908"><ele>251.33333333333331</ele><time>2026-03-26T17:11:26Z</time></trkpt><trkpt lat="36.8953638043578" lon="15.004255982831639"><ele>250.5</ele><time>2026-03-26T17:11:27Z</time></trkpt><trkpt lat="36.89535182442572" lon="15.004335559042394"><ele>249.66666666666669</ele><time>2026-03-26T17:11:28Z</time></trkpt><trkpt lat="36.89532479995872" lon="15.004415932590558"><ele>248.83333333333334</ele><time>2026-03-26T17:11:29Z</time></trkpt><trkpt lat="36.895282638478136" lon="15.00453258370068"><ele>248.0</ele><time>2026-03-26T17:11:30Z</time></trkpt><trkpt lat="36.89524219472235" lon="15.004656196095432"><ele>248.0</ele><time>2026-03-26T17:11:31Z</time></trkpt><trkpt lat="36.89520870114125" lon="15.004764869135451"><ele>248.0</ele><time>2026-03-26T17:11:32Z</time></trkpt><trkpt lat="36.895171585259334" lon="15.00487351988814"><ele>248.0</ele><time>2026-03-26T17:11:33Z</time></trkpt><trkpt lat="36.89512229047415" lon="15.004992185086667"><ele>248.0</ele><time>2026-03-26T17:11:34Z</time></trkpt><trkpt lat="36.895073396353446" lon="15.005103371184173"><ele>248.0</ele><time>2026-03-26T17:11:35Z</time></trkpt><trkpt lat="36.895026374243564" lon="15.005204936712524"><ele>249.4</ele><time>2026-03-26T17:11:36Z</time></trkpt><trkpt lat="36.89498511977026" lon="15.005302816911103"><ele>250.8</ele><time>2026-03-26T17:11:37Z</time></trkpt><trkpt lat="36.89495232159875" lon="15.00540998342331"><ele>252.2</ele><time>2026-03-26T17:11:38Z</time></trkpt><trkpt lat="36.89492836054551" lon="15.00550642217652"><ele>253.6</ele><time>2026-03-26T17:11:39Z</time></trkpt><trkpt lat="36.89490163118121" lon="15.00562898279559"><ele>255.0</ele><time>2026-03-26T17:11:40Z</time></trkpt><trkpt lat="36.894876075456686" lon="15.005748792552366"><ele>254.33333333333334</ele><time>2026-03-26T17:11:41Z</time></trkpt><trkpt lat="36.89485518764305" lon="15.005857310030656"><ele>253.66666666666669</ele><time>2026-03-26T17:11:42Z</time></trkpt><trkpt lat="36.89483961136178" lon="15.00596152252328"><ele>253.0</ele><time>2026-03-26T17:11:43Z</time></trkpt><trkpt lat="36.89482946908562" lon="15.00606381747111"><ele>252.33333333333334</ele><time>2026-03-26T17:11:44Z</time></trkpt><trkpt lat="36.894822618204074" lon="15.00617366962189"><ele>251.66666666666669</ele><time>2026-03-26T17:11:45Z</time></trkpt><trkpt lat="36.894816972212794" lon="15.006275680179117"><ele>251.0</ele><time>2026-03-26T17:11:46Z</time></trkpt><trkpt lat="36.894810603950475" lon="15.006358463342666"><ele>251.0</ele><time>2026-03-26T17:11:47Z</time></trkpt><trkpt lat="36.8947848135961" lon="15.006555793275464"><ele>251.0</ele><time>2026-03-26T17:11:49Z</time></trkpt><trkpt lat="36.89475850482245" lon="15.006713335205072"><ele>251.0</ele><time>2026-03-26T17:11:50Z</time></trkpt><trkpt lat="36.8947349706317" lon="15.006842574070049"><ele>251.0</ele><time>2026-03-26T17:11:51Z</time></trkpt><trkpt lat="36.894711354780085" lon="15.006960960602864"><ele>249.60000000000002</ele><time>2026-03-26T17:11:52Z</time></trkpt><trkpt lat="36.894679368483374" lon="15.007050212014702"><ele>248.20000000000002</ele><time>2026-03-26T17:11:53Z</time></trkpt><trkpt lat="36.8946146468168" lon="15.007163583999427"><ele>246.79999999999998</ele><time>2026-03-26T17:11:54Z</time></trkpt><trkpt lat="36.89453639723611" lon="15.00729375582093"><ele>245.39999999999998</ele><time>2026-03-26T17:11:55Z</time></trkpt><trkpt lat="36.894479690214865" lon="15.007396481403074"><ele>244.0</ele><time>2026-03-26T17:11:56Z</time></trkpt><trkpt lat="36.89442946041343" lon="15.007490160314847"><ele>242.0</ele><time>2026-03-26T17:11:57Z</time></trkpt><trkpt lat="36.89438523110945" lon="15.007587423757306"><ele>239.99999999999997</ele><time>2026-03-26T17:11:58Z</time></trkpt><trkpt lat="36.89435674539602" lon="15.007667706687382"><ele>237.99999999999997</ele><time>2026-03-26T17:11:59Z</time></trkpt><trkpt lat="36.89433923385907" lon="15.007785913074004"><ele>236.0</ele><time>2026-03-26T17:12:01Z</time></trkpt><trkpt lat="36.894355715613486" lon="15.007937511363656"><ele>234.0</ele><time>2026-03-26T17:12:03Z</time></trkpt><trkpt lat="36.89437693018416" lon="15.008047027969335"><ele>234.0</ele><time>2026-03-26T17:12:04Z</time></trkpt><trkpt lat="36.894404161412076" lon="15.008175891209468"><ele>233.99999999999997</ele><time>2026-03-26T17:12:05Z</time></trkpt><trkpt lat="36.89443194438605" lon="15.00829270055601"><ele>233.99999999999997</ele><time>2026-03-26T17:12:06Z</time></trkpt><trkpt lat="36.894457661479805" lon="15.008400821797668"><ele>234.0</ele><time>2026-03-26T17:12:07Z</time></trkpt><trkpt lat="36.89447455250681" lon="15.008523430175213"><ele>234.0</ele><time>2026-03-26T17:12:08Z</time></trkpt><trkpt lat="36.89448401457596" lon="15.008658687358496"><ele>232.0</ele><time>2026-03-26T17:12:09Z</time></trkpt><trkpt lat="36.89448914444666" lon="15.008810053311953"><ele>230.0</ele><time>2026-03-26T17:12:10Z</time></trkpt><trkpt lat="36.89449083029322" lon="15.00896326389309"><ele>228.0</ele><time>2026-03-26T17:12:11Z</time></trkpt><trkpt lat="36.8944903502986" lon="15.009106639859203"><ele>226.0</ele><time>2026-03-26T17:12:12Z</time></trkpt><trkpt lat="36.89448591524683" lon="15.009249749033492"><ele>225.0</ele><time>2026-03-26T17:12:13Z</time></trkpt><trkpt lat="36.894479311673685" lon="15.009388513685035"><ele>224.00000000000003</ele><time>2026-03-26T17:12:14Z</time></trkpt><trkpt lat="36.894470082403565" lon="15.009528492763165"><ele>223.00000000000003</ele><time>2026-03-26T17:12:15Z</time></trkpt><trkpt lat="36.89445564509621" lon="15.009665670728616"><ele>222.0</ele><time>2026-03-26T17:12:16Z</time></trkpt><trkpt lat="36.894434134630764" lon="15.009794622772013"><ele>221.0</ele><time>2026-03-26T17:12:17Z</time></trkpt><trkpt lat="36.894401200467684" lon="15.009921658933818"><ele>219.75</ele><time>2026-03-26T17:12:18Z</time></trkpt><trkpt lat="36.89437300135281" lon="15.010050215718273"><ele>218.5</ele><time>2026-03-26T17:12:19Z</time></trkpt><trkpt lat="36.8943491285408" lon="15.010197889862951"><ele>217.25</ele><time>2026-03-26T17:12:20Z</time></trkpt><trkpt lat="36.89433836810974" lon="15.010368496412609"><ele>216.0</ele><time>2026-03-26T17:12:21Z</time></trkpt><trkpt lat="36.89433480891942" lon="15.010531710121764"><ele>216.0</ele><time>2026-03-26T17:12:22Z</time></trkpt><trkpt lat="36.89433321041332" lon="15.010671541272922"><ele>216.00000000000003</ele><time>2026-03-26T17:12:23Z</time></trkpt><trkpt lat="36.89433252704782" lon="15.010797083501037"><ele>216.00000000000003</ele><time>2026-03-26T17:12:24Z</time></trkpt><trkpt lat="36.89433210959191" lon="15.010914965924574"><ele>216.0</ele><time>2026-03-26T17:12:25Z</time></trkpt><trkpt lat="36.89433253282036" lon="15.011022812257965"><ele>216.0</ele><time>2026-03-26T17:12:26Z</time></trkpt><trkpt lat="36.89433295631092" lon="15.01113072562797"><ele>215.0</ele><time>2026-03-26T17:12:27Z</time></trkpt><trkpt lat="36.89433658387393" lon="15.011252944427522"><ele>214.00000000000003</ele><time>2026-03-26T17:12:28Z</time></trkpt><trkpt lat="36.894341396887896" lon="15.011360765997946"><ele>213.0</ele><time>2026-03-26T17:12:29Z</time></trkpt><trkpt lat="36.8943433481883" lon="15.011454921609614"><ele>212.0</ele><time>2026-03-26T17:12:30Z</time></trkpt><trkpt lat="36.89434302067059" lon="15.011540028786857"><ele>211.0</ele><time>2026-03-26T17:12:31Z</time></trkpt><trkpt lat="36.89431657851621" lon="15.011696038031612"><ele>213.0</ele><time>2026-03-26T17:12:33Z</time></trkpt><trkpt lat="36.89421328777662" lon="15.011771978828632"><ele>215.0</ele><time>2026-03-26T17:12:35Z</time></trkpt><trkpt lat="36.89414171451697" lon="15.011818408595618"><ele>217.00000000000003</ele><time>2026-03-26T17:12:36Z</time></trkpt><trkpt lat="36.89406406708839" lon="15.01186448304586"><ele>219.0</ele><time>2026-03-26T17:12:37Z</time></trkpt><trkpt lat="36.89398563908382" lon="15.011911020537502"><ele>221.0</ele><time>2026-03-26T17:12:38Z</time></trkpt><trkpt lat="36.89391042979532" lon="15.011955648134382"><ele>221.00000000000003</ele><time>2026-03-26T17:12:39Z</time></trkpt><trkpt lat="36.893831122869706" lon="15.012003183419797"><ele>221.0</ele><time>2026-03-26T17:12:40Z</time></trkpt><trkpt lat="36.89375690664086" lon="15.012047870857996"><ele>221.0</ele><time>2026-03-26T17:12:41Z</time></trkpt><trkpt lat="36.89368902654771" lon="15.012088743229523"><ele>221.0</ele><time>2026-03-26T17:12:42Z</time></trkpt><trkpt lat="36.89362402334868" lon="15.012127883224998"><ele>221.00000000000003</ele><time>2026-03-26T17:12:43Z</time></trkpt><trkpt lat="36.893566176275776" lon="15.012162714398738"><ele>221.0</ele><time>2026-03-26T17:12:44Z</time></trkpt><trkpt lat="36.89346929689175" lon="15.012221046334696"><ele>220.60000000000002</ele><time>2026-03-26T17:12:46Z</time></trkpt><trkpt lat="36.893396848393266" lon="15.012264484780616"><ele>220.20000000000002</ele><time>2026-03-26T17:13:55Z</time></trkpt><trkpt lat="36.89331869598401" lon="15.012311412591666"><ele>219.79999999999998</ele><time>2026-03-26T17:13:56Z</time></trkpt><trkpt lat="36.893226179017326" lon="15.012369845903528"><ele>219.39999999999998</ele><time>2026-03-26T17:13:57Z</time></trkpt><trkpt lat="36.89312421027292" lon="15.012435381902874"><ele>219.0</ele><time>2026-03-26T17:13:58Z</time></trkpt><trkpt lat="36.89301626874248" lon="15.012497695940969"><ele>217.0</ele><time>2026-03-26T17:13:59Z</time></trkpt><trkpt lat="36.89290394786627" lon="15.01251551648047"><ele>215.0</ele><time>2026-03-26T17:14:00Z</time></trkpt><trkpt lat="36.892779501064666" lon="15.012562250692076"><ele>213.0</ele><time>2026-03-26T17:14:01Z</time></trkpt><trkpt lat="36.892662501583644" lon="15.01263629009927"><ele>211.0</ele><time>2026-03-26T17:14:02Z</time></trkpt><trkpt lat="36.89254991054741" lon="15.012708382189327"><ele>210.25</ele><time>2026-03-26T17:14:03Z</time></trkpt><trkpt lat="36.89244737913695" lon="15.01277044513054"><ele>209.5</ele><time>2026-03-26T17:14:04Z</time></trkpt><trkpt lat="36.89234990877194" lon="15.01282288168259"><ele>208.75</ele><time>2026-03-26T17:14:05Z</time></trkpt><trkpt lat="36.89224885239012" lon="15.012874235295493"><ele>208.0</ele><time>2026-03-26T17:14:06Z</time></trkpt><trkpt lat="36.892128159229316" lon="15.01293235614234"><ele>208.0</ele><time>2026-03-26T17:14:07Z</time></trkpt><trkpt lat="36.89200313276175" lon="15.012988660985021"><ele>208.0</ele><time>2026-03-26T17:14:08Z</time></trkpt><trkpt lat="36.89188762429406" lon="15.013038693634368"><ele>208.0</ele><time>2026-03-26T17:14:09Z</time></trkpt><trkpt lat="36.89177711456702" lon="15.013086561067311"><ele>208.0</ele><time>2026-03-26T17:14:10Z</time></trkpt><trkpt lat="36.89166147186238" lon="15.013136651869416"><ele>207.5</ele><time>2026-03-26T17:14:11Z</time></trkpt><trkpt lat="36.89154999907735" lon="15.013186577055412"><ele>207.0</ele><time>2026-03-26T17:14:12Z</time></trkpt><trkpt lat="36.89143955221287" lon="15.013237192941896"><ele>206.5</ele><time>2026-03-26T17:14:13Z</time></trkpt><trkpt lat="36.8913296337825" lon="15.013290121004552"><ele>206.0</ele><time>2026-03-26T17:14:14Z</time></trkpt><trkpt lat="36.89122623042797" lon="15.013348938500867"><ele>205.0</ele><time>2026-03-26T17:14:15Z</time></trkpt><trkpt lat="36.891128400796376" lon="15.01341740785058"><ele>204.0</ele><time>2026-03-26T17:14:16Z</time></trkpt><trkpt lat="36.89104024394151" lon="15.013486755892716"><ele>203.0</ele><time>2026-03-26T17:14:17Z</time></trkpt><trkpt lat="36.8909587136071" lon="15.013558585336439"><ele>202.0</ele><time>2026-03-26T17:14:18Z</time></trkpt><trkpt lat="36.89088354270285" lon="15.01363426469876"><ele>201.0</ele><time>2026-03-26T17:14:19Z</time></trkpt><trkpt lat="36.89081767309581" lon="15.013728740064511"><ele>200.0</ele><time>2026-03-26T17:14:20Z</time></trkpt><trkpt lat="36.89076354892285" lon="15.01381960137089"><ele>199.0</ele><time>2026-03-26T17:14:21Z</time></trkpt><trkpt lat="36.89070942562097" lon="15.013911235871614"><ele>198.0</ele><time>2026-03-26T17:14:22Z</time></trkpt><trkpt lat="36.89064594479576" lon="15.014013211210356"><ele>197.0</ele><time>2026-03-26T17:14:23Z</time></trkpt><trkpt lat="36.890572724916574" lon="15.01411023975156"><ele>196.0</ele><time>2026-03-26T17:14:24Z</time></trkpt><trkpt lat="36.89047379260783" lon="15.014220993992407"><ele>195.5</ele><time>2026-03-26T17:14:25Z</time></trkpt><trkpt lat="36.89037277028759" lon="15.014325054031005"><ele>195.0</ele><time>2026-03-26T17:14:26Z</time></trkpt><trkpt lat="36.89027843424789" lon="15.014420499178648"><ele>194.5</ele><time>2026-03-26T17:14:27Z</time></trkpt><trkpt lat="36.890185719723256" lon="15.014510802552692"><ele>194.0</ele><time>2026-03-26T17:14:28Z</time></trkpt><trkpt lat="36.89009528202218" lon="15.01459929923374"><ele>193.39999999999998</ele><time>2026-03-26T17:14:29Z</time></trkpt><trkpt lat="36.89001054372139" lon="15.01468619653248"><ele>192.8</ele><time>2026-03-26T17:14:30Z</time></trkpt><trkpt lat="36.88992639845171" lon="15.014772485651202"><ele>192.2</ele><time>2026-03-26T17:14:31Z</time></trkpt><trkpt lat="36.889840346029345" lon="15.014851776421864"><ele>191.60000000000002</ele><time>2026-03-26T17:14:32Z</time></trkpt><trkpt lat="36.889744613845934" lon="15.014923571323065"><ele>191.0</ele><time>2026-03-26T17:14:33Z</time></trkpt><trkpt lat="36.88963594226478" lon="15.014997740982512"><ele>188.75</ele><time>2026-03-26T17:14:34Z</time></trkpt><trkpt lat="36.88952911384442" lon="15.015068653646626"><ele>186.5</ele><time>2026-03-26T17:14:35Z</time></trkpt><trkpt lat="36.88942348101549" lon="15.015145552106945"><ele>184.25</ele><time>2026-03-26T17:14:36Z</time></trkpt><trkpt lat="36.889327692611175" lon="15.015230965266005"><ele>182.0</ele><time>2026-03-26T17:14:37Z</time></trkpt><trkpt lat="36.88923645776059" lon="15.01533195632071"><ele>181.5</ele><time>2026-03-26T17:14:38Z</time></trkpt><trkpt lat="36.889143746820565" lon="15.015437819647001"><ele>181.0</ele><time>2026-03-26T17:14:39Z</time></trkpt><trkpt lat="36.88904546488045" lon="15.01555179617434"><ele>180.5</ele><time>2026-03-26T17:14:40Z</time></trkpt><trkpt lat="36.88894500225591" lon="15.015671173809256"><ele>180.0</ele><time>2026-03-26T17:14:41Z</time></trkpt><trkpt lat="36.88884968996278" lon="15.015785031571017"><ele>177.75</ele><time>2026-03-26T17:14:42Z</time></trkpt><trkpt lat="36.88876030306286" lon="15.015894478806805"><ele>175.5</ele><time>2026-03-26T17:14:43Z</time></trkpt><trkpt lat="36.88867156947036" lon="15.016003125217429"><ele>173.25</ele><time>2026-03-26T17:14:44Z</time></trkpt><trkpt lat="36.88858991006421" lon="15.016099015835971"><ele>171.0</ele><time>2026-03-26T17:14:45Z</time></trkpt><trkpt lat="36.888515529030585" lon="15.016181914927442"><ele>171.0</ele><time>2026-03-26T17:14:46Z</time></trkpt><trkpt lat="36.888456479249214" lon="15.016233177279817"><ele>171.0</ele><time>2026-03-26T17:14:47Z</time></trkpt><trkpt lat="36.88839129172401" lon="15.016279532228557"><ele>171.0</ele><time>2026-03-26T17:14:48Z</time></trkpt><trkpt lat="36.88832991705065" lon="15.016306285632666"><ele>171.0</ele><time>2026-03-26T17:14:49Z</time></trkpt><trkpt lat="36.88820419422447" lon="15.016296385571946"><ele>171.0</ele><time>2026-03-26T17:14:51Z</time></trkpt><trkpt lat="36.8881244690935" lon="15.016251383108736"><ele>171.0</ele><time>2026-03-26T17:14:52Z</time></trkpt><trkpt lat="36.888040374903944" lon="15.016231134147857"><ele>170.5</ele><time>2026-03-26T17:14:52.999Z</time></trkpt><trkpt lat="36.887965784666456" lon="15.016202796452434"><ele>170.0</ele><time>2026-03-26T17:14:53.999Z</time></trkpt><trkpt lat="36.88788244989077" lon="15.016212950820444"><ele>169.5</ele><time>2026-03-26T17:14:54.999Z</time></trkpt><trkpt lat="36.88780047521097" lon="15.016246586989203"><ele>169.0</ele><time>2026-03-26T17:14:55.999Z</time></trkpt><trkpt lat="36.88773126872018" lon="15.01629829824915"><ele>168.5</ele><time>2026-03-26T17:14:56.999Z</time></trkpt><trkpt lat="36.88767594305029" lon="15.016368899862625"><ele>168.0</ele><time>2026-03-26T17:14:57.999Z</time></trkpt><trkpt lat="36.88760355200255" lon="15.01644702378596"><ele>167.4</ele><time>2026-03-26T17:14:59.999Z</time></trkpt><trkpt lat="36.88758586481019" lon="15.016629549789496"><ele>166.8</ele><time>2026-03-26T17:15:16Z</time></trkpt><trkpt lat="36.88758360076626" lon="15.01676153743262"><ele>166.2</ele><time>2026-03-26T17:15:18Z</time></trkpt><trkpt lat="36.88759066647502" lon="15.016878085694085"><ele>165.6</ele><time>2026-03-26T17:15:20Z</time></trkpt><trkpt lat="36.88759826405604" lon="15.016963035098888"><ele>165.0</ele><time>2026-03-26T17:15:32Z</time></trkpt><trkpt lat="36.8876003003438" lon="15.01707800887837"><ele>163.8</ele><time>2026-03-26T17:15:34Z</time></trkpt><trkpt lat="36.88754840973551" lon="15.017137477193574"><ele>162.6</ele><time>2026-03-26T17:15:36Z</time></trkpt><trkpt lat="36.88748333395314" lon="15.017205669481452"><ele>161.4</ele><time>2026-03-26T17:15:37Z</time></trkpt><trkpt lat="36.88740587475706" lon="15.017294493439438"><ele>160.2</ele><time>2026-03-26T17:15:38Z</time></trkpt><trkpt lat="36.88732794891491" lon="15.017381276769616"><ele>159.0</ele><time>2026-03-26T17:15:39Z</time></trkpt><trkpt lat="36.887248383079225" lon="15.0174677119023"><ele>159.0</ele><time>2026-03-26T17:15:40Z</time></trkpt><trkpt lat="36.887168495742536" lon="15.017550651484338"><ele>159.0</ele><time>2026-03-26T17:15:41Z</time></trkpt><trkpt lat="36.88709724498237" lon="15.017624624546116"><ele>159.0</ele><time>2026-03-26T17:15:42Z</time></trkpt><trkpt lat="36.88701296852446" lon="15.017720775293524"><ele>159.0</ele><time>2026-03-26T17:15:43Z</time></trkpt><trkpt lat="36.88693653393252" lon="15.017829417256136"><ele>159.0</ele><time>2026-03-26T17:15:44Z</time></trkpt><trkpt lat="36.886859239568224" lon="15.017956407523794"><ele>159.0</ele><time>2026-03-26T17:15:45Z</time></trkpt><trkpt lat="36.88677291406355" lon="15.01810225027482"><ele>159.0</ele><time>2026-03-26T17:15:46Z</time></trkpt><trkpt lat="36.88668062678348" lon="15.018245933639838"><ele>159.0</ele><time>2026-03-26T17:15:47Z</time></trkpt><trkpt lat="36.88660129023425" lon="15.01837889583"><ele>159.0</ele><time>2026-03-26T17:15:48Z</time></trkpt><trkpt lat="36.88652961014002" lon="15.01853417818354"><ele>159.0</ele><time>2026-03-26T17:15:49Z</time></trkpt><trkpt lat="36.88646557522005" lon="15.018684588192341"><ele>159.0</ele><time>2026-03-26T17:15:50Z</time></trkpt><trkpt lat="36.886399321843435" lon="15.018857863733274"><ele>159.0</ele><time>2026-03-26T17:15:51Z</time></trkpt><trkpt lat="36.88634056944213" lon="15.019019108299727"><ele>159.0</ele><time>2026-03-26T17:15:52Z</time></trkpt><trkpt lat="36.88629346109011" lon="15.019144606056702"><ele>160.6</ele><time>2026-03-26T17:15:53Z</time></trkpt><trkpt lat="36.886251111873044" lon="15.019247371569348"><ele>162.2</ele><time>2026-03-26T17:15:54Z</time></trkpt><trkpt lat="36.8862140054806" lon="15.019337414859365"><ele>163.79999999999998</ele><time>2026-03-26T17:15:55Z</time></trkpt><trkpt lat="36.88617739498603" lon="15.019479441438392"><ele>165.4</ele><time>2026-03-26T17:15:57Z</time></trkpt><trkpt lat="36.88628304055792" lon="15.01961657649504"><ele>167.0</ele><time>2026-03-26T17:15:59Z</time></trkpt><trkpt lat="36.88633017562611" lon="15.019726302861939"><ele>167.0</ele><time>2026-03-26T17:16:00Z</time></trkpt><trkpt lat="36.886406583694544" lon="15.019853431016276"><ele>167.0</ele><time>2026-03-26T17:16:01Z</time></trkpt><trkpt lat="36.88647596659488" lon="15.01997979309943"><ele>167.0</ele><time>2026-03-26T17:16:02Z</time></trkpt><trkpt lat="36.886512641002504" lon="15.02006760924062"><ele>167.0</ele><time>2026-03-26T17:16:03Z</time></trkpt><trkpt lat="36.886516517690964" lon="15.020195892686342"><ele>167.0</ele><time>2026-03-26T17:16:05Z</time></trkpt><trkpt lat="36.88647364990341" lon="15.020285712088913"><ele>167.8</ele><time>2026-03-26T17:16:07Z</time></trkpt><trkpt lat="36.88636987080383" lon="15.020318280175726"><ele>168.6</ele><time>2026-03-26T17:16:09Z</time></trkpt><trkpt lat="36.886265153101185" lon="15.02034804835368"><ele>169.4</ele><time>2026-03-26T17:16:10Z</time></trkpt><trkpt lat="36.88616776715687" lon="15.020405918758703"><ele>170.20000000000002</ele><time>2026-03-26T17:16:11Z</time></trkpt><trkpt lat="36.886088270906754" lon="15.020472282230305"><ele>171.0</ele><time>2026-03-26T17:16:12Z</time></trkpt><trkpt lat="36.88602456333444" lon="15.020556014880903"><ele>171.0</ele><time>2026-03-26T17:16:14Z</time></trkpt><trkpt lat="36.88600481003464" lon="15.020636297551443"><ele>171.0</ele><time>2026-03-26T17:16:15Z</time></trkpt><trkpt lat="36.885978601973214" lon="15.020755311004704"><ele>171.0</ele><time>2026-03-26T17:16:16Z</time></trkpt><trkpt lat="36.88593421017519" lon="15.020870385907232"><ele>171.0</ele><time>2026-03-26T17:16:17Z</time></trkpt><trkpt lat="36.88588375808945" lon="15.0209991260885"><ele>171.0</ele><time>2026-03-26T17:16:18Z</time></trkpt><trkpt lat="36.88583252265979" lon="15.021118984767087"><ele>171.0</ele><time>2026-03-26T17:16:19Z</time></trkpt><trkpt lat="36.88576696225486" lon="15.02126282483554"><ele>171.0</ele><time>2026-03-26T17:16:20Z</time></trkpt><trkpt lat="36.88569243359242" lon="15.021429410436566"><ele>171.0</ele><time>2026-03-26T17:16:21Z</time></trkpt><trkpt lat="36.88562331828808" lon="15.021609896814553"><ele>171.0</ele><time>2026-03-26T17:16:22Z</time></trkpt><trkpt lat="36.88556125043014" lon="15.021777495328108"><ele>173.5</ele><time>2026-03-26T17:16:23Z</time></trkpt><trkpt lat="36.885508259178835" lon="15.021906591807259"><ele>176.0</ele><time>2026-03-26T17:16:24Z</time></trkpt><trkpt lat="36.8854453081511" lon="15.022044294236867"><ele>178.5</ele><time>2026-03-26T17:16:25Z</time></trkpt><trkpt lat="36.88537852514134" lon="15.022183442007583"><ele>181.0</ele><time>2026-03-26T17:16:26Z</time></trkpt><trkpt lat="36.88531335159175" lon="15.022318892613676"><ele>181.0</ele><time>2026-03-26T17:16:27Z</time></trkpt><trkpt lat="36.88523370455781" lon="15.022477494646377"><ele>181.0</ele><time>2026-03-26T17:16:28Z</time></trkpt><trkpt lat="36.88516802829514" lon="15.02261215984162"><ele>181.0</ele><time>2026-03-26T17:16:29Z</time></trkpt><trkpt lat="36.8851150691876" lon="15.022741919489192"><ele>181.0</ele><time>2026-03-26T17:16:30Z</time></trkpt><trkpt lat="36.88507090157946" lon="15.022859302908888"><ele>180.8</ele><time>2026-03-26T17:16:31Z</time></trkpt><trkpt lat="36.885038198669015" lon="15.022973275531285"><ele>180.60000000000002</ele><time>2026-03-26T17:16:32Z</time></trkpt><trkpt lat="36.88502103885575" lon="15.023070752054318"><ele>180.4</ele><time>2026-03-26T17:16:33Z</time></trkpt><trkpt lat="36.88502307689672" lon="15.023179662646312"><ele>180.2</ele><time>2026-03-26T17:16:34Z</time></trkpt><trkpt lat="36.88503130956125" lon="15.023300378493198"><ele>180.0</ele><time>2026-03-26T17:16:35Z</time></trkpt><trkpt lat="36.885046217167115" lon="15.023438359253948"><ele>180.0</ele><time>2026-03-26T17:16:36Z</time></trkpt><trkpt lat="36.8850582061547" lon="15.023553800087608"><ele>180.0</ele><time>2026-03-26T17:16:37Z</time></trkpt><trkpt lat="36.88505713013249" lon="15.023640568131118"><ele>180.0</ele><time>2026-03-26T17:16:38Z</time></trkpt><trkpt lat="36.885018769700274" lon="15.023744223869198"><ele>180.0</ele><time>2026-03-26T17:16:40Z</time></trkpt><trkpt lat="36.88491426474684" lon="15.02385511029616"><ele>180.0</ele><time>2026-03-26T17:16:42Z</time></trkpt><trkpt lat="36.88487075077691" lon="15.023924545290102"><ele>180.0</ele><time>2026-03-26T17:16:43Z</time></trkpt><trkpt lat="36.88485417055064" lon="15.024047236498742"><ele>180.0</ele><time>2026-03-26T17:16:44Z</time></trkpt><trkpt lat="36.88483173998638" lon="15.024171818633352"><ele>180.0</ele><time>2026-03-26T17:16:45Z</time></trkpt><trkpt lat="36.88481190552369" lon="15.02435693150505"><ele>180.0</ele><time>2026-03-26T17:16:46Z</time></trkpt><trkpt lat="36.88479067615094" lon="15.024570047173603"><ele>180.0</ele><time>2026-03-26T17:16:47Z</time></trkpt><trkpt lat="36.88477332031875" lon="15.024780483815537"><ele>180.0</ele><time>2026-03-26T17:16:48Z</time></trkpt><trkpt lat="36.884758205279695" lon="15.024968801781856"><ele>180.0</ele><time>2026-03-26T17:16:49Z</time></trkpt><trkpt lat="36.88475114242434" lon="15.025127486254348"><ele>180.0</ele><time>2026-03-26T17:16:50Z</time></trkpt><trkpt lat="36.88475346329846" lon="15.025259623448928"><ele>179.4</ele><time>2026-03-26T17:16:51Z</time></trkpt><trkpt lat="36.88476061098349" lon="15.025396476875397"><ele>178.8</ele><time>2026-03-26T17:16:52Z</time></trkpt><trkpt lat="36.884775645909784" lon="15.025543487788607"><ele>178.2</ele><time>2026-03-26T17:16:53Z</time></trkpt><trkpt lat="36.88479686540893" lon="15.02566992756632"><ele>177.6</ele><time>2026-03-26T17:16:54Z</time></trkpt><trkpt lat="36.8848322591013" lon="15.025796325881094"><ele>177.0</ele><time>2026-03-26T17:16:55Z</time></trkpt><trkpt lat="36.884904046568884" lon="15.025943312630375"><ele>176.5</ele><time>2026-03-26T17:16:56Z</time></trkpt><trkpt lat="36.88498250797331" lon="15.026107114757403"><ele>176.0</ele><time>2026-03-26T17:16:57Z</time></trkpt><trkpt lat="36.88505827644526" lon="15.02625747333536"><ele>175.5</ele><time>2026-03-26T17:16:58Z</time></trkpt><trkpt lat="36.88511460294228" lon="15.026374413777807"><ele>175.0</ele><time>2026-03-26T17:16:59Z</time></trkpt><trkpt lat="36.88514681626705" lon="15.026471408272368"><ele>175.8</ele><time>2026-03-26T17:16:59.999Z</time></trkpt><trkpt lat="36.88517154820544" lon="15.026578719040137"><ele>176.6</ele><time>2026-03-26T17:17:00.999Z</time></trkpt><trkpt lat="36.88514669023174" lon="15.026680879259551"><ele>177.39999999999998</ele><time>2026-03-26T17:17:01.999Z</time></trkpt><trkpt lat="36.88511932776777" lon="15.026823953241829"><ele>178.2</ele><time>2026-03-26T17:17:02.999Z</time></trkpt><trkpt lat="36.88511056819635" lon="15.026950363666751"><ele>179.0</ele><time>2026-03-26T17:17:03.999Z</time></trkpt><trkpt lat="36.88511441605866" lon="15.027058887837871"><ele>179.0</ele><time>2026-03-26T17:17:04.999Z</time></trkpt><trkpt lat="36.885134198834415" lon="15.027164272844738"><ele>179.0</ele><time>2026-03-26T17:17:05.999Z</time></trkpt><trkpt lat="36.885194529592134" lon="15.027280551898704"><ele>179.0</ele><time>2026-03-26T17:17:06.999Z</time></trkpt><trkpt lat="36.88524125969993" lon="15.027389392973266"><ele>179.0</ele><time>2026-03-26T17:17:07.999Z</time></trkpt><trkpt lat="36.885230092956554" lon="15.027470438708118"><ele>179.0</ele><time>2026-03-26T17:17:08.999Z</time></trkpt><trkpt lat="36.88513618047099" lon="15.027579544460664"><ele>178.0</ele><time>2026-03-26T17:17:10.999Z</time></trkpt><trkpt lat="36.8850488407092" lon="15.027680271867867"><ele>177.0</ele><time>2026-03-26T17:17:11.999Z</time></trkpt><trkpt lat="36.884940185113656" lon="15.027794181530327"><ele>176.0</ele><time>2026-03-26T17:17:12.999Z</time></trkpt><trkpt lat="36.88481318435885" lon="15.027920956962179"><ele>175.0</ele><time>2026-03-26T17:17:13.999Z</time></trkpt><trkpt lat="36.884679454980954" lon="15.028050555568134"><ele>175.0</ele><time>2026-03-26T17:17:14.999Z</time></trkpt><trkpt lat="36.88455145144303" lon="15.028170611309745"><ele>175.0</ele><time>2026-03-26T17:17:15.999Z</time></trkpt><trkpt lat="36.884424131665035" lon="15.02828913877622"><ele>175.0</ele><time>2026-03-26T17:17:16.999Z</time></trkpt><trkpt lat="36.88429361291368" lon="15.028413080812198"><ele>174.25</ele><time>2026-03-26T17:17:17.999Z</time></trkpt><trkpt lat="36.88416263114962" lon="15.028546754459855"><ele>173.5</ele><time>2026-03-26T17:17:19Z</time></trkpt><trkpt lat="36.88405434177222" lon="15.028680801376046"><ele>172.75</ele><time>2026-03-26T17:17:20Z</time></trkpt><trkpt lat="36.88396487855073" lon="15.028787305591784"><ele>172.0</ele><time>2026-03-26T17:17:21Z</time></trkpt><trkpt lat="36.88387446336501" lon="15.028868748300006"><ele>172.0</ele><time>2026-03-26T17:17:22Z</time></trkpt><trkpt lat="36.883770089538274" lon="15.028922844516636"><ele>172.0</ele><time>2026-03-26T17:17:23Z</time></trkpt><trkpt lat="36.883687896441984" lon="15.028971749338034"><ele>172.0</ele><time>2026-03-26T17:17:24Z</time></trkpt><trkpt lat="36.88359950082366" lon="15.02904553850802"><ele>172.0</ele><time>2026-03-26T17:17:26Z</time></trkpt><trkpt lat="36.88352839733183" lon="15.02909845086924"><ele>172.0</ele><time>2026-03-26T17:17:28Z</time></trkpt><trkpt lat="36.88351660702806" lon="15.02918085977537"><ele>172.33333333333334</ele><time>2026-03-26T17:17:29Z</time></trkpt><trkpt lat="36.88351843060833" lon="15.029288734946261"><ele>172.66666666666669</ele><time>2026-03-26T17:17:31Z</time></trkpt><trkpt lat="36.88352380818065" lon="15.029380425346352"><ele>173.0</ele><time>2026-03-26T17:17:32Z</time></trkpt><trkpt lat="36.88352832620122" lon="15.02946692849001"><ele>173.33333333333334</ele><time>2026-03-26T17:17:33Z</time></trkpt><trkpt lat="36.8835310271767" lon="15.029547132096454"><ele>173.66666666666666</ele><time>2026-03-26T17:17:34Z</time></trkpt><trkpt lat="36.883532143000906" lon="15.02962671064443"><ele>174.0</ele><time>2026-03-26T17:17:35Z</time></trkpt><trkpt lat="36.88353175874179" lon="15.029763018561196"><ele>174.0</ele><time>2026-03-26T17:17:37Z</time></trkpt><trkpt lat="36.88352839304115" lon="15.02984296137619"><ele>174.0</ele><time>2026-03-26T17:17:38Z</time></trkpt><trkpt lat="36.88352282054336" lon="15.02992709383253"><ele>174.0</ele><time>2026-03-26T17:17:39Z</time></trkpt><trkpt lat="36.883517314722525" lon="15.030010662801988"><ele>174.0</ele><time>2026-03-26T17:17:40Z</time></trkpt><trkpt lat="36.88350998002065" lon="15.030135482494272"><ele>174.0</ele><time>2026-03-26T17:17:41Z</time></trkpt><trkpt lat="36.88350009427583" lon="15.030309355356879"><ele>174.0</ele><time>2026-03-26T17:17:42Z</time></trkpt><trkpt lat="36.883491974999004" lon="15.03045215878202"><ele>173.6</ele><time>2026-03-26T17:17:43Z</time></trkpt><trkpt lat="36.883485150602986" lon="15.030588899888006"><ele>173.2</ele><time>2026-03-26T17:17:44Z</time></trkpt><trkpt lat="36.88348073499708" lon="15.03071559378662"><ele>172.79999999999998</ele><time>2026-03-26T17:17:45Z</time></trkpt><trkpt lat="36.88347890550234" lon="15.0308467008179"><ele>172.39999999999998</ele><time>2026-03-26T17:17:46Z</time></trkpt><trkpt lat="36.88348502917891" lon="15.030978930010649"><ele>172.0</ele><time>2026-03-26T17:17:47Z</time></trkpt><trkpt lat="36.88350483964478" lon="15.031128580337477"><ele>171.25</ele><time>2026-03-26T17:17:48Z</time></trkpt><trkpt lat="36.883548354423674" lon="15.031299319274897"><ele>170.5</ele><time>2026-03-26T17:17:49Z</time></trkpt><trkpt lat="36.88359357201206" lon="15.03144908043738"><ele>169.75</ele><time>2026-03-26T17:17:50Z</time></trkpt><trkpt lat="36.88362987965419" lon="15.031595540934399"><ele>169.0</ele><time>2026-03-26T17:17:51Z</time></trkpt><trkpt lat="36.883658242079804" lon="15.03173640159685"><ele>168.39999999999998</ele><time>2026-03-26T17:17:52Z</time></trkpt><trkpt lat="36.883679278238226" lon="15.031851239718616"><ele>167.8</ele><time>2026-03-26T17:17:53Z</time></trkpt><trkpt lat="36.88366316372419" lon="15.031956767812428"><ele>167.2</ele><time>2026-03-26T17:17:54Z</time></trkpt><trkpt lat="36.88362371629176" lon="15.032086614550646"><ele>166.60000000000002</ele><time>2026-03-26T17:17:55Z</time></trkpt><trkpt lat="36.88356798010202" lon="15.032260749267259"><ele>166.0</ele><time>2026-03-26T17:17:56Z</time></trkpt><trkpt lat="36.88351030553828" lon="15.032456879487635"><ele>165.66666666666669</ele><time>2026-03-26T17:17:57Z</time></trkpt><trkpt lat="36.883461408161665" lon="15.03263373769968"><ele>165.33333333333334</ele><time>2026-03-26T17:17:58Z</time></trkpt><trkpt lat="36.883412466351686" lon="15.032822551945547"><ele>165.0</ele><time>2026-03-26T17:17:59Z</time></trkpt><trkpt lat="36.88336150143389" lon="15.033019102169868"><ele>165.0</ele><time>2026-03-26T17:18:00Z</time></trkpt><trkpt lat="36.88331050576303" lon="15.033215785041934"><ele>165.0</ele><time>2026-03-26T17:18:01Z</time></trkpt><trkpt lat="36.883262566158" lon="15.033396213182202"><ele>165.0</ele><time>2026-03-26T17:18:02Z</time></trkpt><trkpt lat="36.883219448302576" lon="15.033558493656697"><ele>164.6</ele><time>2026-03-26T17:18:03Z</time></trkpt><trkpt lat="36.8831840620835" lon="15.033697751510303"><ele>164.2</ele><time>2026-03-26T17:18:04Z</time></trkpt><trkpt lat="36.88315814954473" lon="15.033809712322162"><ele>163.8</ele><time>2026-03-26T17:18:05Z</time></trkpt><trkpt lat="36.88313613423621" lon="15.033908387093359"><ele>163.4</ele><time>2026-03-26T17:18:06Z</time></trkpt><trkpt lat="36.883112587298726" lon="15.034013929853232"><ele>163.0</ele><time>2026-03-26T17:18:08Z</time></trkpt><trkpt lat="36.88309308961412" lon="15.034097973349093"><ele>163.0</ele><time>2026-03-26T17:18:20Z</time></trkpt><trkpt lat="36.88311314177391" lon="15.034009818762994"><ele>163.0</ele><time>2026-03-26T17:18:25Z</time></trkpt><trkpt lat="36.88332723052746" lon="15.033912242799023"><ele>163.0</ele><time>2026-03-26T17:18:27Z</time></trkpt><trkpt lat="36.88344182026179" lon="15.033897115312882"><ele>163.0</ele><time>2026-03-26T17:18:28Z</time></trkpt><trkpt lat="36.88359362808104" lon="15.033878081004012"><ele>163.33333333333334</ele><time>2026-03-26T17:18:29Z</time></trkpt><trkpt lat="36.883751908018134" lon="15.03385627730026"><ele>163.66666666666666</ele><time>2026-03-26T17:18:30Z</time></trkpt><trkpt lat="36.88393474944242" lon="15.03382357381111"><ele>164.0</ele><time>2026-03-26T17:18:31Z</time></trkpt><trkpt lat="36.884130119307656" lon="15.033776168410393"><ele>164.66666666666666</ele><time>2026-03-26T17:18:32Z</time></trkpt><trkpt lat="36.88430523815771" lon="15.033730530496731"><ele>165.33333333333334</ele><time>2026-03-26T17:18:33Z</time></trkpt><trkpt lat="36.88446968450486" lon="15.033704896589233"><ele>166.0</ele><time>2026-03-26T17:18:34Z</time></trkpt><trkpt lat="36.88463250242019" lon="15.033686731320044"><ele>166.0</ele><time>2026-03-26T17:18:35Z</time></trkpt><trkpt lat="36.88479400734655" lon="15.033664635037624"><ele>166.0</ele><time>2026-03-26T17:18:36Z</time></trkpt><trkpt lat="36.88494722949358" lon="15.0336410641175"><ele>166.0</ele><time>2026-03-26T17:18:37Z</time></trkpt><trkpt lat="36.885079029293976" lon="15.033632150160438"><ele>166.0</ele><time>2026-03-26T17:18:38Z</time></trkpt><trkpt lat="36.88519385227026" lon="15.033615577580896"><ele>166.5</ele><time>2026-03-26T17:18:39Z</time></trkpt><trkpt lat="36.88533298387311" lon="15.033588257427521"><ele>167.0</ele><time>2026-03-26T17:18:40Z</time></trkpt><trkpt lat="36.88548416410718" lon="15.033562823737869"><ele>167.5</ele><time>2026-03-26T17:18:41Z</time></trkpt><trkpt lat="36.885617873383595" lon="15.03354401490724"><ele>168.0</ele><time>2026-03-26T17:18:42Z</time></trkpt><trkpt lat="36.88575272613093" lon="15.03352388701835"><ele>168.0</ele><time>2026-03-26T17:18:43Z</time></trkpt><trkpt lat="36.88589437976249" lon="15.033495783450116"><ele>168.0</ele><time>2026-03-26T17:18:44Z</time></trkpt><trkpt lat="36.88601736707201" lon="15.033465678839713"><ele>168.0</ele><time>2026-03-26T17:18:45Z</time></trkpt><trkpt lat="36.886123945021836" lon="15.03344321622003"><ele>168.0</ele><time>2026-03-26T17:18:46Z</time></trkpt><trkpt lat="36.886223073511054" lon="15.033427124534017"><ele>167.60000000000002</ele><time>2026-03-26T17:18:47Z</time></trkpt><trkpt lat="36.8863209768168" lon="15.03340635804724"><ele>167.20000000000002</ele><time>2026-03-26T17:18:48Z</time></trkpt><trkpt lat="36.88641640975855" lon="15.033388654563872"><ele>166.8</ele><time>2026-03-26T17:18:49Z</time></trkpt><trkpt lat="36.88650134574475" lon="15.033377624833358"><ele>166.4</ele><time>2026-03-26T17:18:50Z</time></trkpt><trkpt lat="36.88658975582902" lon="15.03337192668067"><ele>166.0</ele><time>2026-03-26T17:18:51Z</time></trkpt><trkpt lat="36.88667658115131" lon="15.033363250466028"><ele>166.0</ele><time>2026-03-26T17:18:52Z</time></trkpt><trkpt lat="36.88675679509062" lon="15.033348317764572"><ele>166.0</ele><time>2026-03-26T17:18:53Z</time></trkpt><trkpt lat="36.8868308119771" lon="15.033338469892636"><ele>166.0</ele><time>2026-03-26T17:18:54Z</time></trkpt><trkpt lat="36.88689650089856" lon="15.033325260865467"><ele>166.0</ele><time>2026-03-26T17:18:55Z</time></trkpt><trkpt lat="36.88698064259224" lon="15.033319820780859"><ele>166.0</ele><time>2026-03-26T17:18:56Z</time></trkpt><trkpt lat="36.887053485689535" lon="15.033305337127418"><ele>166.0</ele><time>2026-03-26T17:18:57Z</time></trkpt><trkpt lat="36.88717236423905" lon="15.033275688030281"><ele>165.83333333333334</ele><time>2026-03-26T17:18:59Z</time></trkpt><trkpt lat="36.88724995549715" lon="15.033258214977067"><ele>165.66666666666669</ele><time>2026-03-26T17:19:00Z</time></trkpt><trkpt lat="36.887336623143774" lon="15.033277286711744"><ele>165.5</ele><time>2026-03-26T17:19:01Z</time></trkpt><trkpt lat="36.88741571082729" lon="15.033282342204044"><ele>165.33333333333334</ele><time>2026-03-26T17:19:02Z</time></trkpt><trkpt lat="36.88749314210122" lon="15.033296261250433"><ele>165.16666666666666</ele><time>2026-03-26T17:19:03Z</time></trkpt><trkpt lat="36.88755847412865" lon="15.033314287993804"><ele>165.0</ele><time>2026-03-26T17:19:03.999Z</time></trkpt><trkpt lat="36.88763850984453" lon="15.033346292243127"><ele>164.0</ele><time>2026-03-26T17:19:05.999Z</time></trkpt><trkpt lat="36.88768998448362" lon="15.033396246222326"><ele>163.0</ele><time>2026-03-26T17:19:07.999Z</time></trkpt><trkpt lat="36.8877600307677" lon="15.033470966677621"><ele>162.0</ele><time>2026-03-26T17:19:09.999Z</time></trkpt><trkpt lat="36.8878412606722" lon="15.033572621284419"><ele>161.0</ele><time>2026-03-26T17:19:11.999Z</time></trkpt><trkpt lat="36.887885796185394" lon="15.033670632703602"><ele>160.0</ele><time>2026-03-26T17:19:13.999Z</time></trkpt><trkpt lat="36.88791448711836" lon="15.03375195747122"><ele>159.0</ele><time>2026-03-26T17:19:16.999Z</time></trkpt><trkpt lat="36.88794893163201" lon="15.033844266176738"><ele>159.0</ele><time>2026-03-26T17:19:20.999Z</time></trkpt><trkpt lat="36.88800863799603" lon="15.033916655470518"><ele>159.0</ele><time>2026-03-26T17:19:26Z</time></trkpt><trkpt lat="36.888062798613966" lon="15.033973528127802"><ele>159.0</ele><time>2026-03-26T17:19:29Z</time></trkpt><trkpt lat="36.88812413764891" lon="15.03400282776842"><ele>159.0</ele><time>2026-03-26T17:19:32Z</time></trkpt><trkpt lat="36.88818677839968" lon="15.034026024267236"><ele>159.0</ele><time>2026-03-26T17:19:47Z</time></trkpt><trkpt lat="36.888266859005086" lon="15.034021537622618"><ele>159.0</ele><time>2026-03-26T17:19:52Z</time></trkpt><trkpt lat="36.888339273179454" lon="15.034035063299132"><ele>159.0</ele><time>2026-03-26T17:19:55Z</time></trkpt><trkpt lat="36.88840514643071" lon="15.034047514439225"><ele>158.0</ele><time>2026-03-26T17:19:59Z</time></trkpt><trkpt lat="36.88849377979103" lon="15.034067928317882"><ele>157.0</ele><time>2026-03-26T17:20:02Z</time></trkpt><trkpt lat="36.888565357572105" lon="15.03410239639351"><ele>156.0</ele><time>2026-03-26T17:20:05Z</time></trkpt><trkpt lat="36.888638750727274" lon="15.0341374553892"><ele>155.0</ele><time>2026-03-26T17:20:43Z</time></trkpt><trkpt lat="36.88865519948328" lon="15.034224820970264"><ele>154.0</ele><time>2026-03-26T17:21:00Z</time></trkpt><trkpt lat="36.88851762711923" lon="15.034289898643442"><ele>153.6</ele><time>2026-03-26T17:21:09Z</time></trkpt><trkpt lat="36.888418330522235" lon="15.034330928769485"><ele>153.2</ele><time>2026-03-26T17:21:10.999Z</time></trkpt><trkpt lat="36.88830075277474" lon="15.034393233437406"><ele>152.79999999999998</ele><time>2026-03-26T17:21:12.999Z</time></trkpt><trkpt lat="36.88834315975398" lon="15.034476767403783"><ele>152.4</ele><time>2026-03-26T17:21:15.999Z</time></trkpt><trkpt lat="36.8884418493752" lon="15.034484950582812"><ele>152.0</ele><time>2026-03-26T17:21:17.999Z</time></trkpt><trkpt lat="36.88850496207918" lon="15.034507244476087"><ele>152.0</ele><time>2026-03-26T17:21:19.999Z</time></trkpt><trkpt lat="36.888598203171235" lon="15.034529878898391"><ele>152.0</ele><time>2026-03-26T17:21:21.999Z</time></trkpt><trkpt lat="36.8886740500308" lon="15.034536005164194"><ele>152.0</ele><time>2026-03-26T17:21:24.999Z</time></trkpt><trkpt lat="36.888738618150086" lon="15.034554716441123"><ele>152.0</ele><time>2026-03-26T17:21:27.999Z</time></trkpt><trkpt lat="36.888824731639" lon="15.034584433352691"><ele>152.0</ele><time>2026-03-26T17:21:29.999Z</time></trkpt><trkpt lat="36.888922495829156" lon="15.034595980872165"><ele>152.0</ele><time>2026-03-26T17:21:32Z</time></trkpt><trkpt lat="36.88897825087385" lon="15.034645552922663"><ele>152.0</ele><time>2026-03-26T17:21:34Z</time></trkpt><trkpt lat="36.88904323462938" lon="15.034672082035376"><ele>152.0</ele><time>2026-03-26T17:21:36Z</time></trkpt><trkpt lat="36.889106618876376" lon="15.034689341759595"><ele>152.0</ele><time>2026-03-26T17:21:37Z</time></trkpt><trkpt lat="36.88918826779" lon="15.034718876868276"><ele>152.0</ele><time>2026-03-26T17:21:39Z</time></trkpt><trkpt lat="36.889172760573125" lon="15.034884592367849"><ele>152.0</ele><time>2026-03-26T17:21:41Z</time></trkpt><trkpt lat="36.88914947120372" lon="15.035041224295231"><ele>153.4</ele><time>2026-03-26T17:21:43Z</time></trkpt><trkpt lat="36.889096934575896" lon="15.035130836089115"><ele>154.79999999999998</ele><time>2026-03-26T17:21:44Z</time></trkpt><trkpt lat="36.88904117511718" lon="15.035238863789232"><ele>156.2</ele><time>2026-03-26T17:21:45Z</time></trkpt><trkpt lat="36.888978630028944" lon="15.035362206004892"><ele>157.6</ele><time>2026-03-26T17:21:46Z</time></trkpt><trkpt lat="36.88892737602911" lon="15.035478063030297"><ele>159.0</ele><time>2026-03-26T17:21:47Z</time></trkpt><trkpt lat="36.888882477860115" lon="15.03556691757931"><ele>159.0</ele><time>2026-03-26T17:21:48Z</time></trkpt><trkpt lat="36.88882827200705" lon="15.0356484510328"><ele>159.0</ele><time>2026-03-26T17:21:49Z</time></trkpt><trkpt lat="36.88875882589905" lon="15.0357296912135"><ele>159.0</ele><time>2026-03-26T17:21:50Z</time></trkpt><trkpt lat="36.88869462098072" lon="15.035823036518964"><ele>159.0</ele><time>2026-03-26T17:21:51Z</time></trkpt><trkpt lat="36.888621730238306" lon="15.035940031536315"><ele>159.0</ele><time>2026-03-26T17:21:52Z</time></trkpt><trkpt lat="36.88854573587999" lon="15.036062008000002"><ele>159.5</ele><time>2026-03-26T17:21:53Z</time></trkpt><trkpt lat="36.88847263046454" lon="15.036168109584622"><ele>160.0</ele><time>2026-03-26T17:21:54Z</time></trkpt><trkpt lat="36.88838885701179" lon="15.036254547400732"><ele>160.5</ele><time>2026-03-26T17:21:55Z</time></trkpt><trkpt lat="36.88829581765312" lon="15.036338291692916"><ele>161.0</ele><time>2026-03-26T17:21:56Z</time></trkpt><trkpt lat="36.88820126917407" lon="15.036424157131018"><ele>161.0</ele><time>2026-03-26T17:21:57Z</time></trkpt><trkpt lat="36.88810667544255" lon="15.036513454392617"><ele>161.0</ele><time>2026-03-26T17:21:58Z</time></trkpt><trkpt lat="36.888010379444474" lon="15.036599830312113"><ele>161.0</ele><time>2026-03-26T17:21:59Z</time></trkpt><trkpt lat="36.887906748897564" lon="15.036676552434662"><ele>161.0</ele><time>2026-03-26T17:22:00Z</time></trkpt><trkpt lat="36.887788872268196" lon="15.036759329178485"><ele>162.25</ele><time>2026-03-26T17:22:01Z</time></trkpt><trkpt lat="36.887686466182764" lon="15.036864459521095"><ele>163.5</ele><time>2026-03-26T17:22:02Z</time></trkpt><trkpt lat="36.88759593877802" lon="15.036953724624887"><ele>164.75</ele><time>2026-03-26T17:22:03Z</time></trkpt><trkpt lat="36.88749410439615" lon="15.037049187030723"><ele>166.0</ele><time>2026-03-26T17:22:04Z</time></trkpt><trkpt lat="36.88739419806517" lon="15.037155207282835"><ele>166.0</ele><time>2026-03-26T17:22:05Z</time></trkpt><trkpt lat="36.88730896604051" lon="15.037251677317736"><ele>166.0</ele><time>2026-03-26T17:22:06Z</time></trkpt><trkpt lat="36.887235052300944" lon="15.037335769404473"><ele>166.0</ele><time>2026-03-26T17:22:07Z</time></trkpt><trkpt lat="36.88716705562679" lon="15.03741873361611"><ele>166.0</ele><time>2026-03-26T17:22:08Z</time></trkpt><trkpt lat="36.887102555220984" lon="15.037497641576445"><ele>166.0</ele><time>2026-03-26T17:22:09Z</time></trkpt><trkpt lat="36.88704263598083" lon="15.037574027326583"><ele>166.20000000000002</ele><time>2026-03-26T17:22:10Z</time></trkpt><trkpt lat="36.886986557171845" lon="15.037646279335057"><ele>166.4</ele><time>2026-03-26T17:22:11Z</time></trkpt><trkpt lat="36.886932308693304" lon="15.037718780445108"><ele>166.6</ele><time>2026-03-26T17:22:12Z</time></trkpt><trkpt lat="36.88685450561328" lon="15.037821375812545"><ele>166.8</ele><time>2026-03-26T17:22:14Z</time></trkpt><trkpt lat="36.886780929884026" lon="15.037934997209222"><ele>167.0</ele><time>2026-03-26T17:22:16Z</time></trkpt><trkpt lat="36.88671869560208" lon="15.038043447961812"><ele>166.66666666666666</ele><time>2026-03-26T17:22:18Z</time></trkpt><trkpt lat="36.88665431316293" lon="15.038147886953317"><ele>166.33333333333331</ele><time>2026-03-26T17:22:20Z</time></trkpt><trkpt lat="36.88659747615724" lon="15.038234503672678"><ele>166.0</ele><time>2026-03-26T17:22:22Z</time></trkpt><trkpt lat="36.886537632543785" lon="15.038320407208833"><ele>165.66666666666666</ele><time>2026-03-26T17:22:24Z</time></trkpt><trkpt lat="36.886467311469" lon="15.038399909839832"><ele>165.33333333333334</ele><time>2026-03-26T17:22:26Z</time></trkpt><trkpt lat="36.8864173369238" lon="15.03845475265637"><ele>165.0</ele><time>2026-03-26T17:22:28Z</time></trkpt><trkpt lat="36.88636673334416" lon="15.038526663843871"><ele>165.0</ele><time>2026-03-26T17:22:30Z</time></trkpt><trkpt lat="36.886403864646994" lon="15.038685216119829"><ele>165.0</ele><time>2026-03-26T17:22:31Z</time></trkpt><trkpt lat="36.88646063734976" lon="15.038786943446958"><ele>165.0</ele><time>2026-03-26T17:22:32Z</time></trkpt><trkpt lat="36.88648717876927" lon="15.038930953569118"><ele>165.0</ele><time>2026-03-26T17:22:33Z</time></trkpt><trkpt lat="36.886526044805976" lon="15.039083716224171"><ele>165.5</ele><time>2026-03-26T17:22:34Z</time></trkpt><trkpt lat="36.886575240781234" lon="15.039261900050402"><ele>166.0</ele><time>2026-03-26T17:22:35Z</time></trkpt><trkpt lat="36.8865703351894" lon="15.039447515638587"><ele>166.5</ele><time>2026-03-26T17:22:36Z</time></trkpt><trkpt lat="36.88661449323131" lon="15.039605064750237"><ele>167.0</ele><time>2026-03-26T17:22:37Z</time></trkpt><trkpt lat="36.8866602129966" lon="15.039756343388364"><ele>167.0</ele><time>2026-03-26T17:22:38Z</time></trkpt><trkpt lat="36.88670086966189" lon="15.039904682131569"><ele>167.0</ele><time>2026-03-26T17:22:39Z</time></trkpt><trkpt lat="36.88673633318332" lon="15.040071144106648"><ele>167.0</ele><time>2026-03-26T17:22:40Z</time></trkpt><trkpt lat="36.886768210900584" lon="15.040235964152014"><ele>167.0</ele><time>2026-03-26T17:22:41Z</time></trkpt><trkpt lat="36.886781305576754" lon="15.04037809259997"><ele>167.0</ele><time>2026-03-26T17:22:42Z</time></trkpt><trkpt lat="36.886779934797524" lon="15.040530856488164"><ele>167.0</ele><time>2026-03-26T17:22:43Z</time></trkpt><trkpt lat="36.88677405216366" lon="15.04070807630877"><ele>167.0</ele><time>2026-03-26T17:22:44Z</time></trkpt><trkpt lat="36.88676348440491" lon="15.040893539193291"><ele>167.0</ele><time>2026-03-26T17:22:45Z</time></trkpt><trkpt lat="36.88675131475698" lon="15.04105401411359"><ele>166.0</ele><time>2026-03-26T17:22:46Z</time></trkpt><trkpt lat="36.886737940353285" lon="15.041208537166082"><ele>165.0</ele><time>2026-03-26T17:22:47Z</time></trkpt><trkpt lat="36.88672411163853" lon="15.04136830910764"><ele>164.0</ele><time>2026-03-26T17:22:48Z</time></trkpt><trkpt lat="36.88671802515142" lon="15.041533548136373"><ele>163.0</ele><time>2026-03-26T17:22:49Z</time></trkpt><trkpt lat="36.88671997813282" lon="15.041688310171333"><ele>162.60000000000002</ele><time>2026-03-26T17:22:50Z</time></trkpt><trkpt lat="36.88672707756423" lon="15.041857304296537"><ele>162.20000000000002</ele><time>2026-03-26T17:22:51Z</time></trkpt><trkpt lat="36.88673132084998" lon="15.04200015975854"><ele>161.8</ele><time>2026-03-26T17:22:52Z</time></trkpt><trkpt lat="36.88673067715734" lon="15.042104244463461"><ele>161.4</ele><time>2026-03-26T17:22:53Z</time></trkpt><trkpt lat="36.88672345875097" lon="15.042186113061007"><ele>161.0</ele><time>2026-03-26T17:22:54Z</time></trkpt><trkpt lat="36.88667533025795" lon="15.042269085892034"><ele>161.0</ele><time>2026-03-26T17:22:55Z</time></trkpt><trkpt lat="36.88666246613104" lon="15.042357341616443"><ele>161.0</ele><time>2026-03-26T17:22:56Z</time></trkpt><trkpt lat="36.88665965890601" lon="15.04243831453617"><ele>161.0</ele><time>2026-03-26T17:22:57Z</time></trkpt><trkpt lat="36.88668411171748" lon="15.042562834868608"><ele>161.0</ele><time>2026-03-26T17:22:58Z</time></trkpt><trkpt lat="36.8867006643221" lon="15.042695277953124"><ele>161.0</ele><time>2026-03-26T17:22:59Z</time></trkpt><trkpt lat="36.88671308420548" lon="15.042805475409082"><ele>161.0</ele><time>2026-03-26T17:23:00Z</time></trkpt><trkpt lat="36.886725005616924" lon="15.042911250113024"><ele>160.5</ele><time>2026-03-26T17:23:01Z</time></trkpt><trkpt lat="36.886737370601296" lon="15.043020960656628"><ele>160.0</ele><time>2026-03-26T17:23:02Z</time></trkpt><trkpt lat="36.88674932449583" lon="15.04312702360539"><ele>159.5</ele><time>2026-03-26T17:23:03Z</time></trkpt><trkpt lat="36.8867588909528" lon="15.043211903516477"><ele>159.0</ele><time>2026-03-26T17:23:04Z</time></trkpt><trkpt lat="36.886759518892404" lon="15.043333514049609"><ele>158.5</ele><time>2026-03-26T17:23:06Z</time></trkpt><trkpt lat="36.88670789153896" lon="15.043404247421867"><ele>158.0</ele><time>2026-03-26T17:23:08Z</time></trkpt><trkpt lat="36.886591651405524" lon="15.043462688664912"><ele>157.83333333333331</ele><time>2026-03-26T17:23:10Z</time></trkpt><trkpt lat="36.88653107695787" lon="15.043502904555002"><ele>157.66666666666666</ele><time>2026-03-26T17:23:11Z</time></trkpt><trkpt lat="36.886471245012906" lon="15.043541613205802"><ele>157.5</ele><time>2026-03-26T17:23:12Z</time></trkpt><trkpt lat="36.88639952445338" lon="15.043586072313987"><ele>157.33333333333334</ele><time>2026-03-26T17:23:14Z</time></trkpt><trkpt lat="36.88634126057988" lon="15.043622190095839"><ele>157.16666666666669</ele><time>2026-03-26T17:23:19Z</time></trkpt><trkpt lat="36.886425705340216" lon="15.043569842354042"><ele>157.0</ele><time>2026-03-26T17:23:24.999Z</time></trkpt><trkpt lat="36.886566858753255" lon="15.043511742798282"><ele>157.0</ele><time>2026-03-26T17:23:25.999Z</time></trkpt><trkpt lat="36.88666191619547" lon="15.043448557747201"><ele>157.0</ele><time>2026-03-26T17:23:26.999Z</time></trkpt><trkpt lat="36.88673121618705" lon="15.04340454465704"><ele>157.0</ele><time>2026-03-26T17:23:27.999Z</time></trkpt><trkpt lat="36.8868055455785" lon="15.043327483549387"><ele>157.0</ele><time>2026-03-26T17:23:29.999Z</time></trkpt><trkpt lat="36.88680881781451" lon="15.043231788184551"><ele>157.0</ele><time>2026-03-26T17:23:31.999Z</time></trkpt><trkpt lat="36.88680187800136" lon="15.043130627008773"><ele>157.0</ele><time>2026-03-26T17:23:32.999Z</time></trkpt><trkpt lat="36.88678214620698" lon="15.042983194571645"><ele>157.25</ele><time>2026-03-26T17:23:33.999Z</time></trkpt><trkpt lat="36.88675495596491" lon="15.042831447833716"><ele>157.5</ele><time>2026-03-26T17:23:34.999Z</time></trkpt><trkpt lat="36.88673135587364" lon="15.042654226207462"><ele>157.75</ele><time>2026-03-26T17:23:35.999Z</time></trkpt><trkpt lat="36.88671261827023" lon="15.042510449560947"><ele>158.0</ele><time>2026-03-26T17:23:37Z</time></trkpt><trkpt lat="36.88669965549608" lon="15.042407541155617"><ele>158.60000000000002</ele><time>2026-03-26T17:23:38Z</time></trkpt><trkpt lat="36.88669656330586" lon="15.04232564414965"><ele>159.20000000000002</ele><time>2026-03-26T17:23:39Z</time></trkpt><trkpt lat="36.88675223573009" lon="15.042173094431783"><ele>159.8</ele><time>2026-03-26T17:23:41Z</time></trkpt><trkpt lat="36.886779850850516" lon="15.042066698420372"><ele>160.4</ele><time>2026-03-26T17:23:42Z</time></trkpt><trkpt lat="36.886771566389584" lon="15.04192512925238"><ele>161.0</ele><time>2026-03-26T17:23:43Z</time></trkpt><trkpt lat="36.886756259408635" lon="15.041748087045178"><ele>161.5</ele><time>2026-03-26T17:23:44Z</time></trkpt><trkpt lat="36.88675349154665" lon="15.041590648628981"><ele>162.0</ele><time>2026-03-26T17:23:45Z</time></trkpt><trkpt lat="36.8867555198043" lon="15.041442898914488"><ele>162.5</ele><time>2026-03-26T17:23:46Z</time></trkpt><trkpt lat="36.88676917276949" lon="15.041270502352628"><ele>163.0</ele><time>2026-03-26T17:23:47Z</time></trkpt><trkpt lat="36.88676975814389" lon="15.041102654407636"><ele>164.0</ele><time>2026-03-26T17:23:48Z</time></trkpt><trkpt lat="36.88678853365147" lon="15.040930027938705"><ele>165.0</ele><time>2026-03-26T17:23:49Z</time></trkpt><trkpt lat="36.88681650950248" lon="15.040774594715925"><ele>166.0</ele><time>2026-03-26T17:23:50Z</time></trkpt><trkpt lat="36.886822378547485" lon="15.040620044283958"><ele>167.0</ele><time>2026-03-26T17:23:51Z</time></trkpt><trkpt lat="36.88682386237865" lon="15.040455476625407"><ele>167.0</ele><time>2026-03-26T17:23:52Z</time></trkpt><trkpt lat="36.886821393475245" lon="15.040305632637647"><ele>167.0</ele><time>2026-03-26T17:23:53Z</time></trkpt><trkpt lat="36.886801723233575" lon="15.040156471097927"><ele>167.0</ele><time>2026-03-26T17:23:54Z</time></trkpt><trkpt lat="36.886754469552336" lon="15.039986703657268"><ele>167.0</ele><time>2026-03-26T17:23:55Z</time></trkpt><trkpt lat="36.88670077226985" lon="15.039799019202013"><ele>167.0</ele><time>2026-03-26T17:23:56Z</time></trkpt><trkpt lat="36.886655958654735" lon="15.039623490886164"><ele>167.0</ele><time>2026-03-26T17:23:57Z</time></trkpt><trkpt lat="36.88661821034305" lon="15.039470390290559"><ele>167.0</ele><time>2026-03-26T17:23:58Z</time></trkpt><trkpt lat="36.88657891368456" lon="15.039335195072258"><ele>167.0</ele><time>2026-03-26T17:23:59Z</time></trkpt><trkpt lat="36.88654201050592" lon="15.039204917144032"><ele>166.6</ele><time>2026-03-26T17:24:00Z</time></trkpt><trkpt lat="36.886497334436065" lon="15.039080581261228"><ele>166.2</ele><time>2026-03-26T17:24:01Z</time></trkpt><trkpt lat="36.88648085980119" lon="15.038952120874729"><ele>165.8</ele><time>2026-03-26T17:24:02Z</time></trkpt><trkpt lat="36.88645986894414" lon="15.03883545996153"><ele>165.4</ele><time>2026-03-26T17:24:03Z</time></trkpt><trkpt lat="36.886435318513854" lon="15.038734866947316"><ele>165.0</ele><time>2026-03-26T17:24:04Z</time></trkpt><trkpt lat="36.88642260285158" lon="15.03865587864158"><ele>165.0</ele><time>2026-03-26T17:24:05Z</time></trkpt><trkpt lat="36.886419859847315" lon="15.038520725242712"><ele>165.0</ele><time>2026-03-26T17:24:07Z</time></trkpt><trkpt lat="36.88649059091239" lon="15.038418839985162"><ele>165.0</ele><time>2026-03-26T17:24:09Z</time></trkpt><trkpt lat="36.886578686691266" lon="15.038324326821593"><ele>165.0</ele><time>2026-03-26T17:24:10Z</time></trkpt><trkpt lat="36.88666371323737" lon="15.038201199078854"><ele>164.5</ele><time>2026-03-26T17:24:11Z</time></trkpt><trkpt lat="36.88674683732307" lon="15.03806812624958"><ele>164.0</ele><time>2026-03-26T17:24:12Z</time></trkpt><trkpt lat="36.88681977778837" lon="15.037942313304923"><ele>163.5</ele><time>2026-03-26T17:24:13Z</time></trkpt><trkpt lat="36.886890465935245" lon="15.037827830005487"><ele>163.0</ele><time>2026-03-26T17:24:14Z</time></trkpt><trkpt lat="36.88697261946219" lon="15.03772096401623"><ele>163.75</ele><time>2026-03-26T17:24:15Z</time></trkpt><trkpt lat="36.88707582514764" lon="15.0375926528102"><ele>164.5</ele><time>2026-03-26T17:24:16Z</time></trkpt><trkpt lat="36.88717123038043" lon="15.037480740775262"><ele>165.25</ele><time>2026-03-26T17:24:17Z</time></trkpt><trkpt lat="36.887257258908775" lon="15.037385612880737"><ele>166.0</ele><time>2026-03-26T17:24:18Z</time></trkpt><trkpt lat="36.88733190184732" lon="15.037299582921952"><ele>166.0</ele><time>2026-03-26T17:24:19Z</time></trkpt><trkpt lat="36.887400604559794" lon="15.037220554857731"><ele>166.0</ele><time>2026-03-26T17:24:20Z</time></trkpt><trkpt lat="36.88746826875795" lon="15.037144615124397"><ele>166.0</ele><time>2026-03-26T17:24:21Z</time></trkpt><trkpt lat="36.887543326740555" lon="15.037066309368372"><ele>166.0</ele><time>2026-03-26T17:24:23Z</time></trkpt><trkpt lat="36.88760088944408" lon="15.03723094310459"><ele>166.0</ele><time>2026-03-26T17:24:27Z</time></trkpt><trkpt lat="36.887639644232586" lon="15.03732566248575"><ele>166.0</ele><time>2026-03-26T17:24:28Z</time></trkpt><trkpt lat="36.88768917527988" lon="15.037446719592225"><ele>166.0</ele><time>2026-03-26T17:24:29Z</time></trkpt><trkpt lat="36.88773783295925" lon="15.037572222708754"><ele>166.0</ele><time>2026-03-26T17:24:30Z</time></trkpt><trkpt lat="36.8877827871861" lon="15.037693594451175"><ele>166.0</ele><time>2026-03-26T17:24:31Z</time></trkpt><trkpt lat="36.887816557343314" lon="15.037796856184482"><ele>166.0</ele><time>2026-03-26T17:24:32Z</time></trkpt><trkpt lat="36.88784745029489" lon="15.0379019054968"><ele>167.0</ele><time>2026-03-26T17:24:33Z</time></trkpt><trkpt lat="36.887870735757744" lon="15.037983465649932"><ele>168.0</ele><time>2026-03-26T17:24:34Z</time></trkpt><trkpt lat="36.8878999685828" lon="15.03808843302812"><ele>169.0</ele><time>2026-03-26T17:24:37Z</time></trkpt><trkpt lat="36.88797136207398" lon="15.038222847156424"><ele>170.0</ele><time>2026-03-26T17:24:39Z</time></trkpt><trkpt lat="36.888042247201696" lon="15.038249768618588"><ele>171.0</ele><time>2026-03-26T17:24:40Z</time></trkpt><trkpt lat="36.88812328336557" lon="15.038301646603353"><ele>171.20000000000002</ele><time>2026-03-26T17:24:41Z</time></trkpt><trkpt lat="36.88821464740413" lon="15.038348097795502"><ele>171.4</ele><time>2026-03-26T17:24:42Z</time></trkpt><trkpt lat="36.88831101917799" lon="15.038395535069402"><ele>171.6</ele><time>2026-03-26T17:24:43Z</time></trkpt><trkpt lat="36.88840857640979" lon="15.038438797770105"><ele>171.8</ele><time>2026-03-26T17:24:44Z</time></trkpt><trkpt lat="36.88849614645104" lon="15.038476031283192"><ele>172.0</ele><time>2026-03-26T17:24:45Z</time></trkpt><trkpt lat="36.88858436184922" lon="15.038510713928256"><ele>171.0</ele><time>2026-03-26T17:24:46Z</time></trkpt><trkpt lat="36.88866613442135" lon="15.038555342898066"><ele>170.0</ele><time>2026-03-26T17:24:47Z</time></trkpt><trkpt lat="36.88873231501832" lon="15.038624391537187"><ele>169.0</ele><time>2026-03-26T17:24:48Z</time></trkpt><trkpt lat="36.88879515534666" lon="15.038681410969414"><ele>168.0</ele><time>2026-03-26T17:24:49Z</time></trkpt><trkpt lat="36.8888465800542" lon="15.038757605782552"><ele>167.0</ele><time>2026-03-26T17:24:50Z</time></trkpt><trkpt lat="36.88888425650086" lon="15.03883831736031"><ele>166.0</ele><time>2026-03-26T17:24:51Z</time></trkpt><trkpt lat="36.888913652673644" lon="15.038938008889938"><ele>166.0</ele><time>2026-03-26T17:24:52Z</time></trkpt><trkpt lat="36.888945290256906" lon="15.039056487391518"><ele>166.0</ele><time>2026-03-26T17:24:53Z</time></trkpt><trkpt lat="36.88895940421426" lon="15.039169690779115"><ele>166.0</ele><time>2026-03-26T17:24:54Z</time></trkpt><trkpt lat="36.88895331561843" lon="15.039270778830812"><ele>166.0</ele><time>2026-03-26T17:24:55Z</time></trkpt><trkpt lat="36.88893679739963" lon="15.039416573717483"><ele>166.0</ele><time>2026-03-26T17:24:56Z</time></trkpt><trkpt lat="36.88890471093744" lon="15.039576364416867"><ele>165.60000000000002</ele><time>2026-03-26T17:24:57Z</time></trkpt><trkpt lat="36.88888707896842" lon="15.039736635150705"><ele>165.2</ele><time>2026-03-26T17:24:58Z</time></trkpt><trkpt lat="36.88887741525723" lon="15.03987597522239"><ele>164.8</ele><time>2026-03-26T17:24:59Z</time></trkpt><trkpt lat="36.888870759307544" lon="15.039994414051696"><ele>164.39999999999998</ele><time>2026-03-26T17:25:00Z</time></trkpt><trkpt lat="36.88886846837504" lon="15.04010490866348"><ele>164.0</ele><time>2026-03-26T17:25:01Z</time></trkpt><trkpt lat="36.888871050399565" lon="15.040207007100964"><ele>163.79999999999998</ele><time>2026-03-26T17:25:02Z</time></trkpt><trkpt lat="36.888895539446594" lon="15.040329285412762"><ele>163.6</ele><time>2026-03-26T17:25:03Z</time></trkpt><trkpt lat="36.88893501576706" lon="15.040463454406675"><ele>163.4</ele><time>2026-03-26T17:25:04Z</time></trkpt><trkpt lat="36.88897730693814" lon="15.040591619069367"><ele>163.2</ele><time>2026-03-26T17:25:05Z</time></trkpt><trkpt lat="36.88902045651347" lon="15.04071292425172"><ele>163.0</ele><time>2026-03-26T17:25:06Z</time></trkpt><trkpt lat="36.88906947343076" lon="15.04084337569914"><ele>163.0</ele><time>2026-03-26T17:25:07Z</time></trkpt><trkpt lat="36.88912364476815" lon="15.04098754482925"><ele>163.0</ele><time>2026-03-26T17:25:08Z</time></trkpt><trkpt lat="36.889173315810744" lon="15.04112138852075"><ele>163.0</ele><time>2026-03-26T17:25:09Z</time></trkpt><trkpt lat="36.88921736917067" lon="15.04124192602498"><ele>163.0</ele><time>2026-03-26T17:25:10Z</time></trkpt><trkpt lat="36.88925665770356" lon="15.04135737115978"><ele>160.6</ele><time>2026-03-26T17:25:11Z</time></trkpt><trkpt lat="36.889290645299155" lon="15.04146603050404"><ele>158.20000000000002</ele><time>2026-03-26T17:25:12Z</time></trkpt><trkpt lat="36.88932034423064" lon="15.04156509097392"><ele>155.8</ele><time>2026-03-26T17:25:13Z</time></trkpt><trkpt lat="36.88934609363623" lon="15.041650978030349"><ele>153.4</ele><time>2026-03-26T17:25:14Z</time></trkpt><trkpt lat="36.88938570196918" lon="15.041756722437558"><ele>151.0</ele><time>2026-03-26T17:25:16Z</time></trkpt><trkpt lat="36.88950666718714" lon="15.041754222881918"><ele>151.0</ele><time>2026-03-26T17:25:18Z</time></trkpt><trkpt lat="36.889584614936645" lon="15.041715721764854"><ele>151.0</ele><time>2026-03-26T17:25:19Z</time></trkpt><trkpt lat="36.889672326121136" lon="15.041679506915374"><ele>151.0</ele><time>2026-03-26T17:25:20Z</time></trkpt><trkpt lat="36.88975882023698" lon="15.04165455073685"><ele>151.0</ele><time>2026-03-26T17:25:21Z</time></trkpt><trkpt lat="36.88984260677478" lon="15.04163354986736"><ele>151.0</ele><time>2026-03-26T17:25:22Z</time></trkpt><trkpt lat="36.88993032814845" lon="15.041609975604944"><ele>151.0</ele><time>2026-03-26T17:25:23Z</time></trkpt><trkpt lat="36.89002051014475" lon="15.041581265397223"><ele>149.16666666666669</ele><time>2026-03-26T17:25:24Z</time></trkpt><trkpt lat="36.8901083447825" lon="15.041549391933728"><ele>147.33333333333334</ele><time>2026-03-26T17:25:25Z</time></trkpt><trkpt lat="36.890194825519124" lon="15.041511698430726"><ele>145.5</ele><time>2026-03-26T17:25:26Z</time></trkpt><trkpt lat="36.89027837744451" lon="15.041491009054191"><ele>143.66666666666666</ele><time>2026-03-26T17:25:27Z</time></trkpt><trkpt lat="36.890355754822586" lon="15.041470447754135"><ele>141.83333333333331</ele><time>2026-03-26T17:25:27.999Z</time></trkpt><trkpt lat="36.8904214409541" lon="15.041445055400606"><ele>140.0</ele><time>2026-03-26T17:25:28.999Z</time></trkpt><trkpt lat="36.890535663373434" lon="15.041418554622236"><ele>140.0</ele><time>2026-03-26T17:25:30.999Z</time></trkpt><trkpt lat="36.890633936209916" lon="15.041393726540564"><ele>140.0</ele><time>2026-03-26T17:25:32.999Z</time></trkpt><trkpt lat="36.89074989749643" lon="15.041459826740896"><ele>140.0</ele><time>2026-03-26T17:25:34.999Z</time></trkpt><trkpt lat="36.8908207224896" lon="15.041523154919531"><ele>140.0</ele><time>2026-03-26T17:25:35.999Z</time></trkpt><trkpt lat="36.89089612479196" lon="15.041589661481515"><ele>140.0</ele><time>2026-03-26T17:25:36.999Z</time></trkpt><trkpt lat="36.890956388582396" lon="15.041648655464392"><ele>139.83333333333331</ele><time>2026-03-26T17:25:37.999Z</time></trkpt><trkpt lat="36.89100894055412" lon="15.041704815457708"><ele>139.66666666666666</ele><time>2026-03-26T17:25:38.999Z</time></trkpt><trkpt lat="36.89106678801825" lon="15.041841142305667"><ele>139.5</ele><time>2026-03-26T17:25:40.999Z</time></trkpt><trkpt lat="36.89109395548241" lon="15.041924865414208"><ele>139.33333333333334</ele><time>2026-03-26T17:25:41.999Z</time></trkpt><trkpt lat="36.89112986910362" lon="15.042009836368495"><ele>139.16666666666669</ele><time>2026-03-26T17:25:43Z</time></trkpt><trkpt lat="36.89118149787538" lon="15.042092300891241"><ele>139.0</ele><time>2026-03-26T17:25:44Z</time></trkpt><trkpt lat="36.89126471416215" lon="15.042154333416798"><ele>139.0</ele><time>2026-03-26T17:25:45Z</time></trkpt><trkpt lat="36.89135681363399" lon="15.04222513395455"><ele>139.0</ele><time>2026-03-26T17:25:46Z</time></trkpt><trkpt lat="36.89145268536434" lon="15.042317313058605"><ele>139.0</ele><time>2026-03-26T17:25:47Z</time></trkpt><trkpt lat="36.891529899781354" lon="15.042373551052355"><ele>139.0</ele><time>2026-03-26T17:25:48Z</time></trkpt><trkpt lat="36.89160715778709" lon="15.042400997948876"><ele>139.0</ele><time>2026-03-26T17:25:49Z</time></trkpt><trkpt lat="36.89168143972364" lon="15.042485048570395"><ele>139.25</ele><time>2026-03-26T17:25:51Z</time></trkpt><trkpt lat="36.89164578317504" lon="15.04263231248794"><ele>139.5</ele><time>2026-03-26T17:25:53Z</time></trkpt><trkpt lat="36.891638505529215" lon="15.042791150043927"><ele>139.75</ele><time>2026-03-26T17:25:54Z</time></trkpt><trkpt lat="36.891605259953856" lon="15.042937120967364"><ele>140.0</ele><time>2026-03-26T17:25:55Z</time></trkpt><trkpt lat="36.89154915987675" lon="15.0430909620072"><ele>140.0</ele><time>2026-03-26T17:25:56Z</time></trkpt><trkpt lat="36.89149673996423" lon="15.043215000075902"><ele>140.0</ele><time>2026-03-26T17:25:57Z</time></trkpt><trkpt lat="36.891456234186904" lon="15.043319863198167"><ele>140.0</ele><time>2026-03-26T17:25:58Z</time></trkpt><trkpt lat="36.891466003628125" lon="15.043419001170603"><ele>140.0</ele><time>2026-03-26T17:25:59Z</time></trkpt><trkpt lat="36.89145184914473" lon="15.043503363650132"><ele>140.0</ele><time>2026-03-26T17:26:01Z</time></trkpt><trkpt lat="36.89156907192113" lon="15.043499606173148"><ele>140.0</ele><time>2026-03-26T17:26:04Z</time></trkpt><trkpt lat="36.891653490518095" lon="15.043363279676305"><ele>140.0</ele><time>2026-03-26T17:26:05Z</time></trkpt><trkpt lat="36.89174307109635" lon="15.043265458845799"><ele>140.0</ele><time>2026-03-26T17:26:06Z</time></trkpt><trkpt lat="36.89185361212682" lon="15.043159095678194"><ele>140.0</ele><time>2026-03-26T17:26:07Z</time></trkpt><trkpt lat="36.891954420986146" lon="15.04306372821154"><ele>141.5</ele><time>2026-03-26T17:26:08Z</time></trkpt><trkpt lat="36.89204405273294" lon="15.042951243226318"><ele>143.0</ele><time>2026-03-26T17:26:09Z</time></trkpt><trkpt lat="36.892125391659725" lon="15.042820062220093"><ele>144.5</ele><time>2026-03-26T17:26:10Z</time></trkpt><trkpt lat="36.892198814348525" lon="15.042675130667524"><ele>146.0</ele><time>2026-03-26T17:26:11Z</time></trkpt><trkpt lat="36.89226417750397" lon="15.042517739560331"><ele>146.0</ele><time>2026-03-26T17:26:12Z</time></trkpt><trkpt lat="36.892324688206514" lon="15.04234994857888"><ele>146.0</ele><time>2026-03-26T17:26:13Z</time></trkpt><trkpt lat="36.89238281226114" lon="15.04217399101315"><ele>146.0</ele><time>2026-03-26T17:26:14Z</time></trkpt><trkpt lat="36.89245837849289" lon="15.042010785187452"><ele>146.0</ele><time>2026-03-26T17:26:15Z</time></trkpt><trkpt lat="36.892559501959035" lon="15.041872400601727"><ele>146.0</ele><time>2026-03-26T17:26:16Z</time></trkpt><trkpt lat="36.89268961296753" lon="15.041742600361411"><ele>146.0</ele><time>2026-03-26T17:26:17Z</time></trkpt><trkpt lat="36.89283808879683" lon="15.041618908126669"><ele>147.66666666666666</ele><time>2026-03-26T17:26:18Z</time></trkpt><trkpt lat="36.892997758500734" lon="15.041517674061906"><ele>149.33333333333334</ele><time>2026-03-26T17:26:19Z</time></trkpt><trkpt lat="36.89317680724123" lon="15.04141924270566"><ele>151.0</ele><time>2026-03-26T17:26:20Z</time></trkpt><trkpt lat="36.89336437451712" lon="15.041338106895925"><ele>154.33333333333334</ele><time>2026-03-26T17:26:21Z</time></trkpt><trkpt lat="36.89355923422292" lon="15.041275630746409"><ele>157.66666666666666</ele><time>2026-03-26T17:26:22Z</time></trkpt><trkpt lat="36.89374379129939" lon="15.041220428499232"><ele>161.0</ele><time>2026-03-26T17:26:23Z</time></trkpt><trkpt lat="36.8939135206644" lon="15.041173527019142"><ele>161.0</ele><time>2026-03-26T17:26:24Z</time></trkpt><trkpt lat="36.89408218650087" lon="15.041151434511095"><ele>161.0</ele><time>2026-03-26T17:26:25Z</time></trkpt><trkpt lat="36.89425730595046" lon="15.041166944914503"><ele>161.0</ele><time>2026-03-26T17:26:26Z</time></trkpt><trkpt lat="36.89442823054203" lon="15.0412004630722"><ele>162.75</ele><time>2026-03-26T17:26:27Z</time></trkpt><trkpt lat="36.894575931124116" lon="15.041220240027139"><ele>164.5</ele><time>2026-03-26T17:26:28Z</time></trkpt><trkpt lat="36.89471561643692" lon="15.041213617698705"><ele>166.25</ele><time>2026-03-26T17:26:29Z</time></trkpt><trkpt lat="36.894866758474784" lon="15.041182586227935"><ele>168.0</ele><time>2026-03-26T17:26:30Z</time></trkpt><trkpt lat="36.895020249084965" lon="15.041126447867724"><ele>169.5</ele><time>2026-03-26T17:26:31Z</time></trkpt><trkpt lat="36.89516562143867" lon="15.041070868329566"><ele>171.0</ele><time>2026-03-26T17:26:32Z</time></trkpt><trkpt lat="36.895299290812474" lon="15.041044905340192"><ele>172.5</ele><time>2026-03-26T17:26:33Z</time></trkpt><trkpt lat="36.89542802612242" lon="15.041037749006115"><ele>174.0</ele><time>2026-03-26T17:26:34Z</time></trkpt><trkpt lat="36.89555754554582" lon="15.041059102161872"><ele>174.0</ele><time>2026-03-26T17:26:35Z</time></trkpt><trkpt lat="36.89566604027932" lon="15.041121661804349"><ele>174.0</ele><time>2026-03-26T17:26:36Z</time></trkpt><trkpt lat="36.89577196996532" lon="15.041185897791832"><ele>174.0</ele><time>2026-03-26T17:26:37Z</time></trkpt><trkpt lat="36.8959010596068" lon="15.041212336854498"><ele>174.0</ele><time>2026-03-26T17:26:38Z</time></trkpt><trkpt lat="36.896043214720216" lon="15.041203805941155"><ele>175.66666666666666</ele><time>2026-03-26T17:26:39Z</time></trkpt><trkpt lat="36.89617712967466" lon="15.041167767264298"><ele>177.33333333333331</ele><time>2026-03-26T17:26:40Z</time></trkpt><trkpt lat="36.89632300468546" lon="15.041095817231449"><ele>179.0</ele><time>2026-03-26T17:26:41Z</time></trkpt><trkpt lat="36.896470219707815" lon="15.040991948597142"><ele>179.0</ele><time>2026-03-26T17:26:42Z</time></trkpt><trkpt lat="36.896611916823346" lon="15.040894509370382"><ele>179.0</ele><time>2026-03-26T17:26:43Z</time></trkpt><trkpt lat="36.896743116393026" lon="15.040819126105701"><ele>179.0</ele><time>2026-03-26T17:26:44Z</time></trkpt><trkpt lat="36.896866975523174" lon="15.040749303954444"><ele>179.0</ele><time>2026-03-26T17:26:45Z</time></trkpt><trkpt lat="36.8969981456541" lon="15.040690357196654"><ele>181.25</ele><time>2026-03-26T17:26:46Z</time></trkpt><trkpt lat="36.8971370868987" lon="15.040663810795568"><ele>183.5</ele><time>2026-03-26T17:26:47Z</time></trkpt><trkpt lat="36.89727403874279" lon="15.040669184865697"><ele>185.75</ele><time>2026-03-26T17:26:48Z</time></trkpt><trkpt lat="36.89741496527929" lon="15.040699801536709"><ele>188.0</ele><time>2026-03-26T17:26:49Z</time></trkpt><trkpt lat="36.89755852357247" lon="15.040748494921543"><ele>189.0</ele><time>2026-03-26T17:26:50Z</time></trkpt><trkpt lat="36.89770295626898" lon="15.04081689702908"><ele>190.0</ele><time>2026-03-26T17:26:51Z</time></trkpt><trkpt lat="36.897839158736325" lon="15.040889985685444"><ele>191.0</ele><time>2026-03-26T17:26:52Z</time></trkpt><trkpt lat="36.89796782584732" lon="15.040971130992306"><ele>192.0</ele><time>2026-03-26T17:26:53Z</time></trkpt><trkpt lat="36.89807551183378" lon="15.041088301013552"><ele>192.0</ele><time>2026-03-26T17:26:54Z</time></trkpt><trkpt lat="36.89818259993241" lon="15.041199192202836"><ele>192.0</ele><time>2026-03-26T17:26:55Z</time></trkpt><trkpt lat="36.89827837663385" lon="15.0413222057318"><ele>192.0</ele><time>2026-03-26T17:26:56Z</time></trkpt><trkpt lat="36.89837848290327" lon="15.04143919628156"><ele>192.0</ele><time>2026-03-26T17:26:57Z</time></trkpt><trkpt lat="36.898467505848764" lon="15.0415515100481"><ele>192.75</ele><time>2026-03-26T17:26:58Z</time></trkpt><trkpt lat="36.898564651038136" lon="15.04165168917228"><ele>193.5</ele><time>2026-03-26T17:26:59Z</time></trkpt><trkpt lat="36.898690827066545" lon="15.041732631387209"><ele>194.25</ele><time>2026-03-26T17:27:00Z</time></trkpt><trkpt lat="36.8988359181879" lon="15.041781003172794"><ele>195.0</ele><time>2026-03-26T17:27:01Z</time></trkpt><trkpt lat="36.89899335818584" lon="15.041781823754198"><ele>195.0</ele><time>2026-03-26T17:27:02Z</time></trkpt><trkpt lat="36.89914619067717" lon="15.041799233903017"><ele>195.0</ele><time>2026-03-26T17:27:03Z</time></trkpt><trkpt lat="36.89930043747633" lon="15.041872903862052"><ele>195.0</ele><time>2026-03-26T17:27:04Z</time></trkpt><trkpt lat="36.89945686790197" lon="15.041967998133842"><ele>197.5</ele><time>2026-03-26T17:27:05Z</time></trkpt><trkpt lat="36.89960302421504" lon="15.042072433940685"><ele>200.0</ele><time>2026-03-26T17:27:06Z</time></trkpt><trkpt lat="36.89972639893351" lon="15.042171700998322"><ele>202.5</ele><time>2026-03-26T17:27:07Z</time></trkpt><trkpt lat="36.899829383986415" lon="15.042237104619547"><ele>205.0</ele><time>2026-03-26T17:27:08Z</time></trkpt><trkpt lat="36.89992923238076" lon="15.042271944682659"><ele>205.0</ele><time>2026-03-26T17:27:09Z</time></trkpt><trkpt lat="36.90004919174634" lon="15.04228173594988"><ele>205.0</ele><time>2026-03-26T17:27:10Z</time></trkpt><trkpt lat="36.90018305104524" lon="15.042232840293147"><ele>205.0</ele><time>2026-03-26T17:27:11Z</time></trkpt><trkpt lat="36.900325124288905" lon="15.042143529589142"><ele>205.0</ele><time>2026-03-26T17:27:12Z</time></trkpt><trkpt lat="36.90046524720587" lon="15.042045297218484"><ele>206.0</ele><time>2026-03-26T17:27:13Z</time></trkpt><trkpt lat="36.90062469250312" lon="15.04194096729806"><ele>207.0</ele><time>2026-03-26T17:27:14Z</time></trkpt><trkpt lat="36.90079313050561" lon="15.041844713574653"><ele>208.0</ele><time>2026-03-26T17:27:15Z</time></trkpt><trkpt lat="36.900950996405456" lon="15.041768718671468"><ele>208.75</ele><time>2026-03-26T17:27:16Z</time></trkpt><trkpt lat="36.90108288505212" lon="15.04170162691703"><ele>209.5</ele><time>2026-03-26T17:27:17Z</time></trkpt><trkpt lat="36.90119665047663" lon="15.04163353789334"><ele>210.25</ele><time>2026-03-26T17:27:18Z</time></trkpt><trkpt lat="36.90130947789224" lon="15.041526764178222"><ele>211.0</ele><time>2026-03-26T17:27:19Z</time></trkpt><trkpt lat="36.90142438359317" lon="15.041379785406248"><ele>211.66666666666666</ele><time>2026-03-26T17:27:20Z</time></trkpt><trkpt lat="36.90153716009227" lon="15.04121862171864"><ele>212.33333333333331</ele><time>2026-03-26T17:27:21Z</time></trkpt><trkpt lat="36.901646507561104" lon="15.041068727802347"><ele>213.0</ele><time>2026-03-26T17:27:22Z</time></trkpt><trkpt lat="36.901752476154726" lon="15.040927654584921"><ele>212.0</ele><time>2026-03-26T17:27:23Z</time></trkpt><trkpt lat="36.90183756473854" lon="15.040787930378203"><ele>211.0</ele><time>2026-03-26T17:27:24Z</time></trkpt><trkpt lat="36.901911404776456" lon="15.040633039852255"><ele>210.0</ele><time>2026-03-26T17:27:25Z</time></trkpt><trkpt lat="36.90197232684577" lon="15.040467174185416"><ele>209.0</ele><time>2026-03-26T17:27:26Z</time></trkpt><trkpt lat="36.902025787661195" lon="15.040292306707329"><ele>209.0</ele><time>2026-03-26T17:27:27Z</time></trkpt><trkpt lat="36.902068969207406" lon="15.040134263024624"><ele>209.0</ele><time>2026-03-26T17:27:28Z</time></trkpt><trkpt lat="36.90211468001872" lon="15.039991499069654"><ele>209.0</ele><time>2026-03-26T17:27:29Z</time></trkpt><trkpt lat="36.90216368844796" lon="15.039864235953205"><ele>209.0</ele><time>2026-03-26T17:27:30Z</time></trkpt><trkpt lat="36.90221170626601" lon="15.039741445946248"><ele>209.25</ele><time>2026-03-26T17:27:31Z</time></trkpt><trkpt lat="36.90227278977083" lon="15.039599859000182"><ele>209.5</ele><time>2026-03-26T17:27:32Z</time></trkpt><trkpt lat="36.9023489226479" lon="15.039452509885123"><ele>209.75</ele><time>2026-03-26T17:27:33Z</time></trkpt><trkpt lat="36.90242886798407" lon="15.039295397079519"><ele>210.0</ele><time>2026-03-26T17:27:33.999Z</time></trkpt><trkpt lat="36.9025088896929" lon="15.03913507870478"><ele>211.0</ele><time>2026-03-26T17:27:34.999Z</time></trkpt><trkpt lat="36.902583984019316" lon="15.038982039863972"><ele>212.0</ele><time>2026-03-26T17:27:35.999Z</time></trkpt><trkpt lat="36.90265199226337" lon="15.03883748226399"><ele>213.0</ele><time>2026-03-26T17:27:36.999Z</time></trkpt><trkpt lat="36.90271572322595" lon="15.038714706652614"><ele>214.0</ele><time>2026-03-26T17:27:37.999Z</time></trkpt><trkpt lat="36.90277210115641" lon="15.03861453810146"><ele>213.99999999999997</ele><time>2026-03-26T17:27:38.999Z</time></trkpt><trkpt lat="36.90281835048435" lon="15.038528268998547"><ele>214.0</ele><time>2026-03-26T17:27:39.999Z</time></trkpt><trkpt lat="36.90286681215425" lon="15.0384398408161"><ele>214.0</ele><time>2026-03-26T17:27:40.999Z</time></trkpt><trkpt lat="36.90290906637412" lon="15.038362032457155"><ele>214.0</ele><time>2026-03-26T17:27:41.999Z</time></trkpt><trkpt lat="36.90294949802273" lon="15.038284719232298"><ele>213.99999999999997</ele><time>2026-03-26T17:27:42.999Z</time></trkpt><trkpt lat="36.90299121151896" lon="15.038206642252211"><ele>214.0</ele><time>2026-03-26T17:27:43.999Z</time></trkpt><trkpt lat="36.90303081784984" lon="15.038120479408404"><ele>215.2</ele><time>2026-03-26T17:27:44.999Z</time></trkpt><trkpt lat="36.90307726226563" lon="15.038026824595228"><ele>216.39999999999998</ele><time>2026-03-26T17:27:45.999Z</time></trkpt><trkpt lat="36.90312692118123" lon="15.03792434927494"><ele>217.6</ele><time>2026-03-26T17:27:46.999Z</time></trkpt><trkpt lat="36.90318027524609" lon="15.037828451298124"><ele>218.8</ele><time>2026-03-26T17:27:47.999Z</time></trkpt><trkpt lat="36.90322728015096" lon="15.037742207652984"><ele>220.0</ele><time>2026-03-26T17:27:49Z</time></trkpt><trkpt lat="36.90327679891544" lon="15.037650148944282"><ele>220.0</ele><time>2026-03-26T17:27:50Z</time></trkpt><trkpt lat="36.9033297237946" lon="15.03754920877984"><ele>220.0</ele><time>2026-03-26T17:27:51Z</time></trkpt><trkpt lat="36.9033837287892" lon="15.03744026332514"><ele>220.0</ele><time>2026-03-26T17:27:52Z</time></trkpt><trkpt lat="36.90343898491721" lon="15.037335981645818"><ele>220.0</ele><time>2026-03-26T17:27:53Z</time></trkpt><trkpt lat="36.90349145603568" lon="15.037231071512643"><ele>220.0</ele><time>2026-03-26T17:27:54Z</time></trkpt><trkpt lat="36.90354109284186" lon="15.037131184413287"><ele>222.0</ele><time>2026-03-26T17:27:55Z</time></trkpt><trkpt lat="36.90359073695015" lon="15.037033073925112"><ele>224.0</ele><time>2026-03-26T17:27:56Z</time></trkpt><trkpt lat="36.903641780230465" lon="15.036930531709027"><ele>226.0</ele><time>2026-03-26T17:27:57Z</time></trkpt><trkpt lat="36.903694894009135" lon="15.036826705743943"><ele>228.0</ele><time>2026-03-26T17:27:58Z</time></trkpt><trkpt lat="36.903752439738206" lon="15.036719250916741"><ele>230.0</ele><time>2026-03-26T17:27:59Z</time></trkpt><trkpt lat="36.90380901111847" lon="15.036604881006383"><ele>230.8</ele><time>2026-03-26T17:28:00Z</time></trkpt><trkpt lat="36.90386091652838" lon="15.036496903100483"><ele>231.6</ele><time>2026-03-26T17:28:01Z</time></trkpt><trkpt lat="36.903912956703465" lon="15.036391693656576"><ele>232.39999999999998</ele><time>2026-03-26T17:28:02Z</time></trkpt><trkpt lat="36.903965401634665" lon="15.036288950976795"><ele>233.2</ele><time>2026-03-26T17:28:03Z</time></trkpt><trkpt lat="36.90402228055158" lon="15.036173123779704"><ele>234.0</ele><time>2026-03-26T17:28:04Z</time></trkpt><trkpt lat="36.904088834951125" lon="15.036043540262309"><ele>234.0</ele><time>2026-03-26T17:28:05Z</time></trkpt><trkpt lat="36.90416155922241" lon="15.035891580081781"><ele>234.0</ele><time>2026-03-26T17:28:06Z</time></trkpt><trkpt lat="36.90424721337136" lon="15.035733815323269"><ele>234.0</ele><time>2026-03-26T17:28:07Z</time></trkpt><trkpt lat="36.904341416947304" lon="15.035563609094124"><ele>235.66666666666669</ele><time>2026-03-26T17:28:08Z</time></trkpt><trkpt lat="36.9044436130402" lon="15.035379944740145"><ele>237.33333333333334</ele><time>2026-03-26T17:28:09Z</time></trkpt><trkpt lat="36.90454880512021" lon="15.035194332955317"><ele>239.0</ele><time>2026-03-26T17:28:10Z</time></trkpt><trkpt lat="36.90465888607993" lon="15.035008187191886"><ele>239.33333333333334</ele><time>2026-03-26T17:28:11Z</time></trkpt><trkpt lat="36.90477402682609" lon="15.034818400464987"><ele>239.66666666666669</ele><time>2026-03-26T17:28:12Z</time></trkpt><trkpt lat="36.90489433205243" lon="15.034631310294982"><ele>240.0</ele><time>2026-03-26T17:28:13Z</time></trkpt><trkpt lat="36.90501796568538" lon="15.034452974194346"><ele>240.33333333333331</ele><time>2026-03-26T17:28:14Z</time></trkpt><trkpt lat="36.90514715783477" lon="15.034285087687438"><ele>240.66666666666666</ele><time>2026-03-26T17:28:15Z</time></trkpt><trkpt lat="36.90528467055768" lon="15.034133370954578"><ele>241.0</ele><time>2026-03-26T17:28:16Z</time></trkpt><trkpt lat="36.90543038958137" lon="15.03399041706377"><ele>241.66666666666666</ele><time>2026-03-26T17:28:17Z</time></trkpt><trkpt lat="36.905576609453036" lon="15.033857883250315"><ele>242.33333333333331</ele><time>2026-03-26T17:28:18Z</time></trkpt><trkpt lat="36.905709963936836" lon="15.033737659088342"><ele>243.0</ele><time>2026-03-26T17:28:19Z</time></trkpt><trkpt lat="36.90583305149926" lon="15.033621756411964"><ele>242.33333333333331</ele><time>2026-03-26T17:28:20Z</time></trkpt><trkpt lat="36.9059600779679" lon="15.033485957267736"><ele>241.66666666666666</ele><time>2026-03-26T17:28:21Z</time></trkpt><trkpt lat="36.90608661280656" lon="15.03331900465645"><ele>241.0</ele><time>2026-03-26T17:28:22Z</time></trkpt><trkpt lat="36.90621274718521" lon="15.033134640484171"><ele>243.0</ele><time>2026-03-26T17:28:23Z</time></trkpt><trkpt lat="36.90633507321363" lon="15.032943416627202"><ele>245.0</ele><time>2026-03-26T17:28:24Z</time></trkpt><trkpt lat="36.90645328269888" lon="15.03274025419227"><ele>247.0</ele><time>2026-03-26T17:28:25Z</time></trkpt><trkpt lat="36.90656640560754" lon="15.032528948722675"><ele>247.66666666666666</ele><time>2026-03-26T17:28:26Z</time></trkpt><trkpt lat="36.906676802526796" lon="15.032318134717377"><ele>248.33333333333331</ele><time>2026-03-26T17:28:27Z</time></trkpt><trkpt lat="36.90679148804972" lon="15.032098384833727"><ele>249.0</ele><time>2026-03-26T17:28:28Z</time></trkpt><trkpt lat="36.90689980409272" lon="15.031869866132489"><ele>249.66666666666669</ele><time>2026-03-26T17:28:29Z</time></trkpt><trkpt lat="36.90700172613577" lon="15.031641944298034"><ele>250.33333333333334</ele><time>2026-03-26T17:28:30Z</time></trkpt><trkpt lat="36.90709942571436" lon="15.031416570268808"><ele>251.0</ele><time>2026-03-26T17:28:31Z</time></trkpt><trkpt lat="36.90719013204609" lon="15.031210377885662"><ele>252.66666666666669</ele><time>2026-03-26T17:28:32Z</time></trkpt><trkpt lat="36.90727003062357" lon="15.031010611483136"><ele>254.33333333333331</ele><time>2026-03-26T17:28:33Z</time></trkpt><trkpt lat="36.90733867504897" lon="15.030812529973048"><ele>256.0</ele><time>2026-03-26T17:28:34Z</time></trkpt><trkpt lat="36.90739084537954" lon="15.030632566722387"><ele>257.25</ele><time>2026-03-26T17:28:35Z</time></trkpt><trkpt lat="36.90743763119904" lon="15.03047003604881"><ele>258.5</ele><time>2026-03-26T17:28:36Z</time></trkpt><trkpt lat="36.90748214161121" lon="15.030318826016073"><ele>259.75</ele><time>2026-03-26T17:28:37Z</time></trkpt><trkpt lat="36.90752371877112" lon="15.030173796760769"><ele>261.0</ele><time>2026-03-26T17:28:38Z</time></trkpt><trkpt lat="36.90755912049319" lon="15.030051949038475"><ele>262.6666666666667</ele><time>2026-03-26T17:28:39Z</time></trkpt><trkpt lat="36.90757963649151" lon="15.029932800467549"><ele>264.3333333333333</ele><time>2026-03-26T17:28:40Z</time></trkpt><trkpt lat="36.907598233156904" lon="15.029827855030538"><ele>266.0</ele><time>2026-03-26T17:28:41Z</time></trkpt><trkpt lat="36.90762805223518" lon="15.029748576003067"><ele>267.66666666666663</ele><time>2026-03-26T17:28:42Z</time></trkpt><trkpt lat="36.90766735206498" lon="15.029660180417313"><ele>269.3333333333333</ele><time>2026-03-26T17:28:43Z</time></trkpt><trkpt lat="36.90771240281788" lon="15.029559899916668"><ele>271.0</ele><time>2026-03-26T17:28:44Z</time></trkpt><trkpt lat="36.90775492792635" lon="15.029451287649094"><ele>271.0</ele><time>2026-03-26T17:28:45Z</time></trkpt><trkpt lat="36.90779169623415" lon="15.029335414748711"><ele>271.0</ele><time>2026-03-26T17:28:46Z</time></trkpt><trkpt lat="36.907829232177114" lon="15.029212207358299"><ele>271.0</ele><time>2026-03-26T17:28:47Z</time></trkpt><trkpt lat="36.907860400354956" lon="15.029090449518762"><ele>271.0</ele><time>2026-03-26T17:28:48Z</time></trkpt><trkpt lat="36.907887106461054" lon="15.029006679672774"><ele>271.0</ele><time>2026-03-26T17:28:49Z</time></trkpt><trkpt lat="36.90793101421538" lon="15.028888690048571"><ele>273.2</ele><time>2026-03-26T17:28:51Z</time></trkpt><trkpt lat="36.90800809445837" lon="15.028832953266365"><ele>275.40000000000003</ele><time>2026-03-26T17:28:54Z</time></trkpt><trkpt lat="36.90812251581983" lon="15.028839554333096"><ele>277.6</ele><time>2026-03-26T17:28:56Z</time></trkpt><trkpt lat="36.908252984793705" lon="15.028846372397846"><ele>279.8</ele><time>2026-03-26T17:28:58Z</time></trkpt><trkpt lat="36.90831564474901" lon="15.028832602781792"><ele>282.0</ele><time>2026-03-26T17:28:59Z</time></trkpt><trkpt lat="36.908378634226125" lon="15.028795344076991"><ele>281.3333333333333</ele><time>2026-03-26T17:29:00Z</time></trkpt><trkpt lat="36.90844971145704" lon="15.028743843409753"><ele>280.6666666666667</ele><time>2026-03-26T17:29:01Z</time></trkpt><trkpt lat="36.90852910613904" lon="15.028683647406647"><ele>280.0</ele><time>2026-03-26T17:29:02Z</time></trkpt><trkpt lat="36.908608796597555" lon="15.028640085592949"><ele>279.33333333333337</ele><time>2026-03-26T17:29:03Z</time></trkpt><trkpt lat="36.90868194324234" lon="15.028597989558445"><ele>278.6666666666667</ele><time>2026-03-26T17:29:04Z</time></trkpt><trkpt lat="36.908746529604656" lon="15.028550553528087"><ele>278.0</ele><time>2026-03-26T17:29:05Z</time></trkpt><trkpt lat="36.90879072526346" lon="15.028465928903096"><ele>278.0</ele><time>2026-03-26T17:29:06Z</time></trkpt><trkpt lat="36.90885999767471" lon="15.028409249799505"><ele>278.0</ele><time>2026-03-26T17:29:07Z</time></trkpt><trkpt lat="36.90892661867257" lon="15.028333161295881"><ele>278.0</ele><time>2026-03-26T17:29:08Z</time></trkpt><trkpt lat="36.908991142479934" lon="15.028253418971104"><ele>278.0</ele><time>2026-03-26T17:29:09Z</time></trkpt><trkpt lat="36.909057963114286" lon="15.028181810510878"><ele>278.0</ele><time>2026-03-26T17:29:10Z</time></trkpt><trkpt lat="36.909122625687004" lon="15.028106278341015"><ele>278.0</ele><time>2026-03-26T17:29:11Z</time></trkpt><trkpt lat="36.90917928568062" lon="15.028025411996937"><ele>280.33333333333337</ele><time>2026-03-26T17:29:12Z</time></trkpt><trkpt lat="36.90923335322389" lon="15.027945735032587"><ele>282.6666666666667</ele><time>2026-03-26T17:29:13Z</time></trkpt><trkpt lat="36.90929299023314" lon="15.027872810093564"><ele>285.0</ele><time>2026-03-26T17:29:14Z</time></trkpt><trkpt lat="36.90936256860805" lon="15.027812336613566"><ele>287.3333333333333</ele><time>2026-03-26T17:29:15Z</time></trkpt><trkpt lat="36.90943452987259" lon="15.02775374569067"><ele>289.66666666666663</ele><time>2026-03-26T17:29:16Z</time></trkpt><trkpt lat="36.90950413006335" lon="15.027699296618586"><ele>292.0</ele><time>2026-03-26T17:29:17Z</time></trkpt><trkpt lat="36.90956369189556" lon="15.0276531011574"><ele>292.0</ele><time>2026-03-26T17:29:18Z</time></trkpt><trkpt lat="36.90963818323737" lon="15.027641455953352"><ele>292.0</ele><time>2026-03-26T17:29:19Z</time></trkpt><trkpt lat="36.90971969595401" lon="15.027632305363884"><ele>292.0</ele><time>2026-03-26T17:29:20Z</time></trkpt><trkpt lat="36.90980078109724" lon="15.027621218064082"><ele>292.0</ele><time>2026-03-26T17:29:21Z</time></trkpt><trkpt lat="36.909892150714576" lon="15.027625327816423"><ele>292.0</ele><time>2026-03-26T17:29:22Z</time></trkpt><trkpt lat="36.909994366036756" lon="15.027619104084946"><ele>292.0</ele><time>2026-03-26T17:29:23Z</time></trkpt><trkpt lat="36.91009585644649" lon="15.027629949785117"><ele>291.16666666666663</ele><time>2026-03-26T17:29:24Z</time></trkpt><trkpt lat="36.910186186307676" lon="15.027608639541185"><ele>290.3333333333333</ele><time>2026-03-26T17:29:25Z</time></trkpt><trkpt lat="36.91027575958626" lon="15.027609050840514"><ele>289.5</ele><time>2026-03-26T17:29:26Z</time></trkpt><trkpt lat="36.91036924422369" lon="15.027606545777525"><ele>288.6666666666667</ele><time>2026-03-26T17:29:27Z</time></trkpt><trkpt lat="36.91044477619216" lon="15.027586781590871"><ele>287.83333333333337</ele><time>2026-03-26T17:29:28Z</time></trkpt><trkpt lat="36.91050651986202" lon="15.027555918539782"><ele>287.0</ele><time>2026-03-26T17:29:29Z</time></trkpt><trkpt lat="36.91056801023397" lon="15.027509635438243"><ele>288.33333333333337</ele><time>2026-03-26T17:29:30Z</time></trkpt><trkpt lat="36.91064176186868" lon="15.027454005745883"><ele>289.6666666666667</ele><time>2026-03-26T17:29:31Z</time></trkpt><trkpt lat="36.910718193165536" lon="15.02739733153497"><ele>291.0</ele><time>2026-03-26T17:29:32Z</time></trkpt><trkpt lat="36.910783531078366" lon="15.027360856232937"><ele>292.3333333333333</ele><time>2026-03-26T17:29:33Z</time></trkpt><trkpt lat="36.9108472380103" lon="15.027316376006594"><ele>293.66666666666663</ele><time>2026-03-26T17:29:34Z</time></trkpt><trkpt lat="36.91090237402452" lon="15.027251767997772"><ele>295.0</ele><time>2026-03-26T17:29:35Z</time></trkpt><trkpt lat="36.91094709128523" lon="15.027178193153196"><ele>295.0</ele><time>2026-03-26T17:29:36Z</time></trkpt><trkpt lat="36.91099183247632" lon="15.027098195203061"><ele>295.0</ele><time>2026-03-26T17:29:37Z</time></trkpt><trkpt lat="36.91105559667328" lon="15.02703628440104"><ele>295.0</ele><time>2026-03-26T17:29:38Z</time></trkpt><trkpt lat="36.911118832688864" lon="15.026982803482747"><ele>295.0</ele><time>2026-03-26T17:29:38.999Z</time></trkpt><trkpt lat="36.911218780695165" lon="15.026913107749698"><ele>295.0</ele><time>2026-03-26T17:29:40.999Z</time></trkpt><trkpt lat="36.91133738539715" lon="15.026855563216484"><ele>295.0</ele><time>2026-03-26T17:29:42.999Z</time></trkpt><trkpt lat="36.91140056614497" lon="15.02682227919369"><ele>295.0</ele><time>2026-03-26T17:29:43.999Z</time></trkpt><trkpt lat="36.911479366905944" lon="15.026788219220046"><ele>295.0</ele><time>2026-03-26T17:29:44.999Z</time></trkpt><trkpt lat="36.91155662839842" lon="15.026763215025426"><ele>295.0</ele><time>2026-03-26T17:29:45.999Z</time></trkpt><trkpt lat="36.9116331130612" lon="15.02675408376145"><ele>295.0</ele><time>2026-03-26T17:29:46.999Z</time></trkpt><trkpt lat="36.91172895166074" lon="15.02674356776476"><ele>295.0</ele><time>2026-03-26T17:29:47.999Z</time></trkpt><trkpt lat="36.91183882993712" lon="15.026741477537257"><ele>294.8</ele><time>2026-03-26T17:29:48.999Z</time></trkpt><trkpt lat="36.91194950955459" lon="15.026730470432124"><ele>294.6</ele><time>2026-03-26T17:29:49.999Z</time></trkpt><trkpt lat="36.9120517196264" lon="15.026728031065236"><ele>294.4</ele><time>2026-03-26T17:29:50.999Z</time></trkpt><trkpt lat="36.91215362420981" lon="15.026695460284376"><ele>294.2</ele><time>2026-03-26T17:29:51.999Z</time></trkpt><trkpt lat="36.91226097314034" lon="15.026693460301601"><ele>294.0</ele><time>2026-03-26T17:29:52.999Z</time></trkpt><trkpt lat="36.912367549932604" lon="15.02667537873939"><ele>297.59999999999997</ele><time>2026-03-26T17:29:53.999Z</time></trkpt><trkpt lat="36.91246892615638" lon="15.026631111266385"><ele>301.2</ele><time>2026-03-26T17:29:55Z</time></trkpt><trkpt lat="36.912570697748656" lon="15.026604817162196"><ele>304.79999999999995</ele><time>2026-03-26T17:29:56Z</time></trkpt><trkpt lat="36.91266708418998" lon="15.026558010204129"><ele>308.4</ele><time>2026-03-26T17:29:57Z</time></trkpt><trkpt lat="36.91275338117439" lon="15.026514167033042"><ele>312.0</ele><time>2026-03-26T17:29:58Z</time></trkpt><trkpt lat="36.91283740839833" lon="15.02647110941765"><ele>312.0</ele><time>2026-03-26T17:29:59Z</time></trkpt><trkpt lat="36.912921096493776" lon="15.02643727420315"><ele>312.0</ele><time>2026-03-26T17:30:00Z</time></trkpt><trkpt lat="36.91299993067454" lon="15.026382170780922"><ele>312.0</ele><time>2026-03-26T17:30:01Z</time></trkpt><trkpt lat="36.91308528022117" lon="15.026343777320601"><ele>312.0</ele><time>2026-03-26T17:30:02Z</time></trkpt><trkpt lat="36.913175669011544" lon="15.02632477174691"><ele>312.0</ele><time>2026-03-26T17:30:03Z</time></trkpt><trkpt lat="36.91326319459879" lon="15.026289553601362"><ele>312.0</ele><time>2026-03-26T17:30:04Z</time></trkpt><trkpt lat="36.91334241391682" lon="15.02623504619293"><ele>312.0</ele><time>2026-03-26T17:30:05Z</time></trkpt><trkpt lat="36.91342030926258" lon="15.026199605199668"><ele>312.0</ele><time>2026-03-26T17:30:06Z</time></trkpt><trkpt lat="36.91349757779701" lon="15.026155304726572"><ele>312.0</ele><time>2026-03-26T17:30:07Z</time></trkpt><trkpt lat="36.91357880553135" lon="15.02612506167733"><ele>312.0</ele><time>2026-03-26T17:30:08Z</time></trkpt><trkpt lat="36.91365610163626" lon="15.026099354182383"><ele>312.0</ele><time>2026-03-26T17:30:09Z</time></trkpt><trkpt lat="36.913736144745975" lon="15.026056184828859"><ele>310.8</ele><time>2026-03-26T17:30:10Z</time></trkpt><trkpt lat="36.913811023261985" lon="15.026047358481025"><ele>309.6</ele><time>2026-03-26T17:30:11Z</time></trkpt><trkpt lat="36.913943369132944" lon="15.026010409576845"><ele>308.40000000000003</ele><time>2026-03-26T17:30:13Z</time></trkpt><trkpt lat="36.91403347150759" lon="15.025992912864073"><ele>307.2</ele><time>2026-03-26T17:30:14Z</time></trkpt><trkpt lat="36.914139989691115" lon="15.025961779403696"><ele>306.0</ele><time>2026-03-26T17:30:15Z</time></trkpt><trkpt lat="36.914235122749275" lon="15.025966868628334"><ele>305.1666666666667</ele><time>2026-03-26T17:30:16Z</time></trkpt><trkpt lat="36.91430446813158" lon="15.025943890267202"><ele>304.3333333333333</ele><time>2026-03-26T17:30:17Z</time></trkpt><trkpt lat="36.91437195230456" lon="15.025947790234031"><ele>303.5</ele><time>2026-03-26T17:30:18Z</time></trkpt><trkpt lat="36.914437104193006" lon="15.025935842311517"><ele>302.66666666666663</ele><time>2026-03-26T17:30:19Z</time></trkpt><trkpt lat="36.91451628866614" lon="15.025921611823543"><ele>301.8333333333333</ele><time>2026-03-26T17:30:20Z</time></trkpt><trkpt lat="36.91459928763253" lon="15.025918015698277"><ele>301.0</ele><time>2026-03-26T17:30:21Z</time></trkpt><trkpt lat="36.914682518749416" lon="15.02590639538983"><ele>301.0</ele><time>2026-03-26T17:30:22Z</time></trkpt><trkpt lat="36.914761463479344" lon="15.025879385608661"><ele>301.0</ele><time>2026-03-26T17:30:23Z</time></trkpt><trkpt lat="36.91485663630181" lon="15.025853127462776"><ele>301.0</ele><time>2026-03-26T17:30:24Z</time></trkpt><trkpt lat="36.91495245382284" lon="15.025824114198477"><ele>301.0</ele><time>2026-03-26T17:30:25Z</time></trkpt><trkpt lat="36.91504185176826" lon="15.025798309677098"><ele>301.0</ele><time>2026-03-26T17:30:26Z</time></trkpt><trkpt lat="36.91512822662313" lon="15.025774705893445"><ele>304.0</ele><time>2026-03-26T17:30:27Z</time></trkpt><trkpt lat="36.91521377865945" lon="15.02576063720242"><ele>307.0</ele><time>2026-03-26T17:30:28Z</time></trkpt><trkpt lat="36.91529264917357" lon="15.025748359154223"><ele>310.0</ele><time>2026-03-26T17:30:29Z</time></trkpt><trkpt lat="36.915358099077274" lon="15.02573393103516"><ele>313.0</ele><time>2026-03-26T17:30:30Z</time></trkpt><trkpt lat="36.915434633725006" lon="15.025731324721853"><ele>316.0</ele><time>2026-03-26T17:30:31Z</time></trkpt><trkpt lat="36.91550156531784" lon="15.025721356418678"><ele>319.0</ele><time>2026-03-26T17:30:32Z</time></trkpt><trkpt lat="36.915589708167396" lon="15.025722892411906"><ele>319.0</ele><time>2026-03-26T17:30:34Z</time></trkpt><trkpt lat="36.915656342898046" lon="15.025689853900916"><ele>319.0</ele><time>2026-03-26T17:30:39Z</time></trkpt><trkpt lat="36.91577238380731" lon="15.025698249628391"><ele>319.0</ele><time>2026-03-26T17:30:41Z</time></trkpt><trkpt lat="36.91583616319541" lon="15.02567892952702"><ele>319.0</ele><time>2026-03-26T17:30:43Z</time></trkpt><trkpt lat="36.915924068767836" lon="15.02569404513386"><ele>319.0</ele><time>2026-03-26T17:30:50Z</time></trkpt><trkpt lat="36.91602684515572" lon="15.025678785534257"><ele>319.0</ele><time>2026-03-26T17:30:52Z</time></trkpt><trkpt lat="36.91610097004051" lon="15.025714202456145"><ele>319.4</ele><time>2026-03-26T17:30:54Z</time></trkpt><trkpt lat="36.91617136888603" lon="15.025737441502331"><ele>319.79999999999995</ele><time>2026-03-26T17:30:56Z</time></trkpt><trkpt lat="36.916264547458944" lon="15.025758179838117"><ele>320.20000000000005</ele><time>2026-03-26T17:30:58Z</time></trkpt><trkpt lat="36.91637038391296" lon="15.025772985264684"><ele>320.6</ele><time>2026-03-26T17:31:00Z</time></trkpt><trkpt lat="36.91647137368018" lon="15.025790598690742"><ele>321.0</ele><time>2026-03-26T17:31:02Z</time></trkpt><trkpt lat="36.916570551909814" lon="15.025803976127541"><ele>318.0</ele><time>2026-03-26T17:31:04Z</time></trkpt><trkpt lat="36.916669525005545" lon="15.025822289030728"><ele>315.0</ele><time>2026-03-26T17:31:06Z</time></trkpt><trkpt lat="36.91673515993434" lon="15.025843730423874"><ele>312.0</ele><time>2026-03-26T17:31:08Z</time></trkpt><trkpt lat="36.91680505499624" lon="15.025862000737519"><ele>309.0</ele><time>2026-03-26T17:31:10Z</time></trkpt><trkpt lat="36.91687839896014" lon="15.025882441633374"><ele>306.0</ele><time>2026-03-26T17:31:12Z</time></trkpt><trkpt lat="36.91694992634517" lon="15.025887832462454"><ele>303.0</ele><time>2026-03-26T17:31:14Z</time></trkpt><trkpt lat="36.91701607286199" lon="15.025898254316735"><ele>303.0</ele><time>2026-03-26T17:31:16Z</time></trkpt><trkpt lat="36.91709090773452" lon="15.025899754086712"><ele>303.0</ele><time>2026-03-26T17:31:18Z</time></trkpt><trkpt lat="36.91717337441204" lon="15.02589761520067"><ele>303.0</ele><time>2026-03-26T17:31:21Z</time></trkpt><trkpt lat="36.917252627966626" lon="15.025906980899801"><ele>303.0</ele><time>2026-03-26T17:31:24Z</time></trkpt><trkpt lat="36.91731531783885" lon="15.02592719632597"><ele>303.0</ele><time>2026-03-26T17:31:27Z</time></trkpt><trkpt lat="36.91738554268722" lon="15.025962642571026"><ele>303.0</ele><time>2026-03-26T17:31:31Z</time></trkpt><trkpt lat="36.91744765286737" lon="15.025985692187428"><ele>303.0</ele><time>2026-03-26T17:31:34Z</time></trkpt><trkpt lat="36.917513507007286" lon="15.026008307373083"><ele>302.6666666666667</ele><time>2026-03-26T17:31:37Z</time></trkpt><trkpt lat="36.91758078190756" lon="15.026024023660106"><ele>302.3333333333333</ele><time>2026-03-26T17:31:39Z</time></trkpt><trkpt lat="36.91765353218553" lon="15.026057414894272"><ele>302.0</ele><time>2026-03-26T17:31:42Z</time></trkpt><trkpt lat="36.91773181780893" lon="15.026055278342254"><ele>301.66666666666663</ele><time>2026-03-26T17:31:44Z</time></trkpt><trkpt lat="36.91782050805956" lon="15.02607036157748"><ele>301.3333333333333</ele><time>2026-03-26T17:31:47Z</time></trkpt><trkpt lat="36.9179007325226" lon="15.026095015006593"><ele>301.0</ele><time>2026-03-26T17:31:49.999Z</time></trkpt><trkpt lat="36.917955962107804" lon="15.026134103178707"><ele>301.0</ele><time>2026-03-26T17:31:51.999Z</time></trkpt><trkpt lat="36.91803599695452" lon="15.026142416331929"><ele>301.0</ele><time>2026-03-26T17:31:54.999Z</time></trkpt><trkpt lat="36.918123418752316" lon="15.02617367759113"><ele>301.0</ele><time>2026-03-26T17:31:57.999Z</time></trkpt><trkpt lat="36.918186316892815" lon="15.02619743409643"><ele>301.0</ele><time>2026-03-26T17:31:59.999Z</time></trkpt><trkpt lat="36.918256107381225" lon="15.026209852438834"><ele>301.0</ele><time>2026-03-26T17:32:02Z</time></trkpt><trkpt lat="36.91834716439805" lon="15.026228802688852"><ele>301.0</ele><time>2026-03-26T17:32:04Z</time></trkpt><trkpt lat="36.918419790328294" lon="15.02623936447067"><ele>300.40000000000003</ele><time>2026-03-26T17:32:06Z</time></trkpt><trkpt lat="36.91850805507356" lon="15.026215693969226"><ele>299.8</ele><time>2026-03-26T17:32:08Z</time></trkpt><trkpt lat="36.9186032187629" lon="15.02621020009791"><ele>299.20000000000005</ele><time>2026-03-26T17:32:10Z</time></trkpt><trkpt lat="36.918705872515325" lon="15.026218340223668"><ele>298.6</ele><time>2026-03-26T17:32:12Z</time></trkpt><trkpt lat="36.9188040459506" lon="15.02620814690594"><ele>298.0</ele><time>2026-03-26T17:32:14Z</time></trkpt><trkpt lat="36.918905950546595" lon="15.026219586234815"><ele>298.0</ele><time>2026-03-26T17:32:16Z</time></trkpt><trkpt lat="36.91899696962201" lon="15.026230725688718"><ele>298.0</ele><time>2026-03-26T17:32:19Z</time></trkpt><trkpt lat="36.919065072709344" lon="15.026227058512793"><ele>298.0</ele><time>2026-03-26T17:32:21Z</time></trkpt><trkpt lat="36.91915113558489" lon="15.026194573962062"><ele>298.0</ele><time>2026-03-26T17:32:23Z</time></trkpt><trkpt lat="36.919260761315165" lon="15.026166006080699"><ele>298.0</ele><time>2026-03-26T17:32:25Z</time></trkpt><trkpt lat="36.91935461524576" lon="15.026127225002146"><ele>297.6</ele><time>2026-03-26T17:32:27Z</time></trkpt><trkpt lat="36.91942604655585" lon="15.026129701485647"><ele>297.20000000000005</ele><time>2026-03-26T17:32:29Z</time></trkpt><trkpt lat="36.919535354136436" lon="15.02609635154846"><ele>296.8</ele><time>2026-03-26T17:32:32Z</time></trkpt><trkpt lat="36.91962153722578" lon="15.026080705065201"><ele>296.40000000000003</ele><time>2026-03-26T17:32:33Z</time></trkpt><trkpt lat="36.919743329373695" lon="15.026071771175426"><ele>296.0</ele><time>2026-03-26T17:32:35Z</time></trkpt><trkpt lat="36.91980849816712" lon="15.026070767120032"><ele>296.0</ele><time>2026-03-26T17:32:36Z</time></trkpt><trkpt lat="36.91983680933855" lon="15.025941559723185"><ele>296.0</ele><time>2026-03-26T17:32:37Z</time></trkpt><trkpt lat="36.919907055283204" lon="15.02591085717671"><ele>296.0</ele><time>2026-03-26T17:32:38Z</time></trkpt><trkpt lat="36.91997054488256" lon="15.025883107715254"><ele>296.0</ele><time>2026-03-26T17:32:39Z</time></trkpt><trkpt lat="36.92008118075845" lon="15.025835242400353"><ele>296.0</ele><time>2026-03-26T17:32:41Z</time></trkpt><trkpt lat="36.92017444073914" lon="15.025795852803132"><ele>299.40000000000003</ele><time>2026-03-26T17:32:43Z</time></trkpt><trkpt lat="36.92026842981564" lon="15.02575615527054"><ele>302.8</ele><time>2026-03-26T17:32:45Z</time></trkpt><trkpt lat="36.920335190024936" lon="15.025727958217194"><ele>306.20000000000005</ele><time>2026-03-26T17:32:46Z</time></trkpt><trkpt lat="36.92045185614156" lon="15.025678682726449"><ele>309.6</ele><time>2026-03-26T17:32:48Z</time></trkpt><trkpt lat="36.92055507147314" lon="15.02563117773626"><ele>313.0</ele><time>2026-03-26T17:32:50Z</time></trkpt><trkpt lat="36.92066653193809" lon="15.025553551315118"><ele>313.0</ele><time>2026-03-26T17:32:53Z</time></trkpt><trkpt lat="36.92071644304592" lon="15.025497610159974"><ele>313.0</ele><time>2026-03-26T17:32:55Z</time></trkpt><trkpt lat="36.920781283467036" lon="15.025447466655494"><ele>313.0</ele><time>2026-03-26T17:32:57Z</time></trkpt><trkpt lat="36.9210845727501" lon="15.025878903926563"><ele>309.0</ele><time>2026-03-26T17:32:59Z</time></trkpt><trkpt lat="36.92114479860394" lon="15.025836101115152"><ele>305.0</ele><time>2026-03-26T17:33:01Z</time></trkpt><trkpt lat="36.92122080477411" lon="15.025788899787312"><ele>301.0</ele><time>2026-03-26T17:33:04Z</time></trkpt><trkpt lat="36.92128213765476" lon="15.025702577634123"><ele>297.0</ele><time>2026-03-26T17:33:07Z</time></trkpt><trkpt lat="36.92135668404546" lon="15.025657235759189"><ele>293.0</ele><time>2026-03-26T17:33:10Z</time></trkpt><trkpt lat="36.92143688733585" lon="15.025584037376"><ele>289.0</ele><time>2026-03-26T17:33:13Z</time></trkpt><trkpt lat="36.921508805308214" lon="15.025523783786687"><ele>289.0</ele><time>2026-03-26T17:33:15Z</time></trkpt><trkpt lat="36.92155629044443" lon="15.02547086012613"><ele>289.0</ele><time>2026-03-26T17:33:17Z</time></trkpt><trkpt lat="36.92162606641177" lon="15.025408124572081"><ele>289.0</ele><time>2026-03-26T17:33:19Z</time></trkpt><trkpt lat="36.92169427432449" lon="15.025342053166666"><ele>289.0</ele><time>2026-03-26T17:33:21Z</time></trkpt><trkpt lat="36.92175676474687" lon="15.0252725678432"><ele>289.0</ele><time>2026-03-26T17:33:23Z</time></trkpt><trkpt lat="36.92181090407927" lon="15.025193581369074"><ele>289.0</ele><time>2026-03-26T17:33:25Z</time></trkpt><trkpt lat="36.921873174595035" lon="15.025089689817667"><ele>290.0</ele><time>2026-03-26T17:33:27Z</time></trkpt><trkpt lat="36.92194480166001" lon="15.025013314903036"><ele>291.0</ele><time>2026-03-26T17:33:29Z</time></trkpt><trkpt lat="36.92203254671504" lon="15.024965849578757"><ele>292.0</ele><time>2026-03-26T17:33:31Z</time></trkpt><trkpt lat="36.92215263409276" lon="15.024925676009287"><ele>293.0</ele><time>2026-03-26T17:33:33Z</time></trkpt><trkpt lat="36.922219687724144" lon="15.02489753104207"><ele>294.0</ele><time>2026-03-26T17:33:34Z</time></trkpt><trkpt lat="36.92232675129878" lon="15.024867167566086"><ele>294.0</ele><time>2026-03-26T17:33:36Z</time></trkpt><trkpt lat="36.922436389419275" lon="15.024809556304293"><ele>294.0</ele><time>2026-03-26T17:33:38Z</time></trkpt><trkpt lat="36.922498456314514" lon="15.02477782441121"><ele>294.0</ele><time>2026-03-26T17:33:39Z</time></trkpt><trkpt lat="36.92258524756438" lon="15.024755417548125"><ele>294.0</ele><time>2026-03-26T17:33:41Z</time></trkpt><trkpt lat="36.922675847651185" lon="15.02475130187651"><ele>294.0</ele><time>2026-03-26T17:33:43Z</time></trkpt><trkpt lat="36.92274997132385" lon="15.02476760886365"><ele>294.0</ele><time>2026-03-26T17:33:45Z</time></trkpt><trkpt lat="36.92283046023481" lon="15.024769711215152"><ele>291.1666666666667</ele><time>2026-03-26T17:33:47Z</time></trkpt><trkpt lat="36.92289863835361" lon="15.024758577097867"><ele>288.3333333333333</ele><time>2026-03-26T17:33:48.999Z</time></trkpt><trkpt lat="36.922969482780836" lon="15.024775820715153"><ele>285.5</ele><time>2026-03-26T17:33:51.999Z</time></trkpt><trkpt lat="36.923033699226195" lon="15.0247900562204"><ele>282.66666666666663</ele><time>2026-03-26T17:33:53.999Z</time></trkpt><trkpt lat="36.9231113702253" lon="15.024798489777664"><ele>279.8333333333333</ele><time>2026-03-26T17:33:56.999Z</time></trkpt><trkpt lat="36.92317164029125" lon="15.024736496719715"><ele>277.0</ele><time>2026-03-26T17:33:59.999Z</time></trkpt><trkpt lat="36.923223065919345" lon="15.024630543624875"><ele>277.0</ele><time>2026-03-26T17:34:01.999Z</time></trkpt><trkpt lat="36.923289882650195" lon="15.02455885647316"><ele>277.0</ele><time>2026-03-26T17:34:03.999Z</time></trkpt><trkpt lat="36.92338501845691" lon="15.024533027995416"><ele>277.0</ele><time>2026-03-26T17:34:07Z</time></trkpt><trkpt lat="36.92345593817662" lon="15.02454489644617"><ele>277.0</ele><time>2026-03-26T17:34:09Z</time></trkpt><trkpt lat="36.9235219531845" lon="15.02453093070019"><ele>277.0</ele><time>2026-03-26T17:34:11Z</time></trkpt><trkpt lat="36.92361306312362" lon="15.024501554564726"><ele>277.0</ele><time>2026-03-26T17:34:13Z</time></trkpt><trkpt lat="36.92367405071987" lon="15.02447962708045"><ele>273.2</ele><time>2026-03-26T17:34:14Z</time></trkpt><trkpt lat="36.92374618941973" lon="15.0244494017761"><ele>269.4</ele><time>2026-03-26T17:34:15Z</time></trkpt><trkpt lat="36.92384369416588" lon="15.024407709219318"><ele>265.6</ele><time>2026-03-26T17:34:17Z</time></trkpt><trkpt lat="36.92393055142885" lon="15.024355880545231"><ele>261.8</ele><time>2026-03-26T17:34:19Z</time></trkpt><trkpt lat="36.924017937870474" lon="15.024307313251768"><ele>258.0</ele><time>2026-03-26T17:34:21Z</time></trkpt><trkpt lat="36.924108152686024" lon="15.02429007204211"><ele>258.0</ele><time>2026-03-26T17:34:23Z</time></trkpt><trkpt lat="36.924200294577794" lon="15.02430519341599"><ele>258.0</ele><time>2026-03-26T17:34:25Z</time></trkpt><trkpt lat="36.92427293973979" lon="15.024320051504517"><ele>258.0</ele><time>2026-03-26T17:34:27Z</time></trkpt><trkpt lat="36.924361992447665" lon="15.024308050622789"><ele>258.0</ele><time>2026-03-26T17:34:30Z</time></trkpt><trkpt lat="36.924450477036096" lon="15.02432618232124"><ele>258.0</ele><time>2026-03-26T17:34:32Z</time></trkpt><trkpt lat="36.92452117013177" lon="15.02433833451372"><ele>258.0</ele><time>2026-03-26T17:34:34Z</time></trkpt><trkpt lat="36.92460351874776" lon="15.024341981517116"><ele>255.2</ele><time>2026-03-26T17:34:36Z</time></trkpt><trkpt lat="36.924676282366676" lon="15.02435458307099"><ele>252.4</ele><time>2026-03-26T17:34:38Z</time></trkpt><trkpt lat="36.92476169889198" lon="15.024367397704086"><ele>249.59999999999997</ele><time>2026-03-26T17:34:40Z</time></trkpt><trkpt lat="36.92485093555666" lon="15.024370217415129"><ele>246.79999999999998</ele><time>2026-03-26T17:34:42Z</time></trkpt><trkpt lat="36.924959570598965" lon="15.024370228523114"><ele>244.0</ele><time>2026-03-26T17:34:44Z</time></trkpt><trkpt lat="36.925068526270714" lon="15.024370264273992"><ele>241.99999999999997</ele><time>2026-03-26T17:34:46Z</time></trkpt><trkpt lat="36.92516428784698" lon="15.024378916566974"><ele>240.0</ele><time>2026-03-26T17:34:48Z</time></trkpt><trkpt lat="36.92524547296672" lon="15.024394560734125"><ele>238.0</ele><time>2026-03-26T17:34:50Z</time></trkpt><trkpt lat="36.925316264118024" lon="15.02440772707697"><ele>236.0</ele><time>2026-03-26T17:34:52Z</time></trkpt><trkpt lat="36.92539014075915" lon="15.024427586365697"><ele>233.99999999999997</ele><time>2026-03-26T17:34:54Z</time></trkpt><trkpt lat="36.92545696777527" lon="15.024420231926301"><ele>232.0</ele><time>2026-03-26T17:34:56Z</time></trkpt><trkpt lat="36.925532440103645" lon="15.024409164932639"><ele>231.99999999999997</ele><time>2026-03-26T17:34:58Z</time></trkpt><trkpt lat="36.92561134515208" lon="15.02438973425363"><ele>232.0</ele><time>2026-03-26T17:35:00Z</time></trkpt><trkpt lat="36.9256753001658" lon="15.024402721823506"><ele>232.0</ele><time>2026-03-26T17:35:02Z</time></trkpt><trkpt lat="36.925758324724185" lon="15.024395991859903"><ele>232.0</ele><time>2026-03-26T17:35:04Z</time></trkpt><trkpt lat="36.925852132008956" lon="15.024358323565615"><ele>231.99999999999997</ele><time>2026-03-26T17:35:06Z</time></trkpt><trkpt lat="36.925948194237336" lon="15.02441859801753"><ele>232.0</ele><time>2026-03-26T17:35:07Z</time></trkpt><trkpt lat="36.92600741121489" lon="15.024374826991043"><ele>229.49999999999997</ele><time>2026-03-26T17:35:08Z</time></trkpt><trkpt lat="36.926065144622406" lon="15.024338709090475"><ele>227.0</ele><time>2026-03-26T17:35:10Z</time></trkpt><trkpt lat="36.92615019483856" lon="15.02431106829707"><ele>224.5</ele><time>2026-03-26T17:35:54Z</time></trkpt><trkpt lat="36.9262365018965" lon="15.02425675847686"><ele>222.0</ele><time>2026-03-26T17:35:55.999Z</time></trkpt><trkpt lat="36.92630021305116" lon="15.024216398558822"><ele>219.49999999999997</ele><time>2026-03-26T17:35:56.999Z</time></trkpt><trkpt lat="36.926372830653776" lon="15.024186170218353"><ele>217.0</ele><time>2026-03-26T17:35:57.999Z</time></trkpt><trkpt lat="36.926434801001456" lon="15.0241538841624"><ele>217.2</ele><time>2026-03-26T17:35:58.999Z</time></trkpt><trkpt lat="36.92654165659705" lon="15.024087228033485"><ele>217.39999999999998</ele><time>2026-03-26T17:36:00.999Z</time></trkpt><trkpt lat="36.926621766346905" lon="15.024036821387368"><ele>217.60000000000002</ele><time>2026-03-26T17:36:01.999Z</time></trkpt><trkpt lat="36.926728978812456" lon="15.023973084944926"><ele>217.8</ele><time>2026-03-26T17:36:02.999Z</time></trkpt><trkpt lat="36.926828690601134" lon="15.023921703523154"><ele>218.0</ele><time>2026-03-26T17:36:03.999Z</time></trkpt><trkpt lat="36.92690877539083" lon="15.023881490495954"><ele>218.00000000000003</ele><time>2026-03-26T17:36:04.999Z</time></trkpt><trkpt lat="36.92698709570623" lon="15.023842483399015"><ele>218.0</ele><time>2026-03-26T17:36:05.999Z</time></trkpt><trkpt lat="36.92706976042244" lon="15.023800316607241"><ele>218.0</ele><time>2026-03-26T17:36:06.999Z</time></trkpt><trkpt lat="36.92715779111128" lon="15.023753919614633"><ele>218.0</ele><time>2026-03-26T17:36:07.999Z</time></trkpt><trkpt lat="36.92723534911646" lon="15.023708314902626"><ele>218.00000000000003</ele><time>2026-03-26T17:36:08.999Z</time></trkpt><trkpt lat="36.92730747047319" lon="15.023667227475402"><ele>218.0</ele><time>2026-03-26T17:36:09.999Z</time></trkpt><trkpt lat="36.92737760703103" lon="15.02361256353521"><ele>218.0</ele><time>2026-03-26T17:36:10.999Z</time></trkpt><trkpt lat="36.927441730062974" lon="15.023535591940217"><ele>218.0</ele><time>2026-03-26T17:36:11.999Z</time></trkpt><trkpt lat="36.92749052680758" lon="15.023462655099605"><ele>218.0</ele><time>2026-03-26T17:36:13Z</time></trkpt><trkpt lat="36.9275323014043" lon="15.023392872061015"><ele>218.0</ele><time>2026-03-26T17:36:14Z</time></trkpt><trkpt lat="36.927570618068565" lon="15.023323531872666"><ele>218.0</ele><time>2026-03-26T17:36:15Z</time></trkpt><trkpt lat="36.92759625287721" lon="15.023244953184696"><ele>218.0</ele><time>2026-03-26T17:36:16Z</time></trkpt><trkpt lat="36.92760636150486" lon="15.02316411734798"><ele>218.0</ele><time>2026-03-26T17:36:17Z</time></trkpt><trkpt lat="36.92759947330443" lon="15.023080640133989"><ele>218.2</ele><time>2026-03-26T17:36:18Z</time></trkpt><trkpt lat="36.9276141696872" lon="15.022944527263848"><ele>218.4</ele><time>2026-03-26T17:36:20Z</time></trkpt><trkpt lat="36.92761562103388" lon="15.022846524747628"><ele>218.59999999999997</ele><time>2026-03-26T17:36:22Z</time></trkpt><trkpt lat="36.92762079080502" lon="15.022751424813071"><ele>218.79999999999998</ele><time>2026-03-26T17:36:24Z</time></trkpt><trkpt lat="36.927656698934086" lon="15.02264925273941"><ele>219.0</ele><time>2026-03-26T17:36:27Z</time></trkpt><trkpt lat="36.92773249069739" lon="15.022558152151525"><ele>219.0</ele><time>2026-03-26T17:36:29Z</time></trkpt><trkpt lat="36.92784005669116" lon="15.022527655900976"><ele>218.99999999999997</ele><time>2026-03-26T17:36:32Z</time></trkpt><trkpt lat="36.927915227068276" lon="15.022409494652088"><ele>218.99999999999997</ele><time>2026-03-26T17:36:34Z</time></trkpt><trkpt lat="36.92791931265199" lon="15.022312711920467"><ele>219.0</ele><time>2026-03-26T17:36:35Z</time></trkpt><trkpt lat="36.92791559426856" lon="15.022214562219837"><ele>219.0</ele><time>2026-03-26T17:36:36Z</time></trkpt><trkpt lat="36.92792737572084" lon="15.022121925070392"><ele>220.39999999999998</ele><time>2026-03-26T17:36:37Z</time></trkpt><trkpt lat="36.92801270286584" lon="15.022024107664354"><ele>221.79999999999998</ele><time>2026-03-26T17:36:39Z</time></trkpt><trkpt lat="36.928142095082855" lon="15.022033523009297"><ele>223.20000000000002</ele><time>2026-03-26T17:36:41Z</time></trkpt><trkpt lat="36.928227505330845" lon="15.022122187532746"><ele>224.60000000000002</ele><time>2026-03-26T17:36:42Z</time></trkpt><trkpt lat="36.928312670455945" lon="15.022166488583721"><ele>226.0</ele><time>2026-03-26T17:36:43Z</time></trkpt><trkpt lat="36.92839588094179" lon="15.022208516527899"><ele>226.66666666666666</ele><time>2026-03-26T17:36:44Z</time></trkpt><trkpt lat="36.92846618475026" lon="15.02227747409273"><ele>227.33333333333331</ele><time>2026-03-26T17:36:45Z</time></trkpt><trkpt lat="36.92853873945342" lon="15.022328241334804"><ele>228.0</ele><time>2026-03-26T17:36:46Z</time></trkpt><trkpt lat="36.92860619611652" lon="15.02238321117866"><ele>228.66666666666669</ele><time>2026-03-26T17:36:47Z</time></trkpt><trkpt lat="36.928666379955175" lon="15.022445870552236"><ele>229.33333333333334</ele><time>2026-03-26T17:36:48Z</time></trkpt><trkpt lat="36.928724980468125" lon="15.022514414809939"><ele>230.0</ele><time>2026-03-26T17:36:49Z</time></trkpt><trkpt lat="36.92878609662641" lon="15.02258533695569"><ele>230.00000000000003</ele><time>2026-03-26T17:36:50Z</time></trkpt><trkpt lat="36.928846946586404" lon="15.022659141912087"><ele>230.0</ele><time>2026-03-26T17:36:51Z</time></trkpt><trkpt lat="36.9289186791059" lon="15.02271711635277"><ele>230.0</ele><time>2026-03-26T17:36:52Z</time></trkpt><trkpt lat="36.92897119899092" lon="15.022773009963096"><ele>230.0</ele><time>2026-03-26T17:36:53Z</time></trkpt><trkpt lat="36.92904617264512" lon="15.022788590406442"><ele>230.00000000000003</ele><time>2026-03-26T17:36:55Z</time></trkpt><trkpt lat="36.92909261197861" lon="15.022677055296823"><ele>230.0</ele><time>2026-03-26T17:36:57Z</time></trkpt><trkpt lat="36.929092559152295" lon="15.022589031716908"><ele>230.00000000000003</ele><time>2026-03-26T17:36:58Z</time></trkpt><trkpt lat="36.92911010164681" lon="15.02249529800315"><ele>230.0</ele><time>2026-03-26T17:36:59Z</time></trkpt><trkpt lat="36.9291239009245" lon="15.022396442607072"><ele>230.0</ele><time>2026-03-26T17:37:00Z</time></trkpt><trkpt lat="36.92912645855827" lon="15.022314359910963"><ele>230.0</ele><time>2026-03-26T17:37:01Z</time></trkpt><trkpt lat="36.92918980902366" lon="15.022285274967247"><ele>230.00000000000003</ele><time>2026-03-26T17:37:03Z</time></trkpt><trkpt lat="36.92920651601573" lon="15.022447156066209"><ele>230.0</ele><time>2026-03-26T17:37:05Z</time></trkpt><trkpt lat="36.92922643853599" lon="15.022581801299411"><ele>238.0</ele><time>2026-03-26T17:37:06Z</time></trkpt><trkpt lat="36.9292398453743" lon="15.022700409298066"><ele>246.0</ele><time>2026-03-26T17:37:07Z</time></trkpt><trkpt lat="36.92928834325955" lon="15.022805107561735"><ele>254.0</ele><time>2026-03-26T17:37:08Z</time></trkpt><trkpt lat="36.92936586690975" lon="15.022906624975798"><ele>262.0</ele><time>2026-03-26T17:37:09Z</time></trkpt><trkpt lat="36.929469427683806" lon="15.023017844755008"><ele>270.0</ele><time>2026-03-26T17:37:10Z</time></trkpt><trkpt lat="36.92958473487792" lon="15.023127318019005"><ele>270.0</ele><time>2026-03-26T17:37:11Z</time></trkpt><trkpt lat="36.929664688694665" lon="15.023268466944339"><ele>270.0</ele><time>2026-03-26T17:37:12Z</time></trkpt><trkpt lat="36.92975588544744" lon="15.023405406977352"><ele>270.0</ele><time>2026-03-26T17:37:13Z</time></trkpt><trkpt lat="36.929845982166015" lon="15.023561736852226"><ele>270.0</ele><time>2026-03-26T17:37:14Z</time></trkpt><trkpt lat="36.92991440433793" lon="15.023723309364426"><ele>270.2</ele><time>2026-03-26T17:37:15Z</time></trkpt><trkpt lat="36.929966340357986" lon="15.02386533685391"><ele>270.4</ele><time>2026-03-26T17:37:16Z</time></trkpt><trkpt lat="36.930023904496615" lon="15.023964653789344"><ele>270.6</ele><time>2026-03-26T17:37:17Z</time></trkpt><trkpt lat="36.93006668586872" lon="15.02406481985773"><ele>270.8</ele><time>2026-03-26T17:37:18Z</time></trkpt><trkpt lat="36.930123866459155" lon="15.02415624562898"><ele>271.0</ele><time>2026-03-26T17:37:19Z</time></trkpt><trkpt lat="36.930201400762414" lon="15.024225174082629"><ele>271.0</ele><time>2026-03-26T17:37:20Z</time></trkpt><trkpt lat="36.930307789611675" lon="15.024277741883582"><ele>271.0</ele><time>2026-03-26T17:37:21Z</time></trkpt><trkpt lat="36.930431613493674" lon="15.024310034960019"><ele>271.0</ele><time>2026-03-26T17:37:22Z</time></trkpt><trkpt lat="36.93055703227341" lon="15.02433406146332"><ele>271.0</ele><time>2026-03-26T17:37:23Z</time></trkpt><trkpt lat="36.93065999985701" lon="15.024368506576804"><ele>271.0</ele><time>2026-03-26T17:37:24Z</time></trkpt><trkpt lat="36.93074657551439" lon="15.024425742198698"><ele>271.0</ele><time>2026-03-26T17:37:25Z</time></trkpt><trkpt lat="36.93079842581542" lon="15.024503635293422"><ele>271.0</ele><time>2026-03-26T17:37:26Z</time></trkpt><trkpt lat="36.930830728292115" lon="15.024575246412757"><ele>271.0</ele><time>2026-03-26T17:37:27Z</time></trkpt><trkpt lat="36.93081937377747" lon="15.024673563830593"><ele>271.0</ele><time>2026-03-26T17:37:28Z</time></trkpt><trkpt lat="36.93078225005821" lon="15.024782217453646"><ele>271.0</ele><time>2026-03-26T17:37:29Z</time></trkpt><trkpt lat="36.93072554769873" lon="15.024914009698787"><ele>269.25</ele><time>2026-03-26T17:37:30Z</time></trkpt><trkpt lat="36.930667663729125" lon="15.025068685425442"><ele>267.5</ele><time>2026-03-26T17:37:31Z</time></trkpt><trkpt lat="36.930622451430914" lon="15.025216167445429"><ele>265.75</ele><time>2026-03-26T17:37:32Z</time></trkpt><trkpt lat="36.930584609259746" lon="15.025368584738452"><ele>264.0</ele><time>2026-03-26T17:37:33Z</time></trkpt><trkpt lat="36.93056071636641" lon="15.025527415975162"><ele>264.0</ele><time>2026-03-26T17:37:34Z</time></trkpt><trkpt lat="36.93055302745526" lon="15.025695915030719"><ele>264.0</ele><time>2026-03-26T17:37:35Z</time></trkpt><trkpt lat="36.930546979562" lon="15.025862772237986"><ele>264.0</ele><time>2026-03-26T17:37:36Z</time></trkpt><trkpt lat="36.93052856657568" lon="15.0260178052404"><ele>264.0</ele><time>2026-03-26T17:37:37Z</time></trkpt><trkpt lat="36.93053416531743" lon="15.026189019395318"><ele>267.75</ele><time>2026-03-26T17:37:38Z</time></trkpt><trkpt lat="36.93057537628813" lon="15.026366221914856"><ele>271.5</ele><time>2026-03-26T17:37:39Z</time></trkpt><trkpt lat="36.93057381375288" lon="15.026526370059493"><ele>275.25</ele><time>2026-03-26T17:37:40Z</time></trkpt><trkpt lat="36.93058396319877" lon="15.026657430104546"><ele>279.0</ele><time>2026-03-26T17:37:41Z</time></trkpt><trkpt lat="36.930591561297426" lon="15.026790159478766"><ele>279.25</ele><time>2026-03-26T17:37:42Z</time></trkpt><trkpt lat="36.930654062203175" lon="15.02694106332402"><ele>279.5</ele><time>2026-03-26T17:37:43Z</time></trkpt><trkpt lat="36.93068133738658" lon="15.027096216708587"><ele>279.75</ele><time>2026-03-26T17:37:44Z</time></trkpt><trkpt lat="36.93070282104066" lon="15.02722925835111"><ele>280.0</ele><time>2026-03-26T17:37:45Z</time></trkpt><trkpt lat="36.93071345422299" lon="15.027332596472922"><ele>280.0</ele><time>2026-03-26T17:37:46Z</time></trkpt><trkpt lat="36.930727626119335" lon="15.027412755689395"><ele>280.0</ele><time>2026-03-26T17:37:47Z</time></trkpt><trkpt lat="36.93078920671245" lon="15.027503479511426"><ele>280.0</ele><time>2026-03-26T17:37:48Z</time></trkpt><trkpt lat="36.930900577888345" lon="15.027557741130924"><ele>280.0</ele><time>2026-03-26T17:37:49Z</time></trkpt><trkpt lat="36.93097333141832" lon="15.027608716014981"><ele>280.0</ele><time>2026-03-26T17:37:50Z</time></trkpt><trkpt lat="36.931064046637886" lon="15.027572447983278"><ele>287.75</ele><time>2026-03-26T17:37:52Z</time></trkpt><trkpt lat="36.931090499198156" lon="15.027376226129459"><ele>295.5</ele><time>2026-03-26T17:37:54Z</time></trkpt><trkpt lat="36.93108048432601" lon="15.027224261976293"><ele>303.25</ele><time>2026-03-26T17:37:55Z</time></trkpt><trkpt lat="36.93108807651365" lon="15.027054842295232"><ele>311.0</ele><time>2026-03-26T17:37:56Z</time></trkpt><trkpt lat="36.93110469660294" lon="15.026882179868258"><ele>311.0</ele><time>2026-03-26T17:37:57Z</time></trkpt><trkpt lat="36.93111865126607" lon="15.026720952879874"><ele>311.0</ele><time>2026-03-26T17:37:58Z</time></trkpt><trkpt lat="36.931154137699174" lon="15.026556158633671"><ele>311.0</ele><time>2026-03-26T17:37:59Z</time></trkpt><trkpt lat="36.93119833290696" lon="15.026404993164899"><ele>311.0</ele><time>2026-03-26T17:38:00Z</time></trkpt><trkpt lat="36.931226098353974" lon="15.026283513945492"><ele>310.8</ele><time>2026-03-26T17:38:01Z</time></trkpt><trkpt lat="36.93125210323309" lon="15.026193332289969"><ele>310.6</ele><time>2026-03-26T17:38:02Z</time></trkpt><trkpt lat="36.93131963182257" lon="15.02615275456391"><ele>310.4</ele><time>2026-03-26T17:38:04Z</time></trkpt><trkpt lat="36.931306484399286" lon="15.026291267387283"><ele>310.2</ele><time>2026-03-26T17:38:05.999Z</time></trkpt><trkpt lat="36.931322107424606" lon="15.02642303769193"><ele>310.0</ele><time>2026-03-26T17:38:06.999Z</time></trkpt><trkpt lat="36.93134744230222" lon="15.026554393809722"><ele>310.2</ele><time>2026-03-26T17:38:07.999Z</time></trkpt><trkpt lat="36.93138533158453" lon="15.026682833421917"><ele>310.4</ele><time>2026-03-26T17:38:08.999Z</time></trkpt><trkpt lat="36.93145860096147" lon="15.026788252618847"><ele>310.6</ele><time>2026-03-26T17:38:09.999Z</time></trkpt><trkpt lat="36.931529113005446" lon="15.026854963989372"><ele>310.8</ele><time>2026-03-26T17:38:10.999Z</time></trkpt><trkpt lat="36.931622084448485" lon="15.02686316316725"><ele>311.0</ele><time>2026-03-26T17:38:12.999Z</time></trkpt><trkpt lat="36.93162613362713" lon="15.026765040335949"><ele>310.8</ele><time>2026-03-26T17:38:13.999Z</time></trkpt><trkpt lat="36.93163187300737" lon="15.026640950950975"><ele>310.6</ele><time>2026-03-26T17:38:14.999Z</time></trkpt><trkpt lat="36.93163004193721" lon="15.026498352895103"><ele>310.4</ele><time>2026-03-26T17:38:15.999Z</time></trkpt><trkpt lat="36.93163929558425" lon="15.026360791731676"><ele>310.2</ele><time>2026-03-26T17:38:16.999Z</time></trkpt><trkpt lat="36.93167166034452" lon="15.026236479362304"><ele>310.0</ele><time>2026-03-26T17:38:18Z</time></trkpt><trkpt lat="36.93172169724105" lon="15.026117906357667"><ele>317.25</ele><time>2026-03-26T17:38:19Z</time></trkpt><trkpt lat="36.93175691408815" lon="15.026043699750032"><ele>324.5</ele><time>2026-03-26T17:38:20Z</time></trkpt><trkpt lat="36.93191357464975" lon="15.026203797900571"><ele>331.75</ele><time>2026-03-26T17:38:24Z</time></trkpt><trkpt lat="36.93194151398588" lon="15.026329736486383"><ele>339.0</ele><time>2026-03-26T17:38:25Z</time></trkpt><trkpt lat="36.931992935384415" lon="15.026442375191646"><ele>339.0</ele><time>2026-03-26T17:38:26Z</time></trkpt><trkpt lat="36.932041609083804" lon="15.02652093573718"><ele>339.0</ele><time>2026-03-26T17:38:27Z</time></trkpt><trkpt lat="36.93213406174987" lon="15.026502240773672"><ele>339.0</ele><time>2026-03-26T17:38:29Z</time></trkpt><trkpt lat="36.93217523057861" lon="15.026413489795331"><ele>339.0</ele><time>2026-03-26T17:38:30Z</time></trkpt><trkpt lat="36.932223623264576" lon="15.02628921200281"><ele>339.0</ele><time>2026-03-26T17:38:31Z</time></trkpt><trkpt lat="36.9322753786331" lon="15.026193117860934"><ele>339.0</ele><time>2026-03-26T17:38:32Z</time></trkpt><trkpt lat="36.932330560210644" lon="15.0261495301018"><ele>339.0</ele><time>2026-03-26T17:38:33Z</time></trkpt><trkpt lat="36.932411716168666" lon="15.026242621145437"><ele>339.0</ele><time>2026-03-26T17:38:36Z</time></trkpt><trkpt lat="36.93241979410614" lon="15.026334580694607"><ele>339.0</ele><time>2026-03-26T17:38:37Z</time></trkpt><trkpt lat="36.9324105165644" lon="15.026448052385378"><ele>339.0</ele><time>2026-03-26T17:38:38Z</time></trkpt><trkpt lat="36.93240612864104" lon="15.026555706743528"><ele>339.0</ele><time>2026-03-26T17:38:39Z</time></trkpt><trkpt lat="36.932430421854725" lon="15.02664944998639"><ele>337.79999999999995</ele><time>2026-03-26T17:38:40Z</time></trkpt><trkpt lat="36.93248638204753" lon="15.026734038302571"><ele>336.59999999999997</ele><time>2026-03-26T17:38:41Z</time></trkpt><trkpt lat="36.932571746726154" lon="15.02682444610478"><ele>335.4</ele><time>2026-03-26T17:38:42Z</time></trkpt><trkpt lat="36.9326685768099" lon="15.026923635141287"><ele>334.2</ele><time>2026-03-26T17:38:43Z</time></trkpt><trkpt lat="36.932749929077374" lon="15.027002587695828"><ele>333.0</ele><time>2026-03-26T17:38:44Z</time></trkpt><trkpt lat="36.932830039781585" lon="15.027056310939594"><ele>336.1666666666667</ele><time>2026-03-26T17:38:45Z</time></trkpt><trkpt lat="36.93291876411403" lon="15.027099684563169"><ele>339.3333333333333</ele><time>2026-03-26T17:38:46Z</time></trkpt><trkpt lat="36.933009572142986" lon="15.027126566534077"><ele>342.5</ele><time>2026-03-26T17:38:47Z</time></trkpt><trkpt lat="36.93309181476208" lon="15.027132190750423"><ele>345.66666666666663</ele><time>2026-03-26T17:38:48Z</time></trkpt><trkpt lat="36.93316467109607" lon="15.027133441691428"><ele>348.8333333333333</ele><time>2026-03-26T17:38:49Z</time></trkpt><trkpt lat="36.933223690079004" lon="15.027056165022199"><ele>352.0</ele><time>2026-03-26T17:38:50Z</time></trkpt><trkpt lat="36.933303305788414" lon="15.026959206791402"><ele>352.0</ele><time>2026-03-26T17:38:51Z</time></trkpt><trkpt lat="36.93338151266201" lon="15.026849357586379"><ele>352.0</ele><time>2026-03-26T17:38:52Z</time></trkpt><trkpt lat="36.93344640546683" lon="15.026763542138122"><ele>352.0</ele><time>2026-03-26T17:38:53Z</time></trkpt><trkpt lat="36.93349836061572" lon="15.026713846543172"><ele>352.0</ele><time>2026-03-26T17:38:54Z</time></trkpt><trkpt lat="36.93351499934708" lon="15.026567741949282"><ele>352.0</ele><time>2026-03-26T17:38:56Z</time></trkpt><trkpt lat="36.933479772212436" lon="15.026473092320886"><ele>358.25</ele><time>2026-03-26T17:38:57Z</time></trkpt><trkpt lat="36.93344574200452" lon="15.02636181367014"><ele>364.5</ele><time>2026-03-26T17:38:58Z</time></trkpt><trkpt lat="36.93336466318937" lon="15.026269612131493"><ele>370.75</ele><time>2026-03-26T17:38:59Z</time></trkpt><trkpt lat="36.93328798266356" lon="15.026144010264945"><ele>377.0</ele><time>2026-03-26T17:39:00Z</time></trkpt><trkpt lat="36.93319289286811" lon="15.026037783340595"><ele>377.0</ele><time>2026-03-26T17:39:01Z</time></trkpt><trkpt lat="36.933095266500374" lon="15.025959969703997"><ele>377.0</ele><time>2026-03-26T17:39:02Z</time></trkpt><trkpt lat="36.9330159281173" lon="15.025883853146924"><ele>377.0</ele><time>2026-03-26T17:39:03Z</time></trkpt><trkpt lat="36.93294590135105" lon="15.025792659832756"><ele>377.0</ele><time>2026-03-26T17:39:04Z</time></trkpt><trkpt lat="36.932895889909595" lon="15.025674780248439"><ele>377.0</ele><time>2026-03-26T17:39:05Z</time></trkpt><trkpt lat="36.932844219151946" lon="15.025581805938492"><ele>377.1666666666667</ele><time>2026-03-26T17:39:06Z</time></trkpt><trkpt lat="36.93279873356171" lon="15.025493148829836"><ele>377.33333333333337</ele><time>2026-03-26T17:39:07Z</time></trkpt><trkpt lat="36.93274356398995" lon="15.025392196038275"><ele>377.5</ele><time>2026-03-26T17:39:08Z</time></trkpt><trkpt lat="36.932702180075296" lon="15.025276737562276"><ele>377.6666666666667</ele><time>2026-03-26T17:39:09Z</time></trkpt><trkpt lat="36.93265708706723" lon="15.025184564551195"><ele>377.8333333333333</ele><time>2026-03-26T17:39:10Z</time></trkpt><trkpt lat="36.93263004238407" lon="15.025094141163889"><ele>378.0</ele><time>2026-03-26T17:39:11Z</time></trkpt><trkpt lat="36.932627158031835" lon="15.025008621477673"><ele>373.59999999999997</ele><time>2026-03-26T17:39:12Z</time></trkpt><trkpt lat="36.93265372015046" lon="15.024919410638987"><ele>369.2</ele><time>2026-03-26T17:39:13Z</time></trkpt><trkpt lat="36.93272579952572" lon="15.024856329912195"><ele>364.8</ele><time>2026-03-26T17:39:14Z</time></trkpt><trkpt lat="36.932779213882384" lon="15.024769496601795"><ele>360.4</ele><time>2026-03-26T17:39:15Z</time></trkpt><trkpt lat="36.932875376799686" lon="15.024699945200151"><ele>356.0</ele><time>2026-03-26T17:39:16Z</time></trkpt><trkpt lat="36.9329706697558" lon="15.024626052579105"><ele>356.0</ele><time>2026-03-26T17:39:17Z</time></trkpt><trkpt lat="36.93306002258903" lon="15.024561364449534"><ele>356.0</ele><time>2026-03-26T17:39:18Z</time></trkpt><trkpt lat="36.93315661520342" lon="15.024513648690961"><ele>356.0</ele><time>2026-03-26T17:39:19Z</time></trkpt><trkpt lat="36.93326139178654" lon="15.024482384422866"><ele>356.0</ele><time>2026-03-26T17:39:20Z</time></trkpt><trkpt lat="36.93337873065059" lon="15.024462831178202"><ele>356.0</ele><time>2026-03-26T17:39:21Z</time></trkpt><trkpt lat="36.933506529729954" lon="15.024452000293637"><ele>359.0</ele><time>2026-03-26T17:39:22Z</time></trkpt><trkpt lat="36.93364746805582" lon="15.024447001982805"><ele>362.0</ele><time>2026-03-26T17:39:23Z</time></trkpt><trkpt lat="36.93376339220434" lon="15.02444977903729"><ele>365.0</ele><time>2026-03-26T17:39:24Z</time></trkpt><trkpt lat="36.933875195258224" lon="15.024457782099226"><ele>368.0</ele><time>2026-03-26T17:39:25Z</time></trkpt><trkpt lat="36.933996597720615" lon="15.024458062184639"><ele>368.0</ele><time>2026-03-26T17:39:26Z</time></trkpt><trkpt lat="36.934121764083905" lon="15.02447350730579"><ele>368.0</ele><time>2026-03-26T17:39:27Z</time></trkpt><trkpt lat="36.93422166237118" lon="15.024475958389043"><ele>368.0</ele><time>2026-03-26T17:39:28Z</time></trkpt><trkpt lat="36.93431993233417" lon="15.024464051418933"><ele>368.0</ele><time>2026-03-26T17:39:29Z</time></trkpt><trkpt lat="36.93442543619348" lon="15.024431596816678"><ele>368.0</ele><time>2026-03-26T17:39:30Z</time></trkpt><trkpt lat="36.93454433144211" lon="15.024382917304452"><ele>371.25</ele><time>2026-03-26T17:39:31Z</time></trkpt><trkpt lat="36.93467300296178" lon="15.024319086241833"><ele>374.5</ele><time>2026-03-26T17:39:32Z</time></trkpt><trkpt lat="36.934799947568564" lon="15.024258288221514"><ele>377.75</ele><time>2026-03-26T17:39:33Z</time></trkpt><trkpt lat="36.934930331061196" lon="15.024191386029356"><ele>381.0</ele><time>2026-03-26T17:39:34Z</time></trkpt><trkpt lat="36.93504917445716" lon="15.024131777955157"><ele>383.6</ele><time>2026-03-26T17:39:35Z</time></trkpt><trkpt lat="36.935171029057635" lon="15.024074957659197"><ele>386.20000000000005</ele><time>2026-03-26T17:39:36Z</time></trkpt><trkpt lat="36.93528356721645" lon="15.02402200106493"><ele>388.79999999999995</ele><time>2026-03-26T17:39:37Z</time></trkpt><trkpt lat="36.93538526925262" lon="15.023966386715673"><ele>391.4</ele><time>2026-03-26T17:39:38Z</time></trkpt><trkpt lat="36.935464848781066" lon="15.02391975146241"><ele>394.0</ele><time>2026-03-26T17:39:39Z</time></trkpt><trkpt lat="36.93553524564793" lon="15.023863967988948"><ele>394.00000000000006</ele><time>2026-03-26T17:39:40Z</time></trkpt><trkpt lat="36.93560004718232" lon="15.02379788442265"><ele>394.0</ele><time>2026-03-26T17:39:41Z</time></trkpt><trkpt lat="36.93567135016571" lon="15.023722378218304"><ele>394.0</ele><time>2026-03-26T17:39:42Z</time></trkpt><trkpt lat="36.93574329805421" lon="15.023707793561806"><ele>394.0</ele><time>2026-03-26T17:39:43Z</time></trkpt><trkpt lat="36.93581606981001" lon="15.023716963496208"><ele>394.00000000000006</ele><time>2026-03-26T17:39:44Z</time></trkpt><trkpt lat="36.93591525269695" lon="15.023726579475813"><ele>394.0</ele><time>2026-03-26T17:39:45Z</time></trkpt><trkpt lat="36.93602510076125" lon="15.023727663139146"><ele>395.79999999999995</ele><time>2026-03-26T17:39:46Z</time></trkpt><trkpt lat="36.936133418502614" lon="15.023740476106326"><ele>397.59999999999997</ele><time>2026-03-26T17:39:47Z</time></trkpt><trkpt lat="36.93622735933339" lon="15.023738295521714"><ele>399.4</ele><time>2026-03-26T17:39:48Z</time></trkpt><trkpt lat="36.93633619052927" lon="15.023710205205319"><ele>401.2</ele><time>2026-03-26T17:39:49Z</time></trkpt><trkpt lat="36.93644831206269" lon="15.02367550879989"><ele>403.0</ele><time>2026-03-26T17:39:50Z</time></trkpt><trkpt lat="36.936555085092984" lon="15.023646161380457"><ele>403.00000000000006</ele><time>2026-03-26T17:39:51Z</time></trkpt><trkpt lat="36.93663000511418" lon="15.023634336078949"><ele>403.0</ele><time>2026-03-26T17:39:52Z</time></trkpt><trkpt lat="36.936721536023754" lon="15.023655274435557"><ele>403.0</ele><time>2026-03-26T17:39:54Z</time></trkpt><trkpt lat="36.93673292232652" lon="15.023766311620756"><ele>403.0</ele><time>2026-03-26T17:39:56Z</time></trkpt><trkpt lat="36.93676769580059" lon="15.023844530934948"><ele>403.00000000000006</ele><time>2026-03-26T17:39:57Z</time></trkpt><trkpt lat="36.9368182462997" lon="15.023953081941077"><ele>403.0</ele><time>2026-03-26T17:39:58Z</time></trkpt><trkpt lat="36.93687675400384" lon="15.024054402050174"><ele>403.59999999999997</ele><time>2026-03-26T17:39:59Z</time></trkpt><trkpt lat="36.93693184015844" lon="15.0241439670411"><ele>404.2</ele><time>2026-03-26T17:40:00Z</time></trkpt><trkpt lat="36.93698510519714" lon="15.024234921360128"><ele>404.8</ele><time>2026-03-26T17:40:01Z</time></trkpt><trkpt lat="36.93702882188334" lon="15.024313010387537"><ele>405.4</ele><time>2026-03-26T17:40:02Z</time></trkpt><trkpt lat="36.937085410197305" lon="15.02437884424964"><ele>406.0</ele><time>2026-03-26T17:40:04Z</time></trkpt><trkpt lat="36.93720118089071" lon="15.024389949615342"><ele>406.0</ele><time>2026-03-26T17:40:06Z</time></trkpt><trkpt lat="36.93727428186118" lon="15.024280741364509"><ele>406.0</ele><time>2026-03-26T17:40:07Z</time></trkpt><trkpt lat="36.93735406574084" lon="15.02421737389268"><ele>406.0</ele><time>2026-03-26T17:40:08Z</time></trkpt><trkpt lat="36.93743810002558" lon="15.024154740346791"><ele>406.0</ele><time>2026-03-26T17:40:09Z</time></trkpt><trkpt lat="36.93753014183897" lon="15.024091384139151"><ele>406.0</ele><time>2026-03-26T17:40:10Z</time></trkpt><trkpt lat="36.93763606478938" lon="15.024028568405221"><ele>407.5</ele><time>2026-03-26T17:40:10.999Z</time></trkpt><trkpt lat="36.93775516346778" lon="15.023948632272482"><ele>409.0</ele><time>2026-03-26T17:40:11.999Z</time></trkpt><trkpt lat="36.93788550750236" lon="15.023853314472403"><ele>410.5</ele><time>2026-03-26T17:40:12.999Z</time></trkpt><trkpt lat="36.93802135207472" lon="15.02376088035909"><ele>412.0</ele><time>2026-03-26T17:40:13.999Z</time></trkpt><trkpt lat="36.93814775403189" lon="15.02367192629959"><ele>412.00000000000006</ele><time>2026-03-26T17:40:14.999Z</time></trkpt><trkpt lat="36.93825215990265" lon="15.023605803312906"><ele>412.0</ele><time>2026-03-26T17:40:15.999Z</time></trkpt><trkpt lat="36.938335263232254" lon="15.023551702215435"><ele>412.0</ele><time>2026-03-26T17:40:16.999Z</time></trkpt><trkpt lat="36.93840122243908" lon="15.02350197709666"><ele>412.0</ele><time>2026-03-26T17:40:17.999Z</time></trkpt><trkpt lat="36.93845905922613" lon="15.023434722448872"><ele>412.00000000000006</ele><time>2026-03-26T17:40:18.999Z</time></trkpt><trkpt lat="36.93849999645961" lon="15.023353298377623"><ele>412.0</ele><time>2026-03-26T17:40:19.999Z</time></trkpt><trkpt lat="36.93853106320713" lon="15.023245880964733"><ele>412.75</ele><time>2026-03-26T17:40:20.999Z</time></trkpt><trkpt lat="36.938547926966095" lon="15.02311488268623"><ele>413.5</ele><time>2026-03-26T17:40:21.999Z</time></trkpt><trkpt lat="36.93857010003515" lon="15.022943117212753"><ele>414.25</ele><time>2026-03-26T17:40:22.999Z</time></trkpt><trkpt lat="36.93859721865997" lon="15.022770555369174"><ele>415.0</ele><time>2026-03-26T17:40:24Z</time></trkpt><trkpt lat="36.93862395557243" lon="15.022615565132934"><ele>415.0</ele><time>2026-03-26T17:40:25Z</time></trkpt><trkpt lat="36.93864959091417" lon="15.02249261038913"><ele>415.0</ele><time>2026-03-26T17:40:26Z</time></trkpt><trkpt lat="36.93866756927472" lon="15.02241121330724"><ele>415.0</ele><time>2026-03-26T17:40:27Z</time></trkpt><trkpt lat="36.938714508466695" lon="15.022297940652576"><ele>415.0</ele><time>2026-03-26T17:40:29Z</time></trkpt><trkpt lat="36.938809232326285" lon="15.02225507999787"><ele>415.0</ele><time>2026-03-26T17:40:33Z</time></trkpt><trkpt lat="36.93891028385658" lon="15.022279071832184"><ele>414.75</ele><time>2026-03-26T17:40:34Z</time></trkpt><trkpt lat="36.93904598649228" lon="15.022334277591535"><ele>414.5</ele><time>2026-03-26T17:40:35Z</time></trkpt><trkpt lat="36.939196740009855" lon="15.022411534976214"><ele>414.25</ele><time>2026-03-26T17:40:36Z</time></trkpt><trkpt lat="36.93931727146323" lon="15.022474132841298"><ele>414.0</ele><time>2026-03-26T17:40:37Z</time></trkpt><trkpt lat="36.93942591654816" lon="15.022560381566606"><ele>414.0</ele><time>2026-03-26T17:40:38Z</time></trkpt><trkpt lat="36.939508176009696" lon="15.022680060390392"><ele>414.0</ele><time>2026-03-26T17:40:39Z</time></trkpt><trkpt lat="36.93958388983664" lon="15.022758371998506"><ele>414.0</ele><time>2026-03-26T17:40:40Z</time></trkpt><trkpt lat="36.93966925937357" lon="15.022819974639486"><ele>414.0</ele><time>2026-03-26T17:40:41Z</time></trkpt><trkpt lat="36.939782287727446" lon="15.022837519512143"><ele>414.0</ele><time>2026-03-26T17:40:42Z</time></trkpt><trkpt lat="36.93989971072054" lon="15.022843519858423"><ele>414.0</ele><time>2026-03-26T17:40:43Z</time></trkpt><trkpt lat="36.940043711092294" lon="15.022879307375431"><ele>414.0</ele><time>2026-03-26T17:40:44Z</time></trkpt><trkpt lat="36.94020794552445" lon="15.022883518160274"><ele>414.0</ele><time>2026-03-26T17:40:45Z</time></trkpt><trkpt lat="36.940386901139206" lon="15.02291859025969"><ele>414.33333333333337</ele><time>2026-03-26T17:40:46Z</time></trkpt><trkpt lat="36.940538801128696" lon="15.02294213930893"><ele>414.6666666666667</ele><time>2026-03-26T17:40:47Z</time></trkpt><trkpt lat="36.94069212549951" lon="15.022953202390639"><ele>415.0</ele><time>2026-03-26T17:40:48Z</time></trkpt><trkpt lat="36.9408503442895" lon="15.02297793341596"><ele>415.33333333333337</ele><time>2026-03-26T17:40:49Z</time></trkpt><trkpt lat="36.94099486990096" lon="15.023017574593414"><ele>415.66666666666663</ele><time>2026-03-26T17:40:50Z</time></trkpt><trkpt lat="36.941154783354456" lon="15.023079577977851"><ele>416.0</ele><time>2026-03-26T17:40:51Z</time></trkpt><trkpt lat="36.94132627139818" lon="15.023150891499855"><ele>416.0</ele><time>2026-03-26T17:40:52Z</time></trkpt><trkpt lat="36.941485401108615" lon="15.023210964644258"><ele>416.0</ele><time>2026-03-26T17:40:53Z</time></trkpt><trkpt lat="36.941626432463075" lon="15.023273302122963"><ele>416.0</ele><time>2026-03-26T17:40:54Z</time></trkpt><trkpt lat="36.94174137084615" lon="15.023323919329453"><ele>416.0</ele><time>2026-03-26T17:40:55Z</time></trkpt><trkpt lat="36.94184145251487" lon="15.023361939245813"><ele>416.25</ele><time>2026-03-26T17:40:56Z</time></trkpt><trkpt lat="36.941940712707726" lon="15.023397522585379"><ele>416.5</ele><time>2026-03-26T17:40:57Z</time></trkpt><trkpt lat="36.94204434154351" lon="15.023416067718903"><ele>416.75</ele><time>2026-03-26T17:40:58Z</time></trkpt><trkpt lat="36.94217082205087" lon="15.023428475316779"><ele>417.0</ele><time>2026-03-26T17:40:59Z</time></trkpt><trkpt lat="36.94233315252253" lon="15.023437048464535"><ele>417.0</ele><time>2026-03-26T17:41:00Z</time></trkpt><trkpt lat="36.94249219966615" lon="15.023437590255591"><ele>417.0</ele><time>2026-03-26T17:41:01Z</time></trkpt><trkpt lat="36.94265269486618" lon="15.02343024324188"><ele>417.0</ele><time>2026-03-26T17:41:02Z</time></trkpt><trkpt lat="36.942789860093384" lon="15.023432112671356"><ele>416.5</ele><time>2026-03-26T17:41:03Z</time></trkpt><trkpt lat="36.942913146100416" lon="15.023434121419696"><ele>416.0</ele><time>2026-03-26T17:41:04Z</time></trkpt><trkpt lat="36.94305013789923" lon="15.023415988964521"><ele>415.5</ele><time>2026-03-26T17:41:05Z</time></trkpt><trkpt lat="36.94320751671432" lon="15.02338364870426"><ele>415.0</ele><time>2026-03-26T17:41:06Z</time></trkpt><trkpt lat="36.94337026402697" lon="15.023361856430093"><ele>415.0</ele><time>2026-03-26T17:41:07Z</time></trkpt><trkpt lat="36.94351917021877" lon="15.023342681128584"><ele>415.0</ele><time>2026-03-26T17:41:08Z</time></trkpt><trkpt lat="36.94365481516668" lon="15.023302540004572"><ele>415.0</ele><time>2026-03-26T17:41:09Z</time></trkpt><trkpt lat="36.94378703125799" lon="15.023263554677888"><ele>415.0</ele><time>2026-03-26T17:41:10Z</time></trkpt><trkpt lat="36.94394788775083" lon="15.023236492630565"><ele>413.0</ele><time>2026-03-26T17:41:11Z</time></trkpt><trkpt lat="36.94410760107159" lon="15.023222009549198"><ele>411.0</ele><time>2026-03-26T17:41:12Z</time></trkpt><trkpt lat="36.94425396414678" lon="15.0231988394314"><ele>409.0</ele><time>2026-03-26T17:41:13Z</time></trkpt><trkpt lat="36.944404386614394" lon="15.023162836604316"><ele>406.75</ele><time>2026-03-26T17:41:14Z</time></trkpt><trkpt lat="36.94453776102928" lon="15.023130658631192"><ele>404.5</ele><time>2026-03-26T17:41:15Z</time></trkpt><trkpt lat="36.944662680117595" lon="15.023084937477915"><ele>402.25</ele><time>2026-03-26T17:41:16Z</time></trkpt><trkpt lat="36.944782834778835" lon="15.023036748871599"><ele>400.0</ele><time>2026-03-26T17:41:17Z</time></trkpt><trkpt lat="36.94488579053919" lon="15.023028443379609"><ele>400.00000000000006</ele><time>2026-03-26T17:41:18Z</time></trkpt><trkpt lat="36.94496444741287" lon="15.023025386170058"><ele>400.0</ele><time>2026-03-26T17:41:19Z</time></trkpt><trkpt lat="36.94502504413223" lon="15.023079924994864"><ele>400.0</ele><time>2026-03-26T17:41:20Z</time></trkpt><trkpt lat="36.945098297381556" lon="15.02315306001245"><ele>400.0</ele><time>2026-03-26T17:41:21Z</time></trkpt><trkpt lat="36.94515590002463" lon="15.023226439378528"><ele>400.00000000000006</ele><time>2026-03-26T17:41:22Z</time></trkpt><trkpt lat="36.94518646490454" lon="15.023324605252258"><ele>400.0</ele><time>2026-03-26T17:41:23Z</time></trkpt><trkpt lat="36.94521614033362" lon="15.023442530662036"><ele>402.50000000000006</ele><time>2026-03-26T17:41:24Z</time></trkpt><trkpt lat="36.94523371118504" lon="15.02354448224576"><ele>405.0</ele><time>2026-03-26T17:41:25Z</time></trkpt><trkpt lat="36.945243851671634" lon="15.023645455393464"><ele>407.5</ele><time>2026-03-26T17:41:26Z</time></trkpt><trkpt lat="36.945256123565706" lon="15.023723995222337"><ele>410.0</ele><time>2026-03-26T17:41:27Z</time></trkpt><trkpt lat="36.945294852294495" lon="15.023807293767652"><ele>412.50000000000006</ele><time>2026-03-26T17:41:28Z</time></trkpt><trkpt lat="36.94538009096036" lon="15.023851229111882"><ele>415.0</ele><time>2026-03-26T17:41:29Z</time></trkpt><trkpt lat="36.9454267203113" lon="15.02390643904936"><ele>415.0</ele><time>2026-03-26T17:41:30Z</time></trkpt><trkpt lat="36.94549043879715" lon="15.023905634289347"><ele>415.0</ele><time>2026-03-26T17:41:32Z</time></trkpt><trkpt lat="36.94541638795691" lon="15.023881266402235"><ele>415.0</ele><time>2026-03-26T17:41:41Z</time></trkpt><trkpt lat="36.94533617038887" lon="15.023897749351493"><ele>415.0</ele><time>2026-03-26T17:41:43Z</time></trkpt><trkpt lat="36.94529399540566" lon="15.023736659604946"><ele>415.0</ele><time>2026-03-26T17:41:44Z</time></trkpt><trkpt lat="36.94525135060391" lon="15.02362256216919"><ele>415.00000000000006</ele><time>2026-03-26T17:41:46Z</time></trkpt><trkpt lat="36.94531080197524" lon="15.023654456378"><ele>415.0</ele><time>2026-03-26T17:41:52Z</time></trkpt><trkpt lat="36.945333727506345" lon="15.023775739199495"><ele>415.0</ele><time>2026-03-26T17:42:41Z</time></trkpt><trkpt lat="36.94538571394016" lon="15.023838386009881"><ele>415.0</ele><time>2026-03-26T17:42:42Z</time></trkpt><trkpt lat="36.94545355119947" lon="15.023880288086296"><ele>415.00000000000006</ele><time>2026-03-26T17:42:43Z</time></trkpt><trkpt lat="36.945566118538856" lon="15.023899113399292"><ele>415.0</ele><time>2026-03-26T17:42:45Z</time></trkpt><trkpt lat="36.9456435363747" lon="15.02387539537944"><ele>415.00000000000006</ele><time>2026-03-26T17:42:50Z</time></trkpt><trkpt lat="36.945706598251" lon="15.02387614799062"><ele>415.0</ele><time>2026-03-26T17:43:01Z</time></trkpt><trkpt lat="36.945807478856146" lon="15.023854503289215"><ele>415.0</ele><time>2026-03-26T17:43:03Z</time></trkpt><trkpt lat="36.94587401808137" lon="15.023828778225827"><ele>415.0</ele><time>2026-03-26T17:43:04Z</time></trkpt><trkpt lat="36.945938088493484" lon="15.023769462998073"><ele>415.00000000000006</ele><time>2026-03-26T17:43:05Z</time></trkpt><trkpt lat="36.94600923860201" lon="15.023687274228939"><ele>415.0</ele><time>2026-03-26T17:43:06Z</time></trkpt><trkpt lat="36.946079599261424" lon="15.023592578763408"><ele>415.00000000000006</ele><time>2026-03-26T17:43:07Z</time></trkpt><trkpt lat="36.946137347375455" lon="15.023495292101337"><ele>415.0</ele><time>2026-03-26T17:43:08Z</time></trkpt><trkpt lat="36.9461883457811" lon="15.023402142731193"><ele>415.0</ele><time>2026-03-26T17:43:09Z</time></trkpt><trkpt lat="36.94621475043241" lon="15.02332750288762"><ele>415.0</ele><time>2026-03-26T17:43:10Z</time></trkpt><trkpt lat="36.94625987171167" lon="15.023208151019142"><ele>415.00000000000006</ele><time>2026-03-26T17:43:12Z</time></trkpt><trkpt lat="36.94630986246216" lon="15.02315894635778"><ele>415.0</ele><time>2026-03-26T17:43:13Z</time></trkpt><trkpt lat="36.94635747477579" lon="15.023089658799995"><ele>415.0</ele><time>2026-03-26T17:43:14Z</time></trkpt><trkpt lat="36.94640967695404" lon="15.0230127716437"><ele>415.0</ele><time>2026-03-26T17:43:16Z</time></trkpt><trkpt lat="36.94654349620324" lon="15.023136763681068"><ele>415.0</ele><time>2026-03-26T17:43:23Z</time></trkpt><trkpt lat="36.94660552466875" lon="15.023168124272663"><ele>415.0</ele><time>2026-03-26T17:43:25Z</time></trkpt><trkpt lat="36.94667350560812" lon="15.023226870216856"><ele>415.0</ele><time>2026-03-26T17:43:27Z</time></trkpt><trkpt lat="36.946699925871386" lon="15.023316318463689"><ele>415.33333333333337</ele><time>2026-03-26T17:43:28Z</time></trkpt><trkpt lat="36.94669799153381" lon="15.023431509911292"><ele>415.6666666666667</ele><time>2026-03-26T17:43:29Z</time></trkpt><trkpt lat="36.94672610940511" lon="15.023520600044094"><ele>416.0</ele><time>2026-03-26T17:43:30Z</time></trkpt><trkpt lat="36.94675012439479" lon="15.023599155011862"><ele>416.33333333333337</ele><time>2026-03-26T17:43:31Z</time></trkpt><trkpt lat="36.94678471453814" lon="15.02368132391155"><ele>416.6666666666667</ele><time>2026-03-26T17:43:32Z</time></trkpt><trkpt lat="36.946832866261595" lon="15.02375356439541"><ele>417.0</ele><time>2026-03-26T17:43:33Z</time></trkpt><trkpt lat="36.946904869370435" lon="15.023827977227562"><ele>417.0</ele><time>2026-03-26T17:43:34Z</time></trkpt><trkpt lat="36.94698639404763" lon="15.023885517262922"><ele>417.0</ele><time>2026-03-26T17:43:35Z</time></trkpt><trkpt lat="36.94706377643825" lon="15.023890953895807"><ele>417.0</ele><time>2026-03-26T17:43:36Z</time></trkpt><trkpt lat="36.94715646892282" lon="15.023904487240026"><ele>417.0</ele><time>2026-03-26T17:43:37Z</time></trkpt><trkpt lat="36.94725396323548" lon="15.023926530343566"><ele>417.0</ele><time>2026-03-26T17:43:38Z</time></trkpt><trkpt lat="36.947316679263466" lon="15.024000942467334"><ele>417.0</ele><time>2026-03-26T17:43:39Z</time></trkpt><trkpt lat="36.94738716016627" lon="15.024064700990019"><ele>417.0</ele><time>2026-03-26T17:43:40Z</time></trkpt><trkpt lat="36.947469476040155" lon="15.024117425825034"><ele>417.0</ele><time>2026-03-26T17:43:41Z</time></trkpt><trkpt lat="36.94753553415054" lon="15.024184451506475"><ele>417.0</ele><time>2026-03-26T17:43:42Z</time></trkpt><trkpt lat="36.94757797658425" lon="15.02426645697098"><ele>417.0</ele><time>2026-03-26T17:43:43Z</time></trkpt><trkpt lat="36.94760456491395" lon="15.024351879110418"><ele>417.0</ele><time>2026-03-26T17:43:44Z</time></trkpt><trkpt lat="36.94761729831419" lon="15.024461223215848"><ele>418.0</ele><time>2026-03-26T17:43:45Z</time></trkpt><trkpt lat="36.947645172755934" lon="15.024606541227463"><ele>419.0</ele><time>2026-03-26T17:43:46Z</time></trkpt><trkpt lat="36.94767284952031" lon="15.024755480971974"><ele>420.0</ele><time>2026-03-26T17:43:47Z</time></trkpt><trkpt lat="36.94769606633913" lon="15.024881739076198"><ele>421.0</ele><time>2026-03-26T17:43:48Z</time></trkpt><trkpt lat="36.94771921414677" lon="15.024995790939657"><ele>422.0</ele><time>2026-03-26T17:43:49Z</time></trkpt><trkpt lat="36.947737637897106" lon="15.025097565551947"><ele>418.66666666666663</ele><time>2026-03-26T17:43:50Z</time></trkpt><trkpt lat="36.94775190654932" lon="15.025187483851875"><ele>415.3333333333333</ele><time>2026-03-26T17:43:51Z</time></trkpt><trkpt lat="36.947719573802374" lon="15.025328110075531"><ele>412.0</ele><time>2026-03-26T17:43:53Z</time></trkpt><trkpt lat="36.94764541058965" lon="15.02542981469474"><ele>408.66666666666663</ele><time>2026-03-26T17:43:55Z</time></trkpt><trkpt lat="36.947585760606465" lon="15.02548409821645"><ele>405.3333333333333</ele><time>2026-03-26T17:43:57Z</time></trkpt><trkpt lat="36.94752549735345" lon="15.025451898539824"><ele>402.0</ele><time>2026-03-26T17:43:59Z</time></trkpt><trkpt lat="36.94746951367107" lon="15.025381134444773"><ele>401.6</ele><time>2026-03-26T17:44:00Z</time></trkpt><trkpt lat="36.94740000511422" lon="15.02528570143638"><ele>401.20000000000005</ele><time>2026-03-26T17:44:01Z</time></trkpt><trkpt lat="36.94733936288764" lon="15.025181898043451"><ele>400.8</ele><time>2026-03-26T17:44:02Z</time></trkpt><trkpt lat="36.94730441069573" lon="15.025052572005116"><ele>400.4</ele><time>2026-03-26T17:44:03Z</time></trkpt><trkpt lat="36.94727496724913" lon="15.024950713927778"><ele>400.0</ele><time>2026-03-26T17:44:04Z</time></trkpt><trkpt lat="36.947245547365895" lon="15.024862444489202"><ele>400.00000000000006</ele><time>2026-03-26T17:44:05Z</time></trkpt><trkpt lat="36.94720906330002" lon="15.02477736000881"><ele>400.0</ele><time>2026-03-26T17:44:06Z</time></trkpt><trkpt lat="36.94715191758477" lon="15.02470231545884"><ele>400.0</ele><time>2026-03-26T17:44:07Z</time></trkpt><trkpt lat="36.94708307674511" lon="15.024656994750382"><ele>400.0</ele><time>2026-03-26T17:44:08Z</time></trkpt><trkpt lat="36.947005759198575" lon="15.024620727461247"><ele>400.00000000000006</ele><time>2026-03-26T17:44:09Z</time></trkpt><trkpt lat="36.946896603119775" lon="15.024627379672927"><ele>400.0</ele><time>2026-03-26T17:44:10Z</time></trkpt><trkpt lat="36.94676476686056" lon="15.024670542784014"><ele>396.6666666666667</ele><time>2026-03-26T17:44:11Z</time></trkpt><trkpt lat="36.94661082690922" lon="15.024728120690432"><ele>393.33333333333337</ele><time>2026-03-26T17:44:12Z</time></trkpt><trkpt lat="36.946461873183495" lon="15.024782122556147"><ele>390.0</ele><time>2026-03-26T17:44:13Z</time></trkpt><trkpt lat="36.94632596552095" lon="15.024838632908823"><ele>390.0</ele><time>2026-03-26T17:44:14Z</time></trkpt><trkpt lat="36.946187825356695" lon="15.024908029245056"><ele>390.0</ele><time>2026-03-26T17:44:15Z</time></trkpt><trkpt lat="36.94603092241763" lon="15.024996276447874"><ele>390.0</ele><time>2026-03-26T17:44:16Z</time></trkpt><trkpt lat="36.94586017040248" lon="15.025094959236565"><ele>389.33333333333337</ele><time>2026-03-26T17:44:17Z</time></trkpt><trkpt lat="36.94568530777472" lon="15.025193783198464"><ele>388.6666666666667</ele><time>2026-03-26T17:44:18Z</time></trkpt><trkpt lat="36.9455082880198" lon="15.025294879719224"><ele>388.0</ele><time>2026-03-26T17:44:19Z</time></trkpt><trkpt lat="36.94533467788779" lon="15.02538617080416"><ele>388.0</ele><time>2026-03-26T17:44:20Z</time></trkpt><trkpt lat="36.945147228880614" lon="15.025464156711758"><ele>388.0</ele><time>2026-03-26T17:44:21Z</time></trkpt><trkpt lat="36.94497986432763" lon="15.02553237207957"><ele>388.0</ele><time>2026-03-26T17:44:22Z</time></trkpt><trkpt lat="36.94483660752771" lon="15.025589579786411"><ele>387.0</ele><time>2026-03-26T17:44:23Z</time></trkpt><trkpt lat="36.94471062125102" lon="15.025634431429681"><ele>386.0</ele><time>2026-03-26T17:44:23.999Z</time></trkpt><trkpt lat="36.94461041653874" lon="15.025670190899898"><ele>385.0</ele><time>2026-03-26T17:44:24.999Z</time></trkpt><trkpt lat="36.94454907106186" lon="15.025692082863378"><ele>384.0</ele><time>2026-03-26T17:44:25.999Z</time></trkpt><trkpt lat="36.94447998876524" lon="15.025702528767123"><ele>383.0</ele><time>2026-03-26T17:44:26.999Z</time></trkpt><trkpt lat="36.94442610088529" lon="15.025780854177771"><ele>387.5</ele><time>2026-03-26T17:44:27.999Z</time></trkpt><trkpt lat="36.944551250697245" lon="15.025922914809774"><ele>392.0</ele><time>2026-03-26T17:44:28.999Z</time></trkpt><trkpt lat="36.9446322867241" lon="15.026005048054392"><ele>396.5</ele><time>2026-03-26T17:44:29.999Z</time></trkpt><trkpt lat="36.9447162237294" lon="15.026101532632541"><ele>401.0</ele><time>2026-03-26T17:44:30.999Z</time></trkpt><trkpt lat="36.94481650127136" lon="15.026197689595"><ele>401.0</ele><time>2026-03-26T17:44:31.999Z</time></trkpt><trkpt lat="36.944921044428625" lon="15.026303241061147"><ele>401.0</ele><time>2026-03-26T17:44:32.999Z</time></trkpt><trkpt lat="36.94503178801251" lon="15.026415301888203"><ele>401.0</ele><time>2026-03-26T17:44:33.999Z</time></trkpt><trkpt lat="36.94516096090774" lon="15.026519500629684"><ele>401.0</ele><time>2026-03-26T17:44:34.999Z</time></trkpt><trkpt lat="36.945275219952705" lon="15.026643138378041"><ele>403.5</ele><time>2026-03-26T17:44:36Z</time></trkpt><trkpt lat="36.9453823791706" lon="15.02675357957979"><ele>406.0</ele><time>2026-03-26T17:44:37Z</time></trkpt><trkpt lat="36.945484563728506" lon="15.026852577693031"><ele>408.5</ele><time>2026-03-26T17:44:38Z</time></trkpt><trkpt lat="36.9455827397125" lon="15.026949187632901"><ele>411.0</ele><time>2026-03-26T17:44:39Z</time></trkpt><trkpt lat="36.945675499446736" lon="15.027044144143716"><ele>411.0</ele><time>2026-03-26T17:44:40Z</time></trkpt><trkpt lat="36.94574955431479" lon="15.027124576120974"><ele>411.0</ele><time>2026-03-26T17:44:41Z</time></trkpt><trkpt lat="36.94581947297975" lon="15.027185480312042"><ele>411.0</ele><time>2026-03-26T17:44:42Z</time></trkpt><trkpt lat="36.94590465137265" lon="15.027217890233757"><ele>411.0</ele><time>2026-03-26T17:44:43Z</time></trkpt><trkpt lat="36.946007733908935" lon="15.027222391297608"><ele>411.0</ele><time>2026-03-26T17:44:44Z</time></trkpt><trkpt lat="36.946148693878875" lon="15.027209065387517"><ele>411.0</ele><time>2026-03-26T17:44:45Z</time></trkpt><trkpt lat="36.946303496817094" lon="15.027196270111679"><ele>411.0</ele><time>2026-03-26T17:44:46Z</time></trkpt><trkpt lat="36.946482390799815" lon="15.02718703563685"><ele>411.0</ele><time>2026-03-26T17:44:47Z</time></trkpt><trkpt lat="36.94666549738391" lon="15.027183743545159"><ele>410.0</ele><time>2026-03-26T17:44:48Z</time></trkpt><trkpt lat="36.946865186049955" lon="15.027175700935132"><ele>409.0</ele><time>2026-03-26T17:44:49Z</time></trkpt><trkpt lat="36.94706300356619" lon="15.02716692216997"><ele>408.0</ele><time>2026-03-26T17:44:50Z</time></trkpt><trkpt lat="36.9472572162862" lon="15.02715292900136"><ele>408.0</ele><time>2026-03-26T17:44:51Z</time></trkpt><trkpt lat="36.947450599271875" lon="15.02713721096484"><ele>408.0</ele><time>2026-03-26T17:44:52Z</time></trkpt><trkpt lat="36.94763445357207" lon="15.027124818266413"><ele>408.0</ele><time>2026-03-26T17:44:53Z</time></trkpt><trkpt lat="36.94780532347293" lon="15.027116270335055"><ele>408.66666666666663</ele><time>2026-03-26T17:44:54Z</time></trkpt><trkpt lat="36.94797555288426" lon="15.02710907352188"><ele>409.3333333333333</ele><time>2026-03-26T17:44:55Z</time></trkpt><trkpt lat="36.9481397134567" lon="15.02709815647785"><ele>410.0</ele><time>2026-03-26T17:44:56Z</time></trkpt><trkpt lat="36.94828497411478" lon="15.02708852697107"><ele>411.25</ele><time>2026-03-26T17:44:57Z</time></trkpt><trkpt lat="36.94841796774896" lon="15.02708065881413"><ele>412.5</ele><time>2026-03-26T17:44:58Z</time></trkpt><trkpt lat="36.94854641897037" lon="15.027077857893588"><ele>413.75</ele><time>2026-03-26T17:44:59Z</time></trkpt><trkpt lat="36.94866486852433" lon="15.02707536362968"><ele>415.0</ele><time>2026-03-26T17:45:00Z</time></trkpt><trkpt lat="36.948769884462585" lon="15.027063139625549"><ele>415.0</ele><time>2026-03-26T17:45:01Z</time></trkpt><trkpt lat="36.94887062601245" lon="15.027016404500806"><ele>415.0</ele><time>2026-03-26T17:45:02Z</time></trkpt><trkpt lat="36.948973159424" lon="15.026928070389776"><ele>415.0</ele><time>2026-03-26T17:45:03Z</time></trkpt><trkpt lat="36.94907622313797" lon="15.02679758072444"><ele>415.0</ele><time>2026-03-26T17:45:04Z</time></trkpt><trkpt lat="36.94917121215283" lon="15.026685451856702"><ele>414.8</ele><time>2026-03-26T17:45:05Z</time></trkpt><trkpt lat="36.94925338867135" lon="15.0265961444904"><ele>414.6</ele><time>2026-03-26T17:45:06Z</time></trkpt><trkpt lat="36.94933843604508" lon="15.026521697743004"><ele>414.4</ele><time>2026-03-26T17:45:07Z</time></trkpt><trkpt lat="36.94943652850592" lon="15.026459959229994"><ele>414.2</ele><time>2026-03-26T17:45:08Z</time></trkpt><trkpt lat="36.94955385418197" lon="15.026421779935673"><ele>414.0</ele><time>2026-03-26T17:45:09Z</time></trkpt><trkpt lat="36.94969565069527" lon="15.026400093192493"><ele>414.0</ele><time>2026-03-26T17:45:10Z</time></trkpt><trkpt lat="36.949849018137115" lon="15.026379971872716"><ele>414.0</ele><time>2026-03-26T17:45:11Z</time></trkpt><trkpt lat="36.95000133392232" lon="15.026352452284417"><ele>414.0</ele><time>2026-03-26T17:45:12Z</time></trkpt><trkpt lat="36.950134451103196" lon="15.026329197221687"><ele>414.0</ele><time>2026-03-26T17:45:13Z</time></trkpt><trkpt lat="36.95025799642507" lon="15.026314504935318"><ele>415.6</ele><time>2026-03-26T17:45:14Z</time></trkpt><trkpt lat="36.950368495980356" lon="15.026313592268922"><ele>417.2</ele><time>2026-03-26T17:45:15Z</time></trkpt><trkpt lat="36.95046756874354" lon="15.026332239155945"><ele>418.8</ele><time>2026-03-26T17:45:16Z</time></trkpt><trkpt lat="36.95056686002494" lon="15.026376885545806"><ele>420.40000000000003</ele><time>2026-03-26T17:45:17Z</time></trkpt><trkpt lat="36.95066363995085" lon="15.026482466797928"><ele>422.0</ele><time>2026-03-26T17:45:18Z</time></trkpt><trkpt lat="36.95078953439365" lon="15.02659570153027"><ele>420.0</ele><time>2026-03-26T17:45:19Z</time></trkpt><trkpt lat="36.9509353440331" lon="15.026694782193339"><ele>418.0</ele><time>2026-03-26T17:45:20Z</time></trkpt><trkpt lat="36.951061628510026" lon="15.026793135557707"><ele>416.0</ele><time>2026-03-26T17:45:21Z</time></trkpt><trkpt lat="36.95118023745496" lon="15.026898344525172"><ele>416.0</ele><time>2026-03-26T17:45:22Z</time></trkpt><trkpt lat="36.95128995961239" lon="15.027041505054857"><ele>416.0</ele><time>2026-03-26T17:45:23Z</time></trkpt><trkpt lat="36.95141365929576" lon="15.027183407525808"><ele>416.0</ele><time>2026-03-26T17:45:24Z</time></trkpt><trkpt lat="36.95152616941125" lon="15.027317592661408"><ele>416.0</ele><time>2026-03-26T17:45:25Z</time></trkpt><trkpt lat="36.951635687697355" lon="15.027454982852044"><ele>416.0</ele><time>2026-03-26T17:45:26Z</time></trkpt><trkpt lat="36.95173713944955" lon="15.02759320591936"><ele>416.0</ele><time>2026-03-26T17:45:27Z</time></trkpt><trkpt lat="36.95183094509237" lon="15.027735168648057"><ele>415.3333333333333</ele><time>2026-03-26T17:45:28Z</time></trkpt><trkpt lat="36.951908491124044" lon="15.027887989070036"><ele>414.66666666666663</ele><time>2026-03-26T17:45:29Z</time></trkpt><trkpt lat="36.95197629486098" lon="15.028068800347258"><ele>414.0</ele><time>2026-03-26T17:45:30Z</time></trkpt><trkpt lat="36.95203298364735" lon="15.02826431521079"><ele>412.33333333333337</ele><time>2026-03-26T17:45:31Z</time></trkpt><trkpt lat="36.9520797078964" lon="15.028454537217073"><ele>410.6666666666667</ele><time>2026-03-26T17:45:32Z</time></trkpt><trkpt lat="36.952120904556224" lon="15.028646018504256"><ele>409.0</ele><time>2026-03-26T17:45:33Z</time></trkpt><trkpt lat="36.95215957198899" lon="15.028840700724713"><ele>409.0</ele><time>2026-03-26T17:45:34Z</time></trkpt><trkpt lat="36.95219395899147" lon="15.029021375634908"><ele>409.0</ele><time>2026-03-26T17:45:35Z</time></trkpt><trkpt lat="36.952226190186096" lon="15.029200567638496"><ele>409.0</ele><time>2026-03-26T17:45:36Z</time></trkpt><trkpt lat="36.95225961620701" lon="15.029376551175835"><ele>409.0</ele><time>2026-03-26T17:45:37Z</time></trkpt><trkpt lat="36.95230480117467" lon="15.029548912661168"><ele>408.79999999999995</ele><time>2026-03-26T17:45:38Z</time></trkpt><trkpt lat="36.952349062380485" lon="15.029697907141312"><ele>408.59999999999997</ele><time>2026-03-26T17:45:39Z</time></trkpt><trkpt lat="36.952390926414054" lon="15.029833950899206"><ele>408.4</ele><time>2026-03-26T17:45:40Z</time></trkpt><trkpt lat="36.9524356549095" lon="15.029936754250782"><ele>408.2</ele><time>2026-03-26T17:45:41Z</time></trkpt><trkpt lat="36.95250601115906" lon="15.030016965291688"><ele>408.0</ele><time>2026-03-26T17:45:42Z</time></trkpt><trkpt lat="36.95257602117307" lon="15.030070952422307"><ele>407.4</ele><time>2026-03-26T17:45:43Z</time></trkpt><trkpt lat="36.95266662754455" lon="15.030093334090378"><ele>406.79999999999995</ele><time>2026-03-26T17:45:44Z</time></trkpt><trkpt lat="36.952783670854096" lon="15.030088895597464"><ele>406.2</ele><time>2026-03-26T17:45:45Z</time></trkpt><trkpt lat="36.95289297087425" lon="15.030094510892658"><ele>405.6</ele><time>2026-03-26T17:45:46Z</time></trkpt><trkpt lat="36.95299330830799" lon="15.030121929145475"><ele>405.0</ele><time>2026-03-26T17:45:47Z</time></trkpt><trkpt lat="36.95309778214371" lon="15.03016665165775"><ele>405.0</ele><time>2026-03-26T17:45:48Z</time></trkpt><trkpt lat="36.95317696179005" lon="15.030261478219424"><ele>405.0</ele><time>2026-03-26T17:45:49Z</time></trkpt><trkpt lat="36.95327863701304" lon="15.030369670910947"><ele>405.0</ele><time>2026-03-26T17:45:50Z</time></trkpt><trkpt lat="36.95339477713662" lon="15.030488449549438"><ele>405.0</ele><time>2026-03-26T17:45:51Z</time></trkpt><trkpt lat="36.95349243922423" lon="15.030605308875288"><ele>405.75</ele><time>2026-03-26T17:45:52Z</time></trkpt><trkpt lat="36.953588733432056" lon="15.030714395917402"><ele>406.5</ele><time>2026-03-26T17:45:53Z</time></trkpt><trkpt lat="36.9536851197326" lon="15.03082014067819"><ele>407.25</ele><time>2026-03-26T17:45:54Z</time></trkpt><trkpt lat="36.95378638007415" lon="15.030906686493472"><ele>408.0</ele><time>2026-03-26T17:45:55Z</time></trkpt><trkpt lat="36.953896684813316" lon="15.03097108998806"><ele>403.75</ele><time>2026-03-26T17:45:56Z</time></trkpt><trkpt lat="36.95402375004894" lon="15.031011718652952"><ele>399.5</ele><time>2026-03-26T17:45:57Z</time></trkpt><trkpt lat="36.95416919165605" lon="15.031028856290865"><ele>395.25</ele><time>2026-03-26T17:45:58Z</time></trkpt><trkpt lat="36.954310862192294" lon="15.031025596361548"><ele>391.0</ele><time>2026-03-26T17:45:59Z</time></trkpt><trkpt lat="36.95443979267202" lon="15.03103213383924"><ele>390.0</ele><time>2026-03-26T17:46:00Z</time></trkpt><trkpt lat="36.954554512190775" lon="15.031041901815176"><ele>389.0</ele><time>2026-03-26T17:46:01Z</time></trkpt><trkpt lat="36.95467607793457" lon="15.03102810283948"><ele>388.0</ele><time>2026-03-26T17:46:02Z</time></trkpt><trkpt lat="36.95481526973792" lon="15.030972095034521"><ele>387.0</ele><time>2026-03-26T17:46:03Z</time></trkpt><trkpt lat="36.954939094025995" lon="15.030926279159235"><ele>385.5</ele><time>2026-03-26T17:46:04Z</time></trkpt><trkpt lat="36.955050643758966" lon="15.030895997419709"><ele>384.0</ele><time>2026-03-26T17:46:05Z</time></trkpt><trkpt lat="36.95516898546534" lon="15.030870787014827"><ele>382.5</ele><time>2026-03-26T17:46:06Z</time></trkpt><trkpt lat="36.95529452165" lon="15.030853522162582"><ele>381.0</ele><time>2026-03-26T17:46:07Z</time></trkpt><trkpt lat="36.955426998315616" lon="15.03084290288656"><ele>381.0</ele><time>2026-03-26T17:46:08Z</time></trkpt><trkpt lat="36.95556386974346" lon="15.03082716707005"><ele>381.0</ele><time>2026-03-26T17:46:09Z</time></trkpt><trkpt lat="36.955702352749725" lon="15.030790791410949"><ele>381.0</ele><time>2026-03-26T17:46:10Z</time></trkpt><trkpt lat="36.95582581782014" lon="15.030753370170553"><ele>381.0</ele><time>2026-03-26T17:46:11Z</time></trkpt><trkpt lat="36.95594353590769" lon="15.030730464900369"><ele>382.20000000000005</ele><time>2026-03-26T17:46:12Z</time></trkpt><trkpt lat="36.956054316260676" lon="15.030710889407207"><ele>383.40000000000003</ele><time>2026-03-26T17:46:13Z</time></trkpt><trkpt lat="36.95615901458521" lon="15.030693862372122"><ele>384.6</ele><time>2026-03-26T17:46:14Z</time></trkpt><trkpt lat="36.95626236546804" lon="15.030677423104029"><ele>385.8</ele><time>2026-03-26T17:46:15Z</time></trkpt><trkpt lat="36.95635340490987" lon="15.030664896176619"><ele>387.0</ele><time>2026-03-26T17:46:16Z</time></trkpt><trkpt lat="36.9564460407966" lon="15.030654103156886"><ele>387.0</ele><time>2026-03-26T17:46:17Z</time></trkpt><trkpt lat="36.956522822239116" lon="15.030653613386473"><ele>387.0</ele><time>2026-03-26T17:46:18Z</time></trkpt><trkpt lat="36.95657762621417" lon="15.030612123543593"><ele>387.0</ele><time>2026-03-26T17:46:19Z</time></trkpt><trkpt lat="36.956669098033345" lon="15.030489430107206"><ele>387.0</ele><time>2026-03-26T17:46:21Z</time></trkpt><trkpt lat="36.95671826191428" lon="15.030376900515808"><ele>387.0</ele><time>2026-03-26T17:46:22Z</time></trkpt><trkpt lat="36.95672111704387" lon="15.03023475943842"><ele>388.0</ele><time>2026-03-26T17:46:23Z</time></trkpt><trkpt lat="36.956746694070915" lon="15.030143377765897"><ele>389.0</ele><time>2026-03-26T17:46:24Z</time></trkpt><trkpt lat="36.95676144440545" lon="15.030049664922748"><ele>390.0</ele><time>2026-03-26T17:46:25Z</time></trkpt><trkpt lat="36.95682702650064" lon="15.02994787898329"><ele>391.0</ele><time>2026-03-26T17:46:26Z</time></trkpt><trkpt lat="36.9569049781323" lon="15.029833323139453"><ele>392.0</ele><time>2026-03-26T17:46:26.999Z</time></trkpt><trkpt lat="36.956960196292634" lon="15.029736703153905"><ele>392.8333333333333</ele><time>2026-03-26T17:46:27.999Z</time></trkpt><trkpt lat="36.957017497694515" lon="15.02967196451967"><ele>393.66666666666663</ele><time>2026-03-26T17:46:28.999Z</time></trkpt><trkpt lat="36.957093405826704" lon="15.029620269330321"><ele>394.5</ele><time>2026-03-26T17:46:29.999Z</time></trkpt><trkpt lat="36.95715721164918" lon="15.02959693724377"><ele>395.33333333333337</ele><time>2026-03-26T17:46:30.999Z</time></trkpt><trkpt lat="36.957260781016686" lon="15.029648341091669"><ele>396.1666666666667</ele><time>2026-03-26T17:46:32.999Z</time></trkpt><trkpt lat="36.95729789156234" lon="15.029729844904567"><ele>397.0</ele><time>2026-03-26T17:46:33.999Z</time></trkpt><trkpt lat="36.95728883979473" lon="15.029821994707797"><ele>397.0</ele><time>2026-03-26T17:46:35.999Z</time></trkpt><trkpt lat="36.95724259626518" lon="15.029907960437678"><ele>397.0</ele><time>2026-03-26T17:46:38.999Z</time></trkpt><trkpt lat="36.9329706697558" lon="15.024626052579105"><ele>391.20000000000005</ele><time>2026-03-26T17:39:17Z</time></trkpt><trkpt lat="36.93306002258903" lon="15.024561364449534"><ele>385.4</ele><time>2026-03-26T17:39:18Z</time></trkpt><trkpt lat="36.93315661520342" lon="15.024513648690961"><ele>379.6</ele><time>2026-03-26T17:39:19Z</time></trkpt><trkpt lat="36.93326139178654" lon="15.024482384422866"><ele>373.79999999999995</ele><time>2026-03-26T17:39:20Z</time></trkpt><trkpt lat="36.93337873065059" lon="15.024462831178202"><ele>368.0</ele><time>2026-03-26T17:39:21Z</time></trkpt><trkpt lat="36.933506529729954" lon="15.024452000293637"><ele>368.0</ele><time>2026-03-26T17:39:22Z</time></trkpt><trkpt lat="36.93364746805582" lon="15.024447001982805"><ele>368.0</ele><time>2026-03-26T17:39:23Z</time></trkpt><trkpt lat="36.93376339220434" lon="15.02444977903729"><ele>368.0</ele><time>2026-03-26T17:39:24Z</time></trkpt><trkpt lat="36.933875195258224" lon="15.024457782099226"><ele>368.0</ele><time>2026-03-26T17:39:25Z</time></trkpt><trkpt lat="36.933996597720615" lon="15.024458062184639"><ele>368.0</ele><time>2026-03-26T17:39:26Z</time></trkpt><trkpt lat="36.934121764083905" lon="15.02447350730579"><ele>368.0</ele><time>2026-03-26T17:39:27Z</time></trkpt><trkpt lat="36.93422166237118" lon="15.024475958389043"><ele>368.0</ele><time>2026-03-26T17:39:28Z</time></trkpt><trkpt lat="36.93431993233417" lon="15.024464051418933"><ele>368.0</ele><time>2026-03-26T17:39:29Z</time></trkpt><trkpt lat="36.93442543619348" lon="15.024431596816678"><ele>368.0</ele><time>2026-03-26T17:39:30Z</time></trkpt><trkpt lat="36.93454433144211" lon="15.024382917304452"><ele>371.25</ele><time>2026-03-26T17:39:31Z</time></trkpt><trkpt lat="36.93467300296178" lon="15.024319086241833"><ele>374.5</ele><time>2026-03-26T17:39:32Z</time></trkpt><trkpt lat="36.934799947568564" lon="15.024258288221514"><ele>377.75</ele><time>2026-03-26T17:39:33Z</time></trkpt><trkpt lat="36.934930331061196" lon="15.024191386029356"><ele>381.0</ele><time>2026-03-26T17:39:34Z</time></trkpt><trkpt lat="36.93504917445716" lon="15.024131777955157"><ele>383.6</ele><time>2026-03-26T17:39:35Z</time></trkpt><trkpt lat="36.935171029057635" lon="15.024074957659197"><ele>386.20000000000005</ele><time>2026-03-26T17:39:36Z</time></trkpt><trkpt lat="36.93528356721645" lon="15.02402200106493"><ele>388.79999999999995</ele><time>2026-03-26T17:39:37Z</time></trkpt><trkpt lat="36.93538526925262" lon="15.023966386715673"><ele>391.4</ele><time>2026-03-26T17:39:38Z</time></trkpt><trkpt lat="36.935464848781066" lon="15.02391975146241"><ele>394.0</ele><time>2026-03-26T17:39:39Z</time></trkpt><trkpt lat="36.93553524564793" lon="15.023863967988948"><ele>394.00000000000006</ele><time>2026-03-26T17:39:40Z</time></trkpt><trkpt lat="36.93560004718232" lon="15.02379788442265"><ele>394.0</ele><time>2026-03-26T17:39:41Z</time></trkpt><trkpt lat="36.93567135016571" lon="15.023722378218304"><ele>394.0</ele><time>2026-03-26T17:39:42Z</time></trkpt><trkpt lat="36.93574329805421" lon="15.023707793561806"><ele>394.0</ele><time>2026-03-26T17:39:43Z</time></trkpt><trkpt lat="36.93581606981001" lon="15.023716963496208"><ele>394.00000000000006</ele><time>2026-03-26T17:39:44Z</time></trkpt><trkpt lat="36.93591525269695" lon="15.023726579475813"><ele>394.0</ele><time>2026-03-26T17:39:45Z</time></trkpt><trkpt lat="36.93602510076125" lon="15.023727663139146"><ele>395.79999999999995</ele><time>2026-03-26T17:39:46Z</time></trkpt><trkpt lat="36.936133418502614" lon="15.023740476106326"><ele>397.59999999999997</ele><time>2026-03-26T17:39:47Z</time></trkpt><trkpt lat="36.93622735933339" lon="15.023738295521714"><ele>399.4</ele><time>2026-03-26T17:39:48Z</time></trkpt><trkpt lat="36.93633619052927" lon="15.023710205205319"><ele>401.2</ele><time>2026-03-26T17:39:49Z</time></trkpt><trkpt lat="36.93644831206269" lon="15.02367550879989"><ele>403.0</ele><time>2026-03-26T17:39:50Z</time></trkpt><trkpt lat="36.936555085092984" lon="15.023646161380457"><ele>403.00000000000006</ele><time>2026-03-26T17:39:51Z</time></trkpt><trkpt lat="36.93663000511418" lon="15.023634336078949"><ele>403.0</ele><time>2026-03-26T17:39:52Z</time></trkpt><trkpt lat="36.936721536023754" lon="15.023655274435557"><ele>403.0</ele><time>2026-03-26T17:39:54Z</time></trkpt><trkpt lat="36.93673292232652" lon="15.023766311620756"><ele>403.0</ele><time>2026-03-26T17:39:56Z</time></trkpt><trkpt lat="36.93676769580059" lon="15.023844530934948"><ele>403.00000000000006</ele><time>2026-03-26T17:39:57Z</time></trkpt><trkpt lat="36.9368182462997" lon="15.023953081941077"><ele>403.0</ele><time>2026-03-26T17:39:58Z</time></trkpt><trkpt lat="36.93687675400384" lon="15.024054402050174"><ele>403.59999999999997</ele><time>2026-03-26T17:39:59Z</time></trkpt><trkpt lat="36.93693184015844" lon="15.0241439670411"><ele>404.2</ele><time>2026-03-26T17:40:00Z</time></trkpt><trkpt lat="36.93698510519714" lon="15.024234921360128"><ele>404.8</ele><time>2026-03-26T17:40:01Z</time></trkpt><trkpt lat="36.93702882188334" lon="15.024313010387537"><ele>405.4</ele><time>2026-03-26T17:40:02Z</time></trkpt><trkpt lat="36.937085410197305" lon="15.02437884424964"><ele>406.0</ele><time>2026-03-26T17:40:04Z</time></trkpt><trkpt lat="36.93720118089071" lon="15.024389949615342"><ele>406.0</ele><time>2026-03-26T17:40:06Z</time></trkpt><trkpt lat="36.93727428186118" lon="15.024280741364509"><ele>406.0</ele><time>2026-03-26T17:40:07Z</time></trkpt><trkpt lat="36.93735406574084" lon="15.02421737389268"><ele>406.0</ele><time>2026-03-26T17:40:08Z</time></trkpt><trkpt lat="36.93743810002558" lon="15.024154740346791"><ele>406.0</ele><time>2026-03-26T17:40:09Z</time></trkpt><trkpt lat="36.93753014183897" lon="15.024091384139151"><ele>406.0</ele><time>2026-03-26T17:40:10Z</time></trkpt><trkpt lat="36.93763606478938" lon="15.024028568405221"><ele>407.5</ele><time>2026-03-26T17:40:10.999Z</time></trkpt><trkpt lat="36.93775516346778" lon="15.023948632272482"><ele>409.0</ele><time>2026-03-26T17:40:11.999Z</time></trkpt><trkpt lat="36.93788550750236" lon="15.023853314472403"><ele>410.5</ele><time>2026-03-26T17:40:12.999Z</time></trkpt><trkpt lat="36.93802135207472" lon="15.02376088035909"><ele>412.0</ele><time>2026-03-26T17:40:13.999Z</time></trkpt><trkpt lat="36.93814775403189" lon="15.02367192629959"><ele>412.00000000000006</ele><time>2026-03-26T17:40:14.999Z</time></trkpt><trkpt lat="36.93825215990265" lon="15.023605803312906"><ele>412.0</ele><time>2026-03-26T17:40:15.999Z</time></trkpt><trkpt lat="36.938335263232254" lon="15.023551702215435"><ele>412.0</ele><time>2026-03-26T17:40:16.999Z</time></trkpt><trkpt lat="36.93840122243908" lon="15.02350197709666"><ele>412.0</ele><time>2026-03-26T17:40:17.999Z</time></trkpt><trkpt lat="36.93845905922613" lon="15.023434722448872"><ele>412.00000000000006</ele><time>2026-03-26T17:40:18.999Z</time></trkpt><trkpt lat="36.93849999645961" lon="15.023353298377623"><ele>412.0</ele><time>2026-03-26T17:40:19.999Z</time></trkpt><trkpt lat="36.93853106320713" lon="15.023245880964733"><ele>412.75</ele><time>2026-03-26T17:40:20.999Z</time></trkpt><trkpt lat="36.938547926966095" lon="15.02311488268623"><ele>413.5</ele><time>2026-03-26T17:40:21.999Z</time></trkpt><trkpt lat="36.93857010003515" lon="15.022943117212753"><ele>414.25</ele><time>2026-03-26T17:40:22.999Z</time></trkpt><trkpt lat="36.93859721865997" lon="15.022770555369174"><ele>415.0</ele><time>2026-03-26T17:40:24Z</time></trkpt><trkpt lat="36.93862395557243" lon="15.022615565132934"><ele>415.0</ele><time>2026-03-26T17:40:25Z</time></trkpt><trkpt lat="36.93864959091417" lon="15.02249261038913"><ele>415.0</ele><time>2026-03-26T17:40:26Z</time></trkpt><trkpt lat="36.93866756927472" lon="15.02241121330724"><ele>415.0</ele><time>2026-03-26T17:40:27Z</time></trkpt><trkpt lat="36.938714508466695" lon="15.022297940652576"><ele>415.0</ele><time>2026-03-26T17:40:29Z</time></trkpt><trkpt lat="36.938809232326285" lon="15.02225507999787"><ele>415.0</ele><time>2026-03-26T17:40:33Z</time></trkpt><trkpt lat="36.93891028385658" lon="15.022279071832184"><ele>414.75</ele><time>2026-03-26T17:40:34Z</time></trkpt><trkpt lat="36.93904598649228" lon="15.022334277591535"><ele>414.5</ele><time>2026-03-26T17:40:35Z</time></trkpt><trkpt lat="36.939196740009855" lon="15.022411534976214"><ele>414.25</ele><time>2026-03-26T17:40:36Z</time></trkpt><trkpt lat="36.93931727146323" lon="15.022474132841298"><ele>414.0</ele><time>2026-03-26T17:40:37Z</time></trkpt><trkpt lat="36.93942591654816" lon="15.022560381566606"><ele>414.0</ele><time>2026-03-26T17:40:38Z</time></trkpt><trkpt lat="36.939508176009696" lon="15.022680060390392"><ele>414.0</ele><time>2026-03-26T17:40:39Z</time></trkpt><trkpt lat="36.93958388983664" lon="15.022758371998506"><ele>414.0</ele><time>2026-03-26T17:40:40Z</time></trkpt><trkpt lat="36.93966925937357" lon="15.022819974639486"><ele>414.0</ele><time>2026-03-26T17:40:41Z</time></trkpt><trkpt lat="36.939782287727446" lon="15.022837519512143"><ele>414.0</ele><time>2026-03-26T17:40:42Z</time></trkpt><trkpt lat="36.93989971072054" lon="15.022843519858423"><ele>414.0</ele><time>2026-03-26T17:40:43Z</time></trkpt><trkpt lat="36.940043711092294" lon="15.022879307375431"><ele>414.0</ele><time>2026-03-26T17:40:44Z</time></trkpt><trkpt lat="36.94020794552445" lon="15.022883518160274"><ele>414.0</ele><time>2026-03-26T17:40:45Z</time></trkpt><trkpt lat="36.940386901139206" lon="15.02291859025969"><ele>414.33333333333337</ele><time>2026-03-26T17:40:46Z</time></trkpt><trkpt lat="36.940538801128696" lon="15.02294213930893"><ele>414.6666666666667</ele><time>2026-03-26T17:40:47Z</time></trkpt><trkpt lat="36.94069212549951" lon="15.022953202390639"><ele>415.0</ele><time>2026-03-26T17:40:48Z</time></trkpt><trkpt lat="36.9408503442895" lon="15.02297793341596"><ele>415.33333333333337</ele><time>2026-03-26T17:40:49Z</time></trkpt><trkpt lat="36.94099486990096" lon="15.023017574593414"><ele>415.66666666666663</ele><time>2026-03-26T17:40:50Z</time></trkpt><trkpt lat="36.941154783354456" lon="15.023079577977851"><ele>416.0</ele><time>2026-03-26T17:40:51Z</time></trkpt><trkpt lat="36.94132627139818" lon="15.023150891499855"><ele>416.0</ele><time>2026-03-26T17:40:52Z</time></trkpt><trkpt lat="36.941485401108615" lon="15.023210964644258"><ele>416.0</ele><time>2026-03-26T17:40:53Z</time></trkpt><trkpt lat="36.941626432463075" lon="15.023273302122963"><ele>416.0</ele><time>2026-03-26T17:40:54Z</time></trkpt><trkpt lat="36.94174137084615" lon="15.023323919329453"><ele>416.0</ele><time>2026-03-26T17:40:55Z</time></trkpt><trkpt lat="36.94184145251487" lon="15.023361939245813"><ele>416.25</ele><time>2026-03-26T17:40:56Z</time></trkpt><trkpt lat="36.941940712707726" lon="15.023397522585379"><ele>416.5</ele><time>2026-03-26T17:40:57Z</time></trkpt><trkpt lat="36.94204434154351" lon="15.023416067718903"><ele>416.75</ele><time>2026-03-26T17:40:58Z</time></trkpt><trkpt lat="36.94217082205087" lon="15.023428475316779"><ele>417.0</ele><time>2026-03-26T17:40:59Z</time></trkpt><trkpt lat="36.94233315252253" lon="15.023437048464535"><ele>417.0</ele><time>2026-03-26T17:41:00Z</time></trkpt><trkpt lat="36.94249219966615" lon="15.023437590255591"><ele>417.0</ele><time>2026-03-26T17:41:01Z</time></trkpt><trkpt lat="36.94265269486618" lon="15.02343024324188"><ele>417.0</ele><time>2026-03-26T17:41:02Z</time></trkpt><trkpt lat="36.942789860093384" lon="15.023432112671356"><ele>416.5</ele><time>2026-03-26T17:41:03Z</time></trkpt><trkpt lat="36.942913146100416" lon="15.023434121419696"><ele>416.0</ele><time>2026-03-26T17:41:04Z</time></trkpt><trkpt lat="36.94305013789923" lon="15.023415988964521"><ele>415.5</ele><time>2026-03-26T17:41:05Z</time></trkpt><trkpt lat="36.94320751671432" lon="15.02338364870426"><ele>415.0</ele><time>2026-03-26T17:41:06Z</time></trkpt><trkpt lat="36.94337026402697" lon="15.023361856430093"><ele>415.0</ele><time>2026-03-26T17:41:07Z</time></trkpt><trkpt lat="36.94351917021877" lon="15.023342681128584"><ele>415.0</ele><time>2026-03-26T17:41:08Z</time></trkpt><trkpt lat="36.94365481516668" lon="15.023302540004572"><ele>415.0</ele><time>2026-03-26T17:41:09Z</time></trkpt><trkpt lat="36.94378703125799" lon="15.023263554677888"><ele>415.0</ele><time>2026-03-26T17:41:10Z</time></trkpt><trkpt lat="36.94394788775083" lon="15.023236492630565"><ele>413.0</ele><time>2026-03-26T17:41:11Z</time></trkpt><trkpt lat="36.94410760107159" lon="15.023222009549198"><ele>411.0</ele><time>2026-03-26T17:41:12Z</time></trkpt><trkpt lat="36.94425396414678" lon="15.0231988394314"><ele>409.0</ele><time>2026-03-26T17:41:13Z</time></trkpt><trkpt lat="36.944404386614394" lon="15.023162836604316"><ele>406.75</ele><time>2026-03-26T17:41:14Z</time></trkpt><trkpt lat="36.94453776102928" lon="15.023130658631192"><ele>404.5</ele><time>2026-03-26T17:41:15Z</time></trkpt><trkpt lat="36.944662680117595" lon="15.023084937477915"><ele>402.25</ele><time>2026-03-26T17:41:16Z</time></trkpt><trkpt lat="36.944782834778835" lon="15.023036748871599"><ele>400.0</ele><time>2026-03-26T17:41:17Z</time></trkpt><trkpt lat="36.94488579053919" lon="15.023028443379609"><ele>400.00000000000006</ele><time>2026-03-26T17:41:18Z</time></trkpt><trkpt lat="36.94496444741287" lon="15.023025386170058"><ele>400.0</ele><time>2026-03-26T17:41:19Z</time></trkpt><trkpt lat="36.94502504413223" lon="15.023079924994864"><ele>400.0</ele><time>2026-03-26T17:41:20Z</time></trkpt><trkpt lat="36.945098297381556" lon="15.02315306001245"><ele>400.0</ele><time>2026-03-26T17:41:21Z</time></trkpt><trkpt lat="36.94515590002463" lon="15.023226439378528"><ele>400.00000000000006</ele><time>2026-03-26T17:41:22Z</time></trkpt><trkpt lat="36.94518646490454" lon="15.023324605252258"><ele>400.0</ele><time>2026-03-26T17:41:23Z</time></trkpt><trkpt lat="36.94521614033362" lon="15.023442530662036"><ele>402.50000000000006</ele><time>2026-03-26T17:41:24Z</time></trkpt><trkpt lat="36.94523371118504" lon="15.02354448224576"><ele>405.0</ele><time>2026-03-26T17:41:25Z</time></trkpt><trkpt lat="36.945243851671634" lon="15.023645455393464"><ele>407.5</ele><time>2026-03-26T17:41:26Z</time></trkpt><trkpt lat="36.945256123565706" lon="15.023723995222337"><ele>410.0</ele><time>2026-03-26T17:41:27Z</time></trkpt><trkpt lat="36.945294852294495" lon="15.023807293767652"><ele>412.50000000000006</ele><time>2026-03-26T17:41:28Z</time></trkpt><trkpt lat="36.94538009096036" lon="15.023851229111882"><ele>415.0</ele><time>2026-03-26T17:41:29Z</time></trkpt><trkpt lat="36.9454267203113" lon="15.02390643904936"><ele>415.0</ele><time>2026-03-26T17:41:30Z</time></trkpt><trkpt lat="36.94549043879715" lon="15.023905634289347"><ele>415.0</ele><time>2026-03-26T17:41:32Z</time></trkpt><trkpt lat="36.94541638795691" lon="15.023881266402235"><ele>415.0</ele><time>2026-03-26T17:41:41Z</time></trkpt><trkpt lat="36.94533617038887" lon="15.023897749351493"><ele>415.0</ele><time>2026-03-26T17:41:43Z</time></trkpt><trkpt lat="36.94529399540566" lon="15.023736659604946"><ele>415.0</ele><time>2026-03-26T17:41:44Z</time></trkpt><trkpt lat="36.94525135060391" lon="15.02362256216919"><ele>415.00000000000006</ele><time>2026-03-26T17:41:46Z</time></trkpt><trkpt lat="36.94531080197524" lon="15.023654456378"><ele>415.0</ele><time>2026-03-26T17:41:52Z</time></trkpt><trkpt lat="36.945333727506345" lon="15.023775739199495"><ele>415.0</ele><time>2026-03-26T17:42:41Z</time></trkpt><trkpt lat="36.94538571394016" lon="15.023838386009881"><ele>415.0</ele><time>2026-03-26T17:42:42Z</time></trkpt><trkpt lat="36.94545355119947" lon="15.023880288086296"><ele>415.00000000000006</ele><time>2026-03-26T17:42:43Z</time></trkpt><trkpt lat="36.945566118538856" lon="15.023899113399292"><ele>415.0</ele><time>2026-03-26T17:42:45Z</time></trkpt><trkpt lat="36.9456435363747" lon="15.02387539537944"><ele>415.00000000000006</ele><time>2026-03-26T17:42:50Z</time></trkpt><trkpt lat="36.945706598251" lon="15.02387614799062"><ele>415.0</ele><time>2026-03-26T17:43:01Z</time></trkpt><trkpt lat="36.945807478856146" lon="15.023854503289215"><ele>415.0</ele><time>2026-03-26T17:43:03Z</time></trkpt><trkpt lat="36.94587401808137" lon="15.023828778225827"><ele>415.0</ele><time>2026-03-26T17:43:04Z</time></trkpt><trkpt lat="36.945938088493484" lon="15.023769462998073"><ele>415.00000000000006</ele><time>2026-03-26T17:43:05Z</time></trkpt><trkpt lat="36.94600923860201" lon="15.023687274228939"><ele>415.0</ele><time>2026-03-26T17:43:06Z</time></trkpt><trkpt lat="36.946079599261424" lon="15.023592578763408"><ele>415.00000000000006</ele><time>2026-03-26T17:43:07Z</time></trkpt><trkpt lat="36.946137347375455" lon="15.023495292101337"><ele>415.0</ele><time>2026-03-26T17:43:08Z</time></trkpt><trkpt lat="36.9461883457811" lon="15.023402142731193"><ele>415.0</ele><time>2026-03-26T17:43:09Z</time></trkpt><trkpt lat="36.94621475043241" lon="15.02332750288762"><ele>415.0</ele><time>2026-03-26T17:43:10Z</time></trkpt><trkpt lat="36.94625987171167" lon="15.023208151019142"><ele>415.00000000000006</ele><time>2026-03-26T17:43:12Z</time></trkpt><trkpt lat="36.94630986246216" lon="15.02315894635778"><ele>415.0</ele><time>2026-03-26T17:43:13Z</time></trkpt><trkpt lat="36.94635747477579" lon="15.023089658799995"><ele>415.0</ele><time>2026-03-26T17:43:14Z</time></trkpt><trkpt lat="36.94640967695404" lon="15.0230127716437"><ele>415.0</ele><time>2026-03-26T17:43:16Z</time></trkpt><trkpt lat="36.94654349620324" lon="15.023136763681068"><ele>415.0</ele><time>2026-03-26T17:43:23Z</time></trkpt><trkpt lat="36.94660552466875" lon="15.023168124272663"><ele>415.0</ele><time>2026-03-26T17:43:25Z</time></trkpt><trkpt lat="36.94667350560812" lon="15.023226870216856"><ele>415.0</ele><time>2026-03-26T17:43:27Z</time></trkpt><trkpt lat="36.946699925871386" lon="15.023316318463689"><ele>415.33333333333337</ele><time>2026-03-26T17:43:28Z</time></trkpt><trkpt lat="36.94669799153381" lon="15.023431509911292"><ele>415.6666666666667</ele><time>2026-03-26T17:43:29Z</time></trkpt><trkpt lat="36.94672610940511" lon="15.023520600044094"><ele>416.0</ele><time>2026-03-26T17:43:30Z</time></trkpt><trkpt lat="36.94675012439479" lon="15.023599155011862"><ele>416.33333333333337</ele><time>2026-03-26T17:43:31Z</time></trkpt><trkpt lat="36.94678471453814" lon="15.02368132391155"><ele>416.6666666666667</ele><time>2026-03-26T17:43:32Z</time></trkpt><trkpt lat="36.946832866261595" lon="15.02375356439541"><ele>417.0</ele><time>2026-03-26T17:43:33Z</time></trkpt><trkpt lat="36.946904869370435" lon="15.023827977227562"><ele>417.0</ele><time>2026-03-26T17:43:34Z</time></trkpt><trkpt lat="36.94698639404763" lon="15.023885517262922"><ele>417.0</ele><time>2026-03-26T17:43:35Z</time></trkpt><trkpt lat="36.94706377643825" lon="15.023890953895807"><ele>417.0</ele><time>2026-03-26T17:43:36Z</time></trkpt><trkpt lat="36.94715646892282" lon="15.023904487240026"><ele>417.0</ele><time>2026-03-26T17:43:37Z</time></trkpt><trkpt lat="36.94725396323548" lon="15.023926530343566"><ele>417.0</ele><time>2026-03-26T17:43:38Z</time></trkpt><trkpt lat="36.947316679263466" lon="15.024000942467334"><ele>417.0</ele><time>2026-03-26T17:43:39Z</time></trkpt><trkpt lat="36.94738716016627" lon="15.024064700990019"><ele>417.0</ele><time>2026-03-26T17:43:40Z</time></trkpt><trkpt lat="36.947469476040155" lon="15.024117425825034"><ele>417.0</ele><time>2026-03-26T17:43:41Z</time></trkpt><trkpt lat="36.94753553415054" lon="15.024184451506475"><ele>417.0</ele><time>2026-03-26T17:43:42Z</time></trkpt><trkpt lat="36.94757797658425" lon="15.02426645697098"><ele>417.0</ele><time>2026-03-26T17:43:43Z</time></trkpt><trkpt lat="36.94760456491395" lon="15.024351879110418"><ele>417.0</ele><time>2026-03-26T17:43:44Z</time></trkpt><trkpt lat="36.94761729831419" lon="15.024461223215848"><ele>418.0</ele><time>2026-03-26T17:43:45Z</time></trkpt><trkpt lat="36.947645172755934" lon="15.024606541227463"><ele>419.0</ele><time>2026-03-26T17:43:46Z</time></trkpt><trkpt lat="36.94767284952031" lon="15.024755480971974"><ele>420.0</ele><time>2026-03-26T17:43:47Z</time></trkpt><trkpt lat="36.94769606633913" lon="15.024881739076198"><ele>421.0</ele><time>2026-03-26T17:43:48Z</time></trkpt><trkpt lat="36.94771921414677" lon="15.024995790939657"><ele>422.0</ele><time>2026-03-26T17:43:49Z</time></trkpt><trkpt lat="36.947737637897106" lon="15.025097565551947"><ele>418.66666666666663</ele><time>2026-03-26T17:43:50Z</time></trkpt><trkpt lat="36.94775190654932" lon="15.025187483851875"><ele>415.3333333333333</ele><time>2026-03-26T17:43:51Z</time></trkpt><trkpt lat="36.947719573802374" lon="15.025328110075531"><ele>412.0</ele><time>2026-03-26T17:43:53Z</time></trkpt><trkpt lat="36.94764541058965" lon="15.02542981469474"><ele>408.66666666666663</ele><time>2026-03-26T17:43:55Z</time></trkpt><trkpt lat="36.947585760606465" lon="15.02548409821645"><ele>405.3333333333333</ele><time>2026-03-26T17:43:57Z</time></trkpt><trkpt lat="36.94752549735345" lon="15.025451898539824"><ele>402.0</ele><time>2026-03-26T17:43:59Z</time></trkpt><trkpt lat="36.94746951367107" lon="15.025381134444773"><ele>401.6</ele><time>2026-03-26T17:44:00Z</time></trkpt><trkpt lat="36.94740000511422" lon="15.02528570143638"><ele>401.20000000000005</ele><time>2026-03-26T17:44:01Z</time></trkpt><trkpt lat="36.94733936288764" lon="15.025181898043451"><ele>400.8</ele><time>2026-03-26T17:44:02Z</time></trkpt><trkpt lat="36.94730441069573" lon="15.025052572005116"><ele>400.4</ele><time>2026-03-26T17:44:03Z</time></trkpt><trkpt lat="36.94727496724913" lon="15.024950713927778"><ele>400.0</ele><time>2026-03-26T17:44:04Z</time></trkpt><trkpt lat="36.947245547365895" lon="15.024862444489202"><ele>400.00000000000006</ele><time>2026-03-26T17:44:05Z</time></trkpt><trkpt lat="36.94720906330002" lon="15.02477736000881"><ele>400.0</ele><time>2026-03-26T17:44:06Z</time></trkpt><trkpt lat="36.94715191758477" lon="15.02470231545884"><ele>400.0</ele><time>2026-03-26T17:44:07Z</time></trkpt><trkpt lat="36.94708307674511" lon="15.024656994750382"><ele>400.0</ele><time>2026-03-26T17:44:08Z</time></trkpt><trkpt lat="36.947005759198575" lon="15.024620727461247"><ele>400.00000000000006</ele><time>2026-03-26T17:44:09Z</time></trkpt><trkpt lat="36.946896603119775" lon="15.024627379672927"><ele>400.0</ele><time>2026-03-26T17:44:10Z</time></trkpt><trkpt lat="36.94676476686056" lon="15.024670542784014"><ele>396.6666666666667</ele><time>2026-03-26T17:44:11Z</time></trkpt><trkpt lat="36.94661082690922" lon="15.024728120690432"><ele>393.33333333333337</ele><time>2026-03-26T17:44:12Z</time></trkpt><trkpt lat="36.946461873183495" lon="15.024782122556147"><ele>390.0</ele><time>2026-03-26T17:44:13Z</time></trkpt><trkpt lat="36.94632596552095" lon="15.024838632908823"><ele>390.0</ele><time>2026-03-26T17:44:14Z</time></trkpt><trkpt lat="36.946187825356695" lon="15.024908029245056"><ele>390.0</ele><time>2026-03-26T17:44:15Z</time></trkpt><trkpt lat="36.94603092241763" lon="15.024996276447874"><ele>390.0</ele><time>2026-03-26T17:44:16Z</time></trkpt><trkpt lat="36.94586017040248" lon="15.025094959236565"><ele>389.33333333333337</ele><time>2026-03-26T17:44:17Z</time></trkpt><trkpt lat="36.94568530777472" lon="15.025193783198464"><ele>388.6666666666667</ele><time>2026-03-26T17:44:18Z</time></trkpt><trkpt lat="36.9455082880198" lon="15.025294879719224"><ele>388.0</ele><time>2026-03-26T17:44:19Z</time></trkpt><trkpt lat="36.94533467788779" lon="15.02538617080416"><ele>388.0</ele><time>2026-03-26T17:44:20Z</time></trkpt><trkpt lat="36.945147228880614" lon="15.025464156711758"><ele>388.0</ele><time>2026-03-26T17:44:21Z</time></trkpt><trkpt lat="36.94497986432763" lon="15.02553237207957"><ele>388.0</ele><time>2026-03-26T17:44:22Z</time></trkpt><trkpt lat="36.94483660752771" lon="15.025589579786411"><ele>387.0</ele><time>2026-03-26T17:44:23Z</time></trkpt><trkpt lat="36.94471062125102" lon="15.025634431429681"><ele>386.0</ele><time>2026-03-26T17:44:23.999Z</time></trkpt><trkpt lat="36.94461041653874" lon="15.025670190899898"><ele>385.0</ele><time>2026-03-26T17:44:24.999Z</time></trkpt><trkpt lat="36.94454907106186" lon="15.025692082863378"><ele>384.0</ele><time>2026-03-26T17:44:25.999Z</time></trkpt><trkpt lat="36.94447998876524" lon="15.025702528767123"><ele>383.0</ele><time>2026-03-26T17:44:26.999Z</time></trkpt><trkpt lat="36.94442610088529" lon="15.025780854177771"><ele>387.5</ele><time>2026-03-26T17:44:27.999Z</time></trkpt><trkpt lat="36.944551250697245" lon="15.025922914809774"><ele>392.0</ele><time>2026-03-26T17:44:28.999Z</time></trkpt><trkpt lat="36.9446322867241" lon="15.026005048054392"><ele>396.5</ele><time>2026-03-26T17:44:29.999Z</time></trkpt><trkpt lat="36.9447162237294" lon="15.026101532632541"><ele>401.0</ele><time>2026-03-26T17:44:30.999Z</time></trkpt><trkpt lat="36.94481650127136" lon="15.026197689595"><ele>401.0</ele><time>2026-03-26T17:44:31.999Z</time></trkpt><trkpt lat="36.944921044428625" lon="15.026303241061147"><ele>401.0</ele><time>2026-03-26T17:44:32.999Z</time></trkpt><trkpt lat="36.94503178801251" lon="15.026415301888203"><ele>401.0</ele><time>2026-03-26T17:44:33.999Z</time></trkpt><trkpt lat="36.94516096090774" lon="15.026519500629684"><ele>401.0</ele><time>2026-03-26T17:44:34.999Z</time></trkpt><trkpt lat="36.945275219952705" lon="15.026643138378041"><ele>403.5</ele><time>2026-03-26T17:44:36Z</time></trkpt><trkpt lat="36.9453823791706" lon="15.02675357957979"><ele>406.0</ele><time>2026-03-26T17:44:37Z</time></trkpt><trkpt lat="36.945484563728506" lon="15.026852577693031"><ele>408.5</ele><time>2026-03-26T17:44:38Z</time></trkpt><trkpt lat="36.9455827397125" lon="15.026949187632901"><ele>411.0</ele><time>2026-03-26T17:44:39Z</time></trkpt><trkpt lat="36.945675499446736" lon="15.027044144143716"><ele>411.0</ele><time>2026-03-26T17:44:40Z</time></trkpt><trkpt lat="36.94574955431479" lon="15.027124576120974"><ele>411.0</ele><time>2026-03-26T17:44:41Z</time></trkpt><trkpt lat="36.94581947297975" lon="15.027185480312042"><ele>411.0</ele><time>2026-03-26T17:44:42Z</time></trkpt><trkpt lat="36.94590465137265" lon="15.027217890233757"><ele>411.0</ele><time>2026-03-26T17:44:43Z</time></trkpt><trkpt lat="36.946007733908935" lon="15.027222391297608"><ele>411.0</ele><time>2026-03-26T17:44:44Z</time></trkpt><trkpt lat="36.946148693878875" lon="15.027209065387517"><ele>411.0</ele><time>2026-03-26T17:44:45Z</time></trkpt><trkpt lat="36.946303496817094" lon="15.027196270111679"><ele>411.0</ele><time>2026-03-26T17:44:46Z</time></trkpt><trkpt lat="36.946482390799815" lon="15.02718703563685"><ele>411.0</ele><time>2026-03-26T17:44:47Z</time></trkpt><trkpt lat="36.94666549738391" lon="15.027183743545159"><ele>410.0</ele><time>2026-03-26T17:44:48Z</time></trkpt><trkpt lat="36.946865186049955" lon="15.027175700935132"><ele>409.0</ele><time>2026-03-26T17:44:49Z</time></trkpt><trkpt lat="36.94706300356619" lon="15.02716692216997"><ele>408.0</ele><time>2026-03-26T17:44:50Z</time></trkpt><trkpt lat="36.9472572162862" lon="15.02715292900136"><ele>408.0</ele><time>2026-03-26T17:44:51Z</time></trkpt><trkpt lat="36.947450599271875" lon="15.02713721096484"><ele>408.0</ele><time>2026-03-26T17:44:52Z</time></trkpt><trkpt lat="36.94763445357207" lon="15.027124818266413"><ele>408.0</ele><time>2026-03-26T17:44:53Z</time></trkpt><trkpt lat="36.94780532347293" lon="15.027116270335055"><ele>408.66666666666663</ele><time>2026-03-26T17:44:54Z</time></trkpt><trkpt lat="36.94797555288426" lon="15.02710907352188"><ele>409.3333333333333</ele><time>2026-03-26T17:44:55Z</time></trkpt><trkpt lat="36.9481397134567" lon="15.02709815647785"><ele>410.0</ele><time>2026-03-26T17:44:56Z</time></trkpt><trkpt lat="36.94828497411478" lon="15.02708852697107"><ele>411.25</ele><time>2026-03-26T17:44:57Z</time></trkpt><trkpt lat="36.94841796774896" lon="15.02708065881413"><ele>412.5</ele><time>2026-03-26T17:44:58Z</time></trkpt><trkpt lat="36.94854641897037" lon="15.027077857893588"><ele>413.75</ele><time>2026-03-26T17:44:59Z</time></trkpt><trkpt lat="36.94866486852433" lon="15.02707536362968"><ele>415.0</ele><time>2026-03-26T17:45:00Z</time></trkpt><trkpt lat="36.948769884462585" lon="15.027063139625549"><ele>415.0</ele><time>2026-03-26T17:45:01Z</time></trkpt><trkpt lat="36.94887062601245" lon="15.027016404500806"><ele>415.0</ele><time>2026-03-26T17:45:02Z</time></trkpt><trkpt lat="36.948973159424" lon="15.026928070389776"><ele>415.0</ele><time>2026-03-26T17:45:03Z</time></trkpt><trkpt lat="36.94907622313797" lon="15.02679758072444"><ele>415.0</ele><time>2026-03-26T17:45:04Z</time></trkpt><trkpt lat="36.94917121215283" lon="15.026685451856702"><ele>414.8</ele><time>2026-03-26T17:45:05Z</time></trkpt><trkpt lat="36.94925338867135" lon="15.0265961444904"><ele>414.6</ele><time>2026-03-26T17:45:06Z</time></trkpt><trkpt lat="36.94933843604508" lon="15.026521697743004"><ele>414.4</ele><time>2026-03-26T17:45:07Z</time></trkpt><trkpt lat="36.94943652850592" lon="15.026459959229994"><ele>414.2</ele><time>2026-03-26T17:45:08Z</time></trkpt><trkpt lat="36.94955385418197" lon="15.026421779935673"><ele>414.0</ele><time>2026-03-26T17:45:09Z</time></trkpt><trkpt lat="36.94969565069527" lon="15.026400093192493"><ele>414.0</ele><time>2026-03-26T17:45:10Z</time></trkpt><trkpt lat="36.949849018137115" lon="15.026379971872716"><ele>414.0</ele><time>2026-03-26T17:45:11Z</time></trkpt><trkpt lat="36.95000133392232" lon="15.026352452284417"><ele>414.0</ele><time>2026-03-26T17:45:12Z</time></trkpt><trkpt lat="36.950134451103196" lon="15.026329197221687"><ele>414.0</ele><time>2026-03-26T17:45:13Z</time></trkpt><trkpt lat="36.95025799642507" lon="15.026314504935318"><ele>415.6</ele><time>2026-03-26T17:45:14Z</time></trkpt><trkpt lat="36.950368495980356" lon="15.026313592268922"><ele>417.2</ele><time>2026-03-26T17:45:15Z</time></trkpt><trkpt lat="36.95046756874354" lon="15.026332239155945"><ele>418.8</ele><time>2026-03-26T17:45:16Z</time></trkpt><trkpt lat="36.95056686002494" lon="15.026376885545806"><ele>420.40000000000003</ele><time>2026-03-26T17:45:17Z</time></trkpt><trkpt lat="36.95066363995085" lon="15.026482466797928"><ele>422.0</ele><time>2026-03-26T17:45:18Z</time></trkpt><trkpt lat="36.95078953439365" lon="15.02659570153027"><ele>420.0</ele><time>2026-03-26T17:45:19Z</time></trkpt><trkpt lat="36.9509353440331" lon="15.026694782193339"><ele>418.0</ele><time>2026-03-26T17:45:20Z</time></trkpt><trkpt lat="36.951061628510026" lon="15.026793135557707"><ele>416.0</ele><time>2026-03-26T17:45:21Z</time></trkpt><trkpt lat="36.95118023745496" lon="15.026898344525172"><ele>416.0</ele><time>2026-03-26T17:45:22Z</time></trkpt><trkpt lat="36.95128995961239" lon="15.027041505054857"><ele>416.0</ele><time>2026-03-26T17:45:23Z</time></trkpt><trkpt lat="36.95141365929576" lon="15.027183407525808"><ele>416.0</ele><time>2026-03-26T17:45:24Z</time></trkpt><trkpt lat="36.95152616941125" lon="15.027317592661408"><ele>416.0</ele><time>2026-03-26T17:45:25Z</time></trkpt><trkpt lat="36.951635687697355" lon="15.027454982852044"><ele>416.0</ele><time>2026-03-26T17:45:26Z</time></trkpt><trkpt lat="36.95173713944955" lon="15.02759320591936"><ele>416.0</ele><time>2026-03-26T17:45:27Z</time></trkpt><trkpt lat="36.95183094509237" lon="15.027735168648057"><ele>415.3333333333333</ele><time>2026-03-26T17:45:28Z</time></trkpt><trkpt lat="36.951908491124044" lon="15.027887989070036"><ele>414.66666666666663</ele><time>2026-03-26T17:45:29Z</time></trkpt><trkpt lat="36.95197629486098" lon="15.028068800347258"><ele>414.0</ele><time>2026-03-26T17:45:30Z</time></trkpt><trkpt lat="36.95203298364735" lon="15.02826431521079"><ele>412.33333333333337</ele><time>2026-03-26T17:45:31Z</time></trkpt><trkpt lat="36.9520797078964" lon="15.028454537217073"><ele>410.6666666666667</ele><time>2026-03-26T17:45:32Z</time></trkpt><trkpt lat="36.952120904556224" lon="15.028646018504256"><ele>409.0</ele><time>2026-03-26T17:45:33Z</time></trkpt><trkpt lat="36.95215957198899" lon="15.028840700724713"><ele>409.0</ele><time>2026-03-26T17:45:34Z</time></trkpt><trkpt lat="36.95219395899147" lon="15.029021375634908"><ele>409.0</ele><time>2026-03-26T17:45:35Z</time></trkpt><trkpt lat="36.952226190186096" lon="15.029200567638496"><ele>409.0</ele><time>2026-03-26T17:45:36Z</time></trkpt><trkpt lat="36.95225961620701" lon="15.029376551175835"><ele>409.0</ele><time>2026-03-26T17:45:37Z</time></trkpt><trkpt lat="36.95230480117467" lon="15.029548912661168"><ele>408.79999999999995</ele><time>2026-03-26T17:45:38Z</time></trkpt><trkpt lat="36.952349062380485" lon="15.029697907141312"><ele>408.59999999999997</ele><time>2026-03-26T17:45:39Z</time></trkpt><trkpt lat="36.952390926414054" lon="15.029833950899206"><ele>408.4</ele><time>2026-03-26T17:45:40Z</time></trkpt><trkpt lat="36.9524356549095" lon="15.029936754250782"><ele>408.2</ele><time>2026-03-26T17:45:41Z</time></trkpt><trkpt lat="36.95250601115906" lon="15.030016965291688"><ele>408.0</ele><time>2026-03-26T17:45:42Z</time></trkpt><trkpt lat="36.95257602117307" lon="15.030070952422307"><ele>407.4</ele><time>2026-03-26T17:45:43Z</time></trkpt><trkpt lat="36.95266662754455" lon="15.030093334090378"><ele>406.79999999999995</ele><time>2026-03-26T17:45:44Z</time></trkpt><trkpt lat="36.952783670854096" lon="15.030088895597464"><ele>406.2</ele><time>2026-03-26T17:45:45Z</time></trkpt><trkpt lat="36.95289297087425" lon="15.030094510892658"><ele>405.6</ele><time>2026-03-26T17:45:46Z</time></trkpt><trkpt lat="36.95299330830799" lon="15.030121929145475"><ele>405.0</ele><time>2026-03-26T17:45:47Z</time></trkpt><trkpt lat="36.95309778214371" lon="15.03016665165775"><ele>405.0</ele><time>2026-03-26T17:45:48Z</time></trkpt><trkpt lat="36.95317696179005" lon="15.030261478219424"><ele>405.0</ele><time>2026-03-26T17:45:49Z</time></trkpt><trkpt lat="36.95327863701304" lon="15.030369670910947"><ele>405.0</ele><time>2026-03-26T17:45:50Z</time></trkpt><trkpt lat="36.95339477713662" lon="15.030488449549438"><ele>405.0</ele><time>2026-03-26T17:45:51Z</time></trkpt><trkpt lat="36.95349243922423" lon="15.030605308875288"><ele>405.75</ele><time>2026-03-26T17:45:52Z</time></trkpt><trkpt lat="36.953588733432056" lon="15.030714395917402"><ele>406.5</ele><time>2026-03-26T17:45:53Z</time></trkpt><trkpt lat="36.9536851197326" lon="15.03082014067819"><ele>407.25</ele><time>2026-03-26T17:45:54Z</time></trkpt><trkpt lat="36.95378638007415" lon="15.030906686493472"><ele>408.0</ele><time>2026-03-26T17:45:55Z</time></trkpt><trkpt lat="36.953896684813316" lon="15.03097108998806"><ele>403.75</ele><time>2026-03-26T17:45:56Z</time></trkpt><trkpt lat="36.95402375004894" lon="15.031011718652952"><ele>399.5</ele><time>2026-03-26T17:45:57Z</time></trkpt><trkpt lat="36.95416919165605" lon="15.031028856290865"><ele>395.25</ele><time>2026-03-26T17:45:58Z</time></trkpt><trkpt lat="36.954310862192294" lon="15.031025596361548"><ele>391.0</ele><time>2026-03-26T17:45:59Z</time></trkpt><trkpt lat="36.95443979267202" lon="15.03103213383924"><ele>390.0</ele><time>2026-03-26T17:46:00Z</time></trkpt><trkpt lat="36.954554512190775" lon="15.031041901815176"><ele>389.0</ele><time>2026-03-26T17:46:01Z</time></trkpt><trkpt lat="36.95467607793457" lon="15.03102810283948"><ele>388.0</ele><time>2026-03-26T17:46:02Z</time></trkpt><trkpt lat="36.95481526973792" lon="15.030972095034521"><ele>387.0</ele><time>2026-03-26T17:46:03Z</time></trkpt><trkpt lat="36.954939094025995" lon="15.030926279159235"><ele>385.5</ele><time>2026-03-26T17:46:04Z</time></trkpt><trkpt lat="36.955050643758966" lon="15.030895997419709"><ele>384.0</ele><time>2026-03-26T17:46:05Z</time></trkpt><trkpt lat="36.95516898546534" lon="15.030870787014827"><ele>382.5</ele><time>2026-03-26T17:46:06Z</time></trkpt><trkpt lat="36.95529452165" lon="15.030853522162582"><ele>381.0</ele><time>2026-03-26T17:46:07Z</time></trkpt><trkpt lat="36.955426998315616" lon="15.03084290288656"><ele>381.0</ele><time>2026-03-26T17:46:08Z</time></trkpt><trkpt lat="36.95556386974346" lon="15.03082716707005"><ele>381.0</ele><time>2026-03-26T17:46:09Z</time></trkpt><trkpt lat="36.955702352749725" lon="15.030790791410949"><ele>381.0</ele><time>2026-03-26T17:46:10Z</time></trkpt><trkpt lat="36.95582581782014" lon="15.030753370170553"><ele>381.0</ele><time>2026-03-26T17:46:11Z</time></trkpt><trkpt lat="36.95594353590769" lon="15.030730464900369"><ele>382.20000000000005</ele><time>2026-03-26T17:46:12Z</time></trkpt><trkpt lat="36.956054316260676" lon="15.030710889407207"><ele>383.40000000000003</ele><time>2026-03-26T17:46:13Z</time></trkpt><trkpt lat="36.95615901458521" lon="15.030693862372122"><ele>384.6</ele><time>2026-03-26T17:46:14Z</time></trkpt><trkpt lat="36.95626236546804" lon="15.030677423104029"><ele>385.8</ele><time>2026-03-26T17:46:15Z</time></trkpt><trkpt lat="36.95635340490987" lon="15.030664896176619"><ele>387.0</ele><time>2026-03-26T17:46:16Z</time></trkpt><trkpt lat="36.9564460407966" lon="15.030654103156886"><ele>387.0</ele><time>2026-03-26T17:46:17Z</time></trkpt><trkpt lat="36.956522822239116" lon="15.030653613386473"><ele>387.0</ele><time>2026-03-26T17:46:18Z</time></trkpt><trkpt lat="36.95657762621417" lon="15.030612123543593"><ele>387.0</ele><time>2026-03-26T17:46:19Z</time></trkpt><trkpt lat="36.956669098033345" lon="15.030489430107206"><ele>387.0</ele><time>2026-03-26T17:46:21Z</time></trkpt><trkpt lat="36.95671826191428" lon="15.030376900515808"><ele>387.0</ele><time>2026-03-26T17:46:22Z</time></trkpt><trkpt lat="36.95672111704387" lon="15.03023475943842"><ele>388.0</ele><time>2026-03-26T17:46:23Z</time></trkpt><trkpt lat="36.956746694070915" lon="15.030143377765897"><ele>389.0</ele><time>2026-03-26T17:46:24Z</time></trkpt><trkpt lat="36.95676144440545" lon="15.030049664922748"><ele>390.0</ele><time>2026-03-26T17:46:25Z</time></trkpt><trkpt lat="36.95682702650064" lon="15.02994787898329"><ele>391.0</ele><time>2026-03-26T17:46:26Z</time></trkpt><trkpt lat="36.9569049781323" lon="15.029833323139453"><ele>392.0</ele><time>2026-03-26T17:46:26.999Z</time></trkpt><trkpt lat="36.956960196292634" lon="15.029736703153905"><ele>392.8333333333333</ele><time>2026-03-26T17:46:27.999Z</time></trkpt><trkpt lat="36.957017497694515" lon="15.02967196451967"><ele>393.66666666666663</ele><time>2026-03-26T17:46:28.999Z</time></trkpt><trkpt lat="36.957093405826704" lon="15.029620269330321"><ele>394.5</ele><time>2026-03-26T17:46:29.999Z</time></trkpt><trkpt lat="36.95715721164918" lon="15.02959693724377"><ele>395.33333333333337</ele><time>2026-03-26T17:46:30.999Z</time></trkpt><trkpt lat="36.957260781016686" lon="15.029648341091669"><ele>396.1666666666667</ele><time>2026-03-26T17:46:32.999Z</time></trkpt><trkpt lat="36.95729789156234" lon="15.029729844904567"><ele>397.0</ele><time>2026-03-26T17:46:33.999Z</time></trkpt><trkpt lat="36.95728883979473" lon="15.029821994707797"><ele>397.0</ele><time>2026-03-26T17:46:35.999Z</time></trkpt><trkpt lat="36.95724259626518" lon="15.029907960437678"><ele>397.0</ele><time>2026-03-26T17:46:38.999Z</time></trkpt><trkpt lat="36.957281060103575" lon="15.02981458463696"><ele>397.0</ele><time>2026-03-26T17:48:25Z</time></trkpt><trkpt lat="36.957269374995015" lon="15.02973065131354"><ele>397.0</ele><time>2026-03-26T17:48:32Z</time></trkpt><trkpt lat="36.95718872975573" lon="15.029737276993494"><ele>397.0</ele><time>2026-03-26T17:48:43.999Z</time></trkpt><trkpt lat="36.95725455152691" lon="15.029756885561117"><ele>397.0</ele><time>2026-03-26T17:51:14Z</time></trkpt><trkpt lat="36.957244894843654" lon="15.029836765542013"><ele>397.0</ele><time>2026-03-26T17:51:25Z</time></trkpt><trkpt lat="36.95726570025648" lon="15.029913883993633"><ele>397.00000000000006</ele><time>2026-03-26T17:51:42Z</time></trkpt><trkpt lat="36.95727286381194" lon="15.030000479120051"><ele>397.0</ele><time>2026-03-26T17:52:01Z</time></trkpt><trkpt lat="36.95726214368794" lon="15.029920226839836"><ele>397.0</ele><time>2026-03-26T17:52:40Z</time></trkpt><trkpt lat="36.95728296939512" lon="15.029998587084828"><ele>397.0</ele><time>2026-03-26T17:54:17Z</time></trkpt><trkpt lat="36.95723498184911" lon="15.030073915680276"><ele>397.00000000000006</ele><time>2026-03-26T17:55:10Z</time></trkpt><trkpt lat="36.95719043858388" lon="15.030217650048447"><ele>397.0</ele><time>2026-03-26T17:55:12Z</time></trkpt><trkpt lat="36.95721565544636" lon="15.03031810604568"><ele>396.0</ele><time>2026-03-26T17:55:13Z</time></trkpt><trkpt lat="36.95726738896037" lon="15.030415938367089"><ele>395.0</ele><time>2026-03-26T17:55:14Z</time></trkpt><trkpt lat="36.957339089741524" lon="15.03049772300723"><ele>394.0</ele><time>2026-03-26T17:55:15Z</time></trkpt><trkpt lat="36.95741005251801" lon="15.030578763424913"><ele>393.0</ele><time>2026-03-26T17:55:16Z</time></trkpt><trkpt lat="36.95744698298897" lon="15.030684799232857"><ele>392.0</ele><time>2026-03-26T17:55:17Z</time></trkpt><trkpt lat="36.957486250523154" lon="15.030778810034503"><ele>389.49999999999994</ele><time>2026-03-26T17:55:18Z</time></trkpt><trkpt lat="36.95750226702423" lon="15.030857730649144"><ele>387.0</ele><time>2026-03-26T17:55:19Z</time></trkpt><trkpt lat="36.95752258589" lon="15.030939385710694"><ele>384.5</ele><time>2026-03-26T17:55:20Z</time></trkpt><trkpt lat="36.957497361070054" lon="15.031014695490573"><ele>382.0</ele><time>2026-03-26T17:55:21Z</time></trkpt><trkpt lat="36.95748114994976" lon="15.031128404615375"><ele>379.5</ele><time>2026-03-26T17:55:22Z</time></trkpt><trkpt lat="36.95746033744232" lon="15.031285316798675"><ele>377.0</ele><time>2026-03-26T17:55:23Z</time></trkpt><trkpt lat="36.9574460247634" lon="15.031413771562683"><ele>377.0</ele><time>2026-03-26T17:55:24Z</time></trkpt><trkpt lat="36.95742467005348" lon="15.031510856355697"><ele>377.0</ele><time>2026-03-26T17:55:25Z</time></trkpt><trkpt lat="36.95739133233716" lon="15.031582151545932"><ele>377.0</ele><time>2026-03-26T17:55:26Z</time></trkpt><trkpt lat="36.95726892176846" lon="15.031600465835272"><ele>377.0</ele><time>2026-03-26T17:55:28Z</time></trkpt><trkpt lat="36.95718145282236" lon="15.031612036084786"><ele>377.0</ele><time>2026-03-26T17:55:29Z</time></trkpt><trkpt lat="36.95711810605961" lon="15.031654692660757"><ele>377.0</ele><time>2026-03-26T17:55:30Z</time></trkpt><trkpt lat="36.957034878060284" lon="15.031703389569923"><ele>377.0</ele><time>2026-03-26T17:55:31Z</time></trkpt><trkpt lat="36.956947932706" lon="15.031764071834017"><ele>377.0</ele><time>2026-03-26T17:55:32Z</time></trkpt><trkpt lat="36.956869108689" lon="15.031870617341097"><ele>377.0</ele><time>2026-03-26T17:55:33Z</time></trkpt><trkpt lat="36.956786627029295" lon="15.031997049205335"><ele>377.0</ele><time>2026-03-26T17:55:34Z</time></trkpt><trkpt lat="36.956703001353276" lon="15.032140505325161"><ele>375.5</ele><time>2026-03-26T17:55:35Z</time></trkpt><trkpt lat="36.95661376426849" lon="15.032304976994778"><ele>374.0</ele><time>2026-03-26T17:55:36Z</time></trkpt><trkpt lat="36.956529940117996" lon="15.03246692761675"><ele>372.5</ele><time>2026-03-26T17:55:37Z</time></trkpt><trkpt lat="36.95645860575342" lon="15.032604747618194"><ele>371.0</ele><time>2026-03-26T17:55:38Z</time></trkpt><trkpt lat="36.95639384254519" lon="15.03273285891193"><ele>373.33333333333337</ele><time>2026-03-26T17:55:39Z</time></trkpt><trkpt lat="36.95633695032112" lon="15.03285006070809"><ele>375.6666666666667</ele><time>2026-03-26T17:55:40Z</time></trkpt><trkpt lat="36.95628987427965" lon="15.032949422136516"><ele>378.0</ele><time>2026-03-26T17:55:41Z</time></trkpt><trkpt lat="36.956258690041345" lon="15.03303203306176"><ele>380.33333333333337</ele><time>2026-03-26T17:55:42Z</time></trkpt><trkpt lat="36.956251928875076" lon="15.03311925333865"><ele>382.6666666666667</ele><time>2026-03-26T17:55:43Z</time></trkpt><trkpt lat="36.95631511679651" lon="15.033207696979215"><ele>385.0</ele><time>2026-03-26T17:55:44Z</time></trkpt><trkpt lat="36.95643311597086" lon="15.033209416739703"><ele>385.0</ele><time>2026-03-26T17:55:45Z</time></trkpt><trkpt lat="36.95651849451186" lon="15.033169318315135"><ele>385.0</ele><time>2026-03-26T17:55:46Z</time></trkpt><trkpt lat="36.956623867680754" lon="15.033138339895418"><ele>385.0</ele><time>2026-03-26T17:55:47Z</time></trkpt><trkpt lat="36.95674329954503" lon="15.033074557749172"><ele>385.0</ele><time>2026-03-26T17:55:48Z</time></trkpt><trkpt lat="36.956885999850414" lon="15.033018572734688"><ele>387.6666666666667</ele><time>2026-03-26T17:55:49Z</time></trkpt><trkpt lat="36.95703518674608" lon="15.032954725164876"><ele>390.33333333333337</ele><time>2026-03-26T17:55:50Z</time></trkpt><trkpt lat="36.95719543061859" lon="15.032883011461031"><ele>393.0</ele><time>2026-03-26T17:55:51Z</time></trkpt><trkpt lat="36.95735835209053" lon="15.032805636701518"><ele>393.0</ele><time>2026-03-26T17:55:52Z</time></trkpt><trkpt lat="36.957502466905474" lon="15.032739760436622"><ele>393.0</ele><time>2026-03-26T17:55:53Z</time></trkpt><trkpt lat="36.957626815609224" lon="15.032681301472744"><ele>393.0</ele><time>2026-03-26T17:55:54Z</time></trkpt><trkpt lat="36.95773751767627" lon="15.032629163430336"><ele>393.0</ele><time>2026-03-26T17:55:55Z</time></trkpt><trkpt lat="36.95783454147193" lon="15.032586514722777"><ele>391.4</ele><time>2026-03-26T17:55:56Z</time></trkpt><trkpt lat="36.957918739862706" lon="15.032577750173235"><ele>389.79999999999995</ele><time>2026-03-26T17:55:57Z</time></trkpt><trkpt lat="36.95802693173406" lon="15.032603052210233"><ele>388.2</ele><time>2026-03-26T17:55:59Z</time></trkpt><trkpt lat="36.95807356875132" lon="15.032656589917648"><ele>386.6</ele><time>2026-03-26T17:56:00Z</time></trkpt><trkpt lat="36.95812621310629" lon="15.032760187522891"><ele>385.0</ele><time>2026-03-26T17:56:01Z</time></trkpt><trkpt lat="36.95816327789199" lon="15.032915834036569"><ele>385.0</ele><time>2026-03-26T17:56:02Z</time></trkpt><trkpt lat="36.95820690529325" lon="15.033093997488546"><ele>385.0</ele><time>2026-03-26T17:56:03Z</time></trkpt><trkpt lat="36.95825367606342" lon="15.033276763239362"><ele>385.0</ele><time>2026-03-26T17:56:04Z</time></trkpt><trkpt lat="36.95830577921557" lon="15.033479850719479"><ele>390.0</ele><time>2026-03-26T17:56:05Z</time></trkpt><trkpt lat="36.95836064259412" lon="15.033687708419743"><ele>395.0</ele><time>2026-03-26T17:56:06Z</time></trkpt><trkpt lat="36.958431390374734" lon="15.033887098013043"><ele>400.0</ele><time>2026-03-26T17:56:07Z</time></trkpt><trkpt lat="36.95847856708349" lon="15.034075992161158"><ele>403.25</ele><time>2026-03-26T17:56:08Z</time></trkpt><trkpt lat="36.958517274128454" lon="15.034248581709345"><ele>406.5</ele><time>2026-03-26T17:56:09Z</time></trkpt><trkpt lat="36.958554916299406" lon="15.034399116782136"><ele>409.75</ele><time>2026-03-26T17:56:10Z</time></trkpt><trkpt lat="36.95859566458375" lon="15.034533249290115"><ele>413.0</ele><time>2026-03-26T17:56:11Z</time></trkpt><trkpt lat="36.958653296587414" lon="15.034658173508534"><ele>413.0</ele><time>2026-03-26T17:56:12Z</time></trkpt><trkpt lat="36.958742518852766" lon="15.034776559056098"><ele>413.0</ele><time>2026-03-26T17:56:13Z</time></trkpt><trkpt lat="36.95886023279872" lon="15.034899231512469"><ele>413.0</ele><time>2026-03-26T17:56:14Z</time></trkpt><trkpt lat="36.95900066241749" lon="15.03504581250057"><ele>412.66666666666663</ele><time>2026-03-26T17:56:15Z</time></trkpt><trkpt lat="36.95914613258416" lon="15.035198728135786"><ele>412.33333333333337</ele><time>2026-03-26T17:56:16Z</time></trkpt><trkpt lat="36.959299297568485" lon="15.035366207769995"><ele>412.0</ele><time>2026-03-26T17:56:17Z</time></trkpt><trkpt lat="36.959458376522655" lon="15.03554550868978"><ele>412.6666666666667</ele><time>2026-03-26T17:56:18Z</time></trkpt><trkpt lat="36.9596161398277" lon="15.035722989152696"><ele>413.33333333333337</ele><time>2026-03-26T17:56:19Z</time></trkpt><trkpt lat="36.959764744471094" lon="15.035885456015237"><ele>414.0</ele><time>2026-03-26T17:56:20Z</time></trkpt><trkpt lat="36.959908548460085" lon="15.036040010615238"><ele>413.66666666666663</ele><time>2026-03-26T17:56:21Z</time></trkpt><trkpt lat="36.96004780565113" lon="15.036188984948403"><ele>413.3333333333333</ele><time>2026-03-26T17:56:22Z</time></trkpt><trkpt lat="36.9601798928436" lon="15.036332580949285"><ele>413.0</ele><time>2026-03-26T17:56:23Z</time></trkpt><trkpt lat="36.96030720459417" lon="15.03646973923431"><ele>413.0</ele><time>2026-03-26T17:56:24Z</time></trkpt><trkpt lat="36.960431134551214" lon="15.03660244424669"><ele>413.0</ele><time>2026-03-26T17:56:25Z</time></trkpt><trkpt lat="36.960552482648694" lon="15.0367302228683"><ele>413.0</ele><time>2026-03-26T17:56:26Z</time></trkpt><trkpt lat="36.96066594720357" lon="15.036854222801894"><ele>412.0</ele><time>2026-03-26T17:56:27Z</time></trkpt><trkpt lat="36.960779190918906" lon="15.036980207984382"><ele>411.0</ele><time>2026-03-26T17:56:28Z</time></trkpt><trkpt lat="36.96088677477485" lon="15.037096629079409"><ele>410.0</ele><time>2026-03-26T17:56:29Z</time></trkpt><trkpt lat="36.96098574266766" lon="15.037204213045994"><ele>409.0</ele><time>2026-03-26T17:56:30Z</time></trkpt><trkpt lat="36.96107692851382" lon="15.037304523844268"><ele>409.0</ele><time>2026-03-26T17:56:31Z</time></trkpt><trkpt lat="36.96116270997171" lon="15.037392706698384"><ele>409.0</ele><time>2026-03-26T17:56:32Z</time></trkpt><trkpt lat="36.961228712691224" lon="15.037472049244494"><ele>409.0</ele><time>2026-03-26T17:56:33Z</time></trkpt><trkpt lat="36.96126728705865" lon="15.037546141559476"><ele>409.0</ele><time>2026-03-26T17:56:34Z</time></trkpt><trkpt lat="36.96130067419339" lon="15.037643236847265"><ele>409.0</ele><time>2026-03-26T17:56:36Z</time></trkpt><trkpt lat="36.96116806735005" lon="15.03771601830321"><ele>409.2</ele><time>2026-03-26T17:56:38Z</time></trkpt><trkpt lat="36.961075736960254" lon="15.037755205118938"><ele>409.4</ele><time>2026-03-26T17:56:39Z</time></trkpt><trkpt lat="36.96097229807802" lon="15.037799106514479"><ele>409.6</ele><time>2026-03-26T17:56:40Z</time></trkpt><trkpt lat="36.96087588965171" lon="15.037840024153347"><ele>409.8</ele><time>2026-03-26T17:56:41Z</time></trkpt><trkpt lat="36.96078458671823" lon="15.037878774889755"><ele>410.0</ele><time>2026-03-26T17:56:42Z</time></trkpt><trkpt lat="36.96069235463385" lon="15.037917919973017"><ele>408.5</ele><time>2026-03-26T17:56:43Z</time></trkpt><trkpt lat="36.960594855020624" lon="15.037958988046965"><ele>407.0</ele><time>2026-03-26T17:56:44Z</time></trkpt><trkpt lat="36.96049427182186" lon="15.037999259952375"><ele>405.5</ele><time>2026-03-26T17:56:45Z</time></trkpt><trkpt lat="36.96038467915914" lon="15.038027258461655"><ele>404.0</ele><time>2026-03-26T17:56:46Z</time></trkpt><trkpt lat="36.960248631805364" lon="15.038038440114963"><ele>404.0</ele><time>2026-03-26T17:56:47Z</time></trkpt><trkpt lat="36.960100783402716" lon="15.038026296717693"><ele>404.0</ele><time>2026-03-26T17:56:48Z</time></trkpt><trkpt lat="36.959925597404784" lon="15.038001524114158"><ele>404.0</ele><time>2026-03-26T17:56:49Z</time></trkpt><trkpt lat="36.95975797826595" lon="15.037973577671103"><ele>402.25</ele><time>2026-03-26T17:56:50Z</time></trkpt><trkpt lat="36.959604632433965" lon="15.037947629677847"><ele>400.5</ele><time>2026-03-26T17:56:51Z</time></trkpt><trkpt lat="36.95945658278621" lon="15.037922288184772"><ele>398.75</ele><time>2026-03-26T17:56:52Z</time></trkpt><trkpt lat="36.95931630407947" lon="15.037898276838781"><ele>397.0</ele><time>2026-03-26T17:56:53Z</time></trkpt><trkpt lat="36.959167302990096" lon="15.037878165699738"><ele>395.6666666666667</ele><time>2026-03-26T17:56:54Z</time></trkpt><trkpt lat="36.95899905604125" lon="15.037884978429162"><ele>394.33333333333337</ele><time>2026-03-26T17:56:55Z</time></trkpt><trkpt lat="36.95882493669105" lon="15.037933179724554"><ele>393.0</ele><time>2026-03-26T17:56:56Z</time></trkpt><trkpt lat="36.95864600544575" lon="15.03799964360017"><ele>393.0</ele><time>2026-03-26T17:56:57Z</time></trkpt><trkpt lat="36.958475025585955" lon="15.038080015121633"><ele>393.0</ele><time>2026-03-26T17:56:58Z</time></trkpt><trkpt lat="36.95830150486743" lon="15.038184664281667"><ele>393.0</ele><time>2026-03-26T17:56:59Z</time></trkpt><trkpt lat="36.958121690699436" lon="15.038307414766974"><ele>393.0</ele><time>2026-03-26T17:56:59.999Z</time></trkpt><trkpt lat="36.957943073818456" lon="15.038436932880064"><ele>393.0</ele><time>2026-03-26T17:57:00.999Z</time></trkpt><trkpt lat="36.95776328876318" lon="15.038570375637521"><ele>393.0</ele><time>2026-03-26T17:57:01.999Z</time></trkpt><trkpt lat="36.957580282627646" lon="15.038710767321044"><ele>389.0</ele><time>2026-03-26T17:57:02.999Z</time></trkpt><trkpt lat="36.957402661066624" lon="15.0388524505846"><ele>385.0</ele><time>2026-03-26T17:57:03.999Z</time></trkpt><trkpt lat="36.95723519905965" lon="15.03898984105426"><ele>381.0</ele><time>2026-03-26T17:57:04.999Z</time></trkpt><trkpt lat="36.957075422198514" lon="15.039122641796196"><ele>379.6666666666667</ele><time>2026-03-26T17:57:05.999Z</time></trkpt><trkpt lat="36.95692020138305" lon="15.03925165574445"><ele>378.33333333333337</ele><time>2026-03-26T17:57:06.999Z</time></trkpt><trkpt lat="36.95677084665996" lon="15.039375794016772"><ele>377.0</ele><time>2026-03-26T17:57:07.999Z</time></trkpt><trkpt lat="36.95662705120768" lon="15.039493790331628"><ele>377.0</ele><time>2026-03-26T17:57:08.999Z</time></trkpt><trkpt lat="36.95648643435999" lon="15.039608862483737"><ele>377.0</ele><time>2026-03-26T17:57:09.999Z</time></trkpt><trkpt lat="36.956340487713476" lon="15.03972900294118"><ele>377.0</ele><time>2026-03-26T17:57:11Z</time></trkpt><trkpt lat="36.956193686310804" lon="15.039851759246696"><ele>375.33333333333337</ele><time>2026-03-26T17:57:12Z</time></trkpt><trkpt lat="36.95605137806721" lon="15.039968851409403"><ele>373.6666666666667</ele><time>2026-03-26T17:57:13Z</time></trkpt><trkpt lat="36.955912542356785" lon="15.040082933150325"><ele>372.0</ele><time>2026-03-26T17:57:14Z</time></trkpt><trkpt lat="36.95578177641692" lon="15.040190384191797"><ele>372.0</ele><time>2026-03-26T17:57:15Z</time></trkpt><trkpt lat="36.95565818934198" lon="15.04029190410949"><ele>372.0</ele><time>2026-03-26T17:57:16Z</time></trkpt><trkpt lat="36.95553987212534" lon="15.040386691072952"><ele>372.0</ele><time>2026-03-26T17:57:17Z</time></trkpt><trkpt lat="36.95542932971404" lon="15.040486759034984"><ele>372.0</ele><time>2026-03-26T17:57:18Z</time></trkpt><trkpt lat="36.95533120181355" lon="15.04060267513504"><ele>372.0</ele><time>2026-03-26T17:57:19Z</time></trkpt><trkpt lat="36.955247576189436" lon="15.040756948758492"><ele>372.0</ele><time>2026-03-26T17:57:20Z</time></trkpt><trkpt lat="36.955181395806484" lon="15.040943936106736"><ele>372.0</ele><time>2026-03-26T17:57:21Z</time></trkpt><trkpt lat="36.9551272271409" lon="15.0411185406909"><ele>370.25</ele><time>2026-03-26T17:57:22Z</time></trkpt><trkpt lat="36.95507725691631" lon="15.041275172106948"><ele>368.5</ele><time>2026-03-26T17:57:23Z</time></trkpt><trkpt lat="36.9550279759361" lon="15.041408803000085"><ele>366.75</ele><time>2026-03-26T17:57:24Z</time></trkpt><trkpt lat="36.95496619382594" lon="15.041514768271112"><ele>365.0</ele><time>2026-03-26T17:57:25Z</time></trkpt><trkpt lat="36.95487130448658" lon="15.041611708125481"><ele>364.6666666666667</ele><time>2026-03-26T17:57:26Z</time></trkpt><trkpt lat="36.95474855202289" lon="15.041720665463075"><ele>364.3333333333333</ele><time>2026-03-26T17:57:27Z</time></trkpt><trkpt lat="36.95461687488855" lon="15.041834596051242"><ele>364.0</ele><time>2026-03-26T17:57:28Z</time></trkpt><trkpt lat="36.95447524606003" lon="15.041956462741208"><ele>364.0</ele><time>2026-03-26T17:57:29Z</time></trkpt><trkpt lat="36.954332101912804" lon="15.04207963325227"><ele>364.0</ele><time>2026-03-26T17:57:30Z</time></trkpt><trkpt lat="36.95419663657901" lon="15.042197266685399"><ele>364.0</ele><time>2026-03-26T17:57:31Z</time></trkpt><trkpt lat="36.95407412401769" lon="15.042304514947697"><ele>363.0</ele><time>2026-03-26T17:57:32Z</time></trkpt><trkpt lat="36.953954681449076" lon="15.042424144444881"><ele>362.0</ele><time>2026-03-26T17:57:33Z</time></trkpt><trkpt lat="36.95383792263038" lon="15.042571071044787"><ele>361.0</ele><time>2026-03-26T17:57:34Z</time></trkpt><trkpt lat="36.9537270917801" lon="15.042758375076346"><ele>361.0</ele><time>2026-03-26T17:57:35Z</time></trkpt><trkpt lat="36.953608253712794" lon="15.042951011971518"><ele>361.0</ele><time>2026-03-26T17:57:36Z</time></trkpt><trkpt lat="36.953483077259314" lon="15.04315392343375"><ele>361.0</ele><time>2026-03-26T17:57:37Z</time></trkpt><trkpt lat="36.953360151353266" lon="15.043354913856295"><ele>361.3333333333333</ele><time>2026-03-26T17:57:38Z</time></trkpt><trkpt lat="36.95323124353009" lon="15.043565765342466"><ele>361.6666666666667</ele><time>2026-03-26T17:57:39Z</time></trkpt><trkpt lat="36.95310048393616" lon="15.043779809476334"><ele>362.0</ele><time>2026-03-26T17:57:40Z</time></trkpt><trkpt lat="36.95297134729035" lon="15.043991387633469"><ele>361.33333333333337</ele><time>2026-03-26T17:57:41Z</time></trkpt><trkpt lat="36.952843489320266" lon="15.044200870739992"><ele>360.6666666666667</ele><time>2026-03-26T17:57:42Z</time></trkpt><trkpt lat="36.95271460482756" lon="15.044412035754144"><ele>360.0</ele><time>2026-03-26T17:57:43Z</time></trkpt><trkpt lat="36.95258564907733" lon="15.04462407381988"><ele>361.3333333333333</ele><time>2026-03-26T17:57:44Z</time></trkpt><trkpt lat="36.952455519995304" lon="15.044838949481912"><ele>362.66666666666663</ele><time>2026-03-26T17:57:45Z</time></trkpt><trkpt lat="36.9523223683285" lon="15.045055913966152"><ele>364.0</ele><time>2026-03-26T17:57:46Z</time></trkpt><trkpt lat="36.95218878007061" lon="15.045273589833187"><ele>364.0</ele><time>2026-03-26T17:57:47Z</time></trkpt><trkpt lat="36.95206243061628" lon="15.045480890298501"><ele>364.0</ele><time>2026-03-26T17:57:48Z</time></trkpt><trkpt lat="36.95194505674781" lon="15.045673825383982"><ele>364.0</ele><time>2026-03-26T17:57:49Z</time></trkpt><trkpt lat="36.9518342769042" lon="15.045855922412349"><ele>363.3333333333333</ele><time>2026-03-26T17:57:50Z</time></trkpt><trkpt lat="36.95172940507681" lon="15.046028307203509"><ele>362.6666666666667</ele><time>2026-03-26T17:57:51Z</time></trkpt><trkpt lat="36.95163097019322" lon="15.04618731439547"><ele>362.0</ele><time>2026-03-26T17:57:52Z</time></trkpt><trkpt lat="36.95154206862721" lon="15.046325135556302"><ele>362.75</ele><time>2026-03-26T17:57:53Z</time></trkpt><trkpt lat="36.95144829080951" lon="15.046431287393416"><ele>363.5</ele><time>2026-03-26T17:57:54Z</time></trkpt><trkpt lat="36.95133245630341" lon="15.046525777827954"><ele>364.25</ele><time>2026-03-26T17:57:55Z</time></trkpt><trkpt lat="36.95119258910637" lon="15.046616918386778"><ele>365.0</ele><time>2026-03-26T17:57:56Z</time></trkpt><trkpt lat="36.95104050873163" lon="15.046713679130567"><ele>365.0</ele><time>2026-03-26T17:57:57Z</time></trkpt><trkpt lat="36.95087927485533" lon="15.046816177973088"><ele>365.0</ele><time>2026-03-26T17:57:58Z</time></trkpt><trkpt lat="36.95070923221618" lon="15.04692389325961"><ele>365.0</ele><time>2026-03-26T17:57:59Z</time></trkpt><trkpt lat="36.950535678151866" lon="15.047033832908976"><ele>364.6666666666667</ele><time>2026-03-26T17:58:00Z</time></trkpt><trkpt lat="36.95035540750849" lon="15.047148027332847"><ele>364.3333333333333</ele><time>2026-03-26T17:58:01Z</time></trkpt><trkpt lat="36.95017078743867" lon="15.04726497527437"><ele>364.0</ele><time>2026-03-26T17:58:02Z</time></trkpt><trkpt lat="36.94998774284077" lon="15.047380504934631"><ele>362.66666666666663</ele><time>2026-03-26T17:58:03Z</time></trkpt><trkpt lat="36.94980766144657" lon="15.047494655973876"><ele>361.3333333333333</ele><time>2026-03-26T17:58:04Z</time></trkpt><trkpt lat="36.94963393848472" lon="15.047605286193454"><ele>360.0</ele><time>2026-03-26T17:58:05Z</time></trkpt><trkpt lat="36.94946828790472" lon="15.047709508968518"><ele>360.0</ele><time>2026-03-26T17:58:06Z</time></trkpt><trkpt lat="36.949310287897205" lon="15.047809035540592"><ele>360.0</ele><time>2026-03-26T17:58:07Z</time></trkpt><trkpt lat="36.949148737948825" lon="15.04791127336825"><ele>360.0</ele><time>2026-03-26T17:58:08Z</time></trkpt><trkpt lat="36.9489870977119" lon="15.048013568369848"><ele>359.3333333333333</ele><time>2026-03-26T17:58:09Z</time></trkpt><trkpt lat="36.94882244645467" lon="15.048117768916352"><ele>358.66666666666663</ele><time>2026-03-26T17:58:10Z</time></trkpt><trkpt lat="36.948651097484486" lon="15.048226253348268"><ele>358.0</ele><time>2026-03-26T17:58:11Z</time></trkpt><trkpt lat="36.9484706868046" lon="15.048341231744404"><ele>355.66666666666663</ele><time>2026-03-26T17:58:12Z</time></trkpt><trkpt lat="36.94828479546642" lon="15.048459703012574"><ele>353.3333333333333</ele><time>2026-03-26T17:58:13Z</time></trkpt><trkpt lat="36.94809528621552" lon="15.048580480052356"><ele>351.0</ele><time>2026-03-26T17:58:14Z</time></trkpt><trkpt lat="36.947901400428414" lon="15.048703434439393"><ele>351.0</ele><time>2026-03-26T17:58:15Z</time></trkpt><trkpt lat="36.9477013668406" lon="15.048829210496873"><ele>351.0</ele><time>2026-03-26T17:58:16Z</time></trkpt><trkpt lat="36.94749728606548" lon="15.048958416753377"><ele>347.0</ele><time>2026-03-26T17:58:17Z</time></trkpt><trkpt lat="36.947291177234156" lon="15.04909067910739"><ele>343.0</ele><time>2026-03-26T17:58:18Z</time></trkpt><trkpt lat="36.94709513287761" lon="15.049216227287106"><ele>343.0</ele><time>2026-03-26T17:58:19Z</time></trkpt><trkpt lat="36.94691003547418" lon="15.04933465424177"><ele>343.0</ele><time>2026-03-26T17:58:20Z</time></trkpt><trkpt lat="36.94673298217639" lon="15.049447140938682"><ele>343.0</ele><time>2026-03-26T17:58:21Z</time></trkpt><trkpt lat="36.94656453173631" lon="15.049553023749382"><ele>341.0</ele><time>2026-03-26T17:58:22Z</time></trkpt><trkpt lat="36.94639831399922" lon="15.049658499914623"><ele>339.0</ele><time>2026-03-26T17:58:23Z</time></trkpt><trkpt lat="36.94623849263899" lon="15.049759837349278"><ele>337.0</ele><time>2026-03-26T17:58:24Z</time></trkpt><trkpt lat="36.94609578054221" lon="15.049850326417324"><ele>337.0</ele><time>2026-03-26T17:58:25Z</time></trkpt><trkpt lat="36.945963302554965" lon="15.049934326382964"><ele>337.0</ele><time>2026-03-26T17:58:26Z</time></trkpt><trkpt lat="36.945837706741095" lon="15.050015250099905"><ele>337.0</ele><time>2026-03-26T17:58:27Z</time></trkpt><trkpt lat="36.94572087250231" lon="15.050095443279748"><ele>337.0</ele><time>2026-03-26T17:58:28Z</time></trkpt><trkpt lat="36.945594211397925" lon="15.050202995552972"><ele>337.5</ele><time>2026-03-26T17:58:29Z</time></trkpt><trkpt lat="36.94547657906589" lon="15.050334514058806"><ele>338.0</ele><time>2026-03-26T17:58:30Z</time></trkpt><trkpt lat="36.945369048325446" lon="15.050463247412372"><ele>338.5</ele><time>2026-03-26T17:58:31Z</time></trkpt><trkpt lat="36.94526938181581" lon="15.050579747576037"><ele>339.0</ele><time>2026-03-26T17:58:32Z</time></trkpt><trkpt lat="36.94516823124935" lon="15.050687564901622"><ele>339.0</ele><time>2026-03-26T17:58:33Z</time></trkpt><trkpt lat="36.94506652691622" lon="15.050784315471692"><ele>339.0</ele><time>2026-03-26T17:58:34Z</time></trkpt><trkpt lat="36.94495953812132" lon="15.050881685529125"><ele>339.0</ele><time>2026-03-26T17:58:35Z</time></trkpt><trkpt lat="36.94484984807328" lon="15.050960700834949"><ele>339.0</ele><time>2026-03-26T17:58:36Z</time></trkpt><trkpt lat="36.94474534467743" lon="15.05101360236207"><ele>336.25</ele><time>2026-03-26T17:58:37Z</time></trkpt><trkpt lat="36.944647367756424" lon="15.051034506888143"><ele>333.5</ele><time>2026-03-26T17:58:38Z</time></trkpt><trkpt lat="36.944516132275744" lon="15.051041063907054"><ele>330.75</ele><time>2026-03-26T17:58:39Z</time></trkpt><trkpt lat="36.94436011817609" lon="15.051043564348156"><ele>328.0</ele><time>2026-03-26T17:58:40Z</time></trkpt><trkpt lat="36.9441913010555" lon="15.051044931758632"><ele>327.66666666666663</ele><time>2026-03-26T17:58:41Z</time></trkpt><trkpt lat="36.944027822071696" lon="15.051044931755209"><ele>327.3333333333333</ele><time>2026-03-26T17:58:42Z</time></trkpt><trkpt lat="36.943880251290494" lon="15.051039474716537"><ele>327.0</ele><time>2026-03-26T17:58:43Z</time></trkpt><trkpt lat="36.94373995458777" lon="15.051030568630114"><ele>327.0</ele><time>2026-03-26T17:58:44Z</time></trkpt><trkpt lat="36.94362104421966" lon="15.051020123183513"><ele>327.0</ele><time>2026-03-26T17:58:45Z</time></trkpt><trkpt lat="36.94353111297375" lon="15.051007671445426"><ele>327.0</ele><time>2026-03-26T17:58:46Z</time></trkpt><trkpt lat="36.94345907479743" lon="15.051008185488797"><ele>327.0</ele><time>2026-03-26T17:58:47Z</time></trkpt><trkpt lat="36.943401653412124" lon="15.050954455914304"><ele>327.0</ele><time>2026-03-26T17:58:48Z</time></trkpt><trkpt lat="36.943373381693256" lon="15.050874120802792"><ele>327.0</ele><time>2026-03-26T17:58:49Z</time></trkpt><trkpt lat="36.94338361292396" lon="15.05076867831163"><ele>327.75</ele><time>2026-03-26T17:58:50Z</time></trkpt><trkpt lat="36.94342366489987" lon="15.050630859104777"><ele>328.5</ele><time>2026-03-26T17:58:51Z</time></trkpt><trkpt lat="36.943481565522056" lon="15.05048958241947"><ele>329.25</ele><time>2026-03-26T17:58:52Z</time></trkpt><trkpt lat="36.943531294666606" lon="15.050362457038474"><ele>330.0</ele><time>2026-03-26T17:58:53Z</time></trkpt><trkpt lat="36.943577241881165" lon="15.050245915076403"><ele>330.0</ele><time>2026-03-26T17:58:54Z</time></trkpt><trkpt lat="36.94360967550296" lon="15.050148418418395"><ele>330.0</ele><time>2026-03-26T17:58:55Z</time></trkpt><trkpt lat="36.94362440757278" lon="15.050059646287325"><ele>330.0</ele><time>2026-03-26T17:58:56Z</time></trkpt><trkpt lat="36.943620069045856" lon="15.049965682260982"><ele>330.0</ele><time>2026-03-26T17:58:57Z</time></trkpt><trkpt lat="36.94358530054929" lon="15.049877247464835"><ele>330.0</ele><time>2026-03-26T17:58:58Z</time></trkpt><trkpt lat="36.9435375201228" lon="15.049803788064096"><ele>330.0</ele><time>2026-03-26T17:58:59Z</time></trkpt><trkpt lat="36.9434595403355" lon="15.049774864831397"><ele>325.5</ele><time>2026-03-26T17:59:00Z</time></trkpt><trkpt lat="36.94337155591318" lon="15.049813211685088"><ele>321.0</ele><time>2026-03-26T17:59:01Z</time></trkpt><trkpt lat="36.94332799415086" lon="15.049956968294014"><ele>316.5</ele><time>2026-03-26T17:59:02Z</time></trkpt><trkpt lat="36.94328413419234" lon="15.050112129636064"><ele>312.0</ele><time>2026-03-26T17:59:03Z</time></trkpt><trkpt lat="36.94323570203164" lon="15.05028740171015"><ele>311.75</ele><time>2026-03-26T17:59:04Z</time></trkpt><trkpt lat="36.943187943263624" lon="15.050460236778344"><ele>311.5</ele><time>2026-03-26T17:59:05Z</time></trkpt><trkpt lat="36.9431434131197" lon="15.05062335916021"><ele>311.25</ele><time>2026-03-26T17:59:06Z</time></trkpt><trkpt lat="36.9431024173908" lon="15.050762584712976"><ele>311.0</ele><time>2026-03-26T17:59:07Z</time></trkpt><trkpt lat="36.94304481528151" lon="15.050870755888958"><ele>311.75</ele><time>2026-03-26T17:59:08Z</time></trkpt><trkpt lat="36.94297145557163" lon="15.050935451633725"><ele>312.5</ele><time>2026-03-26T17:59:09Z</time></trkpt><trkpt lat="36.942868573150704" lon="15.05099034273626"><ele>313.25</ele><time>2026-03-26T17:59:10Z</time></trkpt><trkpt lat="36.942749946994006" lon="15.051052174652913"><ele>314.0</ele><time>2026-03-26T17:59:11Z</time></trkpt><trkpt lat="36.942627267986005" lon="15.05111763717807"><ele>309.75</ele><time>2026-03-26T17:59:12Z</time></trkpt><trkpt lat="36.942506816928415" lon="15.051181910725976"><ele>305.5</ele><time>2026-03-26T17:59:13Z</time></trkpt><trkpt lat="36.94239160214951" lon="15.051243849552169"><ele>301.25</ele><time>2026-03-26T17:59:13.999Z</time></trkpt><trkpt lat="36.94228243210972" lon="15.051303168669532"><ele>297.0</ele><time>2026-03-26T17:59:14.999Z</time></trkpt><trkpt lat="36.94219227611221" lon="15.051350040436558"><ele>297.0</ele><time>2026-03-26T17:59:15.999Z</time></trkpt><trkpt lat="36.94211046138618" lon="15.051385392391923"><ele>297.0</ele><time>2026-03-26T17:59:17Z</time></trkpt><trkpt lat="36.942043012342836" lon="15.05140511569555"><ele>297.0</ele><time>2026-03-26T17:59:18Z</time></trkpt><trkpt lat="36.94197227546321" lon="15.051403757501392"><ele>297.0</ele><time>2026-03-26T17:59:19Z</time></trkpt><trkpt lat="36.941900973821845" lon="15.051373619956658"><ele>297.0</ele><time>2026-03-26T17:59:20Z</time></trkpt><trkpt lat="36.9418722161317" lon="15.051293070452296"><ele>297.0</ele><time>2026-03-26T17:59:21Z</time></trkpt><trkpt lat="36.941872135092126" lon="15.05117648072783"><ele>297.0</ele><time>2026-03-26T17:59:22Z</time></trkpt><trkpt lat="36.94191103224974" lon="15.051054506413463"><ele>297.0</ele><time>2026-03-26T17:59:23Z</time></trkpt><trkpt lat="36.94195234929844" lon="15.05092865339748"><ele>297.0</ele><time>2026-03-26T17:59:24Z</time></trkpt><trkpt lat="36.941974110848356" lon="15.05080065928617"><ele>297.0</ele><time>2026-03-26T17:59:25Z</time></trkpt><trkpt lat="36.94198602958113" lon="15.050691014993424"><ele>297.0</ele><time>2026-03-26T17:59:26Z</time></trkpt><trkpt lat="36.94198566428568" lon="15.05059760071459"><ele>296.2</ele><time>2026-03-26T17:59:27Z</time></trkpt><trkpt lat="36.94196803570355" lon="15.050518192512826"><ele>295.4</ele><time>2026-03-26T17:59:28Z</time></trkpt><trkpt lat="36.94193327096268" lon="15.050425569834722"><ele>294.6</ele><time>2026-03-26T17:59:29Z</time></trkpt><trkpt lat="36.941809871410506" lon="15.050389534248266"><ele>293.8</ele><time>2026-03-26T17:59:30Z</time></trkpt><trkpt lat="36.94168604221086" lon="15.050371152040192"><ele>293.0</ele><time>2026-03-26T17:59:31Z</time></trkpt><trkpt lat="36.94155169726392" lon="15.050353657158931"><ele>297.33333333333337</ele><time>2026-03-26T17:59:32Z</time></trkpt><trkpt lat="36.94140694213888" lon="15.050334806571653"><ele>301.6666666666667</ele><time>2026-03-26T17:59:33Z</time></trkpt><trkpt lat="36.94125439362432" lon="15.050314941111662"><ele>306.0</ele><time>2026-03-26T17:59:34Z</time></trkpt><trkpt lat="36.941096203926875" lon="15.050295040429216"><ele>306.0</ele><time>2026-03-26T17:59:35Z</time></trkpt><trkpt lat="36.940949721020004" lon="15.050274114294869"><ele>306.0</ele><time>2026-03-26T17:59:36Z</time></trkpt><trkpt lat="36.94082919749361" lon="15.050259203977017"><ele>306.0</ele><time>2026-03-26T17:59:37Z</time></trkpt><trkpt lat="36.94072633920018" lon="15.050247651813725"><ele>306.0</ele><time>2026-03-26T17:59:38Z</time></trkpt><trkpt lat="36.94063242283873" lon="15.050240784571859"><ele>308.2</ele><time>2026-03-26T17:59:39Z</time></trkpt><trkpt lat="36.94054169556043" lon="15.050244786618736"><ele>310.40000000000003</ele><time>2026-03-26T17:59:40Z</time></trkpt><trkpt lat="36.94044461715396" lon="15.050278769100606"><ele>312.6</ele><time>2026-03-26T17:59:41Z</time></trkpt><trkpt lat="36.94035408993287" lon="15.05034373146708"><ele>314.8</ele><time>2026-03-26T17:59:42Z</time></trkpt><trkpt lat="36.94028656337253" lon="15.050446146335656"><ele>317.0</ele><time>2026-03-26T17:59:43Z</time></trkpt><trkpt lat="36.94026728403972" lon="15.050577037809605"><ele>317.0</ele><time>2026-03-26T17:59:44Z</time></trkpt><trkpt lat="36.94025872141727" lon="15.050737879117653"><ele>317.0</ele><time>2026-03-26T17:59:45Z</time></trkpt><trkpt lat="36.94025015355177" lon="15.05092399947189"><ele>317.0</ele><time>2026-03-26T17:59:46Z</time></trkpt><trkpt lat="36.94024463067221" lon="15.051104136048888"><ele>317.0</ele><time>2026-03-26T17:59:47Z</time></trkpt><trkpt lat="36.94024939010967" lon="15.051279712806991"><ele>319.5</ele><time>2026-03-26T17:59:48Z</time></trkpt><trkpt lat="36.940287866895076" lon="15.051443255798153"><ele>322.0</ele><time>2026-03-26T17:59:49Z</time></trkpt><trkpt lat="36.940337814489894" lon="15.051600871071868"><ele>324.5</ele><time>2026-03-26T17:59:50Z</time></trkpt><trkpt lat="36.94041289514635" lon="15.05173186272571"><ele>327.0</ele><time>2026-03-26T17:59:51Z</time></trkpt><trkpt lat="36.940488047325616" lon="15.051843726691237"><ele>328.0</ele><time>2026-03-26T17:59:52Z</time></trkpt><trkpt lat="36.94051827038965" lon="15.051964082699662"><ele>329.0</ele><time>2026-03-26T17:59:53Z</time></trkpt><trkpt lat="36.94052463035253" lon="15.052054770269006"><ele>330.0</ele><time>2026-03-26T17:59:54Z</time></trkpt><trkpt lat="36.940435462150326" lon="15.052177774282546"><ele>331.0</ele><time>2026-03-26T17:59:56Z</time></trkpt><trkpt lat="36.94034843589056" lon="15.052257832138654"><ele>332.0</ele><time>2026-03-26T17:59:57Z</time></trkpt><trkpt lat="36.94025210087447" lon="15.052344755925864"><ele>332.0</ele><time>2026-03-26T17:59:58Z</time></trkpt><trkpt lat="36.94014382571089" lon="15.052455681156612"><ele>332.0</ele><time>2026-03-26T17:59:59Z</time></trkpt><trkpt lat="36.940024599121365" lon="15.052591155232747"><ele>332.0</ele><time>2026-03-26T18:00:00Z</time></trkpt><trkpt lat="36.93990510475641" lon="15.052741200819549"><ele>330.33333333333337</ele><time>2026-03-26T18:00:01Z</time></trkpt><trkpt lat="36.939770378705525" lon="15.052913935914127"><ele>328.6666666666667</ele><time>2026-03-26T18:00:02Z</time></trkpt><trkpt lat="36.93962918984046" lon="15.053100310545013"><ele>327.0</ele><time>2026-03-26T18:00:03Z</time></trkpt><trkpt lat="36.939491028890664" lon="15.053298233589002"><ele>326.3333333333333</ele><time>2026-03-26T18:00:04Z</time></trkpt><trkpt lat="36.93935827638094" lon="15.053495670865615"><ele>325.66666666666663</ele><time>2026-03-26T18:00:05Z</time></trkpt><trkpt lat="36.93922460245211" lon="15.05369629648509"><ele>325.0</ele><time>2026-03-26T18:00:06Z</time></trkpt><trkpt lat="36.939101617440635" lon="15.05388066056163"><ele>325.0</ele><time>2026-03-26T18:00:07Z</time></trkpt><trkpt lat="36.93898351215922" lon="15.054051147826229"><ele>325.0</ele><time>2026-03-26T18:00:08Z</time></trkpt><trkpt lat="36.938863244996135" lon="15.054209818765612"><ele>325.0</ele><time>2026-03-26T18:00:09Z</time></trkpt><trkpt lat="36.93872875446254" lon="15.054353616237503"><ele>322.3333333333333</ele><time>2026-03-26T18:00:10Z</time></trkpt><trkpt lat="36.9385753174773" lon="15.054489788544823"><ele>319.6666666666667</ele><time>2026-03-26T18:00:11Z</time></trkpt><trkpt lat="36.93843422220588" lon="15.054609781154973"><ele>317.0</ele><time>2026-03-26T18:00:12Z</time></trkpt><trkpt lat="36.93830430514283" lon="15.054720267374242"><ele>317.0</ele><time>2026-03-26T18:00:13Z</time></trkpt><trkpt lat="36.93818000248262" lon="15.054825978956282"><ele>317.0</ele><time>2026-03-26T18:00:14Z</time></trkpt><trkpt lat="36.938060455058384" lon="15.05493048169417"><ele>317.0</ele><time>2026-03-26T18:00:15Z</time></trkpt><trkpt lat="36.93794061056411" lon="15.055038997166752"><ele>317.0</ele><time>2026-03-26T18:00:16Z</time></trkpt><trkpt lat="36.9378113530535" lon="15.055171691756565"><ele>320.33333333333337</ele><time>2026-03-26T18:00:17Z</time></trkpt><trkpt lat="36.93768203558733" lon="15.055355722486393"><ele>323.6666666666667</ele><time>2026-03-26T18:00:18Z</time></trkpt><trkpt lat="36.93755704119293" lon="15.055566807657216"><ele>327.0</ele><time>2026-03-26T18:00:19Z</time></trkpt><trkpt lat="36.93743701488989" lon="15.05576954951273"><ele>328.3333333333333</ele><time>2026-03-26T18:00:20Z</time></trkpt><trkpt lat="36.93732385161418" lon="15.055960769524285"><ele>329.66666666666663</ele><time>2026-03-26T18:00:21Z</time></trkpt><trkpt lat="36.937216350932445" lon="15.05614242106031"><ele>331.0</ele><time>2026-03-26T18:00:22Z</time></trkpt><trkpt lat="36.937114474199525" lon="15.056316253326859"><ele>331.0</ele><time>2026-03-26T18:00:23Z</time></trkpt><trkpt lat="36.93701788435079" lon="15.056482853438295"><ele>331.0</ele><time>2026-03-26T18:00:24Z</time></trkpt><trkpt lat="36.936925128096455" lon="15.05664097884996"><ele>331.0</ele><time>2026-03-26T18:00:25Z</time></trkpt><trkpt lat="36.936836775479854" lon="15.05679179442765"><ele>331.75</ele><time>2026-03-26T18:00:26Z</time></trkpt><trkpt lat="36.93675324165882" lon="15.05693455879142"><ele>332.5</ele><time>2026-03-26T18:00:27Z</time></trkpt><trkpt lat="36.936670953197336" lon="15.057075281342945"><ele>333.25</ele><time>2026-03-26T18:00:28Z</time></trkpt><trkpt lat="36.936586746494456" lon="15.057219284212255"><ele>334.0</ele><time>2026-03-26T18:00:29Z</time></trkpt><trkpt lat="36.93650088778667" lon="15.057366112283015"><ele>331.66666666666663</ele><time>2026-03-26T18:00:30Z</time></trkpt><trkpt lat="36.93641337310251" lon="15.057515644664177"><ele>329.3333333333333</ele><time>2026-03-26T18:00:31Z</time></trkpt><trkpt lat="36.9363243691308" lon="15.057667587551181"><ele>327.0</ele><time>2026-03-26T18:00:32Z</time></trkpt><trkpt lat="36.936234843328656" lon="15.05782037311"><ele>327.0</ele><time>2026-03-26T18:00:33Z</time></trkpt><trkpt lat="36.93614542729019" lon="15.057973052597344"><ele>327.0</ele><time>2026-03-26T18:00:34Z</time></trkpt><trkpt lat="36.93605183478433" lon="15.058122731671478"><ele>327.0</ele><time>2026-03-26T18:00:35Z</time></trkpt><trkpt lat="36.93595391300397" lon="15.058271644247137"><ele>326.0</ele><time>2026-03-26T18:00:36Z</time></trkpt><trkpt lat="36.93585022788742" lon="15.05841331220138"><ele>325.0</ele><time>2026-03-26T18:00:37Z</time></trkpt><trkpt lat="36.9357521960933" lon="15.058547375211512"><ele>324.0</ele><time>2026-03-26T18:00:38Z</time></trkpt><trkpt lat="36.93565846392729" lon="15.058674652306838"><ele>323.0</ele><time>2026-03-26T18:00:39Z</time></trkpt><trkpt lat="36.935560737799314" lon="15.058807445798804"><ele>323.0</ele><time>2026-03-26T18:00:40Z</time></trkpt><trkpt lat="36.93546335481312" lon="15.058939773027488"><ele>323.0</ele><time>2026-03-26T18:00:41Z</time></trkpt><trkpt lat="36.93536744748866" lon="15.059070095089094"><ele>323.0</ele><time>2026-03-26T18:00:42Z</time></trkpt><trkpt lat="36.93527105388053" lon="15.059202312126008"><ele>323.0</ele><time>2026-03-26T18:00:43Z</time></trkpt><trkpt lat="36.935173888513646" lon="15.05933648086975"><ele>323.75</ele><time>2026-03-26T18:00:44Z</time></trkpt><trkpt lat="36.93507716211651" lon="15.059469298663306"><ele>324.5</ele><time>2026-03-26T18:00:45Z</time></trkpt><trkpt lat="36.93497841261162" lon="15.059604885299494"><ele>325.25</ele><time>2026-03-26T18:00:46Z</time></trkpt><trkpt lat="36.93487905314644" lon="15.05974077201897"><ele>326.0</ele><time>2026-03-26T18:00:47Z</time></trkpt><trkpt lat="36.93478082590019" lon="15.05987509405947"><ele>324.75</ele><time>2026-03-26T18:00:48Z</time></trkpt><trkpt lat="36.9346878384115" lon="15.060001284116305"><ele>323.5</ele><time>2026-03-26T18:00:49Z</time></trkpt><trkpt lat="36.93460162830792" lon="15.060117715514561"><ele>322.25</ele><time>2026-03-26T18:00:50Z</time></trkpt><trkpt lat="36.93451820294151" lon="15.060233028763246"><ele>321.0</ele><time>2026-03-26T18:00:51Z</time></trkpt><trkpt lat="36.93444030602703" lon="15.06034449923541"><ele>321.0</ele><time>2026-03-26T18:00:52Z</time></trkpt><trkpt lat="36.934364735295624" lon="15.060459914757718"><ele>321.0</ele><time>2026-03-26T18:00:53Z</time></trkpt><trkpt lat="36.93429295469254" lon="15.060599551707925"><ele>321.0</ele><time>2026-03-26T18:00:54Z</time></trkpt><trkpt lat="36.93424180641498" lon="15.060754324766103"><ele>321.0</ele><time>2026-03-26T18:00:55Z</time></trkpt><trkpt lat="36.934223729249865" lon="15.060937960047305"><ele>318.0</ele><time>2026-03-26T18:00:56Z</time></trkpt><trkpt lat="36.93421226734577" lon="15.061125389197391"><ele>315.0</ele><time>2026-03-26T18:00:57Z</time></trkpt><trkpt lat="36.93420272027487" lon="15.061316237118229"><ele>312.0</ele><time>2026-03-26T18:00:58Z</time></trkpt><trkpt lat="36.934193365881455" lon="15.06149508779939"><ele>309.0</ele><time>2026-03-26T18:00:59Z</time></trkpt><trkpt lat="36.93417250906432" lon="15.061667614524294"><ele>309.0</ele><time>2026-03-26T18:01:00Z</time></trkpt><trkpt lat="36.93412676392116" lon="15.061845200949143"><ele>309.0</ele><time>2026-03-26T18:01:01Z</time></trkpt><trkpt lat="36.93407169870094" lon="15.062032286079587"><ele>309.0</ele><time>2026-03-26T18:01:02Z</time></trkpt><trkpt lat="36.934031811540045" lon="15.06220905499492"><ele>309.0</ele><time>2026-03-26T18:01:03Z</time></trkpt><trkpt lat="36.93400377265017" lon="15.062366956896431"><ele>309.0</ele><time>2026-03-26T18:01:04Z</time></trkpt><trkpt lat="36.93398023634088" lon="15.062502581052586"><ele>309.0</ele><time>2026-03-26T18:01:05Z</time></trkpt><trkpt lat="36.93395394165094" lon="15.062644525581943"><ele>309.0</ele><time>2026-03-26T18:01:06Z</time></trkpt><trkpt lat="36.93391765467498" lon="15.062773960570945"><ele>310.0</ele><time>2026-03-26T18:01:07Z</time></trkpt><trkpt lat="36.93386836566234" lon="15.062899131161595"><ele>311.0</ele><time>2026-03-26T18:01:08Z</time></trkpt><trkpt lat="36.9338150723238" lon="15.063010123797232"><ele>312.0</ele><time>2026-03-26T18:01:09Z</time></trkpt><trkpt lat="36.93375401402243" lon="15.063087737641423"><ele>313.0</ele><time>2026-03-26T18:01:10Z</time></trkpt><trkpt lat="36.93369083437972" lon="15.063137057963987"><ele>314.0</ele><time>2026-03-26T18:01:11Z</time></trkpt><trkpt lat="36.93357197575899" lon="15.0631744395819"><ele>314.0</ele><time>2026-03-26T18:01:13Z</time></trkpt><trkpt lat="36.9335175363833" lon="15.063119181491425"><ele>314.0</ele><time>2026-03-26T18:01:13.999Z</time></trkpt><trkpt lat="36.93346734215808" lon="15.063006091214744"><ele>314.0</ele><time>2026-03-26T18:01:14.999Z</time></trkpt><trkpt lat="36.93345233341973" lon="15.062872644811057"><ele>314.0</ele><time>2026-03-26T18:01:15.999Z</time></trkpt><trkpt lat="36.93347143777557" lon="15.06271485878811"><ele>314.0</ele><time>2026-03-26T18:01:16.999Z</time></trkpt><trkpt lat="36.93349473224284" lon="15.062528343842335"><ele>312.75</ele><time>2026-03-26T18:01:17.999Z</time></trkpt><trkpt lat="36.9334965448824" lon="15.062343753458565"><ele>311.5</ele><time>2026-03-26T18:01:18.999Z</time></trkpt><trkpt lat="36.93348583301755" lon="15.06217001806792"><ele>310.25</ele><time>2026-03-26T18:01:19.999Z</time></trkpt><trkpt lat="36.933478666045005" lon="15.062024620069222"><ele>309.0</ele><time>2026-03-26T18:01:20.999Z</time></trkpt><trkpt lat="36.93346314171098" lon="15.061889512037425"><ele>309.0</ele><time>2026-03-26T18:01:21.999Z</time></trkpt><trkpt lat="36.933421585745435" lon="15.061743915913063"><ele>309.0</ele><time>2026-03-26T18:01:23Z</time></trkpt><trkpt lat="36.933342955597105" lon="15.061605978953379"><ele>309.0</ele><time>2026-03-26T18:01:24Z</time></trkpt><trkpt lat="36.93324650152176" lon="15.061490875366813"><ele>309.0</ele><time>2026-03-26T18:01:25Z</time></trkpt><trkpt lat="36.93315738839795" lon="15.061396514996416"><ele>306.25</ele><time>2026-03-26T18:01:26Z</time></trkpt><trkpt lat="36.93304951968717" lon="15.061361940901756"><ele>303.5</ele><time>2026-03-26T18:01:27Z</time></trkpt><trkpt lat="36.93292843305164" lon="15.061388784974094"><ele>300.75</ele><time>2026-03-26T18:01:28Z</time></trkpt><trkpt lat="36.93280452591551" lon="15.06147085441622"><ele>298.0</ele><time>2026-03-26T18:01:29Z</time></trkpt><trkpt lat="36.93266958567621" lon="15.061556846576343"><ele>297.66666666666663</ele><time>2026-03-26T18:01:30Z</time></trkpt><trkpt lat="36.932514611225365" lon="15.0616053209282"><ele>297.3333333333333</ele><time>2026-03-26T18:01:31Z</time></trkpt><trkpt lat="36.93233719406395" lon="15.061648232080916"><ele>297.0</ele><time>2026-03-26T18:01:32Z</time></trkpt><trkpt lat="36.93215509750686" lon="15.061700301139522"><ele>301.0</ele><time>2026-03-26T18:01:33Z</time></trkpt><trkpt lat="36.9319734020522" lon="15.061768967682527"><ele>305.0</ele><time>2026-03-26T18:01:34Z</time></trkpt><trkpt lat="36.93180684961559" lon="15.061840769984432"><ele>309.0</ele><time>2026-03-26T18:01:35Z</time></trkpt><trkpt lat="36.93164352250663" lon="15.061922540848048"><ele>309.0</ele><time>2026-03-26T18:01:36Z</time></trkpt><trkpt lat="36.93148580099244" lon="15.062027696605174"><ele>309.0</ele><time>2026-03-26T18:01:37Z</time></trkpt><trkpt lat="36.931334030902114" lon="15.062139031501683"><ele>309.0</ele><time>2026-03-26T18:01:38Z</time></trkpt><trkpt lat="36.93117731756566" lon="15.06226353671487"><ele>309.0</ele><time>2026-03-26T18:01:39Z</time></trkpt><trkpt lat="36.93102521995204" lon="15.062421360324418"><ele>309.0</ele><time>2026-03-26T18:01:40Z</time></trkpt><trkpt lat="36.93087810428826" lon="15.062585755720988"><ele>309.0</ele><time>2026-03-26T18:01:41Z</time></trkpt><trkpt lat="36.93072806255617" lon="15.062753847599657"><ele>313.3333333333333</ele><time>2026-03-26T18:01:42Z</time></trkpt><trkpt lat="36.93057529324248" lon="15.06292499521817"><ele>317.66666666666663</ele><time>2026-03-26T18:01:43Z</time></trkpt><trkpt lat="36.930426832071014" lon="15.063091037605718"><ele>322.0</ele><time>2026-03-26T18:01:44Z</time></trkpt><trkpt lat="36.930285454874216" lon="15.063248817402638"><ele>323.0</ele><time>2026-03-26T18:01:45Z</time></trkpt><trkpt lat="36.930147927746496" lon="15.06340230062523"><ele>324.0</ele><time>2026-03-26T18:01:46Z</time></trkpt><trkpt lat="36.93001831664681" lon="15.063546287253017"><ele>325.0</ele><time>2026-03-26T18:01:47Z</time></trkpt><trkpt lat="36.929890068556766" lon="15.063688435132155"><ele>325.0</ele><time>2026-03-26T18:01:48Z</time></trkpt><trkpt lat="36.92976731087521" lon="15.063824497564518"><ele>325.0</ele><time>2026-03-26T18:01:49Z</time></trkpt><trkpt lat="36.92965625143057" lon="15.063946723635327"><ele>325.0</ele><time>2026-03-26T18:01:50Z</time></trkpt><trkpt lat="36.929547645822375" lon="15.064063375945278"><ele>325.5</ele><time>2026-03-26T18:01:51Z</time></trkpt><trkpt lat="36.92943783707806" lon="15.064161165848722"><ele>326.0</ele><time>2026-03-26T18:01:52Z</time></trkpt><trkpt lat="36.929321951981606" lon="15.064216987243627"><ele>326.5</ele><time>2026-03-26T18:01:53Z</time></trkpt><trkpt lat="36.929201994171045" lon="15.064247911409195"><ele>327.0</ele><time>2026-03-26T18:01:54Z</time></trkpt><trkpt lat="36.92908226145243" lon="15.064230080232518"><ele>327.25</ele><time>2026-03-26T18:01:55Z</time></trkpt><trkpt lat="36.928952297233614" lon="15.064210347719674"><ele>327.5</ele><time>2026-03-26T18:01:56Z</time></trkpt><trkpt lat="36.92883381573949" lon="15.064197082787134"><ele>327.75</ele><time>2026-03-26T18:01:57Z</time></trkpt><trkpt lat="36.92870315045417" lon="15.064222429121127"><ele>328.0</ele><time>2026-03-26T18:01:58Z</time></trkpt><trkpt lat="36.92858654173662" lon="15.064303785859975"><ele>328.0</ele><time>2026-03-26T18:01:59Z</time></trkpt><trkpt lat="36.92847422366495" lon="15.064419871667875"><ele>328.0</ele><time>2026-03-26T18:02:00Z</time></trkpt><trkpt lat="36.92835820071902" lon="15.064542158006732"><ele>328.0</ele><time>2026-03-26T18:02:01Z</time></trkpt><trkpt lat="36.92824537542226" lon="15.064661141737949"><ele>328.0</ele><time>2026-03-26T18:02:02Z</time></trkpt><trkpt lat="36.92814147766747" lon="15.06476766274419"><ele>328.5</ele><time>2026-03-26T18:02:03Z</time></trkpt><trkpt lat="36.92804440521806" lon="15.064866746003352"><ele>329.0</ele><time>2026-03-26T18:02:04Z</time></trkpt><trkpt lat="36.92794899984256" lon="15.064957257912226"><ele>329.5</ele><time>2026-03-26T18:02:05Z</time></trkpt><trkpt lat="36.9278473920573" lon="15.06504398167694"><ele>330.0</ele><time>2026-03-26T18:02:06Z</time></trkpt><trkpt lat="36.92775518178564" lon="15.065106341770958"><ele>329.8</ele><time>2026-03-26T18:02:07Z</time></trkpt><trkpt lat="36.927674558783615" lon="15.065138479343963"><ele>329.6</ele><time>2026-03-26T18:02:08Z</time></trkpt><trkpt lat="36.92758962717367" lon="15.065123705836605"><ele>329.4</ele><time>2026-03-26T18:02:09Z</time></trkpt><trkpt lat="36.92749726213101" lon="15.065064401600601"><ele>329.2</ele><time>2026-03-26T18:02:10Z</time></trkpt><trkpt lat="36.92738850966325" lon="15.064979662359736"><ele>329.0</ele><time>2026-03-26T18:02:11Z</time></trkpt><trkpt lat="36.92730318330425" lon="15.064858873079348"><ele>327.5</ele><time>2026-03-26T18:02:12Z</time></trkpt><trkpt lat="36.927223002271205" lon="15.064754053535296"><ele>326.0</ele><time>2026-03-26T18:02:13Z</time></trkpt><trkpt lat="36.9271359956705" lon="15.064665637163394"><ele>324.5</ele><time>2026-03-26T18:02:14Z</time></trkpt><trkpt lat="36.92703541324294" lon="15.06456672483013"><ele>323.0</ele><time>2026-03-26T18:02:15Z</time></trkpt><trkpt lat="36.92688123739195" lon="15.064522143793457"><ele>323.0</ele><time>2026-03-26T18:02:16Z</time></trkpt><trkpt lat="36.926736292620575" lon="15.064499468310919"><ele>323.0</ele><time>2026-03-26T18:02:17Z</time></trkpt><trkpt lat="36.92660905631585" lon="15.064477768748633"><ele>323.0</ele><time>2026-03-26T18:02:18Z</time></trkpt><trkpt lat="36.926502924319536" lon="15.064471074720078"><ele>323.0</ele><time>2026-03-26T18:02:19Z</time></trkpt><trkpt lat="36.926357084937585" lon="15.064514948773487"><ele>321.0</ele><time>2026-03-26T18:02:20Z</time></trkpt><trkpt lat="36.926210491872844" lon="15.064592907239131"><ele>319.0</ele><time>2026-03-26T18:02:21Z</time></trkpt><trkpt lat="36.92607268302308" lon="15.064665961921905"><ele>317.0</ele><time>2026-03-26T18:02:22Z</time></trkpt><trkpt lat="36.925945143768445" lon="15.064730441254397"><ele>315.0</ele><time>2026-03-26T18:02:23Z</time></trkpt><trkpt lat="36.925826432220596" lon="15.06477553363875"><ele>313.0</ele><time>2026-03-26T18:02:24Z</time></trkpt><trkpt lat="36.92570476674004" lon="15.0647627610398"><ele>311.0</ele><time>2026-03-26T18:02:25Z</time></trkpt><trkpt lat="36.925556144997806" lon="15.064741600454987"><ele>309.0</ele><time>2026-03-26T18:02:26Z</time></trkpt><trkpt lat="36.92541860842839" lon="15.064714304240788"><ele>307.0</ele><time>2026-03-26T18:02:27Z</time></trkpt><trkpt lat="36.92527282304997" lon="15.064676603921628"><ele>307.0</ele><time>2026-03-26T18:02:28Z</time></trkpt><trkpt lat="36.925131706173666" lon="15.06460677741228"><ele>307.0</ele><time>2026-03-26T18:02:29Z</time></trkpt><trkpt lat="36.92498301632482" lon="15.06452192786512"><ele>307.0</ele><time>2026-03-26T18:02:30Z</time></trkpt><trkpt lat="36.92483108680544" lon="15.064443291191282"><ele>305.66666666666663</ele><time>2026-03-26T18:02:31Z</time></trkpt><trkpt lat="36.92467799807376" lon="15.064374360576181"><ele>304.3333333333333</ele><time>2026-03-26T18:02:32Z</time></trkpt><trkpt lat="36.92453189587481" lon="15.064309449342055"><ele>303.0</ele><time>2026-03-26T18:02:33Z</time></trkpt><trkpt lat="36.92438720995711" lon="15.064251846022799"><ele>303.0</ele><time>2026-03-26T18:02:34Z</time></trkpt><trkpt lat="36.92424257140231" lon="15.064203543142591"><ele>303.0</ele><time>2026-03-26T18:02:35Z</time></trkpt><trkpt lat="36.924097296375315" lon="15.064170744680169"><ele>303.0</ele><time>2026-03-26T18:02:36Z</time></trkpt><trkpt lat="36.923970088956374" lon="15.06415535904122"><ele>303.0</ele><time>2026-03-26T18:02:37Z</time></trkpt><trkpt lat="36.92384430127503" lon="15.06415326473353"><ele>302.75</ele><time>2026-03-26T18:02:38Z</time></trkpt><trkpt lat="36.923716901737485" lon="15.064171790672416"><ele>302.5</ele><time>2026-03-26T18:02:39Z</time></trkpt><trkpt lat="36.92357226257382" lon="15.064232783467332"><ele>302.25</ele><time>2026-03-26T18:02:40Z</time></trkpt><trkpt lat="36.92342397276453" lon="15.06433215213838"><ele>302.0</ele><time>2026-03-26T18:02:41Z</time></trkpt><trkpt lat="36.92329564212706" lon="15.064423078756958"><ele>298.75</ele><time>2026-03-26T18:02:42Z</time></trkpt><trkpt lat="36.92317394057835" lon="15.064515423724243"><ele>295.5</ele><time>2026-03-26T18:02:43Z</time></trkpt><trkpt lat="36.92305069626713" lon="15.064608939266934"><ele>292.25</ele><time>2026-03-26T18:02:44Z</time></trkpt><trkpt lat="36.92292306526308" lon="15.064703108610278"><ele>289.0</ele><time>2026-03-26T18:02:45Z</time></trkpt><trkpt lat="36.92278949775039" lon="15.064801523021119"><ele>289.0</ele><time>2026-03-26T18:02:46Z</time></trkpt><trkpt lat="36.922652930566166" lon="15.064902215213158"><ele>289.0</ele><time>2026-03-26T18:02:47Z</time></trkpt><trkpt lat="36.922524091018424" lon="15.064997507482959"><ele>289.0</ele><time>2026-03-26T18:02:48Z</time></trkpt><trkpt lat="36.922401263604144" lon="15.065088353959831"><ele>289.25</ele><time>2026-03-26T18:02:49Z</time></trkpt><trkpt lat="36.922279036083275" lon="15.065183716453957"><ele>289.5</ele><time>2026-03-26T18:02:50Z</time></trkpt><trkpt lat="36.922160056395576" lon="15.065276206899302"><ele>289.75</ele><time>2026-03-26T18:02:51Z</time></trkpt><trkpt lat="36.92204758372096" lon="15.065363054331902"><ele>290.0</ele><time>2026-03-26T18:02:52Z</time></trkpt><trkpt lat="36.921951488886506" lon="15.065437255267636"><ele>290.0</ele><time>2026-03-26T18:02:53Z</time></trkpt><trkpt lat="36.92186751004411" lon="15.065513534549225"><ele>290.0</ele><time>2026-03-26T18:02:54Z</time></trkpt><trkpt lat="36.92180362330103" lon="15.06563563616787"><ele>290.0</ele><time>2026-03-26T18:02:55Z</time></trkpt><trkpt lat="36.921764886230555" lon="15.065747144374653"><ele>290.0</ele><time>2026-03-26T18:02:56Z</time></trkpt><trkpt lat="36.92173314166295" lon="15.06581890076123"><ele>290.0</ele><time>2026-03-26T18:02:57Z</time></trkpt><trkpt lat="36.92162907442884" lon="15.065867796527192"><ele>289.8</ele><time>2026-03-26T18:02:59Z</time></trkpt><trkpt lat="36.921549441328224" lon="15.065856677427629"><ele>289.6</ele><time>2026-03-26T18:03:00Z</time></trkpt><trkpt lat="36.92147327217062" lon="15.065802097081122"><ele>289.4</ele><time>2026-03-26T18:03:01Z</time></trkpt><trkpt lat="36.921404204799266" lon="15.06575446891775"><ele>289.2</ele><time>2026-03-26T18:03:02Z</time></trkpt><trkpt lat="36.92130069021608" lon="15.065740027893078"><ele>289.0</ele><time>2026-03-26T18:03:03Z</time></trkpt><trkpt lat="36.92117227132843" lon="15.065796269063508"><ele>289.0</ele><time>2026-03-26T18:03:04Z</time></trkpt><trkpt lat="36.92103885655989" lon="15.065861284294048"><ele>289.0</ele><time>2026-03-26T18:03:05Z</time></trkpt><trkpt lat="36.920913557442816" lon="15.0659050417553"><ele>289.0</ele><time>2026-03-26T18:03:06Z</time></trkpt><trkpt lat="36.920791166306245" lon="15.065912838254489"><ele>289.0</ele><time>2026-03-26T18:03:07Z</time></trkpt><trkpt lat="36.92070559734822" lon="15.06585647964702"><ele>285.75</ele><time>2026-03-26T18:03:08Z</time></trkpt><trkpt lat="36.92062522097016" lon="15.065806038778698"><ele>282.5</ele><time>2026-03-26T18:03:09Z</time></trkpt><trkpt lat="36.92052483423973" lon="15.065758055882064"><ele>279.25</ele><time>2026-03-26T18:03:10Z</time></trkpt><trkpt lat="36.92040037155401" lon="15.065756072752338"><ele>276.0</ele><time>2026-03-26T18:03:11Z</time></trkpt><trkpt lat="36.920263324513684" lon="15.065779185593222"><ele>276.0</ele><time>2026-03-26T18:03:12Z</time></trkpt><trkpt lat="36.92011598707778" lon="15.065798487816696"><ele>276.0</ele><time>2026-03-26T18:03:13Z</time></trkpt><trkpt lat="36.91997114189031" lon="15.065819801301354"><ele>276.0</ele><time>2026-03-26T18:03:14Z</time></trkpt><trkpt lat="36.91982891847218" lon="15.06584824697436"><ele>276.0</ele><time>2026-03-26T18:03:15Z</time></trkpt><trkpt lat="36.919700967137224" lon="15.065885206682909"><ele>274.75</ele><time>2026-03-26T18:03:16Z</time></trkpt><trkpt lat="36.91957869946605" lon="15.065909111639916"><ele>273.5</ele><time>2026-03-26T18:03:17Z</time></trkpt><trkpt lat="36.91945905333219" lon="15.065887063958858"><ele>272.25</ele><time>2026-03-26T18:03:18Z</time></trkpt><trkpt lat="36.91933177099689" lon="15.065821533783094"><ele>271.0</ele><time>2026-03-26T18:03:18.999Z</time></trkpt><trkpt lat="36.91918621763926" lon="15.065735495153952"><ele>266.0</ele><time>2026-03-26T18:03:19.999Z</time></trkpt><trkpt lat="36.919042645654564" lon="15.065652924054824"><ele>261.0</ele><time>2026-03-26T18:03:20.999Z</time></trkpt><trkpt lat="36.918912308268226" lon="15.06557796445945"><ele>256.0</ele><time>2026-03-26T18:03:21.999Z</time></trkpt><trkpt lat="36.91878124948011" lon="15.065522666590615"><ele>251.0</ele><time>2026-03-26T18:03:22.999Z</time></trkpt><trkpt lat="36.91866697652561" lon="15.065437883152743"><ele>251.0</ele><time>2026-03-26T18:03:23.999Z</time></trkpt><trkpt lat="36.91852716765811" lon="15.065384458821978"><ele>251.0</ele><time>2026-03-26T18:03:24.999Z</time></trkpt><trkpt lat="36.91835787327597" lon="15.065374601876286"><ele>251.0</ele><time>2026-03-26T18:03:25.999Z</time></trkpt><trkpt lat="36.91817704341007" lon="15.065367063682444"><ele>252.0</ele><time>2026-03-26T18:03:26.999Z</time></trkpt><trkpt lat="36.91799198898988" lon="15.065379318350297"><ele>253.0</ele><time>2026-03-26T18:03:27.999Z</time></trkpt><trkpt lat="36.917819794456314" lon="15.065394562288978"><ele>254.0</ele><time>2026-03-26T18:03:29Z</time></trkpt><trkpt lat="36.91765847030451" lon="15.065399619332261"><ele>250.33333333333334</ele><time>2026-03-26T18:03:30Z</time></trkpt><trkpt lat="36.91750588077207" lon="15.065404401348216"><ele>246.66666666666669</ele><time>2026-03-26T18:03:31Z</time></trkpt><trkpt lat="36.917358454421446" lon="15.065404063543218"><ele>243.0</ele><time>2026-03-26T18:03:32Z</time></trkpt><trkpt lat="36.91720671905556" lon="15.065388719073937"><ele>243.0</ele><time>2026-03-26T18:03:33Z</time></trkpt><trkpt lat="36.91705834220292" lon="15.065349390428416"><ele>243.0</ele><time>2026-03-26T18:03:34Z</time></trkpt><trkpt lat="36.91691792326114" lon="15.065296643518566"><ele>243.0</ele><time>2026-03-26T18:03:35Z</time></trkpt><trkpt lat="36.91677014988884" lon="15.06522814656015"><ele>245.33333333333331</ele><time>2026-03-26T18:03:36Z</time></trkpt><trkpt lat="36.91661926106043" lon="15.065154603121158"><ele>247.66666666666666</ele><time>2026-03-26T18:03:37Z</time></trkpt><trkpt lat="36.91647158325849" lon="15.065082034790628"><ele>250.0</ele><time>2026-03-26T18:03:38Z</time></trkpt><trkpt lat="36.916329412397495" lon="15.065011824713613"><ele>250.0</ele><time>2026-03-26T18:03:39Z</time></trkpt><trkpt lat="36.91617614503541" lon="15.064951653944602"><ele>250.0</ele><time>2026-03-26T18:03:40Z</time></trkpt><trkpt lat="36.91601033445765" lon="15.064903843706377"><ele>250.0</ele><time>2026-03-26T18:03:41Z</time></trkpt><trkpt lat="36.915845628432514" lon="15.064869771412994"><ele>241.33333333333331</ele><time>2026-03-26T18:03:42Z</time></trkpt><trkpt lat="36.915685804278645" lon="15.064848638873006"><ele>232.66666666666669</ele><time>2026-03-26T18:03:43Z</time></trkpt><trkpt lat="36.91553685150646" lon="15.064842157051562"><ele>224.0</ele><time>2026-03-26T18:03:44Z</time></trkpt><trkpt lat="36.91538756788682" lon="15.064849087338507"><ele>224.0</ele><time>2026-03-26T18:03:45Z</time></trkpt><trkpt lat="36.91523624477523" lon="15.064880048526462"><ele>224.0</ele><time>2026-03-26T18:03:46Z</time></trkpt><trkpt lat="36.915082969954454" lon="15.064937441307448"><ele>224.0</ele><time>2026-03-26T18:03:47Z</time></trkpt><trkpt lat="36.914931526310745" lon="15.064996376767747"><ele>228.25</ele><time>2026-03-26T18:03:48Z</time></trkpt><trkpt lat="36.91479377340641" lon="15.06504081037791"><ele>232.5</ele><time>2026-03-26T18:03:49Z</time></trkpt><trkpt lat="36.91465284845602" lon="15.065051252418542"><ele>236.75</ele><time>2026-03-26T18:03:50Z</time></trkpt><trkpt lat="36.914491697525456" lon="15.065056578916247"><ele>241.0</ele><time>2026-03-26T18:03:51Z</time></trkpt><trkpt lat="36.914342294337914" lon="15.065055700554018"><ele>240.0</ele><time>2026-03-26T18:03:52Z</time></trkpt><trkpt lat="36.91419741815426" lon="15.065047978924866"><ele>239.0</ele><time>2026-03-26T18:03:53Z</time></trkpt><trkpt lat="36.91405794489712" lon="15.065002156972467"><ele>238.0</ele><time>2026-03-26T18:03:54Z</time></trkpt><trkpt lat="36.91392894341174" lon="15.06493574580542"><ele>237.0</ele><time>2026-03-26T18:03:55Z</time></trkpt><trkpt lat="36.913811706713325" lon="15.064865988140257"><ele>231.5</ele><time>2026-03-26T18:03:56Z</time></trkpt><trkpt lat="36.91370050362212" lon="15.064802767618822"><ele>226.0</ele><time>2026-03-26T18:03:57Z</time></trkpt><trkpt lat="36.91357065523177" lon="15.06474900793887"><ele>220.5</ele><time>2026-03-26T18:03:58Z</time></trkpt><trkpt lat="36.913426339745534" lon="15.06472387557795"><ele>215.0</ele><time>2026-03-26T18:03:59Z</time></trkpt><trkpt lat="36.913276778101" lon="15.064719447068173"><ele>215.0</ele><time>2026-03-26T18:04:00Z</time></trkpt><trkpt lat="36.91312152133254" lon="15.06474183143188"><ele>215.0</ele><time>2026-03-26T18:04:01Z</time></trkpt><trkpt lat="36.91298023580754" lon="15.064791324192447"><ele>215.0</ele><time>2026-03-26T18:04:02Z</time></trkpt><trkpt lat="36.912850634454735" lon="15.064838347260839"><ele>215.0</ele><time>2026-03-26T18:04:03Z</time></trkpt><trkpt lat="36.91272833440759" lon="15.064885663397996"><ele>216.75</ele><time>2026-03-26T18:04:04Z</time></trkpt><trkpt lat="36.912605452625144" lon="15.064960027432488"><ele>218.5</ele><time>2026-03-26T18:04:05Z</time></trkpt><trkpt lat="36.912487302934686" lon="15.06507408704796"><ele>220.25</ele><time>2026-03-26T18:04:06Z</time></trkpt><trkpt lat="36.91238415325511" lon="15.0651999922695"><ele>222.0</ele><time>2026-03-26T18:04:07Z</time></trkpt><trkpt lat="36.91228640547809" lon="15.065325507585445"><ele>222.0</ele><time>2026-03-26T18:04:08Z</time></trkpt><trkpt lat="36.9121878146776" lon="15.065469739021237"><ele>222.0</ele><time>2026-03-26T18:04:09Z</time></trkpt><trkpt lat="36.91208546274482" lon="15.065616357595603"><ele>222.0</ele><time>2026-03-26T18:04:10Z</time></trkpt><trkpt lat="36.91197340940722" lon="15.065767303920111"><ele>219.33333333333331</ele><time>2026-03-26T18:04:11Z</time></trkpt><trkpt lat="36.911850338626756" lon="15.065911625134968"><ele>216.66666666666666</ele><time>2026-03-26T18:04:12Z</time></trkpt><trkpt lat="36.91171225135956" lon="15.066035881068673"><ele>214.0</ele><time>2026-03-26T18:04:13Z</time></trkpt><trkpt lat="36.911568196293686" lon="15.066146438921727"><ele>214.0</ele><time>2026-03-26T18:04:14Z</time></trkpt><trkpt lat="36.911428675275864" lon="15.066244175464847"><ele>214.0</ele><time>2026-03-26T18:04:15Z</time></trkpt><trkpt lat="36.911292996472135" lon="15.06633805260471"><ele>214.0</ele><time>2026-03-26T18:04:16Z</time></trkpt><trkpt lat="36.91116193775107" lon="15.066427206701913"><ele>214.0</ele><time>2026-03-26T18:04:17Z</time></trkpt><trkpt lat="36.91103573242305" lon="15.066512356023605"><ele>214.0</ele><time>2026-03-26T18:04:18Z</time></trkpt><trkpt lat="36.91091479559255" lon="15.06659942964135"><ele>214.0</ele><time>2026-03-26T18:04:19Z</time></trkpt><trkpt lat="36.91080116083649" lon="15.066683999114524"><ele>214.0</ele><time>2026-03-26T18:04:20Z</time></trkpt><trkpt lat="36.910690475913306" lon="15.066779014582938"><ele>213.66666666666666</ele><time>2026-03-26T18:04:21Z</time></trkpt><trkpt lat="36.91058046380181" lon="15.066909937760588"><ele>213.33333333333331</ele><time>2026-03-26T18:04:22Z</time></trkpt><trkpt lat="36.91048243861343" lon="15.067072916867877"><ele>213.0</ele><time>2026-03-26T18:04:23Z</time></trkpt><trkpt lat="36.910389659777934" lon="15.067230463643801"><ele>213.0</ele><time>2026-03-26T18:04:24Z</time></trkpt><trkpt lat="36.910303837494936" lon="15.067379153382184"><ele>213.0</ele><time>2026-03-26T18:04:25Z</time></trkpt><trkpt lat="36.91022135790187" lon="15.067521896428614"><ele>213.0</ele><time>2026-03-26T18:04:26Z</time></trkpt><trkpt lat="36.9101415269343" lon="15.067660055621817"><ele>213.0</ele><time>2026-03-26T18:04:27Z</time></trkpt><trkpt lat="36.91006392781704" lon="15.067783339753893"><ele>211.5</ele><time>2026-03-26T18:04:28Z</time></trkpt><trkpt lat="36.909969443007974" lon="15.067885947048037"><ele>210.0</ele><time>2026-03-26T18:04:29Z</time></trkpt><trkpt lat="36.90985599463103" lon="15.067965787898299"><ele>208.5</ele><time>2026-03-26T18:04:30Z</time></trkpt><trkpt lat="36.90972592309958" lon="15.068042799839478"><ele>207.0</ele><time>2026-03-26T18:04:31Z</time></trkpt><trkpt lat="36.9095868352463" lon="15.068120621812408"><ele>207.0</ele><time>2026-03-26T18:04:32Z</time></trkpt><trkpt lat="36.909448623364554" lon="15.068195360348136"><ele>207.0</ele><time>2026-03-26T18:04:33Z</time></trkpt><trkpt lat="36.90931349683538" lon="15.068268896726686"><ele>207.0</ele><time>2026-03-26T18:04:34Z</time></trkpt><trkpt lat="36.90918160552027" lon="15.068342622504746"><ele>207.0</ele><time>2026-03-26T18:04:35Z</time></trkpt><trkpt lat="36.90905637631562" lon="15.068416651977884"><ele>206.5</ele><time>2026-03-26T18:04:36Z</time></trkpt><trkpt lat="36.90893730844041" lon="15.068487884136049"><ele>206.0</ele><time>2026-03-26T18:04:37Z</time></trkpt><trkpt lat="36.90881734625923" lon="15.06855726245942"><ele>205.5</ele><time>2026-03-26T18:04:38Z</time></trkpt><trkpt lat="36.90868897100253" lon="15.068621796047676"><ele>205.0</ele><time>2026-03-26T18:04:39Z</time></trkpt><trkpt lat="36.90854904117509" lon="15.068683436879448"><ele>202.0</ele><time>2026-03-26T18:04:40Z</time></trkpt><trkpt lat="36.90839439265661" lon="15.068738479835922"><ele>199.0</ele><time>2026-03-26T18:04:41Z</time></trkpt><trkpt lat="36.90823049212428" lon="15.068785166045346"><ele>196.0</ele><time>2026-03-26T18:04:42Z</time></trkpt><trkpt lat="36.90806822317394" lon="15.068823436363497"><ele>196.0</ele><time>2026-03-26T18:04:43Z</time></trkpt><trkpt lat="36.907923599587384" lon="15.06885443113086"><ele>196.0</ele><time>2026-03-26T18:04:44Z</time></trkpt><trkpt lat="36.90778641944559" lon="15.068883445012837"><ele>196.0</ele><time>2026-03-26T18:04:45Z</time></trkpt><trkpt lat="36.90764650926194" lon="15.068909844248175"><ele>196.0</ele><time>2026-03-26T18:04:46Z</time></trkpt><trkpt lat="36.90749720971316" lon="15.068936553676375"><ele>192.66666666666666</ele><time>2026-03-26T18:04:47Z</time></trkpt><trkpt lat="36.90733776418199" lon="15.068960996560595"><ele>189.33333333333331</ele><time>2026-03-26T18:04:48Z</time></trkpt><trkpt lat="36.90716521372595" lon="15.068981444779588"><ele>186.0</ele><time>2026-03-26T18:04:49Z</time></trkpt><trkpt lat="36.906992103311424" lon="15.06899526876224"><ele>186.0</ele><time>2026-03-26T18:04:50Z</time></trkpt><trkpt lat="36.90683102275508" lon="15.069005192786948"><ele>186.0</ele><time>2026-03-26T18:04:51Z</time></trkpt><trkpt lat="36.906671029241764" lon="15.069015049839978"><ele>186.0</ele><time>2026-03-26T18:04:52Z</time></trkpt><trkpt lat="36.90650499969417" lon="15.069025038712182"><ele>185.0</ele><time>2026-03-26T18:04:53Z</time></trkpt><trkpt lat="36.90633806670761" lon="15.069033942096777"><ele>184.0</ele><time>2026-03-26T18:04:54Z</time></trkpt><trkpt lat="36.9061647990121" lon="15.069038552140306"><ele>183.0</ele><time>2026-03-26T18:04:55Z</time></trkpt><trkpt lat="36.90598641490885" lon="15.06903424712081"><ele>183.33333333333334</ele><time>2026-03-26T18:04:56Z</time></trkpt><trkpt lat="36.905814410547215" lon="15.069016413276156"><ele>183.66666666666669</ele><time>2026-03-26T18:04:57Z</time></trkpt><trkpt lat="36.90565281630806" lon="15.069003179693144"><ele>184.0</ele><time>2026-03-26T18:04:58Z</time></trkpt><trkpt lat="36.905498117777945" lon="15.068992772874173"><ele>184.0</ele><time>2026-03-26T18:04:59Z</time></trkpt><trkpt lat="36.905346408928985" lon="15.068983201475419"><ele>184.0</ele><time>2026-03-26T18:05:00Z</time></trkpt><trkpt lat="36.90519655445" lon="15.068974222683273"><ele>184.0</ele><time>2026-03-26T18:05:01Z</time></trkpt><trkpt lat="36.90505407146608" lon="15.068967965197201"><ele>184.0</ele><time>2026-03-26T18:05:02Z</time></trkpt><trkpt lat="36.904916415513725" lon="15.068964457560691"><ele>182.75</ele><time>2026-03-26T18:05:03Z</time></trkpt><trkpt lat="36.904785760192766" lon="15.068961128310589"><ele>181.5</ele><time>2026-03-26T18:05:04Z</time></trkpt><trkpt lat="36.90465495546591" lon="15.068952564513737"><ele>180.25</ele><time>2026-03-26T18:05:05Z</time></trkpt><trkpt lat="36.90451610697039" lon="15.068932079376967"><ele>179.0</ele><time>2026-03-26T18:05:06Z</time></trkpt><trkpt lat="36.90437830628298" lon="15.068878651767612"><ele>178.33333333333331</ele><time>2026-03-26T18:05:07Z</time></trkpt><trkpt lat="36.904230988117796" lon="15.068835560160897"><ele>177.66666666666666</ele><time>2026-03-26T18:05:08Z</time></trkpt><trkpt lat="36.90408787758816" lon="15.068758212175128"><ele>177.0</ele><time>2026-03-26T18:05:09Z</time></trkpt><trkpt lat="36.903944491937615" lon="15.068685592663954"><ele>177.0</ele><time>2026-03-26T18:05:10Z</time></trkpt><trkpt lat="36.90380912554692" lon="15.068620118379952"><ele>177.0</ele><time>2026-03-26T18:05:11Z</time></trkpt><trkpt lat="36.90368289154208" lon="15.068563369294353"><ele>177.0</ele><time>2026-03-26T18:05:12Z</time></trkpt><trkpt lat="36.90357330468196" lon="15.068467960706705"><ele>177.0</ele><time>2026-03-26T18:05:13Z</time></trkpt><trkpt lat="36.90345634665644" lon="15.068410254625269"><ele>177.25</ele><time>2026-03-26T18:05:14Z</time></trkpt><trkpt lat="36.90333490781407" lon="15.06835151043711"><ele>177.5</ele><time>2026-03-26T18:05:15Z</time></trkpt><trkpt lat="36.903200545019615" lon="15.068284982794916"><ele>177.75</ele><time>2026-03-26T18:05:16Z</time></trkpt><trkpt lat="36.90305941175824" lon="15.068215120976356"><ele>178.0</ele><time>2026-03-26T18:05:17Z</time></trkpt><trkpt lat="36.90291924853226" lon="15.06814573885351"><ele>178.0</ele><time>2026-03-26T18:05:18Z</time></trkpt><trkpt lat="36.90277915509376" lon="15.068108575353182"><ele>178.0</ele><time>2026-03-26T18:05:19Z</time></trkpt><trkpt lat="36.90266437294591" lon="15.06805177971127"><ele>178.0</ele><time>2026-03-26T18:05:20Z</time></trkpt><trkpt lat="36.90255821730127" lon="15.068006120554776"><ele>178.0</ele><time>2026-03-26T18:05:21Z</time></trkpt><trkpt lat="36.90245203450087" lon="15.067961266950759"><ele>178.25</ele><time>2026-03-26T18:05:22Z</time></trkpt><trkpt lat="36.90233945319237" lon="15.0678892173459"><ele>178.5</ele><time>2026-03-26T18:05:22.999Z</time></trkpt><trkpt lat="36.90219716447195" lon="15.067878860417288"><ele>178.75</ele><time>2026-03-26T18:05:23.999Z</time></trkpt><trkpt lat="36.9020538341377" lon="15.067899989651705"><ele>179.0</ele><time>2026-03-26T18:05:24.999Z</time></trkpt><trkpt lat="36.90191312875963" lon="15.067923385624045"><ele>179.0</ele><time>2026-03-26T18:05:25.999Z</time></trkpt><trkpt lat="36.901784189275276" lon="15.06795664572253"><ele>179.0</ele><time>2026-03-26T18:05:26.999Z</time></trkpt><trkpt lat="36.90166997741124" lon="15.06798371102165"><ele>179.0</ele><time>2026-03-26T18:05:27.999Z</time></trkpt><trkpt lat="36.90155638193115" lon="15.068012889697174"><ele>179.0</ele><time>2026-03-26T18:05:28.999Z</time></trkpt><trkpt lat="36.90143864209427" lon="15.068040565469163"><ele>178.79999999999998</ele><time>2026-03-26T18:05:29.999Z</time></trkpt><trkpt lat="36.901331060760526" lon="15.068067865344572"><ele>178.6</ele><time>2026-03-26T18:05:30.999Z</time></trkpt><trkpt lat="36.901234484185885" lon="15.068093576202507"><ele>178.4</ele><time>2026-03-26T18:05:31.999Z</time></trkpt><trkpt lat="36.90115433220867" lon="15.06811532439992"><ele>178.2</ele><time>2026-03-26T18:05:32.999Z</time></trkpt><trkpt lat="36.90109260102181" lon="15.068132074358193"><ele>178.0</ele><time>2026-03-26T18:05:33.999Z</time></trkpt><trkpt lat="36.90098709633611" lon="15.068152937575574"><ele>177.75</ele><time>2026-03-26T18:05:36Z</time></trkpt><trkpt lat="36.90087241736533" lon="15.068257682740022"><ele>177.5</ele><time>2026-03-26T18:05:38Z</time></trkpt><trkpt lat="36.90077775052141" lon="15.068355711286012"><ele>177.25</ele><time>2026-03-26T18:05:39Z</time></trkpt><trkpt lat="36.90065656507282" lon="15.068443262507305"><ele>177.0</ele><time>2026-03-26T18:05:40Z</time></trkpt><trkpt lat="36.90052917730743" lon="15.068532315792552"><ele>177.0</ele><time>2026-03-26T18:05:41Z</time></trkpt><trkpt lat="36.90039800034157" lon="15.06864429984011"><ele>177.0</ele><time>2026-03-26T18:05:42Z</time></trkpt><trkpt lat="36.90026846579084" lon="15.068779890241238"><ele>177.0</ele><time>2026-03-26T18:05:43Z</time></trkpt><trkpt lat="36.90012994732209" lon="15.068915489079307"><ele>177.0</ele><time>2026-03-26T18:05:44Z</time></trkpt><trkpt lat="36.89999868857249" lon="15.069066731257712"><ele>177.0</ele><time>2026-03-26T18:05:45Z</time></trkpt><trkpt lat="36.89986063091452" lon="15.069226283638546"><ele>177.0</ele><time>2026-03-26T18:05:46Z</time></trkpt><trkpt lat="36.89971981900765" lon="15.069390346004882"><ele>177.66666666666666</ele><time>2026-03-26T18:05:47Z</time></trkpt><trkpt lat="36.89957582665524" lon="15.069558113913716"><ele>178.33333333333331</ele><time>2026-03-26T18:05:48Z</time></trkpt><trkpt lat="36.899441445903676" lon="15.069713729654351"><ele>179.0</ele><time>2026-03-26T18:05:49Z</time></trkpt><trkpt lat="36.89931569483669" lon="15.069856700416233"><ele>178.75</ele><time>2026-03-26T18:05:50Z</time></trkpt><trkpt lat="36.89919951588675" lon="15.069988910146815"><ele>178.5</ele><time>2026-03-26T18:05:51Z</time></trkpt><trkpt lat="36.89909739154877" lon="15.0701072454968"><ele>178.25</ele><time>2026-03-26T18:05:52Z</time></trkpt><trkpt lat="36.899009386384876" lon="15.070209220545065"><ele>178.0</ele><time>2026-03-26T18:05:53Z</time></trkpt><trkpt lat="36.89892971124059" lon="15.070303029068569"><ele>178.0</ele><time>2026-03-26T18:05:54Z</time></trkpt><trkpt lat="36.89885132548171" lon="15.070395539195802"><ele>178.0</ele><time>2026-03-26T18:05:55Z</time></trkpt><trkpt lat="36.898775440247604" lon="15.07048357079487"><ele>178.0</ele><time>2026-03-26T18:05:56Z</time></trkpt><trkpt lat="36.89870419100389" lon="15.070564439495035"><ele>178.0</ele><time>2026-03-26T18:05:57Z</time></trkpt><trkpt lat="36.89863587014142" lon="15.070641984559607"><ele>178.0</ele><time>2026-03-26T18:05:58Z</time></trkpt><trkpt lat="36.898570806220555" lon="15.070716490948499"><ele>177.8</ele><time>2026-03-26T18:05:59Z</time></trkpt><trkpt lat="36.89851212254295" lon="15.070784062577816"><ele>177.60000000000002</ele><time>2026-03-26T18:06:00Z</time></trkpt><trkpt lat="36.89843246470022" lon="15.070875785059718"><ele>177.39999999999998</ele><time>2026-03-26T18:06:02Z</time></trkpt><trkpt lat="36.89835547450001" lon="15.070964438986286"><ele>177.2</ele><time>2026-03-26T18:06:04Z</time></trkpt><trkpt lat="36.89826691420177" lon="15.071066932023825"><ele>177.0</ele><time>2026-03-26T18:06:06Z</time></trkpt><trkpt lat="36.898213266483374" lon="15.071129845113362"><ele>177.0</ele><time>2026-03-26T18:06:07Z</time></trkpt><trkpt lat="36.89815596501478" lon="15.071196684082262"><ele>177.0</ele><time>2026-03-26T18:06:08Z</time></trkpt><trkpt lat="36.89809347768439" lon="15.071270327152513"><ele>177.0</ele><time>2026-03-26T18:06:09Z</time></trkpt><trkpt lat="36.898026545760814" lon="15.071345105589335"><ele>177.0</ele><time>2026-03-26T18:06:10Z</time></trkpt><trkpt lat="36.89796917208002" lon="15.071410309934919"><ele>177.0</ele><time>2026-03-26T18:06:11Z</time></trkpt><trkpt lat="36.89791571577254" lon="15.071471062228017"><ele>177.0</ele><time>2026-03-26T18:06:12Z</time></trkpt><trkpt lat="36.897870841247" lon="15.071548376104724"><ele>177.0</ele><time>2026-03-26T18:06:13Z</time></trkpt><trkpt lat="36.89779329924226" lon="15.071610429385661"><ele>177.0</ele><time>2026-03-26T18:06:14Z</time></trkpt><trkpt lat="36.8977210400081" lon="15.071720221457683"><ele>177.0</ele><time>2026-03-26T18:06:15Z</time></trkpt><trkpt lat="36.897622003458046" lon="15.071806619962915"><ele>177.0</ele><time>2026-03-26T18:06:16Z</time></trkpt><trkpt lat="36.89754486106765" lon="15.071919977154426"><ele>177.0</ele><time>2026-03-26T18:06:17Z</time></trkpt><trkpt lat="36.89746613738005" lon="15.072011188411926"><ele>176.25</ele><time>2026-03-26T18:06:18Z</time></trkpt><trkpt lat="36.89737687320197" lon="15.072086832576936"><ele>175.5</ele><time>2026-03-26T18:06:19Z</time></trkpt><trkpt lat="36.89729488649228" lon="15.072179967441684"><ele>174.75</ele><time>2026-03-26T18:06:20Z</time></trkpt><trkpt lat="36.897210233928924" lon="15.072276130638382"><ele>174.0</ele><time>2026-03-26T18:06:21Z</time></trkpt><trkpt lat="36.897121085397096" lon="15.07237902267259"><ele>173.25</ele><time>2026-03-26T18:06:22Z</time></trkpt><trkpt lat="36.897042949298104" lon="15.072497732239086"><ele>172.5</ele><time>2026-03-26T18:06:23Z</time></trkpt><trkpt lat="36.89698925523845" lon="15.072646232531568"><ele>171.75</ele><time>2026-03-26T18:06:24Z</time></trkpt><trkpt lat="36.89694572573887" lon="15.072776291023242"><ele>171.0</ele><time>2026-03-26T18:06:25Z</time></trkpt><trkpt lat="36.8969026668349" lon="15.072896501147756"><ele>171.0</ele><time>2026-03-26T18:06:26Z</time></trkpt><trkpt lat="36.89685803229582" lon="15.07302022407467"><ele>171.0</ele><time>2026-03-26T18:06:27Z</time></trkpt><trkpt lat="36.89681109706051" lon="15.073150322995112"><ele>171.0</ele><time>2026-03-26T18:06:28Z</time></trkpt><trkpt lat="36.896761088604975" lon="15.073286307694977"><ele>171.0</ele><time>2026-03-26T18:06:29Z</time></trkpt><trkpt lat="36.89671664797226" lon="15.07340988276146"><ele>171.4</ele><time>2026-03-26T18:06:30Z</time></trkpt><trkpt lat="36.89667518666334" lon="15.073520905670929"><ele>171.8</ele><time>2026-03-26T18:06:31Z</time></trkpt><trkpt lat="36.89663649221252" lon="15.073624859209358"><ele>172.20000000000002</ele><time>2026-03-26T18:06:32Z</time></trkpt><trkpt lat="36.89658961920014" lon="15.073734639450564"><ele>172.60000000000002</ele><time>2026-03-26T18:06:33Z</time></trkpt><trkpt lat="36.89653898780119" lon="15.073844191175414"><ele>173.0</ele><time>2026-03-26T18:06:34Z</time></trkpt><trkpt lat="36.89647558026616" lon="15.073943788427218"><ele>173.0</ele><time>2026-03-26T18:06:35Z</time></trkpt><trkpt lat="36.89641719092573" lon="15.074041062083259"><ele>173.0</ele><time>2026-03-26T18:06:36Z</time></trkpt><trkpt lat="36.89637375515328" lon="15.074112252128337"><ele>173.0</ele><time>2026-03-26T18:06:37Z</time></trkpt><trkpt lat="36.89632318731094" lon="15.074192683096529"><ele>173.0</ele><time>2026-03-26T18:06:38Z</time></trkpt><trkpt lat="36.89626411161562" lon="15.07428649309432"><ele>173.0</ele><time>2026-03-26T18:06:39Z</time></trkpt><trkpt lat="36.89621304410445" lon="15.074368284131477"><ele>173.0</ele><time>2026-03-26T18:06:40Z</time></trkpt><trkpt lat="36.89617093922431" lon="15.074439289420795"><ele>171.60000000000002</ele><time>2026-03-26T18:06:41Z</time></trkpt><trkpt lat="36.89613182019425" lon="15.074509116598193"><ele>170.20000000000002</ele><time>2026-03-26T18:06:42Z</time></trkpt><trkpt lat="36.89605873652585" lon="15.074653905276667"><ele>168.8</ele><time>2026-03-26T18:06:44Z</time></trkpt><trkpt lat="36.896018779795945" lon="15.074749512525921"><ele>167.4</ele><time>2026-03-26T18:06:45Z</time></trkpt><trkpt lat="36.895988555773386" lon="15.074825598004603"><ele>166.0</ele><time>2026-03-26T18:06:46Z</time></trkpt><trkpt lat="36.89594550307822" lon="15.074939948804342"><ele>166.60000000000002</ele><time>2026-03-26T18:06:48Z</time></trkpt><trkpt lat="36.89592842309213" lon="15.075029900815037"><ele>167.2</ele><time>2026-03-26T18:06:50Z</time></trkpt><trkpt lat="36.895836257134775" lon="15.075010167694195"><ele>167.8</ele><time>2026-03-26T18:06:52Z</time></trkpt><trkpt lat="36.89572924282287" lon="15.074976748404705"><ele>168.39999999999998</ele><time>2026-03-26T18:06:54Z</time></trkpt><trkpt lat="36.895664200959786" lon="15.074974569650564"><ele>169.0</ele><time>2026-03-26T18:06:55Z</time></trkpt><trkpt lat="36.89555825277788" lon="15.074920410365705"><ele>169.0</ele><time>2026-03-26T18:06:57Z</time></trkpt><trkpt lat="36.89545254720139" lon="15.074881372379282"><ele>169.0</ele><time>2026-03-26T18:06:59Z</time></trkpt><trkpt lat="36.89534321893613" lon="15.074852391608777"><ele>169.0</ele><time>2026-03-26T18:07:01Z</time></trkpt><trkpt lat="36.89526807752593" lon="15.074829458050814"><ele>169.0</ele><time>2026-03-26T18:07:02Z</time></trkpt><trkpt lat="36.8951543204734" lon="15.074793478212285"><ele>169.0</ele><time>2026-03-26T18:07:04Z</time></trkpt><trkpt lat="36.895058908284575" lon="15.07476215240324"><ele>169.0</ele><time>2026-03-26T18:07:06Z</time></trkpt><trkpt lat="36.894935731490285" lon="15.074740311066718"><ele>169.0</ele><time>2026-03-26T18:07:08Z</time></trkpt><trkpt lat="36.89486375457616" lon="15.074736000227299"><ele>169.0</ele><time>2026-03-26T18:07:09Z</time></trkpt><trkpt lat="36.894753954931225" lon="15.074703899281493"><ele>169.0</ele><time>2026-03-26T18:07:11Z</time></trkpt><trkpt lat="36.894662229295236" lon="15.07469660585043"><ele>169.0</ele><time>2026-03-26T18:07:13Z</time></trkpt><trkpt lat="36.894588319995755" lon="15.074710287542079"><ele>169.0</ele><time>2026-03-26T18:07:15Z</time></trkpt><trkpt lat="36.89451741763682" lon="15.074701570082661"><ele>169.0</ele><time>2026-03-26T18:07:18Z</time></trkpt><trkpt lat="36.89444907034308" lon="15.074703062162751"><ele>169.0</ele><time>2026-03-26T18:07:21Z</time></trkpt><trkpt lat="36.894436322288335" lon="15.074794294383233"><ele>169.0</ele><time>2026-03-26T18:07:23Z</time></trkpt><trkpt lat="36.89442641698351" lon="15.074876824190042"><ele>169.0</ele><time>2026-03-26T18:07:27Z</time></trkpt><trkpt lat="36.89427254506403" lon="15.074824538803389"><ele>169.0</ele><time>2026-03-26T18:07:29.999Z</time></trkpt><trkpt lat="36.894153079545646" lon="15.074775939622286"><ele>167.75</ele><time>2026-03-26T18:07:30.999Z</time></trkpt><trkpt lat="36.89400776325442" lon="15.074725202114962"><ele>166.5</ele><time>2026-03-26T18:07:31.999Z</time></trkpt><trkpt lat="36.89386479376065" lon="15.074679947806677"><ele>165.25</ele><time>2026-03-26T18:07:32.999Z</time></trkpt><trkpt lat="36.89374164388014" lon="15.074643668439188"><ele>164.0</ele><time>2026-03-26T18:07:33.999Z</time></trkpt><trkpt lat="36.893625673525875" lon="15.074611198522552"><ele>164.0</ele><time>2026-03-26T18:07:34.999Z</time></trkpt><trkpt lat="36.89351797753983" lon="15.074602613263297"><ele>164.0</ele><time>2026-03-26T18:07:35.999Z</time></trkpt><trkpt lat="36.893431323049796" lon="15.074576613217584"><ele>164.0</ele><time>2026-03-26T18:07:36.999Z</time></trkpt><trkpt lat="36.89337106160086" lon="15.074544995461164"><ele>164.0</ele><time>2026-03-26T18:07:37.999Z</time></trkpt><trkpt lat="36.89325778405857" lon="15.074552594479046"><ele>164.0</ele><time>2026-03-26T18:07:40Z</time></trkpt><trkpt lat="36.8932047364385" lon="15.07469514308563"><ele>161.79999999999998</ele><time>2026-03-26T18:07:42Z</time></trkpt><trkpt lat="36.89322863755118" lon="15.074784418934822"><ele>159.6</ele><time>2026-03-26T18:07:43Z</time></trkpt><trkpt lat="36.893305853781165" lon="15.07487169648772"><ele>157.4</ele><time>2026-03-26T18:07:44Z</time></trkpt><trkpt lat="36.89341091599835" lon="15.074950418844905"><ele>155.2</ele><time>2026-03-26T18:07:45Z</time></trkpt><trkpt lat="36.89351769140776" lon="15.075033926350008"><ele>153.0</ele><time>2026-03-26T18:07:46Z</time></trkpt><trkpt lat="36.89360962122871" lon="15.075111603223588"><ele>152.83333333333334</ele><time>2026-03-26T18:07:47Z</time></trkpt><trkpt lat="36.89369217711866" lon="15.07516437132695"><ele>152.66666666666666</ele><time>2026-03-26T18:07:48Z</time></trkpt><trkpt lat="36.89377557580547" lon="15.075185673583615"><ele>152.5</ele><time>2026-03-26T18:07:49Z</time></trkpt><trkpt lat="36.89385205027139" lon="15.075188121625887"><ele>152.33333333333331</ele><time>2026-03-26T18:07:50Z</time></trkpt><trkpt lat="36.89392144200769" lon="15.075189889420178"><ele>152.16666666666666</ele><time>2026-03-26T18:07:51Z</time></trkpt><trkpt lat="36.89398849093169" lon="15.075186561804921"><ele>152.0</ele><time>2026-03-26T18:07:52Z</time></trkpt><trkpt lat="36.89405713098347" lon="15.075188904088714"><ele>152.0</ele><time>2026-03-26T18:07:53Z</time></trkpt><trkpt lat="36.89417163829554" lon="15.075210819559336"><ele>152.0</ele><time>2026-03-26T18:07:55Z</time></trkpt><trkpt lat="36.89427218701848" lon="15.075243018093957"><ele>152.0</ele><time>2026-03-26T18:07:57Z</time></trkpt><trkpt lat="36.89434721736094" lon="15.075311819192372"><ele>152.0</ele><time>2026-03-26T18:07:59Z</time></trkpt><trkpt lat="36.89436956357241" lon="15.075411761705059"><ele>152.0</ele><time>2026-03-26T18:08:01Z</time></trkpt><trkpt lat="36.89430117914318" lon="15.075495813473184"><ele>152.0</ele><time>2026-03-26T18:08:03Z</time></trkpt><trkpt lat="36.89420229561411" lon="15.075419039821233"><ele>152.0</ele><time>2026-03-26T18:08:05Z</time></trkpt><trkpt lat="36.894080601503774" lon="15.075355422512954"><ele>152.0</ele><time>2026-03-26T18:08:07Z</time></trkpt><trkpt lat="36.89400001470576" lon="15.075344852193437"><ele>152.0</ele><time>2026-03-26T18:08:08Z</time></trkpt><trkpt lat="36.89392539907534" lon="15.075341944336353"><ele>152.0</ele><time>2026-03-26T18:08:09Z</time></trkpt><trkpt lat="36.893852761107865" lon="15.075341944334948"><ele>152.0</ele><time>2026-03-26T18:08:10Z</time></trkpt><trkpt lat="36.89377774030987" lon="15.075339768383818"><ele>152.0</ele><time>2026-03-26T18:08:11Z</time></trkpt><trkpt lat="36.89367456290763" lon="15.075333010656575"><ele>152.0</ele><time>2026-03-26T18:08:13Z</time></trkpt><trkpt lat="36.893612122641" lon="15.075347939722286"><ele>152.0</ele><time>2026-03-26T18:08:16Z</time></trkpt><trkpt lat="36.8935475163283" lon="15.075341967470509"><ele>152.0</ele><time>2026-03-26T18:08:19Z</time></trkpt><trkpt lat="36.89347926996236" lon="15.075335731998164"><ele>152.0</ele><time>2026-03-26T18:08:22Z</time></trkpt><trkpt lat="36.89337043979422" lon="15.075323541489501"><ele>150.4</ele><time>2026-03-26T18:08:25Z</time></trkpt><trkpt lat="36.89326770934413" lon="15.075342612129507"><ele>148.79999999999998</ele><time>2026-03-26T18:08:27Z</time></trkpt><trkpt lat="36.893167986513255" lon="15.075391426158799"><ele>147.2</ele><time>2026-03-26T18:08:29Z</time></trkpt><trkpt lat="36.893066313020874" lon="15.075398103499008"><ele>145.6</ele><time>2026-03-26T18:08:30Z</time></trkpt><trkpt lat="36.89296515213909" lon="15.075423970333043"><ele>144.0</ele><time>2026-03-26T18:08:31Z</time></trkpt><trkpt lat="36.89285018546917" lon="15.075453367286327"><ele>144.0</ele><time>2026-03-26T18:08:32Z</time></trkpt><trkpt lat="36.89273948014338" lon="15.075478872664114"><ele>144.0</ele><time>2026-03-26T18:08:33Z</time></trkpt><trkpt lat="36.89264540025905" lon="15.075492066827628"><ele>144.0</ele><time>2026-03-26T18:08:34Z</time></trkpt><trkpt lat="36.892564513347914" lon="15.07548399298273"><ele>144.0</ele><time>2026-03-26T18:08:35Z</time></trkpt><trkpt lat="36.892488341581924" lon="15.075450251796559"><ele>144.0</ele><time>2026-03-26T18:08:36Z</time></trkpt><trkpt lat="36.892404691771745" lon="15.075390209382848"><ele>142.33333333333334</ele><time>2026-03-26T18:08:37Z</time></trkpt><trkpt lat="36.892313512460674" lon="15.075340587522113"><ele>140.66666666666666</ele><time>2026-03-26T18:08:38Z</time></trkpt><trkpt lat="36.89222979978741" lon="15.075270640893791"><ele>139.0</ele><time>2026-03-26T18:08:39Z</time></trkpt><trkpt lat="36.892163462663916" lon="15.075195199064922"><ele>137.33333333333331</ele><time>2026-03-26T18:08:40Z</time></trkpt><trkpt lat="36.892112925451926" lon="15.075131643504008"><ele>135.66666666666666</ele><time>2026-03-26T18:08:41Z</time></trkpt><trkpt lat="36.89205352132038" lon="15.07506163489694"><ele>134.0</ele><time>2026-03-26T18:08:43Z</time></trkpt><trkpt lat="36.89194963458898" lon="15.07518130868516"><ele>134.0</ele><time>2026-03-26T18:08:46Z</time></trkpt><trkpt lat="36.89191456010076" lon="15.075304082333076"><ele>134.0</ele><time>2026-03-26T18:08:47Z</time></trkpt><trkpt lat="36.891869346422006" lon="15.07540080608463"><ele>134.0</ele><time>2026-03-26T18:08:48Z</time></trkpt><trkpt lat="36.89183347235939" lon="15.075487798019005"><ele>134.0</ele><time>2026-03-26T18:08:49Z</time></trkpt><trkpt lat="36.891796704191435" lon="15.075570305877795"><ele>134.0</ele><time>2026-03-26T18:08:50Z</time></trkpt><trkpt lat="36.89176605406661" lon="15.075641118951463"><ele>134.0</ele><time>2026-03-26T18:08:51Z</time></trkpt><trkpt lat="36.89171178349227" lon="15.075745324717278"><ele>130.75</ele><time>2026-03-26T18:08:53Z</time></trkpt><trkpt lat="36.89165406413489" lon="15.075805399833182"><ele>127.5</ele><time>2026-03-26T18:08:56Z</time></trkpt><trkpt lat="36.89184671772488" lon="15.075912000943474"><ele>124.25</ele><time>2026-03-26T18:08:58Z</time></trkpt><trkpt lat="36.89193015687104" lon="15.075966362530071"><ele>121.0</ele><time>2026-03-26T18:08:59Z</time></trkpt><trkpt lat="36.89200764620326" lon="15.076067278944329"><ele>121.00000000000001</ele><time>2026-03-26T18:09:00Z</time></trkpt><trkpt lat="36.89205953201737" lon="15.076162221805967"><ele>121.0</ele><time>2026-03-26T18:09:01Z</time></trkpt><trkpt lat="36.89211017428356" lon="15.07624889874854"><ele>121.0</ele><time>2026-03-26T18:09:02Z</time></trkpt><trkpt lat="36.89215847591597" lon="15.076328450108555"><ele>121.0</ele><time>2026-03-26T18:09:03Z</time></trkpt><trkpt lat="36.89221579191472" lon="15.076397688565592"><ele>121.00000000000001</ele><time>2026-03-26T18:09:04Z</time></trkpt><trkpt lat="36.89228957393501" lon="15.076451078493173"><ele>121.0</ele><time>2026-03-26T18:09:05Z</time></trkpt><trkpt lat="36.89238189031737" lon="15.07647993023939"><ele>121.0</ele><time>2026-03-26T18:09:06Z</time></trkpt><trkpt lat="36.89250352747326" lon="15.076489329641973"><ele>121.0</ele><time>2026-03-26T18:09:07Z</time></trkpt><trkpt lat="36.89262500940088" lon="15.076506438583072"><ele>121.0</ele><time>2026-03-26T18:09:08Z</time></trkpt><trkpt lat="36.89274049088625" lon="15.076527018385837"><ele>121.0</ele><time>2026-03-26T18:09:09Z</time></trkpt><trkpt lat="36.89284679013374" lon="15.07654195186793"><ele>121.8</ele><time>2026-03-26T18:09:10Z</time></trkpt><trkpt lat="36.892942472683494" lon="15.07655855359468"><ele>122.6</ele><time>2026-03-26T18:09:11Z</time></trkpt><trkpt lat="36.893034541467976" lon="15.076579920276071"><ele>123.4</ele><time>2026-03-26T18:09:12Z</time></trkpt><trkpt lat="36.893132158392326" lon="15.076615410868843"><ele>124.2</ele><time>2026-03-26T18:09:13Z</time></trkpt><trkpt lat="36.893233453528076" lon="15.076663314218111"><ele>125.0</ele><time>2026-03-26T18:09:14Z</time></trkpt><trkpt lat="36.8933352234588" lon="15.07671891458712"><ele>120.25</ele><time>2026-03-26T18:09:15Z</time></trkpt><trkpt lat="36.89344638463359" lon="15.076801081694278"><ele>115.5</ele><time>2026-03-26T18:09:16Z</time></trkpt><trkpt lat="36.8935541151782" lon="15.07691034194359"><ele>110.75</ele><time>2026-03-26T18:09:17Z</time></trkpt><trkpt lat="36.893643456091034" lon="15.077008545547045"><ele>106.0</ele><time>2026-03-26T18:09:18Z</time></trkpt><trkpt lat="36.89371953345086" lon="15.07709215460511"><ele>106.0</ele><time>2026-03-26T18:09:19Z</time></trkpt><trkpt lat="36.8937787721314" lon="15.07718073254281"><ele>106.0</ele><time>2026-03-26T18:09:20Z</time></trkpt><trkpt lat="36.89384803842967" lon="15.077255418117927"><ele>106.0</ele><time>2026-03-26T18:09:21Z</time></trkpt><trkpt lat="36.8939284519807" lon="15.077308797509556"><ele>106.0</ele><time>2026-03-26T18:09:22Z</time></trkpt><trkpt lat="36.89403101370333" lon="15.07734380052396"><ele>106.0</ele><time>2026-03-26T18:09:23Z</time></trkpt><trkpt lat="36.89416431463086" lon="15.07735451548011"><ele>108.5</ele><time>2026-03-26T18:09:24Z</time></trkpt><trkpt lat="36.89430361956562" lon="15.077344141172404"><ele>111.0</ele><time>2026-03-26T18:09:25Z</time></trkpt><trkpt lat="36.89441937565878" lon="15.077349351423969"><ele>113.5</ele><time>2026-03-26T18:09:26Z</time></trkpt><trkpt lat="36.8945329431827" lon="15.077383360505538"><ele>116.0</ele><time>2026-03-26T18:09:27Z</time></trkpt><trkpt lat="36.89464808035625" lon="15.077365527501858"><ele>109.0</ele><time>2026-03-26T18:09:28Z</time></trkpt><trkpt lat="36.894707376746716" lon="15.077539885816464"><ele>102.0</ele><time>2026-03-26T18:09:29Z</time></trkpt><trkpt lat="36.894812097319935" lon="15.077674171673275"><ele>95.0</ele><time>2026-03-26T18:09:29.999Z</time></trkpt><trkpt lat="36.894927036395515" lon="15.077823429959956"><ele>95.0</ele><time>2026-03-26T18:09:30.999Z</time></trkpt><trkpt lat="36.89505908570547" lon="15.077979244659069"><ele>95.0</ele><time>2026-03-26T18:09:31.999Z</time></trkpt><trkpt lat="36.895191526767036" lon="15.078132840400848"><ele>95.0</ele><time>2026-03-26T18:09:32.999Z</time></trkpt><trkpt lat="36.89530994811407" lon="15.078269968116375"><ele>93.5</ele><time>2026-03-26T18:09:33.999Z</time></trkpt><trkpt lat="36.895418016335945" lon="15.07840227341802"><ele>92.0</ele><time>2026-03-26T18:09:34.999Z</time></trkpt><trkpt lat="36.89552200665309" lon="15.078523090567398"><ele>90.5</ele><time>2026-03-26T18:09:35.999Z</time></trkpt><trkpt lat="36.89561963277358" lon="15.078634889627397"><ele>89.0</ele><time>2026-03-26T18:09:36.999Z</time></trkpt><trkpt lat="36.895714763262696" lon="15.078733445584811"><ele>89.0</ele><time>2026-03-26T18:09:37.999Z</time></trkpt><trkpt lat="36.89582059605158" lon="15.078841598443516"><ele>89.0</ele><time>2026-03-26T18:09:38.999Z</time></trkpt><trkpt lat="36.895953460064" lon="15.078943968690012"><ele>89.0</ele><time>2026-03-26T18:09:39.999Z</time></trkpt><trkpt lat="36.896112192647394" lon="15.079031409704628"><ele>91.0</ele><time>2026-03-26T18:09:40.999Z</time></trkpt><trkpt lat="36.8962829519641" lon="15.07912188861828"><ele>93.0</ele><time>2026-03-26T18:09:41.999Z</time></trkpt><trkpt lat="36.89643466242042" lon="15.079200338995676"><ele>95.0</ele><time>2026-03-26T18:09:42.999Z</time></trkpt><trkpt lat="36.89656580444205" lon="15.079270897252718"><ele>95.0</ele><time>2026-03-26T18:09:43.999Z</time></trkpt><trkpt lat="36.89669390700499" lon="15.079344688715766"><ele>95.0</ele><time>2026-03-26T18:09:44.999Z</time></trkpt><trkpt lat="36.89680214283131" lon="15.079420798011856"><ele>95.0</ele><time>2026-03-26T18:09:46Z</time></trkpt><trkpt lat="36.89690048511932" lon="15.079522268486869"><ele>95.0</ele><time>2026-03-26T18:09:47Z</time></trkpt><trkpt lat="36.896970458934184" lon="15.079635051068829"><ele>94.5</ele><time>2026-03-26T18:09:48Z</time></trkpt><trkpt lat="36.897009738433596" lon="15.079745811184884"><ele>94.0</ele><time>2026-03-26T18:09:49Z</time></trkpt><trkpt lat="36.89702370827147" lon="15.079848965883066"><ele>93.5</ele><time>2026-03-26T18:09:50Z</time></trkpt><trkpt lat="36.89702996079822" lon="15.07993882218439"><ele>93.0</ele><time>2026-03-26T18:09:51Z</time></trkpt><trkpt lat="36.897045071317045" lon="15.080073424447226"><ele>92.5</ele><time>2026-03-26T18:09:53Z</time></trkpt><trkpt lat="36.89705264256386" lon="15.080159034415109"><ele>92.0</ele><time>2026-03-26T18:09:55Z</time></trkpt><trkpt lat="36.897032652152056" lon="15.080247820447687"><ele>93.0</ele><time>2026-03-26T18:09:58Z</time></trkpt><trkpt lat="36.89701150618519" lon="15.080326723437159"><ele>94.0</ele><time>2026-03-26T18:10:00Z</time></trkpt><trkpt lat="36.896986082006" lon="15.080426588250289"><ele>95.0</ele><time>2026-03-26T18:10:03Z</time></trkpt><trkpt lat="36.896963717021976" lon="15.080528657367132"><ele>96.0</ele><time>2026-03-26T18:10:05Z</time></trkpt><trkpt lat="36.89691468184366" lon="15.080603882072948"><ele>96.99999999999999</ele><time>2026-03-26T18:10:06Z</time></trkpt><trkpt lat="36.89686064793794" lon="15.080699262793447"><ele>98.0</ele><time>2026-03-26T18:10:07Z</time></trkpt><trkpt lat="36.89682231580611" lon="15.080776521058699"><ele>99.75</ele><time>2026-03-26T18:10:08Z</time></trkpt><trkpt lat="36.896799829126145" lon="15.080883046426116"><ele>101.5</ele><time>2026-03-26T18:10:10Z</time></trkpt><trkpt lat="36.89694746976148" lon="15.080960393271752"><ele>103.25</ele><time>2026-03-26T18:10:11Z</time></trkpt><trkpt lat="36.89705174294399" lon="15.080998075996428"><ele>105.0</ele><time>2026-03-26T18:10:12Z</time></trkpt><trkpt lat="36.897133730112095" lon="15.081065405002766"><ele>105.0</ele><time>2026-03-26T18:10:13Z</time></trkpt><trkpt lat="36.89723118525016" lon="15.081175558330868"><ele>105.0</ele><time>2026-03-26T18:10:14Z</time></trkpt><trkpt lat="36.897333828019455" lon="15.081303349590636"><ele>105.0</ele><time>2026-03-26T18:10:15Z</time></trkpt><trkpt lat="36.897437774902045" lon="15.081418861176857"><ele>105.0</ele><time>2026-03-26T18:10:16Z</time></trkpt><trkpt lat="36.897553585513435" lon="15.081511325337928"><ele>104.33333333333334</ele><time>2026-03-26T18:10:17Z</time></trkpt><trkpt lat="36.89768966859839" lon="15.08159162055126"><ele>103.66666666666667</ele><time>2026-03-26T18:10:18Z</time></trkpt><trkpt lat="36.89783995457454" lon="15.081665812218024"><ele>103.0</ele><time>2026-03-26T18:10:19Z</time></trkpt><trkpt lat="36.89799143077366" lon="15.081724869561167"><ele>105.25</ele><time>2026-03-26T18:10:20Z</time></trkpt><trkpt lat="36.8981293062641" lon="15.081776382279486"><ele>107.5</ele><time>2026-03-26T18:10:21Z</time></trkpt><trkpt lat="36.89825402689038" lon="15.081844921710744"><ele>109.75</ele><time>2026-03-26T18:10:22Z</time></trkpt><trkpt lat="36.89836192960528" lon="15.08191642423562"><ele>112.0</ele><time>2026-03-26T18:10:23Z</time></trkpt><trkpt lat="36.89844740676889" lon="15.081994955949611"><ele>112.0</ele><time>2026-03-26T18:10:24Z</time></trkpt><trkpt lat="36.8985179356107" lon="15.082101811802257"><ele>112.0</ele><time>2026-03-26T18:10:25Z</time></trkpt><trkpt lat="36.89859144086957" lon="15.08224841026613"><ele>112.0</ele><time>2026-03-26T18:10:26Z</time></trkpt><trkpt lat="36.89867310601059" lon="15.082404798611835"><ele>112.0</ele><time>2026-03-26T18:10:27Z</time></trkpt><trkpt lat="36.89875366786775" lon="15.082552314460893"><ele>114.0</ele><time>2026-03-26T18:10:28Z</time></trkpt><trkpt lat="36.89883078388988" lon="15.082703258990584"><ele>116.0</ele><time>2026-03-26T18:10:29Z</time></trkpt><trkpt lat="36.898903400085906" lon="15.082878189525962"><ele>118.0</ele><time>2026-03-26T18:10:30Z</time></trkpt><trkpt lat="36.89897682510012" lon="15.083061126871058"><ele>118.0</ele><time>2026-03-26T18:10:31Z</time></trkpt><trkpt lat="36.89905435334678" lon="15.083243970909948"><ele>118.0</ele><time>2026-03-26T18:10:32Z</time></trkpt><trkpt lat="36.899117476754725" lon="15.083434447958979"><ele>118.0</ele><time>2026-03-26T18:10:33Z</time></trkpt><trkpt lat="36.89915265079823" lon="15.083630977971339"><ele>121.0</ele><time>2026-03-26T18:10:34Z</time></trkpt><trkpt lat="36.89919262370948" lon="15.083800671508198"><ele>124.0</ele><time>2026-03-26T18:10:35Z</time></trkpt><trkpt lat="36.89926036293681" lon="15.08395765966179"><ele>127.0</ele><time>2026-03-26T18:10:36Z</time></trkpt><trkpt lat="36.89935907078054" lon="15.084109063043172"><ele>130.0</ele><time>2026-03-26T18:10:37Z</time></trkpt><trkpt lat="36.89947327072609" lon="15.084252923244359"><ele>132.66666666666669</ele><time>2026-03-26T18:10:38Z</time></trkpt><trkpt lat="36.89959968462913" lon="15.084376146555854"><ele>135.33333333333334</ele><time>2026-03-26T18:10:39Z</time></trkpt><trkpt lat="36.89973617395292" lon="15.084478501192436"><ele>138.0</ele><time>2026-03-26T18:10:40Z</time></trkpt><trkpt lat="36.89986184345059" lon="15.084584737085335"><ele>138.0</ele><time>2026-03-26T18:10:41Z</time></trkpt><trkpt lat="36.89997413815858" lon="15.084719100075962"><ele>138.0</ele><time>2026-03-26T18:10:42Z</time></trkpt><trkpt lat="36.900081287565314" lon="15.084874843351635"><ele>138.0</ele><time>2026-03-26T18:10:43Z</time></trkpt><trkpt lat="36.90018919247857" lon="15.085023794528743"><ele>139.33333333333334</ele><time>2026-03-26T18:10:44Z</time></trkpt><trkpt lat="36.90028865172807" lon="15.085173191715313"><ele>140.66666666666669</ele><time>2026-03-26T18:10:45Z</time></trkpt><trkpt lat="36.9003932356545" lon="15.085323700188539"><ele>142.0</ele><time>2026-03-26T18:10:46Z</time></trkpt><trkpt lat="36.90052311218031" lon="15.085467402044813"><ele>142.0</ele><time>2026-03-26T18:10:47Z</time></trkpt><trkpt lat="36.90065463847435" lon="15.085604745799841"><ele>142.0</ele><time>2026-03-26T18:10:48Z</time></trkpt><trkpt lat="36.90077455562409" lon="15.085733912221768"><ele>142.0</ele><time>2026-03-26T18:10:49Z</time></trkpt><trkpt lat="36.900886595590386" lon="15.085852253913595"><ele>139.5</ele><time>2026-03-26T18:10:50Z</time></trkpt><trkpt lat="36.90099934963448" lon="15.085952430965515"><ele>137.0</ele><time>2026-03-26T18:10:51Z</time></trkpt><trkpt lat="36.901109569995725" lon="15.08602864240753"><ele>134.5</ele><time>2026-03-26T18:10:52Z</time></trkpt><trkpt lat="36.90121149961209" lon="15.086070174318031"><ele>132.0</ele><time>2026-03-26T18:10:53Z</time></trkpt><trkpt lat="36.901339795103056" lon="15.086100865130064"><ele>132.0</ele><time>2026-03-26T18:10:54Z</time></trkpt><trkpt lat="36.90148574345265" lon="15.08613151673416"><ele>132.0</ele><time>2026-03-26T18:10:55Z</time></trkpt><trkpt lat="36.901624367117236" lon="15.086173078036529"><ele>132.0</ele><time>2026-03-26T18:10:56Z</time></trkpt><trkpt lat="36.90175689192738" lon="15.086225267126954"><ele>132.0</ele><time>2026-03-26T18:10:57Z</time></trkpt><trkpt lat="36.90190364482998" lon="15.086303700055677"><ele>132.0</ele><time>2026-03-26T18:10:58Z</time></trkpt><trkpt lat="36.90205882973897" lon="15.086399264130224"><ele>132.0</ele><time>2026-03-26T18:10:59Z</time></trkpt><trkpt lat="36.90221279983474" lon="15.08649603511364"><ele>132.0</ele><time>2026-03-26T18:11:00Z</time></trkpt><trkpt lat="36.902350838392294" lon="15.086572342003178"><ele>130.75</ele><time>2026-03-26T18:11:01Z</time></trkpt><trkpt lat="36.90247688379455" lon="15.086639992746633"><ele>129.5</ele><time>2026-03-26T18:11:02Z</time></trkpt><trkpt lat="36.90260905275367" lon="15.086705938589741"><ele>128.25</ele><time>2026-03-26T18:11:03Z</time></trkpt><trkpt lat="36.90275593705415" lon="15.08677013849381"><ele>127.0</ele><time>2026-03-26T18:11:04Z</time></trkpt><trkpt lat="36.90291598082151" lon="15.086835256177228"><ele>126.33333333333334</ele><time>2026-03-26T18:11:05Z</time></trkpt><trkpt lat="36.90307995013385" lon="15.086895940461565"><ele>125.66666666666666</ele><time>2026-03-26T18:11:06Z</time></trkpt><trkpt lat="36.90324549222841" lon="15.086944736255573"><ele>125.0</ele><time>2026-03-26T18:11:07Z</time></trkpt><trkpt lat="36.90339808758675" lon="15.086978663829989"><ele>126.25</ele><time>2026-03-26T18:11:08Z</time></trkpt><trkpt lat="36.90354061716117" lon="15.087011656799245"><ele>127.5</ele><time>2026-03-26T18:11:09Z</time></trkpt><trkpt lat="36.90367780108732" lon="15.087045340762954"><ele>128.75</ele><time>2026-03-26T18:11:10Z</time></trkpt><trkpt lat="36.90381581661828" lon="15.087109879563666"><ele>130.0</ele><time>2026-03-26T18:11:11Z</time></trkpt><trkpt lat="36.90396584040429" lon="15.08719850414069"><ele>130.0</ele><time>2026-03-26T18:11:12Z</time></trkpt><trkpt lat="36.90412104044701" lon="15.08731704703711"><ele>130.0</ele><time>2026-03-26T18:11:13Z</time></trkpt><trkpt lat="36.90427820225886" lon="15.0874378735661"><ele>130.0</ele><time>2026-03-26T18:11:14Z</time></trkpt><trkpt lat="36.90442830387401" lon="15.087546700511771"><ele>130.33333333333334</ele><time>2026-03-26T18:11:15Z</time></trkpt><trkpt lat="36.90456761143444" lon="15.087659983455564"><ele>130.66666666666666</ele><time>2026-03-26T18:11:16Z</time></trkpt><trkpt lat="36.90471165820258" lon="15.087789942385657"><ele>131.0</ele><time>2026-03-26T18:11:17Z</time></trkpt><trkpt lat="36.90486257739617" lon="15.087917021801688"><ele>131.0</ele><time>2026-03-26T18:11:18Z</time></trkpt><trkpt lat="36.90500454492416" lon="15.08801743078852"><ele>131.0</ele><time>2026-03-26T18:11:19Z</time></trkpt><trkpt lat="36.90513314385978" lon="15.088112593902398"><ele>131.0</ele><time>2026-03-26T18:11:20Z</time></trkpt><trkpt lat="36.90524998780312" lon="15.088212274033157"><ele>130.0</ele><time>2026-03-26T18:11:21Z</time></trkpt><trkpt lat="36.90535321484458" lon="15.088306285582163"><ele>129.0</ele><time>2026-03-26T18:11:22Z</time></trkpt><trkpt lat="36.90543271269078" lon="15.088381452958743"><ele>128.0</ele><time>2026-03-26T18:11:23Z</time></trkpt><trkpt lat="36.905520609624986" lon="15.088467953944017"><ele>127.0</ele><time>2026-03-26T18:11:24Z</time></trkpt><trkpt lat="36.90561040836003" lon="15.088551031251807"><ele>127.0</ele><time>2026-03-26T18:11:25Z</time></trkpt><trkpt lat="36.905711272174266" lon="15.088634375667946"><ele>127.0</ele><time>2026-03-26T18:11:26Z</time></trkpt><trkpt lat="36.90582056548155" lon="15.088713360110251"><ele>127.0</ele><time>2026-03-26T18:11:27Z</time></trkpt><trkpt lat="36.9059300146707" lon="15.088784285115494"><ele>127.0</ele><time>2026-03-26T18:11:28Z</time></trkpt><trkpt lat="36.90604224837917" lon="15.088844666742999"><ele>126.75</ele><time>2026-03-26T18:11:29Z</time></trkpt><trkpt lat="36.90616143491783" lon="15.088901274302831"><ele>126.5</ele><time>2026-03-26T18:11:30Z</time></trkpt><trkpt lat="36.906282197800614" lon="15.088947402313297"><ele>126.25</ele><time>2026-03-26T18:11:31Z</time></trkpt><trkpt lat="36.90640691650355" lon="15.088970204259764"><ele>126.0</ele><time>2026-03-26T18:11:32Z</time></trkpt><trkpt lat="36.90653087057867" lon="15.088977281404693"><ele>126.0</ele><time>2026-03-26T18:11:33Z</time></trkpt><trkpt lat="36.90663827057103" lon="15.089001550620619"><ele>126.0</ele><time>2026-03-26T18:11:34Z</time></trkpt><trkpt lat="36.906735729676804" lon="15.089061753729068"><ele>126.0</ele><time>2026-03-26T18:11:35Z</time></trkpt><trkpt lat="36.906843453005706" lon="15.089154919597691"><ele>126.0</ele><time>2026-03-26T18:11:35.999Z</time></trkpt><trkpt lat="36.90696218145279" lon="15.0892524191652"><ele>127.33333333333334</ele><time>2026-03-26T18:11:36.999Z</time></trkpt><trkpt lat="36.90710527466716" lon="15.08932583750048"><ele>128.66666666666669</ele><time>2026-03-26T18:11:37.999Z</time></trkpt><trkpt lat="36.90726343839637" lon="15.089388697228724"><ele>130.0</ele><time>2026-03-26T18:11:38.999Z</time></trkpt><trkpt lat="36.90743322257496" lon="15.089468651392425"><ele>131.0</ele><time>2026-03-26T18:11:39.999Z</time></trkpt><trkpt lat="36.9076044957277" lon="15.089546665842757"><ele>132.0</ele><time>2026-03-26T18:11:40.999Z</time></trkpt><trkpt lat="36.907780641089914" lon="15.089607315353833"><ele>133.0</ele><time>2026-03-26T18:11:41.999Z</time></trkpt><trkpt lat="36.90794191387604" lon="15.089658982150647"><ele>133.0</ele><time>2026-03-26T18:11:42.999Z</time></trkpt><trkpt lat="36.90808823170649" lon="15.08970530135892"><ele>133.0</ele><time>2026-03-26T18:11:43.999Z</time></trkpt><trkpt lat="36.90824750950667" lon="15.08974634738349"><ele>133.0</ele><time>2026-03-26T18:11:44.999Z</time></trkpt><trkpt lat="36.90840051317501" lon="15.089770022493017"><ele>134.75</ele><time>2026-03-26T18:11:45.999Z</time></trkpt><trkpt lat="36.90853576755108" lon="15.089783795040885"><ele>136.5</ele><time>2026-03-26T18:11:46.999Z</time></trkpt><trkpt lat="36.90868071984771" lon="15.089794021450926"><ele>138.25</ele><time>2026-03-26T18:11:47.999Z</time></trkpt><trkpt lat="36.908848586230384" lon="15.089806088531525"><ele>140.0</ele><time>2026-03-26T18:11:48.999Z</time></trkpt><trkpt lat="36.90901993500406" lon="15.089832766321452"><ele>140.0</ele><time>2026-03-26T18:11:49.999Z</time></trkpt><trkpt lat="36.90917857701448" lon="15.089877009150918"><ele>140.0</ele><time>2026-03-26T18:11:50.999Z</time></trkpt><trkpt lat="36.909333007312654" lon="15.08992245649726"><ele>140.0</ele><time>2026-03-26T18:11:52Z</time></trkpt><trkpt lat="36.90948679593033" lon="15.089966686349552"><ele>141.25</ele><time>2026-03-26T18:11:53Z</time></trkpt><trkpt lat="36.90963138492981" lon="15.090020741847665"><ele>142.5</ele><time>2026-03-26T18:11:54Z</time></trkpt><trkpt lat="36.9097597298731" lon="15.090082098149793"><ele>143.75</ele><time>2026-03-26T18:11:55Z</time></trkpt><trkpt lat="36.90988231046795" lon="15.090162270731634"><ele>145.0</ele><time>2026-03-26T18:11:56Z</time></trkpt><trkpt lat="36.91001570994294" lon="15.090262943876278"><ele>148.0</ele><time>2026-03-26T18:11:57Z</time></trkpt><trkpt lat="36.91015086765937" lon="15.090385634367037"><ele>151.0</ele><time>2026-03-26T18:11:58Z</time></trkpt><trkpt lat="36.91028266830632" lon="15.090530321422218"><ele>154.0</ele><time>2026-03-26T18:11:59Z</time></trkpt><trkpt lat="36.910421833254276" lon="15.090675703950227"><ele>153.0</ele><time>2026-03-26T18:12:00Z</time></trkpt><trkpt lat="36.9105655571573" lon="15.090825266652866"><ele>152.0</ele><time>2026-03-26T18:12:01Z</time></trkpt><trkpt lat="36.91069571606975" lon="15.090962228519915"><ele>151.0</ele><time>2026-03-26T18:12:02Z</time></trkpt><trkpt lat="36.91081871119432" lon="15.091099387453719"><ele>152.33333333333334</ele><time>2026-03-26T18:12:03Z</time></trkpt><trkpt lat="36.910920552789236" lon="15.091236297922151"><ele>153.66666666666666</ele><time>2026-03-26T18:12:04Z</time></trkpt><trkpt lat="36.911008441690846" lon="15.091385848553879"><ele>155.0</ele><time>2026-03-26T18:12:05Z</time></trkpt><trkpt lat="36.91110636282878" lon="15.09156056433652"><ele>153.33333333333331</ele><time>2026-03-26T18:12:06Z</time></trkpt><trkpt lat="36.91120839102449" lon="15.091736986688982"><ele>151.66666666666666</ele><time>2026-03-26T18:12:07Z</time></trkpt><trkpt lat="36.91131348749614" lon="15.091923938148389"><ele>150.0</ele><time>2026-03-26T18:12:08Z</time></trkpt><trkpt lat="36.911405209375054" lon="15.092112752027544"><ele>150.0</ele><time>2026-03-26T18:12:09Z</time></trkpt><trkpt lat="36.91148407992318" lon="15.092288464265351"><ele>150.0</ele><time>2026-03-26T18:12:10Z</time></trkpt><trkpt lat="36.911561593709806" lon="15.09245787484114"><ele>150.0</ele><time>2026-03-26T18:12:11Z</time></trkpt><trkpt lat="36.91165855168638" lon="15.092633933809537"><ele>149.33333333333334</ele><time>2026-03-26T18:12:12Z</time></trkpt><trkpt lat="36.91177886557225" lon="15.092816268858138"><ele>148.66666666666669</ele><time>2026-03-26T18:12:13Z</time></trkpt><trkpt lat="36.911903753416816" lon="15.092999562878086"><ele>148.0</ele><time>2026-03-26T18:12:14Z</time></trkpt><trkpt lat="36.912015927822175" lon="15.093203709869611"><ele>147.0</ele><time>2026-03-26T18:12:15Z</time></trkpt><trkpt lat="36.91212634022456" lon="15.093412681168719"><ele>146.0</ele><time>2026-03-26T18:12:16Z</time></trkpt><trkpt lat="36.91222459528262" lon="15.093625328828216"><ele>145.0</ele><time>2026-03-26T18:12:17Z</time></trkpt><trkpt lat="36.912310047791934" lon="15.093824503044491"><ele>145.0</ele><time>2026-03-26T18:12:18Z</time></trkpt><trkpt lat="36.9123971399928" lon="15.09401337544651"><ele>145.0</ele><time>2026-03-26T18:12:19Z</time></trkpt><trkpt lat="36.91250201991203" lon="15.094205722283112"><ele>145.0</ele><time>2026-03-26T18:12:20Z</time></trkpt><trkpt lat="36.91262087644039" lon="15.094399770743255"><ele>145.66666666666669</ele><time>2026-03-26T18:12:21Z</time></trkpt><trkpt lat="36.91275140029487" lon="15.094590231131571"><ele>146.33333333333334</ele><time>2026-03-26T18:12:22Z</time></trkpt><trkpt lat="36.9128775787725" lon="15.09478182547854"><ele>147.0</ele><time>2026-03-26T18:12:23Z</time></trkpt><trkpt lat="36.91298995435973" lon="15.094961266684209"><ele>145.66666666666666</ele><time>2026-03-26T18:12:24Z</time></trkpt><trkpt lat="36.913106098171994" lon="15.095142435090272"><ele>144.33333333333331</ele><time>2026-03-26T18:12:25Z</time></trkpt><trkpt lat="36.91322943643239" lon="15.09532880244196"><ele>143.0</ele><time>2026-03-26T18:12:26Z</time></trkpt><trkpt lat="36.913353777656454" lon="15.095517571838206"><ele>143.0</ele><time>2026-03-26T18:12:27Z</time></trkpt><trkpt lat="36.91347441882442" lon="15.095704457359416"><ele>143.0</ele><time>2026-03-26T18:12:28Z</time></trkpt><trkpt lat="36.91358542776727" lon="15.095874705734602"><ele>143.0</ele><time>2026-03-26T18:12:29Z</time></trkpt><trkpt lat="36.91368405714872" lon="15.096011984364386"><ele>143.0</ele><time>2026-03-26T18:12:30Z</time></trkpt><trkpt lat="36.91378022482989" lon="15.096126509120264"><ele>143.0</ele><time>2026-03-26T18:12:31Z</time></trkpt><trkpt lat="36.91389506646747" lon="15.096226470164732"><ele>143.0</ele><time>2026-03-26T18:12:32Z</time></trkpt><trkpt lat="36.914032787826436" lon="15.096317654683354"><ele>143.0</ele><time>2026-03-26T18:12:33Z</time></trkpt><trkpt lat="36.91418867511538" lon="15.096425195373845"><ele>144.0</ele><time>2026-03-26T18:12:34Z</time></trkpt><trkpt lat="36.9143533234362" lon="15.096541983820066"><ele>145.0</ele><time>2026-03-26T18:12:35Z</time></trkpt><trkpt lat="36.91453171476226" lon="15.096658987976438"><ele>146.0</ele><time>2026-03-26T18:12:36Z</time></trkpt><trkpt lat="36.914698652063585" lon="15.096751587261616"><ele>145.0</ele><time>2026-03-26T18:12:37Z</time></trkpt><trkpt lat="36.914849102090855" lon="15.096830030582563"><ele>144.0</ele><time>2026-03-26T18:12:38Z</time></trkpt><trkpt lat="36.914979199645295" lon="15.096905569285234"><ele>143.0</ele><time>2026-03-26T18:12:39Z</time></trkpt><trkpt lat="36.91507791494416" lon="15.096973289056272"><ele>142.0</ele><time>2026-03-26T18:12:40Z</time></trkpt><trkpt lat="36.91515341337575" lon="15.097047843133698"><ele>142.0</ele><time>2026-03-26T18:12:41Z</time></trkpt><trkpt lat="36.915205430469314" lon="15.097180968891799"><ele>142.0</ele><time>2026-03-26T18:12:42Z</time></trkpt><trkpt lat="36.91528178803226" lon="15.097348251364343"><ele>142.0</ele><time>2026-03-26T18:12:43Z</time></trkpt><trkpt lat="36.91537230157606" lon="15.097552565573213"><ele>142.33333333333334</ele><time>2026-03-26T18:12:44Z</time></trkpt><trkpt lat="36.91545191684047" lon="15.097766504348204"><ele>142.66666666666666</ele><time>2026-03-26T18:12:45Z</time></trkpt><trkpt lat="36.915544393951656" lon="15.097983332778638"><ele>143.0</ele><time>2026-03-26T18:12:46Z</time></trkpt><trkpt lat="36.91564024977882" lon="15.098183281391318"><ele>143.0</ele><time>2026-03-26T18:12:47Z</time></trkpt><trkpt lat="36.91572378582967" lon="15.09837940094865"><ele>143.0</ele><time>2026-03-26T18:12:48Z</time></trkpt><trkpt lat="36.91579868130228" lon="15.098557722238242"><ele>143.0</ele><time>2026-03-26T18:12:49Z</time></trkpt><trkpt lat="36.915876409333755" lon="15.09873962199587"><ele>143.66666666666666</ele><time>2026-03-26T18:12:50Z</time></trkpt><trkpt lat="36.91595977581016" lon="15.09891668350034"><ele>144.33333333333334</ele><time>2026-03-26T18:12:51Z</time></trkpt><trkpt lat="36.916070619253354" lon="15.099086864946443"><ele>145.0</ele><time>2026-03-26T18:12:52Z</time></trkpt><trkpt lat="36.9161914992523" lon="15.099230143959407"><ele>145.0</ele><time>2026-03-26T18:12:53Z</time></trkpt><trkpt lat="36.916310859200046" lon="15.099366853689027"><ele>145.0</ele><time>2026-03-26T18:12:54Z</time></trkpt><trkpt lat="36.916449306143406" lon="15.099500398843322"><ele>145.0</ele><time>2026-03-26T18:12:55Z</time></trkpt><trkpt lat="36.91661601241905" lon="15.099625470541936"><ele>144.66666666666669</ele><time>2026-03-26T18:12:56Z</time></trkpt><trkpt lat="36.91678187734378" lon="15.099748920830068"><ele>144.33333333333334</ele><time>2026-03-26T18:12:57Z</time></trkpt><trkpt lat="36.9169373550392" lon="15.099875208854531"><ele>144.0</ele><time>2026-03-26T18:12:58Z</time></trkpt><trkpt lat="36.917088145392874" lon="15.100015908956763"><ele>144.0</ele><time>2026-03-26T18:12:59Z</time></trkpt><trkpt lat="36.91723928622897" lon="15.100167606895097"><ele>144.0</ele><time>2026-03-26T18:13:00Z</time></trkpt><trkpt lat="36.917386248749914" lon="15.100314186084875"><ele>144.0</ele><time>2026-03-26T18:13:01Z</time></trkpt><trkpt lat="36.917517756322354" lon="15.100437186493716"><ele>144.33333333333334</ele><time>2026-03-26T18:13:02Z</time></trkpt><trkpt lat="36.917629868481264" lon="15.100546573306316"><ele>144.66666666666669</ele><time>2026-03-26T18:13:03Z</time></trkpt><trkpt lat="36.91773351650246" lon="15.10067067665645"><ele>145.0</ele><time>2026-03-26T18:13:04Z</time></trkpt><trkpt lat="36.91783824885101" lon="15.10083195691924"><ele>144.0</ele><time>2026-03-26T18:13:05Z</time></trkpt><trkpt lat="36.91793275820459" lon="15.101012252460414"><ele>143.0</ele><time>2026-03-26T18:13:06Z</time></trkpt><trkpt lat="36.91797725641837" lon="15.10118993038649"><ele>142.0</ele><time>2026-03-26T18:13:07Z</time></trkpt><trkpt lat="36.91799703537301" lon="15.10134187411893"><ele>141.0</ele><time>2026-03-26T18:13:08Z</time></trkpt><trkpt lat="36.91802468622491" lon="15.101513096354372"><ele>140.0</ele><time>2026-03-26T18:13:09Z</time></trkpt><trkpt lat="36.9179933280252" lon="15.101677486959764"><ele>139.0</ele><time>2026-03-26T18:13:10Z</time></trkpt><trkpt lat="36.91793997530382" lon="15.101814105866351"><ele>138.0</ele><time>2026-03-26T18:13:11Z</time></trkpt><trkpt lat="36.917869514529066" lon="15.10197349265014"><ele>137.0</ele><time>2026-03-26T18:13:12Z</time></trkpt><trkpt lat="36.91778750381225" lon="15.10214530730339"><ele>137.0</ele><time>2026-03-26T18:13:13Z</time></trkpt><trkpt lat="36.917711676259046" lon="15.10231520830218"><ele>137.0</ele><time>2026-03-26T18:13:14Z</time></trkpt><trkpt lat="36.91765410740284" lon="15.102481052952546"><ele>137.0</ele><time>2026-03-26T18:13:15Z</time></trkpt><trkpt lat="36.917597875499595" lon="15.102619619694439"><ele>137.0</ele><time>2026-03-26T18:13:16Z</time></trkpt><trkpt lat="36.91755332737571" lon="15.102750339988495"><ele>137.0</ele><time>2026-03-26T18:13:17Z</time></trkpt><trkpt lat="36.91753433508765" lon="15.10288405626216"><ele>137.0</ele><time>2026-03-26T18:13:18Z</time></trkpt><trkpt lat="36.917539192315076" lon="15.103055654250134"><ele>137.0</ele><time>2026-03-26T18:13:19Z</time></trkpt><trkpt lat="36.91755853032452" lon="15.103242673300565"><ele>137.0</ele><time>2026-03-26T18:13:20Z</time></trkpt><trkpt lat="36.91752289904532" lon="15.103435734586293"><ele>134.66666666666666</ele><time>2026-03-26T18:13:21Z</time></trkpt><trkpt lat="36.91746447674403" lon="15.103618252354233"><ele>132.33333333333334</ele><time>2026-03-26T18:13:22Z</time></trkpt><trkpt lat="36.9174001801839" lon="15.103812575495878"><ele>130.0</ele><time>2026-03-26T18:13:23Z</time></trkpt><trkpt lat="36.9173391459644" lon="15.103991710156647"><ele>128.66666666666669</ele><time>2026-03-26T18:13:24Z</time></trkpt><trkpt lat="36.91727282047535" lon="15.104153056836783"><ele>127.33333333333334</ele><time>2026-03-26T18:13:25Z</time></trkpt><trkpt lat="36.91717677081376" lon="15.104309042711032"><ele>126.0</ele><time>2026-03-26T18:13:26Z</time></trkpt><trkpt lat="36.91706972944109" lon="15.104486214734985"><ele>126.0</ele><time>2026-03-26T18:13:27Z</time></trkpt><trkpt lat="36.91702007324492" lon="15.104704283661203"><ele>126.0</ele><time>2026-03-26T18:13:28Z</time></trkpt><trkpt lat="36.91696665444261" lon="15.104894278860376"><ele>126.0</ele><time>2026-03-26T18:13:29Z</time></trkpt><trkpt lat="36.916913101294604" lon="15.105056959002328"><ele>127.25</ele><time>2026-03-26T18:13:30Z</time></trkpt><trkpt lat="36.91682999428185" lon="15.105175709607387"><ele>128.5</ele><time>2026-03-26T18:13:31Z</time></trkpt><trkpt lat="36.916727820734096" lon="15.105279658217023"><ele>129.75</ele><time>2026-03-26T18:13:32Z</time></trkpt><trkpt lat="36.91660174781696" lon="15.10539715134093"><ele>131.0</ele><time>2026-03-26T18:13:33Z</time></trkpt><trkpt lat="36.91649966044181" lon="15.10553895330553"><ele>131.0</ele><time>2026-03-26T18:13:34Z</time></trkpt><trkpt lat="36.9164110091199" lon="15.105676182655197"><ele>131.0</ele><time>2026-03-26T18:13:35Z</time></trkpt><trkpt lat="36.91637654281741" lon="15.10588270185824"><ele>131.0</ele><time>2026-03-26T18:13:36Z</time></trkpt><trkpt lat="36.916303204599664" lon="15.106089457245643"><ele>128.0</ele><time>2026-03-26T18:13:37Z</time></trkpt><trkpt lat="36.91623852028543" lon="15.106313064665308"><ele>125.0</ele><time>2026-03-26T18:13:38Z</time></trkpt><trkpt lat="36.91617519282288" lon="15.106520019935617"><ele>122.0</ele><time>2026-03-26T18:13:39Z</time></trkpt><trkpt lat="36.91611696666722" lon="15.106703502647415"><ele>122.5</ele><time>2026-03-26T18:13:40Z</time></trkpt><trkpt lat="36.91606352690374" lon="15.106856443589347"><ele>123.0</ele><time>2026-03-26T18:13:41Z</time></trkpt><trkpt lat="36.91600849918135" lon="15.106977974163067"><ele>123.5</ele><time>2026-03-26T18:13:42Z</time></trkpt><trkpt lat="36.91593647735238" lon="15.107100752242301"><ele>124.0</ele><time>2026-03-26T18:13:43Z</time></trkpt><trkpt lat="36.91584193957317" lon="15.107256975392138"><ele>121.33333333333334</ele><time>2026-03-26T18:13:44Z</time></trkpt><trkpt lat="36.91573916065807" lon="15.107426816954566"><ele>118.66666666666666</ele><time>2026-03-26T18:13:45Z</time></trkpt><trkpt lat="36.91564729851186" lon="15.10757761782053"><ele>116.0</ele><time>2026-03-26T18:13:45.999Z</time></trkpt><trkpt lat="36.915572690933985" lon="15.107707520483999"><ele>116.0</ele><time>2026-03-26T18:13:46.999Z</time></trkpt><trkpt lat="36.915527988430384" lon="15.1078279178343"><ele>116.0</ele><time>2026-03-26T18:13:47.999Z</time></trkpt><trkpt lat="36.9154820968336" lon="15.107929981456259"><ele>116.0</ele><time>2026-03-26T18:13:48.999Z</time></trkpt><trkpt lat="36.915444499743" lon="15.108020564013357"><ele>116.0</ele><time>2026-03-26T18:13:49.999Z</time></trkpt><trkpt lat="36.91539689979362" lon="15.108134257737895"><ele>116.0</ele><time>2026-03-26T18:13:51.999Z</time></trkpt><trkpt lat="36.915355518164894" lon="15.108228304555169"><ele>116.0</ele><time>2026-03-26T18:13:55.999Z</time></trkpt><trkpt lat="36.91539810307547" lon="15.108098772106565"><ele>116.0</ele><time>2026-03-26T18:14:01Z</time></trkpt><trkpt lat="36.915478927892956" lon="15.107981527779808"><ele>116.0</ele><time>2026-03-26T18:14:02Z</time></trkpt><trkpt lat="36.91554125538706" lon="15.107868141765389"><ele>116.0</ele><time>2026-03-26T18:14:03Z</time></trkpt><trkpt lat="36.91560899898177" lon="15.107746399350885"><ele>116.0</ele><time>2026-03-26T18:14:04Z</time></trkpt><trkpt lat="36.915664222272866" lon="15.107649047028444"><ele>116.0</ele><time>2026-03-26T18:14:05Z</time></trkpt><trkpt lat="36.91570461386439" lon="15.107586730947592"><ele>116.0</ele><time>2026-03-26T18:14:06Z</time></trkpt><trkpt lat="36.91572918141829" lon="15.10750650010252"><ele>116.0</ele><time>2026-03-26T18:14:08Z</time></trkpt><trkpt lat="36.91559739869897" lon="15.107431467727695"><ele>116.0</ele><time>2026-03-26T18:14:11Z</time></trkpt><trkpt lat="36.915512842558776" lon="15.107513870367393"><ele>116.0</ele><time>2026-03-26T18:14:12Z</time></trkpt><trkpt lat="36.91543665016602" lon="15.107597995452801"><ele>116.0</ele><time>2026-03-26T18:14:13Z</time></trkpt><trkpt lat="36.91538133200411" lon="15.107654883374646"><ele>116.0</ele><time>2026-03-26T18:14:14Z</time></trkpt><trkpt lat="36.91532558048428" lon="15.107773336038036"><ele>116.0</ele><time>2026-03-26T18:14:15Z</time></trkpt><trkpt lat="36.915277011228106" lon="15.107911416051692"><ele>116.0</ele><time>2026-03-26T18:14:16Z</time></trkpt><trkpt lat="36.91523199317189" lon="15.108039400281651"><ele>116.0</ele><time>2026-03-26T18:14:17Z</time></trkpt><trkpt lat="36.9151935248399" lon="15.10814876391018"><ele>116.0</ele><time>2026-03-26T18:14:18Z</time></trkpt><trkpt lat="36.91514705283927" lon="15.108258354751875"><ele>116.0</ele><time>2026-03-26T18:14:19Z</time></trkpt><trkpt lat="36.91509744188685" lon="15.108364792612523"><ele>116.0</ele><time>2026-03-26T18:14:20Z</time></trkpt><trkpt lat="36.915038585072956" lon="15.108463108238992"><ele>116.0</ele><time>2026-03-26T18:14:21Z</time></trkpt><trkpt lat="36.91497905988457" lon="15.108572659525553"><ele>116.16666666666666</ele><time>2026-03-26T18:14:22Z</time></trkpt><trkpt lat="36.914926382563195" lon="15.108677011178939"><ele>116.33333333333333</ele><time>2026-03-26T18:14:23Z</time></trkpt><trkpt lat="36.91488798507267" lon="15.108773292562773"><ele>116.5</ele><time>2026-03-26T18:14:24Z</time></trkpt><trkpt lat="36.91489924353951" lon="15.108879557173887"><ele>116.66666666666666</ele><time>2026-03-26T18:14:25Z</time></trkpt><trkpt lat="36.91485778725804" lon="15.108964608820381"><ele>116.83333333333333</ele><time>2026-03-26T18:14:26Z</time></trkpt><trkpt lat="36.91482055073869" lon="15.10906409116048"><ele>117.0</ele><time>2026-03-26T18:14:27Z</time></trkpt><trkpt lat="36.91476640468465" lon="15.10919159124231"><ele>116.0</ele><time>2026-03-26T18:14:28Z</time></trkpt><trkpt lat="36.91471386855767" lon="15.109343488994778"><ele>115.0</ele><time>2026-03-26T18:14:29Z</time></trkpt><trkpt lat="36.914674633011536" lon="15.109463566052487"><ele>114.0</ele><time>2026-03-26T18:14:30Z</time></trkpt><trkpt lat="36.914630543525476" lon="15.10958371960056"><ele>113.0</ele><time>2026-03-26T18:14:31Z</time></trkpt><trkpt lat="36.91458456074784" lon="15.109709032932411"><ele>113.0</ele><time>2026-03-26T18:14:32Z</time></trkpt><trkpt lat="36.91453527120165" lon="15.109852915422994"><ele>113.0</ele><time>2026-03-26T18:14:33Z</time></trkpt><trkpt lat="36.914491218993554" lon="15.110002874224508"><ele>113.0</ele><time>2026-03-26T18:14:34Z</time></trkpt><trkpt lat="36.91445136850468" lon="15.11015636436072"><ele>113.0</ele><time>2026-03-26T18:14:35Z</time></trkpt><trkpt lat="36.914402211679956" lon="15.110284040600297"><ele>112.0</ele><time>2026-03-26T18:14:36Z</time></trkpt><trkpt lat="36.91435880613357" lon="15.110405019650967"><ele>111.00000000000001</ele><time>2026-03-26T18:14:37Z</time></trkpt><trkpt lat="36.91430709265202" lon="15.110524286476402"><ele>110.00000000000001</ele><time>2026-03-26T18:14:38Z</time></trkpt><trkpt lat="36.9142521353127" lon="15.110657976917315"><ele>109.0</ele><time>2026-03-26T18:14:39Z</time></trkpt><trkpt lat="36.914200725372794" lon="15.11077580610072"><ele>108.0</ele><time>2026-03-26T18:14:40Z</time></trkpt><trkpt lat="36.91415031551539" lon="15.110858562185355"><ele>110.0</ele><time>2026-03-26T18:14:41Z</time></trkpt><trkpt lat="36.91409539929566" lon="15.110930785940065"><ele>112.00000000000001</ele><time>2026-03-26T18:14:42Z</time></trkpt><trkpt lat="36.914035249641486" lon="15.110992421927836"><ele>114.00000000000001</ele><time>2026-03-26T18:14:43Z</time></trkpt><trkpt lat="36.913967464729915" lon="15.11101126567136"><ele>116.0</ele><time>2026-03-26T18:14:44Z</time></trkpt><trkpt lat="36.913900709581995" lon="15.11102598082191"><ele>118.0</ele><time>2026-03-26T18:14:45Z</time></trkpt><trkpt lat="36.913793231509175" lon="15.111177019022096"><ele>118.00000000000001</ele><time>2026-03-26T18:15:34Z</time></trkpt><trkpt lat="36.91374902023347" lon="15.11123845666989"><ele>118.0</ele><time>2026-03-26T18:15:39Z</time></trkpt><trkpt lat="36.91370166378346" lon="15.11130426577848"><ele>118.0</ele><time>2026-03-26T18:18:47Z</time></trkpt><trkpt lat="36.91369211936958" lon="15.111409851518093"><ele>118.0</ele><time>2026-03-26T18:23:37Z</time></trkpt><trkpt lat="36.91374181992857" lon="15.111330770537172"><ele>118.00000000000001</ele><time>2026-03-26T18:26:46Z</time></trkpt><trkpt lat="36.913795135001806" lon="15.111277708912878"><ele>118.0</ele><time>2026-03-26T18:27:36Z</time></trkpt><trkpt lat="36.91384130910528" lon="15.111149804970461"><ele>118.00000000000001</ele><time>2026-03-26T18:28:36.999Z</time></trkpt><trkpt lat="36.91392606998216" lon="15.111069759324506"><ele>118.0</ele><time>2026-03-26T18:28:39Z</time></trkpt><trkpt lat="36.91402523342557" lon="15.111024927786682"><ele>118.0</ele><time>2026-03-26T18:28:41Z</time></trkpt><trkpt lat="36.91408512142765" lon="15.110997485053955"><ele>118.0</ele><time>2026-03-26T18:28:42Z</time></trkpt><trkpt lat="36.914140908518036" lon="15.110951649612444"><ele>118.00000000000001</ele><time>2026-03-26T18:28:43Z</time></trkpt><trkpt lat="36.914195175890306" lon="15.110879017172671"><ele>118.0</ele><time>2026-03-26T18:28:44Z</time></trkpt><trkpt lat="36.91424346422647" lon="15.110777889016662"><ele>116.33333333333334</ele><time>2026-03-26T18:28:45Z</time></trkpt><trkpt lat="36.914274119100575" lon="15.110681576041808"><ele>114.66666666666667</ele><time>2026-03-26T18:28:46Z</time></trkpt><trkpt lat="36.914303459687716" lon="15.110602463259307"><ele>113.0</ele><time>2026-03-26T18:28:47Z</time></trkpt><trkpt lat="36.91434368343703" lon="15.110514883830854"><ele>111.33333333333334</ele><time>2026-03-26T18:28:48Z</time></trkpt><trkpt lat="36.914385565679865" lon="15.110417139475448"><ele>109.66666666666667</ele><time>2026-03-26T18:28:49Z</time></trkpt><trkpt lat="36.914423773236685" lon="15.110308139496388"><ele>108.0</ele><time>2026-03-26T18:28:50Z</time></trkpt><trkpt lat="36.91445255995124" lon="15.110180206987843"><ele>108.0</ele><time>2026-03-26T18:28:51Z</time></trkpt><trkpt lat="36.91448529499229" lon="15.110064066843638"><ele>108.00000000000001</ele><time>2026-03-26T18:28:52Z</time></trkpt><trkpt lat="36.91453190046399" lon="15.109925537083035"><ele>108.00000000000001</ele><time>2026-03-26T18:28:53Z</time></trkpt><trkpt lat="36.914569127986525" lon="15.109818362317725"><ele>108.0</ele><time>2026-03-26T18:28:54Z</time></trkpt><trkpt lat="36.914614678470144" lon="15.109726852120527"><ele>108.0</ele><time>2026-03-26T18:28:55Z</time></trkpt><trkpt lat="36.91464300503804" lon="15.109609454262669"><ele>109.0</ele><time>2026-03-26T18:28:56Z</time></trkpt><trkpt lat="36.91468290191039" lon="15.109493645799915"><ele>110.00000000000001</ele><time>2026-03-26T18:28:57Z</time></trkpt><trkpt lat="36.91472853836594" lon="15.10938059363919"><ele>111.00000000000001</ele><time>2026-03-26T18:28:58Z</time></trkpt><trkpt lat="36.91477094821413" lon="15.109258400592857"><ele>112.0</ele><time>2026-03-26T18:28:59Z</time></trkpt><trkpt lat="36.914816602224334" lon="15.10915491027029"><ele>113.0</ele><time>2026-03-26T18:29:00Z</time></trkpt><trkpt lat="36.914855128254345" lon="15.10905612185218"><ele>113.66666666666666</ele><time>2026-03-26T18:29:01Z</time></trkpt><trkpt lat="36.91489458712615" lon="15.1089525775906"><ele>114.33333333333333</ele><time>2026-03-26T18:29:02Z</time></trkpt><trkpt lat="36.91492189995331" lon="15.10885743489744"><ele>115.0</ele><time>2026-03-26T18:29:03Z</time></trkpt><trkpt lat="36.914928528150185" lon="15.10877049607845"><ele>115.66666666666666</ele><time>2026-03-26T18:29:04Z</time></trkpt><trkpt lat="36.914948916733906" lon="15.108694930276084"><ele>116.33333333333333</ele><time>2026-03-26T18:29:05Z</time></trkpt><trkpt lat="36.914999999169446" lon="15.108609152933704"><ele>117.0</ele><time>2026-03-26T18:29:06Z</time></trkpt><trkpt lat="36.91504803148722" lon="15.108519811058757"><ele>116.8</ele><time>2026-03-26T18:29:07Z</time></trkpt><trkpt lat="36.915097036034624" lon="15.108429622172244"><ele>116.6</ele><time>2026-03-26T18:29:08Z</time></trkpt><trkpt lat="36.915150439464995" lon="15.108331336850663"><ele>116.39999999999999</ele><time>2026-03-26T18:29:09Z</time></trkpt><trkpt lat="36.91518370412895" lon="15.108210522096655"><ele>116.19999999999999</ele><time>2026-03-26T18:29:10Z</time></trkpt><trkpt lat="36.91525126420615" lon="15.108088093565536"><ele>116.0</ele><time>2026-03-26T18:29:11Z</time></trkpt><trkpt lat="36.91529356199499" lon="15.107967842707694"><ele>116.0</ele><time>2026-03-26T18:29:12Z</time></trkpt><trkpt lat="36.91533165039921" lon="15.10785955923827"><ele>116.0</ele><time>2026-03-26T18:29:13Z</time></trkpt><trkpt lat="36.91535103916471" lon="15.107760503897662"><ele>116.0</ele><time>2026-03-26T18:29:14Z</time></trkpt><trkpt lat="36.915396779242194" lon="15.107677108802417"><ele>116.0</ele><time>2026-03-26T18:29:15Z</time></trkpt><trkpt lat="36.915484238782746" lon="15.107600942001437"><ele>116.0</ele><time>2026-03-26T18:29:16Z</time></trkpt><trkpt lat="36.91556014762037" lon="15.107517129712214"><ele>116.0</ele><time>2026-03-26T18:29:17Z</time></trkpt><trkpt lat="36.9156211031553" lon="15.107457626796265"><ele>116.0</ele><time>2026-03-26T18:29:18Z</time></trkpt><trkpt lat="36.91569076250368" lon="15.107432523264036"><ele>116.0</ele><time>2026-03-26T18:29:20Z</time></trkpt><trkpt lat="36.915733007712234" lon="15.107492205691976"><ele>116.0</ele><time>2026-03-26T18:29:23Z</time></trkpt><trkpt lat="36.91561776876721" lon="15.107624698231803"><ele>116.0</ele><time>2026-03-26T18:29:24Z</time></trkpt><trkpt lat="36.915551822655594" lon="15.10774586233581"><ele>116.0</ele><time>2026-03-26T18:29:25Z</time></trkpt><trkpt lat="36.915493948458504" lon="15.107911741073037"><ele>116.0</ele><time>2026-03-26T18:29:26Z</time></trkpt><trkpt lat="36.91541888996236" lon="15.10807446680207"><ele>116.0</ele><time>2026-03-26T18:29:27Z</time></trkpt><trkpt lat="36.915366100191534" lon="15.108238359420337"><ele>116.0</ele><time>2026-03-26T18:29:28Z</time></trkpt><trkpt lat="36.91532656383156" lon="15.108427437703874"><ele>114.0</ele><time>2026-03-26T18:29:29Z</time></trkpt><trkpt lat="36.91529812269535" lon="15.10864074583091"><ele>112.0</ele><time>2026-03-26T18:29:30Z</time></trkpt><trkpt lat="36.91528062155888" lon="15.108861386833452"><ele>110.0</ele><time>2026-03-26T18:29:31Z</time></trkpt><trkpt lat="36.91524446647269" lon="15.109080179618749"><ele>109.66666666666666</ele><time>2026-03-26T18:29:32Z</time></trkpt><trkpt lat="36.91522738035594" lon="15.109287465000548"><ele>109.33333333333334</ele><time>2026-03-26T18:29:33Z</time></trkpt><trkpt lat="36.91521133873518" lon="15.109487197195827"><ele>109.0</ele><time>2026-03-26T18:29:34Z</time></trkpt><trkpt lat="36.915208216607724" lon="15.109682426725591"><ele>109.0</ele><time>2026-03-26T18:29:35Z</time></trkpt><trkpt lat="36.91519055887397" lon="15.109870962542674"><ele>109.0</ele><time>2026-03-26T18:29:36Z</time></trkpt><trkpt lat="36.91517536291776" lon="15.110032433566714"><ele>109.0</ele><time>2026-03-26T18:29:37Z</time></trkpt><trkpt lat="36.915166931147695" lon="15.110166683205962"><ele>109.0</ele><time>2026-03-26T18:29:38Z</time></trkpt><trkpt lat="36.915180541855634" lon="15.110291697979433"><ele>108.25</ele><time>2026-03-26T18:29:39Z</time></trkpt><trkpt lat="36.91521999770165" lon="15.110406699030491"><ele>107.5</ele><time>2026-03-26T18:29:40Z</time></trkpt><trkpt lat="36.91528991934596" lon="15.11052767733586"><ele>106.75</ele><time>2026-03-26T18:29:41Z</time></trkpt><trkpt lat="36.91538318715706" lon="15.110653944310375"><ele>106.0</ele><time>2026-03-26T18:29:42Z</time></trkpt><trkpt lat="36.915468241093954" lon="15.110773320247905"><ele>103.66666666666667</ele><time>2026-03-26T18:29:43Z</time></trkpt><trkpt lat="36.91554252061042" lon="15.110918235246428"><ele>101.33333333333334</ele><time>2026-03-26T18:29:44Z</time></trkpt><trkpt lat="36.91558579515594" lon="15.11109690164173"><ele>99.0</ele><time>2026-03-26T18:29:45Z</time></trkpt><trkpt lat="36.91562868862269" lon="15.111304647959207"><ele>99.0</ele><time>2026-03-26T18:29:46Z</time></trkpt><trkpt lat="36.91567940083513" lon="15.111538916978416"><ele>99.0</ele><time>2026-03-26T18:29:47Z</time></trkpt><trkpt lat="36.91571819769211" lon="15.11177169057069"><ele>99.0</ele><time>2026-03-26T18:29:48Z</time></trkpt><trkpt lat="36.915770056393846" lon="15.11201646323575"><ele>99.0</ele><time>2026-03-26T18:29:49Z</time></trkpt><trkpt lat="36.915821571912375" lon="15.112270129770046"><ele>99.0</ele><time>2026-03-26T18:29:50Z</time></trkpt><trkpt lat="36.915866269631906" lon="15.11249954885701"><ele>99.0</ele><time>2026-03-26T18:29:51Z</time></trkpt><trkpt lat="36.91591118449152" lon="15.112716553956236"><ele>100.4</ele><time>2026-03-26T18:29:52Z</time></trkpt><trkpt lat="36.9159508707268" lon="15.112904438680653"><ele>101.80000000000001</ele><time>2026-03-26T18:29:53Z</time></trkpt><trkpt lat="36.91598142405376" lon="15.113055858573658"><ele>103.19999999999999</ele><time>2026-03-26T18:29:54Z</time></trkpt><trkpt lat="36.91599241649756" lon="15.113162682859741"><ele>104.6</ele><time>2026-03-26T18:29:55Z</time></trkpt><trkpt lat="36.9159769571347" lon="15.11324830060742"><ele>106.0</ele><time>2026-03-26T18:29:56Z</time></trkpt><trkpt lat="36.9159346790842" lon="15.113308342699627"><ele>105.0</ele><time>2026-03-26T18:29:57Z</time></trkpt><trkpt lat="36.91586174661506" lon="15.113360739280989"><ele>104.0</ele><time>2026-03-26T18:29:58Z</time></trkpt><trkpt lat="36.91575042993228" lon="15.113371358759277"><ele>103.0</ele><time>2026-03-26T18:29:59Z</time></trkpt><trkpt lat="36.915635373873585" lon="15.11341724079015"><ele>102.0</ele><time>2026-03-26T18:30:00Z</time></trkpt><trkpt lat="36.915539065400814" lon="15.113474372692249"><ele>101.0</ele><time>2026-03-26T18:30:01Z</time></trkpt><trkpt lat="36.91545799648739" lon="15.113569324264027"><ele>101.0</ele><time>2026-03-26T18:30:02Z</time></trkpt><trkpt lat="36.91540080889588" lon="15.113704152077107"><ele>101.0</ele><time>2026-03-26T18:30:03Z</time></trkpt><trkpt lat="36.915349544897474" lon="15.11388740047806"><ele>101.0</ele><time>2026-03-26T18:30:04Z</time></trkpt><trkpt lat="36.91528461564256" lon="15.114096470368782"><ele>101.33333333333333</ele><time>2026-03-26T18:30:05Z</time></trkpt><trkpt lat="36.91520981597755" lon="15.11432719401871"><ele>101.66666666666666</ele><time>2026-03-26T18:30:06Z</time></trkpt><trkpt lat="36.91513347725208" lon="15.114565370783895"><ele>102.0</ele><time>2026-03-26T18:30:07Z</time></trkpt><trkpt lat="36.91505915801656" lon="15.114797060466644"><ele>99.66666666666667</ele><time>2026-03-26T18:30:08Z</time></trkpt><trkpt lat="36.91499461502077" lon="15.115013238290867"><ele>97.33333333333334</ele><time>2026-03-26T18:30:09Z</time></trkpt><trkpt lat="36.91493400232599" lon="15.115222951089493"><ele>95.0</ele><time>2026-03-26T18:30:10Z</time></trkpt><trkpt lat="36.91487004610565" lon="15.11544133945861"><ele>95.0</ele><time>2026-03-26T18:30:11Z</time></trkpt><trkpt lat="36.91479913351316" lon="15.115661284968002"><ele>95.0</ele><time>2026-03-26T18:30:12Z</time></trkpt><trkpt lat="36.91473279890172" lon="15.115872351015355"><ele>95.0</ele><time>2026-03-26T18:30:13Z</time></trkpt><trkpt lat="36.9146712565878" lon="15.116072784594152"><ele>94.66666666666667</ele><time>2026-03-26T18:30:14Z</time></trkpt><trkpt lat="36.91461185480221" lon="15.116282982902392"><ele>94.33333333333333</ele><time>2026-03-26T18:30:15Z</time></trkpt><trkpt lat="36.91456822605928" lon="15.116493034989242"><ele>94.0</ele><time>2026-03-26T18:30:16Z</time></trkpt><trkpt lat="36.914520186654634" lon="15.116689774926952"><ele>92.66666666666666</ele><time>2026-03-26T18:30:17Z</time></trkpt><trkpt lat="36.91444558320222" lon="15.11686946479151"><ele>91.33333333333333</ele><time>2026-03-26T18:30:18Z</time></trkpt><trkpt lat="36.914339474843665" lon="15.11704179446631"><ele>90.0</ele><time>2026-03-26T18:30:19Z</time></trkpt><trkpt lat="36.91421404083217" lon="15.117220391931962"><ele>88.66666666666667</ele><time>2026-03-26T18:30:20Z</time></trkpt><trkpt lat="36.914092884637505" lon="15.117411611876221"><ele>87.33333333333334</ele><time>2026-03-26T18:30:21Z</time></trkpt><trkpt lat="36.91398045879519" lon="15.117600022866327"><ele>86.0</ele><time>2026-03-26T18:30:22Z</time></trkpt><trkpt lat="36.91387565526665" lon="15.117785714508173"><ele>86.0</ele><time>2026-03-26T18:30:23Z</time></trkpt><trkpt lat="36.91377896374621" lon="15.117998325338368"><ele>86.0</ele><time>2026-03-26T18:30:24Z</time></trkpt><trkpt lat="36.91368425572733" lon="15.11822890111089"><ele>86.0</ele><time>2026-03-26T18:30:25Z</time></trkpt><trkpt lat="36.91358464428126" lon="15.118464142197023"><ele>84.66666666666667</ele><time>2026-03-26T18:30:26Z</time></trkpt><trkpt lat="36.913482387836225" lon="15.118697894288335"><ele>83.33333333333333</ele><time>2026-03-26T18:30:27Z</time></trkpt><trkpt lat="36.91338699268049" lon="15.118923237884392"><ele>82.0</ele><time>2026-03-26T18:30:27.999Z</time></trkpt><trkpt lat="36.91329595561339" lon="15.1191311543689"><ele>81.0</ele><time>2026-03-26T18:30:28.999Z</time></trkpt><trkpt lat="36.91321694891037" lon="15.11931241218579"><ele>80.0</ele><time>2026-03-26T18:30:29.999Z</time></trkpt><trkpt lat="36.9131457071696" lon="15.11947166359443"><ele>79.0</ele><time>2026-03-26T18:30:30.999Z</time></trkpt><trkpt lat="36.91308587548259" lon="15.119608363706291"><ele>78.0</ele><time>2026-03-26T18:30:31.999Z</time></trkpt><trkpt lat="36.91302786599277" lon="15.119710097963893"><ele>78.0</ele><time>2026-03-26T18:30:32.999Z</time></trkpt><trkpt lat="36.91296628576684" lon="15.1198098015567"><ele>78.0</ele><time>2026-03-26T18:30:33.999Z</time></trkpt><trkpt lat="36.91301370101012" lon="15.120052531232123"><ele>78.0</ele><time>2026-03-26T18:30:34.999Z</time></trkpt><trkpt lat="36.913008234743984" lon="15.120269672539365"><ele>77.33333333333333</ele><time>2026-03-26T18:30:35.999Z</time></trkpt><trkpt lat="36.913007408874236" lon="15.120491496872107"><ele>76.66666666666666</ele><time>2026-03-26T18:30:36.999Z</time></trkpt><trkpt lat="36.913015496532886" lon="15.120689693729078"><ele>76.0</ele><time>2026-03-26T18:30:37.999Z</time></trkpt><trkpt lat="36.913030353332296" lon="15.120882313565673"><ele>75.33333333333333</ele><time>2026-03-26T18:30:38.999Z</time></trkpt><trkpt lat="36.91304686803581" lon="15.121102030560532"><ele>74.66666666666667</ele><time>2026-03-26T18:30:39.999Z</time></trkpt><trkpt lat="36.913061463786484" lon="15.121345670916952"><ele>74.0</ele><time>2026-03-26T18:30:40.999Z</time></trkpt><trkpt lat="36.913083673898676" lon="15.121597182164017"><ele>74.0</ele><time>2026-03-26T18:30:41.999Z</time></trkpt><trkpt lat="36.913086025639615" lon="15.121845746963814"><ele>74.0</ele><time>2026-03-26T18:30:42.999Z</time></trkpt><trkpt lat="36.91311648723681" lon="15.122074791670542"><ele>74.0</ele><time>2026-03-26T18:30:43.999Z</time></trkpt><trkpt lat="36.91311604110416" lon="15.122321481293394"><ele>73.0</ele><time>2026-03-26T18:30:45Z</time></trkpt><trkpt lat="36.91312892194342" lon="15.122545333993317"><ele>72.0</ele><time>2026-03-26T18:30:46Z</time></trkpt><trkpt lat="36.91314218454333" lon="15.122775821255598"><ele>71.0</ele><time>2026-03-26T18:30:47Z</time></trkpt><trkpt lat="36.91315581478887" lon="15.123027881072703"><ele>70.0</ele><time>2026-03-26T18:30:48Z</time></trkpt><trkpt lat="36.913170760510305" lon="15.123307621016508"><ele>69.0</ele><time>2026-03-26T18:30:49Z</time></trkpt><trkpt lat="36.91318786629451" lon="15.123593432179652"><ele>69.0</ele><time>2026-03-26T18:30:50Z</time></trkpt><trkpt lat="36.913216221498224" lon="15.12387655846915"><ele>69.0</ele><time>2026-03-26T18:30:51Z</time></trkpt><trkpt lat="36.91323858657824" lon="15.124147602379576"><ele>69.0</ele><time>2026-03-26T18:30:52Z</time></trkpt><trkpt lat="36.91325025058291" lon="15.124411745571555"><ele>68.0</ele><time>2026-03-26T18:30:53Z</time></trkpt><trkpt lat="36.91326078058219" lon="15.124671171737917"><ele>67.0</ele><time>2026-03-26T18:30:54Z</time></trkpt><trkpt lat="36.91326542042687" lon="15.124917217348134"><ele>66.0</ele><time>2026-03-26T18:30:55Z</time></trkpt><trkpt lat="36.91326323861359" lon="15.125146963980132"><ele>65.66666666666667</ele><time>2026-03-26T18:30:56Z</time></trkpt><trkpt lat="36.913259648143246" lon="15.125374767244814"><ele>65.33333333333334</ele><time>2026-03-26T18:30:57Z</time></trkpt><trkpt lat="36.913255468336764" lon="15.125585735982597"><ele>65.0</ele><time>2026-03-26T18:30:58Z</time></trkpt><trkpt lat="36.91325130589396" lon="15.125775153763502"><ele>64.8</ele><time>2026-03-26T18:30:59Z</time></trkpt><trkpt lat="36.913246479259385" lon="15.125927180299938"><ele>64.6</ele><time>2026-03-26T18:31:00Z</time></trkpt><trkpt lat="36.913243638565056" lon="15.126068118113558"><ele>64.4</ele><time>2026-03-26T18:31:01Z</time></trkpt><trkpt lat="36.91324167837036" lon="15.126187842404814"><ele>64.2</ele><time>2026-03-26T18:31:02Z</time></trkpt><trkpt lat="36.91323873943259" lon="15.126281796364653"><ele>64.0</ele><time>2026-03-26T18:31:03Z</time></trkpt><trkpt lat="36.91323539358393" lon="15.126418346508236"><ele>64.0</ele><time>2026-03-26T18:31:05Z</time></trkpt><trkpt lat="36.91323414514013" lon="15.126502923141155"><ele>64.0</ele><time>2026-03-26T18:31:07Z</time></trkpt><trkpt lat="36.91321141845528" lon="15.126599366681761"><ele>64.0</ele><time>2026-03-26T18:31:10Z</time></trkpt><trkpt lat="36.91307458514186" lon="15.126652677830823"><ele>64.0</ele><time>2026-03-26T18:31:12Z</time></trkpt><trkpt lat="36.91295941054788" lon="15.126659096847863"><ele>64.0</ele><time>2026-03-26T18:31:13Z</time></trkpt><trkpt lat="36.9128158037066" lon="15.126670527276703"><ele>63.0</ele><time>2026-03-26T18:31:14Z</time></trkpt><trkpt lat="36.912653443385196" lon="15.126665733663529"><ele>62.0</ele><time>2026-03-26T18:31:15Z</time></trkpt><trkpt lat="36.91246843485047" lon="15.126652835971496"><ele>61.0</ele><time>2026-03-26T18:31:16Z</time></trkpt><trkpt lat="36.91226624528891" lon="15.126653826646589"><ele>60.666666666666664</ele><time>2026-03-26T18:31:17Z</time></trkpt><trkpt lat="36.912070639851066" lon="15.12666099535139"><ele>60.33333333333333</ele><time>2026-03-26T18:31:18Z</time></trkpt><trkpt lat="36.91189648981091" lon="15.126663589453686"><ele>60.0</ele><time>2026-03-26T18:31:19Z</time></trkpt><trkpt lat="36.911734918792654" lon="15.126665117777572"><ele>59.5</ele><time>2026-03-26T18:31:20Z</time></trkpt><trkpt lat="36.91159262219013" lon="15.126666024942693"><ele>59.0</ele><time>2026-03-26T18:31:21Z</time></trkpt><trkpt lat="36.91146950299963" lon="15.126663713265533"><ele>58.5</ele><time>2026-03-26T18:31:22Z</time></trkpt><trkpt lat="36.91136165036633" lon="15.12666062233853"><ele>58.0</ele><time>2026-03-26T18:31:23Z</time></trkpt><trkpt lat="36.91127367143207" lon="15.12666050684651"><ele>58.0</ele><time>2026-03-26T18:31:24Z</time></trkpt><trkpt lat="36.91116357425425" lon="15.126657613173577"><ele>58.0</ele><time>2026-03-26T18:31:26Z</time></trkpt><trkpt lat="36.91110748175237" lon="15.126855855248088"><ele>58.0</ele><time>2026-03-26T18:31:28Z</time></trkpt><trkpt lat="36.91111151725101" lon="15.126980268330112"><ele>58.0</ele><time>2026-03-26T18:31:29Z</time></trkpt><trkpt lat="36.91112845444369" lon="15.127068102774055"><ele>57.99999999999999</ele><time>2026-03-26T18:31:30Z</time></trkpt><trkpt lat="36.91111811730969" lon="15.127171368031892"><ele>58.0</ele><time>2026-03-26T18:31:33Z</time></trkpt><trkpt lat="36.91113237198198" lon="15.127280270168768"><ele>58.0</ele><time>2026-03-26T18:31:35Z</time></trkpt><trkpt lat="36.9111161802859" lon="15.12737272570572"><ele>58.0</ele><time>2026-03-26T18:31:36Z</time></trkpt><trkpt lat="36.911115047372476" lon="15.127487354694848"><ele>57.99999999999999</ele><time>2026-03-26T18:31:37Z</time></trkpt><trkpt lat="36.9111301070585" lon="15.127576526802933"><ele>58.0</ele><time>2026-03-26T18:31:38Z</time></trkpt><trkpt lat="36.9111291673697" lon="15.127663402893145"><ele>57.599999999999994</ele><time>2026-03-26T18:31:39Z</time></trkpt><trkpt lat="36.91112570723063" lon="15.127767261010554"><ele>57.199999999999996</ele><time>2026-03-26T18:31:40Z</time></trkpt><trkpt lat="36.9111114721886" lon="15.127884894205872"><ele>56.8</ele><time>2026-03-26T18:31:41Z</time></trkpt><trkpt lat="36.911122863945955" lon="15.128000538217734"><ele>56.4</ele><time>2026-03-26T18:31:42Z</time></trkpt><trkpt lat="36.91111425040696" lon="15.128112164005149"><ele>56.0</ele><time>2026-03-26T18:31:43Z</time></trkpt><trkpt lat="36.91111219737905" lon="15.128223043713446"><ele>56.0</ele><time>2026-03-26T18:31:44Z</time></trkpt><trkpt lat="36.91110865188187" lon="15.128337494911374"><ele>55.99999999999999</ele><time>2026-03-26T18:31:45Z</time></trkpt><trkpt lat="36.911105852389134" lon="15.12845024871187"><ele>55.99999999999999</ele><time>2026-03-26T18:31:46Z</time></trkpt><trkpt lat="36.91110484716066" lon="15.128578300694233"><ele>56.0</ele><time>2026-03-26T18:31:47Z</time></trkpt><trkpt lat="36.91110969718505" lon="15.128722298487062"><ele>56.0</ele><time>2026-03-26T18:31:48Z</time></trkpt><trkpt lat="36.911118686792776" lon="15.128844698670841"><ele>56.00000000000001</ele><time>2026-03-26T18:31:49Z</time></trkpt><trkpt lat="36.91112406350486" lon="15.12895385588247"><ele>56.0</ele><time>2026-03-26T18:31:50Z</time></trkpt><trkpt lat="36.91112641735891" lon="15.129052301125762"><ele>56.0</ele><time>2026-03-26T18:31:51Z</time></trkpt><trkpt lat="36.91111518887853" lon="15.129145413469116"><ele>56.0</ele><time>2026-03-26T18:31:52Z</time></trkpt><trkpt lat="36.91109729141002" lon="15.129250158638275"><ele>56.00000000000001</ele><time>2026-03-26T18:31:53Z</time></trkpt><trkpt lat="36.91107661600663" lon="15.129344517390425"><ele>56.0</ele><time>2026-03-26T18:31:54Z</time></trkpt><trkpt lat="36.91103156932506" lon="15.129457699001653"><ele>56.0</ele><time>2026-03-26T18:31:56Z</time></trkpt><trkpt lat="36.91097030809553" lon="15.129482732881737"><ele>55.99999999999999</ele><time>2026-03-26T18:31:58Z</time></trkpt><trkpt lat="36.91087999119751" lon="15.129438858528447"><ele>55.99999999999999</ele><time>2026-03-26T18:31:59Z</time></trkpt><trkpt lat="36.910760857238024" lon="15.129378875996359"><ele>56.0</ele><time>2026-03-26T18:32:00Z</time></trkpt><trkpt lat="36.91063539015034" lon="15.129287163714563"><ele>56.0</ele><time>2026-03-26T18:32:01Z</time></trkpt><trkpt lat="36.910489500690076" lon="15.129223372199624"><ele>55.75</ele><time>2026-03-26T18:32:02Z</time></trkpt><trkpt lat="36.91035882496058" lon="15.129131933323732"><ele>55.5</ele><time>2026-03-26T18:32:03Z</time></trkpt><trkpt lat="36.910226712192916" lon="15.129074935929957"><ele>55.25</ele><time>2026-03-26T18:32:04Z</time></trkpt><trkpt lat="36.9101083741073" lon="15.129009926106988"><ele>55.0</ele><time>2026-03-26T18:32:05Z</time></trkpt><trkpt lat="36.90999978322812" lon="15.128950271168188"><ele>55.0</ele><time>2026-03-26T18:32:06Z</time></trkpt><trkpt lat="36.909893640057355" lon="15.128893091715238"><ele>55.0</ele><time>2026-03-26T18:32:07Z</time></trkpt><trkpt lat="36.909793880152" lon="15.128839588832385"><ele>55.0</ele><time>2026-03-26T18:32:08Z</time></trkpt><trkpt lat="36.909708020775724" lon="15.128792558509382"><ele>55.0</ele><time>2026-03-26T18:32:09Z</time></trkpt><trkpt lat="36.90963146366543" lon="15.128729628726198"><ele>55.0</ele><time>2026-03-26T18:32:10Z</time></trkpt><trkpt lat="36.909557875554384" lon="15.128690859140765"><ele>55.0</ele><time>2026-03-26T18:32:11Z</time></trkpt><trkpt lat="36.90948482226368" lon="15.128674600031864"><ele>55.0</ele><time>2026-03-26T18:32:12Z</time></trkpt><trkpt lat="36.90940934109077" lon="15.128642149640616"><ele>55.0</ele><time>2026-03-26T18:32:13Z</time></trkpt><trkpt lat="36.909323366137635" lon="15.128578226578979"><ele>55.0</ele><time>2026-03-26T18:32:14Z</time></trkpt><trkpt lat="36.90923077580205" lon="15.12851129372336"><ele>55.0</ele><time>2026-03-26T18:32:15Z</time></trkpt><trkpt lat="36.909136012338614" lon="15.12845891939994"><ele>55.4</ele><time>2026-03-26T18:32:16Z</time></trkpt><trkpt lat="36.90904158164066" lon="15.128413503341731"><ele>55.8</ele><time>2026-03-26T18:32:17Z</time></trkpt><trkpt lat="36.9089493444136" lon="15.128362585494758"><ele>56.2</ele><time>2026-03-26T18:32:18Z</time></trkpt><trkpt lat="36.90886793970871" lon="15.128310924611368"><ele>56.6</ele><time>2026-03-26T18:32:19Z</time></trkpt><trkpt lat="36.908792531016076" lon="15.128262522712939"><ele>57.0</ele><time>2026-03-26T18:32:20Z</time></trkpt><trkpt lat="36.90870601937775" lon="15.128221539904533"><ele>57.166666666666664</ele><time>2026-03-26T18:32:21Z</time></trkpt><trkpt lat="36.90862585963473" lon="15.1281711081239"><ele>57.33333333333333</ele><time>2026-03-26T18:32:22Z</time></trkpt><trkpt lat="36.908557990184114" lon="15.128130214031735"><ele>57.5</ele><time>2026-03-26T18:32:23Z</time></trkpt><trkpt lat="36.90849603050281" lon="15.128086602331933"><ele>57.666666666666664</ele><time>2026-03-26T18:32:24Z</time></trkpt><trkpt lat="36.9084369900416" lon="15.128044154991157"><ele>57.83333333333333</ele><time>2026-03-26T18:32:25Z</time></trkpt><trkpt lat="36.908327647413856" lon="15.127967304691769"><ele>58.0</ele><time>2026-03-26T18:32:27Z</time></trkpt><trkpt lat="36.90822825646854" lon="15.127894948340591"><ele>58.0</ele><time>2026-03-26T18:32:29Z</time></trkpt><trkpt lat="36.9081301567969" lon="15.127828646440975"><ele>58.0</ele><time>2026-03-26T18:32:30.999Z</time></trkpt><trkpt lat="36.90804715383073" lon="15.127773404728638"><ele>58.0</ele><time>2026-03-26T18:32:32.999Z</time></trkpt><trkpt lat="36.907980681887985" lon="15.127747728966206"><ele>58.0</ele><time>2026-03-26T18:32:35.999Z</time></trkpt><trkpt lat="36.907913982168765" lon="15.127721566619917"><ele>58.0</ele><time>2026-03-26T18:32:38.999Z</time></trkpt><trkpt lat="36.907864811695866" lon="15.12788765222162"><ele>58.0</ele><time>2026-03-26T18:32:41.999Z</time></trkpt><trkpt lat="36.907911260529794" lon="15.1279989335458"><ele>58.0</ele><time>2026-03-26T18:32:42.999Z</time></trkpt><trkpt lat="36.907931206557514" lon="15.128091968303005"><ele>58.0</ele><time>2026-03-26T18:32:43.999Z</time></trkpt><trkpt lat="36.90791833145875" lon="15.1281698828142"><ele>58.0</ele><time>2026-03-26T18:32:44.999Z</time></trkpt><trkpt lat="36.907893390634754" lon="15.128264150795175"><ele>55.0</ele><time>2026-03-26T18:32:46.999Z</time></trkpt></trkseg></trk></gpx>